<?xml version='1.0' encoding='UTF-8'?><gpx version="1.1" creator="JPX - https://github.com/jenetics/jpx" xmlns="http://www.topografix.com/GPX/1/1"><trk><trkseg><trkpt lat="44.9501281" lon="8.0267819"><ele>243.99999999999997</ele><time>2026-05-01T08:18:05.878Z</time></trkpt><trkpt lat="44.9501882" lon="8.0267459"><ele>244.0</ele><time>2026-05-01T08:20:05.878Z</time></trkpt><trkpt lat="44.9502249" lon="8.0266694"><ele>244.0</ele><time>2026-05-01T08:20:07.879Z</time></trkpt><trkpt lat="44.9502844" lon="8.0265389"><ele>244.0</ele><time>2026-05-01T08:20:09.878Z</time></trkpt><trkpt lat="44.9503169" lon="8.0264601"><ele>243.99999999999997</ele><time>2026-05-01T08:20:10.878Z</time></trkpt><trkpt lat="44.950336" lon="8.0263612"><ele>244.0</ele><time>2026-05-01T08:20:11.878Z</time></trkpt><trkpt lat="44.9503726" lon="8.0262727"><ele>242.49999999999997</ele><time>2026-05-01T08:20:12.878Z</time></trkpt><trkpt lat="44.9503961" lon="8.026167"><ele>241.0</ele><time>2026-05-01T08:20:13.878Z</time></trkpt><trkpt lat="44.9504251" lon="8.0260559"><ele>239.5</ele><time>2026-05-01T08:20:14.878Z</time></trkpt><trkpt lat="44.9504362" lon="8.0259319"><ele>238.0</ele><time>2026-05-01T08:20:15.878Z</time></trkpt><trkpt lat="44.9504327" lon="8.0257939"><ele>236.49999999999997</ele><time>2026-05-01T08:20:16.878Z</time></trkpt><trkpt lat="44.9504267" lon="8.0256661"><ele>235.0</ele><time>2026-05-01T08:20:17.878Z</time></trkpt><trkpt lat="44.950417" lon="8.0255269"><ele>234.0</ele><time>2026-05-01T08:20:18.878Z</time></trkpt><trkpt lat="44.9504034" lon="8.0253847"><ele>233.0</ele><time>2026-05-01T08:20:19.878Z</time></trkpt><trkpt lat="44.9504064" lon="8.02525"><ele>232.0</ele><time>2026-05-01T08:20:20.878Z</time></trkpt><trkpt lat="44.9503991" lon="8.0251101"><ele>231.0</ele><time>2026-05-01T08:20:21.878Z</time></trkpt><trkpt lat="44.9503883" lon="8.0249779"><ele>230.0</ele><time>2026-05-01T08:20:22.878Z</time></trkpt><trkpt lat="44.9503755" lon="8.0248348"><ele>229.0</ele><time>2026-05-01T08:20:23.878Z</time></trkpt><trkpt lat="44.950366" lon="8.0247148"><ele>228.0</ele><time>2026-05-01T08:20:24.878Z</time></trkpt><trkpt lat="44.9503482" lon="8.0245866"><ele>227.0</ele><time>2026-05-01T08:20:25.878Z</time></trkpt><trkpt lat="44.950315" lon="8.0244198"><ele>226.0</ele><time>2026-05-01T08:20:26.878Z</time></trkpt><trkpt lat="44.9503161" lon="8.0242604"><ele>225.0</ele><time>2026-05-01T08:20:27.878Z</time></trkpt><trkpt lat="44.9502916" lon="8.0241207"><ele>223.4</ele><time>2026-05-01T08:20:28.878Z</time></trkpt><trkpt lat="44.95028" lon="8.0239734"><ele>221.8</ele><time>2026-05-01T08:20:29.878Z</time></trkpt><trkpt lat="44.950284" lon="8.0238527"><ele>220.2</ele><time>2026-05-01T08:20:30.878Z</time></trkpt><trkpt lat="44.9502979" lon="8.02372"><ele>218.6</ele><time>2026-05-01T08:20:31.878Z</time></trkpt><trkpt lat="44.9503352" lon="8.0235951"><ele>217.0</ele><time>2026-05-01T08:20:32.878Z</time></trkpt><trkpt lat="44.9503723" lon="8.0234425"><ele>215.5</ele><time>2026-05-01T08:20:33.879Z</time></trkpt><trkpt lat="44.9504201" lon="8.0233006"><ele>214.0</ele><time>2026-05-01T08:20:34.878Z</time></trkpt><trkpt lat="44.9504708" lon="8.0231736"><ele>212.5</ele><time>2026-05-01T08:20:35.878Z</time></trkpt><trkpt lat="44.9505173" lon="8.0230129"><ele>211.0</ele><time>2026-05-01T08:20:36.878Z</time></trkpt><trkpt lat="44.9505809" lon="8.022861"><ele>211.0</ele><time>2026-05-01T08:20:37.878Z</time></trkpt><trkpt lat="44.9506305" lon="8.0226955"><ele>211.0</ele><time>2026-05-01T08:20:38.879Z</time></trkpt><trkpt lat="44.9506783" lon="8.0225465"><ele>211.0</ele><time>2026-05-01T08:20:39.878Z</time></trkpt><trkpt lat="44.9507462" lon="8.0224382"><ele>211.0</ele><time>2026-05-01T08:20:40.878Z</time></trkpt><trkpt lat="44.9508131" lon="8.0223185"><ele>208.60000000000002</ele><time>2026-05-01T08:20:41.878Z</time></trkpt><trkpt lat="44.9509251" lon="8.0222645"><ele>206.2</ele><time>2026-05-01T08:20:42.878Z</time></trkpt><trkpt lat="44.9510188" lon="8.0222089"><ele>203.8</ele><time>2026-05-01T08:20:43.878Z</time></trkpt><trkpt lat="44.9511138" lon="8.022187"><ele>201.39999999999998</ele><time>2026-05-01T08:20:44.878Z</time></trkpt><trkpt lat="44.9511972" lon="8.0221931"><ele>199.0</ele><time>2026-05-01T08:20:45.878Z</time></trkpt><trkpt lat="44.9512722" lon="8.0222173"><ele>199.0</ele><time>2026-05-01T08:20:46.878Z</time></trkpt><trkpt lat="44.9514096" lon="8.0223486"><ele>199.0</ele><time>2026-05-01T08:20:48.878Z</time></trkpt><trkpt lat="44.9514714" lon="8.0224531"><ele>199.0</ele><time>2026-05-01T08:20:49.878Z</time></trkpt><trkpt lat="44.9514745" lon="8.0225933"><ele>199.0</ele><time>2026-05-01T08:20:50.878Z</time></trkpt><trkpt lat="44.9514249" lon="8.0227561"><ele>202.0</ele><time>2026-05-01T08:20:51.878Z</time></trkpt><trkpt lat="44.9513855" lon="8.0229234"><ele>205.0</ele><time>2026-05-01T08:20:52.878Z</time></trkpt><trkpt lat="44.95134" lon="8.023083"><ele>208.0</ele><time>2026-05-01T08:20:53.878Z</time></trkpt><trkpt lat="44.951301" lon="8.0232745"><ele>211.0</ele><time>2026-05-01T08:20:54.878Z</time></trkpt><trkpt lat="44.9512738" lon="8.0234517"><ele>212.16666666666666</ele><time>2026-05-01T08:20:55.878Z</time></trkpt><trkpt lat="44.9512646" lon="8.0235707"><ele>213.33333333333331</ele><time>2026-05-01T08:20:56.878Z</time></trkpt><trkpt lat="44.9512554" lon="8.0236897"><ele>214.5</ele><time>2026-05-01T08:20:57.879Z</time></trkpt><trkpt lat="44.9512408" lon="8.0238165"><ele>215.66666666666669</ele><time>2026-05-01T08:20:58.878Z</time></trkpt><trkpt lat="44.9512052" lon="8.023917"><ele>216.83333333333334</ele><time>2026-05-01T08:20:59.878Z</time></trkpt><trkpt lat="44.9511109" lon="8.0239541"><ele>218.0</ele><time>2026-05-01T08:21:00.878Z</time></trkpt><trkpt lat="44.9510301" lon="8.0239626"><ele>218.0</ele><time>2026-05-01T08:21:01.878Z</time></trkpt><trkpt lat="44.9509437" lon="8.0239821"><ele>218.0</ele><time>2026-05-01T08:21:02.878Z</time></trkpt><trkpt lat="44.9508774" lon="8.0240129"><ele>218.0</ele><time>2026-05-01T08:21:03.878Z</time></trkpt><trkpt lat="44.9507808" lon="8.0241691"><ele>218.0</ele><time>2026-05-01T08:21:05.878Z</time></trkpt><trkpt lat="44.9507464" lon="8.0242765"><ele>218.0</ele><time>2026-05-01T08:21:06.878Z</time></trkpt><trkpt lat="44.9507302" lon="8.0243791"><ele>219.16666666666669</ele><time>2026-05-01T08:21:07.878Z</time></trkpt><trkpt lat="44.95073" lon="8.0244694"><ele>220.33333333333334</ele><time>2026-05-01T08:21:08.878Z</time></trkpt><trkpt lat="44.9507454" lon="8.0246068"><ele>221.5</ele><time>2026-05-01T08:21:10.878Z</time></trkpt><trkpt lat="44.9507383" lon="8.0247079"><ele>222.66666666666669</ele><time>2026-05-01T08:23:23.878Z</time></trkpt><trkpt lat="44.9507329" lon="8.0248166"><ele>223.83333333333334</ele><time>2026-05-01T08:23:25.878Z</time></trkpt><trkpt lat="44.9507725" lon="8.0249661"><ele>225.0</ele><time>2026-05-01T08:23:27.879Z</time></trkpt><trkpt lat="44.9507979" lon="8.0250479"><ele>225.83333333333334</ele><time>2026-05-01T08:23:28.878Z</time></trkpt><trkpt lat="44.9508531" lon="8.0252173"><ele>226.66666666666669</ele><time>2026-05-01T08:23:30.878Z</time></trkpt><trkpt lat="44.9508893" lon="8.0253147"><ele>227.5</ele><time>2026-05-01T08:23:31.878Z</time></trkpt><trkpt lat="44.9509179" lon="8.0254198"><ele>228.33333333333334</ele><time>2026-05-01T08:23:32.878Z</time></trkpt><trkpt lat="44.9509496" lon="8.0255229"><ele>229.16666666666669</ele><time>2026-05-01T08:23:33.878Z</time></trkpt><trkpt lat="44.9509738" lon="8.0256155"><ele>230.0</ele><time>2026-05-01T08:23:34.878Z</time></trkpt><trkpt lat="44.950989" lon="8.0257402"><ele>230.83333333333334</ele><time>2026-05-01T08:23:35.878Z</time></trkpt><trkpt lat="44.9509866" lon="8.0258569"><ele>231.66666666666669</ele><time>2026-05-01T08:23:36.878Z</time></trkpt><trkpt lat="44.9509782" lon="8.0259769"><ele>232.5</ele><time>2026-05-01T08:23:37.878Z</time></trkpt><trkpt lat="44.9509541" lon="8.0260951"><ele>233.33333333333331</ele><time>2026-05-01T08:23:38.878Z</time></trkpt><trkpt lat="44.9509259" lon="8.0262069"><ele>234.16666666666666</ele><time>2026-05-01T08:23:39.879Z</time></trkpt><trkpt lat="44.9508762" lon="8.0263036"><ele>235.0</ele><time>2026-05-01T08:23:40.878Z</time></trkpt><trkpt lat="44.9508257" lon="8.0264003"><ele>234.99999999999997</ele><time>2026-05-01T08:23:41.878Z</time></trkpt><trkpt lat="44.9507707" lon="8.0264889"><ele>235.0</ele><time>2026-05-01T08:23:42.878Z</time></trkpt><trkpt lat="44.950709" lon="8.026576"><ele>235.0</ele><time>2026-05-01T08:23:43.878Z</time></trkpt><trkpt lat="44.9506561" lon="8.0266556"><ele>235.0</ele><time>2026-05-01T08:23:44.878Z</time></trkpt><trkpt lat="44.9506002" lon="8.0267352"><ele>234.99999999999997</ele><time>2026-05-01T08:23:45.879Z</time></trkpt><trkpt lat="44.9505415" lon="8.0268157"><ele>235.0</ele><time>2026-05-01T08:23:46.878Z</time></trkpt><trkpt lat="44.9504782" lon="8.0269174"><ele>236.49999999999997</ele><time>2026-05-01T08:23:47.878Z</time></trkpt><trkpt lat="44.9504091" lon="8.0270021"><ele>238.0</ele><time>2026-05-01T08:23:48.878Z</time></trkpt><trkpt lat="44.9503547" lon="8.0270929"><ele>239.5</ele><time>2026-05-01T08:23:49.878Z</time></trkpt><trkpt lat="44.9503022" lon="8.0272209"><ele>241.0</ele><time>2026-05-01T08:23:51.878Z</time></trkpt><trkpt lat="44.9502155" lon="8.0272005"><ele>242.49999999999997</ele><time>2026-05-01T08:23:54.878Z</time></trkpt><trkpt lat="44.9502037" lon="8.0270906"><ele>244.0</ele><time>2026-05-01T08:23:56.878Z</time></trkpt><trkpt lat="44.9501928" lon="8.0269422"><ele>244.0</ele><time>2026-05-01T08:23:58.878Z</time></trkpt><trkpt lat="44.9502121" lon="8.0267619"><ele>243.99999999999997</ele><time>2026-05-01T08:24:00.878Z</time></trkpt><trkpt lat="44.9502328" lon="8.0266707"><ele>243.99999999999997</ele><time>2026-05-01T08:24:01.878Z</time></trkpt><trkpt lat="44.9502575" lon="8.0265824"><ele>244.0</ele><time>2026-05-01T08:24:02.878Z</time></trkpt><trkpt lat="44.9503176" lon="8.026422"><ele>244.0</ele><time>2026-05-01T08:24:04.878Z</time></trkpt><trkpt lat="44.9503443" lon="8.0263328"><ele>242.49999999999997</ele><time>2026-05-01T08:24:05.878Z</time></trkpt><trkpt lat="44.9503617" lon="8.026222"><ele>241.0</ele><time>2026-05-01T08:24:06.878Z</time></trkpt><trkpt lat="44.9503797" lon="8.0261"><ele>239.5</ele><time>2026-05-01T08:24:07.878Z</time></trkpt><trkpt lat="44.950393" lon="8.0259817"><ele>238.0</ele><time>2026-05-01T08:24:08.878Z</time></trkpt><trkpt lat="44.9503981" lon="8.0258549"><ele>236.49999999999997</ele><time>2026-05-01T08:24:09.878Z</time></trkpt><trkpt lat="44.9503956" lon="8.0257334"><ele>235.0</ele><time>2026-05-01T08:24:10.878Z</time></trkpt><trkpt lat="44.9503894" lon="8.0256161"><ele>234.0</ele><time>2026-05-01T08:24:11.878Z</time></trkpt><trkpt lat="44.9503835" lon="8.0254863"><ele>233.0</ele><time>2026-05-01T08:24:12.878Z</time></trkpt><trkpt lat="44.9503709" lon="8.0253446"><ele>232.0</ele><time>2026-05-01T08:24:13.878Z</time></trkpt><trkpt lat="44.9503618" lon="8.0252128"><ele>231.0</ele><time>2026-05-01T08:24:14.878Z</time></trkpt><trkpt lat="44.9503569" lon="8.0250724"><ele>230.0</ele><time>2026-05-01T08:24:15.878Z</time></trkpt><trkpt lat="44.9503408" lon="8.0249287"><ele>229.0</ele><time>2026-05-01T08:24:16.878Z</time></trkpt><trkpt lat="44.9503237" lon="8.0247814"><ele>228.0</ele><time>2026-05-01T08:24:17.878Z</time></trkpt><trkpt lat="44.9503115" lon="8.02464"><ele>227.0</ele><time>2026-05-01T08:24:18.878Z</time></trkpt><trkpt lat="44.9503029" lon="8.0245002"><ele>226.0</ele><time>2026-05-01T08:24:19.878Z</time></trkpt><trkpt lat="44.9502975" lon="8.0243576"><ele>225.0</ele><time>2026-05-01T08:24:20.878Z</time></trkpt><trkpt lat="44.9502848" lon="8.024233"><ele>225.0</ele><time>2026-05-01T08:24:21.878Z</time></trkpt><trkpt lat="44.9502947" lon="8.0241278"><ele>225.0</ele><time>2026-05-01T08:24:22.878Z</time></trkpt><trkpt lat="44.9502793" lon="8.0239834"><ele>225.0</ele><time>2026-05-01T08:24:24.878Z</time></trkpt><trkpt lat="44.9501851" lon="8.0240024"><ele>225.0</ele><time>2026-05-01T08:24:27.878Z</time></trkpt><trkpt lat="44.9501502" lon="8.0240846"><ele>225.0</ele><time>2026-05-01T08:24:28.878Z</time></trkpt><trkpt lat="44.9501079" lon="8.0241744"><ele>225.0</ele><time>2026-05-01T08:24:29.878Z</time></trkpt><trkpt lat="44.950061" lon="8.0242695"><ele>222.16666666666666</ele><time>2026-05-01T08:24:30.878Z</time></trkpt><trkpt lat="44.9500164" lon="8.0243556"><ele>219.33333333333331</ele><time>2026-05-01T08:24:31.878Z</time></trkpt><trkpt lat="44.9499486" lon="8.0244116"><ele>216.5</ele><time>2026-05-01T08:24:32.878Z</time></trkpt><trkpt lat="44.9498744" lon="8.0244098"><ele>213.66666666666666</ele><time>2026-05-01T08:24:33.878Z</time></trkpt><trkpt lat="44.9498021" lon="8.0243662"><ele>210.83333333333331</ele><time>2026-05-01T08:24:34.878Z</time></trkpt><trkpt lat="44.9497615" lon="8.0242869"><ele>208.0</ele><time>2026-05-01T08:24:35.878Z</time></trkpt><trkpt lat="44.9497486" lon="8.0241677"><ele>206.60000000000002</ele><time>2026-05-01T08:24:36.878Z</time></trkpt><trkpt lat="44.9497576" lon="8.0240648"><ele>205.20000000000002</ele><time>2026-05-01T08:24:37.878Z</time></trkpt><trkpt lat="44.949815" lon="8.0239394"><ele>203.8</ele><time>2026-05-01T08:24:38.878Z</time></trkpt><trkpt lat="44.9498811" lon="8.023829"><ele>202.4</ele><time>2026-05-01T08:24:39.878Z</time></trkpt><trkpt lat="44.9499367" lon="8.0236914"><ele>201.0</ele><time>2026-05-01T08:24:40.878Z</time></trkpt><trkpt lat="44.9499816" lon="8.0235469"><ele>201.0</ele><time>2026-05-01T08:24:41.878Z</time></trkpt><trkpt lat="44.9500176" lon="8.0233596"><ele>201.0</ele><time>2026-05-01T08:24:42.878Z</time></trkpt><trkpt lat="44.9500446" lon="8.0231579"><ele>201.0</ele><time>2026-05-01T08:24:43.878Z</time></trkpt><trkpt lat="44.9500544" lon="8.0229492"><ele>201.0</ele><time>2026-05-01T08:24:44.878Z</time></trkpt><trkpt lat="44.950059" lon="8.0227453"><ele>201.66666666666669</ele><time>2026-05-01T08:24:45.878Z</time></trkpt><trkpt lat="44.9500698" lon="8.0225423"><ele>202.33333333333334</ele><time>2026-05-01T08:24:46.878Z</time></trkpt><trkpt lat="44.9500618" lon="8.0223363"><ele>203.0</ele><time>2026-05-01T08:24:47.878Z</time></trkpt><trkpt lat="44.950047" lon="8.0221059"><ele>199.0</ele><time>2026-05-01T08:24:48.879Z</time></trkpt><trkpt lat="44.950025" lon="8.0218875"><ele>195.0</ele><time>2026-05-01T08:24:49.878Z</time></trkpt><trkpt lat="44.9500137" lon="8.021684"><ele>191.0</ele><time>2026-05-01T08:24:50.878Z</time></trkpt><trkpt lat="44.9500005" lon="8.0214711"><ele>188.75</ele><time>2026-05-01T08:24:51.878Z</time></trkpt><trkpt lat="44.9499933" lon="8.0212619"><ele>186.5</ele><time>2026-05-01T08:24:52.878Z</time></trkpt><trkpt lat="44.9499877" lon="8.0210549"><ele>184.25</ele><time>2026-05-01T08:24:53.879Z</time></trkpt><trkpt lat="44.9499834" lon="8.020851"><ele>182.0</ele><time>2026-05-01T08:24:54.878Z</time></trkpt><trkpt lat="44.9499747" lon="8.0206576"><ele>181.2</ele><time>2026-05-01T08:24:55.878Z</time></trkpt><trkpt lat="44.9499629" lon="8.0204806"><ele>180.39999999999998</ele><time>2026-05-01T08:24:56.878Z</time></trkpt><trkpt lat="44.9499519" lon="8.0203251"><ele>179.60000000000002</ele><time>2026-05-01T08:24:57.878Z</time></trkpt><trkpt lat="44.9499509" lon="8.0202006"><ele>178.8</ele><time>2026-05-01T08:24:58.878Z</time></trkpt><trkpt lat="44.9499568" lon="8.0201021"><ele>178.0</ele><time>2026-05-01T08:24:59.878Z</time></trkpt><trkpt lat="44.9499574" lon="8.0199998"><ele>177.33333333333334</ele><time>2026-05-01T08:25:01.878Z</time></trkpt><trkpt lat="44.9498803" lon="8.0199501"><ele>176.66666666666669</ele><time>2026-05-01T08:25:04.878Z</time></trkpt><trkpt lat="44.9498135" lon="8.0199557"><ele>176.0</ele><time>2026-05-01T08:25:05.878Z</time></trkpt><trkpt lat="44.9497301" lon="8.019949"><ele>175.33333333333334</ele><time>2026-05-01T08:25:06.878Z</time></trkpt><trkpt lat="44.949636" lon="8.0199372"><ele>174.66666666666666</ele><time>2026-05-01T08:25:07.878Z</time></trkpt><trkpt lat="44.9495225" lon="8.0199363"><ele>174.0</ele><time>2026-05-01T08:25:08.878Z</time></trkpt><trkpt lat="44.9493986" lon="8.0199185"><ele>174.0</ele><time>2026-05-01T08:25:09.878Z</time></trkpt><trkpt lat="44.9492716" lon="8.0199141"><ele>174.0</ele><time>2026-05-01T08:25:10.878Z</time></trkpt><trkpt lat="44.9491356" lon="8.0199165"><ele>174.0</ele><time>2026-05-01T08:25:11.878Z</time></trkpt><trkpt lat="44.9489863" lon="8.019913"><ele>174.0</ele><time>2026-05-01T08:25:12.878Z</time></trkpt><trkpt lat="44.9488392" lon="8.0198985"><ele>173.33333333333334</ele><time>2026-05-01T08:25:13.878Z</time></trkpt><trkpt lat="44.9486832" lon="8.0198807"><ele>172.66666666666669</ele><time>2026-05-01T08:25:14.879Z</time></trkpt><trkpt lat="44.9485165" lon="8.0198667"><ele>172.0</ele><time>2026-05-01T08:25:15.878Z</time></trkpt><trkpt lat="44.9483478" lon="8.0198558"><ele>171.66666666666669</ele><time>2026-05-01T08:25:16.878Z</time></trkpt><trkpt lat="44.9481723" lon="8.0198477"><ele>171.33333333333334</ele><time>2026-05-01T08:25:17.878Z</time></trkpt><trkpt lat="44.947995" lon="8.0198318"><ele>171.0</ele><time>2026-05-01T08:25:18.878Z</time></trkpt><trkpt lat="44.9478196" lon="8.0198193"><ele>171.0</ele><time>2026-05-01T08:25:19.878Z</time></trkpt><trkpt lat="44.9476458" lon="8.0198037"><ele>171.0</ele><time>2026-05-01T08:25:20.878Z</time></trkpt><trkpt lat="44.9474563" lon="8.019797"><ele>171.0</ele><time>2026-05-01T08:25:21.878Z</time></trkpt><trkpt lat="44.9472712" lon="8.0197885"><ele>170.33333333333334</ele><time>2026-05-01T08:25:22.879Z</time></trkpt><trkpt lat="44.9470745" lon="8.0197963"><ele>169.66666666666669</ele><time>2026-05-01T08:25:23.878Z</time></trkpt><trkpt lat="44.946879" lon="8.0198141"><ele>169.0</ele><time>2026-05-01T08:25:24.878Z</time></trkpt><trkpt lat="44.9466562" lon="8.0198301"><ele>169.0</ele><time>2026-05-01T08:25:25.878Z</time></trkpt><trkpt lat="44.9464507" lon="8.0198435"><ele>169.0</ele><time>2026-05-01T08:25:26.878Z</time></trkpt><trkpt lat="44.9462409" lon="8.0198705"><ele>169.0</ele><time>2026-05-01T08:25:27.878Z</time></trkpt><trkpt lat="44.9460342" lon="8.0198902"><ele>169.0</ele><time>2026-05-01T08:25:28.878Z</time></trkpt><trkpt lat="44.9458161" lon="8.0199224"><ele>169.0</ele><time>2026-05-01T08:25:29.878Z</time></trkpt><trkpt lat="44.9456056" lon="8.0199417"><ele>169.0</ele><time>2026-05-01T08:25:30.878Z</time></trkpt><trkpt lat="44.9453926" lon="8.0199672"><ele>170.66666666666669</ele><time>2026-05-01T08:25:31.878Z</time></trkpt><trkpt lat="44.9451763" lon="8.0199911"><ele>172.33333333333334</ele><time>2026-05-01T08:25:32.878Z</time></trkpt><trkpt lat="44.9449606" lon="8.0200166"><ele>174.0</ele><time>2026-05-01T08:25:33.878Z</time></trkpt><trkpt lat="44.9447388" lon="8.0200425"><ele>174.0</ele><time>2026-05-01T08:25:34.878Z</time></trkpt><trkpt lat="44.9445253" lon="8.0200727"><ele>174.0</ele><time>2026-05-01T08:25:35.878Z</time></trkpt><trkpt lat="44.9443074" lon="8.0200915"><ele>174.0</ele><time>2026-05-01T08:25:36.878Z</time></trkpt><trkpt lat="44.9440909" lon="8.0201383"><ele>175.33333333333334</ele><time>2026-05-01T08:25:37.878Z</time></trkpt><trkpt lat="44.9438815" lon="8.0201981"><ele>176.66666666666669</ele><time>2026-05-01T08:25:38.878Z</time></trkpt><trkpt lat="44.9436738" lon="8.0202895"><ele>178.0</ele><time>2026-05-01T08:25:39.879Z</time></trkpt><trkpt lat="44.943469" lon="8.0203965"><ele>175.0</ele><time>2026-05-01T08:25:40.878Z</time></trkpt><trkpt lat="44.9432629" lon="8.0204999"><ele>172.0</ele><time>2026-05-01T08:25:41.878Z</time></trkpt><trkpt lat="44.9430415" lon="8.0206127"><ele>172.0</ele><time>2026-05-01T08:25:42.878Z</time></trkpt><trkpt lat="44.9428287" lon="8.0207207"><ele>172.0</ele><time>2026-05-01T08:25:43.878Z</time></trkpt><trkpt lat="44.9426054" lon="8.0208378"><ele>173.5</ele><time>2026-05-01T08:25:44.878Z</time></trkpt><trkpt lat="44.9423884" lon="8.0209439"><ele>175.0</ele><time>2026-05-01T08:25:45.878Z</time></trkpt><trkpt lat="44.9421649" lon="8.0210604"><ele>175.0</ele><time>2026-05-01T08:25:46.878Z</time></trkpt><trkpt lat="44.9419406" lon="8.0211635"><ele>175.0</ele><time>2026-05-01T08:25:47.878Z</time></trkpt><trkpt lat="44.9417228" lon="8.0212574"><ele>172.5</ele><time>2026-05-01T08:25:48.878Z</time></trkpt><trkpt lat="44.9415035" lon="8.021364"><ele>170.0</ele><time>2026-05-01T08:25:49.878Z</time></trkpt><trkpt lat="44.9412819" lon="8.0214699"><ele>170.0</ele><time>2026-05-01T08:25:50.878Z</time></trkpt><trkpt lat="44.9410611" lon="8.021591"><ele>170.0</ele><time>2026-05-01T08:25:51.878Z</time></trkpt><trkpt lat="44.9408394" lon="8.0217088"><ele>170.5</ele><time>2026-05-01T08:25:52.878Z</time></trkpt><trkpt lat="44.9406243" lon="8.0218064"><ele>171.0</ele><time>2026-05-01T08:25:53.878Z</time></trkpt><trkpt lat="44.9404038" lon="8.0219172"><ele>171.0</ele><time>2026-05-01T08:25:54.878Z</time></trkpt><trkpt lat="44.9401884" lon="8.0220249"><ele>171.0</ele><time>2026-05-01T08:25:55.878Z</time></trkpt><trkpt lat="44.9399724" lon="8.022133"><ele>169.0</ele><time>2026-05-01T08:25:56.878Z</time></trkpt><trkpt lat="44.9397528" lon="8.0222533"><ele>167.0</ele><time>2026-05-01T08:25:57.878Z</time></trkpt><trkpt lat="44.9395281" lon="8.0223567"><ele>167.0</ele><time>2026-05-01T08:25:58.878Z</time></trkpt><trkpt lat="44.9393166" lon="8.0224657"><ele>167.0</ele><time>2026-05-01T08:25:59.878Z</time></trkpt><trkpt lat="44.9390992" lon="8.0225698"><ele>169.0</ele><time>2026-05-01T08:26:00.878Z</time></trkpt><trkpt lat="44.9388808" lon="8.0226788"><ele>171.0</ele><time>2026-05-01T08:26:01.878Z</time></trkpt><trkpt lat="44.9386603" lon="8.0227894"><ele>171.0</ele><time>2026-05-01T08:26:02.879Z</time></trkpt><trkpt lat="44.938448" lon="8.0229009"><ele>171.0</ele><time>2026-05-01T08:26:03.878Z</time></trkpt><trkpt lat="44.9382307" lon="8.0230079"><ele>169.5</ele><time>2026-05-01T08:26:04.878Z</time></trkpt><trkpt lat="44.9380096" lon="8.0231139"><ele>168.0</ele><time>2026-05-01T08:26:05.878Z</time></trkpt><trkpt lat="44.9378016" lon="8.0232294"><ele>167.0</ele><time>2026-05-01T08:26:06.878Z</time></trkpt><trkpt lat="44.9375902" lon="8.0233492"><ele>166.0</ele><time>2026-05-01T08:26:07.878Z</time></trkpt><trkpt lat="44.9373799" lon="8.0234612"><ele>166.0</ele><time>2026-05-01T08:26:08.878Z</time></trkpt><trkpt lat="44.9371702" lon="8.0235626"><ele>166.0</ele><time>2026-05-01T08:26:09.878Z</time></trkpt><trkpt lat="44.9369574" lon="8.02366"><ele>166.0</ele><time>2026-05-01T08:26:10.879Z</time></trkpt><trkpt lat="44.936747" lon="8.0237569"><ele>166.66666666666669</ele><time>2026-05-01T08:26:11.878Z</time></trkpt><trkpt lat="44.9365366" lon="8.0238513"><ele>167.33333333333334</ele><time>2026-05-01T08:26:12.878Z</time></trkpt><trkpt lat="44.9363313" lon="8.023942"><ele>168.0</ele><time>2026-05-01T08:26:13.878Z</time></trkpt><trkpt lat="44.9361235" lon="8.0240448"><ele>168.0</ele><time>2026-05-01T08:26:14.878Z</time></trkpt><trkpt lat="44.9359215" lon="8.0241487"><ele>168.0</ele><time>2026-05-01T08:26:15.878Z</time></trkpt><trkpt lat="44.9357143" lon="8.0242601"><ele>168.0</ele><time>2026-05-01T08:26:16.878Z</time></trkpt><trkpt lat="44.9355151" lon="8.0243831"><ele>168.0</ele><time>2026-05-01T08:26:17.878Z</time></trkpt><trkpt lat="44.9353122" lon="8.0245116"><ele>168.0</ele><time>2026-05-01T08:26:18.879Z</time></trkpt><trkpt lat="44.9351158" lon="8.0246477"><ele>168.0</ele><time>2026-05-01T08:26:19.878Z</time></trkpt><trkpt lat="44.9349149" lon="8.0247911"><ele>168.33333333333334</ele><time>2026-05-01T08:26:20.878Z</time></trkpt><trkpt lat="44.9347131" lon="8.0249305"><ele>168.66666666666669</ele><time>2026-05-01T08:26:21.878Z</time></trkpt><trkpt lat="44.9345154" lon="8.0250795"><ele>169.0</ele><time>2026-05-01T08:26:22.878Z</time></trkpt><trkpt lat="44.9343113" lon="8.0252222"><ele>169.66666666666669</ele><time>2026-05-01T08:26:23.878Z</time></trkpt><trkpt lat="44.9341171" lon="8.0253502"><ele>170.33333333333334</ele><time>2026-05-01T08:26:24.878Z</time></trkpt><trkpt lat="44.933925" lon="8.0254928"><ele>171.0</ele><time>2026-05-01T08:26:25.878Z</time></trkpt><trkpt lat="44.9337337" lon="8.0256307"><ele>171.0</ele><time>2026-05-01T08:26:26.878Z</time></trkpt><trkpt lat="44.933543" lon="8.025777"><ele>171.0</ele><time>2026-05-01T08:26:27.878Z</time></trkpt><trkpt lat="44.933346" lon="8.0259142"><ele>171.0</ele><time>2026-05-01T08:26:28.879Z</time></trkpt><trkpt lat="44.9331476" lon="8.0260509"><ele>170.0</ele><time>2026-05-01T08:26:29.878Z</time></trkpt><trkpt lat="44.9329552" lon="8.0261737"><ele>169.0</ele><time>2026-05-01T08:26:30.878Z</time></trkpt><trkpt lat="44.9327603" lon="8.0263208"><ele>168.0</ele><time>2026-05-01T08:26:31.878Z</time></trkpt><trkpt lat="44.9325712" lon="8.026455"><ele>167.66666666666666</ele><time>2026-05-01T08:26:32.878Z</time></trkpt><trkpt lat="44.9323855" lon="8.0265845"><ele>167.33333333333331</ele><time>2026-05-01T08:26:33.878Z</time></trkpt><trkpt lat="44.932187" lon="8.0267151"><ele>167.0</ele><time>2026-05-01T08:26:34.878Z</time></trkpt><trkpt lat="44.9319958" lon="8.0268374"><ele>167.0</ele><time>2026-05-01T08:26:35.878Z</time></trkpt><trkpt lat="44.9318015" lon="8.0269693"><ele>167.0</ele><time>2026-05-01T08:26:36.878Z</time></trkpt><trkpt lat="44.9316027" lon="8.0271045"><ele>167.0</ele><time>2026-05-01T08:26:37.878Z</time></trkpt><trkpt lat="44.9314156" lon="8.0272435"><ele>166.33333333333331</ele><time>2026-05-01T08:26:38.879Z</time></trkpt><trkpt lat="44.9312242" lon="8.027379"><ele>165.66666666666666</ele><time>2026-05-01T08:26:39.878Z</time></trkpt><trkpt lat="44.9310294" lon="8.0275265"><ele>165.0</ele><time>2026-05-01T08:26:40.878Z</time></trkpt><trkpt lat="44.9308354" lon="8.0276698"><ele>164.33333333333334</ele><time>2026-05-01T08:26:41.878Z</time></trkpt><trkpt lat="44.9306333" lon="8.0278205"><ele>163.66666666666669</ele><time>2026-05-01T08:26:42.878Z</time></trkpt><trkpt lat="44.9304431" lon="8.0279697"><ele>163.0</ele><time>2026-05-01T08:26:43.878Z</time></trkpt><trkpt lat="44.9302521" lon="8.0281223"><ele>163.0</ele><time>2026-05-01T08:26:44.878Z</time></trkpt><trkpt lat="44.9300749" lon="8.0282969"><ele>163.0</ele><time>2026-05-01T08:26:45.878Z</time></trkpt><trkpt lat="44.9299005" lon="8.0284908"><ele>163.0</ele><time>2026-05-01T08:26:46.878Z</time></trkpt><trkpt lat="44.9297395" lon="8.0286944"><ele>161.5</ele><time>2026-05-01T08:26:47.878Z</time></trkpt><trkpt lat="44.929571" lon="8.028909"><ele>160.0</ele><time>2026-05-01T08:26:48.878Z</time></trkpt><trkpt lat="44.9294012" lon="8.0291126"><ele>160.0</ele><time>2026-05-01T08:26:49.878Z</time></trkpt><trkpt lat="44.9292294" lon="8.0293219"><ele>160.0</ele><time>2026-05-01T08:26:50.878Z</time></trkpt><trkpt lat="44.929057" lon="8.0295278"><ele>159.66666666666669</ele><time>2026-05-01T08:26:51.878Z</time></trkpt><trkpt lat="44.9288856" lon="8.0297321"><ele>159.33333333333334</ele><time>2026-05-01T08:26:52.878Z</time></trkpt><trkpt lat="44.9287155" lon="8.029937"><ele>159.0</ele><time>2026-05-01T08:26:53.879Z</time></trkpt><trkpt lat="44.9285468" lon="8.0301412"><ele>159.33333333333334</ele><time>2026-05-01T08:26:54.879Z</time></trkpt><trkpt lat="44.9283699" lon="8.0303299"><ele>159.66666666666669</ele><time>2026-05-01T08:26:55.878Z</time></trkpt><trkpt lat="44.9281871" lon="8.0305125"><ele>160.0</ele><time>2026-05-01T08:26:56.878Z</time></trkpt><trkpt lat="44.9279966" lon="8.0306944"><ele>160.33333333333334</ele><time>2026-05-01T08:26:57.878Z</time></trkpt><trkpt lat="44.9278196" lon="8.0308678"><ele>160.66666666666666</ele><time>2026-05-01T08:26:58.878Z</time></trkpt><trkpt lat="44.9276471" lon="8.0310567"><ele>161.0</ele><time>2026-05-01T08:26:59.878Z</time></trkpt><trkpt lat="44.9274678" lon="8.0312584"><ele>161.0</ele><time>2026-05-01T08:27:00.878Z</time></trkpt><trkpt lat="44.927296" lon="8.0314317"><ele>161.0</ele><time>2026-05-01T08:27:01.878Z</time></trkpt><trkpt lat="44.9271269" lon="8.0316103"><ele>161.0</ele><time>2026-05-01T08:27:02.878Z</time></trkpt><trkpt lat="44.9269588" lon="8.0317833"><ele>161.66666666666666</ele><time>2026-05-01T08:27:03.878Z</time></trkpt><trkpt lat="44.9267892" lon="8.0319531"><ele>162.33333333333334</ele><time>2026-05-01T08:27:04.878Z</time></trkpt><trkpt lat="44.9266078" lon="8.0321107"><ele>163.0</ele><time>2026-05-01T08:27:05.878Z</time></trkpt><trkpt lat="44.9264007" lon="8.0322351"><ele>163.0</ele><time>2026-05-01T08:27:06.878Z</time></trkpt><trkpt lat="44.9261944" lon="8.0323485"><ele>163.0</ele><time>2026-05-01T08:27:07.878Z</time></trkpt><trkpt lat="44.9259896" lon="8.0324523"><ele>163.0</ele><time>2026-05-01T08:27:08.878Z</time></trkpt><trkpt lat="44.9257732" lon="8.032548"><ele>165.5</ele><time>2026-05-01T08:27:09.878Z</time></trkpt><trkpt lat="44.9255488" lon="8.0326636"><ele>168.0</ele><time>2026-05-01T08:27:10.878Z</time></trkpt><trkpt lat="44.9253484" lon="8.0327661"><ele>168.0</ele><time>2026-05-01T08:27:11.878Z</time></trkpt><trkpt lat="44.9251226" lon="8.0328746"><ele>168.0</ele><time>2026-05-01T08:27:12.878Z</time></trkpt><trkpt lat="44.9249133" lon="8.032984"><ele>165.5</ele><time>2026-05-01T08:27:13.878Z</time></trkpt><trkpt lat="44.9246988" lon="8.0330974"><ele>163.0</ele><time>2026-05-01T08:27:14.878Z</time></trkpt><trkpt lat="44.9244891" lon="8.0331948"><ele>163.0</ele><time>2026-05-01T08:27:15.878Z</time></trkpt><trkpt lat="44.9242846" lon="8.0332936"><ele>163.0</ele><time>2026-05-01T08:27:16.878Z</time></trkpt><trkpt lat="44.9240853" lon="8.0334118"><ele>163.0</ele><time>2026-05-01T08:27:17.878Z</time></trkpt><trkpt lat="44.9238935" lon="8.0335368"><ele>162.66666666666669</ele><time>2026-05-01T08:27:18.878Z</time></trkpt><trkpt lat="44.9237081" lon="8.0336775"><ele>162.33333333333334</ele><time>2026-05-01T08:27:19.878Z</time></trkpt><trkpt lat="44.9235385" lon="8.0338423"><ele>162.0</ele><time>2026-05-01T08:27:20.878Z</time></trkpt><trkpt lat="44.9233717" lon="8.0340579"><ele>161.0</ele><time>2026-05-01T08:27:21.878Z</time></trkpt><trkpt lat="44.9232008" lon="8.0342833"><ele>160.0</ele><time>2026-05-01T08:27:22.878Z</time></trkpt><trkpt lat="44.9230284" lon="8.0345066"><ele>160.0</ele><time>2026-05-01T08:27:23.878Z</time></trkpt><trkpt lat="44.922859" lon="8.0347277"><ele>160.0</ele><time>2026-05-01T08:27:24.878Z</time></trkpt><trkpt lat="44.9226928" lon="8.0349504"><ele>162.0</ele><time>2026-05-01T08:27:25.878Z</time></trkpt><trkpt lat="44.9225273" lon="8.0351726"><ele>164.0</ele><time>2026-05-01T08:27:26.878Z</time></trkpt><trkpt lat="44.9223589" lon="8.035387"><ele>164.0</ele><time>2026-05-01T08:27:27.878Z</time></trkpt><trkpt lat="44.9221938" lon="8.0356029"><ele>164.0</ele><time>2026-05-01T08:27:28.878Z</time></trkpt><trkpt lat="44.9220337" lon="8.0358231"><ele>164.0</ele><time>2026-05-01T08:27:29.878Z</time></trkpt><trkpt lat="44.9218851" lon="8.0360172"><ele>164.66666666666666</ele><time>2026-05-01T08:27:30.878Z</time></trkpt><trkpt lat="44.9217398" lon="8.036196"><ele>165.33333333333334</ele><time>2026-05-01T08:27:31.878Z</time></trkpt><trkpt lat="44.9215928" lon="8.0363783"><ele>166.0</ele><time>2026-05-01T08:27:32.878Z</time></trkpt><trkpt lat="44.9214583" lon="8.036542"><ele>164.33333333333334</ele><time>2026-05-01T08:27:33.879Z</time></trkpt><trkpt lat="44.9213307" lon="8.0367069"><ele>162.66666666666666</ele><time>2026-05-01T08:27:34.878Z</time></trkpt><trkpt lat="44.9211943" lon="8.03684"><ele>161.0</ele><time>2026-05-01T08:27:35.878Z</time></trkpt><trkpt lat="44.9210448" lon="8.0369308"><ele>159.66666666666666</ele><time>2026-05-01T08:27:36.878Z</time></trkpt><trkpt lat="44.9208783" lon="8.0369676"><ele>158.33333333333334</ele><time>2026-05-01T08:27:37.878Z</time></trkpt><trkpt lat="44.9207002" lon="8.036953"><ele>157.0</ele><time>2026-05-01T08:27:38.878Z</time></trkpt><trkpt lat="44.920504" lon="8.0369143"><ele>157.0</ele><time>2026-05-01T08:27:39.878Z</time></trkpt><trkpt lat="44.9202958" lon="8.0368786"><ele>157.0</ele><time>2026-05-01T08:27:40.878Z</time></trkpt><trkpt lat="44.9200873" lon="8.0368293"><ele>157.0</ele><time>2026-05-01T08:27:41.878Z</time></trkpt><trkpt lat="44.919876" lon="8.0367768"><ele>156.33333333333334</ele><time>2026-05-01T08:27:42.878Z</time></trkpt><trkpt lat="44.9196631" lon="8.0367233"><ele>155.66666666666666</ele><time>2026-05-01T08:27:43.878Z</time></trkpt><trkpt lat="44.9194505" lon="8.0366727"><ele>155.0</ele><time>2026-05-01T08:27:44.878Z</time></trkpt><trkpt lat="44.9192409" lon="8.0366158"><ele>155.33333333333331</ele><time>2026-05-01T08:27:45.878Z</time></trkpt><trkpt lat="44.9190345" lon="8.0365646"><ele>155.66666666666666</ele><time>2026-05-01T08:27:46.878Z</time></trkpt><trkpt lat="44.9188245" lon="8.036502"><ele>156.0</ele><time>2026-05-01T08:27:47.878Z</time></trkpt><trkpt lat="44.9186068" lon="8.0364347"><ele>156.0</ele><time>2026-05-01T08:27:48.878Z</time></trkpt><trkpt lat="44.9183936" lon="8.0363688"><ele>156.0</ele><time>2026-05-01T08:27:49.878Z</time></trkpt><trkpt lat="44.9181829" lon="8.0363036"><ele>156.0</ele><time>2026-05-01T08:27:50.878Z</time></trkpt><trkpt lat="44.917968" lon="8.0362328"><ele>156.0</ele><time>2026-05-01T08:27:51.878Z</time></trkpt><trkpt lat="44.9177542" lon="8.0361654"><ele>156.0</ele><time>2026-05-01T08:27:52.878Z</time></trkpt><trkpt lat="44.9175444" lon="8.036094"><ele>156.0</ele><time>2026-05-01T08:27:53.878Z</time></trkpt><trkpt lat="44.9173408" lon="8.0360212"><ele>157.0</ele><time>2026-05-01T08:27:54.878Z</time></trkpt><trkpt lat="44.9171313" lon="8.0359568"><ele>158.0</ele><time>2026-05-01T08:27:55.878Z</time></trkpt><trkpt lat="44.9169292" lon="8.0358839"><ele>159.0</ele><time>2026-05-01T08:27:56.878Z</time></trkpt><trkpt lat="44.9167224" lon="8.0358254"><ele>158.33333333333334</ele><time>2026-05-01T08:27:57.878Z</time></trkpt><trkpt lat="44.9165326" lon="8.0357595"><ele>157.66666666666669</ele><time>2026-05-01T08:27:58.878Z</time></trkpt><trkpt lat="44.9163528" lon="8.0356944"><ele>157.0</ele><time>2026-05-01T08:27:59.878Z</time></trkpt><trkpt lat="44.9161975" lon="8.0355894"><ele>157.0</ele><time>2026-05-01T08:28:00.878Z</time></trkpt><trkpt lat="44.9160503" lon="8.0354788"><ele>157.0</ele><time>2026-05-01T08:28:01.878Z</time></trkpt><trkpt lat="44.915935" lon="8.0353687"><ele>157.0</ele><time>2026-05-01T08:28:02.878Z</time></trkpt><trkpt lat="44.9158201" lon="8.0352619"><ele>157.0</ele><time>2026-05-01T08:28:03.878Z</time></trkpt><trkpt lat="44.9157248" lon="8.0351598"><ele>157.8</ele><time>2026-05-01T08:28:04.879Z</time></trkpt><trkpt lat="44.9156484" lon="8.0350573"><ele>158.6</ele><time>2026-05-01T08:28:05.878Z</time></trkpt><trkpt lat="44.9156001" lon="8.0349327"><ele>159.4</ele><time>2026-05-01T08:28:06.879Z</time></trkpt><trkpt lat="44.9155668" lon="8.0347966"><ele>160.20000000000002</ele><time>2026-05-01T08:28:07.878Z</time></trkpt><trkpt lat="44.9155757" lon="8.0346381"><ele>161.0</ele><time>2026-05-01T08:28:08.878Z</time></trkpt><trkpt lat="44.9156054" lon="8.0344794"><ele>161.0</ele><time>2026-05-01T08:28:09.878Z</time></trkpt><trkpt lat="44.9156845" lon="8.0343109"><ele>161.0</ele><time>2026-05-01T08:28:10.878Z</time></trkpt><trkpt lat="44.9157535" lon="8.0341433"><ele>161.0</ele><time>2026-05-01T08:28:11.878Z</time></trkpt><trkpt lat="44.9158257" lon="8.0339675"><ele>161.0</ele><time>2026-05-01T08:28:12.878Z</time></trkpt><trkpt lat="44.9158994" lon="8.033799"><ele>161.25</ele><time>2026-05-01T08:28:13.878Z</time></trkpt><trkpt lat="44.915989" lon="8.0336414"><ele>161.5</ele><time>2026-05-01T08:28:14.878Z</time></trkpt><trkpt lat="44.9160958" lon="8.033521"><ele>161.75</ele><time>2026-05-01T08:28:15.878Z</time></trkpt><trkpt lat="44.9162127" lon="8.033434"><ele>162.0</ele><time>2026-05-01T08:28:16.878Z</time></trkpt><trkpt lat="44.9163228" lon="8.0333492"><ele>162.2</ele><time>2026-05-01T08:28:17.878Z</time></trkpt><trkpt lat="44.9164192" lon="8.0332772"><ele>162.39999999999998</ele><time>2026-05-01T08:28:18.878Z</time></trkpt><trkpt lat="44.9164987" lon="8.0331885"><ele>162.60000000000002</ele><time>2026-05-01T08:28:19.878Z</time></trkpt><trkpt lat="44.9165548" lon="8.0330791"><ele>162.8</ele><time>2026-05-01T08:28:20.878Z</time></trkpt><trkpt lat="44.9165866" lon="8.032944"><ele>163.0</ele><time>2026-05-01T08:28:21.878Z</time></trkpt><trkpt lat="44.9165779" lon="8.0328076"><ele>163.0</ele><time>2026-05-01T08:28:22.878Z</time></trkpt><trkpt lat="44.9165357" lon="8.0326813"><ele>163.0</ele><time>2026-05-01T08:28:23.878Z</time></trkpt><trkpt lat="44.9164792" lon="8.0325548"><ele>163.0</ele><time>2026-05-01T08:28:24.878Z</time></trkpt><trkpt lat="44.9164222" lon="8.0324544"><ele>163.0</ele><time>2026-05-01T08:28:25.878Z</time></trkpt><trkpt lat="44.916392" lon="8.032334"><ele>163.0</ele><time>2026-05-01T08:28:26.878Z</time></trkpt><trkpt lat="44.9163744" lon="8.0322302"><ele>163.33333333333334</ele><time>2026-05-01T08:28:27.878Z</time></trkpt><trkpt lat="44.9163312" lon="8.0321416"><ele>163.66666666666669</ele><time>2026-05-01T08:28:28.878Z</time></trkpt><trkpt lat="44.9162763" lon="8.0320727"><ele>164.0</ele><time>2026-05-01T08:28:29.878Z</time></trkpt><trkpt lat="44.9162055" lon="8.032037"><ele>164.33333333333334</ele><time>2026-05-01T08:28:30.878Z</time></trkpt><trkpt lat="44.9160749" lon="8.0320793"><ele>164.66666666666666</ele><time>2026-05-01T08:28:32.878Z</time></trkpt><trkpt lat="44.9160207" lon="8.0321601"><ele>165.0</ele><time>2026-05-01T08:28:33.878Z</time></trkpt><trkpt lat="44.9159693" lon="8.0322484"><ele>165.0</ele><time>2026-05-01T08:28:34.878Z</time></trkpt><trkpt lat="44.9159737" lon="8.0323923"><ele>165.0</ele><time>2026-05-01T08:28:35.878Z</time></trkpt><trkpt lat="44.9159615" lon="8.0325254"><ele>165.0</ele><time>2026-05-01T08:28:36.878Z</time></trkpt><trkpt lat="44.9159392" lon="8.0326573"><ele>165.0</ele><time>2026-05-01T08:28:37.878Z</time></trkpt><trkpt lat="44.915901" lon="8.0327695"><ele>165.0</ele><time>2026-05-01T08:28:38.878Z</time></trkpt><trkpt lat="44.9158406" lon="8.0328776"><ele>164.8</ele><time>2026-05-01T08:28:39.878Z</time></trkpt><trkpt lat="44.9157781" lon="8.0329818"><ele>164.6</ele><time>2026-05-01T08:28:40.878Z</time></trkpt><trkpt lat="44.9157224" lon="8.0331002"><ele>164.39999999999998</ele><time>2026-05-01T08:28:41.878Z</time></trkpt><trkpt lat="44.9156674" lon="8.0332265"><ele>164.2</ele><time>2026-05-01T08:28:42.878Z</time></trkpt><trkpt lat="44.9156036" lon="8.0333502"><ele>164.0</ele><time>2026-05-01T08:28:43.878Z</time></trkpt><trkpt lat="44.9155452" lon="8.0334735"><ele>163.75</ele><time>2026-05-01T08:28:44.878Z</time></trkpt><trkpt lat="44.9154783" lon="8.0336013"><ele>163.5</ele><time>2026-05-01T08:28:45.878Z</time></trkpt><trkpt lat="44.915419" lon="8.0337385"><ele>163.25</ele><time>2026-05-01T08:28:46.878Z</time></trkpt><trkpt lat="44.9153474" lon="8.0338701"><ele>163.0</ele><time>2026-05-01T08:28:47.878Z</time></trkpt><trkpt lat="44.9152881" lon="8.0340193"><ele>163.0</ele><time>2026-05-01T08:28:48.878Z</time></trkpt><trkpt lat="44.9152139" lon="8.0341536"><ele>163.0</ele><time>2026-05-01T08:28:49.878Z</time></trkpt><trkpt lat="44.9151485" lon="8.034292"><ele>163.0</ele><time>2026-05-01T08:28:50.878Z</time></trkpt><trkpt lat="44.9150852" lon="8.0344273"><ele>163.0</ele><time>2026-05-01T08:28:51.878Z</time></trkpt><trkpt lat="44.9150225" lon="8.0345556"><ele>163.0</ele><time>2026-05-01T08:28:52.878Z</time></trkpt><trkpt lat="44.9149641" lon="8.0346661"><ele>163.0</ele><time>2026-05-01T08:28:53.878Z</time></trkpt><trkpt lat="44.9149119" lon="8.0347797"><ele>163.0</ele><time>2026-05-01T08:28:54.878Z</time></trkpt><trkpt lat="44.914862" lon="8.0348935"><ele>163.0</ele><time>2026-05-01T08:28:55.878Z</time></trkpt><trkpt lat="44.9148067" lon="8.0349979"><ele>163.0</ele><time>2026-05-01T08:28:56.878Z</time></trkpt><trkpt lat="44.9147521" lon="8.0350969"><ele>162.83333333333334</ele><time>2026-05-01T08:28:57.878Z</time></trkpt><trkpt lat="44.9147088" lon="8.0351908"><ele>162.66666666666669</ele><time>2026-05-01T08:28:58.878Z</time></trkpt><trkpt lat="44.914664" lon="8.0352723"><ele>162.5</ele><time>2026-05-01T08:28:59.878Z</time></trkpt><trkpt lat="44.9146081" lon="8.0353449"><ele>162.33333333333334</ele><time>2026-05-01T08:29:00.878Z</time></trkpt><trkpt lat="44.9145461" lon="8.0354109"><ele>162.16666666666666</ele><time>2026-05-01T08:29:01.878Z</time></trkpt><trkpt lat="44.9144725" lon="8.0354447"><ele>162.0</ele><time>2026-05-01T08:29:02.878Z</time></trkpt><trkpt lat="44.9144012" lon="8.0354572"><ele>162.0</ele><time>2026-05-01T08:29:03.878Z</time></trkpt><trkpt lat="44.9143182" lon="8.0354398"><ele>162.0</ele><time>2026-05-01T08:29:04.878Z</time></trkpt><trkpt lat="44.9142479" lon="8.0354385"><ele>162.0</ele><time>2026-05-01T08:29:05.878Z</time></trkpt><trkpt lat="44.9141816" lon="8.0354667"><ele>162.0</ele><time>2026-05-01T08:29:06.878Z</time></trkpt><trkpt lat="44.914086" lon="8.0355801"><ele>162.0</ele><time>2026-05-01T08:29:08.878Z</time></trkpt><trkpt lat="44.9140537" lon="8.0356696"><ele>162.0</ele><time>2026-05-01T08:29:09.878Z</time></trkpt><trkpt lat="44.9140356" lon="8.0357834"><ele>162.14285714285714</ele><time>2026-05-01T08:29:10.878Z</time></trkpt><trkpt lat="44.9140093" lon="8.0358753"><ele>162.28571428571428</ele><time>2026-05-01T08:29:11.878Z</time></trkpt><trkpt lat="44.9139864" lon="8.0359704"><ele>162.42857142857144</ele><time>2026-05-01T08:29:12.878Z</time></trkpt><trkpt lat="44.9139582" lon="8.0360572"><ele>162.57142857142856</ele><time>2026-05-01T08:29:13.878Z</time></trkpt><trkpt lat="44.9139194" lon="8.0361318"><ele>162.7142857142857</ele><time>2026-05-01T08:29:14.878Z</time></trkpt><trkpt lat="44.9138699" lon="8.0361954"><ele>162.85714285714286</ele><time>2026-05-01T08:29:15.878Z</time></trkpt><trkpt lat="44.9138117" lon="8.0362394"><ele>163.0</ele><time>2026-05-01T08:29:16.878Z</time></trkpt><trkpt lat="44.9137446" lon="8.0362544"><ele>163.0</ele><time>2026-05-01T08:29:17.878Z</time></trkpt><trkpt lat="44.9136345" lon="8.0362156"><ele>163.0</ele><time>2026-05-01T08:29:19.878Z</time></trkpt><trkpt lat="44.9135415" lon="8.0361226"><ele>163.0</ele><time>2026-05-01T08:29:21.878Z</time></trkpt><trkpt lat="44.9134886" lon="8.0360654"><ele>163.0</ele><time>2026-05-01T08:29:22.878Z</time></trkpt><trkpt lat="44.9134351" lon="8.0359984"><ele>163.0</ele><time>2026-05-01T08:29:23.878Z</time></trkpt><trkpt lat="44.913382" lon="8.0359242"><ele>163.0</ele><time>2026-05-01T08:29:24.878Z</time></trkpt><trkpt lat="44.9133395" lon="8.0358452"><ele>164.83333333333334</ele><time>2026-05-01T08:29:25.878Z</time></trkpt><trkpt lat="44.9133109" lon="8.035766"><ele>166.66666666666669</ele><time>2026-05-01T08:29:26.879Z</time></trkpt><trkpt lat="44.9132694" lon="8.0356315"><ele>168.5</ele><time>2026-05-01T08:29:28.878Z</time></trkpt><trkpt lat="44.9132438" lon="8.0355355"><ele>170.33333333333334</ele><time>2026-05-01T08:29:30.878Z</time></trkpt><trkpt lat="44.913209" lon="8.0354185"><ele>172.16666666666666</ele><time>2026-05-01T08:29:32.878Z</time></trkpt><trkpt lat="44.913141" lon="8.0352989"><ele>174.0</ele><time>2026-05-01T08:29:34.878Z</time></trkpt><trkpt lat="44.9130144" lon="8.0352399"><ele>174.0</ele><time>2026-05-01T08:29:36.878Z</time></trkpt><trkpt lat="44.9129363" lon="8.0352098"><ele>174.0</ele><time>2026-05-01T08:29:37.878Z</time></trkpt><trkpt lat="44.91285" lon="8.0351592"><ele>174.0</ele><time>2026-05-01T08:29:38.878Z</time></trkpt><trkpt lat="44.9127522" lon="8.0351255"><ele>174.0</ele><time>2026-05-01T08:29:39.878Z</time></trkpt><trkpt lat="44.9126382" lon="8.0350706"><ele>174.0</ele><time>2026-05-01T08:29:40.878Z</time></trkpt><trkpt lat="44.9125263" lon="8.0349901"><ele>173.0</ele><time>2026-05-01T08:29:41.878Z</time></trkpt><trkpt lat="44.9124254" lon="8.0348811"><ele>172.0</ele><time>2026-05-01T08:29:42.879Z</time></trkpt><trkpt lat="44.9123155" lon="8.0347653"><ele>171.0</ele><time>2026-05-01T08:29:43.878Z</time></trkpt><trkpt lat="44.9122361" lon="8.0346157"><ele>170.0</ele><time>2026-05-01T08:29:44.878Z</time></trkpt><trkpt lat="44.9121495" lon="8.0344694"><ele>170.0</ele><time>2026-05-01T08:29:45.878Z</time></trkpt><trkpt lat="44.9120581" lon="8.0343046"><ele>170.0</ele><time>2026-05-01T08:29:46.878Z</time></trkpt><trkpt lat="44.9119592" lon="8.0341287"><ele>170.0</ele><time>2026-05-01T08:29:47.878Z</time></trkpt><trkpt lat="44.911859" lon="8.0339589"><ele>168.66666666666666</ele><time>2026-05-01T08:29:48.878Z</time></trkpt><trkpt lat="44.9117688" lon="8.0337741"><ele>167.33333333333334</ele><time>2026-05-01T08:29:49.878Z</time></trkpt><trkpt lat="44.9116696" lon="8.033605"><ele>166.0</ele><time>2026-05-01T08:29:50.878Z</time></trkpt><trkpt lat="44.9115707" lon="8.0334372"><ele>166.66666666666669</ele><time>2026-05-01T08:29:51.878Z</time></trkpt><trkpt lat="44.9114812" lon="8.0332718"><ele>167.33333333333334</ele><time>2026-05-01T08:29:52.878Z</time></trkpt><trkpt lat="44.911377" lon="8.0331089"><ele>168.0</ele><time>2026-05-01T08:29:53.878Z</time></trkpt><trkpt lat="44.9112786" lon="8.0329548"><ele>168.0</ele><time>2026-05-01T08:29:54.878Z</time></trkpt><trkpt lat="44.9111871" lon="8.0327972"><ele>168.0</ele><time>2026-05-01T08:29:55.878Z</time></trkpt><trkpt lat="44.9111025" lon="8.032661"><ele>168.0</ele><time>2026-05-01T08:29:56.878Z</time></trkpt><trkpt lat="44.9110289" lon="8.0325254"><ele>168.0</ele><time>2026-05-01T08:29:57.878Z</time></trkpt><trkpt lat="44.9109567" lon="8.0324045"><ele>167.8</ele><time>2026-05-01T08:29:58.878Z</time></trkpt><trkpt lat="44.9108918" lon="8.0322968"><ele>167.60000000000002</ele><time>2026-05-01T08:29:59.878Z</time></trkpt><trkpt lat="44.9108269" lon="8.0321616"><ele>167.39999999999998</ele><time>2026-05-01T08:30:00.878Z</time></trkpt><trkpt lat="44.9107574" lon="8.0320329"><ele>167.2</ele><time>2026-05-01T08:30:01.878Z</time></trkpt><trkpt lat="44.9106718" lon="8.0319197"><ele>167.0</ele><time>2026-05-01T08:30:02.878Z</time></trkpt><trkpt lat="44.9105858" lon="8.0317753"><ele>167.0</ele><time>2026-05-01T08:30:03.878Z</time></trkpt><trkpt lat="44.9104969" lon="8.0316151"><ele>167.0</ele><time>2026-05-01T08:30:04.878Z</time></trkpt><trkpt lat="44.9103899" lon="8.0314489"><ele>167.0</ele><time>2026-05-01T08:30:05.878Z</time></trkpt><trkpt lat="44.9102874" lon="8.0312792"><ele>167.0</ele><time>2026-05-01T08:30:06.878Z</time></trkpt><trkpt lat="44.9101876" lon="8.0311113"><ele>167.0</ele><time>2026-05-01T08:30:07.878Z</time></trkpt><trkpt lat="44.9100806" lon="8.0309367"><ele>167.0</ele><time>2026-05-01T08:30:08.878Z</time></trkpt><trkpt lat="44.9099632" lon="8.0307449"><ele>167.66666666666666</ele><time>2026-05-01T08:30:09.878Z</time></trkpt><trkpt lat="44.9098483" lon="8.0305622"><ele>168.33333333333334</ele><time>2026-05-01T08:30:10.878Z</time></trkpt><trkpt lat="44.9097299" lon="8.0303617"><ele>169.0</ele><time>2026-05-01T08:30:11.878Z</time></trkpt><trkpt lat="44.90961" lon="8.03016"><ele>169.0</ele><time>2026-05-01T08:30:12.878Z</time></trkpt><trkpt lat="44.9094816" lon="8.0299474"><ele>169.0</ele><time>2026-05-01T08:30:13.878Z</time></trkpt><trkpt lat="44.9093477" lon="8.0297334"><ele>169.0</ele><time>2026-05-01T08:30:14.878Z</time></trkpt><trkpt lat="44.9092275" lon="8.0295323"><ele>168.0</ele><time>2026-05-01T08:30:15.878Z</time></trkpt><trkpt lat="44.909113" lon="8.0293437"><ele>167.0</ele><time>2026-05-01T08:30:16.878Z</time></trkpt><trkpt lat="44.909005" lon="8.0291607"><ele>166.0</ele><time>2026-05-01T08:30:17.878Z</time></trkpt><trkpt lat="44.9088966" lon="8.0289866"><ele>166.0</ele><time>2026-05-01T08:30:18.878Z</time></trkpt><trkpt lat="44.9088014" lon="8.028823"><ele>166.0</ele><time>2026-05-01T08:30:19.878Z</time></trkpt><trkpt lat="44.9087067" lon="8.0286578"><ele>166.0</ele><time>2026-05-01T08:30:20.879Z</time></trkpt><trkpt lat="44.9086103" lon="8.0284868"><ele>166.0</ele><time>2026-05-01T08:30:21.878Z</time></trkpt><trkpt lat="44.9085147" lon="8.028328"><ele>166.0</ele><time>2026-05-01T08:30:22.878Z</time></trkpt><trkpt lat="44.9084146" lon="8.0281491"><ele>166.0</ele><time>2026-05-01T08:30:23.878Z</time></trkpt><trkpt lat="44.9083095" lon="8.0279819"><ele>166.66666666666669</ele><time>2026-05-01T08:30:24.878Z</time></trkpt><trkpt lat="44.9082093" lon="8.0278081"><ele>167.33333333333334</ele><time>2026-05-01T08:30:25.878Z</time></trkpt><trkpt lat="44.9081118" lon="8.0276387"><ele>168.0</ele><time>2026-05-01T08:30:26.878Z</time></trkpt><trkpt lat="44.9080057" lon="8.0274744"><ele>168.66666666666666</ele><time>2026-05-01T08:30:27.878Z</time></trkpt><trkpt lat="44.9079046" lon="8.0273119"><ele>169.33333333333331</ele><time>2026-05-01T08:30:28.878Z</time></trkpt><trkpt lat="44.9078036" lon="8.0271393"><ele>170.0</ele><time>2026-05-01T08:30:29.879Z</time></trkpt><trkpt lat="44.9077023" lon="8.026973"><ele>170.0</ele><time>2026-05-01T08:30:30.878Z</time></trkpt><trkpt lat="44.9075949" lon="8.026795"><ele>170.0</ele><time>2026-05-01T08:30:31.878Z</time></trkpt><trkpt lat="44.9074901" lon="8.0266254"><ele>170.0</ele><time>2026-05-01T08:30:32.878Z</time></trkpt><trkpt lat="44.9073884" lon="8.0264566"><ele>170.33333333333331</ele><time>2026-05-01T08:30:33.878Z</time></trkpt><trkpt lat="44.9072792" lon="8.0262813"><ele>170.66666666666666</ele><time>2026-05-01T08:30:34.878Z</time></trkpt><trkpt lat="44.907177" lon="8.0261098"><ele>171.0</ele><time>2026-05-01T08:30:35.878Z</time></trkpt><trkpt lat="44.9070732" lon="8.025932"><ele>171.66666666666666</ele><time>2026-05-01T08:30:36.878Z</time></trkpt><trkpt lat="44.9069708" lon="8.0257589"><ele>172.33333333333331</ele><time>2026-05-01T08:30:37.878Z</time></trkpt><trkpt lat="44.9068725" lon="8.0256011"><ele>173.0</ele><time>2026-05-01T08:30:38.878Z</time></trkpt><trkpt lat="44.9067725" lon="8.0254317"><ele>172.66666666666666</ele><time>2026-05-01T08:30:39.878Z</time></trkpt><trkpt lat="44.9066696" lon="8.0252736"><ele>172.33333333333334</ele><time>2026-05-01T08:30:40.878Z</time></trkpt><trkpt lat="44.906573" lon="8.0250982"><ele>172.0</ele><time>2026-05-01T08:30:41.878Z</time></trkpt><trkpt lat="44.9064722" lon="8.0249282"><ele>173.66666666666669</ele><time>2026-05-01T08:30:42.878Z</time></trkpt><trkpt lat="44.9063691" lon="8.0247537"><ele>175.33333333333334</ele><time>2026-05-01T08:30:43.878Z</time></trkpt><trkpt lat="44.9062585" lon="8.024575"><ele>177.0</ele><time>2026-05-01T08:30:44.878Z</time></trkpt><trkpt lat="44.9061453" lon="8.0243846"><ele>177.0</ele><time>2026-05-01T08:30:45.878Z</time></trkpt><trkpt lat="44.9060285" lon="8.024198"><ele>177.0</ele><time>2026-05-01T08:30:46.878Z</time></trkpt><trkpt lat="44.9059112" lon="8.0240094"><ele>177.0</ele><time>2026-05-01T08:30:47.878Z</time></trkpt><trkpt lat="44.9057895" lon="8.0238135"><ele>176.33333333333334</ele><time>2026-05-01T08:30:48.878Z</time></trkpt><trkpt lat="44.9056682" lon="8.023605"><ele>175.66666666666669</ele><time>2026-05-01T08:30:49.878Z</time></trkpt><trkpt lat="44.9055474" lon="8.0233991"><ele>175.0</ele><time>2026-05-01T08:30:50.878Z</time></trkpt><trkpt lat="44.9054282" lon="8.0231839"><ele>176.66666666666669</ele><time>2026-05-01T08:30:51.878Z</time></trkpt><trkpt lat="44.9053064" lon="8.0229772"><ele>178.33333333333334</ele><time>2026-05-01T08:30:52.878Z</time></trkpt><trkpt lat="44.9051694" lon="8.0227578"><ele>180.0</ele><time>2026-05-01T08:30:53.878Z</time></trkpt><trkpt lat="44.9050334" lon="8.0225478"><ele>176.33333333333334</ele><time>2026-05-01T08:30:54.878Z</time></trkpt><trkpt lat="44.9048914" lon="8.0223462"><ele>172.66666666666669</ele><time>2026-05-01T08:30:55.878Z</time></trkpt><trkpt lat="44.9047404" lon="8.0221546"><ele>169.0</ele><time>2026-05-01T08:30:56.878Z</time></trkpt><trkpt lat="44.9045822" lon="8.0219595"><ele>169.0</ele><time>2026-05-01T08:30:57.878Z</time></trkpt><trkpt lat="44.9044238" lon="8.0217737"><ele>169.0</ele><time>2026-05-01T08:30:58.878Z</time></trkpt><trkpt lat="44.9042629" lon="8.0215801"><ele>169.0</ele><time>2026-05-01T08:30:59.878Z</time></trkpt><trkpt lat="44.9040945" lon="8.0213868"><ele>170.0</ele><time>2026-05-01T08:31:00.878Z</time></trkpt><trkpt lat="44.9039285" lon="8.0211935"><ele>171.0</ele><time>2026-05-01T08:31:01.878Z</time></trkpt><trkpt lat="44.9037611" lon="8.0210061"><ele>172.0</ele><time>2026-05-01T08:31:02.878Z</time></trkpt><trkpt lat="44.9035931" lon="8.0208248"><ele>173.66666666666669</ele><time>2026-05-01T08:31:03.878Z</time></trkpt><trkpt lat="44.9034274" lon="8.0206291"><ele>175.33333333333334</ele><time>2026-05-01T08:31:04.878Z</time></trkpt><trkpt lat="44.9032683" lon="8.0204317"><ele>177.0</ele><time>2026-05-01T08:31:05.878Z</time></trkpt><trkpt lat="44.9031023" lon="8.0202179"><ele>177.0</ele><time>2026-05-01T08:31:06.878Z</time></trkpt><trkpt lat="44.9029447" lon="8.020002"><ele>177.0</ele><time>2026-05-01T08:31:07.878Z</time></trkpt><trkpt lat="44.9027881" lon="8.0197791"><ele>177.0</ele><time>2026-05-01T08:31:08.878Z</time></trkpt><trkpt lat="44.9026342" lon="8.0195557"><ele>176.66666666666666</ele><time>2026-05-01T08:31:09.878Z</time></trkpt><trkpt lat="44.9024768" lon="8.0193467"><ele>176.33333333333331</ele><time>2026-05-01T08:31:10.879Z</time></trkpt><trkpt lat="44.902325" lon="8.0191308"><ele>176.0</ele><time>2026-05-01T08:31:11.878Z</time></trkpt><trkpt lat="44.902179" lon="8.0189222"><ele>176.66666666666666</ele><time>2026-05-01T08:31:12.878Z</time></trkpt><trkpt lat="44.9020447" lon="8.0187125"><ele>177.33333333333334</ele><time>2026-05-01T08:31:13.878Z</time></trkpt><trkpt lat="44.9018987" lon="8.0185285"><ele>178.0</ele><time>2026-05-01T08:31:14.878Z</time></trkpt><trkpt lat="44.9017554" lon="8.0183463"><ele>177.66666666666669</ele><time>2026-05-01T08:31:15.878Z</time></trkpt><trkpt lat="44.901623" lon="8.0181661"><ele>177.33333333333334</ele><time>2026-05-01T08:31:16.878Z</time></trkpt><trkpt lat="44.9014981" lon="8.0179894"><ele>177.0</ele><time>2026-05-01T08:31:17.878Z</time></trkpt><trkpt lat="44.901367" lon="8.0178102"><ele>177.0</ele><time>2026-05-01T08:31:18.879Z</time></trkpt><trkpt lat="44.901228" lon="8.0176358"><ele>177.0</ele><time>2026-05-01T08:31:19.878Z</time></trkpt><trkpt lat="44.9010784" lon="8.0174584"><ele>177.0</ele><time>2026-05-01T08:31:20.878Z</time></trkpt><trkpt lat="44.9009396" lon="8.0172599"><ele>178.0</ele><time>2026-05-01T08:31:21.878Z</time></trkpt><trkpt lat="44.9007965" lon="8.0170388"><ele>179.0</ele><time>2026-05-01T08:31:22.878Z</time></trkpt><trkpt lat="44.9006413" lon="8.0168069"><ele>180.0</ele><time>2026-05-01T08:31:23.878Z</time></trkpt><trkpt lat="44.9004764" lon="8.0165794"><ele>180.0</ele><time>2026-05-01T08:31:24.878Z</time></trkpt><trkpt lat="44.9003164" lon="8.0163388"><ele>180.0</ele><time>2026-05-01T08:31:25.878Z</time></trkpt><trkpt lat="44.9001457" lon="8.0161011"><ele>179.5</ele><time>2026-05-01T08:31:26.878Z</time></trkpt><trkpt lat="44.8999772" lon="8.0158688"><ele>179.0</ele><time>2026-05-01T08:31:27.878Z</time></trkpt><trkpt lat="44.8997958" lon="8.015628"><ele>179.0</ele><time>2026-05-01T08:31:28.878Z</time></trkpt><trkpt lat="44.8996249" lon="8.0153875"><ele>179.0</ele><time>2026-05-01T08:31:29.878Z</time></trkpt><trkpt lat="44.8994561" lon="8.0151599"><ele>179.0</ele><time>2026-05-01T08:31:30.878Z</time></trkpt><trkpt lat="44.8992838" lon="8.0149149"><ele>179.0</ele><time>2026-05-01T08:31:31.878Z</time></trkpt><trkpt lat="44.8991179" lon="8.0146826"><ele>179.0</ele><time>2026-05-01T08:31:32.878Z</time></trkpt><trkpt lat="44.8989519" lon="8.0144399"><ele>179.0</ele><time>2026-05-01T08:31:33.878Z</time></trkpt><trkpt lat="44.8987838" lon="8.0142033"><ele>179.5</ele><time>2026-05-01T08:31:34.878Z</time></trkpt><trkpt lat="44.8985969" lon="8.0139577"><ele>180.0</ele><time>2026-05-01T08:31:35.878Z</time></trkpt><trkpt lat="44.8984315" lon="8.0137292"><ele>180.0</ele><time>2026-05-01T08:31:36.878Z</time></trkpt><trkpt lat="44.8982685" lon="8.0134804"><ele>180.0</ele><time>2026-05-01T08:31:37.878Z</time></trkpt><trkpt lat="44.8981036" lon="8.0132394"><ele>180.0</ele><time>2026-05-01T08:31:38.878Z</time></trkpt><trkpt lat="44.8979308" lon="8.0130023"><ele>180.0</ele><time>2026-05-01T08:31:39.878Z</time></trkpt><trkpt lat="44.8977668" lon="8.0127616"><ele>180.0</ele><time>2026-05-01T08:31:40.878Z</time></trkpt><trkpt lat="44.897603" lon="8.0125364"><ele>180.0</ele><time>2026-05-01T08:31:41.878Z</time></trkpt><trkpt lat="44.8974454" lon="8.0123096"><ele>180.0</ele><time>2026-05-01T08:31:42.878Z</time></trkpt><trkpt lat="44.8972856" lon="8.012077"><ele>180.0</ele><time>2026-05-01T08:31:43.878Z</time></trkpt><trkpt lat="44.8971389" lon="8.0118712"><ele>180.0</ele><time>2026-05-01T08:31:44.878Z</time></trkpt><trkpt lat="44.8969815" lon="8.011658"><ele>179.33333333333334</ele><time>2026-05-01T08:31:45.878Z</time></trkpt><trkpt lat="44.8968327" lon="8.0114516"><ele>178.66666666666669</ele><time>2026-05-01T08:31:46.878Z</time></trkpt><trkpt lat="44.8966988" lon="8.0112579"><ele>178.0</ele><time>2026-05-01T08:31:47.878Z</time></trkpt><trkpt lat="44.8965662" lon="8.0110824"><ele>178.0</ele><time>2026-05-01T08:31:48.878Z</time></trkpt><trkpt lat="44.8964366" lon="8.0109287"><ele>178.0</ele><time>2026-05-01T08:31:49.878Z</time></trkpt><trkpt lat="44.89632" lon="8.0107871"><ele>178.0</ele><time>2026-05-01T08:31:50.878Z</time></trkpt><trkpt lat="44.8962143" lon="8.0106818"><ele>177.8</ele><time>2026-05-01T08:31:51.878Z</time></trkpt><trkpt lat="44.8961271" lon="8.010591"><ele>177.60000000000002</ele><time>2026-05-01T08:31:52.878Z</time></trkpt><trkpt lat="44.896062" lon="8.0105264"><ele>177.39999999999998</ele><time>2026-05-01T08:31:53.878Z</time></trkpt><trkpt lat="44.896017" lon="8.010454"><ele>177.2</ele><time>2026-05-01T08:31:54.878Z</time></trkpt><trkpt lat="44.8960238" lon="8.0103057"><ele>177.0</ele><time>2026-05-01T08:31:56.878Z</time></trkpt><trkpt lat="44.8960922" lon="8.0101215"><ele>178.0</ele><time>2026-05-01T08:31:58.878Z</time></trkpt><trkpt lat="44.8961365" lon="8.0099826"><ele>179.0</ele><time>2026-05-01T08:31:59.879Z</time></trkpt><trkpt lat="44.8961783" lon="8.0098286"><ele>180.0</ele><time>2026-05-01T08:32:00.878Z</time></trkpt><trkpt lat="44.896239" lon="8.009667"><ele>181.0</ele><time>2026-05-01T08:32:01.878Z</time></trkpt><trkpt lat="44.896307" lon="8.0094921"><ele>181.0</ele><time>2026-05-01T08:32:02.878Z</time></trkpt><trkpt lat="44.8963703" lon="8.0092985"><ele>181.0</ele><time>2026-05-01T08:32:03.878Z</time></trkpt><trkpt lat="44.8964398" lon="8.009098"><ele>181.0</ele><time>2026-05-01T08:32:04.878Z</time></trkpt><trkpt lat="44.8964996" lon="8.0089111"><ele>182.5</ele><time>2026-05-01T08:32:05.878Z</time></trkpt><trkpt lat="44.8965426" lon="8.0087414"><ele>184.0</ele><time>2026-05-01T08:32:06.878Z</time></trkpt><trkpt lat="44.8965637" lon="8.0085726"><ele>185.5</ele><time>2026-05-01T08:32:07.878Z</time></trkpt><trkpt lat="44.8965075" lon="8.0083741"><ele>187.0</ele><time>2026-05-01T08:32:08.878Z</time></trkpt><trkpt lat="44.8964543" lon="8.0081705"><ele>188.33333333333334</ele><time>2026-05-01T08:32:09.878Z</time></trkpt><trkpt lat="44.8963964" lon="8.0079754"><ele>189.66666666666666</ele><time>2026-05-01T08:32:10.878Z</time></trkpt><trkpt lat="44.8963586" lon="8.0077581"><ele>191.0</ele><time>2026-05-01T08:32:11.879Z</time></trkpt><trkpt lat="44.8963201" lon="8.0075431"><ele>193.66666666666666</ele><time>2026-05-01T08:32:12.878Z</time></trkpt><trkpt lat="44.8962764" lon="8.0073217"><ele>196.33333333333331</ele><time>2026-05-01T08:32:13.878Z</time></trkpt><trkpt lat="44.8962495" lon="8.0071041"><ele>199.0</ele><time>2026-05-01T08:32:14.878Z</time></trkpt><trkpt lat="44.8962315" lon="8.0068639"><ele>202.33333333333331</ele><time>2026-05-01T08:32:15.878Z</time></trkpt><trkpt lat="44.8962229" lon="8.0066239"><ele>205.66666666666669</ele><time>2026-05-01T08:32:16.878Z</time></trkpt><trkpt lat="44.8962166" lon="8.0063867"><ele>209.0</ele><time>2026-05-01T08:32:17.878Z</time></trkpt><trkpt lat="44.8962527" lon="8.0061413"><ele>209.0</ele><time>2026-05-01T08:32:18.878Z</time></trkpt><trkpt lat="44.8962942" lon="8.0059096"><ele>209.0</ele><time>2026-05-01T08:32:19.878Z</time></trkpt><trkpt lat="44.8963566" lon="8.0056706"><ele>209.0</ele><time>2026-05-01T08:32:20.878Z</time></trkpt><trkpt lat="44.8964302" lon="8.005439"><ele>212.33333333333334</ele><time>2026-05-01T08:32:21.879Z</time></trkpt><trkpt lat="44.8965002" lon="8.0052073"><ele>215.66666666666669</ele><time>2026-05-01T08:32:22.878Z</time></trkpt><trkpt lat="44.8965585" lon="8.004989"><ele>219.0</ele><time>2026-05-01T08:32:23.878Z</time></trkpt><trkpt lat="44.896611" lon="8.0047859"><ele>220.5</ele><time>2026-05-01T08:32:24.878Z</time></trkpt><trkpt lat="44.8966349" lon="8.0046088"><ele>222.0</ele><time>2026-05-01T08:32:25.878Z</time></trkpt><trkpt lat="44.8966186" lon="8.0044048"><ele>223.5</ele><time>2026-05-01T08:32:26.878Z</time></trkpt><trkpt lat="44.8965889" lon="8.0041866"><ele>225.0</ele><time>2026-05-01T08:32:27.878Z</time></trkpt><trkpt lat="44.89656" lon="8.0039837"><ele>226.75</ele><time>2026-05-01T08:32:28.878Z</time></trkpt><trkpt lat="44.8965175" lon="8.003798"><ele>228.5</ele><time>2026-05-01T08:32:29.878Z</time></trkpt><trkpt lat="44.896449" lon="8.0036099"><ele>230.25</ele><time>2026-05-01T08:32:30.878Z</time></trkpt><trkpt lat="44.8963567" lon="8.0034265"><ele>232.0</ele><time>2026-05-01T08:32:31.878Z</time></trkpt><trkpt lat="44.8962686" lon="8.0032319"><ele>233.33333333333331</ele><time>2026-05-01T08:32:32.878Z</time></trkpt><trkpt lat="44.8961868" lon="8.0030292"><ele>234.66666666666669</ele><time>2026-05-01T08:32:33.878Z</time></trkpt><trkpt lat="44.8960911" lon="8.0028235"><ele>236.0</ele><time>2026-05-01T08:32:34.878Z</time></trkpt><trkpt lat="44.8960068" lon="8.002608"><ele>237.66666666666669</ele><time>2026-05-01T08:32:35.878Z</time></trkpt><trkpt lat="44.8959423" lon="8.0024059"><ele>239.33333333333331</ele><time>2026-05-01T08:32:36.878Z</time></trkpt><trkpt lat="44.8958949" lon="8.0021911"><ele>241.0</ele><time>2026-05-01T08:32:37.878Z</time></trkpt><trkpt lat="44.8958704" lon="8.0019591"><ele>241.66666666666666</ele><time>2026-05-01T08:32:38.879Z</time></trkpt><trkpt lat="44.8958618" lon="8.0017266"><ele>242.33333333333331</ele><time>2026-05-01T08:32:39.878Z</time></trkpt><trkpt lat="44.895859" lon="8.0014951"><ele>243.0</ele><time>2026-05-01T08:32:40.878Z</time></trkpt><trkpt lat="44.8958523" lon="8.0012756"><ele>244.66666666666669</ele><time>2026-05-01T08:32:41.878Z</time></trkpt><trkpt lat="44.8958469" lon="8.001071"><ele>246.33333333333334</ele><time>2026-05-01T08:32:42.878Z</time></trkpt><trkpt lat="44.8958412" lon="8.0008527"><ele>248.0</ele><time>2026-05-01T08:32:43.878Z</time></trkpt><trkpt lat="44.8958335" lon="8.0006281"><ele>249.0</ele><time>2026-05-01T08:32:44.878Z</time></trkpt><trkpt lat="44.8958116" lon="8.0004015"><ele>250.0</ele><time>2026-05-01T08:32:45.879Z</time></trkpt><trkpt lat="44.8957786" lon="8.0001691"><ele>251.0</ele><time>2026-05-01T08:32:46.878Z</time></trkpt><trkpt lat="44.8957402" lon="7.9999233"><ele>251.0</ele><time>2026-05-01T08:32:47.878Z</time></trkpt><trkpt lat="44.8956992" lon="7.9996832"><ele>251.0</ele><time>2026-05-01T08:32:48.878Z</time></trkpt><trkpt lat="44.895658" lon="7.9994322"><ele>251.0</ele><time>2026-05-01T08:32:49.878Z</time></trkpt><trkpt lat="44.8956149" lon="7.9991958"><ele>252.0</ele><time>2026-05-01T08:32:50.878Z</time></trkpt><trkpt lat="44.8955753" lon="7.998977"><ele>253.0</ele><time>2026-05-01T08:32:51.878Z</time></trkpt><trkpt lat="44.8955299" lon="7.998764"><ele>254.0</ele><time>2026-05-01T08:32:52.878Z</time></trkpt><trkpt lat="44.8954667" lon="7.9985789"><ele>254.0</ele><time>2026-05-01T08:32:53.878Z</time></trkpt><trkpt lat="44.8953794" lon="7.9983973"><ele>254.0</ele><time>2026-05-01T08:32:54.878Z</time></trkpt><trkpt lat="44.8952696" lon="7.9982302"><ele>254.0</ele><time>2026-05-01T08:32:55.878Z</time></trkpt><trkpt lat="44.8951476" lon="7.9980724"><ele>254.0</ele><time>2026-05-01T08:32:56.878Z</time></trkpt><trkpt lat="44.8949785" lon="7.9979418"><ele>254.0</ele><time>2026-05-01T08:32:57.878Z</time></trkpt><trkpt lat="44.8948416" lon="7.9977882"><ele>254.0</ele><time>2026-05-01T08:32:58.878Z</time></trkpt><trkpt lat="44.8947188" lon="7.9976072"><ele>252.66666666666669</ele><time>2026-05-01T08:32:59.878Z</time></trkpt><trkpt lat="44.8946009" lon="7.9974085"><ele>251.33333333333331</ele><time>2026-05-01T08:33:00.878Z</time></trkpt><trkpt lat="44.8945012" lon="7.9972039"><ele>250.0</ele><time>2026-05-01T08:33:01.878Z</time></trkpt><trkpt lat="44.8943955" lon="7.9970074"><ele>250.0</ele><time>2026-05-01T08:33:02.878Z</time></trkpt><trkpt lat="44.8942755" lon="7.9968342"><ele>250.0</ele><time>2026-05-01T08:33:03.878Z</time></trkpt><trkpt lat="44.8941387" lon="7.9966741"><ele>250.0</ele><time>2026-05-01T08:33:04.878Z</time></trkpt><trkpt lat="44.8939806" lon="7.9965353"><ele>250.66666666666666</ele><time>2026-05-01T08:33:05.878Z</time></trkpt><trkpt lat="44.8938138" lon="7.9964187"><ele>251.33333333333331</ele><time>2026-05-01T08:33:06.878Z</time></trkpt><trkpt lat="44.8936543" lon="7.9963018"><ele>252.0</ele><time>2026-05-01T08:33:07.878Z</time></trkpt><trkpt lat="44.8935016" lon="7.9961884"><ele>252.33333333333331</ele><time>2026-05-01T08:33:08.878Z</time></trkpt><trkpt lat="44.8933547" lon="7.996066"><ele>252.66666666666666</ele><time>2026-05-01T08:33:09.878Z</time></trkpt><trkpt lat="44.8932244" lon="7.9959281"><ele>253.0</ele><time>2026-05-01T08:33:10.878Z</time></trkpt><trkpt lat="44.8930988" lon="7.995765"><ele>253.0</ele><time>2026-05-01T08:33:11.878Z</time></trkpt><trkpt lat="44.89299" lon="7.9955925"><ele>253.0</ele><time>2026-05-01T08:33:12.878Z</time></trkpt><trkpt lat="44.8928849" lon="7.9954122"><ele>253.0</ele><time>2026-05-01T08:33:13.878Z</time></trkpt><trkpt lat="44.892779" lon="7.9952261"><ele>253.0</ele><time>2026-05-01T08:33:14.878Z</time></trkpt><trkpt lat="44.8926923" lon="7.9950286"><ele>253.0</ele><time>2026-05-01T08:33:15.878Z</time></trkpt><trkpt lat="44.8926395" lon="7.9948067"><ele>253.0</ele><time>2026-05-01T08:33:16.878Z</time></trkpt><trkpt lat="44.8926116" lon="7.9945684"><ele>253.66666666666666</ele><time>2026-05-01T08:33:17.878Z</time></trkpt><trkpt lat="44.8925575" lon="7.9943275"><ele>254.33333333333331</ele><time>2026-05-01T08:33:18.879Z</time></trkpt><trkpt lat="44.8925129" lon="7.9941193"><ele>255.0</ele><time>2026-05-01T08:33:19.878Z</time></trkpt><trkpt lat="44.8924531" lon="7.9939113"><ele>255.0</ele><time>2026-05-01T08:33:20.878Z</time></trkpt><trkpt lat="44.8923785" lon="7.993711"><ele>255.0</ele><time>2026-05-01T08:33:21.878Z</time></trkpt><trkpt lat="44.8922992" lon="7.9935165"><ele>255.0</ele><time>2026-05-01T08:33:22.878Z</time></trkpt><trkpt lat="44.8922263" lon="7.9933379"><ele>254.5</ele><time>2026-05-01T08:33:23.878Z</time></trkpt><trkpt lat="44.8921283" lon="7.9932069"><ele>254.0</ele><time>2026-05-01T08:33:24.878Z</time></trkpt><trkpt lat="44.8920161" lon="7.9930795"><ele>253.5</ele><time>2026-05-01T08:33:25.878Z</time></trkpt><trkpt lat="44.8918837" lon="7.9929728"><ele>253.0</ele><time>2026-05-01T08:33:26.878Z</time></trkpt><trkpt lat="44.8917424" lon="7.992876"><ele>255.33333333333331</ele><time>2026-05-01T08:33:27.878Z</time></trkpt><trkpt lat="44.891583" lon="7.992789"><ele>257.6666666666667</ele><time>2026-05-01T08:33:28.878Z</time></trkpt><trkpt lat="44.8914225" lon="7.9927"><ele>260.0</ele><time>2026-05-01T08:33:29.878Z</time></trkpt><trkpt lat="44.8912612" lon="7.9925975"><ele>259.6666666666667</ele><time>2026-05-01T08:33:30.878Z</time></trkpt><trkpt lat="44.8910976" lon="7.9925013"><ele>259.3333333333333</ele><time>2026-05-01T08:33:31.878Z</time></trkpt><trkpt lat="44.8909408" lon="7.9924081"><ele>259.0</ele><time>2026-05-01T08:33:32.878Z</time></trkpt><trkpt lat="44.890794" lon="7.9923182"><ele>259.0</ele><time>2026-05-01T08:33:33.878Z</time></trkpt><trkpt lat="44.8906731" lon="7.9922291"><ele>259.0</ele><time>2026-05-01T08:33:34.878Z</time></trkpt><trkpt lat="44.8905875" lon="7.9921343"><ele>259.0</ele><time>2026-05-01T08:33:35.878Z</time></trkpt><trkpt lat="44.8905025" lon="7.9920116"><ele>259.0</ele><time>2026-05-01T08:33:36.878Z</time></trkpt><trkpt lat="44.8904383" lon="7.9918822"><ele>259.0</ele><time>2026-05-01T08:33:37.878Z</time></trkpt><trkpt lat="44.8903594" lon="7.9917567"><ele>259.0</ele><time>2026-05-01T08:33:38.878Z</time></trkpt><trkpt lat="44.8902793" lon="7.9916333"><ele>259.0</ele><time>2026-05-01T08:33:39.878Z</time></trkpt><trkpt lat="44.8902047" lon="7.9915069"><ele>259.0</ele><time>2026-05-01T08:33:40.878Z</time></trkpt><trkpt lat="44.8901414" lon="7.9914026"><ele>259.59999999999997</ele><time>2026-05-01T08:33:41.878Z</time></trkpt><trkpt lat="44.8900841" lon="7.991321"><ele>260.2</ele><time>2026-05-01T08:33:42.878Z</time></trkpt><trkpt lat="44.8900302" lon="7.9912134"><ele>260.79999999999995</ele><time>2026-05-01T08:33:44.879Z</time></trkpt><trkpt lat="44.8900766" lon="7.9910841"><ele>261.4</ele><time>2026-05-01T08:33:46.878Z</time></trkpt><trkpt lat="44.8901737" lon="7.9909376"><ele>262.0</ele><time>2026-05-01T08:33:48.878Z</time></trkpt><trkpt lat="44.8902296" lon="7.9908433"><ele>259.8</ele><time>2026-05-01T08:33:49.878Z</time></trkpt><trkpt lat="44.890295" lon="7.9907379"><ele>257.6</ele><time>2026-05-01T08:33:50.878Z</time></trkpt><trkpt lat="44.8903686" lon="7.9906396"><ele>255.40000000000003</ele><time>2026-05-01T08:33:51.878Z</time></trkpt><trkpt lat="44.8904397" lon="7.9905383"><ele>253.20000000000002</ele><time>2026-05-01T08:33:52.878Z</time></trkpt><trkpt lat="44.8905102" lon="7.9904309"><ele>251.0</ele><time>2026-05-01T08:33:53.878Z</time></trkpt><trkpt lat="44.8905691" lon="7.9903072"><ele>251.0</ele><time>2026-05-01T08:33:54.878Z</time></trkpt><trkpt lat="44.8905928" lon="7.990181"><ele>251.00000000000003</ele><time>2026-05-01T08:33:55.878Z</time></trkpt><trkpt lat="44.8905914" lon="7.9900474"><ele>251.00000000000003</ele><time>2026-05-01T08:33:56.878Z</time></trkpt><trkpt lat="44.8905693" lon="7.989905"><ele>251.0</ele><time>2026-05-01T08:33:57.878Z</time></trkpt><trkpt lat="44.8905378" lon="7.9897517"><ele>251.0</ele><time>2026-05-01T08:33:58.878Z</time></trkpt><trkpt lat="44.8904959" lon="7.9895939"><ele>250.4</ele><time>2026-05-01T08:33:59.878Z</time></trkpt><trkpt lat="44.8904679" lon="7.9894378"><ele>249.8</ele><time>2026-05-01T08:34:00.878Z</time></trkpt><trkpt lat="44.8904708" lon="7.9892941"><ele>249.20000000000002</ele><time>2026-05-01T08:34:01.878Z</time></trkpt><trkpt lat="44.8904734" lon="7.9891282"><ele>248.60000000000002</ele><time>2026-05-01T08:34:02.878Z</time></trkpt><trkpt lat="44.8904791" lon="7.9889722"><ele>248.0</ele><time>2026-05-01T08:34:03.878Z</time></trkpt><trkpt lat="44.8905049" lon="7.988823"><ele>247.0</ele><time>2026-05-01T08:34:04.878Z</time></trkpt><trkpt lat="44.8905347" lon="7.988672"><ele>246.0</ele><time>2026-05-01T08:34:05.879Z</time></trkpt><trkpt lat="44.8906053" lon="7.9885436"><ele>245.0</ele><time>2026-05-01T08:34:06.878Z</time></trkpt><trkpt lat="44.8906816" lon="7.9884275"><ele>244.0</ele><time>2026-05-01T08:34:07.879Z</time></trkpt><trkpt lat="44.8907738" lon="7.9883149"><ele>244.0</ele><time>2026-05-01T08:34:08.878Z</time></trkpt><trkpt lat="44.8908678" lon="7.9881934"><ele>244.0</ele><time>2026-05-01T08:34:09.878Z</time></trkpt><trkpt lat="44.8909544" lon="7.9880976"><ele>244.0</ele><time>2026-05-01T08:34:10.878Z</time></trkpt><trkpt lat="44.8910507" lon="7.9879891"><ele>244.0</ele><time>2026-05-01T08:34:11.878Z</time></trkpt><trkpt lat="44.8911403" lon="7.9878769"><ele>243.6</ele><time>2026-05-01T08:34:12.878Z</time></trkpt><trkpt lat="44.8912214" lon="7.9877667"><ele>243.2</ele><time>2026-05-01T08:34:13.878Z</time></trkpt><trkpt lat="44.8913012" lon="7.9876435"><ele>242.79999999999998</ele><time>2026-05-01T08:34:14.878Z</time></trkpt><trkpt lat="44.8913684" lon="7.9875491"><ele>242.39999999999998</ele><time>2026-05-01T08:34:15.878Z</time></trkpt><trkpt lat="44.8914405" lon="7.9874332"><ele>242.0</ele><time>2026-05-01T08:34:16.878Z</time></trkpt><trkpt lat="44.8915305" lon="7.9873163"><ele>241.75</ele><time>2026-05-01T08:34:17.878Z</time></trkpt><trkpt lat="44.8916194" lon="7.9872207"><ele>241.5</ele><time>2026-05-01T08:34:18.878Z</time></trkpt><trkpt lat="44.8917604" lon="7.9871691"><ele>241.25</ele><time>2026-05-01T08:34:19.878Z</time></trkpt><trkpt lat="44.8918868" lon="7.9871291"><ele>241.0</ele><time>2026-05-01T08:34:20.878Z</time></trkpt><trkpt lat="44.8920075" lon="7.9870924"><ele>240.75</ele><time>2026-05-01T08:34:21.878Z</time></trkpt><trkpt lat="44.8921336" lon="7.9870468"><ele>240.5</ele><time>2026-05-01T08:34:22.878Z</time></trkpt><trkpt lat="44.8922462" lon="7.9869724"><ele>240.25</ele><time>2026-05-01T08:34:23.878Z</time></trkpt><trkpt lat="44.8923569" lon="7.9868849"><ele>240.0</ele><time>2026-05-01T08:34:24.878Z</time></trkpt><trkpt lat="44.8924615" lon="7.9867899"><ele>240.0</ele><time>2026-05-01T08:34:25.878Z</time></trkpt><trkpt lat="44.892557" lon="7.9867062"><ele>240.0</ele><time>2026-05-01T08:34:26.878Z</time></trkpt><trkpt lat="44.8926296" lon="7.9866373"><ele>240.0</ele><time>2026-05-01T08:34:27.878Z</time></trkpt><trkpt lat="44.892681" lon="7.9865847"><ele>240.0</ele><time>2026-05-01T08:34:28.878Z</time></trkpt><trkpt lat="44.8926867" lon="7.9864373"><ele>240.0</ele><time>2026-05-01T08:34:30.878Z</time></trkpt><trkpt lat="44.8925744" lon="7.9863391"><ele>237.2</ele><time>2026-05-01T08:34:32.878Z</time></trkpt><trkpt lat="44.8924803" lon="7.9863122"><ele>234.4</ele><time>2026-05-01T08:34:33.878Z</time></trkpt><trkpt lat="44.8923746" lon="7.9862828"><ele>231.60000000000002</ele><time>2026-05-01T08:34:34.878Z</time></trkpt><trkpt lat="44.8922681" lon="7.9862629"><ele>228.8</ele><time>2026-05-01T08:34:35.878Z</time></trkpt><trkpt lat="44.8921622" lon="7.986237"><ele>226.0</ele><time>2026-05-01T08:34:36.878Z</time></trkpt><trkpt lat="44.8920691" lon="7.9861977"><ele>226.0</ele><time>2026-05-01T08:34:37.878Z</time></trkpt><trkpt lat="44.8920014" lon="7.9861534"><ele>226.00000000000003</ele><time>2026-05-01T08:34:38.878Z</time></trkpt><trkpt lat="44.8919578" lon="7.9860458"><ele>226.00000000000003</ele><time>2026-05-01T08:34:39.878Z</time></trkpt><trkpt lat="44.8919383" lon="7.9859179"><ele>226.0</ele><time>2026-05-01T08:34:40.878Z</time></trkpt><trkpt lat="44.8919378" lon="7.9857379"><ele>226.0</ele><time>2026-05-01T08:34:41.879Z</time></trkpt><trkpt lat="44.891943" lon="7.9855599"><ele>220.75</ele><time>2026-05-01T08:34:42.878Z</time></trkpt><trkpt lat="44.8919725" lon="7.9853871"><ele>215.5</ele><time>2026-05-01T08:34:43.879Z</time></trkpt><trkpt lat="44.8920033" lon="7.985208"><ele>210.25</ele><time>2026-05-01T08:34:44.879Z</time></trkpt><trkpt lat="44.8920208" lon="7.9850284"><ele>205.0</ele><time>2026-05-01T08:34:45.878Z</time></trkpt><trkpt lat="44.8920318" lon="7.9848523"><ele>204.0</ele><time>2026-05-01T08:34:46.878Z</time></trkpt><trkpt lat="44.892045" lon="7.9846945"><ele>203.0</ele><time>2026-05-01T08:34:47.878Z</time></trkpt><trkpt lat="44.8920644" lon="7.9845505"><ele>202.0</ele><time>2026-05-01T08:34:48.878Z</time></trkpt><trkpt lat="44.8920765" lon="7.9844312"><ele>201.0</ele><time>2026-05-01T08:34:49.878Z</time></trkpt><trkpt lat="44.8921188" lon="7.9842865"><ele>200.0</ele><time>2026-05-01T08:34:51.879Z</time></trkpt><trkpt lat="44.8922234" lon="7.9841929"><ele>200.0</ele><time>2026-05-01T08:34:53.878Z</time></trkpt><trkpt lat="44.8923022" lon="7.984143"><ele>200.0</ele><time>2026-05-01T08:34:54.878Z</time></trkpt><trkpt lat="44.8923825" lon="7.9840896"><ele>200.0</ele><time>2026-05-01T08:34:55.878Z</time></trkpt><trkpt lat="44.8924786" lon="7.9840227"><ele>200.0</ele><time>2026-05-01T08:34:56.878Z</time></trkpt><trkpt lat="44.8925997" lon="7.983948"><ele>200.0</ele><time>2026-05-01T08:34:57.878Z</time></trkpt><trkpt lat="44.8927339" lon="7.9838659"><ele>199.25</ele><time>2026-05-01T08:34:58.878Z</time></trkpt><trkpt lat="44.8928651" lon="7.9838012"><ele>198.5</ele><time>2026-05-01T08:34:59.878Z</time></trkpt><trkpt lat="44.8930034" lon="7.9837425"><ele>197.75</ele><time>2026-05-01T08:35:00.878Z</time></trkpt><trkpt lat="44.8931502" lon="7.9836938"><ele>197.0</ele><time>2026-05-01T08:35:01.878Z</time></trkpt><trkpt lat="44.8933021" lon="7.9836384"><ele>197.0</ele><time>2026-05-01T08:35:02.878Z</time></trkpt><trkpt lat="44.8934653" lon="7.9835943"><ele>197.0</ele><time>2026-05-01T08:35:03.879Z</time></trkpt><trkpt lat="44.8936355" lon="7.9835554"><ele>197.0</ele><time>2026-05-01T08:35:04.878Z</time></trkpt><trkpt lat="44.8938043" lon="7.9835308"><ele>197.0</ele><time>2026-05-01T08:35:05.878Z</time></trkpt><trkpt lat="44.8939724" lon="7.9835129"><ele>197.0</ele><time>2026-05-01T08:35:06.878Z</time></trkpt><trkpt lat="44.8941486" lon="7.9835131"><ele>197.0</ele><time>2026-05-01T08:35:07.878Z</time></trkpt><trkpt lat="44.8943247" lon="7.9835249"><ele>196.66666666666669</ele><time>2026-05-01T08:35:08.878Z</time></trkpt><trkpt lat="44.8945146" lon="7.9835282"><ele>196.33333333333331</ele><time>2026-05-01T08:35:09.878Z</time></trkpt><trkpt lat="44.8947027" lon="7.9835415"><ele>196.0</ele><time>2026-05-01T08:35:10.878Z</time></trkpt><trkpt lat="44.8948876" lon="7.9835549"><ele>196.0</ele><time>2026-05-01T08:35:11.878Z</time></trkpt><trkpt lat="44.8950778" lon="7.9835603"><ele>196.0</ele><time>2026-05-01T08:35:12.878Z</time></trkpt><trkpt lat="44.8952805" lon="7.9835777"><ele>196.0</ele><time>2026-05-01T08:35:13.878Z</time></trkpt><trkpt lat="44.8954701" lon="7.9835981"><ele>196.66666666666666</ele><time>2026-05-01T08:35:14.878Z</time></trkpt><trkpt lat="44.8956552" lon="7.9836199"><ele>197.33333333333331</ele><time>2026-05-01T08:35:15.878Z</time></trkpt><trkpt lat="44.895836" lon="7.9836346"><ele>198.0</ele><time>2026-05-01T08:35:16.878Z</time></trkpt><trkpt lat="44.8960232" lon="7.9836595"><ele>198.66666666666669</ele><time>2026-05-01T08:35:17.878Z</time></trkpt><trkpt lat="44.8962163" lon="7.9836797"><ele>199.33333333333334</ele><time>2026-05-01T08:35:18.878Z</time></trkpt><trkpt lat="44.8964089" lon="7.9837045"><ele>200.0</ele><time>2026-05-01T08:35:19.878Z</time></trkpt><trkpt lat="44.8965976" lon="7.9837319"><ele>201.66666666666669</ele><time>2026-05-01T08:35:20.879Z</time></trkpt><trkpt lat="44.8967853" lon="7.9837605"><ele>203.33333333333331</ele><time>2026-05-01T08:35:21.878Z</time></trkpt><trkpt lat="44.8969827" lon="7.9838056"><ele>205.0</ele><time>2026-05-01T08:35:22.878Z</time></trkpt><trkpt lat="44.8971669" lon="7.9838653"><ele>205.0</ele><time>2026-05-01T08:35:23.878Z</time></trkpt><trkpt lat="44.8973532" lon="7.9839188"><ele>205.0</ele><time>2026-05-01T08:35:24.878Z</time></trkpt><trkpt lat="44.8975306" lon="7.9839844"><ele>205.0</ele><time>2026-05-01T08:35:25.878Z</time></trkpt><trkpt lat="44.897701" lon="7.9840345"><ele>204.0</ele><time>2026-05-01T08:35:26.878Z</time></trkpt><trkpt lat="44.8978603" lon="7.9840731"><ele>203.0</ele><time>2026-05-01T08:35:27.879Z</time></trkpt><trkpt lat="44.898024" lon="7.9840598"><ele>202.0</ele><time>2026-05-01T08:35:28.878Z</time></trkpt><trkpt lat="44.8981814" lon="7.9840419"><ele>202.0</ele><time>2026-05-01T08:35:29.878Z</time></trkpt><trkpt lat="44.8983519" lon="7.9839183"><ele>202.0</ele><time>2026-05-01T08:35:30.878Z</time></trkpt><trkpt lat="44.8985061" lon="7.9837917"><ele>202.0</ele><time>2026-05-01T08:35:31.878Z</time></trkpt><trkpt lat="44.8986473" lon="7.9836436"><ele>199.66666666666666</ele><time>2026-05-01T08:35:32.878Z</time></trkpt><trkpt lat="44.8987652" lon="7.9834282"><ele>197.33333333333331</ele><time>2026-05-01T08:35:33.878Z</time></trkpt><trkpt lat="44.8988753" lon="7.9832037"><ele>195.0</ele><time>2026-05-01T08:35:34.878Z</time></trkpt><trkpt lat="44.8989862" lon="7.982948"><ele>194.66666666666669</ele><time>2026-05-01T08:35:35.878Z</time></trkpt><trkpt lat="44.8991032" lon="7.9826879"><ele>194.33333333333334</ele><time>2026-05-01T08:35:36.879Z</time></trkpt><trkpt lat="44.899214" lon="7.98243"><ele>194.0</ele><time>2026-05-01T08:35:37.878Z</time></trkpt><trkpt lat="44.8993286" lon="7.9821713"><ele>193.0</ele><time>2026-05-01T08:35:38.878Z</time></trkpt><trkpt lat="44.8994438" lon="7.981904"><ele>192.0</ele><time>2026-05-01T08:35:39.878Z</time></trkpt><trkpt lat="44.8995557" lon="7.9816219"><ele>194.0</ele><time>2026-05-01T08:35:40.878Z</time></trkpt><trkpt lat="44.8996587" lon="7.9813539"><ele>196.0</ele><time>2026-05-01T08:35:41.878Z</time></trkpt><trkpt lat="44.8997662" lon="7.9810754"><ele>198.0</ele><time>2026-05-01T08:35:42.878Z</time></trkpt><trkpt lat="44.8998774" lon="7.9808077"><ele>198.66666666666669</ele><time>2026-05-01T08:35:43.878Z</time></trkpt><trkpt lat="44.8999798" lon="7.9805422"><ele>199.33333333333334</ele><time>2026-05-01T08:35:44.878Z</time></trkpt><trkpt lat="44.9000804" lon="7.9802741"><ele>200.0</ele><time>2026-05-01T08:35:45.878Z</time></trkpt><trkpt lat="44.900179" lon="7.9800095"><ele>206.66666666666669</ele><time>2026-05-01T08:35:46.878Z</time></trkpt><trkpt lat="44.9002806" lon="7.9797484"><ele>213.33333333333331</ele><time>2026-05-01T08:35:47.878Z</time></trkpt><trkpt lat="44.9003837" lon="7.979486"><ele>220.0</ele><time>2026-05-01T08:35:48.878Z</time></trkpt><trkpt lat="44.900482" lon="7.9792275"><ele>219.66666666666666</ele><time>2026-05-01T08:35:49.878Z</time></trkpt><trkpt lat="44.9006006" lon="7.9789614"><ele>219.33333333333331</ele><time>2026-05-01T08:35:50.878Z</time></trkpt><trkpt lat="44.9007224" lon="7.9786981"><ele>219.0</ele><time>2026-05-01T08:35:51.878Z</time></trkpt><trkpt lat="44.9008555" lon="7.9784492"><ele>224.0</ele><time>2026-05-01T08:35:52.878Z</time></trkpt><trkpt lat="44.9009877" lon="7.9782247"><ele>229.0</ele><time>2026-05-01T08:35:53.878Z</time></trkpt><trkpt lat="44.9011215" lon="7.9779933"><ele>234.0</ele><time>2026-05-01T08:35:54.878Z</time></trkpt><trkpt lat="44.9012678" lon="7.9777826"><ele>234.0</ele><time>2026-05-01T08:35:55.878Z</time></trkpt><trkpt lat="44.9014091" lon="7.9775577"><ele>234.0</ele><time>2026-05-01T08:35:56.879Z</time></trkpt><trkpt lat="44.9015552" lon="7.9773282"><ele>234.0</ele><time>2026-05-01T08:35:57.878Z</time></trkpt><trkpt lat="44.9016843" lon="7.9770989"><ele>236.0</ele><time>2026-05-01T08:35:58.878Z</time></trkpt><trkpt lat="44.901824" lon="7.9768581"><ele>238.0</ele><time>2026-05-01T08:35:59.878Z</time></trkpt><trkpt lat="44.9019324" lon="7.9766217"><ele>240.0</ele><time>2026-05-01T08:36:00.878Z</time></trkpt><trkpt lat="44.902038" lon="7.976375"><ele>240.0</ele><time>2026-05-01T08:36:01.878Z</time></trkpt><trkpt lat="44.90214" lon="7.9761207"><ele>240.0</ele><time>2026-05-01T08:36:02.878Z</time></trkpt><trkpt lat="44.9022658" lon="7.9758905"><ele>240.0</ele><time>2026-05-01T08:36:03.878Z</time></trkpt><trkpt lat="44.9024072" lon="7.9756705"><ele>241.33333333333331</ele><time>2026-05-01T08:36:04.878Z</time></trkpt><trkpt lat="44.902555" lon="7.9754685"><ele>242.66666666666666</ele><time>2026-05-01T08:36:05.878Z</time></trkpt><trkpt lat="44.902694" lon="7.9752841"><ele>244.0</ele><time>2026-05-01T08:36:06.878Z</time></trkpt><trkpt lat="44.9028205" lon="7.975123"><ele>243.66666666666666</ele><time>2026-05-01T08:36:07.878Z</time></trkpt><trkpt lat="44.9029406" lon="7.97496"><ele>243.33333333333331</ele><time>2026-05-01T08:36:08.878Z</time></trkpt><trkpt lat="44.9030153" lon="7.9747512"><ele>243.0</ele><time>2026-05-01T08:36:09.878Z</time></trkpt><trkpt lat="44.9030812" lon="7.9745432"><ele>243.0</ele><time>2026-05-01T08:36:10.878Z</time></trkpt><trkpt lat="44.9031128" lon="7.9743307"><ele>243.0</ele><time>2026-05-01T08:36:11.878Z</time></trkpt><trkpt lat="44.903099" lon="7.9740971"><ele>243.0</ele><time>2026-05-01T08:36:12.878Z</time></trkpt><trkpt lat="44.9030657" lon="7.9738668"><ele>244.0</ele><time>2026-05-01T08:36:13.878Z</time></trkpt><trkpt lat="44.9029868" lon="7.9736365"><ele>245.0</ele><time>2026-05-01T08:36:14.879Z</time></trkpt><trkpt lat="44.9028907" lon="7.973425"><ele>246.0</ele><time>2026-05-01T08:36:15.879Z</time></trkpt><trkpt lat="44.9027766" lon="7.9732675"><ele>245.0</ele><time>2026-05-01T08:36:16.878Z</time></trkpt><trkpt lat="44.9026656" lon="7.973111"><ele>244.0</ele><time>2026-05-01T08:36:17.878Z</time></trkpt><trkpt lat="44.9025776" lon="7.9729277"><ele>243.0</ele><time>2026-05-01T08:36:18.878Z</time></trkpt><trkpt lat="44.9025138" lon="7.972743"><ele>243.0</ele><time>2026-05-01T08:36:19.878Z</time></trkpt><trkpt lat="44.902474" lon="7.9725605"><ele>243.0</ele><time>2026-05-01T08:36:20.879Z</time></trkpt><trkpt lat="44.9024637" lon="7.9723618"><ele>243.0</ele><time>2026-05-01T08:36:21.878Z</time></trkpt><trkpt lat="44.9024783" lon="7.9721515"><ele>243.0</ele><time>2026-05-01T08:36:22.879Z</time></trkpt><trkpt lat="44.9025122" lon="7.971953"><ele>245.33333333333331</ele><time>2026-05-01T08:36:23.878Z</time></trkpt><trkpt lat="44.9025811" lon="7.9717522"><ele>247.66666666666666</ele><time>2026-05-01T08:36:24.878Z</time></trkpt><trkpt lat="44.9026524" lon="7.9715528"><ele>250.0</ele><time>2026-05-01T08:36:25.878Z</time></trkpt><trkpt lat="44.9027449" lon="7.9713588"><ele>255.0</ele><time>2026-05-01T08:36:26.878Z</time></trkpt><trkpt lat="44.902828" lon="7.9711611"><ele>260.0</ele><time>2026-05-01T08:36:27.878Z</time></trkpt><trkpt lat="44.9029011" lon="7.9709586"><ele>265.0</ele><time>2026-05-01T08:36:28.878Z</time></trkpt><trkpt lat="44.9029879" lon="7.9707731"><ele>265.0</ele><time>2026-05-01T08:36:29.878Z</time></trkpt><trkpt lat="44.9030721" lon="7.9706068"><ele>265.0</ele><time>2026-05-01T08:36:30.878Z</time></trkpt><trkpt lat="44.9031548" lon="7.9704269"><ele>265.0</ele><time>2026-05-01T08:36:31.878Z</time></trkpt><trkpt lat="44.9032319" lon="7.9702651"><ele>265.0</ele><time>2026-05-01T08:36:32.878Z</time></trkpt><trkpt lat="44.9032979" lon="7.9701089"><ele>264.75</ele><time>2026-05-01T08:36:33.878Z</time></trkpt><trkpt lat="44.9033506" lon="7.9699761"><ele>264.5</ele><time>2026-05-01T08:36:34.878Z</time></trkpt><trkpt lat="44.9033904" lon="7.9698277"><ele>264.25</ele><time>2026-05-01T08:36:35.878Z</time></trkpt><trkpt lat="44.9034122" lon="7.9696712"><ele>264.0</ele><time>2026-05-01T08:36:36.878Z</time></trkpt><trkpt lat="44.903423" lon="7.9694747"><ele>264.75</ele><time>2026-05-01T08:36:37.878Z</time></trkpt><trkpt lat="44.903422" lon="7.9692758"><ele>265.5</ele><time>2026-05-01T08:36:38.878Z</time></trkpt><trkpt lat="44.9034208" lon="7.9690971"><ele>266.25</ele><time>2026-05-01T08:36:39.878Z</time></trkpt><trkpt lat="44.9033999" lon="7.9689264"><ele>267.0</ele><time>2026-05-01T08:36:40.878Z</time></trkpt><trkpt lat="44.9033593" lon="7.9687531"><ele>267.0</ele><time>2026-05-01T08:36:41.878Z</time></trkpt><trkpt lat="44.9033006" lon="7.968598"><ele>267.0</ele><time>2026-05-01T08:36:42.878Z</time></trkpt><trkpt lat="44.9032193" lon="7.9684587"><ele>267.0</ele><time>2026-05-01T08:36:43.878Z</time></trkpt><trkpt lat="44.9031264" lon="7.9683363"><ele>267.0</ele><time>2026-05-01T08:36:44.878Z</time></trkpt><trkpt lat="44.9030243" lon="7.9682263"><ele>268.3333333333333</ele><time>2026-05-01T08:36:45.878Z</time></trkpt><trkpt lat="44.9029601" lon="7.9681024"><ele>269.6666666666667</ele><time>2026-05-01T08:36:46.878Z</time></trkpt><trkpt lat="44.9029059" lon="7.9679777"><ele>271.0</ele><time>2026-05-01T08:36:47.878Z</time></trkpt><trkpt lat="44.9028787" lon="7.9678595"><ele>272.33333333333337</ele><time>2026-05-01T08:36:48.878Z</time></trkpt><trkpt lat="44.9028989" lon="7.9677665"><ele>273.6666666666667</ele><time>2026-05-01T08:36:49.878Z</time></trkpt><trkpt lat="44.9029115" lon="7.9676781"><ele>275.0</ele><time>2026-05-01T08:36:50.878Z</time></trkpt><trkpt lat="44.9029576" lon="7.9676163"><ele>275.33333333333337</ele><time>2026-05-01T08:36:51.878Z</time></trkpt><trkpt lat="44.9030082" lon="7.9674997"><ele>275.6666666666667</ele><time>2026-05-01T08:36:53.878Z</time></trkpt><trkpt lat="44.9029922" lon="7.9673753"><ele>276.0</ele><time>2026-05-01T08:36:55.878Z</time></trkpt><trkpt lat="44.9029474" lon="7.9673075"><ele>276.3333333333333</ele><time>2026-05-01T08:36:56.878Z</time></trkpt><trkpt lat="44.9028936" lon="7.9672532"><ele>276.66666666666663</ele><time>2026-05-01T08:36:57.878Z</time></trkpt><trkpt lat="44.9028313" lon="7.9671778"><ele>277.0</ele><time>2026-05-01T08:36:58.878Z</time></trkpt><trkpt lat="44.9027304" lon="7.9671155"><ele>277.0</ele><time>2026-05-01T08:36:59.878Z</time></trkpt><trkpt lat="44.902643" lon="7.9670364"><ele>277.0</ele><time>2026-05-01T08:37:00.878Z</time></trkpt><trkpt lat="44.9025354" lon="7.9669428"><ele>277.0</ele><time>2026-05-01T08:37:01.878Z</time></trkpt><trkpt lat="44.9024037" lon="7.9668382"><ele>277.0</ele><time>2026-05-01T08:37:02.879Z</time></trkpt><trkpt lat="44.9023009" lon="7.96673"><ele>277.0</ele><time>2026-05-01T08:37:03.878Z</time></trkpt><trkpt lat="44.9021904" lon="7.966622"><ele>277.0</ele><time>2026-05-01T08:37:04.878Z</time></trkpt><trkpt lat="44.902068" lon="7.9665187"><ele>277.0</ele><time>2026-05-01T08:37:05.878Z</time></trkpt><trkpt lat="44.9019412" lon="7.9664133"><ele>277.0</ele><time>2026-05-01T08:37:06.878Z</time></trkpt><trkpt lat="44.901804" lon="7.9662983"><ele>277.0</ele><time>2026-05-01T08:37:07.878Z</time></trkpt><trkpt lat="44.9016702" lon="7.9661777"><ele>277.0</ele><time>2026-05-01T08:37:08.878Z</time></trkpt><trkpt lat="44.901543" lon="7.9660485"><ele>277.0</ele><time>2026-05-01T08:37:09.878Z</time></trkpt><trkpt lat="44.9014107" lon="7.9659312"><ele>277.0</ele><time>2026-05-01T08:37:10.879Z</time></trkpt><trkpt lat="44.9012833" lon="7.9658363"><ele>277.0</ele><time>2026-05-01T08:37:11.878Z</time></trkpt><trkpt lat="44.9011547" lon="7.9657074"><ele>277.0</ele><time>2026-05-01T08:37:12.878Z</time></trkpt><trkpt lat="44.9010104" lon="7.9655949"><ele>276.66666666666663</ele><time>2026-05-01T08:37:13.878Z</time></trkpt><trkpt lat="44.9008815" lon="7.965475"><ele>276.3333333333333</ele><time>2026-05-01T08:37:14.879Z</time></trkpt><trkpt lat="44.9007389" lon="7.9653587"><ele>276.0</ele><time>2026-05-01T08:37:15.878Z</time></trkpt><trkpt lat="44.9006109" lon="7.9652518"><ele>276.0</ele><time>2026-05-01T08:37:16.878Z</time></trkpt><trkpt lat="44.9004994" lon="7.9651423"><ele>276.0</ele><time>2026-05-01T08:37:17.878Z</time></trkpt><trkpt lat="44.9003748" lon="7.9650482"><ele>276.0</ele><time>2026-05-01T08:37:18.878Z</time></trkpt><trkpt lat="44.9002625" lon="7.9649389"><ele>276.0</ele><time>2026-05-01T08:37:19.878Z</time></trkpt><trkpt lat="44.9001559" lon="7.9648459"><ele>276.6</ele><time>2026-05-01T08:37:20.878Z</time></trkpt><trkpt lat="44.9000498" lon="7.9647689"><ele>277.20000000000005</ele><time>2026-05-01T08:37:21.878Z</time></trkpt><trkpt lat="44.8999512" lon="7.9647158"><ele>277.79999999999995</ele><time>2026-05-01T08:37:22.878Z</time></trkpt><trkpt lat="44.8998493" lon="7.9646691"><ele>278.4</ele><time>2026-05-01T08:37:23.878Z</time></trkpt><trkpt lat="44.8997531" lon="7.9646364"><ele>279.0</ele><time>2026-05-01T08:37:24.878Z</time></trkpt><trkpt lat="44.899669" lon="7.9646004"><ele>279.0</ele><time>2026-05-01T08:37:25.878Z</time></trkpt><trkpt lat="44.8995817" lon="7.9645598"><ele>279.0</ele><time>2026-05-01T08:37:26.878Z</time></trkpt><trkpt lat="44.8994978" lon="7.9645273"><ele>279.0</ele><time>2026-05-01T08:37:27.879Z</time></trkpt><trkpt lat="44.899406" lon="7.9644937"><ele>279.0</ele><time>2026-05-01T08:37:28.878Z</time></trkpt><trkpt lat="44.899323" lon="7.9644463"><ele>279.0</ele><time>2026-05-01T08:37:29.878Z</time></trkpt><trkpt lat="44.8992414" lon="7.9644045"><ele>279.0</ele><time>2026-05-01T08:37:30.878Z</time></trkpt><trkpt lat="44.8991634" lon="7.9643526"><ele>279.0</ele><time>2026-05-01T08:37:31.878Z</time></trkpt><trkpt lat="44.8990883" lon="7.9642851"><ele>279.0</ele><time>2026-05-01T08:37:32.878Z</time></trkpt><trkpt lat="44.8990182" lon="7.9642429"><ele>279.0</ele><time>2026-05-01T08:37:33.878Z</time></trkpt><trkpt lat="44.8988935" lon="7.9641856"><ele>279.0</ele><time>2026-05-01T08:37:35.878Z</time></trkpt><trkpt lat="44.8988335" lon="7.9641523"><ele>279.0</ele><time>2026-05-01T08:37:36.878Z</time></trkpt><trkpt lat="44.8987472" lon="7.9640921"><ele>278.8</ele><time>2026-05-01T08:37:38.878Z</time></trkpt><trkpt lat="44.8986725" lon="7.9640324"><ele>278.59999999999997</ele><time>2026-05-01T08:37:40.878Z</time></trkpt><trkpt lat="44.8985625" lon="7.9639806"><ele>278.4</ele><time>2026-05-01T08:37:42.879Z</time></trkpt><trkpt lat="44.8984998" lon="7.9639377"><ele>278.2</ele><time>2026-05-01T08:37:43.878Z</time></trkpt><trkpt lat="44.8984096" lon="7.9638798"><ele>278.0</ele><time>2026-05-01T08:37:44.878Z</time></trkpt><trkpt lat="44.898325" lon="7.9638116"><ele>278.0</ele><time>2026-05-01T08:37:45.878Z</time></trkpt><trkpt lat="44.8982457" lon="7.9637504"><ele>278.0</ele><time>2026-05-01T08:37:46.878Z</time></trkpt><trkpt lat="44.8981611" lon="7.9636764"><ele>278.0</ele><time>2026-05-01T08:37:47.878Z</time></trkpt><trkpt lat="44.8980746" lon="7.9636151"><ele>278.0</ele><time>2026-05-01T08:37:48.878Z</time></trkpt><trkpt lat="44.8979929" lon="7.963564"><ele>278.0</ele><time>2026-05-01T08:37:49.878Z</time></trkpt><trkpt lat="44.8979021" lon="7.9634952"><ele>278.0</ele><time>2026-05-01T08:37:51.878Z</time></trkpt><trkpt lat="44.8978063" lon="7.9634379"><ele>278.0</ele><time>2026-05-01T08:37:53.878Z</time></trkpt><trkpt lat="44.8978041" lon="7.9633435"><ele>278.0</ele><time>2026-05-01T08:37:55.878Z</time></trkpt><trkpt lat="44.8977603" lon="7.9632351"><ele>278.0</ele><time>2026-05-01T08:37:57.878Z</time></trkpt><trkpt lat="44.8976821" lon="7.9631152"><ele>278.0</ele><time>2026-05-01T08:37:59.878Z</time></trkpt><trkpt lat="44.8976212" lon="7.9630875"><ele>278.0</ele><time>2026-05-01T08:38:00.878Z</time></trkpt><trkpt lat="44.8975345" lon="7.9630702"><ele>278.0</ele><time>2026-05-01T08:38:01.878Z</time></trkpt><trkpt lat="44.8974349" lon="7.9630754"><ele>278.0</ele><time>2026-05-01T08:38:02.878Z</time></trkpt><trkpt lat="44.8973694" lon="7.9630754"><ele>278.0</ele><time>2026-05-01T08:38:03.879Z</time></trkpt><trkpt lat="44.8973044" lon="7.963071"><ele>278.0</ele><time>2026-05-01T08:38:04.878Z</time></trkpt><trkpt lat="44.8972494" lon="7.9629482"><ele>278.0</ele><time>2026-05-01T08:38:06.878Z</time></trkpt><trkpt lat="44.8972161" lon="7.9627561"><ele>278.0</ele><time>2026-05-01T08:38:08.878Z</time></trkpt><trkpt lat="44.8972005" lon="7.9626216"><ele>278.0</ele><time>2026-05-01T08:38:09.878Z</time></trkpt><trkpt lat="44.897194" lon="7.9624788"><ele>278.0</ele><time>2026-05-01T08:38:10.878Z</time></trkpt><trkpt lat="44.8971823" lon="7.9623357"><ele>278.0</ele><time>2026-05-01T08:38:11.878Z</time></trkpt><trkpt lat="44.8971753" lon="7.9621768"><ele>278.0</ele><time>2026-05-01T08:38:12.878Z</time></trkpt><trkpt lat="44.8971651" lon="7.962012"><ele>277.0</ele><time>2026-05-01T08:38:13.878Z</time></trkpt><trkpt lat="44.8971533" lon="7.9618472"><ele>276.0</ele><time>2026-05-01T08:38:14.878Z</time></trkpt><trkpt lat="44.8971466" lon="7.9617206"><ele>275.0</ele><time>2026-05-01T08:38:15.878Z</time></trkpt><trkpt lat="44.8971195" lon="7.9615554"><ele>274.0</ele><time>2026-05-01T08:38:16.879Z</time></trkpt><trkpt lat="44.8971083" lon="7.9614111"><ele>273.0</ele><time>2026-05-01T08:38:17.878Z</time></trkpt><trkpt lat="44.8970902" lon="7.9612573"><ele>273.0</ele><time>2026-05-01T08:38:18.878Z</time></trkpt><trkpt lat="44.8970656" lon="7.9610987"><ele>273.0</ele><time>2026-05-01T08:38:19.878Z</time></trkpt><trkpt lat="44.8970481" lon="7.9609486"><ele>273.0</ele><time>2026-05-01T08:38:20.878Z</time></trkpt><trkpt lat="44.8970268" lon="7.9608048"><ele>273.0</ele><time>2026-05-01T08:38:21.879Z</time></trkpt><trkpt lat="44.8970121" lon="7.9606718"><ele>273.0</ele><time>2026-05-01T08:38:22.878Z</time></trkpt><trkpt lat="44.8969813" lon="7.9605241"><ele>273.0</ele><time>2026-05-01T08:38:23.878Z</time></trkpt><trkpt lat="44.8969731" lon="7.9604044"><ele>273.0</ele><time>2026-05-01T08:38:24.878Z</time></trkpt><trkpt lat="44.8969497" lon="7.9602855"><ele>273.0</ele><time>2026-05-01T08:38:25.878Z</time></trkpt><trkpt lat="44.8969283" lon="7.9601514"><ele>273.0</ele><time>2026-05-01T08:38:27.878Z</time></trkpt><trkpt lat="44.8968954" lon="7.9600572"><ele>273.0</ele><time>2026-05-01T08:38:30.878Z</time></trkpt><trkpt lat="44.8968475" lon="7.9599324"><ele>273.0</ele><time>2026-05-01T08:38:32.878Z</time></trkpt><trkpt lat="44.8968191" lon="7.9598499"><ele>273.6</ele><time>2026-05-01T08:38:33.878Z</time></trkpt><trkpt lat="44.8967738" lon="7.9597511"><ele>274.20000000000005</ele><time>2026-05-01T08:38:34.878Z</time></trkpt><trkpt lat="44.8967202" lon="7.9596229"><ele>274.8</ele><time>2026-05-01T08:38:35.879Z</time></trkpt><trkpt lat="44.8966608" lon="7.9594792"><ele>275.40000000000003</ele><time>2026-05-01T08:38:36.878Z</time></trkpt><trkpt lat="44.8965923" lon="7.9593312"><ele>276.0</ele><time>2026-05-01T08:38:37.879Z</time></trkpt><trkpt lat="44.8965205" lon="7.9591897"><ele>276.0</ele><time>2026-05-01T08:38:38.878Z</time></trkpt><trkpt lat="44.8964359" lon="7.9590411"><ele>276.0</ele><time>2026-05-01T08:38:39.878Z</time></trkpt><trkpt lat="44.8963471" lon="7.9588877"><ele>276.0</ele><time>2026-05-01T08:38:40.878Z</time></trkpt><trkpt lat="44.8962586" lon="7.9587442"><ele>276.0</ele><time>2026-05-01T08:38:41.879Z</time></trkpt><trkpt lat="44.8961694" lon="7.9586059"><ele>276.0</ele><time>2026-05-01T08:38:42.878Z</time></trkpt><trkpt lat="44.8960994" lon="7.9584538"><ele>276.0</ele><time>2026-05-01T08:38:43.878Z</time></trkpt><trkpt lat="44.8960273" lon="7.9582982"><ele>276.0</ele><time>2026-05-01T08:38:44.878Z</time></trkpt><trkpt lat="44.8959523" lon="7.9581698"><ele>276.0</ele><time>2026-05-01T08:38:45.878Z</time></trkpt><trkpt lat="44.8958531" lon="7.958046"><ele>276.5</ele><time>2026-05-01T08:38:46.878Z</time></trkpt><trkpt lat="44.8957383" lon="7.9579335"><ele>277.0</ele><time>2026-05-01T08:38:47.878Z</time></trkpt><trkpt lat="44.8956178" lon="7.9578025"><ele>277.5</ele><time>2026-05-01T08:38:48.879Z</time></trkpt><trkpt lat="44.8954976" lon="7.9576635"><ele>278.0</ele><time>2026-05-01T08:38:49.878Z</time></trkpt><trkpt lat="44.8953884" lon="7.9575271"><ele>278.0</ele><time>2026-05-01T08:38:50.878Z</time></trkpt><trkpt lat="44.8952875" lon="7.9573659"><ele>278.0</ele><time>2026-05-01T08:38:51.878Z</time></trkpt><trkpt lat="44.8951821" lon="7.9572068"><ele>278.0</ele><time>2026-05-01T08:38:52.878Z</time></trkpt><trkpt lat="44.8950909" lon="7.957042"><ele>278.33333333333337</ele><time>2026-05-01T08:38:53.878Z</time></trkpt><trkpt lat="44.8950086" lon="7.9568393"><ele>278.6666666666667</ele><time>2026-05-01T08:38:54.878Z</time></trkpt><trkpt lat="44.8949185" lon="7.9566294"><ele>279.0</ele><time>2026-05-01T08:38:55.878Z</time></trkpt><trkpt lat="44.8948105" lon="7.9563993"><ele>278.6666666666667</ele><time>2026-05-01T08:38:56.879Z</time></trkpt><trkpt lat="44.8947041" lon="7.9561759"><ele>278.33333333333337</ele><time>2026-05-01T08:38:57.878Z</time></trkpt><trkpt lat="44.8945965" lon="7.9559464"><ele>278.0</ele><time>2026-05-01T08:38:58.878Z</time></trkpt><trkpt lat="44.8944932" lon="7.9557123"><ele>278.0</ele><time>2026-05-01T08:38:59.878Z</time></trkpt><trkpt lat="44.8943789" lon="7.9554747"><ele>278.0</ele><time>2026-05-01T08:39:00.878Z</time></trkpt><trkpt lat="44.8942601" lon="7.955237"><ele>278.0</ele><time>2026-05-01T08:39:01.878Z</time></trkpt><trkpt lat="44.8941422" lon="7.9550043"><ele>277.6666666666667</ele><time>2026-05-01T08:39:02.878Z</time></trkpt><trkpt lat="44.8940291" lon="7.9547592"><ele>277.3333333333333</ele><time>2026-05-01T08:39:03.878Z</time></trkpt><trkpt lat="44.8939143" lon="7.9545215"><ele>277.0</ele><time>2026-05-01T08:39:04.878Z</time></trkpt><trkpt lat="44.8938027" lon="7.9542849"><ele>276.0</ele><time>2026-05-01T08:39:05.878Z</time></trkpt><trkpt lat="44.8936894" lon="7.9540358"><ele>275.0</ele><time>2026-05-01T08:39:06.879Z</time></trkpt><trkpt lat="44.8935787" lon="7.9537939"><ele>274.0</ele><time>2026-05-01T08:39:07.878Z</time></trkpt><trkpt lat="44.8934706" lon="7.953551"><ele>273.3333333333333</ele><time>2026-05-01T08:39:08.878Z</time></trkpt><trkpt lat="44.8933721" lon="7.9533178"><ele>272.6666666666667</ele><time>2026-05-01T08:39:09.878Z</time></trkpt><trkpt lat="44.893274" lon="7.9530904"><ele>272.0</ele><time>2026-05-01T08:39:10.878Z</time></trkpt><trkpt lat="44.8931669" lon="7.9528759"><ele>272.0</ele><time>2026-05-01T08:39:11.878Z</time></trkpt><trkpt lat="44.8930344" lon="7.9526845"><ele>272.0</ele><time>2026-05-01T08:39:12.878Z</time></trkpt><trkpt lat="44.8928856" lon="7.9525017"><ele>272.0</ele><time>2026-05-01T08:39:13.878Z</time></trkpt><trkpt lat="44.8927233" lon="7.9523266"><ele>272.33333333333337</ele><time>2026-05-01T08:39:14.878Z</time></trkpt><trkpt lat="44.8925603" lon="7.9521465"><ele>272.6666666666667</ele><time>2026-05-01T08:39:15.878Z</time></trkpt><trkpt lat="44.8923898" lon="7.9519622"><ele>273.0</ele><time>2026-05-01T08:39:16.878Z</time></trkpt><trkpt lat="44.8922149" lon="7.9517809"><ele>274.0</ele><time>2026-05-01T08:39:17.878Z</time></trkpt><trkpt lat="44.8920374" lon="7.9516062"><ele>275.0</ele><time>2026-05-01T08:39:18.878Z</time></trkpt><trkpt lat="44.8918584" lon="7.9514249"><ele>276.0</ele><time>2026-05-01T08:39:19.878Z</time></trkpt><trkpt lat="44.8916842" lon="7.9512315"><ele>277.0</ele><time>2026-05-01T08:39:20.878Z</time></trkpt><trkpt lat="44.8915141" lon="7.9510527"><ele>278.0</ele><time>2026-05-01T08:39:21.879Z</time></trkpt><trkpt lat="44.8913353" lon="7.9508579"><ele>279.0</ele><time>2026-05-01T08:39:22.878Z</time></trkpt><trkpt lat="44.8911639" lon="7.9506642"><ele>279.6666666666667</ele><time>2026-05-01T08:39:23.878Z</time></trkpt><trkpt lat="44.890994" lon="7.9504749"><ele>280.33333333333337</ele><time>2026-05-01T08:39:24.878Z</time></trkpt><trkpt lat="44.8908328" lon="7.9502819"><ele>281.0</ele><time>2026-05-01T08:39:25.878Z</time></trkpt><trkpt lat="44.8906884" lon="7.9500834"><ele>281.33333333333337</ele><time>2026-05-01T08:39:26.878Z</time></trkpt><trkpt lat="44.8905528" lon="7.9498756"><ele>281.6666666666667</ele><time>2026-05-01T08:39:27.878Z</time></trkpt><trkpt lat="44.8904454" lon="7.9496637"><ele>282.0</ele><time>2026-05-01T08:39:28.878Z</time></trkpt><trkpt lat="44.8903389" lon="7.9494399"><ele>282.3333333333333</ele><time>2026-05-01T08:39:29.878Z</time></trkpt><trkpt lat="44.8902626" lon="7.9492021"><ele>282.66666666666663</ele><time>2026-05-01T08:39:30.878Z</time></trkpt><trkpt lat="44.8901895" lon="7.9489605"><ele>283.0</ele><time>2026-05-01T08:39:31.878Z</time></trkpt><trkpt lat="44.8901208" lon="7.9487196"><ele>283.0</ele><time>2026-05-01T08:39:32.878Z</time></trkpt><trkpt lat="44.8900448" lon="7.9485023"><ele>283.0</ele><time>2026-05-01T08:39:33.878Z</time></trkpt><trkpt lat="44.8899412" lon="7.9483069"><ele>283.0</ele><time>2026-05-01T08:39:34.878Z</time></trkpt><trkpt lat="44.8898252" lon="7.9481452"><ele>282.0</ele><time>2026-05-01T08:39:35.878Z</time></trkpt><trkpt lat="44.8896947" lon="7.9480081"><ele>281.0</ele><time>2026-05-01T08:39:36.878Z</time></trkpt><trkpt lat="44.8895626" lon="7.9479068"><ele>280.0</ele><time>2026-05-01T08:39:37.879Z</time></trkpt><trkpt lat="44.8894242" lon="7.9478583"><ele>280.0</ele><time>2026-05-01T08:39:38.878Z</time></trkpt><trkpt lat="44.8892805" lon="7.947854"><ele>280.0</ele><time>2026-05-01T08:39:39.878Z</time></trkpt><trkpt lat="44.88913" lon="7.9479105"><ele>280.0</ele><time>2026-05-01T08:39:40.879Z</time></trkpt><trkpt lat="44.889002" lon="7.9479848"><ele>280.0</ele><time>2026-05-01T08:39:41.878Z</time></trkpt><trkpt lat="44.8889026" lon="7.9481077"><ele>280.75</ele><time>2026-05-01T08:39:42.878Z</time></trkpt><trkpt lat="44.8888046" lon="7.9482556"><ele>281.5</ele><time>2026-05-01T08:39:43.878Z</time></trkpt><trkpt lat="44.8887211" lon="7.9484105"><ele>282.25</ele><time>2026-05-01T08:39:44.878Z</time></trkpt><trkpt lat="44.8886315" lon="7.9485836"><ele>283.0</ele><time>2026-05-01T08:39:45.879Z</time></trkpt><trkpt lat="44.8885386" lon="7.9487423"><ele>283.3333333333333</ele><time>2026-05-01T08:39:46.878Z</time></trkpt><trkpt lat="44.8884433" lon="7.9488999"><ele>283.6666666666667</ele><time>2026-05-01T08:39:47.878Z</time></trkpt><trkpt lat="44.8883434" lon="7.9490677"><ele>284.0</ele><time>2026-05-01T08:39:48.878Z</time></trkpt><trkpt lat="44.8882438" lon="7.949227"><ele>284.25</ele><time>2026-05-01T08:39:49.878Z</time></trkpt><trkpt lat="44.888131" lon="7.9493737"><ele>284.5</ele><time>2026-05-01T08:39:50.878Z</time></trkpt><trkpt lat="44.8880258" lon="7.9494877"><ele>284.75</ele><time>2026-05-01T08:39:51.878Z</time></trkpt><trkpt lat="44.8879161" lon="7.94958"><ele>285.0</ele><time>2026-05-01T08:39:52.878Z</time></trkpt><trkpt lat="44.8878012" lon="7.9496648"><ele>285.0</ele><time>2026-05-01T08:39:53.878Z</time></trkpt><trkpt lat="44.8876936" lon="7.9497438"><ele>285.0</ele><time>2026-05-01T08:39:54.878Z</time></trkpt><trkpt lat="44.8875911" lon="7.9497988"><ele>285.0</ele><time>2026-05-01T08:39:55.878Z</time></trkpt><trkpt lat="44.8874721" lon="7.9498179"><ele>285.0</ele><time>2026-05-01T08:39:56.878Z</time></trkpt><trkpt lat="44.887355" lon="7.9498007"><ele>284.3333333333333</ele><time>2026-05-01T08:39:57.879Z</time></trkpt><trkpt lat="44.88724" lon="7.9497042"><ele>283.66666666666663</ele><time>2026-05-01T08:39:58.879Z</time></trkpt><trkpt lat="44.8871154" lon="7.9495723"><ele>283.0</ele><time>2026-05-01T08:39:59.878Z</time></trkpt><trkpt lat="44.8869829" lon="7.9494274"><ele>283.0</ele><time>2026-05-01T08:40:00.878Z</time></trkpt><trkpt lat="44.886847" lon="7.9492672"><ele>283.0</ele><time>2026-05-01T08:40:01.879Z</time></trkpt><trkpt lat="44.8867017" lon="7.9491015"><ele>283.0</ele><time>2026-05-01T08:40:02.879Z</time></trkpt><trkpt lat="44.8865565" lon="7.9489419"><ele>280.3333333333333</ele><time>2026-05-01T08:40:03.878Z</time></trkpt><trkpt lat="44.8864044" lon="7.9487782"><ele>277.6666666666667</ele><time>2026-05-01T08:40:04.878Z</time></trkpt><trkpt lat="44.8862631" lon="7.9486225"><ele>275.0</ele><time>2026-05-01T08:40:05.878Z</time></trkpt><trkpt lat="44.886128" lon="7.94847"><ele>274.25</ele><time>2026-05-01T08:40:06.878Z</time></trkpt><trkpt lat="44.8860032" lon="7.9483407"><ele>273.5</ele><time>2026-05-01T08:40:07.878Z</time></trkpt><trkpt lat="44.8858817" lon="7.9482225"><ele>272.75</ele><time>2026-05-01T08:40:08.878Z</time></trkpt><trkpt lat="44.8857626" lon="7.9481383"><ele>272.0</ele><time>2026-05-01T08:40:09.878Z</time></trkpt><trkpt lat="44.8856242" lon="7.9480843"><ele>272.0</ele><time>2026-05-01T08:40:10.878Z</time></trkpt><trkpt lat="44.8854702" lon="7.9480743"><ele>272.0</ele><time>2026-05-01T08:40:11.878Z</time></trkpt><trkpt lat="44.8852973" lon="7.9480947"><ele>272.0</ele><time>2026-05-01T08:40:12.878Z</time></trkpt><trkpt lat="44.8851256" lon="7.9481208"><ele>273.0</ele><time>2026-05-01T08:40:13.878Z</time></trkpt><trkpt lat="44.8849428" lon="7.9481653"><ele>274.0</ele><time>2026-05-01T08:40:14.878Z</time></trkpt><trkpt lat="44.8847662" lon="7.9482193"><ele>275.0</ele><time>2026-05-01T08:40:15.878Z</time></trkpt><trkpt lat="44.8845943" lon="7.9483036"><ele>274.6666666666667</ele><time>2026-05-01T08:40:16.878Z</time></trkpt><trkpt lat="44.8844241" lon="7.948431"><ele>274.3333333333333</ele><time>2026-05-01T08:40:17.878Z</time></trkpt><trkpt lat="44.8842697" lon="7.9485711"><ele>274.0</ele><time>2026-05-01T08:40:18.878Z</time></trkpt><trkpt lat="44.8841275" lon="7.9487043"><ele>274.0</ele><time>2026-05-01T08:40:19.878Z</time></trkpt><trkpt lat="44.8839988" lon="7.9488268"><ele>274.0</ele><time>2026-05-01T08:40:20.878Z</time></trkpt><trkpt lat="44.8838798" lon="7.9489303"><ele>274.0</ele><time>2026-05-01T08:40:21.878Z</time></trkpt><trkpt lat="44.8837582" lon="7.9490037"><ele>274.0</ele><time>2026-05-01T08:40:22.878Z</time></trkpt><trkpt lat="44.883638" lon="7.9490273"><ele>274.0</ele><time>2026-05-01T08:40:23.878Z</time></trkpt><trkpt lat="44.8835344" lon="7.9489769"><ele>274.0</ele><time>2026-05-01T08:40:24.878Z</time></trkpt><trkpt lat="44.8834542" lon="7.9488714"><ele>274.0</ele><time>2026-05-01T08:40:25.878Z</time></trkpt><trkpt lat="44.8833889" lon="7.9487312"><ele>274.0</ele><time>2026-05-01T08:40:26.878Z</time></trkpt><trkpt lat="44.8833804" lon="7.9484876"><ele>276.66666666666663</ele><time>2026-05-01T08:40:27.878Z</time></trkpt><trkpt lat="44.8833664" lon="7.9482551"><ele>279.3333333333333</ele><time>2026-05-01T08:40:28.878Z</time></trkpt><trkpt lat="44.8833621" lon="7.9480035"><ele>282.0</ele><time>2026-05-01T08:40:29.878Z</time></trkpt><trkpt lat="44.8833519" lon="7.9477746"><ele>282.0</ele><time>2026-05-01T08:40:30.878Z</time></trkpt><trkpt lat="44.8833409" lon="7.9475524"><ele>282.0</ele><time>2026-05-01T08:40:31.879Z</time></trkpt><trkpt lat="44.8833177" lon="7.9473303"><ele>282.0</ele><time>2026-05-01T08:40:32.878Z</time></trkpt><trkpt lat="44.8832866" lon="7.9471162"><ele>282.6666666666667</ele><time>2026-05-01T08:40:33.878Z</time></trkpt><trkpt lat="44.8832304" lon="7.9469151"><ele>283.33333333333337</ele><time>2026-05-01T08:40:34.878Z</time></trkpt><trkpt lat="44.8831544" lon="7.9467244"><ele>284.0</ele><time>2026-05-01T08:40:35.878Z</time></trkpt><trkpt lat="44.8830597" lon="7.9465572"><ele>285.0</ele><time>2026-05-01T08:40:36.878Z</time></trkpt><trkpt lat="44.88293" lon="7.9464193"><ele>286.0</ele><time>2026-05-01T08:40:37.878Z</time></trkpt><trkpt lat="44.8827853" lon="7.9463078"><ele>287.0</ele><time>2026-05-01T08:40:38.878Z</time></trkpt><trkpt lat="44.882625" lon="7.9462092"><ele>286.6666666666667</ele><time>2026-05-01T08:40:39.878Z</time></trkpt><trkpt lat="44.8824552" lon="7.9461093"><ele>286.3333333333333</ele><time>2026-05-01T08:40:40.878Z</time></trkpt><trkpt lat="44.8822857" lon="7.9460045"><ele>286.0</ele><time>2026-05-01T08:40:41.878Z</time></trkpt><trkpt lat="44.8821114" lon="7.9459082"><ele>287.3333333333333</ele><time>2026-05-01T08:40:42.878Z</time></trkpt><trkpt lat="44.8819388" lon="7.9458128"><ele>288.6666666666667</ele><time>2026-05-01T08:40:43.878Z</time></trkpt><trkpt lat="44.8817692" lon="7.9457193"><ele>290.0</ele><time>2026-05-01T08:40:44.878Z</time></trkpt><trkpt lat="44.8816016" lon="7.9456303"><ele>290.33333333333337</ele><time>2026-05-01T08:40:45.878Z</time></trkpt><trkpt lat="44.8814357" lon="7.945539"><ele>290.6666666666667</ele><time>2026-05-01T08:40:46.878Z</time></trkpt><trkpt lat="44.881274" lon="7.9454466"><ele>291.0</ele><time>2026-05-01T08:40:47.878Z</time></trkpt><trkpt lat="44.8811196" lon="7.9453205"><ele>291.0</ele><time>2026-05-01T08:40:48.878Z</time></trkpt><trkpt lat="44.8809863" lon="7.945162"><ele>291.0</ele><time>2026-05-01T08:40:49.878Z</time></trkpt><trkpt lat="44.8808628" lon="7.9449818"><ele>291.0</ele><time>2026-05-01T08:40:50.878Z</time></trkpt><trkpt lat="44.8807406" lon="7.9447972"><ele>291.6666666666667</ele><time>2026-05-01T08:40:51.879Z</time></trkpt><trkpt lat="44.8806117" lon="7.9446243"><ele>292.33333333333337</ele><time>2026-05-01T08:40:52.878Z</time></trkpt><trkpt lat="44.8804684" lon="7.944469"><ele>293.0</ele><time>2026-05-01T08:40:53.878Z</time></trkpt><trkpt lat="44.8803249" lon="7.9443362"><ele>293.0</ele><time>2026-05-01T08:40:54.878Z</time></trkpt><trkpt lat="44.8801668" lon="7.9442392"><ele>293.0</ele><time>2026-05-01T08:40:55.879Z</time></trkpt><trkpt lat="44.8799846" lon="7.9441648"><ele>293.0</ele><time>2026-05-01T08:40:56.878Z</time></trkpt><trkpt lat="44.8798017" lon="7.9440969"><ele>293.0</ele><time>2026-05-01T08:40:57.878Z</time></trkpt><trkpt lat="44.8796173" lon="7.944019"><ele>293.0</ele><time>2026-05-01T08:40:58.879Z</time></trkpt><trkpt lat="44.879427" lon="7.9439511"><ele>293.0</ele><time>2026-05-01T08:40:59.878Z</time></trkpt><trkpt lat="44.8792402" lon="7.9439133"><ele>293.0</ele><time>2026-05-01T08:41:00.879Z</time></trkpt><trkpt lat="44.879052" lon="7.9439232"><ele>293.0</ele><time>2026-05-01T08:41:01.879Z</time></trkpt><trkpt lat="44.8788631" lon="7.9439795"><ele>293.0</ele><time>2026-05-01T08:41:02.878Z</time></trkpt><trkpt lat="44.8786719" lon="7.9440494"><ele>293.0</ele><time>2026-05-01T08:41:03.878Z</time></trkpt><trkpt lat="44.8784777" lon="7.9441195"><ele>293.0</ele><time>2026-05-01T08:41:04.878Z</time></trkpt><trkpt lat="44.8782811" lon="7.9441675"><ele>293.0</ele><time>2026-05-01T08:41:05.878Z</time></trkpt><trkpt lat="44.878079" lon="7.9442024"><ele>293.6666666666667</ele><time>2026-05-01T08:41:06.878Z</time></trkpt><trkpt lat="44.8778756" lon="7.9442326"><ele>294.3333333333333</ele><time>2026-05-01T08:41:07.879Z</time></trkpt><trkpt lat="44.8776714" lon="7.9442599"><ele>295.0</ele><time>2026-05-01T08:41:08.878Z</time></trkpt><trkpt lat="44.877468" lon="7.9443025"><ele>296.66666666666663</ele><time>2026-05-01T08:41:09.878Z</time></trkpt><trkpt lat="44.87726" lon="7.9443433"><ele>298.3333333333333</ele><time>2026-05-01T08:41:10.878Z</time></trkpt><trkpt lat="44.8770556" lon="7.9443871"><ele>300.0</ele><time>2026-05-01T08:41:11.878Z</time></trkpt><trkpt lat="44.8768506" lon="7.9444379"><ele>300.3333333333333</ele><time>2026-05-01T08:41:12.879Z</time></trkpt><trkpt lat="44.8766476" lon="7.9444901"><ele>300.66666666666663</ele><time>2026-05-01T08:41:13.878Z</time></trkpt><trkpt lat="44.8764531" lon="7.9445497"><ele>301.0</ele><time>2026-05-01T08:41:14.878Z</time></trkpt><trkpt lat="44.8762676" lon="7.9445992"><ele>301.0</ele><time>2026-05-01T08:41:15.878Z</time></trkpt><trkpt lat="44.8760941" lon="7.9446516"><ele>301.0</ele><time>2026-05-01T08:41:16.878Z</time></trkpt><trkpt lat="44.8759318" lon="7.944727"><ele>301.0</ele><time>2026-05-01T08:41:17.879Z</time></trkpt><trkpt lat="44.8757724" lon="7.9448151"><ele>301.3333333333333</ele><time>2026-05-01T08:41:18.878Z</time></trkpt><trkpt lat="44.8756275" lon="7.9448988"><ele>301.6666666666667</ele><time>2026-05-01T08:41:19.878Z</time></trkpt><trkpt lat="44.8754856" lon="7.9449668"><ele>302.0</ele><time>2026-05-01T08:41:20.878Z</time></trkpt><trkpt lat="44.8753377" lon="7.9450207"><ele>302.0</ele><time>2026-05-01T08:41:21.878Z</time></trkpt><trkpt lat="44.875183" lon="7.9450465"><ele>302.0</ele><time>2026-05-01T08:41:22.878Z</time></trkpt><trkpt lat="44.8750201" lon="7.9450599"><ele>302.0</ele><time>2026-05-01T08:41:23.878Z</time></trkpt><trkpt lat="44.8748503" lon="7.945067"><ele>302.6666666666667</ele><time>2026-05-01T08:41:24.878Z</time></trkpt><trkpt lat="44.8746786" lon="7.9450643"><ele>303.3333333333333</ele><time>2026-05-01T08:41:25.878Z</time></trkpt><trkpt lat="44.8745065" lon="7.945049"><ele>304.0</ele><time>2026-05-01T08:41:26.878Z</time></trkpt><trkpt lat="44.8743329" lon="7.9450215"><ele>304.3333333333333</ele><time>2026-05-01T08:41:27.878Z</time></trkpt><trkpt lat="44.8741568" lon="7.9449781"><ele>304.6666666666667</ele><time>2026-05-01T08:41:28.878Z</time></trkpt><trkpt lat="44.8739758" lon="7.9449335"><ele>305.0</ele><time>2026-05-01T08:41:29.878Z</time></trkpt><trkpt lat="44.8738035" lon="7.9448684"><ele>305.0</ele><time>2026-05-01T08:41:30.878Z</time></trkpt><trkpt lat="44.8736321" lon="7.9448019"><ele>305.0</ele><time>2026-05-01T08:41:31.878Z</time></trkpt><trkpt lat="44.8734718" lon="7.9447462"><ele>305.0</ele><time>2026-05-01T08:41:32.878Z</time></trkpt><trkpt lat="44.8733179" lon="7.9447103"><ele>305.25</ele><time>2026-05-01T08:41:33.878Z</time></trkpt><trkpt lat="44.8731836" lon="7.9446775"><ele>305.5</ele><time>2026-05-01T08:41:34.878Z</time></trkpt><trkpt lat="44.8730531" lon="7.9446461"><ele>305.75</ele><time>2026-05-01T08:41:35.878Z</time></trkpt><trkpt lat="44.872924" lon="7.9446334"><ele>306.0</ele><time>2026-05-01T08:41:36.878Z</time></trkpt><trkpt lat="44.8727855" lon="7.9446364"><ele>306.0</ele><time>2026-05-01T08:41:37.878Z</time></trkpt><trkpt lat="44.8726465" lon="7.9446589"><ele>306.0</ele><time>2026-05-01T08:41:38.878Z</time></trkpt><trkpt lat="44.8725019" lon="7.9447263"><ele>306.0</ele><time>2026-05-01T08:41:39.878Z</time></trkpt><trkpt lat="44.8723681" lon="7.9447925"><ele>306.0</ele><time>2026-05-01T08:41:40.878Z</time></trkpt><trkpt lat="44.8722296" lon="7.9448531"><ele>306.0</ele><time>2026-05-01T08:41:41.878Z</time></trkpt><trkpt lat="44.8720886" lon="7.9449278"><ele>306.0</ele><time>2026-05-01T08:41:42.878Z</time></trkpt><trkpt lat="44.8719557" lon="7.9449922"><ele>306.0</ele><time>2026-05-01T08:41:43.878Z</time></trkpt><trkpt lat="44.8718384" lon="7.9450476"><ele>306.0</ele><time>2026-05-01T08:41:44.878Z</time></trkpt><trkpt lat="44.8717282" lon="7.9451035"><ele>306.0</ele><time>2026-05-01T08:41:45.878Z</time></trkpt><trkpt lat="44.8716327" lon="7.9451512"><ele>306.0</ele><time>2026-05-01T08:41:46.878Z</time></trkpt><trkpt lat="44.8715316" lon="7.9451939"><ele>306.0</ele><time>2026-05-01T08:41:47.878Z</time></trkpt><trkpt lat="44.8714213" lon="7.9452399"><ele>306.0</ele><time>2026-05-01T08:41:48.878Z</time></trkpt><trkpt lat="44.8713075" lon="7.9452763"><ele>306.0</ele><time>2026-05-01T08:41:49.878Z</time></trkpt><trkpt lat="44.8711891" lon="7.9452985"><ele>306.0</ele><time>2026-05-01T08:41:50.878Z</time></trkpt><trkpt lat="44.8710671" lon="7.9452799"><ele>306.0</ele><time>2026-05-01T08:41:51.878Z</time></trkpt><trkpt lat="44.8709439" lon="7.9452312"><ele>306.0</ele><time>2026-05-01T08:41:52.878Z</time></trkpt><trkpt lat="44.870821" lon="7.9451698"><ele>306.0</ele><time>2026-05-01T08:41:53.878Z</time></trkpt><trkpt lat="44.870692" lon="7.9450924"><ele>306.75</ele><time>2026-05-01T08:41:54.878Z</time></trkpt><trkpt lat="44.870561" lon="7.9450108"><ele>307.5</ele><time>2026-05-01T08:41:55.878Z</time></trkpt><trkpt lat="44.8704413" lon="7.9449308"><ele>308.25</ele><time>2026-05-01T08:41:56.878Z</time></trkpt><trkpt lat="44.8703296" lon="7.9448529"><ele>309.0</ele><time>2026-05-01T08:41:57.878Z</time></trkpt><trkpt lat="44.8702511" lon="7.9447546"><ele>309.0</ele><time>2026-05-01T08:41:58.878Z</time></trkpt><trkpt lat="44.8701859" lon="7.944645"><ele>309.0</ele><time>2026-05-01T08:41:59.878Z</time></trkpt><trkpt lat="44.8701419" lon="7.9445223"><ele>309.0</ele><time>2026-05-01T08:42:00.878Z</time></trkpt><trkpt lat="44.8700924" lon="7.9443872"><ele>309.0</ele><time>2026-05-01T08:42:01.878Z</time></trkpt><trkpt lat="44.8700409" lon="7.9442329"><ele>309.0</ele><time>2026-05-01T08:42:02.878Z</time></trkpt><trkpt lat="44.8699864" lon="7.9440944"><ele>309.2</ele><time>2026-05-01T08:42:03.878Z</time></trkpt><trkpt lat="44.8699321" lon="7.943955"><ele>309.4</ele><time>2026-05-01T08:42:04.878Z</time></trkpt><trkpt lat="44.8698849" lon="7.9438241"><ele>309.6</ele><time>2026-05-01T08:42:05.878Z</time></trkpt><trkpt lat="44.869831" lon="7.9436969"><ele>309.8</ele><time>2026-05-01T08:42:06.878Z</time></trkpt><trkpt lat="44.8697865" lon="7.9435852"><ele>310.0</ele><time>2026-05-01T08:42:07.878Z</time></trkpt><trkpt lat="44.8697387" lon="7.9435091"><ele>310.0</ele><time>2026-05-01T08:42:08.878Z</time></trkpt><trkpt lat="44.8696533" lon="7.9434238"><ele>310.0</ele><time>2026-05-01T08:42:10.878Z</time></trkpt><trkpt lat="44.8695657" lon="7.9434628"><ele>310.0</ele><time>2026-05-01T08:42:13.878Z</time></trkpt><trkpt lat="44.8694945" lon="7.943569"><ele>310.0</ele><time>2026-05-01T08:42:15.878Z</time></trkpt><trkpt lat="44.869419" lon="7.9437069"><ele>310.0</ele><time>2026-05-01T08:42:17.878Z</time></trkpt><trkpt lat="44.8693781" lon="7.9437953"><ele>310.0</ele><time>2026-05-01T08:42:18.878Z</time></trkpt><trkpt lat="44.86933" lon="7.9438739"><ele>310.0</ele><time>2026-05-01T08:42:19.878Z</time></trkpt><trkpt lat="44.8692681" lon="7.9439553"><ele>310.0</ele><time>2026-05-01T08:42:20.878Z</time></trkpt><trkpt lat="44.8692026" lon="7.9440434"><ele>310.0</ele><time>2026-05-01T08:42:21.878Z</time></trkpt><trkpt lat="44.8691225" lon="7.9441299"><ele>310.0</ele><time>2026-05-01T08:42:22.878Z</time></trkpt><trkpt lat="44.869037" lon="7.9442186"><ele>309.8</ele><time>2026-05-01T08:42:23.878Z</time></trkpt><trkpt lat="44.8689452" lon="7.9442905"><ele>309.6</ele><time>2026-05-01T08:42:24.878Z</time></trkpt><trkpt lat="44.8688453" lon="7.9443545"><ele>309.4</ele><time>2026-05-01T08:42:25.878Z</time></trkpt><trkpt lat="44.8687412" lon="7.9444111"><ele>309.2</ele><time>2026-05-01T08:42:26.878Z</time></trkpt><trkpt lat="44.8686343" lon="7.9444562"><ele>309.0</ele><time>2026-05-01T08:42:27.878Z</time></trkpt><trkpt lat="44.8685173" lon="7.9445044"><ele>310.25</ele><time>2026-05-01T08:42:28.878Z</time></trkpt><trkpt lat="44.8684094" lon="7.9445469"><ele>311.5</ele><time>2026-05-01T08:42:29.878Z</time></trkpt><trkpt lat="44.8682981" lon="7.9445869"><ele>312.75</ele><time>2026-05-01T08:42:30.878Z</time></trkpt><trkpt lat="44.8681871" lon="7.9446243"><ele>314.0</ele><time>2026-05-01T08:42:31.878Z</time></trkpt><trkpt lat="44.8680755" lon="7.9446459"><ele>314.0</ele><time>2026-05-01T08:42:32.878Z</time></trkpt><trkpt lat="44.867961" lon="7.9446635"><ele>314.0</ele><time>2026-05-01T08:42:33.878Z</time></trkpt><trkpt lat="44.8678506" lon="7.9446727"><ele>314.0</ele><time>2026-05-01T08:42:34.878Z</time></trkpt><trkpt lat="44.8677341" lon="7.944686"><ele>314.0</ele><time>2026-05-01T08:42:35.878Z</time></trkpt><trkpt lat="44.8676187" lon="7.9446928"><ele>314.4</ele><time>2026-05-01T08:42:36.878Z</time></trkpt><trkpt lat="44.8675078" lon="7.9446923"><ele>314.79999999999995</ele><time>2026-05-01T08:42:37.878Z</time></trkpt><trkpt lat="44.8674126" lon="7.944699"><ele>315.20000000000005</ele><time>2026-05-01T08:42:38.878Z</time></trkpt><trkpt lat="44.8673065" lon="7.9447077"><ele>315.6</ele><time>2026-05-01T08:42:39.878Z</time></trkpt><trkpt lat="44.8672286" lon="7.9447175"><ele>316.0</ele><time>2026-05-01T08:42:40.878Z</time></trkpt><trkpt lat="44.8671422" lon="7.9447258"><ele>316.0</ele><time>2026-05-01T08:42:41.878Z</time></trkpt><trkpt lat="44.8670708" lon="7.9447339"><ele>316.0</ele><time>2026-05-01T08:42:42.878Z</time></trkpt><trkpt lat="44.8670042" lon="7.9447347"><ele>316.0</ele><time>2026-05-01T08:42:43.879Z</time></trkpt><trkpt lat="44.8669163" lon="7.9447397"><ele>316.0</ele><time>2026-05-01T08:42:45.878Z</time></trkpt><trkpt lat="44.8668134" lon="7.944631"><ele>316.0</ele><time>2026-05-01T08:42:47.878Z</time></trkpt><trkpt lat="44.8667764" lon="7.9445462"><ele>316.0</ele><time>2026-05-01T08:42:48.878Z</time></trkpt><trkpt lat="44.8667503" lon="7.9444569"><ele>316.5</ele><time>2026-05-01T08:42:49.878Z</time></trkpt><trkpt lat="44.8667138" lon="7.9443546"><ele>317.0</ele><time>2026-05-01T08:42:50.878Z</time></trkpt><trkpt lat="44.8666826" lon="7.9442454"><ele>317.5</ele><time>2026-05-01T08:42:51.878Z</time></trkpt><trkpt lat="44.8666532" lon="7.9441254"><ele>318.0</ele><time>2026-05-01T08:42:52.878Z</time></trkpt><trkpt lat="44.8666241" lon="7.9440113"><ele>318.5</ele><time>2026-05-01T08:42:53.878Z</time></trkpt><trkpt lat="44.8665921" lon="7.9439059"><ele>319.0</ele><time>2026-05-01T08:42:54.878Z</time></trkpt><trkpt lat="44.8665594" lon="7.943805"><ele>319.0</ele><time>2026-05-01T08:42:55.879Z</time></trkpt><trkpt lat="44.8665268" lon="7.9437154"><ele>319.0</ele><time>2026-05-01T08:42:56.878Z</time></trkpt><trkpt lat="44.8664809" lon="7.9436102"><ele>319.0</ele><time>2026-05-01T08:42:57.878Z</time></trkpt><trkpt lat="44.8664428" lon="7.9434981"><ele>319.0</ele><time>2026-05-01T08:42:58.878Z</time></trkpt><trkpt lat="44.8664058" lon="7.9433757"><ele>319.0</ele><time>2026-05-01T08:42:59.878Z</time></trkpt><trkpt lat="44.8663671" lon="7.9432434"><ele>319.0</ele><time>2026-05-01T08:43:00.878Z</time></trkpt><trkpt lat="44.8663245" lon="7.943097"><ele>318.75</ele><time>2026-05-01T08:43:01.878Z</time></trkpt><trkpt lat="44.8662833" lon="7.9429478"><ele>318.5</ele><time>2026-05-01T08:43:02.878Z</time></trkpt><trkpt lat="44.8662422" lon="7.9427892"><ele>318.25</ele><time>2026-05-01T08:43:03.878Z</time></trkpt><trkpt lat="44.8662326" lon="7.9426366"><ele>318.0</ele><time>2026-05-01T08:43:04.878Z</time></trkpt><trkpt lat="44.866222" lon="7.9424645"><ele>317.0</ele><time>2026-05-01T08:43:05.878Z</time></trkpt><trkpt lat="44.8662021" lon="7.9422909"><ele>316.0</ele><time>2026-05-01T08:43:06.878Z</time></trkpt><trkpt lat="44.8661864" lon="7.9421142"><ele>315.0</ele><time>2026-05-01T08:43:07.878Z</time></trkpt><trkpt lat="44.8661499" lon="7.9419448"><ele>314.0</ele><time>2026-05-01T08:43:08.878Z</time></trkpt><trkpt lat="44.8660882" lon="7.9417987"><ele>312.75</ele><time>2026-05-01T08:43:09.878Z</time></trkpt><trkpt lat="44.8660057" lon="7.9416495"><ele>311.5</ele><time>2026-05-01T08:43:10.878Z</time></trkpt><trkpt lat="44.8659125" lon="7.9414944"><ele>310.25</ele><time>2026-05-01T08:43:11.879Z</time></trkpt><trkpt lat="44.8658138" lon="7.9413366"><ele>309.0</ele><time>2026-05-01T08:43:12.878Z</time></trkpt><trkpt lat="44.8657045" lon="7.9411895"><ele>308.3333333333333</ele><time>2026-05-01T08:43:13.878Z</time></trkpt><trkpt lat="44.8655889" lon="7.9410447"><ele>307.66666666666663</ele><time>2026-05-01T08:43:14.878Z</time></trkpt><trkpt lat="44.8654741" lon="7.9409076"><ele>307.0</ele><time>2026-05-01T08:43:15.878Z</time></trkpt><trkpt lat="44.8653705" lon="7.9407599"><ele>307.0</ele><time>2026-05-01T08:43:16.878Z</time></trkpt><trkpt lat="44.8652832" lon="7.9405871"><ele>307.0</ele><time>2026-05-01T08:43:17.878Z</time></trkpt><trkpt lat="44.8652198" lon="7.9403825"><ele>307.0</ele><time>2026-05-01T08:43:18.878Z</time></trkpt><trkpt lat="44.8651645" lon="7.9401736"><ele>304.75</ele><time>2026-05-01T08:43:19.878Z</time></trkpt><trkpt lat="44.8651075" lon="7.9399743"><ele>302.5</ele><time>2026-05-01T08:43:20.879Z</time></trkpt><trkpt lat="44.8650545" lon="7.9398103"><ele>300.25</ele><time>2026-05-01T08:43:21.878Z</time></trkpt><trkpt lat="44.8649873" lon="7.939669"><ele>298.0</ele><time>2026-05-01T08:43:22.878Z</time></trkpt><trkpt lat="44.8649013" lon="7.9395662"><ele>298.0</ele><time>2026-05-01T08:43:23.878Z</time></trkpt><trkpt lat="44.8648102" lon="7.9394758"><ele>298.0</ele><time>2026-05-01T08:43:24.878Z</time></trkpt><trkpt lat="44.8646998" lon="7.9394126"><ele>298.0</ele><time>2026-05-01T08:43:25.878Z</time></trkpt><trkpt lat="44.8645246" lon="7.939434"><ele>298.0</ele><time>2026-05-01T08:43:26.878Z</time></trkpt><trkpt lat="44.864355" lon="7.9394285"><ele>298.66666666666663</ele><time>2026-05-01T08:43:27.878Z</time></trkpt><trkpt lat="44.8642008" lon="7.9394142"><ele>299.3333333333333</ele><time>2026-05-01T08:43:28.879Z</time></trkpt><trkpt lat="44.8640299" lon="7.9394141"><ele>300.0</ele><time>2026-05-01T08:43:29.878Z</time></trkpt><trkpt lat="44.8638736" lon="7.9393963"><ele>300.0</ele><time>2026-05-01T08:43:30.879Z</time></trkpt><trkpt lat="44.8637136" lon="7.9393452"><ele>300.0</ele><time>2026-05-01T08:43:31.878Z</time></trkpt><trkpt lat="44.8635622" lon="7.9393267"><ele>300.0</ele><time>2026-05-01T08:43:32.878Z</time></trkpt><trkpt lat="44.8634147" lon="7.9392843"><ele>300.75</ele><time>2026-05-01T08:43:33.878Z</time></trkpt><trkpt lat="44.8632673" lon="7.9392059"><ele>301.5</ele><time>2026-05-01T08:43:34.878Z</time></trkpt><trkpt lat="44.8631673" lon="7.939086"><ele>302.25</ele><time>2026-05-01T08:43:35.878Z</time></trkpt><trkpt lat="44.8630707" lon="7.9389202"><ele>303.0</ele><time>2026-05-01T08:43:36.878Z</time></trkpt><trkpt lat="44.862994" lon="7.9387198"><ele>303.0</ele><time>2026-05-01T08:43:37.878Z</time></trkpt><trkpt lat="44.8629406" lon="7.9385117"><ele>303.0</ele><time>2026-05-01T08:43:38.878Z</time></trkpt><trkpt lat="44.8628734" lon="7.9383042"><ele>303.0</ele><time>2026-05-01T08:43:39.878Z</time></trkpt><trkpt lat="44.8627958" lon="7.9380792"><ele>301.3333333333333</ele><time>2026-05-01T08:43:40.878Z</time></trkpt><trkpt lat="44.8627322" lon="7.9378455"><ele>299.66666666666663</ele><time>2026-05-01T08:43:41.878Z</time></trkpt><trkpt lat="44.8626361" lon="7.9376235"><ele>298.0</ele><time>2026-05-01T08:43:42.878Z</time></trkpt><trkpt lat="44.862544" lon="7.9373862"><ele>298.0</ele><time>2026-05-01T08:43:43.879Z</time></trkpt><trkpt lat="44.8624529" lon="7.9371477"><ele>298.0</ele><time>2026-05-01T08:43:44.878Z</time></trkpt><trkpt lat="44.8623685" lon="7.9369055"><ele>298.0</ele><time>2026-05-01T08:43:45.878Z</time></trkpt><trkpt lat="44.8622786" lon="7.9366593"><ele>296.66666666666663</ele><time>2026-05-01T08:43:46.878Z</time></trkpt><trkpt lat="44.8621851" lon="7.9364136"><ele>295.3333333333333</ele><time>2026-05-01T08:43:47.878Z</time></trkpt><trkpt lat="44.862098" lon="7.936167"><ele>294.0</ele><time>2026-05-01T08:43:48.878Z</time></trkpt><trkpt lat="44.8619942" lon="7.9359307"><ele>294.6666666666667</ele><time>2026-05-01T08:43:49.878Z</time></trkpt><trkpt lat="44.861888" lon="7.9357055"><ele>295.33333333333337</ele><time>2026-05-01T08:43:50.878Z</time></trkpt><trkpt lat="44.8617889" lon="7.935499"><ele>296.0</ele><time>2026-05-01T08:43:51.878Z</time></trkpt><trkpt lat="44.8617033" lon="7.9353062"><ele>297.25</ele><time>2026-05-01T08:43:52.878Z</time></trkpt><trkpt lat="44.8616367" lon="7.9351293"><ele>298.5</ele><time>2026-05-01T08:43:53.878Z</time></trkpt><trkpt lat="44.8615773" lon="7.934936"><ele>299.75</ele><time>2026-05-01T08:43:54.878Z</time></trkpt><trkpt lat="44.8615222" lon="7.9347427"><ele>301.0</ele><time>2026-05-01T08:43:55.878Z</time></trkpt><trkpt lat="44.8614715" lon="7.9345474"><ele>301.5</ele><time>2026-05-01T08:43:56.878Z</time></trkpt><trkpt lat="44.8614013" lon="7.9343763"><ele>302.0</ele><time>2026-05-01T08:43:57.879Z</time></trkpt><trkpt lat="44.8613059" lon="7.9342299"><ele>302.5</ele><time>2026-05-01T08:43:58.878Z</time></trkpt><trkpt lat="44.861212" lon="7.9341112"><ele>303.0</ele><time>2026-05-01T08:43:59.878Z</time></trkpt><trkpt lat="44.8611132" lon="7.9340257"><ele>304.0</ele><time>2026-05-01T08:44:00.878Z</time></trkpt><trkpt lat="44.8610165" lon="7.9339838"><ele>305.0</ele><time>2026-05-01T08:44:01.878Z</time></trkpt><trkpt lat="44.8609166" lon="7.9339663"><ele>306.0</ele><time>2026-05-01T08:44:02.878Z</time></trkpt><trkpt lat="44.8608081" lon="7.9340899"><ele>307.0</ele><time>2026-05-01T08:44:03.878Z</time></trkpt><trkpt lat="44.8607162" lon="7.9342145"><ele>306.5</ele><time>2026-05-01T08:44:04.878Z</time></trkpt><trkpt lat="44.8606408" lon="7.9342997"><ele>306.0</ele><time>2026-05-01T08:44:05.878Z</time></trkpt><trkpt lat="44.8605704" lon="7.9343636"><ele>305.5</ele><time>2026-05-01T08:44:06.879Z</time></trkpt><trkpt lat="44.8604867" lon="7.934395"><ele>305.0</ele><time>2026-05-01T08:44:07.878Z</time></trkpt><trkpt lat="44.8604048" lon="7.9343547"><ele>304.5</ele><time>2026-05-01T08:44:08.878Z</time></trkpt><trkpt lat="44.8603366" lon="7.9342676"><ele>304.0</ele><time>2026-05-01T08:44:09.878Z</time></trkpt><trkpt lat="44.8602928" lon="7.9341399"><ele>306.0</ele><time>2026-05-01T08:44:10.878Z</time></trkpt><trkpt lat="44.8602474" lon="7.933999"><ele>308.0</ele><time>2026-05-01T08:44:11.878Z</time></trkpt><trkpt lat="44.8601711" lon="7.9338593"><ele>310.0</ele><time>2026-05-01T08:44:12.878Z</time></trkpt><trkpt lat="44.8600671" lon="7.9337647"><ele>312.0</ele><time>2026-05-01T08:44:13.878Z</time></trkpt><trkpt lat="44.8599533" lon="7.933674"><ele>313.25</ele><time>2026-05-01T08:44:14.878Z</time></trkpt><trkpt lat="44.8598056" lon="7.9336567"><ele>314.5</ele><time>2026-05-01T08:44:15.878Z</time></trkpt><trkpt lat="44.8596607" lon="7.9336146"><ele>315.75</ele><time>2026-05-01T08:44:16.878Z</time></trkpt><trkpt lat="44.8595131" lon="7.9335628"><ele>317.0</ele><time>2026-05-01T08:44:17.878Z</time></trkpt><trkpt lat="44.8593499" lon="7.9335014"><ele>318.33333333333337</ele><time>2026-05-01T08:44:18.878Z</time></trkpt><trkpt lat="44.8591902" lon="7.9334451"><ele>319.6666666666667</ele><time>2026-05-01T08:44:19.878Z</time></trkpt><trkpt lat="44.859035" lon="7.9333869"><ele>321.0</ele><time>2026-05-01T08:44:20.878Z</time></trkpt><trkpt lat="44.8588829" lon="7.9333259"><ele>321.3333333333333</ele><time>2026-05-01T08:44:21.878Z</time></trkpt><trkpt lat="44.8587309" lon="7.9332676"><ele>321.66666666666663</ele><time>2026-05-01T08:44:22.878Z</time></trkpt><trkpt lat="44.8585872" lon="7.9331791"><ele>322.0</ele><time>2026-05-01T08:44:23.878Z</time></trkpt><trkpt lat="44.8584584" lon="7.933057"><ele>322.0</ele><time>2026-05-01T08:44:24.879Z</time></trkpt><trkpt lat="44.8583326" lon="7.9329047"><ele>322.0</ele><time>2026-05-01T08:44:25.878Z</time></trkpt><trkpt lat="44.8582031" lon="7.9327842"><ele>322.0</ele><time>2026-05-01T08:44:26.878Z</time></trkpt><trkpt lat="44.8580362" lon="7.9327087"><ele>322.0</ele><time>2026-05-01T08:44:27.878Z</time></trkpt><trkpt lat="44.8578678" lon="7.9326373"><ele>322.0</ele><time>2026-05-01T08:44:28.878Z</time></trkpt><trkpt lat="44.8576909" lon="7.9325545"><ele>322.0</ele><time>2026-05-01T08:44:29.878Z</time></trkpt><trkpt lat="44.8575045" lon="7.9324882"><ele>324.0</ele><time>2026-05-01T08:44:30.878Z</time></trkpt><trkpt lat="44.857321" lon="7.9324172"><ele>326.0</ele><time>2026-05-01T08:44:31.878Z</time></trkpt><trkpt lat="44.8571283" lon="7.93235"><ele>328.0</ele><time>2026-05-01T08:44:32.878Z</time></trkpt><trkpt lat="44.8569397" lon="7.9322805"><ele>326.3333333333333</ele><time>2026-05-01T08:44:33.878Z</time></trkpt><trkpt lat="44.856756" lon="7.9322166"><ele>324.6666666666667</ele><time>2026-05-01T08:44:34.878Z</time></trkpt><trkpt lat="44.8565793" lon="7.9321458"><ele>323.0</ele><time>2026-05-01T08:44:35.878Z</time></trkpt><trkpt lat="44.8564142" lon="7.9320796"><ele>323.0</ele><time>2026-05-01T08:44:36.878Z</time></trkpt><trkpt lat="44.8562505" lon="7.9320047"><ele>323.0</ele><time>2026-05-01T08:44:37.878Z</time></trkpt><trkpt lat="44.8560907" lon="7.9318968"><ele>323.0</ele><time>2026-05-01T08:44:38.878Z</time></trkpt><trkpt lat="44.8559207" lon="7.9317738"><ele>325.33333333333337</ele><time>2026-05-01T08:44:39.878Z</time></trkpt><trkpt lat="44.8557527" lon="7.9316332"><ele>327.6666666666667</ele><time>2026-05-01T08:44:40.878Z</time></trkpt><trkpt lat="44.8555893" lon="7.931488"><ele>330.0</ele><time>2026-05-01T08:44:41.879Z</time></trkpt><trkpt lat="44.8554107" lon="7.9313397"><ele>330.0</ele><time>2026-05-01T08:44:42.878Z</time></trkpt><trkpt lat="44.8552434" lon="7.9311955"><ele>330.0</ele><time>2026-05-01T08:44:43.878Z</time></trkpt><trkpt lat="44.8550633" lon="7.9310463"><ele>330.0</ele><time>2026-05-01T08:44:44.878Z</time></trkpt><trkpt lat="44.8548886" lon="7.9309107"><ele>329.6666666666667</ele><time>2026-05-01T08:44:45.878Z</time></trkpt><trkpt lat="44.8547195" lon="7.9307455"><ele>329.33333333333337</ele><time>2026-05-01T08:44:46.879Z</time></trkpt><trkpt lat="44.8545494" lon="7.9305897"><ele>329.0</ele><time>2026-05-01T08:44:47.878Z</time></trkpt><trkpt lat="44.8543844" lon="7.9304461"><ele>328.6666666666667</ele><time>2026-05-01T08:44:48.878Z</time></trkpt><trkpt lat="44.8542203" lon="7.9303076"><ele>328.3333333333333</ele><time>2026-05-01T08:44:49.878Z</time></trkpt><trkpt lat="44.8540579" lon="7.9301766"><ele>328.0</ele><time>2026-05-01T08:44:50.878Z</time></trkpt><trkpt lat="44.853904" lon="7.9300433"><ele>329.0</ele><time>2026-05-01T08:44:51.878Z</time></trkpt><trkpt lat="44.8537577" lon="7.9299165"><ele>330.0</ele><time>2026-05-01T08:44:52.878Z</time></trkpt><trkpt lat="44.8536251" lon="7.9298104"><ele>331.0</ele><time>2026-05-01T08:44:53.878Z</time></trkpt><trkpt lat="44.8535065" lon="7.9297082"><ele>331.25</ele><time>2026-05-01T08:44:54.878Z</time></trkpt><trkpt lat="44.8534032" lon="7.9296014"><ele>331.5</ele><time>2026-05-01T08:44:55.878Z</time></trkpt><trkpt lat="44.8533287" lon="7.9294691"><ele>331.75</ele><time>2026-05-01T08:44:56.878Z</time></trkpt><trkpt lat="44.8532719" lon="7.9293172"><ele>332.0</ele><time>2026-05-01T08:44:57.878Z</time></trkpt><trkpt lat="44.8532461" lon="7.929148"><ele>332.0</ele><time>2026-05-01T08:44:58.878Z</time></trkpt><trkpt lat="44.853235" lon="7.9289435"><ele>332.0</ele><time>2026-05-01T08:44:59.878Z</time></trkpt><trkpt lat="44.8532386" lon="7.928736"><ele>332.0</ele><time>2026-05-01T08:45:00.878Z</time></trkpt><trkpt lat="44.8532438" lon="7.9285077"><ele>331.25</ele><time>2026-05-01T08:45:01.878Z</time></trkpt><trkpt lat="44.8532519" lon="7.9282952"><ele>330.5</ele><time>2026-05-01T08:45:02.878Z</time></trkpt><trkpt lat="44.8532579" lon="7.9281026"><ele>329.75</ele><time>2026-05-01T08:45:03.878Z</time></trkpt><trkpt lat="44.8532844" lon="7.9279136"><ele>329.0</ele><time>2026-05-01T08:45:04.878Z</time></trkpt><trkpt lat="44.8533465" lon="7.927739"><ele>329.0</ele><time>2026-05-01T08:45:05.878Z</time></trkpt><trkpt lat="44.8534372" lon="7.927591"><ele>329.0</ele><time>2026-05-01T08:45:06.878Z</time></trkpt><trkpt lat="44.8535479" lon="7.9274659"><ele>329.0</ele><time>2026-05-01T08:45:07.878Z</time></trkpt><trkpt lat="44.8536621" lon="7.9273444"><ele>329.0</ele><time>2026-05-01T08:45:08.878Z</time></trkpt><trkpt lat="44.8537624" lon="7.9272089"><ele>328.0</ele><time>2026-05-01T08:45:09.878Z</time></trkpt><trkpt lat="44.8538595" lon="7.9270556"><ele>327.0</ele><time>2026-05-01T08:45:10.878Z</time></trkpt><trkpt lat="44.8538782" lon="7.9268448"><ele>326.0</ele><time>2026-05-01T08:45:11.878Z</time></trkpt><trkpt lat="44.8539098" lon="7.9266279"><ele>325.6666666666667</ele><time>2026-05-01T08:45:12.878Z</time></trkpt><trkpt lat="44.8539466" lon="7.9263886"><ele>325.3333333333333</ele><time>2026-05-01T08:45:13.878Z</time></trkpt><trkpt lat="44.8540103" lon="7.9261694"><ele>325.0</ele><time>2026-05-01T08:45:14.878Z</time></trkpt><trkpt lat="44.8540886" lon="7.9259504"><ele>324.66666666666663</ele><time>2026-05-01T08:45:15.878Z</time></trkpt><trkpt lat="44.8541751" lon="7.9257315"><ele>324.3333333333333</ele><time>2026-05-01T08:45:16.879Z</time></trkpt><trkpt lat="44.8542813" lon="7.9255317"><ele>324.0</ele><time>2026-05-01T08:45:17.878Z</time></trkpt><trkpt lat="44.8544308" lon="7.9253845"><ele>324.0</ele><time>2026-05-01T08:45:18.878Z</time></trkpt><trkpt lat="44.854599" lon="7.9252464"><ele>324.0</ele><time>2026-05-01T08:45:19.878Z</time></trkpt><trkpt lat="44.8547538" lon="7.9251007"><ele>324.0</ele><time>2026-05-01T08:45:20.878Z</time></trkpt><trkpt lat="44.8548844" lon="7.9249689"><ele>325.0</ele><time>2026-05-01T08:45:21.878Z</time></trkpt><trkpt lat="44.8550096" lon="7.924814"><ele>326.0</ele><time>2026-05-01T08:45:22.878Z</time></trkpt><trkpt lat="44.855113" lon="7.9246048"><ele>327.0</ele><time>2026-05-01T08:45:23.878Z</time></trkpt><trkpt lat="44.8552136" lon="7.9243907"><ele>326.6666666666667</ele><time>2026-05-01T08:45:24.878Z</time></trkpt><trkpt lat="44.8553196" lon="7.9241826"><ele>326.33333333333337</ele><time>2026-05-01T08:45:25.878Z</time></trkpt><trkpt lat="44.8554455" lon="7.9239656"><ele>326.0</ele><time>2026-05-01T08:45:26.878Z</time></trkpt><trkpt lat="44.8555721" lon="7.9237597"><ele>326.0</ele><time>2026-05-01T08:45:27.878Z</time></trkpt><trkpt lat="44.855692" lon="7.9235824"><ele>326.0</ele><time>2026-05-01T08:45:28.878Z</time></trkpt><trkpt lat="44.8558065" lon="7.9234152"><ele>326.0</ele><time>2026-05-01T08:45:29.879Z</time></trkpt><trkpt lat="44.8559011" lon="7.9232449"><ele>325.33333333333337</ele><time>2026-05-01T08:45:30.878Z</time></trkpt><trkpt lat="44.8559921" lon="7.923053"><ele>324.6666666666667</ele><time>2026-05-01T08:45:31.878Z</time></trkpt><trkpt lat="44.85606" lon="7.9228604"><ele>324.0</ele><time>2026-05-01T08:45:32.878Z</time></trkpt><trkpt lat="44.8560922" lon="7.9226666"><ele>324.0</ele><time>2026-05-01T08:45:33.878Z</time></trkpt><trkpt lat="44.856093" lon="7.9224733"><ele>324.0</ele><time>2026-05-01T08:45:34.878Z</time></trkpt><trkpt lat="44.8560639" lon="7.9222598"><ele>324.0</ele><time>2026-05-01T08:45:35.878Z</time></trkpt><trkpt lat="44.856029" lon="7.9220335"><ele>324.0</ele><time>2026-05-01T08:45:36.878Z</time></trkpt><trkpt lat="44.8559859" lon="7.9217959"><ele>324.0</ele><time>2026-05-01T08:45:37.878Z</time></trkpt><trkpt lat="44.8559389" lon="7.9215405"><ele>324.0</ele><time>2026-05-01T08:45:38.878Z</time></trkpt><trkpt lat="44.8558894" lon="7.9212759"><ele>325.0</ele><time>2026-05-01T08:45:39.878Z</time></trkpt><trkpt lat="44.8558453" lon="7.9210074"><ele>326.0</ele><time>2026-05-01T08:45:40.878Z</time></trkpt><trkpt lat="44.8558018" lon="7.9207304"><ele>327.0</ele><time>2026-05-01T08:45:41.878Z</time></trkpt><trkpt lat="44.8557576" lon="7.9204546"><ele>327.0</ele><time>2026-05-01T08:45:42.878Z</time></trkpt><trkpt lat="44.8557098" lon="7.920182"><ele>327.0</ele><time>2026-05-01T08:45:43.878Z</time></trkpt><trkpt lat="44.8556663" lon="7.9199216"><ele>327.0</ele><time>2026-05-01T08:45:44.878Z</time></trkpt><trkpt lat="44.8556151" lon="7.9196614"><ele>326.3333333333333</ele><time>2026-05-01T08:45:45.878Z</time></trkpt><trkpt lat="44.8555696" lon="7.9194227"><ele>325.66666666666663</ele><time>2026-05-01T08:45:46.878Z</time></trkpt><trkpt lat="44.8555371" lon="7.9191833"><ele>325.0</ele><time>2026-05-01T08:45:47.878Z</time></trkpt><trkpt lat="44.8555238" lon="7.918943"><ele>324.3333333333333</ele><time>2026-05-01T08:45:48.878Z</time></trkpt><trkpt lat="44.8555325" lon="7.918704"><ele>323.6666666666667</ele><time>2026-05-01T08:45:49.878Z</time></trkpt><trkpt lat="44.8555763" lon="7.9184638"><ele>323.0</ele><time>2026-05-01T08:45:50.878Z</time></trkpt><trkpt lat="44.8556392" lon="7.9182185"><ele>323.0</ele><time>2026-05-01T08:45:51.878Z</time></trkpt><trkpt lat="44.8557027" lon="7.9179762"><ele>323.0</ele><time>2026-05-01T08:45:52.878Z</time></trkpt><trkpt lat="44.8557804" lon="7.917724"><ele>323.0</ele><time>2026-05-01T08:45:53.878Z</time></trkpt><trkpt lat="44.8558661" lon="7.9174829"><ele>321.0</ele><time>2026-05-01T08:45:54.878Z</time></trkpt><trkpt lat="44.8559563" lon="7.9172393"><ele>319.0</ele><time>2026-05-01T08:45:55.878Z</time></trkpt><trkpt lat="44.8560727" lon="7.9170302"><ele>317.0</ele><time>2026-05-01T08:45:56.878Z</time></trkpt><trkpt lat="44.8562112" lon="7.9168382"><ele>317.0</ele><time>2026-05-01T08:45:57.878Z</time></trkpt><trkpt lat="44.8563556" lon="7.9166456"><ele>317.0</ele><time>2026-05-01T08:45:58.878Z</time></trkpt><trkpt lat="44.856499" lon="7.916456"><ele>317.0</ele><time>2026-05-01T08:45:59.878Z</time></trkpt><trkpt lat="44.8566433" lon="7.916282"><ele>317.0</ele><time>2026-05-01T08:46:00.879Z</time></trkpt><trkpt lat="44.8567829" lon="7.9161094"><ele>317.0</ele><time>2026-05-01T08:46:01.878Z</time></trkpt><trkpt lat="44.8569144" lon="7.9159566"><ele>317.0</ele><time>2026-05-01T08:46:02.878Z</time></trkpt><trkpt lat="44.8570495" lon="7.915827"><ele>317.5</ele><time>2026-05-01T08:46:03.878Z</time></trkpt><trkpt lat="44.8571756" lon="7.9157145"><ele>318.0</ele><time>2026-05-01T08:46:04.878Z</time></trkpt><trkpt lat="44.8572981" lon="7.9156167"><ele>318.5</ele><time>2026-05-01T08:46:05.878Z</time></trkpt><trkpt lat="44.8573964" lon="7.9155244"><ele>319.0</ele><time>2026-05-01T08:46:06.878Z</time></trkpt><trkpt lat="44.8574894" lon="7.9154075"><ele>319.0</ele><time>2026-05-01T08:46:07.879Z</time></trkpt><trkpt lat="44.8575623" lon="7.9152488"><ele>319.0</ele><time>2026-05-01T08:46:08.878Z</time></trkpt><trkpt lat="44.8576085" lon="7.9150779"><ele>319.0</ele><time>2026-05-01T08:46:09.878Z</time></trkpt><trkpt lat="44.8576391" lon="7.9148818"><ele>319.0</ele><time>2026-05-01T08:46:10.879Z</time></trkpt><trkpt lat="44.8576558" lon="7.9146748"><ele>318.0</ele><time>2026-05-01T08:46:11.878Z</time></trkpt><trkpt lat="44.857672" lon="7.9144511"><ele>317.0</ele><time>2026-05-01T08:46:12.878Z</time></trkpt><trkpt lat="44.8576936" lon="7.9142196"><ele>316.0</ele><time>2026-05-01T08:46:13.878Z</time></trkpt><trkpt lat="44.857716" lon="7.9139891"><ele>316.0</ele><time>2026-05-01T08:46:14.878Z</time></trkpt><trkpt lat="44.857738" lon="7.9137425"><ele>316.0</ele><time>2026-05-01T08:46:15.878Z</time></trkpt><trkpt lat="44.857756" lon="7.9135022"><ele>316.0</ele><time>2026-05-01T08:46:16.878Z</time></trkpt><trkpt lat="44.8577773" lon="7.9132572"><ele>316.0</ele><time>2026-05-01T08:46:17.878Z</time></trkpt><trkpt lat="44.8578018" lon="7.9130032"><ele>316.0</ele><time>2026-05-01T08:46:18.878Z</time></trkpt><trkpt lat="44.8578286" lon="7.9127448"><ele>316.0</ele><time>2026-05-01T08:46:19.878Z</time></trkpt><trkpt lat="44.8578488" lon="7.9124831"><ele>316.0</ele><time>2026-05-01T08:46:20.878Z</time></trkpt><trkpt lat="44.8578722" lon="7.9122342"><ele>316.0</ele><time>2026-05-01T08:46:21.878Z</time></trkpt><trkpt lat="44.8579017" lon="7.9119808"><ele>316.0</ele><time>2026-05-01T08:46:22.878Z</time></trkpt><trkpt lat="44.857923" lon="7.9117375"><ele>315.3333333333333</ele><time>2026-05-01T08:46:23.878Z</time></trkpt><trkpt lat="44.857947" lon="7.9114967"><ele>314.6666666666667</ele><time>2026-05-01T08:46:24.878Z</time></trkpt><trkpt lat="44.8579617" lon="7.9112617"><ele>314.0</ele><time>2026-05-01T08:46:25.878Z</time></trkpt><trkpt lat="44.8579777" lon="7.9110374"><ele>313.5</ele><time>2026-05-01T08:46:26.878Z</time></trkpt><trkpt lat="44.8579997" lon="7.9108226"><ele>313.0</ele><time>2026-05-01T08:46:27.878Z</time></trkpt><trkpt lat="44.8580229" lon="7.9106454"><ele>312.5</ele><time>2026-05-01T08:46:28.878Z</time></trkpt><trkpt lat="44.8580483" lon="7.9104673"><ele>312.0</ele><time>2026-05-01T08:46:29.878Z</time></trkpt><trkpt lat="44.8581024" lon="7.9103014"><ele>312.0</ele><time>2026-05-01T08:46:30.878Z</time></trkpt><trkpt lat="44.8581861" lon="7.9101544"><ele>312.0</ele><time>2026-05-01T08:46:31.878Z</time></trkpt><trkpt lat="44.8582943" lon="7.9100159"><ele>312.0</ele><time>2026-05-01T08:46:32.878Z</time></trkpt><trkpt lat="44.8584145" lon="7.9098778"><ele>312.0</ele><time>2026-05-01T08:46:33.878Z</time></trkpt><trkpt lat="44.8585453" lon="7.9097263"><ele>310.6666666666667</ele><time>2026-05-01T08:46:34.878Z</time></trkpt><trkpt lat="44.8586721" lon="7.9095711"><ele>309.33333333333337</ele><time>2026-05-01T08:46:35.878Z</time></trkpt><trkpt lat="44.858801" lon="7.9094194"><ele>308.0</ele><time>2026-05-01T08:46:36.878Z</time></trkpt><trkpt lat="44.8589406" lon="7.9092636"><ele>308.33333333333337</ele><time>2026-05-01T08:46:37.879Z</time></trkpt><trkpt lat="44.8590749" lon="7.9091006"><ele>308.6666666666667</ele><time>2026-05-01T08:46:38.878Z</time></trkpt><trkpt lat="44.8592142" lon="7.9089399"><ele>309.0</ele><time>2026-05-01T08:46:39.878Z</time></trkpt><trkpt lat="44.8593495" lon="7.9087781"><ele>309.0</ele><time>2026-05-01T08:46:40.878Z</time></trkpt><trkpt lat="44.8594882" lon="7.9086207"><ele>309.0</ele><time>2026-05-01T08:46:41.878Z</time></trkpt><trkpt lat="44.8596137" lon="7.9084648"><ele>309.0</ele><time>2026-05-01T08:46:42.878Z</time></trkpt><trkpt lat="44.8597359" lon="7.9083167"><ele>308.75</ele><time>2026-05-01T08:46:43.878Z</time></trkpt><trkpt lat="44.859855" lon="7.9081791"><ele>308.5</ele><time>2026-05-01T08:46:44.878Z</time></trkpt><trkpt lat="44.8599608" lon="7.9080596"><ele>308.25</ele><time>2026-05-01T08:46:45.878Z</time></trkpt><trkpt lat="44.860049" lon="7.9079352"><ele>308.0</ele><time>2026-05-01T08:46:46.878Z</time></trkpt><trkpt lat="44.8601206" lon="7.9078004"><ele>308.0</ele><time>2026-05-01T08:46:47.878Z</time></trkpt><trkpt lat="44.8601421" lon="7.9076309"><ele>308.0</ele><time>2026-05-01T08:46:48.878Z</time></trkpt><trkpt lat="44.8601592" lon="7.9074512"><ele>308.0</ele><time>2026-05-01T08:46:49.879Z</time></trkpt><trkpt lat="44.8601417" lon="7.9072572"><ele>308.0</ele><time>2026-05-01T08:46:50.878Z</time></trkpt><trkpt lat="44.8600945" lon="7.9070634"><ele>308.5</ele><time>2026-05-01T08:46:51.878Z</time></trkpt><trkpt lat="44.8600293" lon="7.906867"><ele>309.0</ele><time>2026-05-01T08:46:52.878Z</time></trkpt><trkpt lat="44.8599529" lon="7.9066869"><ele>309.5</ele><time>2026-05-01T08:46:53.878Z</time></trkpt><trkpt lat="44.8598787" lon="7.9065138"><ele>310.0</ele><time>2026-05-01T08:46:54.878Z</time></trkpt><trkpt lat="44.8598088" lon="7.9063455"><ele>310.0</ele><time>2026-05-01T08:46:55.878Z</time></trkpt><trkpt lat="44.8597467" lon="7.906197"><ele>310.0</ele><time>2026-05-01T08:46:56.878Z</time></trkpt><trkpt lat="44.8596872" lon="7.9060381"><ele>310.0</ele><time>2026-05-01T08:46:57.878Z</time></trkpt><trkpt lat="44.8596319" lon="7.9058952"><ele>310.0</ele><time>2026-05-01T08:46:58.878Z</time></trkpt><trkpt lat="44.8595835" lon="7.9057478"><ele>309.2</ele><time>2026-05-01T08:46:59.879Z</time></trkpt><trkpt lat="44.8595508" lon="7.9055976"><ele>308.4</ele><time>2026-05-01T08:47:00.878Z</time></trkpt><trkpt lat="44.8595439" lon="7.9054411"><ele>307.6</ele><time>2026-05-01T08:47:01.878Z</time></trkpt><trkpt lat="44.8595448" lon="7.9052896"><ele>306.8</ele><time>2026-05-01T08:47:02.879Z</time></trkpt><trkpt lat="44.8595646" lon="7.9051687"><ele>306.0</ele><time>2026-05-01T08:47:03.878Z</time></trkpt><trkpt lat="44.8595926" lon="7.9050546"><ele>306.0</ele><time>2026-05-01T08:47:04.878Z</time></trkpt><trkpt lat="44.8596161" lon="7.904897"><ele>306.0</ele><time>2026-05-01T08:47:05.878Z</time></trkpt><trkpt lat="44.8596397" lon="7.9047563"><ele>306.0</ele><time>2026-05-01T08:47:06.878Z</time></trkpt><trkpt lat="44.8596782" lon="7.9046173"><ele>306.0</ele><time>2026-05-01T08:47:07.878Z</time></trkpt><trkpt lat="44.8597044" lon="7.9044651"><ele>306.0</ele><time>2026-05-01T08:47:08.878Z</time></trkpt><trkpt lat="44.859728" lon="7.9042968"><ele>306.5</ele><time>2026-05-01T08:47:09.878Z</time></trkpt><trkpt lat="44.8597547" lon="7.9041417"><ele>307.0</ele><time>2026-05-01T08:47:10.878Z</time></trkpt><trkpt lat="44.859772" lon="7.903989"><ele>307.5</ele><time>2026-05-01T08:47:11.878Z</time></trkpt><trkpt lat="44.8597965" lon="7.9038246"><ele>308.0</ele><time>2026-05-01T08:47:12.878Z</time></trkpt><trkpt lat="44.8598121" lon="7.9036708"><ele>308.0</ele><time>2026-05-01T08:47:13.878Z</time></trkpt><trkpt lat="44.8598335" lon="7.9035051"><ele>308.0</ele><time>2026-05-01T08:47:14.878Z</time></trkpt><trkpt lat="44.8598619" lon="7.903348"><ele>308.0</ele><time>2026-05-01T08:47:15.879Z</time></trkpt><trkpt lat="44.8598863" lon="7.9031682"><ele>308.0</ele><time>2026-05-01T08:47:16.878Z</time></trkpt><trkpt lat="44.8599201" lon="7.9029899"><ele>307.25</ele><time>2026-05-01T08:47:17.878Z</time></trkpt><trkpt lat="44.8599535" lon="7.9028213"><ele>306.5</ele><time>2026-05-01T08:47:18.879Z</time></trkpt><trkpt lat="44.8599981" lon="7.9026492"><ele>305.75</ele><time>2026-05-01T08:47:19.879Z</time></trkpt><trkpt lat="44.8600471" lon="7.9025"><ele>305.0</ele><time>2026-05-01T08:47:20.878Z</time></trkpt><trkpt lat="44.8600823" lon="7.9023404"><ele>305.5</ele><time>2026-05-01T08:47:21.878Z</time></trkpt><trkpt lat="44.8601184" lon="7.9021757"><ele>306.0</ele><time>2026-05-01T08:47:22.878Z</time></trkpt><trkpt lat="44.8601492" lon="7.9020236"><ele>306.5</ele><time>2026-05-01T08:47:23.878Z</time></trkpt><trkpt lat="44.8601788" lon="7.9018601"><ele>307.0</ele><time>2026-05-01T08:47:24.878Z</time></trkpt><trkpt lat="44.8602039" lon="7.9017111"><ele>307.0</ele><time>2026-05-01T08:47:25.878Z</time></trkpt><trkpt lat="44.8602349" lon="7.9015734"><ele>307.0</ele><time>2026-05-01T08:47:26.878Z</time></trkpt><trkpt lat="44.8602574" lon="7.9014335"><ele>307.0</ele><time>2026-05-01T08:47:27.878Z</time></trkpt><trkpt lat="44.8602702" lon="7.9012971"><ele>307.0</ele><time>2026-05-01T08:47:28.878Z</time></trkpt><trkpt lat="44.8603173" lon="7.9011884"><ele>307.0</ele><time>2026-05-01T08:47:29.878Z</time></trkpt><trkpt lat="44.860371" lon="7.9010758"><ele>307.0</ele><time>2026-05-01T08:47:30.878Z</time></trkpt><trkpt lat="44.8604396" lon="7.9009937"><ele>307.0</ele><time>2026-05-01T08:47:31.878Z</time></trkpt><trkpt lat="44.8605154" lon="7.9009292"><ele>307.0</ele><time>2026-05-01T08:47:32.878Z</time></trkpt><trkpt lat="44.8605895" lon="7.9008394"><ele>307.0</ele><time>2026-05-01T08:47:33.878Z</time></trkpt><trkpt lat="44.8606671" lon="7.9007406"><ele>307.0</ele><time>2026-05-01T08:47:34.878Z</time></trkpt><trkpt lat="44.860754" lon="7.9006204"><ele>307.0</ele><time>2026-05-01T08:47:35.878Z</time></trkpt><trkpt lat="44.8608409" lon="7.9005103"><ele>307.0</ele><time>2026-05-01T08:47:36.879Z</time></trkpt><trkpt lat="44.8609365" lon="7.9003947"><ele>307.0</ele><time>2026-05-01T08:47:37.878Z</time></trkpt><trkpt lat="44.8610158" lon="7.9002589"><ele>307.0</ele><time>2026-05-01T08:47:38.878Z</time></trkpt><trkpt lat="44.8611089" lon="7.9001392"><ele>305.75</ele><time>2026-05-01T08:47:39.878Z</time></trkpt><trkpt lat="44.8611902" lon="7.9000341"><ele>304.5</ele><time>2026-05-01T08:47:40.878Z</time></trkpt><trkpt lat="44.8612658" lon="7.8999121"><ele>303.25</ele><time>2026-05-01T08:47:41.878Z</time></trkpt><trkpt lat="44.861351" lon="7.899784"><ele>302.0</ele><time>2026-05-01T08:47:42.878Z</time></trkpt><trkpt lat="44.861433" lon="7.8996538"><ele>302.0</ele><time>2026-05-01T08:47:43.878Z</time></trkpt><trkpt lat="44.8615073" lon="7.8995179"><ele>302.0</ele><time>2026-05-01T08:47:44.878Z</time></trkpt><trkpt lat="44.861597" lon="7.8993926"><ele>302.0</ele><time>2026-05-01T08:47:45.878Z</time></trkpt><trkpt lat="44.8616776" lon="7.8992713"><ele>302.0</ele><time>2026-05-01T08:47:46.878Z</time></trkpt><trkpt lat="44.8617475" lon="7.8991285"><ele>299.75</ele><time>2026-05-01T08:47:47.878Z</time></trkpt><trkpt lat="44.8618266" lon="7.8990104"><ele>297.5</ele><time>2026-05-01T08:47:48.878Z</time></trkpt><trkpt lat="44.8619208" lon="7.8989333"><ele>295.25</ele><time>2026-05-01T08:47:49.878Z</time></trkpt><trkpt lat="44.8620441" lon="7.8988789"><ele>293.0</ele><time>2026-05-01T08:47:50.878Z</time></trkpt><trkpt lat="44.8621623" lon="7.8988134"><ele>293.0</ele><time>2026-05-01T08:47:51.878Z</time></trkpt><trkpt lat="44.8622803" lon="7.8987448"><ele>293.0</ele><time>2026-05-01T08:47:52.878Z</time></trkpt><trkpt lat="44.8623974" lon="7.8986837"><ele>293.0</ele><time>2026-05-01T08:47:53.878Z</time></trkpt><trkpt lat="44.8625044" lon="7.8986228"><ele>293.0</ele><time>2026-05-01T08:47:54.878Z</time></trkpt><trkpt lat="44.8626022" lon="7.8985698"><ele>292.0</ele><time>2026-05-01T08:47:55.878Z</time></trkpt><trkpt lat="44.8626811" lon="7.8985209"><ele>291.0</ele><time>2026-05-01T08:47:56.878Z</time></trkpt><trkpt lat="44.862744" lon="7.8984549"><ele>290.0</ele><time>2026-05-01T08:47:57.878Z</time></trkpt><trkpt lat="44.8627898" lon="7.8983726"><ele>289.0</ele><time>2026-05-01T08:47:58.878Z</time></trkpt><trkpt lat="44.8628114" lon="7.8982697"><ele>288.0</ele><time>2026-05-01T08:47:59.878Z</time></trkpt><trkpt lat="44.8628186" lon="7.8981333"><ele>287.0</ele><time>2026-05-01T08:48:00.879Z</time></trkpt><trkpt lat="44.8628346" lon="7.8979894"><ele>287.0</ele><time>2026-05-01T08:48:01.878Z</time></trkpt><trkpt lat="44.8628551" lon="7.8978303"><ele>287.0</ele><time>2026-05-01T08:48:02.878Z</time></trkpt><trkpt lat="44.8628742" lon="7.8976843"><ele>287.0</ele><time>2026-05-01T08:48:03.878Z</time></trkpt><trkpt lat="44.8628782" lon="7.8975415"><ele>287.0</ele><time>2026-05-01T08:48:04.878Z</time></trkpt><trkpt lat="44.8628756" lon="7.8974084"><ele>287.0</ele><time>2026-05-01T08:48:05.878Z</time></trkpt><trkpt lat="44.8628782" lon="7.8972857"><ele>285.0</ele><time>2026-05-01T08:48:06.878Z</time></trkpt><trkpt lat="44.8628882" lon="7.8971805"><ele>283.0</ele><time>2026-05-01T08:48:07.878Z</time></trkpt><trkpt lat="44.86289" lon="7.897036"><ele>281.0</ele><time>2026-05-01T08:48:09.878Z</time></trkpt><trkpt lat="44.8629128" lon="7.8969228"><ele>279.0</ele><time>2026-05-01T08:48:11.878Z</time></trkpt><trkpt lat="44.8628479" lon="7.8968193"><ele>277.0</ele><time>2026-05-01T08:48:13.878Z</time></trkpt><trkpt lat="44.8627865" lon="7.8967843"><ele>275.0</ele><time>2026-05-01T08:48:14.878Z</time></trkpt><trkpt lat="44.8627265" lon="7.8967438"><ele>274.1666666666667</ele><time>2026-05-01T08:48:15.878Z</time></trkpt><trkpt lat="44.8626446" lon="7.896696"><ele>273.33333333333337</ele><time>2026-05-01T08:48:16.878Z</time></trkpt><trkpt lat="44.8625741" lon="7.8966779"><ele>272.5</ele><time>2026-05-01T08:48:17.878Z</time></trkpt><trkpt lat="44.8624943" lon="7.8966474"><ele>271.6666666666667</ele><time>2026-05-01T08:48:18.878Z</time></trkpt><trkpt lat="44.8624223" lon="7.8966118"><ele>270.8333333333333</ele><time>2026-05-01T08:48:19.878Z</time></trkpt><trkpt lat="44.8623694" lon="7.8965606"><ele>270.0</ele><time>2026-05-01T08:48:20.878Z</time></trkpt><trkpt lat="44.8623202" lon="7.8964851"><ele>270.0</ele><time>2026-05-01T08:48:21.878Z</time></trkpt><trkpt lat="44.8622819" lon="7.8964047"><ele>270.0</ele><time>2026-05-01T08:48:22.878Z</time></trkpt><trkpt lat="44.862242" lon="7.8963169"><ele>270.0</ele><time>2026-05-01T08:48:23.878Z</time></trkpt><trkpt lat="44.8621879" lon="7.896182"><ele>270.0</ele><time>2026-05-01T08:48:25.878Z</time></trkpt><trkpt lat="44.8621784" lon="7.8960303"><ele>270.0</ele><time>2026-05-01T08:48:27.878Z</time></trkpt><trkpt lat="44.8621611" lon="7.8958556"><ele>269.1666666666667</ele><time>2026-05-01T08:48:29.878Z</time></trkpt><trkpt lat="44.8621173" lon="7.8957582"><ele>268.3333333333333</ele><time>2026-05-01T08:48:30.878Z</time></trkpt><trkpt lat="44.8620642" lon="7.8956829"><ele>267.5</ele><time>2026-05-01T08:48:31.878Z</time></trkpt><trkpt lat="44.8619971" lon="7.8956105"><ele>266.66666666666663</ele><time>2026-05-01T08:48:32.878Z</time></trkpt><trkpt lat="44.8619264" lon="7.8955267"><ele>265.8333333333333</ele><time>2026-05-01T08:48:33.878Z</time></trkpt><trkpt lat="44.8618566" lon="7.8954245"><ele>265.0</ele><time>2026-05-01T08:48:34.878Z</time></trkpt><trkpt lat="44.8617939" lon="7.8953056"><ele>265.0</ele><time>2026-05-01T08:48:35.878Z</time></trkpt><trkpt lat="44.8617215" lon="7.895171"><ele>265.0</ele><time>2026-05-01T08:48:36.878Z</time></trkpt><trkpt lat="44.8616511" lon="7.8950184"><ele>265.0</ele><time>2026-05-01T08:48:37.878Z</time></trkpt><trkpt lat="44.861578" lon="7.8948648"><ele>265.0</ele><time>2026-05-01T08:48:38.879Z</time></trkpt><trkpt lat="44.8615017" lon="7.8946911"><ele>264.5</ele><time>2026-05-01T08:48:39.878Z</time></trkpt><trkpt lat="44.8614197" lon="7.8945177"><ele>264.0</ele><time>2026-05-01T08:48:40.878Z</time></trkpt><trkpt lat="44.8613348" lon="7.8943482"><ele>263.5</ele><time>2026-05-01T08:48:41.878Z</time></trkpt><trkpt lat="44.8612511" lon="7.8941734"><ele>263.0</ele><time>2026-05-01T08:48:42.878Z</time></trkpt><trkpt lat="44.8611595" lon="7.8939883"><ele>262.33333333333337</ele><time>2026-05-01T08:48:43.878Z</time></trkpt><trkpt lat="44.86107" lon="7.8937939"><ele>261.6666666666667</ele><time>2026-05-01T08:48:44.878Z</time></trkpt><trkpt lat="44.8609827" lon="7.8935894"><ele>261.0</ele><time>2026-05-01T08:48:45.878Z</time></trkpt><trkpt lat="44.8608997" lon="7.8933859"><ele>262.3333333333333</ele><time>2026-05-01T08:48:46.878Z</time></trkpt><trkpt lat="44.8608242" lon="7.8931814"><ele>263.66666666666663</ele><time>2026-05-01T08:48:47.878Z</time></trkpt><trkpt lat="44.8607594" lon="7.8929865"><ele>265.0</ele><time>2026-05-01T08:48:48.878Z</time></trkpt><trkpt lat="44.8607081" lon="7.8927954"><ele>265.0</ele><time>2026-05-01T08:48:49.879Z</time></trkpt><trkpt lat="44.8606588" lon="7.892606"><ele>265.0</ele><time>2026-05-01T08:48:50.878Z</time></trkpt><trkpt lat="44.8606103" lon="7.8924159"><ele>265.0</ele><time>2026-05-01T08:48:51.878Z</time></trkpt><trkpt lat="44.8605594" lon="7.8922246"><ele>265.0</ele><time>2026-05-01T08:48:52.878Z</time></trkpt><trkpt lat="44.8605162" lon="7.8920385"><ele>265.5</ele><time>2026-05-01T08:48:53.878Z</time></trkpt><trkpt lat="44.86047" lon="7.8918502"><ele>266.0</ele><time>2026-05-01T08:48:54.878Z</time></trkpt><trkpt lat="44.8604188" lon="7.8916456"><ele>266.5</ele><time>2026-05-01T08:48:55.878Z</time></trkpt><trkpt lat="44.8603761" lon="7.8914536"><ele>267.0</ele><time>2026-05-01T08:48:56.878Z</time></trkpt><trkpt lat="44.8603248" lon="7.891272"><ele>267.0</ele><time>2026-05-01T08:48:57.878Z</time></trkpt><trkpt lat="44.8602626" lon="7.8910533"><ele>267.0</ele><time>2026-05-01T08:48:58.878Z</time></trkpt><trkpt lat="44.8602105" lon="7.890826"><ele>267.0</ele><time>2026-05-01T08:48:59.879Z</time></trkpt><trkpt lat="44.8601628" lon="7.8905762"><ele>268.0</ele><time>2026-05-01T08:49:00.879Z</time></trkpt><trkpt lat="44.8601153" lon="7.8903125"><ele>269.0</ele><time>2026-05-01T08:49:01.878Z</time></trkpt><trkpt lat="44.8600593" lon="7.8900653"><ele>270.0</ele><time>2026-05-01T08:49:02.878Z</time></trkpt><trkpt lat="44.859998" lon="7.8897935"><ele>270.0</ele><time>2026-05-01T08:49:03.878Z</time></trkpt><trkpt lat="44.8599369" lon="7.8895254"><ele>270.0</ele><time>2026-05-01T08:49:04.878Z</time></trkpt><trkpt lat="44.8598747" lon="7.889251"><ele>270.0</ele><time>2026-05-01T08:49:05.878Z</time></trkpt><trkpt lat="44.8598128" lon="7.8889831"><ele>270.0</ele><time>2026-05-01T08:49:06.878Z</time></trkpt><trkpt lat="44.8597462" lon="7.8886988"><ele>270.0</ele><time>2026-05-01T08:49:07.878Z</time></trkpt><trkpt lat="44.859682" lon="7.8883978"><ele>270.0</ele><time>2026-05-01T08:49:08.878Z</time></trkpt><trkpt lat="44.8596184" lon="7.8880987"><ele>269.5</ele><time>2026-05-01T08:49:09.878Z</time></trkpt><trkpt lat="44.8595418" lon="7.8877806"><ele>269.0</ele><time>2026-05-01T08:49:10.879Z</time></trkpt><trkpt lat="44.8594654" lon="7.8874616"><ele>267.0</ele><time>2026-05-01T08:49:11.878Z</time></trkpt><trkpt lat="44.8593842" lon="7.8871265"><ele>265.0</ele><time>2026-05-01T08:49:12.878Z</time></trkpt><trkpt lat="44.8593033" lon="7.8867926"><ele>265.5</ele><time>2026-05-01T08:49:13.878Z</time></trkpt><trkpt lat="44.8592311" lon="7.8864559"><ele>266.0</ele><time>2026-05-01T08:49:14.878Z</time></trkpt><trkpt lat="44.8591636" lon="7.8861135"><ele>267.5</ele><time>2026-05-01T08:49:15.879Z</time></trkpt><trkpt lat="44.8590938" lon="7.8857758"><ele>269.0</ele><time>2026-05-01T08:49:16.878Z</time></trkpt><trkpt lat="44.8590186" lon="7.8854452"><ele>269.0</ele><time>2026-05-01T08:49:17.878Z</time></trkpt><trkpt lat="44.8589412" lon="7.8851164"><ele>269.0</ele><time>2026-05-01T08:49:18.878Z</time></trkpt><trkpt lat="44.858873" lon="7.8848043"><ele>268.0</ele><time>2026-05-01T08:49:19.878Z</time></trkpt><trkpt lat="44.8588012" lon="7.8844763"><ele>267.0</ele><time>2026-05-01T08:49:20.879Z</time></trkpt><trkpt lat="44.8587325" lon="7.8841551"><ele>266.0</ele><time>2026-05-01T08:49:21.878Z</time></trkpt><trkpt lat="44.8586614" lon="7.8838458"><ele>265.0</ele><time>2026-05-01T08:49:22.878Z</time></trkpt><trkpt lat="44.8585891" lon="7.8835349"><ele>266.0</ele><time>2026-05-01T08:49:23.878Z</time></trkpt><trkpt lat="44.8585198" lon="7.8832293"><ele>267.0</ele><time>2026-05-01T08:49:24.878Z</time></trkpt><trkpt lat="44.8584414" lon="7.8829201"><ele>267.0</ele><time>2026-05-01T08:49:25.878Z</time></trkpt><trkpt lat="44.8583693" lon="7.882612"><ele>267.0</ele><time>2026-05-01T08:49:26.878Z</time></trkpt><trkpt lat="44.8583006" lon="7.8823067"><ele>267.0</ele><time>2026-05-01T08:49:27.878Z</time></trkpt><trkpt lat="44.8582302" lon="7.882003"><ele>267.0</ele><time>2026-05-01T08:49:28.878Z</time></trkpt><trkpt lat="44.8581623" lon="7.8816902"><ele>267.0</ele><time>2026-05-01T08:49:29.878Z</time></trkpt><trkpt lat="44.8581022" lon="7.8813707"><ele>267.0</ele><time>2026-05-01T08:49:30.878Z</time></trkpt><trkpt lat="44.858056" lon="7.8810408"><ele>266.5</ele><time>2026-05-01T08:49:31.878Z</time></trkpt><trkpt lat="44.8580165" lon="7.8807105"><ele>266.0</ele><time>2026-05-01T08:49:32.878Z</time></trkpt><trkpt lat="44.8579898" lon="7.8803808"><ele>265.5</ele><time>2026-05-01T08:49:33.878Z</time></trkpt><trkpt lat="44.8579737" lon="7.8800547"><ele>265.0</ele><time>2026-05-01T08:49:34.878Z</time></trkpt><trkpt lat="44.8579756" lon="7.8797299"><ele>265.0</ele><time>2026-05-01T08:49:35.878Z</time></trkpt><trkpt lat="44.8579845" lon="7.8793971"><ele>265.0</ele><time>2026-05-01T08:49:36.878Z</time></trkpt><trkpt lat="44.8579917" lon="7.8790614"><ele>266.0</ele><time>2026-05-01T08:49:37.878Z</time></trkpt><trkpt lat="44.8579995" lon="7.8787208"><ele>267.0</ele><time>2026-05-01T08:49:38.878Z</time></trkpt><trkpt lat="44.8580143" lon="7.8783876"><ele>267.0</ele><time>2026-05-01T08:49:39.878Z</time></trkpt><trkpt lat="44.8580247" lon="7.8780564"><ele>267.0</ele><time>2026-05-01T08:49:40.878Z</time></trkpt><trkpt lat="44.8580345" lon="7.8777196"><ele>266.5</ele><time>2026-05-01T08:49:41.878Z</time></trkpt><trkpt lat="44.8580435" lon="7.8773945"><ele>266.0</ele><time>2026-05-01T08:49:42.878Z</time></trkpt><trkpt lat="44.8580536" lon="7.8770638"><ele>267.5</ele><time>2026-05-01T08:49:43.878Z</time></trkpt><trkpt lat="44.8580645" lon="7.8767397"><ele>269.0</ele><time>2026-05-01T08:49:44.878Z</time></trkpt><trkpt lat="44.8580734" lon="7.8764179"><ele>269.0</ele><time>2026-05-01T08:49:45.878Z</time></trkpt><trkpt lat="44.8580821" lon="7.8760927"><ele>269.0</ele><time>2026-05-01T08:49:46.878Z</time></trkpt><trkpt lat="44.8580861" lon="7.8757851"><ele>269.0</ele><time>2026-05-01T08:49:47.878Z</time></trkpt><trkpt lat="44.8580733" lon="7.8754771"><ele>270.0</ele><time>2026-05-01T08:49:48.878Z</time></trkpt><trkpt lat="44.858044" lon="7.8751718"><ele>271.0</ele><time>2026-05-01T08:49:49.878Z</time></trkpt><trkpt lat="44.8580054" lon="7.8748754"><ele>272.0</ele><time>2026-05-01T08:49:50.878Z</time></trkpt><trkpt lat="44.8579542" lon="7.8745801"><ele>272.6666666666667</ele><time>2026-05-01T08:49:51.878Z</time></trkpt><trkpt lat="44.8578795" lon="7.8742841"><ele>273.3333333333333</ele><time>2026-05-01T08:49:52.878Z</time></trkpt><trkpt lat="44.8578036" lon="7.8739935"><ele>274.0</ele><time>2026-05-01T08:49:53.878Z</time></trkpt><trkpt lat="44.8577229" lon="7.8737014"><ele>275.0</ele><time>2026-05-01T08:49:54.878Z</time></trkpt><trkpt lat="44.8576422" lon="7.8734058"><ele>276.0</ele><time>2026-05-01T08:49:55.878Z</time></trkpt><trkpt lat="44.8575559" lon="7.8731103"><ele>276.0</ele><time>2026-05-01T08:49:56.878Z</time></trkpt><trkpt lat="44.8574709" lon="7.8728076"><ele>276.0</ele><time>2026-05-01T08:49:57.878Z</time></trkpt><trkpt lat="44.8573805" lon="7.8725032"><ele>276.5</ele><time>2026-05-01T08:49:58.878Z</time></trkpt><trkpt lat="44.8572966" lon="7.8721957"><ele>277.0</ele><time>2026-05-01T08:49:59.879Z</time></trkpt><trkpt lat="44.8572124" lon="7.8718859"><ele>278.0</ele><time>2026-05-01T08:50:00.878Z</time></trkpt><trkpt lat="44.8571293" lon="7.8715728"><ele>279.0</ele><time>2026-05-01T08:50:01.878Z</time></trkpt><trkpt lat="44.8570413" lon="7.871257"><ele>279.0</ele><time>2026-05-01T08:50:02.878Z</time></trkpt><trkpt lat="44.8569569" lon="7.8709409"><ele>279.0</ele><time>2026-05-01T08:50:03.878Z</time></trkpt><trkpt lat="44.8568671" lon="7.8706309"><ele>279.5</ele><time>2026-05-01T08:50:04.878Z</time></trkpt><trkpt lat="44.8567796" lon="7.8703194"><ele>280.0</ele><time>2026-05-01T08:50:05.878Z</time></trkpt><trkpt lat="44.8566948" lon="7.8700069"><ele>280.5</ele><time>2026-05-01T08:50:06.878Z</time></trkpt><trkpt lat="44.8566092" lon="7.8696984"><ele>281.0</ele><time>2026-05-01T08:50:07.878Z</time></trkpt><trkpt lat="44.8565271" lon="7.8693915"><ele>281.0</ele><time>2026-05-01T08:50:08.878Z</time></trkpt><trkpt lat="44.8564383" lon="7.8690737"><ele>281.0</ele><time>2026-05-01T08:50:09.878Z</time></trkpt><trkpt lat="44.8563495" lon="7.868764"><ele>281.0</ele><time>2026-05-01T08:50:10.878Z</time></trkpt><trkpt lat="44.8562689" lon="7.8684569"><ele>281.0</ele><time>2026-05-01T08:50:11.878Z</time></trkpt><trkpt lat="44.8561847" lon="7.8681594"><ele>280.0</ele><time>2026-05-01T08:50:12.878Z</time></trkpt><trkpt lat="44.8560976" lon="7.8678494"><ele>279.0</ele><time>2026-05-01T08:50:13.878Z</time></trkpt><trkpt lat="44.8560173" lon="7.8675502"><ele>279.6666666666667</ele><time>2026-05-01T08:50:14.878Z</time></trkpt><trkpt lat="44.85594" lon="7.8672577"><ele>280.33333333333337</ele><time>2026-05-01T08:50:15.878Z</time></trkpt><trkpt lat="44.8558546" lon="7.8669661"><ele>281.0</ele><time>2026-05-01T08:50:16.878Z</time></trkpt><trkpt lat="44.8557745" lon="7.8666851"><ele>281.0</ele><time>2026-05-01T08:50:17.878Z</time></trkpt><trkpt lat="44.8556904" lon="7.8664112"><ele>281.0</ele><time>2026-05-01T08:50:18.878Z</time></trkpt><trkpt lat="44.8555904" lon="7.8661464"><ele>281.0</ele><time>2026-05-01T08:50:19.878Z</time></trkpt><trkpt lat="44.8554828" lon="7.8658873"><ele>281.6666666666667</ele><time>2026-05-01T08:50:20.878Z</time></trkpt><trkpt lat="44.8553723" lon="7.8656292"><ele>282.3333333333333</ele><time>2026-05-01T08:50:21.878Z</time></trkpt><trkpt lat="44.8552563" lon="7.8653753"><ele>283.0</ele><time>2026-05-01T08:50:22.878Z</time></trkpt><trkpt lat="44.8551154" lon="7.8651199"><ele>284.5</ele><time>2026-05-01T08:50:23.878Z</time></trkpt><trkpt lat="44.8549732" lon="7.8648693"><ele>286.0</ele><time>2026-05-01T08:50:24.878Z</time></trkpt><trkpt lat="44.8548278" lon="7.8646315"><ele>286.0</ele><time>2026-05-01T08:50:25.878Z</time></trkpt><trkpt lat="44.8546842" lon="7.8644041"><ele>286.0</ele><time>2026-05-01T08:50:26.878Z</time></trkpt><trkpt lat="44.8545459" lon="7.864185"><ele>286.0</ele><time>2026-05-01T08:50:27.878Z</time></trkpt><trkpt lat="44.8544184" lon="7.86397"><ele>286.0</ele><time>2026-05-01T08:50:28.878Z</time></trkpt><trkpt lat="44.8543078" lon="7.8637405"><ele>286.0</ele><time>2026-05-01T08:50:29.878Z</time></trkpt><trkpt lat="44.8542092" lon="7.863518"><ele>286.0</ele><time>2026-05-01T08:50:30.878Z</time></trkpt><trkpt lat="44.8541204" lon="7.863284"><ele>284.66666666666663</ele><time>2026-05-01T08:50:31.878Z</time></trkpt><trkpt lat="44.8540438" lon="7.8630307"><ele>283.3333333333333</ele><time>2026-05-01T08:50:32.878Z</time></trkpt><trkpt lat="44.8539763" lon="7.8627615"><ele>282.0</ele><time>2026-05-01T08:50:33.878Z</time></trkpt><trkpt lat="44.8539241" lon="7.8624754"><ele>281.0</ele><time>2026-05-01T08:50:34.878Z</time></trkpt><trkpt lat="44.8538787" lon="7.8621712"><ele>280.0</ele><time>2026-05-01T08:50:35.878Z</time></trkpt><trkpt lat="44.8538358" lon="7.8618615"><ele>279.0</ele><time>2026-05-01T08:50:36.878Z</time></trkpt><trkpt lat="44.8537911" lon="7.861551"><ele>277.5</ele><time>2026-05-01T08:50:37.878Z</time></trkpt><trkpt lat="44.8537447" lon="7.8612324"><ele>276.0</ele><time>2026-05-01T08:50:38.878Z</time></trkpt><trkpt lat="44.853694" lon="7.8609083"><ele>276.0</ele><time>2026-05-01T08:50:39.878Z</time></trkpt><trkpt lat="44.8536486" lon="7.8605914"><ele>276.0</ele><time>2026-05-01T08:50:40.878Z</time></trkpt><trkpt lat="44.8536005" lon="7.8602704"><ele>276.0</ele><time>2026-05-01T08:50:41.878Z</time></trkpt><trkpt lat="44.8535597" lon="7.8599497"><ele>276.0</ele><time>2026-05-01T08:50:42.878Z</time></trkpt><trkpt lat="44.8535154" lon="7.8596372"><ele>276.0</ele><time>2026-05-01T08:50:43.878Z</time></trkpt><trkpt lat="44.8534724" lon="7.8593188"><ele>276.0</ele><time>2026-05-01T08:50:44.878Z</time></trkpt><trkpt lat="44.8534305" lon="7.8589908"><ele>277.0</ele><time>2026-05-01T08:50:45.878Z</time></trkpt><trkpt lat="44.8533813" lon="7.8586672"><ele>278.0</ele><time>2026-05-01T08:50:46.879Z</time></trkpt><trkpt lat="44.8533384" lon="7.8583459"><ele>279.5</ele><time>2026-05-01T08:50:47.878Z</time></trkpt><trkpt lat="44.853296" lon="7.8580221"><ele>281.0</ele><time>2026-05-01T08:50:48.878Z</time></trkpt><trkpt lat="44.8532487" lon="7.8576981"><ele>282.0</ele><time>2026-05-01T08:50:49.878Z</time></trkpt><trkpt lat="44.8532014" lon="7.8573742"><ele>283.0</ele><time>2026-05-01T08:50:50.878Z</time></trkpt><trkpt lat="44.8531505" lon="7.8570482"><ele>282.0</ele><time>2026-05-01T08:50:51.878Z</time></trkpt><trkpt lat="44.8531048" lon="7.8567171"><ele>281.0</ele><time>2026-05-01T08:50:52.878Z</time></trkpt><trkpt lat="44.8530556" lon="7.8563888"><ele>281.0</ele><time>2026-05-01T08:50:53.878Z</time></trkpt><trkpt lat="44.853009" lon="7.8560629"><ele>281.0</ele><time>2026-05-01T08:50:54.879Z</time></trkpt><trkpt lat="44.8529461" lon="7.8557304"><ele>281.5</ele><time>2026-05-01T08:50:55.878Z</time></trkpt><trkpt lat="44.8529013" lon="7.8553973"><ele>282.0</ele><time>2026-05-01T08:50:56.878Z</time></trkpt><trkpt lat="44.8528593" lon="7.8550707"><ele>281.0</ele><time>2026-05-01T08:50:57.878Z</time></trkpt><trkpt lat="44.8528112" lon="7.8547288"><ele>280.0</ele><time>2026-05-01T08:50:58.878Z</time></trkpt><trkpt lat="44.852765" lon="7.8543899"><ele>279.5</ele><time>2026-05-01T08:50:59.878Z</time></trkpt><trkpt lat="44.8527237" lon="7.8540633"><ele>279.0</ele><time>2026-05-01T08:51:00.878Z</time></trkpt><trkpt lat="44.8526743" lon="7.8537344"><ele>279.0</ele><time>2026-05-01T08:51:01.878Z</time></trkpt><trkpt lat="44.8526335" lon="7.8533969"><ele>279.0</ele><time>2026-05-01T08:51:02.878Z</time></trkpt><trkpt lat="44.852588" lon="7.8530607"><ele>279.5</ele><time>2026-05-01T08:51:03.878Z</time></trkpt><trkpt lat="44.8525423" lon="7.8527231"><ele>280.0</ele><time>2026-05-01T08:51:04.878Z</time></trkpt><trkpt lat="44.8524968" lon="7.8523902"><ele>280.0</ele><time>2026-05-01T08:51:05.879Z</time></trkpt><trkpt lat="44.8524422" lon="7.8520529"><ele>280.0</ele><time>2026-05-01T08:51:06.878Z</time></trkpt><trkpt lat="44.8523851" lon="7.8517066"><ele>280.0</ele><time>2026-05-01T08:51:07.878Z</time></trkpt><trkpt lat="44.8523337" lon="7.8513713"><ele>280.0</ele><time>2026-05-01T08:51:08.878Z</time></trkpt><trkpt lat="44.8522844" lon="7.8510357"><ele>280.5</ele><time>2026-05-01T08:51:09.879Z</time></trkpt><trkpt lat="44.8522317" lon="7.8507087"><ele>281.0</ele><time>2026-05-01T08:51:10.878Z</time></trkpt><trkpt lat="44.8521898" lon="7.8503829"><ele>281.5</ele><time>2026-05-01T08:51:11.878Z</time></trkpt><trkpt lat="44.85214" lon="7.8500475"><ele>282.0</ele><time>2026-05-01T08:51:12.878Z</time></trkpt><trkpt lat="44.8520844" lon="7.8497421"><ele>282.0</ele><time>2026-05-01T08:51:13.878Z</time></trkpt><trkpt lat="44.8520355" lon="7.8494386"><ele>282.0</ele><time>2026-05-01T08:51:14.878Z</time></trkpt><trkpt lat="44.8519859" lon="7.8491474"><ele>282.0</ele><time>2026-05-01T08:51:15.878Z</time></trkpt><trkpt lat="44.8519251" lon="7.8488788"><ele>281.3333333333333</ele><time>2026-05-01T08:51:16.879Z</time></trkpt><trkpt lat="44.8518361" lon="7.8485833"><ele>280.66666666666663</ele><time>2026-05-01T08:51:17.878Z</time></trkpt><trkpt lat="44.8517423" lon="7.8483052"><ele>280.0</ele><time>2026-05-01T08:51:18.878Z</time></trkpt><trkpt lat="44.8516232" lon="7.8480181"><ele>279.3333333333333</ele><time>2026-05-01T08:51:19.878Z</time></trkpt><trkpt lat="44.8515146" lon="7.847746"><ele>278.6666666666667</ele><time>2026-05-01T08:51:20.878Z</time></trkpt><trkpt lat="44.85141" lon="7.8474625"><ele>278.0</ele><time>2026-05-01T08:51:21.878Z</time></trkpt><trkpt lat="44.8512969" lon="7.8471771"><ele>276.0</ele><time>2026-05-01T08:51:22.878Z</time></trkpt><trkpt lat="44.8511872" lon="7.8469016"><ele>274.0</ele><time>2026-05-01T08:51:23.878Z</time></trkpt><trkpt lat="44.8510785" lon="7.8466122"><ele>274.0</ele><time>2026-05-01T08:51:24.878Z</time></trkpt><trkpt lat="44.8509671" lon="7.8463327"><ele>274.0</ele><time>2026-05-01T08:51:25.878Z</time></trkpt><trkpt lat="44.8508612" lon="7.8460557"><ele>271.5</ele><time>2026-05-01T08:51:26.878Z</time></trkpt><trkpt lat="44.8507549" lon="7.8457741"><ele>269.0</ele><time>2026-05-01T08:51:27.878Z</time></trkpt><trkpt lat="44.8506695" lon="7.8454812"><ele>269.0</ele><time>2026-05-01T08:51:28.878Z</time></trkpt><trkpt lat="44.8505945" lon="7.8451821"><ele>269.0</ele><time>2026-05-01T08:51:29.878Z</time></trkpt><trkpt lat="44.8505506" lon="7.8448739"><ele>269.0</ele><time>2026-05-01T08:51:30.878Z</time></trkpt><trkpt lat="44.8505235" lon="7.8445553"><ele>271.0</ele><time>2026-05-01T08:51:31.878Z</time></trkpt><trkpt lat="44.8505121" lon="7.8442255"><ele>273.0</ele><time>2026-05-01T08:51:32.878Z</time></trkpt><trkpt lat="44.8505175" lon="7.8439055"><ele>273.0</ele><time>2026-05-01T08:51:33.878Z</time></trkpt><trkpt lat="44.8505349" lon="7.8435704"><ele>273.0</ele><time>2026-05-01T08:51:34.878Z</time></trkpt><trkpt lat="44.8505761" lon="7.8432343"><ele>273.5</ele><time>2026-05-01T08:51:35.878Z</time></trkpt><trkpt lat="44.8506128" lon="7.8429059"><ele>274.0</ele><time>2026-05-01T08:51:36.878Z</time></trkpt><trkpt lat="44.850658" lon="7.8425712"><ele>275.5</ele><time>2026-05-01T08:51:37.878Z</time></trkpt><trkpt lat="44.850704" lon="7.8422277"><ele>277.0</ele><time>2026-05-01T08:51:38.878Z</time></trkpt><trkpt lat="44.8507516" lon="7.8418902"><ele>277.5</ele><time>2026-05-01T08:51:39.878Z</time></trkpt><trkpt lat="44.850799" lon="7.8415462"><ele>278.0</ele><time>2026-05-01T08:51:40.878Z</time></trkpt><trkpt lat="44.8508408" lon="7.8412107"><ele>277.5</ele><time>2026-05-01T08:51:41.878Z</time></trkpt><trkpt lat="44.8508823" lon="7.8408851"><ele>277.0</ele><time>2026-05-01T08:51:42.878Z</time></trkpt><trkpt lat="44.8509199" lon="7.8405526"><ele>277.0</ele><time>2026-05-01T08:51:43.879Z</time></trkpt><trkpt lat="44.8509544" lon="7.8402267"><ele>277.0</ele><time>2026-05-01T08:51:44.878Z</time></trkpt><trkpt lat="44.850995" lon="7.8398929"><ele>277.0</ele><time>2026-05-01T08:51:45.878Z</time></trkpt><trkpt lat="44.8510381" lon="7.8395549"><ele>277.0</ele><time>2026-05-01T08:51:46.878Z</time></trkpt><trkpt lat="44.8510846" lon="7.8392161"><ele>277.0</ele><time>2026-05-01T08:51:47.878Z</time></trkpt><trkpt lat="44.851123" lon="7.8388769"><ele>277.0</ele><time>2026-05-01T08:51:48.878Z</time></trkpt><trkpt lat="44.8511621" lon="7.8385406"><ele>277.0</ele><time>2026-05-01T08:51:49.878Z</time></trkpt><trkpt lat="44.8511986" lon="7.8382057"><ele>277.0</ele><time>2026-05-01T08:51:50.878Z</time></trkpt><trkpt lat="44.851236" lon="7.837869"><ele>277.0</ele><time>2026-05-01T08:51:51.878Z</time></trkpt><trkpt lat="44.8512776" lon="7.8375332"><ele>277.0</ele><time>2026-05-01T08:51:52.878Z</time></trkpt><trkpt lat="44.85132" lon="7.837196"><ele>277.0</ele><time>2026-05-01T08:51:53.878Z</time></trkpt><trkpt lat="44.8513624" lon="7.836866"><ele>277.0</ele><time>2026-05-01T08:51:54.878Z</time></trkpt><trkpt lat="44.8514135" lon="7.8365315"><ele>276.5</ele><time>2026-05-01T08:51:55.878Z</time></trkpt><trkpt lat="44.8514804" lon="7.8361987"><ele>276.0</ele><time>2026-05-01T08:51:56.879Z</time></trkpt><trkpt lat="44.8515412" lon="7.8358617"><ele>276.0</ele><time>2026-05-01T08:51:57.878Z</time></trkpt><trkpt lat="44.8516088" lon="7.835541"><ele>276.0</ele><time>2026-05-01T08:51:58.878Z</time></trkpt><trkpt lat="44.8516855" lon="7.8352092"><ele>276.5</ele><time>2026-05-01T08:51:59.878Z</time></trkpt><trkpt lat="44.8517696" lon="7.8348973"><ele>277.0</ele><time>2026-05-01T08:52:00.878Z</time></trkpt><trkpt lat="44.8518577" lon="7.8345851"><ele>276.5</ele><time>2026-05-01T08:52:01.878Z</time></trkpt><trkpt lat="44.8519534" lon="7.8342576"><ele>276.0</ele><time>2026-05-01T08:52:02.878Z</time></trkpt><trkpt lat="44.852035" lon="7.8339199"><ele>276.0</ele><time>2026-05-01T08:52:03.878Z</time></trkpt><trkpt lat="44.8521288" lon="7.8336112"><ele>276.0</ele><time>2026-05-01T08:52:04.878Z</time></trkpt><trkpt lat="44.852221" lon="7.8333072"><ele>276.5</ele><time>2026-05-01T08:52:05.878Z</time></trkpt><trkpt lat="44.8523094" lon="7.8329969"><ele>277.0</ele><time>2026-05-01T08:52:06.879Z</time></trkpt><trkpt lat="44.8524056" lon="7.8326895"><ele>276.0</ele><time>2026-05-01T08:52:07.878Z</time></trkpt><trkpt lat="44.8525004" lon="7.8323739"><ele>275.0</ele><time>2026-05-01T08:52:08.878Z</time></trkpt><trkpt lat="44.8525874" lon="7.8320621"><ele>274.5</ele><time>2026-05-01T08:52:09.878Z</time></trkpt><trkpt lat="44.852682" lon="7.8317567"><ele>274.0</ele><time>2026-05-01T08:52:10.878Z</time></trkpt><trkpt lat="44.8527804" lon="7.8314476"><ele>274.0</ele><time>2026-05-01T08:52:11.878Z</time></trkpt><trkpt lat="44.8528809" lon="7.831142"><ele>274.0</ele><time>2026-05-01T08:52:12.878Z</time></trkpt><trkpt lat="44.8529887" lon="7.8308418"><ele>274.0</ele><time>2026-05-01T08:52:13.878Z</time></trkpt><trkpt lat="44.8531047" lon="7.8305521"><ele>274.0</ele><time>2026-05-01T08:52:14.878Z</time></trkpt><trkpt lat="44.8532313" lon="7.8302748"><ele>274.0</ele><time>2026-05-01T08:52:15.878Z</time></trkpt><trkpt lat="44.8533647" lon="7.8299999"><ele>274.0</ele><time>2026-05-01T08:52:16.878Z</time></trkpt><trkpt lat="44.8535049" lon="7.8297283"><ele>274.0</ele><time>2026-05-01T08:52:17.878Z</time></trkpt><trkpt lat="44.8536494" lon="7.8294591"><ele>274.0</ele><time>2026-05-01T08:52:18.878Z</time></trkpt><trkpt lat="44.853798" lon="7.8292005"><ele>274.5</ele><time>2026-05-01T08:52:19.878Z</time></trkpt><trkpt lat="44.8539522" lon="7.8289383"><ele>275.0</ele><time>2026-05-01T08:52:20.878Z</time></trkpt><trkpt lat="44.854101" lon="7.8286711"><ele>275.0</ele><time>2026-05-01T08:52:21.878Z</time></trkpt><trkpt lat="44.8542546" lon="7.8284082"><ele>275.0</ele><time>2026-05-01T08:52:22.878Z</time></trkpt><trkpt lat="44.8544055" lon="7.8281399"><ele>273.5</ele><time>2026-05-01T08:52:23.878Z</time></trkpt><trkpt lat="44.8545546" lon="7.8278768"><ele>272.0</ele><time>2026-05-01T08:52:24.878Z</time></trkpt><trkpt lat="44.8547089" lon="7.827605"><ele>271.5</ele><time>2026-05-01T08:52:25.878Z</time></trkpt><trkpt lat="44.8548613" lon="7.8273385"><ele>271.0</ele><time>2026-05-01T08:52:26.878Z</time></trkpt><trkpt lat="44.8550125" lon="7.8270731"><ele>271.5</ele><time>2026-05-01T08:52:27.878Z</time></trkpt><trkpt lat="44.8551676" lon="7.8268092"><ele>272.0</ele><time>2026-05-01T08:52:28.878Z</time></trkpt><trkpt lat="44.8553147" lon="7.8265416"><ele>272.0</ele><time>2026-05-01T08:52:29.878Z</time></trkpt><trkpt lat="44.8554574" lon="7.8262712"><ele>272.0</ele><time>2026-05-01T08:52:30.878Z</time></trkpt><trkpt lat="44.8555891" lon="7.8259918"><ele>272.0</ele><time>2026-05-01T08:52:31.878Z</time></trkpt><trkpt lat="44.8557117" lon="7.8257017"><ele>272.0</ele><time>2026-05-01T08:52:32.878Z</time></trkpt><trkpt lat="44.8558355" lon="7.8254002"><ele>271.5</ele><time>2026-05-01T08:52:33.878Z</time></trkpt><trkpt lat="44.8559583" lon="7.8251043"><ele>271.0</ele><time>2026-05-01T08:52:34.878Z</time></trkpt><trkpt lat="44.8560828" lon="7.8248138"><ele>271.0</ele><time>2026-05-01T08:52:35.878Z</time></trkpt><trkpt lat="44.8562067" lon="7.8245196"><ele>271.0</ele><time>2026-05-01T08:52:36.878Z</time></trkpt><trkpt lat="44.8563238" lon="7.8242331"><ele>272.0</ele><time>2026-05-01T08:52:37.878Z</time></trkpt><trkpt lat="44.8564396" lon="7.8239636"><ele>273.0</ele><time>2026-05-01T08:52:38.878Z</time></trkpt><trkpt lat="44.8565532" lon="7.8236877"><ele>272.6666666666667</ele><time>2026-05-01T08:52:39.878Z</time></trkpt><trkpt lat="44.8566495" lon="7.8234162"><ele>272.33333333333337</ele><time>2026-05-01T08:52:40.878Z</time></trkpt><trkpt lat="44.8567338" lon="7.8231448"><ele>272.0</ele><time>2026-05-01T08:52:41.878Z</time></trkpt><trkpt lat="44.8568022" lon="7.822858"><ele>272.0</ele><time>2026-05-01T08:52:42.878Z</time></trkpt><trkpt lat="44.8568564" lon="7.8225717"><ele>272.0</ele><time>2026-05-01T08:52:43.878Z</time></trkpt><trkpt lat="44.8568935" lon="7.8222789"><ele>272.0</ele><time>2026-05-01T08:52:44.878Z</time></trkpt><trkpt lat="44.8569238" lon="7.8219814"><ele>271.6666666666667</ele><time>2026-05-01T08:52:45.878Z</time></trkpt><trkpt lat="44.856956" lon="7.8216852"><ele>271.3333333333333</ele><time>2026-05-01T08:52:46.878Z</time></trkpt><trkpt lat="44.8569809" lon="7.8213945"><ele>271.0</ele><time>2026-05-01T08:52:47.878Z</time></trkpt><trkpt lat="44.856991" lon="7.8211022"><ele>270.66666666666663</ele><time>2026-05-01T08:52:48.878Z</time></trkpt><trkpt lat="44.8569822" lon="7.820817"><ele>270.3333333333333</ele><time>2026-05-01T08:52:49.878Z</time></trkpt><trkpt lat="44.8569557" lon="7.8205274"><ele>270.0</ele><time>2026-05-01T08:52:50.878Z</time></trkpt><trkpt lat="44.8569088" lon="7.8202478"><ele>270.6666666666667</ele><time>2026-05-01T08:52:51.878Z</time></trkpt><trkpt lat="44.8568402" lon="7.8199848"><ele>271.33333333333337</ele><time>2026-05-01T08:52:52.878Z</time></trkpt><trkpt lat="44.8567609" lon="7.8197198"><ele>272.0</ele><time>2026-05-01T08:52:53.878Z</time></trkpt><trkpt lat="44.8566624" lon="7.8194578"><ele>271.0</ele><time>2026-05-01T08:52:54.878Z</time></trkpt><trkpt lat="44.8565496" lon="7.8191959"><ele>270.0</ele><time>2026-05-01T08:52:55.878Z</time></trkpt><trkpt lat="44.856427" lon="7.8189399"><ele>269.0</ele><time>2026-05-01T08:52:56.878Z</time></trkpt><trkpt lat="44.85631" lon="7.8186778"><ele>268.33333333333337</ele><time>2026-05-01T08:52:57.878Z</time></trkpt><trkpt lat="44.8561944" lon="7.818419"><ele>267.6666666666667</ele><time>2026-05-01T08:52:58.878Z</time></trkpt><trkpt lat="44.8560723" lon="7.8181563"><ele>267.0</ele><time>2026-05-01T08:52:59.878Z</time></trkpt><trkpt lat="44.855948" lon="7.8178976"><ele>265.6666666666667</ele><time>2026-05-01T08:53:00.878Z</time></trkpt><trkpt lat="44.8558369" lon="7.8176408"><ele>264.33333333333337</ele><time>2026-05-01T08:53:01.878Z</time></trkpt><trkpt lat="44.8557189" lon="7.8173816"><ele>263.0</ele><time>2026-05-01T08:53:02.878Z</time></trkpt><trkpt lat="44.8555993" lon="7.8171305"><ele>263.0</ele><time>2026-05-01T08:53:03.878Z</time></trkpt><trkpt lat="44.8554819" lon="7.8168877"><ele>263.0</ele><time>2026-05-01T08:53:04.878Z</time></trkpt><trkpt lat="44.8553655" lon="7.816639"><ele>263.0</ele><time>2026-05-01T08:53:05.878Z</time></trkpt><trkpt lat="44.8552632" lon="7.8163879"><ele>262.6666666666667</ele><time>2026-05-01T08:53:06.878Z</time></trkpt><trkpt lat="44.8551697" lon="7.8161219"><ele>262.3333333333333</ele><time>2026-05-01T08:53:07.878Z</time></trkpt><trkpt lat="44.8550753" lon="7.8158417"><ele>262.0</ele><time>2026-05-01T08:53:08.878Z</time></trkpt><trkpt lat="44.8550038" lon="7.8155445"><ele>261.0</ele><time>2026-05-01T08:53:09.879Z</time></trkpt><trkpt lat="44.8549548" lon="7.8152432"><ele>260.0</ele><time>2026-05-01T08:53:10.878Z</time></trkpt><trkpt lat="44.8549191" lon="7.8149338"><ele>259.0</ele><time>2026-05-01T08:53:11.878Z</time></trkpt><trkpt lat="44.8549006" lon="7.8146133"><ele>258.5</ele><time>2026-05-01T08:53:12.878Z</time></trkpt><trkpt lat="44.8548992" lon="7.8142907"><ele>258.0</ele><time>2026-05-01T08:53:13.878Z</time></trkpt><trkpt lat="44.8549226" lon="7.8139691"><ele>258.0</ele><time>2026-05-01T08:53:14.878Z</time></trkpt><trkpt lat="44.8549679" lon="7.8136461"><ele>258.0</ele><time>2026-05-01T08:53:15.878Z</time></trkpt><trkpt lat="44.8550232" lon="7.8133289"><ele>257.5</ele><time>2026-05-01T08:53:16.878Z</time></trkpt><trkpt lat="44.8550695" lon="7.8130038"><ele>257.0</ele><time>2026-05-01T08:53:17.878Z</time></trkpt><trkpt lat="44.8551305" lon="7.8126774"><ele>257.0</ele><time>2026-05-01T08:53:18.878Z</time></trkpt><trkpt lat="44.8551825" lon="7.8123469"><ele>257.0</ele><time>2026-05-01T08:53:19.878Z</time></trkpt><trkpt lat="44.8552296" lon="7.8120094"><ele>256.5</ele><time>2026-05-01T08:53:20.879Z</time></trkpt><trkpt lat="44.8552878" lon="7.8116758"><ele>256.0</ele><time>2026-05-01T08:53:21.878Z</time></trkpt><trkpt lat="44.8553494" lon="7.8113523"><ele>256.0</ele><time>2026-05-01T08:53:22.878Z</time></trkpt><trkpt lat="44.8554031" lon="7.8110216"><ele>256.0</ele><time>2026-05-01T08:53:23.878Z</time></trkpt><trkpt lat="44.8554605" lon="7.8106879"><ele>256.5</ele><time>2026-05-01T08:53:24.879Z</time></trkpt><trkpt lat="44.8555196" lon="7.8103652"><ele>257.0</ele><time>2026-05-01T08:53:25.878Z</time></trkpt><trkpt lat="44.8555769" lon="7.8100372"><ele>256.0</ele><time>2026-05-01T08:53:26.878Z</time></trkpt><trkpt lat="44.8556366" lon="7.8097169"><ele>255.0</ele><time>2026-05-01T08:53:27.878Z</time></trkpt><trkpt lat="44.8556919" lon="7.8093986"><ele>254.5</ele><time>2026-05-01T08:53:28.878Z</time></trkpt><trkpt lat="44.8557502" lon="7.8090814"><ele>254.0</ele><time>2026-05-01T08:53:29.878Z</time></trkpt><trkpt lat="44.8558032" lon="7.80878"><ele>254.66666666666669</ele><time>2026-05-01T08:53:30.878Z</time></trkpt><trkpt lat="44.8558505" lon="7.8084756"><ele>255.33333333333331</ele><time>2026-05-01T08:53:31.878Z</time></trkpt><trkpt lat="44.8558911" lon="7.8081707"><ele>256.0</ele><time>2026-05-01T08:53:32.878Z</time></trkpt><trkpt lat="44.8559167" lon="7.8078595"><ele>256.0</ele><time>2026-05-01T08:53:33.878Z</time></trkpt><trkpt lat="44.8559257" lon="7.8075365"><ele>256.0</ele><time>2026-05-01T08:53:34.878Z</time></trkpt><trkpt lat="44.8559213" lon="7.8072096"><ele>256.0</ele><time>2026-05-01T08:53:35.878Z</time></trkpt><trkpt lat="44.855903" lon="7.8068821"><ele>256.0</ele><time>2026-05-01T08:53:36.878Z</time></trkpt><trkpt lat="44.8558638" lon="7.8065537"><ele>255.5</ele><time>2026-05-01T08:53:37.878Z</time></trkpt><trkpt lat="44.8558274" lon="7.8062207"><ele>255.0</ele><time>2026-05-01T08:53:38.878Z</time></trkpt><trkpt lat="44.8557845" lon="7.805884"><ele>255.0</ele><time>2026-05-01T08:53:39.878Z</time></trkpt><trkpt lat="44.8557443" lon="7.8055582"><ele>255.0</ele><time>2026-05-01T08:53:40.878Z</time></trkpt><trkpt lat="44.8557005" lon="7.8052271"><ele>255.0</ele><time>2026-05-01T08:53:41.878Z</time></trkpt><trkpt lat="44.8556593" lon="7.8048957"><ele>255.0</ele><time>2026-05-01T08:53:42.879Z</time></trkpt><trkpt lat="44.8556231" lon="7.8045734"><ele>255.0</ele><time>2026-05-01T08:53:43.878Z</time></trkpt><trkpt lat="44.8555808" lon="7.8042479"><ele>255.0</ele><time>2026-05-01T08:53:44.878Z</time></trkpt><trkpt lat="44.8555407" lon="7.8039146"><ele>255.0</ele><time>2026-05-01T08:53:45.879Z</time></trkpt><trkpt lat="44.8554915" lon="7.8035852"><ele>255.0</ele><time>2026-05-01T08:53:46.879Z</time></trkpt><trkpt lat="44.8554381" lon="7.8032633"><ele>255.5</ele><time>2026-05-01T08:53:47.878Z</time></trkpt><trkpt lat="44.8553714" lon="7.8029392"><ele>256.0</ele><time>2026-05-01T08:53:48.878Z</time></trkpt><trkpt lat="44.8553083" lon="7.802609"><ele>255.0</ele><time>2026-05-01T08:53:49.878Z</time></trkpt><trkpt lat="44.8552425" lon="7.8022835"><ele>254.0</ele><time>2026-05-01T08:53:50.878Z</time></trkpt><trkpt lat="44.8551759" lon="7.8019526"><ele>254.5</ele><time>2026-05-01T08:53:51.879Z</time></trkpt><trkpt lat="44.8551009" lon="7.8016319"><ele>255.0</ele><time>2026-05-01T08:53:52.878Z</time></trkpt><trkpt lat="44.8550236" lon="7.8013123"><ele>254.5</ele><time>2026-05-01T08:53:53.878Z</time></trkpt><trkpt lat="44.8549456" lon="7.8009962"><ele>254.0</ele><time>2026-05-01T08:53:54.878Z</time></trkpt><trkpt lat="44.8548581" lon="7.8006846"><ele>254.0</ele><time>2026-05-01T08:53:55.878Z</time></trkpt><trkpt lat="44.8547791" lon="7.8003677"><ele>254.0</ele><time>2026-05-01T08:53:56.878Z</time></trkpt><trkpt lat="44.854697" lon="7.800049"><ele>254.5</ele><time>2026-05-01T08:53:57.878Z</time></trkpt><trkpt lat="44.8546204" lon="7.7997468"><ele>255.0</ele><time>2026-05-01T08:53:58.878Z</time></trkpt><trkpt lat="44.8545394" lon="7.7994422"><ele>255.5</ele><time>2026-05-01T08:53:59.878Z</time></trkpt><trkpt lat="44.8544588" lon="7.7991426"><ele>256.0</ele><time>2026-05-01T08:54:00.878Z</time></trkpt><trkpt lat="44.8543768" lon="7.7988411"><ele>256.0</ele><time>2026-05-01T08:54:01.878Z</time></trkpt><trkpt lat="44.8542987" lon="7.798552"><ele>256.0</ele><time>2026-05-01T08:54:02.878Z</time></trkpt><trkpt lat="44.8542228" lon="7.7982661"><ele>256.0</ele><time>2026-05-01T08:54:03.878Z</time></trkpt><trkpt lat="44.8541531" lon="7.7979924"><ele>257.0</ele><time>2026-05-01T08:54:04.878Z</time></trkpt><trkpt lat="44.854076" lon="7.797717"><ele>258.0</ele><time>2026-05-01T08:54:05.878Z</time></trkpt><trkpt lat="44.8540106" lon="7.7974355"><ele>259.0</ele><time>2026-05-01T08:54:06.878Z</time></trkpt><trkpt lat="44.8539653" lon="7.7971717"><ele>259.0</ele><time>2026-05-01T08:54:07.878Z</time></trkpt><trkpt lat="44.8539193" lon="7.7968958"><ele>259.0</ele><time>2026-05-01T08:54:08.878Z</time></trkpt><trkpt lat="44.8538969" lon="7.7966166"><ele>259.0</ele><time>2026-05-01T08:54:09.878Z</time></trkpt><trkpt lat="44.8538848" lon="7.796323"><ele>258.0</ele><time>2026-05-01T08:54:10.878Z</time></trkpt><trkpt lat="44.8538745" lon="7.796029"><ele>257.0</ele><time>2026-05-01T08:54:11.878Z</time></trkpt><trkpt lat="44.8538671" lon="7.7957379"><ele>256.0</ele><time>2026-05-01T08:54:12.878Z</time></trkpt><trkpt lat="44.8538641" lon="7.7954482"><ele>254.33333333333331</ele><time>2026-05-01T08:54:13.878Z</time></trkpt><trkpt lat="44.8538545" lon="7.795161"><ele>252.66666666666669</ele><time>2026-05-01T08:54:14.878Z</time></trkpt><trkpt lat="44.8538429" lon="7.7948697"><ele>251.0</ele><time>2026-05-01T08:54:15.878Z</time></trkpt><trkpt lat="44.8538189" lon="7.7945768"><ele>250.66666666666669</ele><time>2026-05-01T08:54:16.879Z</time></trkpt><trkpt lat="44.8537815" lon="7.7942763"><ele>250.33333333333331</ele><time>2026-05-01T08:54:17.879Z</time></trkpt><trkpt lat="44.8537361" lon="7.7939778"><ele>250.0</ele><time>2026-05-01T08:54:18.878Z</time></trkpt><trkpt lat="44.853686" lon="7.7936789"><ele>249.0</ele><time>2026-05-01T08:54:19.878Z</time></trkpt><trkpt lat="44.8536334" lon="7.7933726"><ele>248.0</ele><time>2026-05-01T08:54:20.878Z</time></trkpt><trkpt lat="44.8535778" lon="7.7930624"><ele>248.0</ele><time>2026-05-01T08:54:21.878Z</time></trkpt><trkpt lat="44.8535205" lon="7.7927535"><ele>248.0</ele><time>2026-05-01T08:54:22.878Z</time></trkpt><trkpt lat="44.8534644" lon="7.7924434"><ele>250.0</ele><time>2026-05-01T08:54:23.878Z</time></trkpt><trkpt lat="44.8534128" lon="7.7921295"><ele>252.0</ele><time>2026-05-01T08:54:24.878Z</time></trkpt><trkpt lat="44.8533605" lon="7.7918144"><ele>252.5</ele><time>2026-05-01T08:54:25.878Z</time></trkpt><trkpt lat="44.8533048" lon="7.7915036"><ele>253.0</ele><time>2026-05-01T08:54:26.878Z</time></trkpt><trkpt lat="44.8532526" lon="7.7911925"><ele>254.0</ele><time>2026-05-01T08:54:27.878Z</time></trkpt><trkpt lat="44.8531906" lon="7.7908752"><ele>255.0</ele><time>2026-05-01T08:54:28.878Z</time></trkpt><trkpt lat="44.8531344" lon="7.7905556"><ele>255.0</ele><time>2026-05-01T08:54:29.878Z</time></trkpt><trkpt lat="44.8530777" lon="7.7902373"><ele>255.0</ele><time>2026-05-01T08:54:30.878Z</time></trkpt><trkpt lat="44.8530209" lon="7.7899191"><ele>254.5</ele><time>2026-05-01T08:54:31.878Z</time></trkpt><trkpt lat="44.8529574" lon="7.7895969"><ele>254.0</ele><time>2026-05-01T08:54:32.878Z</time></trkpt><trkpt lat="44.8529027" lon="7.7892846"><ele>254.0</ele><time>2026-05-01T08:54:33.878Z</time></trkpt><trkpt lat="44.8528472" lon="7.7889675"><ele>254.0</ele><time>2026-05-01T08:54:34.878Z</time></trkpt><trkpt lat="44.8527907" lon="7.7886474"><ele>255.5</ele><time>2026-05-01T08:54:35.878Z</time></trkpt><trkpt lat="44.8527334" lon="7.7883308"><ele>257.0</ele><time>2026-05-01T08:54:36.878Z</time></trkpt><trkpt lat="44.8526777" lon="7.788013"><ele>257.0</ele><time>2026-05-01T08:54:37.878Z</time></trkpt><trkpt lat="44.8526261" lon="7.7877066"><ele>257.0</ele><time>2026-05-01T08:54:38.878Z</time></trkpt><trkpt lat="44.8525732" lon="7.7873822"><ele>257.5</ele><time>2026-05-01T08:54:39.878Z</time></trkpt><trkpt lat="44.8525182" lon="7.7870736"><ele>258.0</ele><time>2026-05-01T08:54:40.878Z</time></trkpt><trkpt lat="44.8524617" lon="7.7867474"><ele>257.0</ele><time>2026-05-01T08:54:41.878Z</time></trkpt><trkpt lat="44.852402" lon="7.7864287"><ele>256.0</ele><time>2026-05-01T08:54:42.878Z</time></trkpt><trkpt lat="44.852337" lon="7.7861053"><ele>256.5</ele><time>2026-05-01T08:54:43.878Z</time></trkpt><trkpt lat="44.8522742" lon="7.7857906"><ele>257.0</ele><time>2026-05-01T08:54:44.878Z</time></trkpt><trkpt lat="44.8522224" lon="7.7854787"><ele>257.0</ele><time>2026-05-01T08:54:45.878Z</time></trkpt><trkpt lat="44.8521664" lon="7.7851535"><ele>257.0</ele><time>2026-05-01T08:54:46.878Z</time></trkpt><trkpt lat="44.8521269" lon="7.784833"><ele>257.0</ele><time>2026-05-01T08:54:47.878Z</time></trkpt><trkpt lat="44.8520994" lon="7.7845019"><ele>257.0</ele><time>2026-05-01T08:54:48.878Z</time></trkpt><trkpt lat="44.852093" lon="7.7841732"><ele>257.0</ele><time>2026-05-01T08:54:49.878Z</time></trkpt><trkpt lat="44.8521017" lon="7.7838426"><ele>257.0</ele><time>2026-05-01T08:54:50.878Z</time></trkpt><trkpt lat="44.8521203" lon="7.7835044"><ele>256.5</ele><time>2026-05-01T08:54:51.878Z</time></trkpt><trkpt lat="44.8521565" lon="7.783167"><ele>256.0</ele><time>2026-05-01T08:54:52.878Z</time></trkpt><trkpt lat="44.852209" lon="7.7828336"><ele>256.5</ele><time>2026-05-01T08:54:53.878Z</time></trkpt><trkpt lat="44.8522631" lon="7.7825111"><ele>257.0</ele><time>2026-05-01T08:54:54.879Z</time></trkpt><trkpt lat="44.8523191" lon="7.7821864"><ele>257.0</ele><time>2026-05-01T08:54:55.878Z</time></trkpt><trkpt lat="44.8523691" lon="7.7818533"><ele>257.0</ele><time>2026-05-01T08:54:56.878Z</time></trkpt><trkpt lat="44.8524261" lon="7.7815296"><ele>256.5</ele><time>2026-05-01T08:54:57.878Z</time></trkpt><trkpt lat="44.8524765" lon="7.7811979"><ele>256.0</ele><time>2026-05-01T08:54:58.878Z</time></trkpt><trkpt lat="44.8525315" lon="7.7808679"><ele>255.5</ele><time>2026-05-01T08:54:59.878Z</time></trkpt><trkpt lat="44.8525838" lon="7.7805448"><ele>255.0</ele><time>2026-05-01T08:55:00.878Z</time></trkpt><trkpt lat="44.852641" lon="7.7802207"><ele>254.0</ele><time>2026-05-01T08:55:01.878Z</time></trkpt><trkpt lat="44.8526977" lon="7.7799048"><ele>253.0</ele><time>2026-05-01T08:55:02.878Z</time></trkpt><trkpt lat="44.8527498" lon="7.7795839"><ele>253.0</ele><time>2026-05-01T08:55:03.878Z</time></trkpt><trkpt lat="44.852806" lon="7.7792668"><ele>253.0</ele><time>2026-05-01T08:55:04.878Z</time></trkpt><trkpt lat="44.8528575" lon="7.7789484"><ele>253.0</ele><time>2026-05-01T08:55:05.878Z</time></trkpt><trkpt lat="44.8529102" lon="7.7786365"><ele>253.0</ele><time>2026-05-01T08:55:06.878Z</time></trkpt><trkpt lat="44.8529623" lon="7.7783327"><ele>253.0</ele><time>2026-05-01T08:55:07.878Z</time></trkpt><trkpt lat="44.8530133" lon="7.7780395"><ele>253.0</ele><time>2026-05-01T08:55:08.878Z</time></trkpt><trkpt lat="44.8530669" lon="7.7777417"><ele>253.0</ele><time>2026-05-01T08:55:09.878Z</time></trkpt><trkpt lat="44.8531086" lon="7.7774534"><ele>253.0</ele><time>2026-05-01T08:55:10.878Z</time></trkpt><trkpt lat="44.8531453" lon="7.7771651"><ele>252.66666666666666</ele><time>2026-05-01T08:55:11.878Z</time></trkpt><trkpt lat="44.8531593" lon="7.7768811"><ele>252.33333333333331</ele><time>2026-05-01T08:55:12.878Z</time></trkpt><trkpt lat="44.8531626" lon="7.7766011"><ele>252.0</ele><time>2026-05-01T08:55:13.878Z</time></trkpt><trkpt lat="44.8531559" lon="7.7763384"><ele>251.33333333333331</ele><time>2026-05-01T08:55:14.878Z</time></trkpt><trkpt lat="44.8531442" lon="7.7760942"><ele>250.66666666666666</ele><time>2026-05-01T08:55:15.878Z</time></trkpt><trkpt lat="44.8531294" lon="7.7758632"><ele>250.0</ele><time>2026-05-01T08:55:16.878Z</time></trkpt><trkpt lat="44.8531105" lon="7.7756327"><ele>250.0</ele><time>2026-05-01T08:55:17.878Z</time></trkpt><trkpt lat="44.8531041" lon="7.7754035"><ele>250.0</ele><time>2026-05-01T08:55:18.878Z</time></trkpt><trkpt lat="44.8531088" lon="7.7751614"><ele>250.0</ele><time>2026-05-01T08:55:19.878Z</time></trkpt><trkpt lat="44.8531188" lon="7.7749235"><ele>250.33333333333331</ele><time>2026-05-01T08:55:20.878Z</time></trkpt><trkpt lat="44.853145" lon="7.7746756"><ele>250.66666666666669</ele><time>2026-05-01T08:55:21.878Z</time></trkpt><trkpt lat="44.8531795" lon="7.7744223"><ele>251.0</ele><time>2026-05-01T08:55:22.878Z</time></trkpt><trkpt lat="44.853219" lon="7.7741745"><ele>251.0</ele><time>2026-05-01T08:55:23.878Z</time></trkpt><trkpt lat="44.8532644" lon="7.7739226"><ele>251.0</ele><time>2026-05-01T08:55:24.878Z</time></trkpt><trkpt lat="44.8533065" lon="7.7736673"><ele>251.0</ele><time>2026-05-01T08:55:25.878Z</time></trkpt><trkpt lat="44.8533496" lon="7.7734265"><ele>250.33333333333334</ele><time>2026-05-01T08:55:26.878Z</time></trkpt><trkpt lat="44.8534009" lon="7.7731983"><ele>249.66666666666669</ele><time>2026-05-01T08:55:27.878Z</time></trkpt><trkpt lat="44.8534547" lon="7.7729955"><ele>249.0</ele><time>2026-05-01T08:55:28.878Z</time></trkpt><trkpt lat="44.8535144" lon="7.7727918"><ele>250.0</ele><time>2026-05-01T08:55:29.878Z</time></trkpt><trkpt lat="44.8535925" lon="7.7725964"><ele>251.0</ele><time>2026-05-01T08:55:30.878Z</time></trkpt><trkpt lat="44.8536834" lon="7.7724215"><ele>252.0</ele><time>2026-05-01T08:55:31.878Z</time></trkpt><trkpt lat="44.8537756" lon="7.772273"><ele>252.0</ele><time>2026-05-01T08:55:32.878Z</time></trkpt><trkpt lat="44.8538598" lon="7.772142"><ele>252.0</ele><time>2026-05-01T08:55:33.878Z</time></trkpt><trkpt lat="44.853933" lon="7.7720257"><ele>252.0</ele><time>2026-05-01T08:55:34.878Z</time></trkpt><trkpt lat="44.8539886" lon="7.7719461"><ele>252.0</ele><time>2026-05-01T08:55:35.878Z</time></trkpt><trkpt lat="44.8540791" lon="7.7718359"><ele>252.0</ele><time>2026-05-01T08:55:37.878Z</time></trkpt><trkpt lat="44.8541269" lon="7.7717765"><ele>251.33333333333334</ele><time>2026-05-01T08:55:38.878Z</time></trkpt><trkpt lat="44.85418" lon="7.7717094"><ele>250.66666666666669</ele><time>2026-05-01T08:55:39.878Z</time></trkpt><trkpt lat="44.8542223" lon="7.77162"><ele>250.0</ele><time>2026-05-01T08:55:40.878Z</time></trkpt><trkpt lat="44.8542563" lon="7.7715276"><ele>249.33333333333334</ele><time>2026-05-01T08:55:41.878Z</time></trkpt><trkpt lat="44.854226" lon="7.7714102"><ele>248.66666666666669</ele><time>2026-05-01T08:55:42.878Z</time></trkpt><trkpt lat="44.8541767" lon="7.7713006"><ele>248.0</ele><time>2026-05-01T08:55:43.878Z</time></trkpt><trkpt lat="44.8541159" lon="7.7711905"><ele>248.0</ele><time>2026-05-01T08:55:44.879Z</time></trkpt><trkpt lat="44.8540378" lon="7.7710627"><ele>248.0</ele><time>2026-05-01T08:55:45.878Z</time></trkpt><trkpt lat="44.8539553" lon="7.7709229"><ele>248.0</ele><time>2026-05-01T08:55:46.878Z</time></trkpt><trkpt lat="44.8538615" lon="7.770768"><ele>248.0</ele><time>2026-05-01T08:55:47.878Z</time></trkpt><trkpt lat="44.8537633" lon="7.7706127"><ele>247.66666666666669</ele><time>2026-05-01T08:55:48.878Z</time></trkpt><trkpt lat="44.8536598" lon="7.7704295"><ele>247.33333333333331</ele><time>2026-05-01T08:55:49.878Z</time></trkpt><trkpt lat="44.8535614" lon="7.7702424"><ele>247.0</ele><time>2026-05-01T08:55:50.878Z</time></trkpt><trkpt lat="44.8534698" lon="7.7700485"><ele>247.66666666666666</ele><time>2026-05-01T08:55:51.878Z</time></trkpt><trkpt lat="44.8533739" lon="7.7698364"><ele>248.33333333333331</ele><time>2026-05-01T08:55:52.879Z</time></trkpt><trkpt lat="44.8532797" lon="7.7696243"><ele>249.0</ele><time>2026-05-01T08:55:53.878Z</time></trkpt><trkpt lat="44.8531942" lon="7.7694319"><ele>248.66666666666669</ele><time>2026-05-01T08:55:54.878Z</time></trkpt><trkpt lat="44.8530966" lon="7.7692209"><ele>248.33333333333334</ele><time>2026-05-01T08:55:55.878Z</time></trkpt><trkpt lat="44.8530127" lon="7.7689971"><ele>248.0</ele><time>2026-05-01T08:55:56.878Z</time></trkpt><trkpt lat="44.8529374" lon="7.768766"><ele>248.0</ele><time>2026-05-01T08:55:57.879Z</time></trkpt><trkpt lat="44.8528747" lon="7.7685318"><ele>248.0</ele><time>2026-05-01T08:55:58.878Z</time></trkpt><trkpt lat="44.8528107" lon="7.768301"><ele>248.0</ele><time>2026-05-01T08:55:59.878Z</time></trkpt><trkpt lat="44.8527451" lon="7.7680782"><ele>247.5</ele><time>2026-05-01T08:56:00.878Z</time></trkpt><trkpt lat="44.8526963" lon="7.7678775"><ele>247.0</ele><time>2026-05-01T08:56:01.878Z</time></trkpt><trkpt lat="44.8526496" lon="7.7676883"><ele>246.5</ele><time>2026-05-01T08:56:02.878Z</time></trkpt><trkpt lat="44.8526045" lon="7.7675027"><ele>246.0</ele><time>2026-05-01T08:56:03.878Z</time></trkpt><trkpt lat="44.8525632" lon="7.7673244"><ele>245.5</ele><time>2026-05-01T08:56:04.878Z</time></trkpt><trkpt lat="44.8525124" lon="7.767134"><ele>245.0</ele><time>2026-05-01T08:56:05.878Z</time></trkpt><trkpt lat="44.8524708" lon="7.7669465"><ele>244.5</ele><time>2026-05-01T08:56:06.878Z</time></trkpt><trkpt lat="44.852422" lon="7.766748"><ele>244.0</ele><time>2026-05-01T08:56:07.878Z</time></trkpt><trkpt lat="44.8523703" lon="7.7665431"><ele>243.33333333333331</ele><time>2026-05-01T08:56:08.878Z</time></trkpt><trkpt lat="44.8523211" lon="7.7663234"><ele>242.66666666666669</ele><time>2026-05-01T08:56:09.878Z</time></trkpt><trkpt lat="44.8522745" lon="7.7660902"><ele>242.0</ele><time>2026-05-01T08:56:10.878Z</time></trkpt><trkpt lat="44.8522447" lon="7.7658603"><ele>242.0</ele><time>2026-05-01T08:56:11.878Z</time></trkpt><trkpt lat="44.8522234" lon="7.7656217"><ele>242.0</ele><time>2026-05-01T08:56:12.878Z</time></trkpt><trkpt lat="44.852218" lon="7.7653716"><ele>242.0</ele><time>2026-05-01T08:56:13.878Z</time></trkpt><trkpt lat="44.8522234" lon="7.7651271"><ele>242.33333333333334</ele><time>2026-05-01T08:56:14.878Z</time></trkpt><trkpt lat="44.852245" lon="7.7648817"><ele>242.66666666666669</ele><time>2026-05-01T08:56:15.878Z</time></trkpt><trkpt lat="44.8522684" lon="7.7646381"><ele>243.0</ele><time>2026-05-01T08:56:16.878Z</time></trkpt><trkpt lat="44.8523086" lon="7.7643992"><ele>243.33333333333331</ele><time>2026-05-01T08:56:17.878Z</time></trkpt><trkpt lat="44.8523411" lon="7.7641492"><ele>243.66666666666666</ele><time>2026-05-01T08:56:18.878Z</time></trkpt><trkpt lat="44.852366" lon="7.7638988"><ele>244.0</ele><time>2026-05-01T08:56:19.878Z</time></trkpt><trkpt lat="44.8523881" lon="7.7636514"><ele>243.66666666666666</ele><time>2026-05-01T08:56:20.878Z</time></trkpt><trkpt lat="44.8523966" lon="7.7633932"><ele>243.33333333333331</ele><time>2026-05-01T08:56:21.878Z</time></trkpt><trkpt lat="44.8523937" lon="7.7631324"><ele>243.0</ele><time>2026-05-01T08:56:22.878Z</time></trkpt><trkpt lat="44.852382" lon="7.7628639"><ele>242.66666666666669</ele><time>2026-05-01T08:56:23.878Z</time></trkpt><trkpt lat="44.8523619" lon="7.7625946"><ele>242.33333333333334</ele><time>2026-05-01T08:56:24.878Z</time></trkpt><trkpt lat="44.8523297" lon="7.7623116"><ele>242.0</ele><time>2026-05-01T08:56:25.879Z</time></trkpt><trkpt lat="44.8522963" lon="7.7620276"><ele>242.0</ele><time>2026-05-01T08:56:26.878Z</time></trkpt><trkpt lat="44.8522631" lon="7.761726"><ele>242.0</ele><time>2026-05-01T08:56:27.879Z</time></trkpt><trkpt lat="44.8522335" lon="7.7614343"><ele>242.0</ele><time>2026-05-01T08:56:28.878Z</time></trkpt><trkpt lat="44.8521975" lon="7.7611204"><ele>242.0</ele><time>2026-05-01T08:56:29.879Z</time></trkpt><trkpt lat="44.8521748" lon="7.7608163"><ele>242.0</ele><time>2026-05-01T08:56:30.878Z</time></trkpt><trkpt lat="44.8521663" lon="7.7605014"><ele>242.0</ele><time>2026-05-01T08:56:31.878Z</time></trkpt><trkpt lat="44.8521763" lon="7.7601877"><ele>242.0</ele><time>2026-05-01T08:56:32.878Z</time></trkpt><trkpt lat="44.8522024" lon="7.759867"><ele>242.0</ele><time>2026-05-01T08:56:33.878Z</time></trkpt><trkpt lat="44.8522303" lon="7.7595443"><ele>242.0</ele><time>2026-05-01T08:56:34.879Z</time></trkpt><trkpt lat="44.8522618" lon="7.7592238"><ele>242.0</ele><time>2026-05-01T08:56:35.878Z</time></trkpt><trkpt lat="44.8522896" lon="7.7588954"><ele>242.0</ele><time>2026-05-01T08:56:36.878Z</time></trkpt><trkpt lat="44.8523065" lon="7.7585747"><ele>242.0</ele><time>2026-05-01T08:56:37.878Z</time></trkpt><trkpt lat="44.852324" lon="7.7582523"><ele>242.0</ele><time>2026-05-01T08:56:38.878Z</time></trkpt><trkpt lat="44.8523364" lon="7.7579294"><ele>242.0</ele><time>2026-05-01T08:56:39.878Z</time></trkpt><trkpt lat="44.8523524" lon="7.7576019"><ele>242.33333333333334</ele><time>2026-05-01T08:56:40.878Z</time></trkpt><trkpt lat="44.8523648" lon="7.7572786"><ele>242.66666666666669</ele><time>2026-05-01T08:56:41.878Z</time></trkpt><trkpt lat="44.8523791" lon="7.7569696"><ele>243.0</ele><time>2026-05-01T08:56:42.878Z</time></trkpt><trkpt lat="44.852385" lon="7.7566707"><ele>243.0</ele><time>2026-05-01T08:56:43.878Z</time></trkpt><trkpt lat="44.8523788" lon="7.7563781"><ele>243.0</ele><time>2026-05-01T08:56:44.878Z</time></trkpt><trkpt lat="44.8523605" lon="7.7560877"><ele>243.0</ele><time>2026-05-01T08:56:45.879Z</time></trkpt><trkpt lat="44.8523465" lon="7.7558041"><ele>243.0</ele><time>2026-05-01T08:56:46.878Z</time></trkpt><trkpt lat="44.8523267" lon="7.7555115"><ele>243.0</ele><time>2026-05-01T08:56:47.878Z</time></trkpt><trkpt lat="44.8523133" lon="7.7552182"><ele>243.0</ele><time>2026-05-01T08:56:48.878Z</time></trkpt><trkpt lat="44.8522902" lon="7.7549207"><ele>242.66666666666669</ele><time>2026-05-01T08:56:49.878Z</time></trkpt><trkpt lat="44.8522818" lon="7.7546232"><ele>242.33333333333334</ele><time>2026-05-01T08:56:50.878Z</time></trkpt><trkpt lat="44.852273" lon="7.7543278"><ele>242.0</ele><time>2026-05-01T08:56:51.878Z</time></trkpt><trkpt lat="44.8522597" lon="7.7540287"><ele>242.0</ele><time>2026-05-01T08:56:52.878Z</time></trkpt><trkpt lat="44.8522548" lon="7.7537392"><ele>242.0</ele><time>2026-05-01T08:56:53.878Z</time></trkpt><trkpt lat="44.8522454" lon="7.7534363"><ele>242.0</ele><time>2026-05-01T08:56:54.878Z</time></trkpt><trkpt lat="44.8522334" lon="7.7531403"><ele>242.33333333333334</ele><time>2026-05-01T08:56:55.878Z</time></trkpt><trkpt lat="44.8522166" lon="7.7528388"><ele>242.66666666666669</ele><time>2026-05-01T08:56:56.878Z</time></trkpt><trkpt lat="44.8522051" lon="7.7525373"><ele>243.0</ele><time>2026-05-01T08:56:57.878Z</time></trkpt><trkpt lat="44.8521857" lon="7.752242"><ele>243.33333333333331</ele><time>2026-05-01T08:56:58.879Z</time></trkpt><trkpt lat="44.85216" lon="7.7519538"><ele>243.66666666666666</ele><time>2026-05-01T08:56:59.878Z</time></trkpt><trkpt lat="44.8521352" lon="7.7516722"><ele>244.0</ele><time>2026-05-01T08:57:00.878Z</time></trkpt><trkpt lat="44.8520974" lon="7.7513877"><ele>244.0</ele><time>2026-05-01T08:57:01.878Z</time></trkpt><trkpt lat="44.8520497" lon="7.7511202"><ele>244.0</ele><time>2026-05-01T08:57:02.878Z</time></trkpt><trkpt lat="44.8520031" lon="7.7508732"><ele>244.0</ele><time>2026-05-01T08:57:03.878Z</time></trkpt><trkpt lat="44.8519471" lon="7.7506337"><ele>244.0</ele><time>2026-05-01T08:57:04.878Z</time></trkpt><trkpt lat="44.8518891" lon="7.7503947"><ele>244.0</ele><time>2026-05-01T08:57:05.878Z</time></trkpt><trkpt lat="44.8518246" lon="7.7501661"><ele>244.0</ele><time>2026-05-01T08:57:06.878Z</time></trkpt><trkpt lat="44.8517551" lon="7.7499343"><ele>244.0</ele><time>2026-05-01T08:57:07.878Z</time></trkpt><trkpt lat="44.8516836" lon="7.7496975"><ele>244.0</ele><time>2026-05-01T08:57:08.878Z</time></trkpt><trkpt lat="44.8516171" lon="7.7494624"><ele>244.0</ele><time>2026-05-01T08:57:09.878Z</time></trkpt><trkpt lat="44.8515558" lon="7.7492426"><ele>244.0</ele><time>2026-05-01T08:57:10.878Z</time></trkpt><trkpt lat="44.8514906" lon="7.7490173"><ele>244.0</ele><time>2026-05-01T08:57:11.878Z</time></trkpt><trkpt lat="44.8514291" lon="7.7487958"><ele>244.0</ele><time>2026-05-01T08:57:12.878Z</time></trkpt><trkpt lat="44.8513666" lon="7.7485792"><ele>244.66666666666666</ele><time>2026-05-01T08:57:13.878Z</time></trkpt><trkpt lat="44.8513118" lon="7.7483659"><ele>245.33333333333331</ele><time>2026-05-01T08:57:14.878Z</time></trkpt><trkpt lat="44.8512552" lon="7.7481592"><ele>246.0</ele><time>2026-05-01T08:57:15.878Z</time></trkpt><trkpt lat="44.8511947" lon="7.7479518"><ele>246.0</ele><time>2026-05-01T08:57:16.878Z</time></trkpt><trkpt lat="44.851136" lon="7.747735"><ele>246.0</ele><time>2026-05-01T08:57:17.878Z</time></trkpt><trkpt lat="44.851076" lon="7.7475204"><ele>246.0</ele><time>2026-05-01T08:57:18.878Z</time></trkpt><trkpt lat="44.8510171" lon="7.7473043"><ele>245.66666666666669</ele><time>2026-05-01T08:57:19.878Z</time></trkpt><trkpt lat="44.8509651" lon="7.7471011"><ele>245.33333333333334</ele><time>2026-05-01T08:57:20.878Z</time></trkpt><trkpt lat="44.8509106" lon="7.7468893"><ele>245.0</ele><time>2026-05-01T08:57:21.878Z</time></trkpt><trkpt lat="44.8508525" lon="7.746688"><ele>244.25</ele><time>2026-05-01T08:57:22.878Z</time></trkpt><trkpt lat="44.8508" lon="7.7465062"><ele>243.5</ele><time>2026-05-01T08:57:23.878Z</time></trkpt><trkpt lat="44.8507426" lon="7.746319"><ele>242.75</ele><time>2026-05-01T08:57:24.878Z</time></trkpt><trkpt lat="44.8506943" lon="7.7461317"><ele>242.0</ele><time>2026-05-01T08:57:25.878Z</time></trkpt><trkpt lat="44.8506419" lon="7.7459392"><ele>241.5</ele><time>2026-05-01T08:57:26.878Z</time></trkpt><trkpt lat="44.850603" lon="7.745757"><ele>241.0</ele><time>2026-05-01T08:57:27.878Z</time></trkpt><trkpt lat="44.8505643" lon="7.7455892"><ele>240.5</ele><time>2026-05-01T08:57:28.879Z</time></trkpt><trkpt lat="44.8505229" lon="7.7454326"><ele>240.0</ele><time>2026-05-01T08:57:29.878Z</time></trkpt><trkpt lat="44.8504815" lon="7.7452821"><ele>240.4</ele><time>2026-05-01T08:57:30.878Z</time></trkpt><trkpt lat="44.8504603" lon="7.7451325"><ele>240.8</ele><time>2026-05-01T08:57:31.878Z</time></trkpt><trkpt lat="44.8504748" lon="7.7449914"><ele>241.2</ele><time>2026-05-01T08:57:32.878Z</time></trkpt><trkpt lat="44.8505134" lon="7.7448659"><ele>241.6</ele><time>2026-05-01T08:57:33.878Z</time></trkpt><trkpt lat="44.8505667" lon="7.7447533"><ele>242.0</ele><time>2026-05-01T08:57:34.878Z</time></trkpt><trkpt lat="44.8506461" lon="7.7446742"><ele>242.0</ele><time>2026-05-01T08:57:35.878Z</time></trkpt><trkpt lat="44.8507497" lon="7.7446123"><ele>242.0</ele><time>2026-05-01T08:57:36.878Z</time></trkpt><trkpt lat="44.850875" lon="7.7445806"><ele>242.0</ele><time>2026-05-01T08:57:37.879Z</time></trkpt><trkpt lat="44.8510101" lon="7.7445749"><ele>242.0</ele><time>2026-05-01T08:57:38.878Z</time></trkpt><trkpt lat="44.8511592" lon="7.7445925"><ele>241.25</ele><time>2026-05-01T08:57:39.878Z</time></trkpt><trkpt lat="44.8512991" lon="7.744619"><ele>240.5</ele><time>2026-05-01T08:57:40.878Z</time></trkpt><trkpt lat="44.8514443" lon="7.7446498"><ele>239.75</ele><time>2026-05-01T08:57:41.878Z</time></trkpt><trkpt lat="44.8515925" lon="7.744683"><ele>239.0</ele><time>2026-05-01T08:57:42.878Z</time></trkpt><trkpt lat="44.8517406" lon="7.7447224"><ele>239.25</ele><time>2026-05-01T08:57:43.878Z</time></trkpt><trkpt lat="44.8518846" lon="7.7447643"><ele>239.5</ele><time>2026-05-01T08:57:44.878Z</time></trkpt><trkpt lat="44.8520201" lon="7.7448056"><ele>239.75</ele><time>2026-05-01T08:57:45.878Z</time></trkpt><trkpt lat="44.8521506" lon="7.7448385"><ele>240.0</ele><time>2026-05-01T08:57:46.878Z</time></trkpt><trkpt lat="44.8522683" lon="7.7448788"><ele>240.0</ele><time>2026-05-01T08:57:47.878Z</time></trkpt><trkpt lat="44.8523783" lon="7.7449101"><ele>240.0</ele><time>2026-05-01T08:57:48.878Z</time></trkpt><trkpt lat="44.8524579" lon="7.7449611"><ele>240.0</ele><time>2026-05-01T08:57:49.878Z</time></trkpt><trkpt lat="44.8525302" lon="7.745026"><ele>240.0</ele><time>2026-05-01T08:57:50.878Z</time></trkpt><trkpt lat="44.8525734" lon="7.7451229"><ele>240.0</ele><time>2026-05-01T08:57:51.878Z</time></trkpt><trkpt lat="44.8525942" lon="7.7452175"><ele>240.0</ele><time>2026-05-01T08:57:52.878Z</time></trkpt><trkpt lat="44.8526124" lon="7.745318"><ele>240.16666666666666</ele><time>2026-05-01T08:57:53.878Z</time></trkpt><trkpt lat="44.8526224" lon="7.7454157"><ele>240.33333333333331</ele><time>2026-05-01T08:57:54.878Z</time></trkpt><trkpt lat="44.8526233" lon="7.7455161"><ele>240.5</ele><time>2026-05-01T08:57:55.879Z</time></trkpt><trkpt lat="44.852619" lon="7.7456252"><ele>240.66666666666666</ele><time>2026-05-01T08:57:56.878Z</time></trkpt><trkpt lat="44.8526077" lon="7.7457171"><ele>240.83333333333331</ele><time>2026-05-01T08:57:57.878Z</time></trkpt><trkpt lat="44.8525999" lon="7.7458171"><ele>241.0</ele><time>2026-05-01T08:57:58.878Z</time></trkpt><trkpt lat="44.8525735" lon="7.7459676"><ele>241.0</ele><time>2026-05-01T08:58:00.878Z</time></trkpt><trkpt lat="44.8525361" lon="7.7460847"><ele>241.00000000000003</ele><time>2026-05-01T08:58:03.879Z</time></trkpt><trkpt lat="44.8525055" lon="7.7461629"><ele>241.00000000000003</ele><time>2026-05-01T08:58:35.879Z</time></trkpt><trkpt lat="44.852453" lon="7.7463107"><ele>241.0</ele><time>2026-05-01T08:58:38.878Z</time></trkpt><trkpt lat="44.8524123" lon="7.7464537"><ele>241.0</ele><time>2026-05-01T08:58:40.878Z</time></trkpt><trkpt lat="44.8523784" lon="7.746592"><ele>241.0</ele><time>2026-05-01T08:58:42.878Z</time></trkpt><trkpt lat="44.8523475" lon="7.7467097"><ele>241.00000000000003</ele><time>2026-05-01T08:58:44.878Z</time></trkpt><trkpt lat="44.8523229" lon="7.7468132"><ele>241.00000000000003</ele><time>2026-05-01T08:58:47.878Z</time></trkpt><trkpt lat="44.8522875" lon="7.746911"><ele>241.0</ele><time>2026-05-01T08:59:06.878Z</time></trkpt><trkpt lat="44.8522414" lon="7.7470524"><ele>241.0</ele><time>2026-05-01T08:59:08.878Z</time></trkpt><trkpt lat="44.8521857" lon="7.7472172"><ele>241.4</ele><time>2026-05-01T08:59:10.878Z</time></trkpt><trkpt lat="44.8521474" lon="7.7473201"><ele>241.8</ele><time>2026-05-01T08:59:11.878Z</time></trkpt><trkpt lat="44.8520982" lon="7.7474282"><ele>242.20000000000002</ele><time>2026-05-01T08:59:12.878Z</time></trkpt><trkpt lat="44.8520466" lon="7.7475479"><ele>242.60000000000002</ele><time>2026-05-01T08:59:13.878Z</time></trkpt><trkpt lat="44.8519803" lon="7.7476917"><ele>243.0</ele><time>2026-05-01T08:59:14.878Z</time></trkpt><trkpt lat="44.8519043" lon="7.7478422"><ele>243.5</ele><time>2026-05-01T08:59:15.878Z</time></trkpt><trkpt lat="44.8518375" lon="7.7479897"><ele>244.0</ele><time>2026-05-01T08:59:16.878Z</time></trkpt><trkpt lat="44.8517679" lon="7.7481177"><ele>244.5</ele><time>2026-05-01T08:59:17.878Z</time></trkpt><trkpt lat="44.8516886" lon="7.7482455"><ele>245.0</ele><time>2026-05-01T08:59:18.878Z</time></trkpt><trkpt lat="44.8516017" lon="7.7483414"><ele>245.25</ele><time>2026-05-01T08:59:19.878Z</time></trkpt><trkpt lat="44.8514996" lon="7.7484179"><ele>245.5</ele><time>2026-05-01T08:59:20.878Z</time></trkpt><trkpt lat="44.8513828" lon="7.7484733"><ele>245.75</ele><time>2026-05-01T08:59:21.878Z</time></trkpt><trkpt lat="44.8512423" lon="7.7485071"><ele>246.0</ele><time>2026-05-01T08:59:22.878Z</time></trkpt><trkpt lat="44.8511055" lon="7.7485341"><ele>245.33333333333331</ele><time>2026-05-01T08:59:23.878Z</time></trkpt><trkpt lat="44.8509533" lon="7.7485759"><ele>244.66666666666666</ele><time>2026-05-01T08:59:24.878Z</time></trkpt><trkpt lat="44.8508085" lon="7.7486169"><ele>244.0</ele><time>2026-05-01T08:59:25.878Z</time></trkpt><trkpt lat="44.8506618" lon="7.7486449"><ele>244.0</ele><time>2026-05-01T08:59:26.878Z</time></trkpt><trkpt lat="44.8505151" lon="7.7486701"><ele>244.0</ele><time>2026-05-01T08:59:27.878Z</time></trkpt><trkpt lat="44.8503689" lon="7.7486949"><ele>244.0</ele><time>2026-05-01T08:59:28.878Z</time></trkpt><trkpt lat="44.8502116" lon="7.7487195"><ele>243.66666666666666</ele><time>2026-05-01T08:59:29.878Z</time></trkpt><trkpt lat="44.8500541" lon="7.7487408"><ele>243.33333333333331</ele><time>2026-05-01T08:59:30.879Z</time></trkpt><trkpt lat="44.8498965" lon="7.7487601"><ele>243.0</ele><time>2026-05-01T08:59:31.878Z</time></trkpt><trkpt lat="44.8497275" lon="7.7487809"><ele>243.0</ele><time>2026-05-01T08:59:32.878Z</time></trkpt><trkpt lat="44.8495543" lon="7.7487953"><ele>243.0</ele><time>2026-05-01T08:59:33.878Z</time></trkpt><trkpt lat="44.8493783" lon="7.7488088"><ele>243.0</ele><time>2026-05-01T08:59:34.878Z</time></trkpt><trkpt lat="44.8491934" lon="7.7488246"><ele>242.0</ele><time>2026-05-01T08:59:35.878Z</time></trkpt><trkpt lat="44.8490103" lon="7.7488412"><ele>241.0</ele><time>2026-05-01T08:59:36.878Z</time></trkpt><trkpt lat="44.8488285" lon="7.7488682"><ele>240.0</ele><time>2026-05-01T08:59:37.878Z</time></trkpt><trkpt lat="44.8486536" lon="7.7488854"><ele>240.0</ele><time>2026-05-01T08:59:38.878Z</time></trkpt><trkpt lat="44.8484832" lon="7.748901"><ele>240.0</ele><time>2026-05-01T08:59:39.878Z</time></trkpt><trkpt lat="44.848316" lon="7.7489188"><ele>240.0</ele><time>2026-05-01T08:59:40.878Z</time></trkpt><trkpt lat="44.8481506" lon="7.7489362"><ele>241.0</ele><time>2026-05-01T08:59:41.878Z</time></trkpt><trkpt lat="44.8479815" lon="7.7489496"><ele>242.0</ele><time>2026-05-01T08:59:42.879Z</time></trkpt><trkpt lat="44.8477955" lon="7.7489538"><ele>243.0</ele><time>2026-05-01T08:59:43.878Z</time></trkpt><trkpt lat="44.8476095" lon="7.7489695"><ele>243.66666666666669</ele><time>2026-05-01T08:59:44.878Z</time></trkpt><trkpt lat="44.8474137" lon="7.748978"><ele>244.33333333333334</ele><time>2026-05-01T08:59:45.878Z</time></trkpt><trkpt lat="44.847223" lon="7.7489912"><ele>245.0</ele><time>2026-05-01T08:59:46.879Z</time></trkpt><trkpt lat="44.8470271" lon="7.7490088"><ele>245.0</ele><time>2026-05-01T08:59:47.878Z</time></trkpt><trkpt lat="44.8468332" lon="7.7490204"><ele>245.0</ele><time>2026-05-01T08:59:48.878Z</time></trkpt><trkpt lat="44.8466351" lon="7.7490201"><ele>245.0</ele><time>2026-05-01T08:59:49.878Z</time></trkpt><trkpt lat="44.8464358" lon="7.7490372"><ele>244.33333333333334</ele><time>2026-05-01T08:59:50.878Z</time></trkpt><trkpt lat="44.8462314" lon="7.7490451"><ele>243.66666666666669</ele><time>2026-05-01T08:59:51.878Z</time></trkpt><trkpt lat="44.8460255" lon="7.7490611"><ele>243.0</ele><time>2026-05-01T08:59:52.878Z</time></trkpt><trkpt lat="44.8458094" lon="7.749079"><ele>243.0</ele><time>2026-05-01T08:59:53.878Z</time></trkpt><trkpt lat="44.8455929" lon="7.7490951"><ele>243.0</ele><time>2026-05-01T08:59:54.878Z</time></trkpt><trkpt lat="44.8453776" lon="7.7491028"><ele>243.0</ele><time>2026-05-01T08:59:55.878Z</time></trkpt><trkpt lat="44.8451615" lon="7.7491141"><ele>242.66666666666669</ele><time>2026-05-01T08:59:56.878Z</time></trkpt><trkpt lat="44.8449585" lon="7.7491315"><ele>242.33333333333334</ele><time>2026-05-01T08:59:57.878Z</time></trkpt><trkpt lat="44.8447362" lon="7.7491633"><ele>242.0</ele><time>2026-05-01T08:59:58.878Z</time></trkpt><trkpt lat="44.844514" lon="7.7491953"><ele>243.0</ele><time>2026-05-01T08:59:59.879Z</time></trkpt><trkpt lat="44.8442751" lon="7.7492199"><ele>244.0</ele><time>2026-05-01T09:00:00.878Z</time></trkpt><trkpt lat="44.8440253" lon="7.7492448"><ele>244.0</ele><time>2026-05-01T09:00:01.878Z</time></trkpt><trkpt lat="44.8437473" lon="7.7492762"><ele>244.0</ele><time>2026-05-01T09:00:02.878Z</time></trkpt><trkpt lat="44.8434756" lon="7.7492953"><ele>243.5</ele><time>2026-05-01T09:00:03.878Z</time></trkpt><trkpt lat="44.843191" lon="7.7493085"><ele>243.0</ele><time>2026-05-01T09:00:04.878Z</time></trkpt><trkpt lat="44.8429104" lon="7.7493258"><ele>243.5</ele><time>2026-05-01T09:00:05.878Z</time></trkpt><trkpt lat="44.8426252" lon="7.7493483"><ele>244.0</ele><time>2026-05-01T09:00:06.878Z</time></trkpt><trkpt lat="44.8423413" lon="7.7493606"><ele>244.0</ele><time>2026-05-01T09:00:07.878Z</time></trkpt><trkpt lat="44.8420484" lon="7.7493792"><ele>244.0</ele><time>2026-05-01T09:00:08.878Z</time></trkpt><trkpt lat="44.8417585" lon="7.7493972"><ele>244.0</ele><time>2026-05-01T09:00:09.879Z</time></trkpt><trkpt lat="44.8414737" lon="7.7494209"><ele>244.0</ele><time>2026-05-01T09:00:10.878Z</time></trkpt><trkpt lat="44.8411831" lon="7.7494345"><ele>244.0</ele><time>2026-05-01T09:00:11.878Z</time></trkpt><trkpt lat="44.8408877" lon="7.7494565"><ele>244.0</ele><time>2026-05-01T09:00:12.878Z</time></trkpt><trkpt lat="44.8406032" lon="7.7494745"><ele>244.0</ele><time>2026-05-01T09:00:13.878Z</time></trkpt><trkpt lat="44.8403124" lon="7.7494912"><ele>244.0</ele><time>2026-05-01T09:00:14.879Z</time></trkpt><trkpt lat="44.8400217" lon="7.7495033"><ele>244.0</ele><time>2026-05-01T09:00:15.878Z</time></trkpt><trkpt lat="44.8397306" lon="7.7495272"><ele>244.0</ele><time>2026-05-01T09:00:16.879Z</time></trkpt><trkpt lat="44.8394344" lon="7.7495461"><ele>244.0</ele><time>2026-05-01T09:00:17.878Z</time></trkpt><trkpt lat="44.8391322" lon="7.7495719"><ele>244.0</ele><time>2026-05-01T09:00:18.878Z</time></trkpt><trkpt lat="44.8388388" lon="7.7495913"><ele>244.0</ele><time>2026-05-01T09:00:19.879Z</time></trkpt><trkpt lat="44.8385449" lon="7.7495982"><ele>244.0</ele><time>2026-05-01T09:00:20.878Z</time></trkpt><trkpt lat="44.8382498" lon="7.7496163"><ele>245.0</ele><time>2026-05-01T09:00:21.878Z</time></trkpt><trkpt lat="44.837951" lon="7.7496353"><ele>246.0</ele><time>2026-05-01T09:00:22.878Z</time></trkpt><trkpt lat="44.8376513" lon="7.7496574"><ele>244.5</ele><time>2026-05-01T09:00:23.878Z</time></trkpt><trkpt lat="44.8373561" lon="7.7496837"><ele>243.0</ele><time>2026-05-01T09:00:24.878Z</time></trkpt><trkpt lat="44.8370593" lon="7.7497116"><ele>243.5</ele><time>2026-05-01T09:00:25.878Z</time></trkpt><trkpt lat="44.8367557" lon="7.7497383"><ele>244.0</ele><time>2026-05-01T09:00:26.878Z</time></trkpt><trkpt lat="44.8364554" lon="7.7497602"><ele>244.0</ele><time>2026-05-01T09:00:27.878Z</time></trkpt><trkpt lat="44.8361573" lon="7.749776"><ele>244.0</ele><time>2026-05-01T09:00:28.878Z</time></trkpt><trkpt lat="44.8358613" lon="7.7498011"><ele>244.5</ele><time>2026-05-01T09:00:29.878Z</time></trkpt><trkpt lat="44.8355608" lon="7.7498225"><ele>245.0</ele><time>2026-05-01T09:00:30.878Z</time></trkpt><trkpt lat="44.8352573" lon="7.7498544"><ele>245.0</ele><time>2026-05-01T09:00:31.878Z</time></trkpt><trkpt lat="44.8349521" lon="7.7498685"><ele>245.0</ele><time>2026-05-01T09:00:32.878Z</time></trkpt><trkpt lat="44.8346537" lon="7.7498969"><ele>245.0</ele><time>2026-05-01T09:00:33.878Z</time></trkpt><trkpt lat="44.8343533" lon="7.7499197"><ele>245.0</ele><time>2026-05-01T09:00:34.878Z</time></trkpt><trkpt lat="44.8340471" lon="7.7499444"><ele>245.0</ele><time>2026-05-01T09:00:35.878Z</time></trkpt><trkpt lat="44.8337372" lon="7.7499615"><ele>245.0</ele><time>2026-05-01T09:00:36.878Z</time></trkpt><trkpt lat="44.8334277" lon="7.7499829"><ele>245.0</ele><time>2026-05-01T09:00:37.878Z</time></trkpt><trkpt lat="44.8331161" lon="7.750003"><ele>245.0</ele><time>2026-05-01T09:00:38.878Z</time></trkpt><trkpt lat="44.8328069" lon="7.7500168"><ele>245.0</ele><time>2026-05-01T09:00:39.878Z</time></trkpt><trkpt lat="44.8324966" lon="7.7500383"><ele>245.0</ele><time>2026-05-01T09:00:40.878Z</time></trkpt><trkpt lat="44.8321862" lon="7.7500599"><ele>245.0</ele><time>2026-05-01T09:00:41.878Z</time></trkpt><trkpt lat="44.8318764" lon="7.7500814"><ele>245.0</ele><time>2026-05-01T09:00:42.878Z</time></trkpt><trkpt lat="44.8315647" lon="7.7500978"><ele>245.5</ele><time>2026-05-01T09:00:43.878Z</time></trkpt><trkpt lat="44.8312543" lon="7.7501203"><ele>246.0</ele><time>2026-05-01T09:00:44.878Z</time></trkpt><trkpt lat="44.8309479" lon="7.7501375"><ele>246.0</ele><time>2026-05-01T09:00:45.878Z</time></trkpt><trkpt lat="44.8306419" lon="7.7501541"><ele>246.0</ele><time>2026-05-01T09:00:46.878Z</time></trkpt><trkpt lat="44.8303325" lon="7.7501696"><ele>245.0</ele><time>2026-05-01T09:00:47.878Z</time></trkpt><trkpt lat="44.8300306" lon="7.7501843"><ele>244.0</ele><time>2026-05-01T09:00:48.878Z</time></trkpt><trkpt lat="44.8297256" lon="7.7502046"><ele>244.0</ele><time>2026-05-01T09:00:49.878Z</time></trkpt><trkpt lat="44.8294214" lon="7.7502267"><ele>244.0</ele><time>2026-05-01T09:00:50.878Z</time></trkpt><trkpt lat="44.8291163" lon="7.7502425"><ele>244.5</ele><time>2026-05-01T09:00:51.878Z</time></trkpt><trkpt lat="44.8288103" lon="7.7502543"><ele>245.0</ele><time>2026-05-01T09:00:52.878Z</time></trkpt><trkpt lat="44.8285066" lon="7.7502765"><ele>245.5</ele><time>2026-05-01T09:00:53.878Z</time></trkpt><trkpt lat="44.8282022" lon="7.7502999"><ele>246.0</ele><time>2026-05-01T09:00:54.878Z</time></trkpt><trkpt lat="44.8278946" lon="7.7503266"><ele>246.5</ele><time>2026-05-01T09:00:55.878Z</time></trkpt><trkpt lat="44.8275854" lon="7.7503458"><ele>247.0</ele><time>2026-05-01T09:00:56.878Z</time></trkpt><trkpt lat="44.8272813" lon="7.7503695"><ele>247.0</ele><time>2026-05-01T09:00:57.878Z</time></trkpt><trkpt lat="44.8269748" lon="7.7503967"><ele>247.0</ele><time>2026-05-01T09:00:58.878Z</time></trkpt><trkpt lat="44.8266702" lon="7.7504146"><ele>246.5</ele><time>2026-05-01T09:00:59.878Z</time></trkpt><trkpt lat="44.8263636" lon="7.750438"><ele>246.0</ele><time>2026-05-01T09:01:00.878Z</time></trkpt><trkpt lat="44.8260545" lon="7.7504498"><ele>245.0</ele><time>2026-05-01T09:01:01.878Z</time></trkpt><trkpt lat="44.8257531" lon="7.7504695"><ele>244.0</ele><time>2026-05-01T09:01:02.878Z</time></trkpt><trkpt lat="44.8254459" lon="7.7504928"><ele>245.0</ele><time>2026-05-01T09:01:03.878Z</time></trkpt><trkpt lat="44.825142" lon="7.7505166"><ele>246.0</ele><time>2026-05-01T09:01:04.878Z</time></trkpt><trkpt lat="44.8248378" lon="7.7505391"><ele>246.0</ele><time>2026-05-01T09:01:05.878Z</time></trkpt><trkpt lat="44.8245359" lon="7.7505609"><ele>246.0</ele><time>2026-05-01T09:01:06.878Z</time></trkpt><trkpt lat="44.824227" lon="7.7505845"><ele>245.5</ele><time>2026-05-01T09:01:07.878Z</time></trkpt><trkpt lat="44.8239191" lon="7.7506094"><ele>245.0</ele><time>2026-05-01T09:01:08.878Z</time></trkpt><trkpt lat="44.8236141" lon="7.7506296"><ele>246.0</ele><time>2026-05-01T09:01:09.878Z</time></trkpt><trkpt lat="44.8233115" lon="7.7506514"><ele>247.0</ele><time>2026-05-01T09:01:10.878Z</time></trkpt><trkpt lat="44.8230082" lon="7.7506725"><ele>247.0</ele><time>2026-05-01T09:01:11.878Z</time></trkpt><trkpt lat="44.8227032" lon="7.7506974"><ele>247.0</ele><time>2026-05-01T09:01:12.879Z</time></trkpt><trkpt lat="44.8224024" lon="7.7507087"><ele>247.0</ele><time>2026-05-01T09:01:13.878Z</time></trkpt><trkpt lat="44.8221001" lon="7.7507346"><ele>247.0</ele><time>2026-05-01T09:01:14.878Z</time></trkpt><trkpt lat="44.8217986" lon="7.7507574"><ele>247.0</ele><time>2026-05-01T09:01:15.878Z</time></trkpt><trkpt lat="44.8215024" lon="7.7507711"><ele>247.0</ele><time>2026-05-01T09:01:16.878Z</time></trkpt><trkpt lat="44.8211981" lon="7.7507984"><ele>247.0</ele><time>2026-05-01T09:01:17.878Z</time></trkpt><trkpt lat="44.820907" lon="7.7508245"><ele>247.0</ele><time>2026-05-01T09:01:18.878Z</time></trkpt><trkpt lat="44.8206109" lon="7.7508293"><ele>247.0</ele><time>2026-05-01T09:01:19.878Z</time></trkpt><trkpt lat="44.820316" lon="7.7508601"><ele>247.0</ele><time>2026-05-01T09:01:20.878Z</time></trkpt><trkpt lat="44.8200259" lon="7.7508779"><ele>247.5</ele><time>2026-05-01T09:01:21.878Z</time></trkpt><trkpt lat="44.8197377" lon="7.7509062"><ele>248.0</ele><time>2026-05-01T09:01:22.878Z</time></trkpt><trkpt lat="44.8194523" lon="7.7509229"><ele>247.5</ele><time>2026-05-01T09:01:23.878Z</time></trkpt><trkpt lat="44.819163" lon="7.7509434"><ele>247.0</ele><time>2026-05-01T09:01:24.878Z</time></trkpt><trkpt lat="44.8188724" lon="7.7509604"><ele>247.0</ele><time>2026-05-01T09:01:25.878Z</time></trkpt><trkpt lat="44.8185825" lon="7.7509776"><ele>247.0</ele><time>2026-05-01T09:01:26.878Z</time></trkpt><trkpt lat="44.8182967" lon="7.7510037"><ele>247.0</ele><time>2026-05-01T09:01:27.878Z</time></trkpt><trkpt lat="44.81801" lon="7.7510179"><ele>247.0</ele><time>2026-05-01T09:01:28.878Z</time></trkpt><trkpt lat="44.8177278" lon="7.7510372"><ele>248.0</ele><time>2026-05-01T09:01:29.878Z</time></trkpt><trkpt lat="44.8174412" lon="7.7510608"><ele>249.0</ele><time>2026-05-01T09:01:30.879Z</time></trkpt><trkpt lat="44.8171632" lon="7.7510812"><ele>249.0</ele><time>2026-05-01T09:01:31.878Z</time></trkpt><trkpt lat="44.8168841" lon="7.7511038"><ele>249.0</ele><time>2026-05-01T09:01:32.878Z</time></trkpt><trkpt lat="44.8166061" lon="7.7511337"><ele>249.5</ele><time>2026-05-01T09:01:33.878Z</time></trkpt><trkpt lat="44.8163291" lon="7.7511664"><ele>250.0</ele><time>2026-05-01T09:01:34.878Z</time></trkpt><trkpt lat="44.8160472" lon="7.7511941"><ele>251.0</ele><time>2026-05-01T09:01:35.878Z</time></trkpt><trkpt lat="44.8157697" lon="7.751226"><ele>252.0</ele><time>2026-05-01T09:01:36.879Z</time></trkpt><trkpt lat="44.8154872" lon="7.751257"><ele>252.0</ele><time>2026-05-01T09:01:37.878Z</time></trkpt><trkpt lat="44.8152102" lon="7.7512845"><ele>252.0</ele><time>2026-05-01T09:01:38.878Z</time></trkpt><trkpt lat="44.8149319" lon="7.7512959"><ele>251.0</ele><time>2026-05-01T09:01:39.878Z</time></trkpt><trkpt lat="44.8146533" lon="7.7513178"><ele>250.0</ele><time>2026-05-01T09:01:40.878Z</time></trkpt><trkpt lat="44.8143745" lon="7.7513359"><ele>250.0</ele><time>2026-05-01T09:01:41.878Z</time></trkpt><trkpt lat="44.8141034" lon="7.7513479"><ele>250.0</ele><time>2026-05-01T09:01:42.878Z</time></trkpt><trkpt lat="44.8138236" lon="7.7513721"><ele>250.0</ele><time>2026-05-01T09:01:43.878Z</time></trkpt><trkpt lat="44.813547" lon="7.751388"><ele>250.0</ele><time>2026-05-01T09:01:44.878Z</time></trkpt><trkpt lat="44.8132605" lon="7.7514073"><ele>250.0</ele><time>2026-05-01T09:01:45.879Z</time></trkpt><trkpt lat="44.8129815" lon="7.7514263"><ele>250.0</ele><time>2026-05-01T09:01:46.878Z</time></trkpt><trkpt lat="44.8127052" lon="7.7514446"><ele>250.5</ele><time>2026-05-01T09:01:47.878Z</time></trkpt><trkpt lat="44.8124093" lon="7.7514616"><ele>251.0</ele><time>2026-05-01T09:01:48.879Z</time></trkpt><trkpt lat="44.8121121" lon="7.7514754"><ele>250.5</ele><time>2026-05-01T09:01:49.879Z</time></trkpt><trkpt lat="44.8118226" lon="7.7514973"><ele>250.0</ele><time>2026-05-01T09:01:50.878Z</time></trkpt><trkpt lat="44.8115279" lon="7.7515228"><ele>250.0</ele><time>2026-05-01T09:01:51.878Z</time></trkpt><trkpt lat="44.8112337" lon="7.751549"><ele>250.0</ele><time>2026-05-01T09:01:52.878Z</time></trkpt><trkpt lat="44.8109439" lon="7.7515674"><ele>250.0</ele><time>2026-05-01T09:01:53.878Z</time></trkpt><trkpt lat="44.8106508" lon="7.7515868"><ele>250.0</ele><time>2026-05-01T09:01:54.878Z</time></trkpt><trkpt lat="44.8103608" lon="7.7516032"><ele>251.5</ele><time>2026-05-01T09:01:55.878Z</time></trkpt><trkpt lat="44.8100713" lon="7.751618"><ele>253.0</ele><time>2026-05-01T09:01:56.879Z</time></trkpt><trkpt lat="44.8097798" lon="7.7516412"><ele>253.0</ele><time>2026-05-01T09:01:57.878Z</time></trkpt><trkpt lat="44.8094904" lon="7.7516582"><ele>253.0</ele><time>2026-05-01T09:01:58.878Z</time></trkpt><trkpt lat="44.8092019" lon="7.7516723"><ele>253.5</ele><time>2026-05-01T09:01:59.879Z</time></trkpt><trkpt lat="44.8089122" lon="7.7516719"><ele>254.0</ele><time>2026-05-01T09:02:00.878Z</time></trkpt><trkpt lat="44.8086242" lon="7.7516869"><ele>253.5</ele><time>2026-05-01T09:02:01.878Z</time></trkpt><trkpt lat="44.8083371" lon="7.7517037"><ele>253.0</ele><time>2026-05-01T09:02:02.878Z</time></trkpt><trkpt lat="44.8080493" lon="7.751719"><ele>253.0</ele><time>2026-05-01T09:02:03.878Z</time></trkpt><trkpt lat="44.8077643" lon="7.7517298"><ele>253.0</ele><time>2026-05-01T09:02:04.878Z</time></trkpt><trkpt lat="44.8074795" lon="7.751748"><ele>253.5</ele><time>2026-05-01T09:02:05.878Z</time></trkpt><trkpt lat="44.8071986" lon="7.7517642"><ele>254.0</ele><time>2026-05-01T09:02:06.878Z</time></trkpt><trkpt lat="44.8069121" lon="7.7517857"><ele>254.5</ele><time>2026-05-01T09:02:07.878Z</time></trkpt><trkpt lat="44.8066268" lon="7.7518118"><ele>255.0</ele><time>2026-05-01T09:02:08.878Z</time></trkpt><trkpt lat="44.806341" lon="7.7518326"><ele>255.0</ele><time>2026-05-01T09:02:09.878Z</time></trkpt><trkpt lat="44.8060616" lon="7.7518544"><ele>255.0</ele><time>2026-05-01T09:02:10.878Z</time></trkpt><trkpt lat="44.8057721" lon="7.7518786"><ele>254.0</ele><time>2026-05-01T09:02:11.878Z</time></trkpt><trkpt lat="44.8054852" lon="7.7518992"><ele>253.0</ele><time>2026-05-01T09:02:12.878Z</time></trkpt><trkpt lat="44.8051918" lon="7.7519231"><ele>252.5</ele><time>2026-05-01T09:02:13.878Z</time></trkpt><trkpt lat="44.8049015" lon="7.7519414"><ele>252.0</ele><time>2026-05-01T09:02:14.878Z</time></trkpt><trkpt lat="44.8046141" lon="7.7519636"><ele>252.0</ele><time>2026-05-01T09:02:15.878Z</time></trkpt><trkpt lat="44.8043315" lon="7.7519789"><ele>252.0</ele><time>2026-05-01T09:02:16.878Z</time></trkpt><trkpt lat="44.804042" lon="7.7520034"><ele>252.5</ele><time>2026-05-01T09:02:17.878Z</time></trkpt><trkpt lat="44.8037588" lon="7.752027"><ele>253.0</ele><time>2026-05-01T09:02:18.878Z</time></trkpt><trkpt lat="44.8034659" lon="7.7520544"><ele>253.0</ele><time>2026-05-01T09:02:19.879Z</time></trkpt><trkpt lat="44.8031821" lon="7.7520754"><ele>253.0</ele><time>2026-05-01T09:02:20.878Z</time></trkpt><trkpt lat="44.8028978" lon="7.7520887"><ele>253.0</ele><time>2026-05-01T09:02:21.878Z</time></trkpt><trkpt lat="44.8026201" lon="7.7521163"><ele>253.0</ele><time>2026-05-01T09:02:22.878Z</time></trkpt><trkpt lat="44.8023417" lon="7.752131"><ele>253.0</ele><time>2026-05-01T09:02:23.878Z</time></trkpt><trkpt lat="44.8020601" lon="7.7521525"><ele>253.0</ele><time>2026-05-01T09:02:24.878Z</time></trkpt><trkpt lat="44.8017867" lon="7.7521663"><ele>253.0</ele><time>2026-05-01T09:02:25.878Z</time></trkpt><trkpt lat="44.8015036" lon="7.7521862"><ele>253.0</ele><time>2026-05-01T09:02:26.878Z</time></trkpt><trkpt lat="44.8012294" lon="7.7522049"><ele>253.5</ele><time>2026-05-01T09:02:27.878Z</time></trkpt><trkpt lat="44.8009529" lon="7.752223"><ele>254.0</ele><time>2026-05-01T09:02:28.878Z</time></trkpt><trkpt lat="44.8006683" lon="7.7522483"><ele>254.0</ele><time>2026-05-01T09:02:29.878Z</time></trkpt><trkpt lat="44.8003952" lon="7.7522673"><ele>254.0</ele><time>2026-05-01T09:02:30.878Z</time></trkpt><trkpt lat="44.8001238" lon="7.7522996"><ele>254.5</ele><time>2026-05-01T09:02:31.878Z</time></trkpt><trkpt lat="44.7998512" lon="7.7523324"><ele>255.0</ele><time>2026-05-01T09:02:32.878Z</time></trkpt><trkpt lat="44.7995756" lon="7.7523628"><ele>255.0</ele><time>2026-05-01T09:02:33.878Z</time></trkpt><trkpt lat="44.7993068" lon="7.7523795"><ele>255.0</ele><time>2026-05-01T09:02:34.878Z</time></trkpt><trkpt lat="44.799039" lon="7.7524076"><ele>255.0</ele><time>2026-05-01T09:02:35.878Z</time></trkpt><trkpt lat="44.7987696" lon="7.7524252"><ele>255.0</ele><time>2026-05-01T09:02:36.878Z</time></trkpt><trkpt lat="44.7984838" lon="7.7524488"><ele>255.0</ele><time>2026-05-01T09:02:37.878Z</time></trkpt><trkpt lat="44.7982051" lon="7.7524709"><ele>255.0</ele><time>2026-05-01T09:02:38.878Z</time></trkpt><trkpt lat="44.797925" lon="7.7524926"><ele>255.5</ele><time>2026-05-01T09:02:39.878Z</time></trkpt><trkpt lat="44.797643" lon="7.7525119"><ele>256.0</ele><time>2026-05-01T09:02:40.879Z</time></trkpt><trkpt lat="44.7973698" lon="7.7525283"><ele>256.0</ele><time>2026-05-01T09:02:41.878Z</time></trkpt><trkpt lat="44.7970908" lon="7.7525478"><ele>256.0</ele><time>2026-05-01T09:02:42.878Z</time></trkpt><trkpt lat="44.7968126" lon="7.7525698"><ele>256.0</ele><time>2026-05-01T09:02:43.878Z</time></trkpt><trkpt lat="44.7965368" lon="7.7525861"><ele>256.0</ele><time>2026-05-01T09:02:44.879Z</time></trkpt><trkpt lat="44.7962656" lon="7.7526069"><ele>255.5</ele><time>2026-05-01T09:02:45.878Z</time></trkpt><trkpt lat="44.7960017" lon="7.7526232"><ele>255.0</ele><time>2026-05-01T09:02:46.878Z</time></trkpt><trkpt lat="44.7957303" lon="7.7526422"><ele>255.0</ele><time>2026-05-01T09:02:47.878Z</time></trkpt><trkpt lat="44.7954634" lon="7.7526625"><ele>255.0</ele><time>2026-05-01T09:02:48.878Z</time></trkpt><trkpt lat="44.7952037" lon="7.7526794"><ele>255.0</ele><time>2026-05-01T09:02:49.878Z</time></trkpt><trkpt lat="44.794945" lon="7.7527058"><ele>255.0</ele><time>2026-05-01T09:02:50.878Z</time></trkpt><trkpt lat="44.7946859" lon="7.7527282"><ele>255.0</ele><time>2026-05-01T09:02:51.878Z</time></trkpt><trkpt lat="44.794425" lon="7.7527484"><ele>255.0</ele><time>2026-05-01T09:02:52.878Z</time></trkpt><trkpt lat="44.7941622" lon="7.7527678"><ele>253.5</ele><time>2026-05-01T09:02:53.878Z</time></trkpt><trkpt lat="44.793899" lon="7.752788"><ele>252.0</ele><time>2026-05-01T09:02:54.878Z</time></trkpt><trkpt lat="44.7936495" lon="7.7528113"><ele>252.0</ele><time>2026-05-01T09:02:55.879Z</time></trkpt><trkpt lat="44.793392" lon="7.7528271"><ele>252.0</ele><time>2026-05-01T09:02:56.878Z</time></trkpt><trkpt lat="44.793131" lon="7.7528442"><ele>252.0</ele><time>2026-05-01T09:02:57.878Z</time></trkpt><trkpt lat="44.7928686" lon="7.7528626"><ele>252.0</ele><time>2026-05-01T09:02:58.878Z</time></trkpt><trkpt lat="44.7926007" lon="7.7528749"><ele>253.0</ele><time>2026-05-01T09:02:59.878Z</time></trkpt><trkpt lat="44.7923285" lon="7.7528941"><ele>254.0</ele><time>2026-05-01T09:03:00.878Z</time></trkpt><trkpt lat="44.7920522" lon="7.752912"><ele>253.5</ele><time>2026-05-01T09:03:01.878Z</time></trkpt><trkpt lat="44.791782" lon="7.7529376"><ele>253.0</ele><time>2026-05-01T09:03:02.878Z</time></trkpt><trkpt lat="44.7915" lon="7.7529572"><ele>253.0</ele><time>2026-05-01T09:03:03.878Z</time></trkpt><trkpt lat="44.7912158" lon="7.7529812"><ele>253.0</ele><time>2026-05-01T09:03:04.879Z</time></trkpt><trkpt lat="44.7909374" lon="7.7530043"><ele>253.5</ele><time>2026-05-01T09:03:05.878Z</time></trkpt><trkpt lat="44.7906609" lon="7.7530297"><ele>254.0</ele><time>2026-05-01T09:03:06.878Z</time></trkpt><trkpt lat="44.7903846" lon="7.7530499"><ele>254.5</ele><time>2026-05-01T09:03:07.878Z</time></trkpt><trkpt lat="44.7901104" lon="7.753056"><ele>255.0</ele><time>2026-05-01T09:03:08.878Z</time></trkpt><trkpt lat="44.789834" lon="7.7530743"><ele>255.0</ele><time>2026-05-01T09:03:09.878Z</time></trkpt><trkpt lat="44.7895589" lon="7.7530833"><ele>255.0</ele><time>2026-05-01T09:03:10.879Z</time></trkpt><trkpt lat="44.789284" lon="7.7530875"><ele>254.5</ele><time>2026-05-01T09:03:11.878Z</time></trkpt><trkpt lat="44.7890089" lon="7.7530886"><ele>254.0</ele><time>2026-05-01T09:03:12.878Z</time></trkpt><trkpt lat="44.7887397" lon="7.7530985"><ele>255.5</ele><time>2026-05-01T09:03:13.878Z</time></trkpt><trkpt lat="44.7884672" lon="7.7530957"><ele>257.0</ele><time>2026-05-01T09:03:14.878Z</time></trkpt><trkpt lat="44.7881973" lon="7.7530845"><ele>257.0</ele><time>2026-05-01T09:03:15.878Z</time></trkpt><trkpt lat="44.7879241" lon="7.753076"><ele>257.0</ele><time>2026-05-01T09:03:16.878Z</time></trkpt><trkpt lat="44.7876519" lon="7.7530655"><ele>256.0</ele><time>2026-05-01T09:03:17.878Z</time></trkpt><trkpt lat="44.7873783" lon="7.7530676"><ele>255.0</ele><time>2026-05-01T09:03:18.878Z</time></trkpt><trkpt lat="44.7871025" lon="7.7530746"><ele>254.0</ele><time>2026-05-01T09:03:19.878Z</time></trkpt><trkpt lat="44.7868199" lon="7.7530666"><ele>253.0</ele><time>2026-05-01T09:03:20.878Z</time></trkpt><trkpt lat="44.7865387" lon="7.7530578"><ele>253.0</ele><time>2026-05-01T09:03:21.878Z</time></trkpt><trkpt lat="44.7862443" lon="7.7530566"><ele>253.0</ele><time>2026-05-01T09:03:22.878Z</time></trkpt><trkpt lat="44.7859501" lon="7.7530447"><ele>253.5</ele><time>2026-05-01T09:03:23.878Z</time></trkpt><trkpt lat="44.7856744" lon="7.753019"><ele>254.0</ele><time>2026-05-01T09:03:24.878Z</time></trkpt><trkpt lat="44.7853937" lon="7.7529916"><ele>254.5</ele><time>2026-05-01T09:03:25.878Z</time></trkpt><trkpt lat="44.7851095" lon="7.7529694"><ele>255.0</ele><time>2026-05-01T09:03:26.878Z</time></trkpt><trkpt lat="44.7848274" lon="7.7529448"><ele>255.0</ele><time>2026-05-01T09:03:27.879Z</time></trkpt><trkpt lat="44.7845385" lon="7.7529138"><ele>255.0</ele><time>2026-05-01T09:03:28.878Z</time></trkpt><trkpt lat="44.7842497" lon="7.7528745"><ele>255.0</ele><time>2026-05-01T09:03:29.879Z</time></trkpt><trkpt lat="44.7839725" lon="7.7528328"><ele>255.0</ele><time>2026-05-01T09:03:30.878Z</time></trkpt><trkpt lat="44.783696" lon="7.7527953"><ele>254.5</ele><time>2026-05-01T09:03:31.878Z</time></trkpt><trkpt lat="44.7834224" lon="7.7527519"><ele>254.0</ele><time>2026-05-01T09:03:32.878Z</time></trkpt><trkpt lat="44.7831414" lon="7.75271"><ele>254.5</ele><time>2026-05-01T09:03:33.878Z</time></trkpt><trkpt lat="44.7828635" lon="7.7526787"><ele>255.0</ele><time>2026-05-01T09:03:34.878Z</time></trkpt><trkpt lat="44.7825851" lon="7.7526514"><ele>256.5</ele><time>2026-05-01T09:03:35.878Z</time></trkpt><trkpt lat="44.7823036" lon="7.7526266"><ele>258.0</ele><time>2026-05-01T09:03:36.878Z</time></trkpt><trkpt lat="44.7820278" lon="7.7526045"><ele>258.0</ele><time>2026-05-01T09:03:37.878Z</time></trkpt><trkpt lat="44.781755" lon="7.7525718"><ele>258.0</ele><time>2026-05-01T09:03:38.878Z</time></trkpt><trkpt lat="44.7814783" lon="7.752549"><ele>258.0</ele><time>2026-05-01T09:03:39.878Z</time></trkpt><trkpt lat="44.7812064" lon="7.7525169"><ele>258.0</ele><time>2026-05-01T09:03:40.878Z</time></trkpt><trkpt lat="44.7809312" lon="7.7524898"><ele>257.5</ele><time>2026-05-01T09:03:41.878Z</time></trkpt><trkpt lat="44.7806606" lon="7.7524631"><ele>257.0</ele><time>2026-05-01T09:03:42.879Z</time></trkpt><trkpt lat="44.7803825" lon="7.7524298"><ele>256.0</ele><time>2026-05-01T09:03:43.878Z</time></trkpt><trkpt lat="44.780106" lon="7.7523983"><ele>255.0</ele><time>2026-05-01T09:03:44.878Z</time></trkpt><trkpt lat="44.7798259" lon="7.75237"><ele>255.0</ele><time>2026-05-01T09:03:45.878Z</time></trkpt><trkpt lat="44.7795463" lon="7.7523482"><ele>255.0</ele><time>2026-05-01T09:03:46.878Z</time></trkpt><trkpt lat="44.779268" lon="7.7523145"><ele>254.5</ele><time>2026-05-01T09:03:47.878Z</time></trkpt><trkpt lat="44.7789917" lon="7.752278"><ele>254.0</ele><time>2026-05-01T09:03:48.878Z</time></trkpt><trkpt lat="44.7787164" lon="7.7522538"><ele>254.5</ele><time>2026-05-01T09:03:49.878Z</time></trkpt><trkpt lat="44.7784328" lon="7.752223"><ele>255.0</ele><time>2026-05-01T09:03:50.878Z</time></trkpt><trkpt lat="44.7781534" lon="7.7521918"><ele>255.0</ele><time>2026-05-01T09:03:51.878Z</time></trkpt><trkpt lat="44.7778807" lon="7.7521599"><ele>255.0</ele><time>2026-05-01T09:03:52.878Z</time></trkpt><trkpt lat="44.7776003" lon="7.7521312"><ele>255.5</ele><time>2026-05-01T09:03:53.878Z</time></trkpt><trkpt lat="44.7773264" lon="7.7521024"><ele>256.0</ele><time>2026-05-01T09:03:54.878Z</time></trkpt><trkpt lat="44.7770439" lon="7.7520741"><ele>255.0</ele><time>2026-05-01T09:03:55.878Z</time></trkpt><trkpt lat="44.7767641" lon="7.7520397"><ele>254.0</ele><time>2026-05-01T09:03:56.879Z</time></trkpt><trkpt lat="44.7764858" lon="7.7520125"><ele>254.0</ele><time>2026-05-01T09:03:57.878Z</time></trkpt><trkpt lat="44.776214" lon="7.7519859"><ele>254.0</ele><time>2026-05-01T09:03:58.878Z</time></trkpt><trkpt lat="44.7759411" lon="7.7519561"><ele>255.0</ele><time>2026-05-01T09:03:59.878Z</time></trkpt><trkpt lat="44.7756582" lon="7.7519304"><ele>256.0</ele><time>2026-05-01T09:04:00.878Z</time></trkpt><trkpt lat="44.775385" lon="7.7519068"><ele>255.5</ele><time>2026-05-01T09:04:01.878Z</time></trkpt><trkpt lat="44.7750991" lon="7.7518761"><ele>255.0</ele><time>2026-05-01T09:04:02.878Z</time></trkpt><trkpt lat="44.7748173" lon="7.75185"><ele>254.5</ele><time>2026-05-01T09:04:03.879Z</time></trkpt><trkpt lat="44.7745359" lon="7.7518251"><ele>254.0</ele><time>2026-05-01T09:04:04.878Z</time></trkpt><trkpt lat="44.7742496" lon="7.7517921"><ele>254.0</ele><time>2026-05-01T09:04:05.879Z</time></trkpt><trkpt lat="44.7739571" lon="7.7517641"><ele>254.0</ele><time>2026-05-01T09:04:06.878Z</time></trkpt><trkpt lat="44.7736734" lon="7.7517369"><ele>254.0</ele><time>2026-05-01T09:04:07.878Z</time></trkpt><trkpt lat="44.7733895" lon="7.7517081"><ele>254.0</ele><time>2026-05-01T09:04:08.878Z</time></trkpt><trkpt lat="44.7731071" lon="7.7516797"><ele>254.0</ele><time>2026-05-01T09:04:09.878Z</time></trkpt><trkpt lat="44.7728212" lon="7.7516531"><ele>254.0</ele><time>2026-05-01T09:04:10.878Z</time></trkpt><trkpt lat="44.7725386" lon="7.7516187"><ele>255.0</ele><time>2026-05-01T09:04:11.878Z</time></trkpt><trkpt lat="44.7722618" lon="7.751589"><ele>256.0</ele><time>2026-05-01T09:04:12.878Z</time></trkpt><trkpt lat="44.7719824" lon="7.7515556"><ele>255.5</ele><time>2026-05-01T09:04:13.878Z</time></trkpt><trkpt lat="44.7717068" lon="7.7515213"><ele>255.0</ele><time>2026-05-01T09:04:14.878Z</time></trkpt><trkpt lat="44.7714283" lon="7.7514999"><ele>255.0</ele><time>2026-05-01T09:04:15.878Z</time></trkpt><trkpt lat="44.7711517" lon="7.7514661"><ele>255.0</ele><time>2026-05-01T09:04:16.878Z</time></trkpt><trkpt lat="44.7708711" lon="7.7514449"><ele>256.5</ele><time>2026-05-01T09:04:17.878Z</time></trkpt><trkpt lat="44.7705916" lon="7.7514093"><ele>258.0</ele><time>2026-05-01T09:04:18.878Z</time></trkpt><trkpt lat="44.7703135" lon="7.7513833"><ele>257.5</ele><time>2026-05-01T09:04:19.878Z</time></trkpt><trkpt lat="44.7700377" lon="7.7513601"><ele>257.0</ele><time>2026-05-01T09:04:20.878Z</time></trkpt><trkpt lat="44.7697684" lon="7.7513287"><ele>257.0</ele><time>2026-05-01T09:04:21.878Z</time></trkpt><trkpt lat="44.7694976" lon="7.7512946"><ele>257.0</ele><time>2026-05-01T09:04:22.878Z</time></trkpt><trkpt lat="44.7692257" lon="7.7512671"><ele>257.0</ele><time>2026-05-01T09:04:23.879Z</time></trkpt><trkpt lat="44.7689625" lon="7.7512471"><ele>257.0</ele><time>2026-05-01T09:04:24.878Z</time></trkpt><trkpt lat="44.7686867" lon="7.7512213"><ele>257.0</ele><time>2026-05-01T09:04:25.878Z</time></trkpt><trkpt lat="44.7684157" lon="7.7511911"><ele>257.0</ele><time>2026-05-01T09:04:26.878Z</time></trkpt><trkpt lat="44.7681468" lon="7.7511587"><ele>257.0</ele><time>2026-05-01T09:04:27.878Z</time></trkpt><trkpt lat="44.7678718" lon="7.7511302"><ele>257.0</ele><time>2026-05-01T09:04:28.878Z</time></trkpt><trkpt lat="44.7675914" lon="7.7510963"><ele>257.0</ele><time>2026-05-01T09:04:29.878Z</time></trkpt><trkpt lat="44.7673226" lon="7.7510737"><ele>257.0</ele><time>2026-05-01T09:04:30.878Z</time></trkpt><trkpt lat="44.7670487" lon="7.7510483"><ele>258.0</ele><time>2026-05-01T09:04:31.878Z</time></trkpt><trkpt lat="44.7667731" lon="7.7510208"><ele>259.0</ele><time>2026-05-01T09:04:32.878Z</time></trkpt><trkpt lat="44.7664901" lon="7.7509914"><ele>259.0</ele><time>2026-05-01T09:04:33.878Z</time></trkpt><trkpt lat="44.7662096" lon="7.7509683"><ele>259.0</ele><time>2026-05-01T09:04:34.878Z</time></trkpt><trkpt lat="44.7659321" lon="7.7509454"><ele>258.5</ele><time>2026-05-01T09:04:35.878Z</time></trkpt><trkpt lat="44.7656533" lon="7.7509126"><ele>258.0</ele><time>2026-05-01T09:04:36.878Z</time></trkpt><trkpt lat="44.7653764" lon="7.7508779"><ele>258.0</ele><time>2026-05-01T09:04:37.878Z</time></trkpt><trkpt lat="44.7651038" lon="7.7508498"><ele>258.0</ele><time>2026-05-01T09:04:38.878Z</time></trkpt><trkpt lat="44.7648293" lon="7.7508222"><ele>258.0</ele><time>2026-05-01T09:04:39.878Z</time></trkpt><trkpt lat="44.76455" lon="7.7508003"><ele>258.0</ele><time>2026-05-01T09:04:40.878Z</time></trkpt><trkpt lat="44.7642661" lon="7.7507735"><ele>258.0</ele><time>2026-05-01T09:04:41.878Z</time></trkpt><trkpt lat="44.7639862" lon="7.7507489"><ele>258.0</ele><time>2026-05-01T09:04:42.878Z</time></trkpt><trkpt lat="44.7637093" lon="7.7507274"><ele>258.0</ele><time>2026-05-01T09:04:43.878Z</time></trkpt><trkpt lat="44.7634314" lon="7.7507058"><ele>258.0</ele><time>2026-05-01T09:04:44.878Z</time></trkpt><trkpt lat="44.763141" lon="7.7506732"><ele>258.0</ele><time>2026-05-01T09:04:45.878Z</time></trkpt><trkpt lat="44.7628573" lon="7.7506542"><ele>258.0</ele><time>2026-05-01T09:04:46.878Z</time></trkpt><trkpt lat="44.7625733" lon="7.7506241"><ele>258.0</ele><time>2026-05-01T09:04:47.879Z</time></trkpt><trkpt lat="44.7622854" lon="7.7505987"><ele>258.0</ele><time>2026-05-01T09:04:48.878Z</time></trkpt><trkpt lat="44.7620046" lon="7.7505624"><ele>258.0</ele><time>2026-05-01T09:04:49.878Z</time></trkpt><trkpt lat="44.7617203" lon="7.7505321"><ele>258.0</ele><time>2026-05-01T09:04:50.878Z</time></trkpt><trkpt lat="44.7614403" lon="7.7504991"><ele>258.0</ele><time>2026-05-01T09:04:51.878Z</time></trkpt><trkpt lat="44.7611551" lon="7.7504712"><ele>258.0</ele><time>2026-05-01T09:04:52.878Z</time></trkpt><trkpt lat="44.760869" lon="7.7504371"><ele>259.0</ele><time>2026-05-01T09:04:53.878Z</time></trkpt><trkpt lat="44.7605817" lon="7.7504048"><ele>260.0</ele><time>2026-05-01T09:04:54.878Z</time></trkpt><trkpt lat="44.7602919" lon="7.7503757"><ele>260.0</ele><time>2026-05-01T09:04:55.878Z</time></trkpt><trkpt lat="44.7599979" lon="7.7503453"><ele>260.0</ele><time>2026-05-01T09:04:56.879Z</time></trkpt><trkpt lat="44.7597081" lon="7.7503189"><ele>260.0</ele><time>2026-05-01T09:04:57.878Z</time></trkpt><trkpt lat="44.7594203" lon="7.7502905"><ele>260.0</ele><time>2026-05-01T09:04:58.878Z</time></trkpt><trkpt lat="44.7591238" lon="7.7502661"><ele>259.5</ele><time>2026-05-01T09:04:59.878Z</time></trkpt><trkpt lat="44.7588355" lon="7.7502357"><ele>259.0</ele><time>2026-05-01T09:05:00.878Z</time></trkpt><trkpt lat="44.7585417" lon="7.7502021"><ele>259.5</ele><time>2026-05-01T09:05:01.878Z</time></trkpt><trkpt lat="44.7582462" lon="7.7501719"><ele>260.0</ele><time>2026-05-01T09:05:02.878Z</time></trkpt><trkpt lat="44.7579517" lon="7.7501441"><ele>261.0</ele><time>2026-05-01T09:05:03.878Z</time></trkpt><trkpt lat="44.757659" lon="7.7501107"><ele>262.0</ele><time>2026-05-01T09:05:04.879Z</time></trkpt><trkpt lat="44.7573677" lon="7.7500864"><ele>262.0</ele><time>2026-05-01T09:05:05.878Z</time></trkpt><trkpt lat="44.7570802" lon="7.7500503"><ele>262.0</ele><time>2026-05-01T09:05:06.878Z</time></trkpt><trkpt lat="44.7567894" lon="7.7500255"><ele>260.0</ele><time>2026-05-01T09:05:07.878Z</time></trkpt><trkpt lat="44.7564953" lon="7.7500066"><ele>258.0</ele><time>2026-05-01T09:05:08.878Z</time></trkpt><trkpt lat="44.7562058" lon="7.7499739"><ele>258.5</ele><time>2026-05-01T09:05:09.878Z</time></trkpt><trkpt lat="44.7559091" lon="7.7499569"><ele>259.0</ele><time>2026-05-01T09:05:10.878Z</time></trkpt><trkpt lat="44.7556101" lon="7.7499487"><ele>259.0</ele><time>2026-05-01T09:05:11.878Z</time></trkpt><trkpt lat="44.7553188" lon="7.7499386"><ele>259.0</ele><time>2026-05-01T09:05:12.878Z</time></trkpt><trkpt lat="44.7550276" lon="7.7499372"><ele>260.0</ele><time>2026-05-01T09:05:13.878Z</time></trkpt><trkpt lat="44.7547439" lon="7.7499308"><ele>261.0</ele><time>2026-05-01T09:05:14.878Z</time></trkpt><trkpt lat="44.754449" lon="7.749934"><ele>261.5</ele><time>2026-05-01T09:05:15.878Z</time></trkpt><trkpt lat="44.7541565" lon="7.7499428"><ele>262.0</ele><time>2026-05-01T09:05:16.878Z</time></trkpt><trkpt lat="44.7538677" lon="7.7499435"><ele>262.0</ele><time>2026-05-01T09:05:17.878Z</time></trkpt><trkpt lat="44.7535768" lon="7.749949"><ele>262.0</ele><time>2026-05-01T09:05:18.878Z</time></trkpt><trkpt lat="44.7532823" lon="7.7499543"><ele>262.5</ele><time>2026-05-01T09:05:19.878Z</time></trkpt><trkpt lat="44.7529854" lon="7.749956"><ele>263.0</ele><time>2026-05-01T09:05:20.878Z</time></trkpt><trkpt lat="44.7526858" lon="7.749966"><ele>263.5</ele><time>2026-05-01T09:05:21.878Z</time></trkpt><trkpt lat="44.752387" lon="7.7499836"><ele>264.0</ele><time>2026-05-01T09:05:22.878Z</time></trkpt><trkpt lat="44.7520894" lon="7.7500081"><ele>263.5</ele><time>2026-05-01T09:05:23.878Z</time></trkpt><trkpt lat="44.7518073" lon="7.750037"><ele>263.0</ele><time>2026-05-01T09:05:24.878Z</time></trkpt><trkpt lat="44.7515163" lon="7.75006"><ele>263.0</ele><time>2026-05-01T09:05:25.878Z</time></trkpt><trkpt lat="44.7512214" lon="7.750091"><ele>263.0</ele><time>2026-05-01T09:05:26.879Z</time></trkpt><trkpt lat="44.7509319" lon="7.750103"><ele>263.5</ele><time>2026-05-01T09:05:27.878Z</time></trkpt><trkpt lat="44.7506427" lon="7.7501402"><ele>264.0</ele><time>2026-05-01T09:05:28.878Z</time></trkpt><trkpt lat="44.7503544" lon="7.7501701"><ele>263.0</ele><time>2026-05-01T09:05:29.878Z</time></trkpt><trkpt lat="44.750063" lon="7.7502039"><ele>262.0</ele><time>2026-05-01T09:05:30.878Z</time></trkpt><trkpt lat="44.7497803" lon="7.7502374"><ele>262.0</ele><time>2026-05-01T09:05:31.878Z</time></trkpt><trkpt lat="44.7494933" lon="7.7502861"><ele>262.0</ele><time>2026-05-01T09:05:32.878Z</time></trkpt><trkpt lat="44.7492131" lon="7.7503358"><ele>262.0</ele><time>2026-05-01T09:05:33.878Z</time></trkpt><trkpt lat="44.7489392" lon="7.7503861"><ele>262.0</ele><time>2026-05-01T09:05:34.879Z</time></trkpt><trkpt lat="44.748679" lon="7.7504325"><ele>262.0</ele><time>2026-05-01T09:05:35.878Z</time></trkpt><trkpt lat="44.7484319" lon="7.7504698"><ele>262.0</ele><time>2026-05-01T09:05:36.878Z</time></trkpt><trkpt lat="44.7481811" lon="7.7505205"><ele>262.0</ele><time>2026-05-01T09:05:37.879Z</time></trkpt><trkpt lat="44.7479371" lon="7.7505646"><ele>262.0</ele><time>2026-05-01T09:05:38.878Z</time></trkpt><trkpt lat="44.7476911" lon="7.750618"><ele>263.5</ele><time>2026-05-01T09:05:39.878Z</time></trkpt><trkpt lat="44.7474552" lon="7.7506641"><ele>265.0</ele><time>2026-05-01T09:05:40.878Z</time></trkpt><trkpt lat="44.7472215" lon="7.750722"><ele>265.0</ele><time>2026-05-01T09:05:41.878Z</time></trkpt><trkpt lat="44.7469965" lon="7.7507747"><ele>265.0</ele><time>2026-05-01T09:05:42.878Z</time></trkpt><trkpt lat="44.7467731" lon="7.75083"><ele>264.3333333333333</ele><time>2026-05-01T09:05:43.878Z</time></trkpt><trkpt lat="44.7465541" lon="7.7508873"><ele>263.6666666666667</ele><time>2026-05-01T09:05:44.878Z</time></trkpt><trkpt lat="44.7463395" lon="7.7509467"><ele>263.0</ele><time>2026-05-01T09:05:45.878Z</time></trkpt><trkpt lat="44.7461253" lon="7.7510047"><ele>263.33333333333337</ele><time>2026-05-01T09:05:46.878Z</time></trkpt><trkpt lat="44.7459121" lon="7.751065"><ele>263.6666666666667</ele><time>2026-05-01T09:05:47.878Z</time></trkpt><trkpt lat="44.7457173" lon="7.7511138"><ele>264.0</ele><time>2026-05-01T09:05:48.878Z</time></trkpt><trkpt lat="44.7455166" lon="7.751173"><ele>264.0</ele><time>2026-05-01T09:05:49.878Z</time></trkpt><trkpt lat="44.7453222" lon="7.7512351"><ele>264.0</ele><time>2026-05-01T09:05:50.878Z</time></trkpt><trkpt lat="44.7451205" lon="7.7512827"><ele>264.0</ele><time>2026-05-01T09:05:51.878Z</time></trkpt><trkpt lat="44.7449254" lon="7.7513364"><ele>263.6666666666667</ele><time>2026-05-01T09:05:52.878Z</time></trkpt><trkpt lat="44.74473" lon="7.7513845"><ele>263.33333333333337</ele><time>2026-05-01T09:05:53.878Z</time></trkpt><trkpt lat="44.7445358" lon="7.7514374"><ele>263.0</ele><time>2026-05-01T09:05:54.878Z</time></trkpt><trkpt lat="44.7443422" lon="7.7514881"><ele>263.0</ele><time>2026-05-01T09:05:55.878Z</time></trkpt><trkpt lat="44.7441587" lon="7.751543"><ele>263.0</ele><time>2026-05-01T09:05:56.878Z</time></trkpt><trkpt lat="44.7439789" lon="7.7515911"><ele>263.0</ele><time>2026-05-01T09:05:57.878Z</time></trkpt><trkpt lat="44.7438119" lon="7.7516323"><ele>263.0</ele><time>2026-05-01T09:05:58.878Z</time></trkpt><trkpt lat="44.7436631" lon="7.7516746"><ele>263.0</ele><time>2026-05-01T09:05:59.878Z</time></trkpt><trkpt lat="44.7435239" lon="7.7517151"><ele>263.0</ele><time>2026-05-01T09:06:00.878Z</time></trkpt><trkpt lat="44.743394" lon="7.7517478"><ele>263.0</ele><time>2026-05-01T09:06:01.878Z</time></trkpt><trkpt lat="44.7432717" lon="7.751781"><ele>263.25</ele><time>2026-05-01T09:06:02.878Z</time></trkpt><trkpt lat="44.7431592" lon="7.7518211"><ele>263.5</ele><time>2026-05-01T09:06:03.878Z</time></trkpt><trkpt lat="44.7430508" lon="7.7518521"><ele>263.75</ele><time>2026-05-01T09:06:04.878Z</time></trkpt><trkpt lat="44.7429385" lon="7.7518749"><ele>264.0</ele><time>2026-05-01T09:06:05.878Z</time></trkpt><trkpt lat="44.7428269" lon="7.7519102"><ele>264.0</ele><time>2026-05-01T09:06:06.878Z</time></trkpt><trkpt lat="44.7427158" lon="7.7519441"><ele>264.0</ele><time>2026-05-01T09:06:07.878Z</time></trkpt><trkpt lat="44.7426102" lon="7.7519791"><ele>264.0</ele><time>2026-05-01T09:06:08.878Z</time></trkpt><trkpt lat="44.7425145" lon="7.7520106"><ele>264.0</ele><time>2026-05-01T09:06:09.878Z</time></trkpt><trkpt lat="44.7424145" lon="7.7520392"><ele>264.0</ele><time>2026-05-01T09:06:10.878Z</time></trkpt><trkpt lat="44.7423124" lon="7.7520759"><ele>264.0</ele><time>2026-05-01T09:06:11.878Z</time></trkpt><trkpt lat="44.7422073" lon="7.752109"><ele>264.0</ele><time>2026-05-01T09:06:12.878Z</time></trkpt><trkpt lat="44.7420974" lon="7.752136"><ele>264.0</ele><time>2026-05-01T09:06:13.878Z</time></trkpt><trkpt lat="44.7419864" lon="7.7521674"><ele>264.0</ele><time>2026-05-01T09:06:14.878Z</time></trkpt><trkpt lat="44.7418694" lon="7.7522054"><ele>264.0</ele><time>2026-05-01T09:06:15.878Z</time></trkpt><trkpt lat="44.7417466" lon="7.7522329"><ele>264.0</ele><time>2026-05-01T09:06:16.878Z</time></trkpt><trkpt lat="44.7416238" lon="7.7522721"><ele>264.0</ele><time>2026-05-01T09:06:17.878Z</time></trkpt><trkpt lat="44.7415101" lon="7.7523056"><ele>264.0</ele><time>2026-05-01T09:06:18.878Z</time></trkpt><trkpt lat="44.7414027" lon="7.7523342"><ele>264.0</ele><time>2026-05-01T09:06:19.878Z</time></trkpt><trkpt lat="44.7412997" lon="7.7523625"><ele>264.0</ele><time>2026-05-01T09:06:20.878Z</time></trkpt><trkpt lat="44.741205" lon="7.7523942"><ele>264.0</ele><time>2026-05-01T09:06:21.878Z</time></trkpt><trkpt lat="44.7411159" lon="7.7524185"><ele>264.0</ele><time>2026-05-01T09:06:22.878Z</time></trkpt><trkpt lat="44.7410346" lon="7.7524422"><ele>264.0</ele><time>2026-05-01T09:06:23.878Z</time></trkpt><trkpt lat="44.7409529" lon="7.7524663"><ele>264.4</ele><time>2026-05-01T09:06:24.878Z</time></trkpt><trkpt lat="44.7408641" lon="7.7524931"><ele>264.79999999999995</ele><time>2026-05-01T09:06:25.878Z</time></trkpt><trkpt lat="44.7407779" lon="7.7525176"><ele>265.20000000000005</ele><time>2026-05-01T09:06:26.878Z</time></trkpt><trkpt lat="44.7406803" lon="7.7525566"><ele>265.6</ele><time>2026-05-01T09:06:27.878Z</time></trkpt><trkpt lat="44.7405792" lon="7.7525918"><ele>266.0</ele><time>2026-05-01T09:06:28.878Z</time></trkpt><trkpt lat="44.7404849" lon="7.7526237"><ele>266.0</ele><time>2026-05-01T09:06:29.878Z</time></trkpt><trkpt lat="44.7403874" lon="7.752649"><ele>266.0</ele><time>2026-05-01T09:06:30.878Z</time></trkpt><trkpt lat="44.7403" lon="7.7526621"><ele>266.0</ele><time>2026-05-01T09:06:31.878Z</time></trkpt><trkpt lat="44.7402108" lon="7.752669"><ele>266.0</ele><time>2026-05-01T09:06:32.878Z</time></trkpt><trkpt lat="44.7401135" lon="7.7526794"><ele>266.0</ele><time>2026-05-01T09:06:33.878Z</time></trkpt><trkpt lat="44.7400091" lon="7.7526957"><ele>266.0</ele><time>2026-05-01T09:06:34.878Z</time></trkpt><trkpt lat="44.7398968" lon="7.7527262"><ele>266.0</ele><time>2026-05-01T09:06:35.878Z</time></trkpt><trkpt lat="44.7397824" lon="7.7527631"><ele>266.0</ele><time>2026-05-01T09:06:36.879Z</time></trkpt><trkpt lat="44.7396516" lon="7.7527998"><ele>266.0</ele><time>2026-05-01T09:06:37.878Z</time></trkpt><trkpt lat="44.7395195" lon="7.7528324"><ele>266.0</ele><time>2026-05-01T09:06:38.878Z</time></trkpt><trkpt lat="44.7393673" lon="7.7528798"><ele>266.0</ele><time>2026-05-01T09:06:39.878Z</time></trkpt><trkpt lat="44.7392191" lon="7.7529239"><ele>266.0</ele><time>2026-05-01T09:06:40.878Z</time></trkpt><trkpt lat="44.739068" lon="7.7529637"><ele>266.0</ele><time>2026-05-01T09:06:41.878Z</time></trkpt><trkpt lat="44.7389119" lon="7.7530046"><ele>266.0</ele><time>2026-05-01T09:06:42.878Z</time></trkpt><trkpt lat="44.7387544" lon="7.7530572"><ele>266.0</ele><time>2026-05-01T09:06:43.878Z</time></trkpt><trkpt lat="44.7386033" lon="7.7531035"><ele>266.0</ele><time>2026-05-01T09:06:44.878Z</time></trkpt><trkpt lat="44.7384539" lon="7.7531573"><ele>266.0</ele><time>2026-05-01T09:06:45.878Z</time></trkpt><trkpt lat="44.7382985" lon="7.7532018"><ele>266.0</ele><time>2026-05-01T09:06:46.878Z</time></trkpt><trkpt lat="44.7381459" lon="7.7532493"><ele>266.0</ele><time>2026-05-01T09:06:47.878Z</time></trkpt><trkpt lat="44.7379924" lon="7.7532825"><ele>266.0</ele><time>2026-05-01T09:06:48.878Z</time></trkpt><trkpt lat="44.7378394" lon="7.7533259"><ele>266.0</ele><time>2026-05-01T09:06:49.879Z</time></trkpt><trkpt lat="44.7376838" lon="7.7533696"><ele>266.0</ele><time>2026-05-01T09:06:50.878Z</time></trkpt><trkpt lat="44.737528" lon="7.7534123"><ele>266.0</ele><time>2026-05-01T09:06:51.878Z</time></trkpt><trkpt lat="44.7373712" lon="7.7534584"><ele>266.0</ele><time>2026-05-01T09:06:52.878Z</time></trkpt><trkpt lat="44.7372175" lon="7.7535003"><ele>266.33333333333337</ele><time>2026-05-01T09:06:53.878Z</time></trkpt><trkpt lat="44.7370608" lon="7.7535461"><ele>266.6666666666667</ele><time>2026-05-01T09:06:54.878Z</time></trkpt><trkpt lat="44.7369057" lon="7.753584"><ele>267.0</ele><time>2026-05-01T09:06:55.878Z</time></trkpt><trkpt lat="44.7367502" lon="7.7536253"><ele>267.0</ele><time>2026-05-01T09:06:56.878Z</time></trkpt><trkpt lat="44.7365873" lon="7.7536711"><ele>267.0</ele><time>2026-05-01T09:06:57.878Z</time></trkpt><trkpt lat="44.7364287" lon="7.7537155"><ele>267.0</ele><time>2026-05-01T09:06:58.878Z</time></trkpt><trkpt lat="44.7362656" lon="7.7537598"><ele>267.0</ele><time>2026-05-01T09:06:59.878Z</time></trkpt><trkpt lat="44.7361009" lon="7.7538083"><ele>267.0</ele><time>2026-05-01T09:07:00.878Z</time></trkpt><trkpt lat="44.7359294" lon="7.7538602"><ele>267.0</ele><time>2026-05-01T09:07:01.878Z</time></trkpt><trkpt lat="44.7357515" lon="7.7539157"><ele>267.0</ele><time>2026-05-01T09:07:02.878Z</time></trkpt><trkpt lat="44.7355735" lon="7.7539664"><ele>267.0</ele><time>2026-05-01T09:07:03.878Z</time></trkpt><trkpt lat="44.7353947" lon="7.7540213"><ele>267.0</ele><time>2026-05-01T09:07:04.878Z</time></trkpt><trkpt lat="44.735216" lon="7.7540721"><ele>267.6666666666667</ele><time>2026-05-01T09:07:05.878Z</time></trkpt><trkpt lat="44.7350363" lon="7.7541238"><ele>268.33333333333337</ele><time>2026-05-01T09:07:06.878Z</time></trkpt><trkpt lat="44.7348497" lon="7.7541668"><ele>269.0</ele><time>2026-05-01T09:07:07.878Z</time></trkpt><trkpt lat="44.7346679" lon="7.7542234"><ele>269.0</ele><time>2026-05-01T09:07:08.878Z</time></trkpt><trkpt lat="44.7344891" lon="7.754294"><ele>269.0</ele><time>2026-05-01T09:07:09.878Z</time></trkpt><trkpt lat="44.734303" lon="7.7543474"><ele>269.0</ele><time>2026-05-01T09:07:10.878Z</time></trkpt><trkpt lat="44.7341205" lon="7.7543964"><ele>269.0</ele><time>2026-05-01T09:07:11.878Z</time></trkpt><trkpt lat="44.7339314" lon="7.754454"><ele>269.0</ele><time>2026-05-01T09:07:12.878Z</time></trkpt><trkpt lat="44.7337425" lon="7.754505"><ele>269.0</ele><time>2026-05-01T09:07:13.878Z</time></trkpt><trkpt lat="44.7335472" lon="7.7545584"><ele>269.0</ele><time>2026-05-01T09:07:14.878Z</time></trkpt><trkpt lat="44.733356" lon="7.7546234"><ele>269.0</ele><time>2026-05-01T09:07:15.878Z</time></trkpt><trkpt lat="44.73316" lon="7.7546665"><ele>269.0</ele><time>2026-05-01T09:07:16.878Z</time></trkpt><trkpt lat="44.7329605" lon="7.7547226"><ele>269.0</ele><time>2026-05-01T09:07:17.878Z</time></trkpt><trkpt lat="44.7327609" lon="7.7547878"><ele>269.0</ele><time>2026-05-01T09:07:18.878Z</time></trkpt><trkpt lat="44.732573" lon="7.7548351"><ele>269.0</ele><time>2026-05-01T09:07:19.878Z</time></trkpt><trkpt lat="44.7323751" lon="7.7548892"><ele>269.0</ele><time>2026-05-01T09:07:20.878Z</time></trkpt><trkpt lat="44.7321731" lon="7.7549498"><ele>269.0</ele><time>2026-05-01T09:07:21.879Z</time></trkpt><trkpt lat="44.7319749" lon="7.7550144"><ele>269.0</ele><time>2026-05-01T09:07:22.878Z</time></trkpt><trkpt lat="44.7317727" lon="7.755074"><ele>269.0</ele><time>2026-05-01T09:07:23.879Z</time></trkpt><trkpt lat="44.7315657" lon="7.7551333"><ele>269.0</ele><time>2026-05-01T09:07:24.878Z</time></trkpt><trkpt lat="44.7313601" lon="7.7551878"><ele>269.0</ele><time>2026-05-01T09:07:25.878Z</time></trkpt><trkpt lat="44.7311523" lon="7.7552514"><ele>268.6666666666667</ele><time>2026-05-01T09:07:26.878Z</time></trkpt><trkpt lat="44.7309454" lon="7.7553151"><ele>268.3333333333333</ele><time>2026-05-01T09:07:27.878Z</time></trkpt><trkpt lat="44.7307362" lon="7.7553741"><ele>268.0</ele><time>2026-05-01T09:07:28.878Z</time></trkpt><trkpt lat="44.730527" lon="7.7554332"><ele>268.0</ele><time>2026-05-01T09:07:29.878Z</time></trkpt><trkpt lat="44.7303159" lon="7.7554956"><ele>268.0</ele><time>2026-05-01T09:07:30.879Z</time></trkpt><trkpt lat="44.7301078" lon="7.7555612"><ele>268.0</ele><time>2026-05-01T09:07:31.878Z</time></trkpt><trkpt lat="44.7298902" lon="7.755618"><ele>268.3333333333333</ele><time>2026-05-01T09:07:32.878Z</time></trkpt><trkpt lat="44.7296764" lon="7.755682"><ele>268.6666666666667</ele><time>2026-05-01T09:07:33.878Z</time></trkpt><trkpt lat="44.7294594" lon="7.7557485"><ele>269.0</ele><time>2026-05-01T09:07:34.878Z</time></trkpt><trkpt lat="44.7292448" lon="7.755806"><ele>269.0</ele><time>2026-05-01T09:07:35.878Z</time></trkpt><trkpt lat="44.7290339" lon="7.7558746"><ele>269.0</ele><time>2026-05-01T09:07:36.878Z</time></trkpt><trkpt lat="44.7288161" lon="7.7559313"><ele>269.0</ele><time>2026-05-01T09:07:37.879Z</time></trkpt><trkpt lat="44.7285989" lon="7.7559949"><ele>269.0</ele><time>2026-05-01T09:07:38.879Z</time></trkpt><trkpt lat="44.7283835" lon="7.756056"><ele>269.0</ele><time>2026-05-01T09:07:39.878Z</time></trkpt><trkpt lat="44.7281633" lon="7.7561136"><ele>269.0</ele><time>2026-05-01T09:07:40.878Z</time></trkpt><trkpt lat="44.7279436" lon="7.7561718"><ele>268.5</ele><time>2026-05-01T09:07:41.878Z</time></trkpt><trkpt lat="44.7277224" lon="7.7562305"><ele>268.0</ele><time>2026-05-01T09:07:42.878Z</time></trkpt><trkpt lat="44.727502" lon="7.7562916"><ele>268.0</ele><time>2026-05-01T09:07:43.878Z</time></trkpt><trkpt lat="44.7272791" lon="7.7563572"><ele>268.0</ele><time>2026-05-01T09:07:44.878Z</time></trkpt><trkpt lat="44.7270609" lon="7.7564352"><ele>268.3333333333333</ele><time>2026-05-01T09:07:45.878Z</time></trkpt><trkpt lat="44.7268533" lon="7.756496"><ele>268.6666666666667</ele><time>2026-05-01T09:07:46.878Z</time></trkpt><trkpt lat="44.7266539" lon="7.7565586"><ele>269.0</ele><time>2026-05-01T09:07:47.878Z</time></trkpt><trkpt lat="44.726459" lon="7.7566239"><ele>269.0</ele><time>2026-05-01T09:07:48.878Z</time></trkpt><trkpt lat="44.7262632" lon="7.7566804"><ele>269.0</ele><time>2026-05-01T09:07:49.878Z</time></trkpt><trkpt lat="44.7260746" lon="7.7567499"><ele>269.0</ele><time>2026-05-01T09:07:50.878Z</time></trkpt><trkpt lat="44.7258818" lon="7.7568154"><ele>269.6666666666667</ele><time>2026-05-01T09:07:51.878Z</time></trkpt><trkpt lat="44.7256901" lon="7.7568755"><ele>270.3333333333333</ele><time>2026-05-01T09:07:52.878Z</time></trkpt><trkpt lat="44.7254969" lon="7.756927"><ele>271.0</ele><time>2026-05-01T09:07:53.878Z</time></trkpt><trkpt lat="44.7252984" lon="7.7569805"><ele>270.3333333333333</ele><time>2026-05-01T09:07:54.878Z</time></trkpt><trkpt lat="44.7251038" lon="7.757039"><ele>269.6666666666667</ele><time>2026-05-01T09:07:55.878Z</time></trkpt><trkpt lat="44.7249081" lon="7.7570967"><ele>269.0</ele><time>2026-05-01T09:07:56.878Z</time></trkpt><trkpt lat="44.724711" lon="7.7571558"><ele>269.0</ele><time>2026-05-01T09:07:57.878Z</time></trkpt><trkpt lat="44.7245208" lon="7.7572143"><ele>269.0</ele><time>2026-05-01T09:07:58.878Z</time></trkpt><trkpt lat="44.7243282" lon="7.7572682"><ele>269.0</ele><time>2026-05-01T09:07:59.878Z</time></trkpt><trkpt lat="44.7241382" lon="7.7573217"><ele>269.6666666666667</ele><time>2026-05-01T09:08:00.878Z</time></trkpt><trkpt lat="44.7239568" lon="7.757365"><ele>270.3333333333333</ele><time>2026-05-01T09:08:01.879Z</time></trkpt><trkpt lat="44.7237764" lon="7.7574112"><ele>271.0</ele><time>2026-05-01T09:08:02.878Z</time></trkpt><trkpt lat="44.7235986" lon="7.7574558"><ele>271.0</ele><time>2026-05-01T09:08:03.878Z</time></trkpt><trkpt lat="44.72343" lon="7.7574993"><ele>271.0</ele><time>2026-05-01T09:08:04.879Z</time></trkpt><trkpt lat="44.72327" lon="7.7575404"><ele>271.0</ele><time>2026-05-01T09:08:05.878Z</time></trkpt><trkpt lat="44.723123" lon="7.7575757"><ele>271.0</ele><time>2026-05-01T09:08:06.878Z</time></trkpt><trkpt lat="44.722983" lon="7.7576075"><ele>271.0</ele><time>2026-05-01T09:08:07.878Z</time></trkpt><trkpt lat="44.7228464" lon="7.7576308"><ele>271.0</ele><time>2026-05-01T09:08:08.878Z</time></trkpt><trkpt lat="44.7227207" lon="7.7576692"><ele>271.0</ele><time>2026-05-01T09:08:09.878Z</time></trkpt><trkpt lat="44.7225871" lon="7.7576951"><ele>271.75</ele><time>2026-05-01T09:08:10.878Z</time></trkpt><trkpt lat="44.7224545" lon="7.7577291"><ele>272.5</ele><time>2026-05-01T09:08:11.878Z</time></trkpt><trkpt lat="44.722313" lon="7.7577794"><ele>273.25</ele><time>2026-05-01T09:08:12.878Z</time></trkpt><trkpt lat="44.7221681" lon="7.7578328"><ele>274.0</ele><time>2026-05-01T09:08:13.878Z</time></trkpt><trkpt lat="44.7220154" lon="7.7578742"><ele>273.3333333333333</ele><time>2026-05-01T09:08:14.878Z</time></trkpt><trkpt lat="44.7218674" lon="7.7579252"><ele>272.6666666666667</ele><time>2026-05-01T09:08:15.879Z</time></trkpt><trkpt lat="44.7217095" lon="7.7579708"><ele>272.0</ele><time>2026-05-01T09:08:16.878Z</time></trkpt><trkpt lat="44.721548" lon="7.7580124"><ele>272.0</ele><time>2026-05-01T09:08:17.878Z</time></trkpt><trkpt lat="44.7213897" lon="7.7580581"><ele>272.0</ele><time>2026-05-01T09:08:18.878Z</time></trkpt><trkpt lat="44.721222" lon="7.7581016"><ele>272.0</ele><time>2026-05-01T09:08:19.878Z</time></trkpt><trkpt lat="44.7210549" lon="7.7581477"><ele>272.0</ele><time>2026-05-01T09:08:20.878Z</time></trkpt><trkpt lat="44.7208845" lon="7.7581987"><ele>272.0</ele><time>2026-05-01T09:08:21.879Z</time></trkpt><trkpt lat="44.72071" lon="7.758248"><ele>272.0</ele><time>2026-05-01T09:08:22.878Z</time></trkpt><trkpt lat="44.7205378" lon="7.7583067"><ele>272.0</ele><time>2026-05-01T09:08:23.878Z</time></trkpt><trkpt lat="44.720356" lon="7.7583579"><ele>272.0</ele><time>2026-05-01T09:08:24.878Z</time></trkpt><trkpt lat="44.7201743" lon="7.7584082"><ele>272.0</ele><time>2026-05-01T09:08:25.878Z</time></trkpt><trkpt lat="44.7199899" lon="7.7584548"><ele>272.0</ele><time>2026-05-01T09:08:26.878Z</time></trkpt><trkpt lat="44.719803" lon="7.7585132"><ele>272.0</ele><time>2026-05-01T09:08:27.878Z</time></trkpt><trkpt lat="44.7196146" lon="7.7585646"><ele>272.0</ele><time>2026-05-01T09:08:28.878Z</time></trkpt><trkpt lat="44.719428" lon="7.7586098"><ele>272.33333333333337</ele><time>2026-05-01T09:08:29.878Z</time></trkpt><trkpt lat="44.7192381" lon="7.7586637"><ele>272.6666666666667</ele><time>2026-05-01T09:08:30.878Z</time></trkpt><trkpt lat="44.7190454" lon="7.7587206"><ele>273.0</ele><time>2026-05-01T09:08:31.878Z</time></trkpt><trkpt lat="44.7188529" lon="7.7587732"><ele>273.0</ele><time>2026-05-01T09:08:32.878Z</time></trkpt><trkpt lat="44.7186688" lon="7.7588231"><ele>273.0</ele><time>2026-05-01T09:08:33.878Z</time></trkpt><trkpt lat="44.7184776" lon="7.7588718"><ele>273.0</ele><time>2026-05-01T09:08:34.878Z</time></trkpt><trkpt lat="44.7182878" lon="7.7589256"><ele>273.3333333333333</ele><time>2026-05-01T09:08:35.878Z</time></trkpt><trkpt lat="44.7180963" lon="7.7589773"><ele>273.66666666666663</ele><time>2026-05-01T09:08:36.879Z</time></trkpt><trkpt lat="44.7179086" lon="7.7590295"><ele>274.0</ele><time>2026-05-01T09:08:37.878Z</time></trkpt><trkpt lat="44.7177133" lon="7.7590854"><ele>274.66666666666663</ele><time>2026-05-01T09:08:38.878Z</time></trkpt><trkpt lat="44.7175207" lon="7.7591422"><ele>275.3333333333333</ele><time>2026-05-01T09:08:39.878Z</time></trkpt><trkpt lat="44.7173189" lon="7.7592127"><ele>276.0</ele><time>2026-05-01T09:08:40.878Z</time></trkpt><trkpt lat="44.7171162" lon="7.7592796"><ele>276.6666666666667</ele><time>2026-05-01T09:08:41.878Z</time></trkpt><trkpt lat="44.7169012" lon="7.7593498"><ele>277.33333333333337</ele><time>2026-05-01T09:08:42.878Z</time></trkpt><trkpt lat="44.7166945" lon="7.7594014"><ele>278.0</ele><time>2026-05-01T09:08:43.878Z</time></trkpt><trkpt lat="44.7164864" lon="7.7594564"><ele>276.6666666666667</ele><time>2026-05-01T09:08:44.878Z</time></trkpt><trkpt lat="44.7162771" lon="7.7595161"><ele>275.3333333333333</ele><time>2026-05-01T09:08:45.878Z</time></trkpt><trkpt lat="44.716067" lon="7.7595748"><ele>274.0</ele><time>2026-05-01T09:08:46.878Z</time></trkpt><trkpt lat="44.7158603" lon="7.7596438"><ele>274.0</ele><time>2026-05-01T09:08:47.878Z</time></trkpt><trkpt lat="44.7156502" lon="7.7597003"><ele>274.0</ele><time>2026-05-01T09:08:48.878Z</time></trkpt><trkpt lat="44.7154479" lon="7.7597542"><ele>274.0</ele><time>2026-05-01T09:08:49.878Z</time></trkpt><trkpt lat="44.7152437" lon="7.7598135"><ele>273.3333333333333</ele><time>2026-05-01T09:08:50.878Z</time></trkpt><trkpt lat="44.715036" lon="7.7598715"><ele>272.6666666666667</ele><time>2026-05-01T09:08:51.879Z</time></trkpt><trkpt lat="44.7148296" lon="7.7599305"><ele>272.0</ele><time>2026-05-01T09:08:52.878Z</time></trkpt><trkpt lat="44.714621" lon="7.7599891"><ele>272.0</ele><time>2026-05-01T09:08:53.878Z</time></trkpt><trkpt lat="44.7144127" lon="7.760049"><ele>272.0</ele><time>2026-05-01T09:08:54.878Z</time></trkpt><trkpt lat="44.7142082" lon="7.7601099"><ele>272.0</ele><time>2026-05-01T09:08:55.878Z</time></trkpt><trkpt lat="44.7139983" lon="7.7601679"><ele>272.33333333333337</ele><time>2026-05-01T09:08:56.878Z</time></trkpt><trkpt lat="44.7137921" lon="7.760219"><ele>272.6666666666667</ele><time>2026-05-01T09:08:57.878Z</time></trkpt><trkpt lat="44.7135879" lon="7.7602783"><ele>273.0</ele><time>2026-05-01T09:08:58.878Z</time></trkpt><trkpt lat="44.713386" lon="7.7603392"><ele>273.3333333333333</ele><time>2026-05-01T09:08:59.878Z</time></trkpt><trkpt lat="44.7131801" lon="7.7603973"><ele>273.66666666666663</ele><time>2026-05-01T09:09:00.878Z</time></trkpt><trkpt lat="44.7129748" lon="7.7604535"><ele>274.0</ele><time>2026-05-01T09:09:01.878Z</time></trkpt><trkpt lat="44.7127726" lon="7.7605115"><ele>274.66666666666663</ele><time>2026-05-01T09:09:02.879Z</time></trkpt><trkpt lat="44.712565" lon="7.7605657"><ele>275.3333333333333</ele><time>2026-05-01T09:09:03.879Z</time></trkpt><trkpt lat="44.7123572" lon="7.7606247"><ele>276.0</ele><time>2026-05-01T09:09:04.879Z</time></trkpt><trkpt lat="44.7121539" lon="7.7606778"><ele>276.0</ele><time>2026-05-01T09:09:05.878Z</time></trkpt><trkpt lat="44.7119531" lon="7.7607426"><ele>276.0</ele><time>2026-05-01T09:09:06.879Z</time></trkpt><trkpt lat="44.7117516" lon="7.760801"><ele>276.0</ele><time>2026-05-01T09:09:07.878Z</time></trkpt><trkpt lat="44.7115595" lon="7.7608606"><ele>276.0</ele><time>2026-05-01T09:09:08.879Z</time></trkpt><trkpt lat="44.7113718" lon="7.7609101"><ele>276.0</ele><time>2026-05-01T09:09:09.878Z</time></trkpt><trkpt lat="44.7111813" lon="7.7609673"><ele>276.0</ele><time>2026-05-01T09:09:10.879Z</time></trkpt><trkpt lat="44.710989" lon="7.7610296"><ele>276.0</ele><time>2026-05-01T09:09:11.878Z</time></trkpt><trkpt lat="44.7107992" lon="7.7610826"><ele>276.0</ele><time>2026-05-01T09:09:12.878Z</time></trkpt><trkpt lat="44.7106038" lon="7.761148"><ele>276.0</ele><time>2026-05-01T09:09:13.878Z</time></trkpt><trkpt lat="44.7104054" lon="7.7612099"><ele>276.6666666666667</ele><time>2026-05-01T09:09:14.879Z</time></trkpt><trkpt lat="44.7102098" lon="7.7612629"><ele>277.33333333333337</ele><time>2026-05-01T09:09:15.878Z</time></trkpt><trkpt lat="44.7100075" lon="7.7613185"><ele>278.0</ele><time>2026-05-01T09:09:16.878Z</time></trkpt><trkpt lat="44.7098074" lon="7.7613739"><ele>278.0</ele><time>2026-05-01T09:09:17.878Z</time></trkpt><trkpt lat="44.7096007" lon="7.7614328"><ele>278.0</ele><time>2026-05-01T09:09:18.878Z</time></trkpt><trkpt lat="44.7093951" lon="7.7614994"><ele>278.0</ele><time>2026-05-01T09:09:19.878Z</time></trkpt><trkpt lat="44.7091909" lon="7.7615677"><ele>277.6666666666667</ele><time>2026-05-01T09:09:20.878Z</time></trkpt><trkpt lat="44.7089863" lon="7.7616293"><ele>277.3333333333333</ele><time>2026-05-01T09:09:21.878Z</time></trkpt><trkpt lat="44.7087914" lon="7.7616864"><ele>277.0</ele><time>2026-05-01T09:09:22.878Z</time></trkpt><trkpt lat="44.7085969" lon="7.7617444"><ele>277.3333333333333</ele><time>2026-05-01T09:09:23.878Z</time></trkpt><trkpt lat="44.708404" lon="7.7618"><ele>277.6666666666667</ele><time>2026-05-01T09:09:24.878Z</time></trkpt><trkpt lat="44.708208" lon="7.7618497"><ele>278.0</ele><time>2026-05-01T09:09:25.878Z</time></trkpt><trkpt lat="44.7080151" lon="7.7619037"><ele>277.6666666666667</ele><time>2026-05-01T09:09:26.878Z</time></trkpt><trkpt lat="44.7078385" lon="7.7619516"><ele>277.3333333333333</ele><time>2026-05-01T09:09:27.879Z</time></trkpt><trkpt lat="44.7076741" lon="7.7619965"><ele>277.0</ele><time>2026-05-01T09:09:28.878Z</time></trkpt><trkpt lat="44.7075046" lon="7.7620387"><ele>277.0</ele><time>2026-05-01T09:09:29.878Z</time></trkpt><trkpt lat="44.7073808" lon="7.7620813"><ele>277.0</ele><time>2026-05-01T09:09:30.878Z</time></trkpt><trkpt lat="44.7072474" lon="7.7621225"><ele>277.0</ele><time>2026-05-01T09:09:31.878Z</time></trkpt><trkpt lat="44.7071174" lon="7.7621554"><ele>277.0</ele><time>2026-05-01T09:09:32.878Z</time></trkpt><trkpt lat="44.7069889" lon="7.7622"><ele>276.75</ele><time>2026-05-01T09:09:33.878Z</time></trkpt><trkpt lat="44.7068547" lon="7.762236"><ele>276.5</ele><time>2026-05-01T09:09:34.878Z</time></trkpt><trkpt lat="44.7067357" lon="7.7622676"><ele>276.25</ele><time>2026-05-01T09:09:35.878Z</time></trkpt><trkpt lat="44.7065809" lon="7.7623159"><ele>276.0</ele><time>2026-05-01T09:09:36.878Z</time></trkpt><trkpt lat="44.7064326" lon="7.7623682"><ele>276.0</ele><time>2026-05-01T09:09:37.878Z</time></trkpt><trkpt lat="44.7062721" lon="7.7624289"><ele>276.0</ele><time>2026-05-01T09:09:38.878Z</time></trkpt><trkpt lat="44.7061158" lon="7.762483"><ele>276.0</ele><time>2026-05-01T09:09:39.878Z</time></trkpt><trkpt lat="44.705924" lon="7.7625418"><ele>276.0</ele><time>2026-05-01T09:09:40.878Z</time></trkpt><trkpt lat="44.7057449" lon="7.7625923"><ele>276.0</ele><time>2026-05-01T09:09:41.878Z</time></trkpt><trkpt lat="44.7055638" lon="7.7626456"><ele>276.0</ele><time>2026-05-01T09:09:42.878Z</time></trkpt><trkpt lat="44.7053853" lon="7.7627076"><ele>277.3333333333333</ele><time>2026-05-01T09:09:43.878Z</time></trkpt><trkpt lat="44.7052163" lon="7.7627571"><ele>278.66666666666663</ele><time>2026-05-01T09:09:44.878Z</time></trkpt><trkpt lat="44.7050561" lon="7.7628063"><ele>280.0</ele><time>2026-05-01T09:09:45.878Z</time></trkpt><trkpt lat="44.7049138" lon="7.7628448"><ele>280.0</ele><time>2026-05-01T09:09:46.878Z</time></trkpt><trkpt lat="44.7047731" lon="7.7628818"><ele>280.0</ele><time>2026-05-01T09:09:47.878Z</time></trkpt><trkpt lat="44.7046353" lon="7.7629151"><ele>280.0</ele><time>2026-05-01T09:09:48.878Z</time></trkpt><trkpt lat="44.7044953" lon="7.762952"><ele>280.0</ele><time>2026-05-01T09:09:49.878Z</time></trkpt><trkpt lat="44.7043583" lon="7.7629919"><ele>280.0</ele><time>2026-05-01T09:09:50.878Z</time></trkpt><trkpt lat="44.7042254" lon="7.7630297"><ele>280.0</ele><time>2026-05-01T09:09:51.879Z</time></trkpt><trkpt lat="44.7040853" lon="7.7630706"><ele>280.0</ele><time>2026-05-01T09:09:52.878Z</time></trkpt><trkpt lat="44.7039497" lon="7.7631044"><ele>280.0</ele><time>2026-05-01T09:09:53.878Z</time></trkpt><trkpt lat="44.7038086" lon="7.7631434"><ele>280.0</ele><time>2026-05-01T09:09:54.878Z</time></trkpt><trkpt lat="44.7036724" lon="7.7631853"><ele>280.0</ele><time>2026-05-01T09:09:55.878Z</time></trkpt><trkpt lat="44.7035293" lon="7.7632263"><ele>280.0</ele><time>2026-05-01T09:09:56.878Z</time></trkpt><trkpt lat="44.7034293" lon="7.7632576"><ele>280.0</ele><time>2026-05-01T09:09:57.878Z</time></trkpt><trkpt lat="44.7033317" lon="7.7632763"><ele>279.8</ele><time>2026-05-01T09:09:58.878Z</time></trkpt><trkpt lat="44.7032292" lon="7.7633097"><ele>279.6</ele><time>2026-05-01T09:09:59.878Z</time></trkpt><trkpt lat="44.703111" lon="7.7633398"><ele>279.4</ele><time>2026-05-01T09:10:01.878Z</time></trkpt><trkpt lat="44.7030137" lon="7.7633659"><ele>279.2</ele><time>2026-05-01T09:10:03.878Z</time></trkpt><trkpt lat="44.7029304" lon="7.7634017"><ele>279.0</ele><time>2026-05-01T09:10:05.878Z</time></trkpt><trkpt lat="44.7028295" lon="7.7634313"><ele>279.0</ele><time>2026-05-01T09:10:07.878Z</time></trkpt><trkpt lat="44.7026972" lon="7.763482"><ele>279.0</ele><time>2026-05-01T09:10:09.878Z</time></trkpt><trkpt lat="44.7026185" lon="7.7635126"><ele>279.0</ele><time>2026-05-01T09:10:10.878Z</time></trkpt><trkpt lat="44.7025356" lon="7.7635364"><ele>279.0</ele><time>2026-05-01T09:10:11.878Z</time></trkpt><trkpt lat="44.7024516" lon="7.7635585"><ele>279.0</ele><time>2026-05-01T09:10:12.878Z</time></trkpt><trkpt lat="44.7023601" lon="7.7635845"><ele>279.0</ele><time>2026-05-01T09:10:13.878Z</time></trkpt><trkpt lat="44.7022646" lon="7.7636086"><ele>279.0</ele><time>2026-05-01T09:10:14.878Z</time></trkpt><trkpt lat="44.7021601" lon="7.7636395"><ele>279.0</ele><time>2026-05-01T09:10:15.878Z</time></trkpt><trkpt lat="44.7020457" lon="7.7636714"><ele>279.0</ele><time>2026-05-01T09:10:16.878Z</time></trkpt><trkpt lat="44.701936" lon="7.763696"><ele>279.0</ele><time>2026-05-01T09:10:17.878Z</time></trkpt><trkpt lat="44.7018184" lon="7.7637274"><ele>279.25</ele><time>2026-05-01T09:10:18.878Z</time></trkpt><trkpt lat="44.701705" lon="7.7637443"><ele>279.5</ele><time>2026-05-01T09:10:19.878Z</time></trkpt><trkpt lat="44.7016001" lon="7.7637648"><ele>279.75</ele><time>2026-05-01T09:10:20.879Z</time></trkpt><trkpt lat="44.7014889" lon="7.7637801"><ele>280.0</ele><time>2026-05-01T09:10:21.878Z</time></trkpt><trkpt lat="44.7013644" lon="7.7638127"><ele>280.0</ele><time>2026-05-01T09:10:22.879Z</time></trkpt><trkpt lat="44.7012479" lon="7.7638389"><ele>280.0</ele><time>2026-05-01T09:10:23.878Z</time></trkpt><trkpt lat="44.7010976" lon="7.7638846"><ele>280.0</ele><time>2026-05-01T09:10:24.878Z</time></trkpt><trkpt lat="44.7009417" lon="7.7639323"><ele>280.0</ele><time>2026-05-01T09:10:25.878Z</time></trkpt><trkpt lat="44.7007798" lon="7.7639824"><ele>280.66666666666663</ele><time>2026-05-01T09:10:26.878Z</time></trkpt><trkpt lat="44.7006192" lon="7.7640244"><ele>281.3333333333333</ele><time>2026-05-01T09:10:27.878Z</time></trkpt><trkpt lat="44.7004477" lon="7.7640712"><ele>282.0</ele><time>2026-05-01T09:10:28.878Z</time></trkpt><trkpt lat="44.7002715" lon="7.7641242"><ele>282.0</ele><time>2026-05-01T09:10:29.878Z</time></trkpt><trkpt lat="44.7000888" lon="7.7641748"><ele>282.0</ele><time>2026-05-01T09:10:30.878Z</time></trkpt><trkpt lat="44.6999057" lon="7.7642251"><ele>282.0</ele><time>2026-05-01T09:10:31.878Z</time></trkpt><trkpt lat="44.6997125" lon="7.7642843"><ele>282.0</ele><time>2026-05-01T09:10:32.878Z</time></trkpt><trkpt lat="44.6995268" lon="7.7643333"><ele>282.0</ele><time>2026-05-01T09:10:33.878Z</time></trkpt><trkpt lat="44.6993387" lon="7.7643855"><ele>282.0</ele><time>2026-05-01T09:10:34.878Z</time></trkpt><trkpt lat="44.69915" lon="7.7644383"><ele>282.0</ele><time>2026-05-01T09:10:35.878Z</time></trkpt><trkpt lat="44.6989579" lon="7.7644916"><ele>282.0</ele><time>2026-05-01T09:10:36.878Z</time></trkpt><trkpt lat="44.6987703" lon="7.7645416"><ele>282.0</ele><time>2026-05-01T09:10:37.878Z</time></trkpt><trkpt lat="44.6985731" lon="7.7645969"><ele>282.3333333333333</ele><time>2026-05-01T09:10:38.879Z</time></trkpt><trkpt lat="44.6983818" lon="7.7646556"><ele>282.66666666666663</ele><time>2026-05-01T09:10:39.878Z</time></trkpt><trkpt lat="44.6981881" lon="7.76471"><ele>283.0</ele><time>2026-05-01T09:10:40.878Z</time></trkpt><trkpt lat="44.6979954" lon="7.7647684"><ele>283.0</ele><time>2026-05-01T09:10:41.878Z</time></trkpt><trkpt lat="44.697797" lon="7.7648275"><ele>283.0</ele><time>2026-05-01T09:10:42.878Z</time></trkpt><trkpt lat="44.6976002" lon="7.7648816"><ele>283.0</ele><time>2026-05-01T09:10:43.878Z</time></trkpt><trkpt lat="44.6974046" lon="7.7649323"><ele>283.0</ele><time>2026-05-01T09:10:44.878Z</time></trkpt><trkpt lat="44.6972116" lon="7.7649844"><ele>283.0</ele><time>2026-05-01T09:10:45.878Z</time></trkpt><trkpt lat="44.6970122" lon="7.7650478"><ele>283.0</ele><time>2026-05-01T09:10:46.878Z</time></trkpt><trkpt lat="44.6968189" lon="7.7651086"><ele>283.0</ele><time>2026-05-01T09:10:47.878Z</time></trkpt><trkpt lat="44.6966188" lon="7.7651773"><ele>283.0</ele><time>2026-05-01T09:10:48.878Z</time></trkpt><trkpt lat="44.6964069" lon="7.7652469"><ele>283.0</ele><time>2026-05-01T09:10:49.878Z</time></trkpt><trkpt lat="44.6962321" lon="7.765287"><ele>283.66666666666663</ele><time>2026-05-01T09:10:50.878Z</time></trkpt><trkpt lat="44.6960424" lon="7.7653326"><ele>284.3333333333333</ele><time>2026-05-01T09:10:51.878Z</time></trkpt><trkpt lat="44.6958489" lon="7.7653926"><ele>285.0</ele><time>2026-05-01T09:10:52.878Z</time></trkpt><trkpt lat="44.6956496" lon="7.7654507"><ele>285.0</ele><time>2026-05-01T09:10:53.878Z</time></trkpt><trkpt lat="44.6954534" lon="7.7655107"><ele>285.0</ele><time>2026-05-01T09:10:54.878Z</time></trkpt><trkpt lat="44.6952652" lon="7.7655688"><ele>285.0</ele><time>2026-05-01T09:10:55.878Z</time></trkpt><trkpt lat="44.6950924" lon="7.7656166"><ele>285.3333333333333</ele><time>2026-05-01T09:10:56.878Z</time></trkpt><trkpt lat="44.6949161" lon="7.7656707"><ele>285.66666666666663</ele><time>2026-05-01T09:10:57.878Z</time></trkpt><trkpt lat="44.6947365" lon="7.7657128"><ele>286.0</ele><time>2026-05-01T09:10:58.879Z</time></trkpt><trkpt lat="44.6945494" lon="7.7657597"><ele>285.66666666666663</ele><time>2026-05-01T09:10:59.878Z</time></trkpt><trkpt lat="44.6943691" lon="7.7658015"><ele>285.3333333333333</ele><time>2026-05-01T09:11:00.878Z</time></trkpt><trkpt lat="44.694185" lon="7.7658633"><ele>285.0</ele><time>2026-05-01T09:11:01.878Z</time></trkpt><trkpt lat="44.6939966" lon="7.7659179"><ele>285.0</ele><time>2026-05-01T09:11:02.878Z</time></trkpt><trkpt lat="44.6938101" lon="7.7659699"><ele>285.0</ele><time>2026-05-01T09:11:03.878Z</time></trkpt><trkpt lat="44.693625" lon="7.7660209"><ele>285.0</ele><time>2026-05-01T09:11:04.878Z</time></trkpt><trkpt lat="44.6934342" lon="7.7660783"><ele>285.0</ele><time>2026-05-01T09:11:05.878Z</time></trkpt><trkpt lat="44.69324" lon="7.7661322"><ele>285.0</ele><time>2026-05-01T09:11:06.878Z</time></trkpt><trkpt lat="44.6930481" lon="7.7661863"><ele>285.0</ele><time>2026-05-01T09:11:07.878Z</time></trkpt><trkpt lat="44.6928567" lon="7.7662405"><ele>285.0</ele><time>2026-05-01T09:11:08.878Z</time></trkpt><trkpt lat="44.6926646" lon="7.7662917"><ele>285.0</ele><time>2026-05-01T09:11:09.878Z</time></trkpt><trkpt lat="44.6924759" lon="7.7663429"><ele>285.0</ele><time>2026-05-01T09:11:10.878Z</time></trkpt><trkpt lat="44.6922849" lon="7.7663971"><ele>285.0</ele><time>2026-05-01T09:11:11.879Z</time></trkpt><trkpt lat="44.6920997" lon="7.7664527"><ele>285.0</ele><time>2026-05-01T09:11:12.878Z</time></trkpt><trkpt lat="44.6919037" lon="7.7665045"><ele>285.0</ele><time>2026-05-01T09:11:13.878Z</time></trkpt><trkpt lat="44.6917106" lon="7.7665626"><ele>285.3333333333333</ele><time>2026-05-01T09:11:14.878Z</time></trkpt><trkpt lat="44.6915196" lon="7.7666184"><ele>285.66666666666663</ele><time>2026-05-01T09:11:15.879Z</time></trkpt><trkpt lat="44.6913248" lon="7.7666741"><ele>286.0</ele><time>2026-05-01T09:11:16.878Z</time></trkpt><trkpt lat="44.6911352" lon="7.7667218"><ele>285.66666666666663</ele><time>2026-05-01T09:11:17.878Z</time></trkpt><trkpt lat="44.6909385" lon="7.76678"><ele>285.3333333333333</ele><time>2026-05-01T09:11:18.878Z</time></trkpt><trkpt lat="44.6907456" lon="7.7668386"><ele>285.0</ele><time>2026-05-01T09:11:19.878Z</time></trkpt><trkpt lat="44.6905581" lon="7.7668969"><ele>285.0</ele><time>2026-05-01T09:11:20.878Z</time></trkpt><trkpt lat="44.6903655" lon="7.7669496"><ele>285.0</ele><time>2026-05-01T09:11:21.878Z</time></trkpt><trkpt lat="44.6901748" lon="7.7670041"><ele>285.0</ele><time>2026-05-01T09:11:22.878Z</time></trkpt><trkpt lat="44.6899863" lon="7.7670614"><ele>285.0</ele><time>2026-05-01T09:11:23.878Z</time></trkpt><trkpt lat="44.6897916" lon="7.7671179"><ele>285.0</ele><time>2026-05-01T09:11:24.878Z</time></trkpt><trkpt lat="44.6895942" lon="7.7671675"><ele>285.0</ele><time>2026-05-01T09:11:25.878Z</time></trkpt><trkpt lat="44.6894027" lon="7.7672239"><ele>285.3333333333333</ele><time>2026-05-01T09:11:26.878Z</time></trkpt><trkpt lat="44.6892107" lon="7.7672859"><ele>285.66666666666663</ele><time>2026-05-01T09:11:27.878Z</time></trkpt><trkpt lat="44.689012" lon="7.7673506"><ele>286.0</ele><time>2026-05-01T09:11:28.878Z</time></trkpt><trkpt lat="44.6888159" lon="7.7674063"><ele>286.0</ele><time>2026-05-01T09:11:29.878Z</time></trkpt><trkpt lat="44.6886202" lon="7.7674585"><ele>286.0</ele><time>2026-05-01T09:11:30.878Z</time></trkpt><trkpt lat="44.6884173" lon="7.7675172"><ele>286.0</ele><time>2026-05-01T09:11:31.878Z</time></trkpt><trkpt lat="44.688217" lon="7.7675769"><ele>286.0</ele><time>2026-05-01T09:11:32.878Z</time></trkpt><trkpt lat="44.6880179" lon="7.7676297"><ele>286.0</ele><time>2026-05-01T09:11:33.878Z</time></trkpt><trkpt lat="44.6878195" lon="7.7676818"><ele>286.0</ele><time>2026-05-01T09:11:34.878Z</time></trkpt><trkpt lat="44.6876175" lon="7.7677423"><ele>286.0</ele><time>2026-05-01T09:11:35.878Z</time></trkpt><trkpt lat="44.6874163" lon="7.7678054"><ele>286.0</ele><time>2026-05-01T09:11:36.878Z</time></trkpt><trkpt lat="44.6872155" lon="7.7678673"><ele>286.0</ele><time>2026-05-01T09:11:37.878Z</time></trkpt><trkpt lat="44.6870147" lon="7.7679199"><ele>286.66666666666663</ele><time>2026-05-01T09:11:38.878Z</time></trkpt><trkpt lat="44.6868148" lon="7.7679769"><ele>287.3333333333333</ele><time>2026-05-01T09:11:39.878Z</time></trkpt><trkpt lat="44.6866095" lon="7.7680391"><ele>288.0</ele><time>2026-05-01T09:11:40.878Z</time></trkpt><trkpt lat="44.686408" lon="7.7680957"><ele>288.0</ele><time>2026-05-01T09:11:41.878Z</time></trkpt><trkpt lat="44.6862049" lon="7.7681555"><ele>288.0</ele><time>2026-05-01T09:11:42.878Z</time></trkpt><trkpt lat="44.6860063" lon="7.7682029"><ele>288.0</ele><time>2026-05-01T09:11:43.878Z</time></trkpt><trkpt lat="44.6858034" lon="7.768261"><ele>288.0</ele><time>2026-05-01T09:11:44.878Z</time></trkpt><trkpt lat="44.6855978" lon="7.7683217"><ele>288.0</ele><time>2026-05-01T09:11:45.878Z</time></trkpt><trkpt lat="44.6853981" lon="7.7683825"><ele>288.0</ele><time>2026-05-01T09:11:46.878Z</time></trkpt><trkpt lat="44.6851927" lon="7.7684428"><ele>288.0</ele><time>2026-05-01T09:11:47.878Z</time></trkpt><trkpt lat="44.6849915" lon="7.7684962"><ele>288.0</ele><time>2026-05-01T09:11:48.878Z</time></trkpt><trkpt lat="44.6847917" lon="7.7685514"><ele>288.0</ele><time>2026-05-01T09:11:49.878Z</time></trkpt><trkpt lat="44.684589" lon="7.7686081"><ele>287.6666666666667</ele><time>2026-05-01T09:11:50.878Z</time></trkpt><trkpt lat="44.6843842" lon="7.7686672"><ele>287.33333333333337</ele><time>2026-05-01T09:11:51.878Z</time></trkpt><trkpt lat="44.6841777" lon="7.7687279"><ele>287.0</ele><time>2026-05-01T09:11:52.878Z</time></trkpt><trkpt lat="44.6839771" lon="7.7687857"><ele>287.0</ele><time>2026-05-01T09:11:53.878Z</time></trkpt><trkpt lat="44.6837714" lon="7.7688474"><ele>287.0</ele><time>2026-05-01T09:11:54.879Z</time></trkpt><trkpt lat="44.6835723" lon="7.7689002"><ele>287.0</ele><time>2026-05-01T09:11:55.878Z</time></trkpt><trkpt lat="44.6833696" lon="7.768964"><ele>287.0</ele><time>2026-05-01T09:11:56.878Z</time></trkpt><trkpt lat="44.6831719" lon="7.7690253"><ele>287.0</ele><time>2026-05-01T09:11:57.879Z</time></trkpt><trkpt lat="44.6829668" lon="7.7690849"><ele>287.0</ele><time>2026-05-01T09:11:58.878Z</time></trkpt><trkpt lat="44.6827644" lon="7.7691369"><ele>286.6666666666667</ele><time>2026-05-01T09:11:59.878Z</time></trkpt><trkpt lat="44.6825568" lon="7.7692074"><ele>286.3333333333333</ele><time>2026-05-01T09:12:00.878Z</time></trkpt><trkpt lat="44.6823496" lon="7.7692748"><ele>286.0</ele><time>2026-05-01T09:12:01.878Z</time></trkpt><trkpt lat="44.6821474" lon="7.7693404"><ele>286.3333333333333</ele><time>2026-05-01T09:12:02.878Z</time></trkpt><trkpt lat="44.6819444" lon="7.7693972"><ele>286.6666666666667</ele><time>2026-05-01T09:12:03.878Z</time></trkpt><trkpt lat="44.6817451" lon="7.76945"><ele>287.0</ele><time>2026-05-01T09:12:04.878Z</time></trkpt><trkpt lat="44.6815406" lon="7.7695149"><ele>287.33333333333337</ele><time>2026-05-01T09:12:05.878Z</time></trkpt><trkpt lat="44.6813503" lon="7.7695677"><ele>287.6666666666667</ele><time>2026-05-01T09:12:06.878Z</time></trkpt><trkpt lat="44.6811557" lon="7.769629"><ele>288.0</ele><time>2026-05-01T09:12:07.878Z</time></trkpt><trkpt lat="44.6809694" lon="7.7696813"><ele>288.3333333333333</ele><time>2026-05-01T09:12:08.878Z</time></trkpt><trkpt lat="44.6807833" lon="7.7697301"><ele>288.66666666666663</ele><time>2026-05-01T09:12:09.878Z</time></trkpt><trkpt lat="44.6805924" lon="7.7697818"><ele>289.0</ele><time>2026-05-01T09:12:10.878Z</time></trkpt><trkpt lat="44.6804084" lon="7.7698378"><ele>289.3333333333333</ele><time>2026-05-01T09:12:11.878Z</time></trkpt><trkpt lat="44.6802218" lon="7.7698902"><ele>289.6666666666667</ele><time>2026-05-01T09:12:12.878Z</time></trkpt><trkpt lat="44.6800355" lon="7.7699316"><ele>290.0</ele><time>2026-05-01T09:12:13.878Z</time></trkpt><trkpt lat="44.6798413" lon="7.7699885"><ele>290.0</ele><time>2026-05-01T09:12:14.878Z</time></trkpt><trkpt lat="44.6796508" lon="7.7700375"><ele>290.0</ele><time>2026-05-01T09:12:15.878Z</time></trkpt><trkpt lat="44.6794536" lon="7.7700926"><ele>290.0</ele><time>2026-05-01T09:12:16.879Z</time></trkpt><trkpt lat="44.6792557" lon="7.7701496"><ele>290.33333333333337</ele><time>2026-05-01T09:12:17.878Z</time></trkpt><trkpt lat="44.6790595" lon="7.7702015"><ele>290.6666666666667</ele><time>2026-05-01T09:12:18.878Z</time></trkpt><trkpt lat="44.6788621" lon="7.7702513"><ele>291.0</ele><time>2026-05-01T09:12:19.878Z</time></trkpt><trkpt lat="44.6786644" lon="7.7703057"><ele>292.0</ele><time>2026-05-01T09:12:20.878Z</time></trkpt><trkpt lat="44.6784587" lon="7.7703591"><ele>293.0</ele><time>2026-05-01T09:12:21.878Z</time></trkpt><trkpt lat="44.6782571" lon="7.7704158"><ele>294.0</ele><time>2026-05-01T09:12:22.878Z</time></trkpt><trkpt lat="44.67806" lon="7.7704701"><ele>294.0</ele><time>2026-05-01T09:12:23.878Z</time></trkpt><trkpt lat="44.6778502" lon="7.7705282"><ele>294.0</ele><time>2026-05-01T09:12:24.878Z</time></trkpt><trkpt lat="44.6776468" lon="7.7705834"><ele>294.0</ele><time>2026-05-01T09:12:25.878Z</time></trkpt><trkpt lat="44.6774342" lon="7.7706533"><ele>293.0</ele><time>2026-05-01T09:12:26.878Z</time></trkpt><trkpt lat="44.6772205" lon="7.7707233"><ele>292.0</ele><time>2026-05-01T09:12:27.878Z</time></trkpt><trkpt lat="44.6770003" lon="7.7707956"><ele>291.0</ele><time>2026-05-01T09:12:28.878Z</time></trkpt><trkpt lat="44.6767867" lon="7.7708676"><ele>291.0</ele><time>2026-05-01T09:12:29.878Z</time></trkpt><trkpt lat="44.6765719" lon="7.7709354"><ele>291.0</ele><time>2026-05-01T09:12:30.879Z</time></trkpt><trkpt lat="44.6763472" lon="7.7709992"><ele>291.0</ele><time>2026-05-01T09:12:31.878Z</time></trkpt><trkpt lat="44.6761336" lon="7.7710571"><ele>292.0</ele><time>2026-05-01T09:12:32.878Z</time></trkpt><trkpt lat="44.6759174" lon="7.7711144"><ele>293.0</ele><time>2026-05-01T09:12:33.878Z</time></trkpt><trkpt lat="44.6756965" lon="7.7711802"><ele>294.0</ele><time>2026-05-01T09:12:34.878Z</time></trkpt><trkpt lat="44.675482" lon="7.771239"><ele>293.6666666666667</ele><time>2026-05-01T09:12:35.878Z</time></trkpt><trkpt lat="44.6752668" lon="7.7713007"><ele>293.33333333333337</ele><time>2026-05-01T09:12:36.878Z</time></trkpt><trkpt lat="44.6750512" lon="7.7713666"><ele>293.0</ele><time>2026-05-01T09:12:37.878Z</time></trkpt><trkpt lat="44.6748304" lon="7.7714332"><ele>293.0</ele><time>2026-05-01T09:12:38.878Z</time></trkpt><trkpt lat="44.6746077" lon="7.7714947"><ele>293.0</ele><time>2026-05-01T09:12:39.878Z</time></trkpt><trkpt lat="44.6743991" lon="7.7715494"><ele>293.0</ele><time>2026-05-01T09:12:40.878Z</time></trkpt><trkpt lat="44.6741845" lon="7.7716076"><ele>293.0</ele><time>2026-05-01T09:12:41.879Z</time></trkpt><trkpt lat="44.6739657" lon="7.7716734"><ele>293.0</ele><time>2026-05-01T09:12:42.878Z</time></trkpt><trkpt lat="44.6737505" lon="7.7717357"><ele>293.0</ele><time>2026-05-01T09:12:43.878Z</time></trkpt><trkpt lat="44.6735362" lon="7.7717944"><ele>293.0</ele><time>2026-05-01T09:12:44.878Z</time></trkpt><trkpt lat="44.6733217" lon="7.7718606"><ele>293.0</ele><time>2026-05-01T09:12:45.878Z</time></trkpt><trkpt lat="44.6731162" lon="7.771928"><ele>293.0</ele><time>2026-05-01T09:12:46.878Z</time></trkpt><trkpt lat="44.6729158" lon="7.771983"><ele>293.33333333333337</ele><time>2026-05-01T09:12:47.878Z</time></trkpt><trkpt lat="44.6727295" lon="7.7720348"><ele>293.6666666666667</ele><time>2026-05-01T09:12:48.878Z</time></trkpt><trkpt lat="44.6725437" lon="7.7720882"><ele>294.0</ele><time>2026-05-01T09:12:49.878Z</time></trkpt><trkpt lat="44.6723812" lon="7.7721355"><ele>294.0</ele><time>2026-05-01T09:12:50.878Z</time></trkpt><trkpt lat="44.672215" lon="7.7721814"><ele>294.0</ele><time>2026-05-01T09:12:51.879Z</time></trkpt><trkpt lat="44.6720512" lon="7.7722275"><ele>294.0</ele><time>2026-05-01T09:12:52.878Z</time></trkpt><trkpt lat="44.6718801" lon="7.772276"><ele>294.0</ele><time>2026-05-01T09:12:53.878Z</time></trkpt><trkpt lat="44.6717136" lon="7.7723251"><ele>294.0</ele><time>2026-05-01T09:12:54.878Z</time></trkpt><trkpt lat="44.6715523" lon="7.7723681"><ele>294.0</ele><time>2026-05-01T09:12:55.878Z</time></trkpt><trkpt lat="44.6713828" lon="7.772421"><ele>294.0</ele><time>2026-05-01T09:12:56.878Z</time></trkpt><trkpt lat="44.6712212" lon="7.7724742"><ele>294.0</ele><time>2026-05-01T09:12:57.878Z</time></trkpt><trkpt lat="44.6710441" lon="7.772527"><ele>294.0</ele><time>2026-05-01T09:12:58.878Z</time></trkpt><trkpt lat="44.6708758" lon="7.7725804"><ele>294.3333333333333</ele><time>2026-05-01T09:12:59.878Z</time></trkpt><trkpt lat="44.6707097" lon="7.7726351"><ele>294.66666666666663</ele><time>2026-05-01T09:13:00.878Z</time></trkpt><trkpt lat="44.6704845" lon="7.7727186"><ele>295.0</ele><time>2026-05-01T09:13:01.878Z</time></trkpt><trkpt lat="44.6702666" lon="7.7727865"><ele>294.0</ele><time>2026-05-01T09:13:02.878Z</time></trkpt><trkpt lat="44.6700433" lon="7.7728452"><ele>293.0</ele><time>2026-05-01T09:13:03.878Z</time></trkpt><trkpt lat="44.669816" lon="7.7729134"><ele>293.0</ele><time>2026-05-01T09:13:04.878Z</time></trkpt><trkpt lat="44.6695979" lon="7.7729761"><ele>293.0</ele><time>2026-05-01T09:13:05.878Z</time></trkpt><trkpt lat="44.6693696" lon="7.7730343"><ele>294.0</ele><time>2026-05-01T09:13:06.878Z</time></trkpt><trkpt lat="44.6691372" lon="7.7730906"><ele>295.0</ele><time>2026-05-01T09:13:07.878Z</time></trkpt><trkpt lat="44.6689087" lon="7.7731481"><ele>295.0</ele><time>2026-05-01T09:13:08.878Z</time></trkpt><trkpt lat="44.6686735" lon="7.773204"><ele>295.0</ele><time>2026-05-01T09:13:09.879Z</time></trkpt><trkpt lat="44.6684358" lon="7.7732747"><ele>295.5</ele><time>2026-05-01T09:13:10.878Z</time></trkpt><trkpt lat="44.6682065" lon="7.7733418"><ele>296.0</ele><time>2026-05-01T09:13:11.878Z</time></trkpt><trkpt lat="44.667976" lon="7.7733986"><ele>296.5</ele><time>2026-05-01T09:13:12.878Z</time></trkpt><trkpt lat="44.6677518" lon="7.7734643"><ele>297.0</ele><time>2026-05-01T09:13:13.878Z</time></trkpt><trkpt lat="44.6675308" lon="7.7735352"><ele>297.0</ele><time>2026-05-01T09:13:14.878Z</time></trkpt><trkpt lat="44.6673108" lon="7.7736087"><ele>297.0</ele><time>2026-05-01T09:13:15.878Z</time></trkpt><trkpt lat="44.6671066" lon="7.7736654"><ele>297.0</ele><time>2026-05-01T09:13:16.878Z</time></trkpt><trkpt lat="44.6669011" lon="7.7737292"><ele>297.0</ele><time>2026-05-01T09:13:17.878Z</time></trkpt><trkpt lat="44.6666939" lon="7.7737875"><ele>297.0</ele><time>2026-05-01T09:13:18.878Z</time></trkpt><trkpt lat="44.6664774" lon="7.7738597"><ele>297.0</ele><time>2026-05-01T09:13:19.878Z</time></trkpt><trkpt lat="44.666271" lon="7.7739214"><ele>297.6666666666667</ele><time>2026-05-01T09:13:20.878Z</time></trkpt><trkpt lat="44.6660706" lon="7.7739873"><ele>298.33333333333337</ele><time>2026-05-01T09:13:21.878Z</time></trkpt><trkpt lat="44.6658771" lon="7.7740511"><ele>299.0</ele><time>2026-05-01T09:13:22.878Z</time></trkpt><trkpt lat="44.6656744" lon="7.7741217"><ele>299.0</ele><time>2026-05-01T09:13:23.878Z</time></trkpt><trkpt lat="44.6654803" lon="7.7741809"><ele>299.0</ele><time>2026-05-01T09:13:24.878Z</time></trkpt><trkpt lat="44.6652868" lon="7.7742323"><ele>299.0</ele><time>2026-05-01T09:13:25.878Z</time></trkpt><trkpt lat="44.6650838" lon="7.7742909"><ele>299.0</ele><time>2026-05-01T09:13:26.878Z</time></trkpt><trkpt lat="44.6648858" lon="7.7743412"><ele>299.0</ele><time>2026-05-01T09:13:27.878Z</time></trkpt><trkpt lat="44.6646874" lon="7.7743876"><ele>299.0</ele><time>2026-05-01T09:13:28.879Z</time></trkpt><trkpt lat="44.6644745" lon="7.7744517"><ele>300.0</ele><time>2026-05-01T09:13:29.879Z</time></trkpt><trkpt lat="44.6642582" lon="7.774509"><ele>301.0</ele><time>2026-05-01T09:13:30.878Z</time></trkpt><trkpt lat="44.6640469" lon="7.7745628"><ele>302.0</ele><time>2026-05-01T09:13:31.878Z</time></trkpt><trkpt lat="44.663818" lon="7.7746337"><ele>300.0</ele><time>2026-05-01T09:13:32.878Z</time></trkpt><trkpt lat="44.6635803" lon="7.7746981"><ele>298.0</ele><time>2026-05-01T09:13:33.878Z</time></trkpt><trkpt lat="44.6633383" lon="7.7747566"><ele>298.0</ele><time>2026-05-01T09:13:34.878Z</time></trkpt><trkpt lat="44.6630969" lon="7.7748138"><ele>298.0</ele><time>2026-05-01T09:13:35.878Z</time></trkpt><trkpt lat="44.6628557" lon="7.774895"><ele>298.5</ele><time>2026-05-01T09:13:36.878Z</time></trkpt><trkpt lat="44.6626085" lon="7.7749671"><ele>299.0</ele><time>2026-05-01T09:13:37.878Z</time></trkpt><trkpt lat="44.6623637" lon="7.7750385"><ele>299.0</ele><time>2026-05-01T09:13:38.879Z</time></trkpt><trkpt lat="44.6621157" lon="7.7751164"><ele>299.0</ele><time>2026-05-01T09:13:39.878Z</time></trkpt><trkpt lat="44.6618644" lon="7.7751947"><ele>300.0</ele><time>2026-05-01T09:13:40.878Z</time></trkpt><trkpt lat="44.6616313" lon="7.7752636"><ele>301.0</ele><time>2026-05-01T09:13:41.878Z</time></trkpt><trkpt lat="44.6613899" lon="7.7753338"><ele>301.0</ele><time>2026-05-01T09:13:42.878Z</time></trkpt><trkpt lat="44.6611446" lon="7.7753877"><ele>301.0</ele><time>2026-05-01T09:13:43.878Z</time></trkpt><trkpt lat="44.6608956" lon="7.7754597"><ele>300.0</ele><time>2026-05-01T09:13:44.878Z</time></trkpt><trkpt lat="44.6606504" lon="7.77553"><ele>299.0</ele><time>2026-05-01T09:13:45.878Z</time></trkpt><trkpt lat="44.6604033" lon="7.7756088"><ele>299.5</ele><time>2026-05-01T09:13:46.878Z</time></trkpt><trkpt lat="44.6601492" lon="7.7756985"><ele>300.0</ele><time>2026-05-01T09:13:47.878Z</time></trkpt><trkpt lat="44.6599024" lon="7.775788"><ele>300.0</ele><time>2026-05-01T09:13:48.878Z</time></trkpt><trkpt lat="44.6596585" lon="7.7758647"><ele>300.0</ele><time>2026-05-01T09:13:49.878Z</time></trkpt><trkpt lat="44.6593865" lon="7.7759444"><ele>300.5</ele><time>2026-05-01T09:13:50.878Z</time></trkpt><trkpt lat="44.6591324" lon="7.7760122"><ele>301.0</ele><time>2026-05-01T09:13:51.879Z</time></trkpt><trkpt lat="44.6588902" lon="7.7760808"><ele>302.0</ele><time>2026-05-01T09:13:52.878Z</time></trkpt><trkpt lat="44.658641" lon="7.7761524"><ele>303.0</ele><time>2026-05-01T09:13:53.878Z</time></trkpt><trkpt lat="44.6584" lon="7.7762099"><ele>303.0</ele><time>2026-05-01T09:13:54.879Z</time></trkpt><trkpt lat="44.6581495" lon="7.776283"><ele>303.0</ele><time>2026-05-01T09:13:55.878Z</time></trkpt><trkpt lat="44.6578799" lon="7.7763474"><ele>303.5</ele><time>2026-05-01T09:13:56.878Z</time></trkpt><trkpt lat="44.6576179" lon="7.7764021"><ele>304.0</ele><time>2026-05-01T09:13:57.878Z</time></trkpt><trkpt lat="44.6573544" lon="7.7764718"><ele>304.0</ele><time>2026-05-01T09:13:58.878Z</time></trkpt><trkpt lat="44.6570915" lon="7.7765477"><ele>304.0</ele><time>2026-05-01T09:13:59.878Z</time></trkpt><trkpt lat="44.6568253" lon="7.7766266"><ele>304.0</ele><time>2026-05-01T09:14:00.878Z</time></trkpt><trkpt lat="44.6565661" lon="7.7766988"><ele>304.0</ele><time>2026-05-01T09:14:01.878Z</time></trkpt><trkpt lat="44.6563072" lon="7.7767767"><ele>302.0</ele><time>2026-05-01T09:14:02.878Z</time></trkpt><trkpt lat="44.6560437" lon="7.77687"><ele>300.0</ele><time>2026-05-01T09:14:03.878Z</time></trkpt><trkpt lat="44.6557787" lon="7.7769579"><ele>300.0</ele><time>2026-05-01T09:14:04.878Z</time></trkpt><trkpt lat="44.6555178" lon="7.7770367"><ele>300.0</ele><time>2026-05-01T09:14:05.878Z</time></trkpt><trkpt lat="44.6552601" lon="7.7771178"><ele>301.0</ele><time>2026-05-01T09:14:06.878Z</time></trkpt><trkpt lat="44.6550059" lon="7.7771917"><ele>302.0</ele><time>2026-05-01T09:14:07.878Z</time></trkpt><trkpt lat="44.6547483" lon="7.7772674"><ele>302.0</ele><time>2026-05-01T09:14:08.879Z</time></trkpt><trkpt lat="44.6545013" lon="7.7773359"><ele>302.0</ele><time>2026-05-01T09:14:09.878Z</time></trkpt><trkpt lat="44.6542574" lon="7.7774134"><ele>302.0</ele><time>2026-05-01T09:14:10.878Z</time></trkpt><trkpt lat="44.6540185" lon="7.7774814"><ele>302.0</ele><time>2026-05-01T09:14:11.878Z</time></trkpt><trkpt lat="44.6537829" lon="7.7775575"><ele>302.0</ele><time>2026-05-01T09:14:12.878Z</time></trkpt><trkpt lat="44.6535511" lon="7.7776284"><ele>302.0</ele><time>2026-05-01T09:14:13.878Z</time></trkpt><trkpt lat="44.653308" lon="7.7776997"><ele>302.0</ele><time>2026-05-01T09:14:14.878Z</time></trkpt><trkpt lat="44.6530629" lon="7.7777707"><ele>302.0</ele><time>2026-05-01T09:14:15.878Z</time></trkpt><trkpt lat="44.6528162" lon="7.77784"><ele>302.5</ele><time>2026-05-01T09:14:16.878Z</time></trkpt><trkpt lat="44.6525673" lon="7.7779048"><ele>303.0</ele><time>2026-05-01T09:14:17.878Z</time></trkpt><trkpt lat="44.6523156" lon="7.777972"><ele>303.0</ele><time>2026-05-01T09:14:18.878Z</time></trkpt><trkpt lat="44.6520687" lon="7.7780415"><ele>303.0</ele><time>2026-05-01T09:14:19.878Z</time></trkpt><trkpt lat="44.6518166" lon="7.7780985"><ele>304.5</ele><time>2026-05-01T09:14:20.878Z</time></trkpt><trkpt lat="44.651563" lon="7.7781599"><ele>306.0</ele><time>2026-05-01T09:14:21.878Z</time></trkpt><trkpt lat="44.6513072" lon="7.7782207"><ele>306.0</ele><time>2026-05-01T09:14:22.878Z</time></trkpt><trkpt lat="44.6510583" lon="7.7782768"><ele>306.0</ele><time>2026-05-01T09:14:23.878Z</time></trkpt><trkpt lat="44.6508102" lon="7.7783309"><ele>306.0</ele><time>2026-05-01T09:14:24.878Z</time></trkpt><trkpt lat="44.6505636" lon="7.7783819"><ele>306.0</ele><time>2026-05-01T09:14:25.878Z</time></trkpt><trkpt lat="44.650316" lon="7.7784319"><ele>305.5</ele><time>2026-05-01T09:14:26.878Z</time></trkpt><trkpt lat="44.650066" lon="7.7784821"><ele>305.0</ele><time>2026-05-01T09:14:27.878Z</time></trkpt><trkpt lat="44.6498156" lon="7.7785318"><ele>305.0</ele><time>2026-05-01T09:14:28.878Z</time></trkpt><trkpt lat="44.6495563" lon="7.7785773"><ele>305.0</ele><time>2026-05-01T09:14:29.878Z</time></trkpt><trkpt lat="44.6493053" lon="7.778622"><ele>305.0</ele><time>2026-05-01T09:14:30.878Z</time></trkpt><trkpt lat="44.6490482" lon="7.7786627"><ele>305.0</ele><time>2026-05-01T09:14:31.878Z</time></trkpt><trkpt lat="44.6487926" lon="7.7787035"><ele>307.0</ele><time>2026-05-01T09:14:32.878Z</time></trkpt><trkpt lat="44.6485335" lon="7.778746"><ele>309.0</ele><time>2026-05-01T09:14:33.878Z</time></trkpt><trkpt lat="44.6482779" lon="7.7787756"><ele>309.0</ele><time>2026-05-01T09:14:34.878Z</time></trkpt><trkpt lat="44.6480215" lon="7.7788071"><ele>309.0</ele><time>2026-05-01T09:14:35.878Z</time></trkpt><trkpt lat="44.6477591" lon="7.7788346"><ele>308.5</ele><time>2026-05-01T09:14:36.878Z</time></trkpt><trkpt lat="44.6475014" lon="7.7788654"><ele>308.0</ele><time>2026-05-01T09:14:37.878Z</time></trkpt><trkpt lat="44.6472431" lon="7.7788994"><ele>308.0</ele><time>2026-05-01T09:14:38.878Z</time></trkpt><trkpt lat="44.6469827" lon="7.7789215"><ele>308.0</ele><time>2026-05-01T09:14:39.878Z</time></trkpt><trkpt lat="44.6467303" lon="7.7789418"><ele>308.0</ele><time>2026-05-01T09:14:40.878Z</time></trkpt><trkpt lat="44.6464736" lon="7.7789548"><ele>308.0</ele><time>2026-05-01T09:14:41.878Z</time></trkpt><trkpt lat="44.6462096" lon="7.7789685"><ele>307.5</ele><time>2026-05-01T09:14:42.878Z</time></trkpt><trkpt lat="44.6459462" lon="7.7789844"><ele>307.0</ele><time>2026-05-01T09:14:43.878Z</time></trkpt><trkpt lat="44.6456778" lon="7.7789986"><ele>307.0</ele><time>2026-05-01T09:14:44.879Z</time></trkpt><trkpt lat="44.6454043" lon="7.7790035"><ele>307.0</ele><time>2026-05-01T09:14:45.878Z</time></trkpt><trkpt lat="44.6451495" lon="7.7790026"><ele>307.0</ele><time>2026-05-01T09:14:46.878Z</time></trkpt><trkpt lat="44.6448975" lon="7.7790122"><ele>307.0</ele><time>2026-05-01T09:14:47.878Z</time></trkpt><trkpt lat="44.6446415" lon="7.7790239"><ele>306.5</ele><time>2026-05-01T09:14:48.877Z</time></trkpt><trkpt lat="44.6443811" lon="7.7790317"><ele>306.0</ele><time>2026-05-01T09:14:49.878Z</time></trkpt><trkpt lat="44.6441337" lon="7.7790372"><ele>306.0</ele><time>2026-05-01T09:14:50.878Z</time></trkpt><trkpt lat="44.6438798" lon="7.7790418"><ele>306.0</ele><time>2026-05-01T09:14:51.878Z</time></trkpt><trkpt lat="44.6436404" lon="7.7790374"><ele>306.0</ele><time>2026-05-01T09:14:52.878Z</time></trkpt><trkpt lat="44.6434111" lon="7.7790321"><ele>306.0</ele><time>2026-05-01T09:14:53.879Z</time></trkpt><trkpt lat="44.6431862" lon="7.7790277"><ele>306.0</ele><time>2026-05-01T09:14:54.878Z</time></trkpt><trkpt lat="44.6429568" lon="7.7790236"><ele>306.0</ele><time>2026-05-01T09:14:55.878Z</time></trkpt><trkpt lat="44.6427221" lon="7.7790149"><ele>306.0</ele><time>2026-05-01T09:14:56.878Z</time></trkpt><trkpt lat="44.6424909" lon="7.7789985"><ele>306.0</ele><time>2026-05-01T09:14:57.878Z</time></trkpt><trkpt lat="44.6422636" lon="7.7789846"><ele>306.0</ele><time>2026-05-01T09:14:58.878Z</time></trkpt><trkpt lat="44.6420315" lon="7.7789649"><ele>306.0</ele><time>2026-05-01T09:14:59.878Z</time></trkpt><trkpt lat="44.6417945" lon="7.7789544"><ele>307.5</ele><time>2026-05-01T09:15:00.878Z</time></trkpt><trkpt lat="44.6415591" lon="7.7789355"><ele>309.0</ele><time>2026-05-01T09:15:01.878Z</time></trkpt><trkpt lat="44.6413295" lon="7.7789162"><ele>308.5</ele><time>2026-05-01T09:15:02.878Z</time></trkpt><trkpt lat="44.6410942" lon="7.7789018"><ele>308.0</ele><time>2026-05-01T09:15:03.878Z</time></trkpt><trkpt lat="44.6408715" lon="7.7788777"><ele>308.0</ele><time>2026-05-01T09:15:04.878Z</time></trkpt><trkpt lat="44.6406484" lon="7.7788548"><ele>308.0</ele><time>2026-05-01T09:15:05.878Z</time></trkpt><trkpt lat="44.6404291" lon="7.7788353"><ele>308.0</ele><time>2026-05-01T09:15:06.878Z</time></trkpt><trkpt lat="44.640226" lon="7.7788109"><ele>307.6666666666667</ele><time>2026-05-01T09:15:07.878Z</time></trkpt><trkpt lat="44.6400182" lon="7.7787781"><ele>307.3333333333333</ele><time>2026-05-01T09:15:08.878Z</time></trkpt><trkpt lat="44.639833" lon="7.7787524"><ele>307.0</ele><time>2026-05-01T09:15:09.878Z</time></trkpt><trkpt lat="44.6396261" lon="7.7787216"><ele>307.66666666666663</ele><time>2026-05-01T09:15:10.878Z</time></trkpt><trkpt lat="44.6394178" lon="7.7786828"><ele>308.3333333333333</ele><time>2026-05-01T09:15:11.878Z</time></trkpt><trkpt lat="44.6392195" lon="7.7786391"><ele>309.0</ele><time>2026-05-01T09:15:12.879Z</time></trkpt><trkpt lat="44.6390348" lon="7.7785933"><ele>309.0</ele><time>2026-05-01T09:15:13.878Z</time></trkpt><trkpt lat="44.6388619" lon="7.7785443"><ele>309.0</ele><time>2026-05-01T09:15:14.878Z</time></trkpt><trkpt lat="44.6386799" lon="7.7785058"><ele>309.0</ele><time>2026-05-01T09:15:15.878Z</time></trkpt><trkpt lat="44.6385012" lon="7.7784702"><ele>308.6666666666667</ele><time>2026-05-01T09:15:16.878Z</time></trkpt><trkpt lat="44.6383158" lon="7.7784282"><ele>308.33333333333337</ele><time>2026-05-01T09:15:17.878Z</time></trkpt><trkpt lat="44.6381269" lon="7.7783909"><ele>308.0</ele><time>2026-05-01T09:15:18.878Z</time></trkpt><trkpt lat="44.6379435" lon="7.7783475"><ele>308.6666666666667</ele><time>2026-05-01T09:15:19.878Z</time></trkpt><trkpt lat="44.6377429" lon="7.7783127"><ele>309.3333333333333</ele><time>2026-05-01T09:15:20.878Z</time></trkpt><trkpt lat="44.6375549" lon="7.7782781"><ele>310.0</ele><time>2026-05-01T09:15:21.878Z</time></trkpt><trkpt lat="44.637374" lon="7.7782401"><ele>310.0</ele><time>2026-05-01T09:15:22.878Z</time></trkpt><trkpt lat="44.6371899" lon="7.7781951"><ele>310.0</ele><time>2026-05-01T09:15:23.878Z</time></trkpt><trkpt lat="44.6370005" lon="7.7781556"><ele>310.0</ele><time>2026-05-01T09:15:24.878Z</time></trkpt><trkpt lat="44.6368083" lon="7.7781069"><ele>309.66666666666663</ele><time>2026-05-01T09:15:25.878Z</time></trkpt><trkpt lat="44.6366196" lon="7.7780634"><ele>309.3333333333333</ele><time>2026-05-01T09:15:26.878Z</time></trkpt><trkpt lat="44.6364333" lon="7.7780292"><ele>309.0</ele><time>2026-05-01T09:15:27.878Z</time></trkpt><trkpt lat="44.6362581" lon="7.7779726"><ele>309.6666666666667</ele><time>2026-05-01T09:15:28.878Z</time></trkpt><trkpt lat="44.6360772" lon="7.7779232"><ele>310.33333333333337</ele><time>2026-05-01T09:15:29.878Z</time></trkpt><trkpt lat="44.6358942" lon="7.7778782"><ele>311.0</ele><time>2026-05-01T09:15:30.878Z</time></trkpt><trkpt lat="44.6357082" lon="7.7778327"><ele>311.0</ele><time>2026-05-01T09:15:31.878Z</time></trkpt><trkpt lat="44.6355196" lon="7.7777816"><ele>311.0</ele><time>2026-05-01T09:15:32.878Z</time></trkpt><trkpt lat="44.6353508" lon="7.777717"><ele>311.0</ele><time>2026-05-01T09:15:33.878Z</time></trkpt><trkpt lat="44.635161" lon="7.7776676"><ele>310.6666666666667</ele><time>2026-05-01T09:15:34.878Z</time></trkpt><trkpt lat="44.6349731" lon="7.7775984"><ele>310.3333333333333</ele><time>2026-05-01T09:15:35.878Z</time></trkpt><trkpt lat="44.6347846" lon="7.7775418"><ele>310.0</ele><time>2026-05-01T09:15:36.879Z</time></trkpt><trkpt lat="44.6345958" lon="7.7774928"><ele>310.0</ele><time>2026-05-01T09:15:37.878Z</time></trkpt><trkpt lat="44.6344001" lon="7.777437"><ele>310.0</ele><time>2026-05-01T09:15:38.878Z</time></trkpt><trkpt lat="44.634213" lon="7.7773769"><ele>310.0</ele><time>2026-05-01T09:15:39.878Z</time></trkpt><trkpt lat="44.6340267" lon="7.7773264"><ele>310.0</ele><time>2026-05-01T09:15:40.878Z</time></trkpt><trkpt lat="44.6338518" lon="7.7772748"><ele>310.0</ele><time>2026-05-01T09:15:41.878Z</time></trkpt><trkpt lat="44.6336951" lon="7.7772184"><ele>310.0</ele><time>2026-05-01T09:15:42.878Z</time></trkpt><trkpt lat="44.6335402" lon="7.7771587"><ele>310.3333333333333</ele><time>2026-05-01T09:15:43.878Z</time></trkpt><trkpt lat="44.633382" lon="7.7771031"><ele>310.6666666666667</ele><time>2026-05-01T09:15:44.878Z</time></trkpt><trkpt lat="44.6332185" lon="7.7770577"><ele>311.0</ele><time>2026-05-01T09:15:45.878Z</time></trkpt><trkpt lat="44.6330711" lon="7.777003"><ele>311.0</ele><time>2026-05-01T09:15:46.878Z</time></trkpt><trkpt lat="44.6329315" lon="7.7769478"><ele>311.0</ele><time>2026-05-01T09:15:47.878Z</time></trkpt><trkpt lat="44.6327738" lon="7.7768989"><ele>311.0</ele><time>2026-05-01T09:15:48.878Z</time></trkpt><trkpt lat="44.6326135" lon="7.7768411"><ele>311.0</ele><time>2026-05-01T09:15:49.878Z</time></trkpt><trkpt lat="44.6324577" lon="7.7767745"><ele>311.0</ele><time>2026-05-01T09:15:50.879Z</time></trkpt><trkpt lat="44.6322817" lon="7.7767127"><ele>311.0</ele><time>2026-05-01T09:15:51.879Z</time></trkpt><trkpt lat="44.6321061" lon="7.7766481"><ele>311.33333333333337</ele><time>2026-05-01T09:15:52.878Z</time></trkpt><trkpt lat="44.6319336" lon="7.7765805"><ele>311.6666666666667</ele><time>2026-05-01T09:15:53.879Z</time></trkpt><trkpt lat="44.6317506" lon="7.7765093"><ele>312.0</ele><time>2026-05-01T09:15:54.878Z</time></trkpt><trkpt lat="44.6315701" lon="7.7764387"><ele>312.0</ele><time>2026-05-01T09:15:55.878Z</time></trkpt><trkpt lat="44.6313815" lon="7.7763628"><ele>312.0</ele><time>2026-05-01T09:15:56.878Z</time></trkpt><trkpt lat="44.6311943" lon="7.7762884"><ele>312.0</ele><time>2026-05-01T09:15:57.878Z</time></trkpt><trkpt lat="44.6310028" lon="7.7762155"><ele>312.0</ele><time>2026-05-01T09:15:58.878Z</time></trkpt><trkpt lat="44.6308145" lon="7.7761357"><ele>312.0</ele><time>2026-05-01T09:15:59.878Z</time></trkpt><trkpt lat="44.630623" lon="7.7760392"><ele>312.0</ele><time>2026-05-01T09:16:00.878Z</time></trkpt><trkpt lat="44.6304287" lon="7.7759442"><ele>312.0</ele><time>2026-05-01T09:16:01.878Z</time></trkpt><trkpt lat="44.6302328" lon="7.7758516"><ele>312.0</ele><time>2026-05-01T09:16:02.878Z</time></trkpt><trkpt lat="44.6300286" lon="7.775762"><ele>312.0</ele><time>2026-05-01T09:16:03.878Z</time></trkpt><trkpt lat="44.6298218" lon="7.7756706"><ele>312.0</ele><time>2026-05-01T09:16:04.878Z</time></trkpt><trkpt lat="44.6296202" lon="7.775578"><ele>312.0</ele><time>2026-05-01T09:16:05.878Z</time></trkpt><trkpt lat="44.6294209" lon="7.775481"><ele>312.0</ele><time>2026-05-01T09:16:06.878Z</time></trkpt><trkpt lat="44.6292222" lon="7.7753813"><ele>312.0</ele><time>2026-05-01T09:16:07.878Z</time></trkpt><trkpt lat="44.6290234" lon="7.7752869"><ele>312.0</ele><time>2026-05-01T09:16:08.878Z</time></trkpt><trkpt lat="44.6288231" lon="7.7751819"><ele>312.0</ele><time>2026-05-01T09:16:09.878Z</time></trkpt><trkpt lat="44.6286246" lon="7.7750804"><ele>312.6666666666667</ele><time>2026-05-01T09:16:10.879Z</time></trkpt><trkpt lat="44.6284286" lon="7.774975"><ele>313.33333333333337</ele><time>2026-05-01T09:16:11.878Z</time></trkpt><trkpt lat="44.6282287" lon="7.7748683"><ele>314.0</ele><time>2026-05-01T09:16:12.878Z</time></trkpt><trkpt lat="44.6280269" lon="7.7747631"><ele>313.6666666666667</ele><time>2026-05-01T09:16:13.878Z</time></trkpt><trkpt lat="44.627806" lon="7.7746608"><ele>313.3333333333333</ele><time>2026-05-01T09:16:14.878Z</time></trkpt><trkpt lat="44.6276069" lon="7.7745487"><ele>313.0</ele><time>2026-05-01T09:16:15.878Z</time></trkpt><trkpt lat="44.6274103" lon="7.7744403"><ele>313.3333333333333</ele><time>2026-05-01T09:16:16.878Z</time></trkpt><trkpt lat="44.6272139" lon="7.7743301"><ele>313.6666666666667</ele><time>2026-05-01T09:16:17.878Z</time></trkpt><trkpt lat="44.6270136" lon="7.7742194"><ele>314.0</ele><time>2026-05-01T09:16:18.878Z</time></trkpt><trkpt lat="44.6268158" lon="7.7741038"><ele>314.0</ele><time>2026-05-01T09:16:19.878Z</time></trkpt><trkpt lat="44.6266208" lon="7.7739921"><ele>314.0</ele><time>2026-05-01T09:16:20.878Z</time></trkpt><trkpt lat="44.6264232" lon="7.7738682"><ele>314.0</ele><time>2026-05-01T09:16:21.878Z</time></trkpt><trkpt lat="44.626221" lon="7.7737468"><ele>314.0</ele><time>2026-05-01T09:16:22.878Z</time></trkpt><trkpt lat="44.6260174" lon="7.7736241"><ele>314.0</ele><time>2026-05-01T09:16:23.878Z</time></trkpt><trkpt lat="44.6258122" lon="7.7735092"><ele>314.0</ele><time>2026-05-01T09:16:24.878Z</time></trkpt><trkpt lat="44.6256042" lon="7.7733826"><ele>314.0</ele><time>2026-05-01T09:16:25.878Z</time></trkpt><trkpt lat="44.6253993" lon="7.7732557"><ele>314.0</ele><time>2026-05-01T09:16:26.878Z</time></trkpt><trkpt lat="44.6251937" lon="7.7731337"><ele>314.0</ele><time>2026-05-01T09:16:27.878Z</time></trkpt><trkpt lat="44.6249928" lon="7.7730036"><ele>314.6666666666667</ele><time>2026-05-01T09:16:28.878Z</time></trkpt><trkpt lat="44.6247926" lon="7.7728747"><ele>315.3333333333333</ele><time>2026-05-01T09:16:29.878Z</time></trkpt><trkpt lat="44.624592" lon="7.772743"><ele>316.0</ele><time>2026-05-01T09:16:30.878Z</time></trkpt><trkpt lat="44.624384" lon="7.7726175"><ele>316.0</ele><time>2026-05-01T09:16:31.878Z</time></trkpt><trkpt lat="44.6241863" lon="7.7724934"><ele>316.0</ele><time>2026-05-01T09:16:32.878Z</time></trkpt><trkpt lat="44.623993" lon="7.7723678"><ele>316.0</ele><time>2026-05-01T09:16:33.878Z</time></trkpt><trkpt lat="44.6238078" lon="7.7722417"><ele>316.0</ele><time>2026-05-01T09:16:34.878Z</time></trkpt><trkpt lat="44.6236212" lon="7.7721089"><ele>316.0</ele><time>2026-05-01T09:16:35.878Z</time></trkpt><trkpt lat="44.6234242" lon="7.7719826"><ele>316.0</ele><time>2026-05-01T09:16:36.878Z</time></trkpt><trkpt lat="44.6232213" lon="7.7718527"><ele>315.66666666666663</ele><time>2026-05-01T09:16:37.878Z</time></trkpt><trkpt lat="44.6230178" lon="7.7717259"><ele>315.3333333333333</ele><time>2026-05-01T09:16:38.878Z</time></trkpt><trkpt lat="44.622812" lon="7.7715968"><ele>315.0</ele><time>2026-05-01T09:16:39.878Z</time></trkpt><trkpt lat="44.6226136" lon="7.7714715"><ele>315.0</ele><time>2026-05-01T09:16:40.878Z</time></trkpt><trkpt lat="44.6224165" lon="7.7713455"><ele>315.0</ele><time>2026-05-01T09:16:41.878Z</time></trkpt><trkpt lat="44.6222177" lon="7.7712154"><ele>315.0</ele><time>2026-05-01T09:16:42.878Z</time></trkpt><trkpt lat="44.6220311" lon="7.7710736"><ele>315.0</ele><time>2026-05-01T09:16:43.878Z</time></trkpt><trkpt lat="44.6218302" lon="7.7709467"><ele>315.0</ele><time>2026-05-01T09:16:44.878Z</time></trkpt><trkpt lat="44.6216321" lon="7.7708213"><ele>315.0</ele><time>2026-05-01T09:16:45.878Z</time></trkpt><trkpt lat="44.6214299" lon="7.7706893"><ele>315.0</ele><time>2026-05-01T09:16:46.878Z</time></trkpt><trkpt lat="44.6212314" lon="7.7705649"><ele>315.0</ele><time>2026-05-01T09:16:47.878Z</time></trkpt><trkpt lat="44.6210363" lon="7.7704393"><ele>315.0</ele><time>2026-05-01T09:16:48.878Z</time></trkpt><trkpt lat="44.6208435" lon="7.7703105"><ele>315.0</ele><time>2026-05-01T09:16:49.878Z</time></trkpt><trkpt lat="44.6206618" lon="7.7701869"><ele>315.0</ele><time>2026-05-01T09:16:50.878Z</time></trkpt><trkpt lat="44.6204871" lon="7.770055"><ele>315.0</ele><time>2026-05-01T09:16:51.878Z</time></trkpt><trkpt lat="44.6203102" lon="7.7699365"><ele>315.3333333333333</ele><time>2026-05-01T09:16:52.878Z</time></trkpt><trkpt lat="44.620136" lon="7.7698228"><ele>315.66666666666663</ele><time>2026-05-01T09:16:53.878Z</time></trkpt><trkpt lat="44.6199664" lon="7.7697098"><ele>316.0</ele><time>2026-05-01T09:16:54.878Z</time></trkpt><trkpt lat="44.6197825" lon="7.7695967"><ele>316.0</ele><time>2026-05-01T09:16:55.878Z</time></trkpt><trkpt lat="44.6196103" lon="7.769481"><ele>316.0</ele><time>2026-05-01T09:16:56.878Z</time></trkpt><trkpt lat="44.619419" lon="7.7693715"><ele>316.0</ele><time>2026-05-01T09:16:57.878Z</time></trkpt><trkpt lat="44.6192342" lon="7.769258"><ele>316.3333333333333</ele><time>2026-05-01T09:16:58.878Z</time></trkpt><trkpt lat="44.6190378" lon="7.7691263"><ele>316.6666666666667</ele><time>2026-05-01T09:16:59.878Z</time></trkpt><trkpt lat="44.6188369" lon="7.7690079"><ele>317.0</ele><time>2026-05-01T09:17:00.878Z</time></trkpt><trkpt lat="44.6186397" lon="7.7688875"><ele>317.33333333333337</ele><time>2026-05-01T09:17:01.878Z</time></trkpt><trkpt lat="44.6184467" lon="7.7687697"><ele>317.6666666666667</ele><time>2026-05-01T09:17:02.878Z</time></trkpt><trkpt lat="44.6182561" lon="7.7686511"><ele>318.0</ele><time>2026-05-01T09:17:03.878Z</time></trkpt><trkpt lat="44.6180725" lon="7.7685333"><ele>318.0</ele><time>2026-05-01T09:17:04.878Z</time></trkpt><trkpt lat="44.617898" lon="7.7684207"><ele>318.0</ele><time>2026-05-01T09:17:05.878Z</time></trkpt><trkpt lat="44.6177282" lon="7.7683124"><ele>318.0</ele><time>2026-05-01T09:17:06.878Z</time></trkpt><trkpt lat="44.6175639" lon="7.7682018"><ele>318.3333333333333</ele><time>2026-05-01T09:17:07.878Z</time></trkpt><trkpt lat="44.617393" lon="7.7680907"><ele>318.66666666666663</ele><time>2026-05-01T09:17:08.878Z</time></trkpt><trkpt lat="44.6172236" lon="7.7679768"><ele>319.0</ele><time>2026-05-01T09:17:09.878Z</time></trkpt><trkpt lat="44.6170522" lon="7.767859"><ele>318.66666666666663</ele><time>2026-05-01T09:17:10.878Z</time></trkpt><trkpt lat="44.6168794" lon="7.7677465"><ele>318.3333333333333</ele><time>2026-05-01T09:17:11.878Z</time></trkpt><trkpt lat="44.6167012" lon="7.7676263"><ele>318.0</ele><time>2026-05-01T09:17:12.878Z</time></trkpt><trkpt lat="44.6165159" lon="7.7675118"><ele>318.0</ele><time>2026-05-01T09:17:13.878Z</time></trkpt><trkpt lat="44.6163324" lon="7.7673925"><ele>318.0</ele><time>2026-05-01T09:17:14.878Z</time></trkpt><trkpt lat="44.6161463" lon="7.7672716"><ele>318.0</ele><time>2026-05-01T09:17:15.878Z</time></trkpt><trkpt lat="44.6159603" lon="7.7671513"><ele>318.0</ele><time>2026-05-01T09:17:16.878Z</time></trkpt><trkpt lat="44.6157763" lon="7.7670289"><ele>318.0</ele><time>2026-05-01T09:17:17.878Z</time></trkpt><trkpt lat="44.6155799" lon="7.7669048"><ele>318.0</ele><time>2026-05-01T09:17:18.878Z</time></trkpt><trkpt lat="44.6153897" lon="7.7667817"><ele>318.6666666666667</ele><time>2026-05-01T09:17:19.878Z</time></trkpt><trkpt lat="44.6151993" lon="7.7666571"><ele>319.33333333333337</ele><time>2026-05-01T09:17:20.878Z</time></trkpt><trkpt lat="44.6150065" lon="7.7665332"><ele>320.0</ele><time>2026-05-01T09:17:21.878Z</time></trkpt><trkpt lat="44.6148109" lon="7.7664085"><ele>320.0</ele><time>2026-05-01T09:17:22.878Z</time></trkpt><trkpt lat="44.6146104" lon="7.7662804"><ele>320.0</ele><time>2026-05-01T09:17:23.878Z</time></trkpt><trkpt lat="44.6144143" lon="7.7661445"><ele>320.0</ele><time>2026-05-01T09:17:24.878Z</time></trkpt><trkpt lat="44.614212" lon="7.7660189"><ele>320.0</ele><time>2026-05-01T09:17:25.878Z</time></trkpt><trkpt lat="44.6140066" lon="7.7658878"><ele>320.0</ele><time>2026-05-01T09:17:26.878Z</time></trkpt><trkpt lat="44.613803" lon="7.7657578"><ele>320.0</ele><time>2026-05-01T09:17:27.878Z</time></trkpt><trkpt lat="44.6136087" lon="7.7656185"><ele>319.5</ele><time>2026-05-01T09:17:28.879Z</time></trkpt><trkpt lat="44.6134036" lon="7.7654854"><ele>319.0</ele><time>2026-05-01T09:17:29.878Z</time></trkpt><trkpt lat="44.6131967" lon="7.7653579"><ele>319.0</ele><time>2026-05-01T09:17:30.878Z</time></trkpt><trkpt lat="44.612988" lon="7.7652338"><ele>319.0</ele><time>2026-05-01T09:17:31.878Z</time></trkpt><trkpt lat="44.6127916" lon="7.7650985"><ele>319.0</ele><time>2026-05-01T09:17:32.878Z</time></trkpt><trkpt lat="44.6125875" lon="7.7649736"><ele>319.3333333333333</ele><time>2026-05-01T09:17:33.878Z</time></trkpt><trkpt lat="44.6123892" lon="7.7648382"><ele>319.6666666666667</ele><time>2026-05-01T09:17:34.879Z</time></trkpt><trkpt lat="44.6121921" lon="7.7647075"><ele>320.0</ele><time>2026-05-01T09:17:35.878Z</time></trkpt><trkpt lat="44.6119782" lon="7.764582"><ele>320.0</ele><time>2026-05-01T09:17:36.878Z</time></trkpt><trkpt lat="44.6117677" lon="7.7644486"><ele>320.0</ele><time>2026-05-01T09:17:37.878Z</time></trkpt><trkpt lat="44.6115552" lon="7.7643108"><ele>320.5</ele><time>2026-05-01T09:17:38.878Z</time></trkpt><trkpt lat="44.6113308" lon="7.7641811"><ele>321.0</ele><time>2026-05-01T09:17:39.878Z</time></trkpt><trkpt lat="44.6111027" lon="7.764052"><ele>321.5</ele><time>2026-05-01T09:17:40.878Z</time></trkpt><trkpt lat="44.6108746" lon="7.7639127"><ele>322.0</ele><time>2026-05-01T09:17:41.878Z</time></trkpt><trkpt lat="44.6106481" lon="7.7637637"><ele>322.0</ele><time>2026-05-01T09:17:42.878Z</time></trkpt><trkpt lat="44.6104174" lon="7.763621"><ele>322.0</ele><time>2026-05-01T09:17:43.878Z</time></trkpt><trkpt lat="44.6101795" lon="7.7634801"><ele>322.0</ele><time>2026-05-01T09:17:44.878Z</time></trkpt><trkpt lat="44.6099416" lon="7.7633505"><ele>322.0</ele><time>2026-05-01T09:17:45.878Z</time></trkpt><trkpt lat="44.609703" lon="7.7632263"><ele>322.0</ele><time>2026-05-01T09:17:46.878Z</time></trkpt><trkpt lat="44.6094559" lon="7.763098"><ele>322.0</ele><time>2026-05-01T09:17:47.878Z</time></trkpt><trkpt lat="44.6092079" lon="7.7629685"><ele>322.0</ele><time>2026-05-01T09:17:48.878Z</time></trkpt><trkpt lat="44.6089518" lon="7.762846"><ele>322.0</ele><time>2026-05-01T09:17:49.878Z</time></trkpt><trkpt lat="44.6087073" lon="7.7627163"><ele>322.0</ele><time>2026-05-01T09:17:50.878Z</time></trkpt><trkpt lat="44.6084477" lon="7.7625925"><ele>322.0</ele><time>2026-05-01T09:17:51.878Z</time></trkpt><trkpt lat="44.6081964" lon="7.762474"><ele>322.0</ele><time>2026-05-01T09:17:52.878Z</time></trkpt><trkpt lat="44.6079526" lon="7.7623652"><ele>322.0</ele><time>2026-05-01T09:17:53.878Z</time></trkpt><trkpt lat="44.6077111" lon="7.7622506"><ele>323.5</ele><time>2026-05-01T09:17:54.878Z</time></trkpt><trkpt lat="44.6074605" lon="7.7621486"><ele>325.0</ele><time>2026-05-01T09:17:55.878Z</time></trkpt><trkpt lat="44.6072149" lon="7.7620457"><ele>323.5</ele><time>2026-05-01T09:17:56.878Z</time></trkpt><trkpt lat="44.6069692" lon="7.7619403"><ele>322.0</ele><time>2026-05-01T09:17:57.878Z</time></trkpt><trkpt lat="44.6067088" lon="7.761848"><ele>322.0</ele><time>2026-05-01T09:17:58.878Z</time></trkpt><trkpt lat="44.606447" lon="7.7617659"><ele>322.0</ele><time>2026-05-01T09:17:59.878Z</time></trkpt><trkpt lat="44.6061897" lon="7.7617038"><ele>322.0</ele><time>2026-05-01T09:18:00.878Z</time></trkpt><trkpt lat="44.6059492" lon="7.7616144"><ele>322.0</ele><time>2026-05-01T09:18:01.878Z</time></trkpt><trkpt lat="44.6056965" lon="7.7615402"><ele>322.0</ele><time>2026-05-01T09:18:02.878Z</time></trkpt><trkpt lat="44.6054617" lon="7.7614761"><ele>322.0</ele><time>2026-05-01T09:18:03.878Z</time></trkpt><trkpt lat="44.605228" lon="7.7614183"><ele>322.0</ele><time>2026-05-01T09:18:04.878Z</time></trkpt><trkpt lat="44.605003" lon="7.7613664"><ele>322.0</ele><time>2026-05-01T09:18:05.878Z</time></trkpt><trkpt lat="44.6047816" lon="7.7613086"><ele>322.0</ele><time>2026-05-01T09:18:06.878Z</time></trkpt><trkpt lat="44.6045602" lon="7.7612424"><ele>322.0</ele><time>2026-05-01T09:18:07.878Z</time></trkpt><trkpt lat="44.6043423" lon="7.7611695"><ele>323.5</ele><time>2026-05-01T09:18:08.878Z</time></trkpt><trkpt lat="44.6041075" lon="7.7611082"><ele>325.0</ele><time>2026-05-01T09:18:09.878Z</time></trkpt><trkpt lat="44.6038702" lon="7.7610526"><ele>324.5</ele><time>2026-05-01T09:18:10.878Z</time></trkpt><trkpt lat="44.6036348" lon="7.7609989"><ele>324.0</ele><time>2026-05-01T09:18:11.878Z</time></trkpt><trkpt lat="44.6034022" lon="7.7609503"><ele>324.0</ele><time>2026-05-01T09:18:12.878Z</time></trkpt><trkpt lat="44.6031764" lon="7.7609007"><ele>324.0</ele><time>2026-05-01T09:18:13.878Z</time></trkpt><trkpt lat="44.6029446" lon="7.7608627"><ele>324.0</ele><time>2026-05-01T09:18:14.878Z</time></trkpt><trkpt lat="44.6027085" lon="7.7608284"><ele>324.0</ele><time>2026-05-01T09:18:15.878Z</time></trkpt><trkpt lat="44.6024813" lon="7.7607871"><ele>324.0</ele><time>2026-05-01T09:18:16.878Z</time></trkpt><trkpt lat="44.6022446" lon="7.7607469"><ele>324.0</ele><time>2026-05-01T09:18:17.878Z</time></trkpt><trkpt lat="44.6019955" lon="7.7607186"><ele>324.5</ele><time>2026-05-01T09:18:18.878Z</time></trkpt><trkpt lat="44.601743" lon="7.7606913"><ele>325.0</ele><time>2026-05-01T09:18:19.878Z</time></trkpt><trkpt lat="44.6014996" lon="7.7606683"><ele>325.0</ele><time>2026-05-01T09:18:20.878Z</time></trkpt><trkpt lat="44.6012684" lon="7.7606465"><ele>325.0</ele><time>2026-05-01T09:18:21.878Z</time></trkpt><trkpt lat="44.6010374" lon="7.7606438"><ele>324.5</ele><time>2026-05-01T09:18:22.878Z</time></trkpt><trkpt lat="44.6008032" lon="7.7606419"><ele>324.0</ele><time>2026-05-01T09:18:23.878Z</time></trkpt><trkpt lat="44.6005623" lon="7.7606414"><ele>325.0</ele><time>2026-05-01T09:18:24.878Z</time></trkpt><trkpt lat="44.6003206" lon="7.7606414"><ele>326.0</ele><time>2026-05-01T09:18:25.878Z</time></trkpt><trkpt lat="44.6000729" lon="7.7606408"><ele>326.0</ele><time>2026-05-01T09:18:26.878Z</time></trkpt><trkpt lat="44.5998162" lon="7.7606459"><ele>326.0</ele><time>2026-05-01T09:18:27.878Z</time></trkpt><trkpt lat="44.5995626" lon="7.760655"><ele>327.5</ele><time>2026-05-01T09:18:28.878Z</time></trkpt><trkpt lat="44.5993123" lon="7.7606478"><ele>329.0</ele><time>2026-05-01T09:18:29.878Z</time></trkpt><trkpt lat="44.5990547" lon="7.7606662"><ele>329.0</ele><time>2026-05-01T09:18:30.878Z</time></trkpt><trkpt lat="44.598799" lon="7.7606718"><ele>329.0</ele><time>2026-05-01T09:18:31.878Z</time></trkpt><trkpt lat="44.5985357" lon="7.7606852"><ele>329.5</ele><time>2026-05-01T09:18:32.878Z</time></trkpt><trkpt lat="44.5982741" lon="7.7606932"><ele>330.0</ele><time>2026-05-01T09:18:33.878Z</time></trkpt><trkpt lat="44.5979965" lon="7.7607289"><ele>328.5</ele><time>2026-05-01T09:18:34.879Z</time></trkpt><trkpt lat="44.5977216" lon="7.7607522"><ele>327.0</ele><time>2026-05-01T09:18:35.878Z</time></trkpt><trkpt lat="44.5974465" lon="7.7607807"><ele>327.0</ele><time>2026-05-01T09:18:36.879Z</time></trkpt><trkpt lat="44.5971802" lon="7.7607967"><ele>327.0</ele><time>2026-05-01T09:18:37.878Z</time></trkpt><trkpt lat="44.5969069" lon="7.7608267"><ele>327.0</ele><time>2026-05-01T09:18:38.878Z</time></trkpt><trkpt lat="44.5966415" lon="7.7608662"><ele>327.0</ele><time>2026-05-01T09:18:39.878Z</time></trkpt><trkpt lat="44.5963775" lon="7.7609046"><ele>327.5</ele><time>2026-05-01T09:18:40.878Z</time></trkpt><trkpt lat="44.5961193" lon="7.7609353"><ele>328.0</ele><time>2026-05-01T09:18:41.878Z</time></trkpt><trkpt lat="44.5958501" lon="7.7610009"><ele>327.5</ele><time>2026-05-01T09:18:42.878Z</time></trkpt><trkpt lat="44.5955841" lon="7.7610591"><ele>327.0</ele><time>2026-05-01T09:18:43.878Z</time></trkpt><trkpt lat="44.5953083" lon="7.7611268"><ele>326.5</ele><time>2026-05-01T09:18:44.878Z</time></trkpt><trkpt lat="44.595026" lon="7.7611955"><ele>326.0</ele><time>2026-05-01T09:18:45.878Z</time></trkpt><trkpt lat="44.5947516" lon="7.7612783"><ele>327.5</ele><time>2026-05-01T09:18:46.878Z</time></trkpt><trkpt lat="44.5944766" lon="7.7613541"><ele>329.0</ele><time>2026-05-01T09:18:47.878Z</time></trkpt><trkpt lat="44.5941963" lon="7.7614445"><ele>329.0</ele><time>2026-05-01T09:18:48.878Z</time></trkpt><trkpt lat="44.5939199" lon="7.7615401"><ele>329.0</ele><time>2026-05-01T09:18:49.878Z</time></trkpt><trkpt lat="44.5936366" lon="7.7616368"><ele>328.5</ele><time>2026-05-01T09:18:50.878Z</time></trkpt><trkpt lat="44.5933603" lon="7.7617234"><ele>328.0</ele><time>2026-05-01T09:18:51.878Z</time></trkpt><trkpt lat="44.5930857" lon="7.7618196"><ele>329.0</ele><time>2026-05-01T09:18:52.878Z</time></trkpt><trkpt lat="44.5928076" lon="7.7619169"><ele>330.0</ele><time>2026-05-01T09:18:53.879Z</time></trkpt><trkpt lat="44.5925274" lon="7.7620271"><ele>330.0</ele><time>2026-05-01T09:18:54.878Z</time></trkpt><trkpt lat="44.59225" lon="7.7621396"><ele>330.0</ele><time>2026-05-01T09:18:55.878Z</time></trkpt><trkpt lat="44.5919745" lon="7.7622547"><ele>329.0</ele><time>2026-05-01T09:18:56.878Z</time></trkpt><trkpt lat="44.5916946" lon="7.7623728"><ele>328.0</ele><time>2026-05-01T09:18:57.878Z</time></trkpt><trkpt lat="44.5914245" lon="7.7624984"><ele>328.0</ele><time>2026-05-01T09:18:58.878Z</time></trkpt><trkpt lat="44.5911555" lon="7.7626206"><ele>328.0</ele><time>2026-05-01T09:18:59.879Z</time></trkpt><trkpt lat="44.5908912" lon="7.7627456"><ele>328.0</ele><time>2026-05-01T09:19:00.878Z</time></trkpt><trkpt lat="44.590633" lon="7.7628806"><ele>328.0</ele><time>2026-05-01T09:19:01.878Z</time></trkpt><trkpt lat="44.5903711" lon="7.7630071"><ele>328.0</ele><time>2026-05-01T09:19:02.878Z</time></trkpt><trkpt lat="44.5901117" lon="7.7631509"><ele>328.0</ele><time>2026-05-01T09:19:03.878Z</time></trkpt><trkpt lat="44.5898599" lon="7.7632877"><ele>328.0</ele><time>2026-05-01T09:19:04.878Z</time></trkpt><trkpt lat="44.5895989" lon="7.7634298"><ele>328.0</ele><time>2026-05-01T09:19:05.878Z</time></trkpt><trkpt lat="44.5893487" lon="7.7635891"><ele>328.5</ele><time>2026-05-01T09:19:06.878Z</time></trkpt><trkpt lat="44.5891059" lon="7.7637265"><ele>329.0</ele><time>2026-05-01T09:19:07.878Z</time></trkpt><trkpt lat="44.5888496" lon="7.7638813"><ele>329.0</ele><time>2026-05-01T09:19:08.878Z</time></trkpt><trkpt lat="44.5885915" lon="7.764043"><ele>329.0</ele><time>2026-05-01T09:19:09.878Z</time></trkpt><trkpt lat="44.5883352" lon="7.7642089"><ele>328.0</ele><time>2026-05-01T09:19:10.879Z</time></trkpt><trkpt lat="44.5880775" lon="7.7643783"><ele>327.0</ele><time>2026-05-01T09:19:11.878Z</time></trkpt><trkpt lat="44.5878264" lon="7.7645431"><ele>323.0</ele><time>2026-05-01T09:19:12.878Z</time></trkpt><trkpt lat="44.5875707" lon="7.7647099"><ele>319.0</ele><time>2026-05-01T09:19:13.878Z</time></trkpt><trkpt lat="44.5873181" lon="7.7648901"><ele>319.0</ele><time>2026-05-01T09:19:14.878Z</time></trkpt><trkpt lat="44.5870633" lon="7.7650664"><ele>319.0</ele><time>2026-05-01T09:19:15.878Z</time></trkpt><trkpt lat="44.5868157" lon="7.7652396"><ele>311.5</ele><time>2026-05-01T09:19:16.878Z</time></trkpt><trkpt lat="44.5865649" lon="7.7654179"><ele>304.0</ele><time>2026-05-01T09:19:17.878Z</time></trkpt><trkpt lat="44.5863183" lon="7.7656031"><ele>302.0</ele><time>2026-05-01T09:19:18.878Z</time></trkpt><trkpt lat="44.5860579" lon="7.7657832"><ele>300.0</ele><time>2026-05-01T09:19:19.879Z</time></trkpt><trkpt lat="44.5858057" lon="7.765947"><ele>297.0</ele><time>2026-05-01T09:19:20.878Z</time></trkpt><trkpt lat="44.5855553" lon="7.7661153"><ele>294.0</ele><time>2026-05-01T09:19:21.878Z</time></trkpt><trkpt lat="44.5853035" lon="7.7662856"><ele>294.0</ele><time>2026-05-01T09:19:22.878Z</time></trkpt><trkpt lat="44.5850602" lon="7.7664496"><ele>294.0</ele><time>2026-05-01T09:19:23.879Z</time></trkpt><trkpt lat="44.584812" lon="7.7666189"><ele>294.0</ele><time>2026-05-01T09:19:24.878Z</time></trkpt><trkpt lat="44.5845653" lon="7.7667983"><ele>294.0</ele><time>2026-05-01T09:19:25.878Z</time></trkpt><trkpt lat="44.5843157" lon="7.7669746"><ele>291.5</ele><time>2026-05-01T09:19:26.878Z</time></trkpt><trkpt lat="44.5840659" lon="7.7671513"><ele>289.0</ele><time>2026-05-01T09:19:27.878Z</time></trkpt><trkpt lat="44.5838102" lon="7.7673189"><ele>288.5</ele><time>2026-05-01T09:19:28.878Z</time></trkpt><trkpt lat="44.5835581" lon="7.7674959"><ele>288.0</ele><time>2026-05-01T09:19:29.879Z</time></trkpt><trkpt lat="44.5833036" lon="7.7676722"><ele>288.5</ele><time>2026-05-01T09:19:30.878Z</time></trkpt><trkpt lat="44.5830473" lon="7.7678568"><ele>289.0</ele><time>2026-05-01T09:19:31.878Z</time></trkpt><trkpt lat="44.5827909" lon="7.768029"><ele>291.5</ele><time>2026-05-01T09:19:32.878Z</time></trkpt><trkpt lat="44.5825363" lon="7.7682028"><ele>294.0</ele><time>2026-05-01T09:19:33.878Z</time></trkpt><trkpt lat="44.5822722" lon="7.7683906"><ele>292.5</ele><time>2026-05-01T09:19:34.878Z</time></trkpt><trkpt lat="44.582022" lon="7.7685642"><ele>291.0</ele><time>2026-05-01T09:19:35.878Z</time></trkpt><trkpt lat="44.5817723" lon="7.7687519"><ele>289.0</ele><time>2026-05-01T09:19:36.878Z</time></trkpt><trkpt lat="44.5815233" lon="7.7689318"><ele>287.0</ele><time>2026-05-01T09:19:37.878Z</time></trkpt><trkpt lat="44.5812833" lon="7.7691184"><ele>285.5</ele><time>2026-05-01T09:19:38.878Z</time></trkpt><trkpt lat="44.5810459" lon="7.769289"><ele>284.0</ele><time>2026-05-01T09:19:39.878Z</time></trkpt><trkpt lat="44.5808029" lon="7.7694615"><ele>284.0</ele><time>2026-05-01T09:19:40.878Z</time></trkpt><trkpt lat="44.580571" lon="7.7696222"><ele>284.0</ele><time>2026-05-01T09:19:41.878Z</time></trkpt><trkpt lat="44.5803481" lon="7.769779"><ele>284.0</ele><time>2026-05-01T09:19:42.878Z</time></trkpt><trkpt lat="44.580126" lon="7.7699402"><ele>284.0</ele><time>2026-05-01T09:19:43.878Z</time></trkpt><trkpt lat="44.5799044" lon="7.7700961"><ele>279.5</ele><time>2026-05-01T09:19:44.878Z</time></trkpt><trkpt lat="44.5796861" lon="7.7702475"><ele>275.0</ele><time>2026-05-01T09:19:45.878Z</time></trkpt><trkpt lat="44.5794636" lon="7.7704061"><ele>274.5</ele><time>2026-05-01T09:19:46.878Z</time></trkpt><trkpt lat="44.5792422" lon="7.7705621"><ele>274.0</ele><time>2026-05-01T09:19:47.879Z</time></trkpt><trkpt lat="44.5790308" lon="7.770705"><ele>274.0</ele><time>2026-05-01T09:19:48.878Z</time></trkpt><trkpt lat="44.5788089" lon="7.7708575"><ele>274.0</ele><time>2026-05-01T09:19:49.878Z</time></trkpt><trkpt lat="44.5785841" lon="7.7710142"><ele>271.5</ele><time>2026-05-01T09:19:50.878Z</time></trkpt><trkpt lat="44.5783567" lon="7.7711683"><ele>269.0</ele><time>2026-05-01T09:19:51.878Z</time></trkpt><trkpt lat="44.5781277" lon="7.7713303"><ele>269.0</ele><time>2026-05-01T09:19:52.878Z</time></trkpt><trkpt lat="44.5778976" lon="7.7714843"><ele>269.0</ele><time>2026-05-01T09:19:53.878Z</time></trkpt><trkpt lat="44.5776671" lon="7.771641"><ele>269.5</ele><time>2026-05-01T09:19:54.878Z</time></trkpt><trkpt lat="44.57744" lon="7.7717992"><ele>270.0</ele><time>2026-05-01T09:19:55.878Z</time></trkpt><trkpt lat="44.5772119" lon="7.771952"><ele>270.0</ele><time>2026-05-01T09:19:56.878Z</time></trkpt><trkpt lat="44.5769821" lon="7.7721102"><ele>270.0</ele><time>2026-05-01T09:19:57.878Z</time></trkpt><trkpt lat="44.5767505" lon="7.7722743"><ele>270.0</ele><time>2026-05-01T09:19:58.878Z</time></trkpt><trkpt lat="44.5765245" lon="7.772432"><ele>270.0</ele><time>2026-05-01T09:19:59.878Z</time></trkpt><trkpt lat="44.5762925" lon="7.7725926"><ele>268.5</ele><time>2026-05-01T09:20:00.878Z</time></trkpt><trkpt lat="44.5760603" lon="7.7727493"><ele>267.0</ele><time>2026-05-01T09:20:01.878Z</time></trkpt><trkpt lat="44.575832" lon="7.7729049"><ele>267.0</ele><time>2026-05-01T09:20:02.878Z</time></trkpt><trkpt lat="44.5756153" lon="7.7730536"><ele>267.0</ele><time>2026-05-01T09:20:03.878Z</time></trkpt><trkpt lat="44.5754076" lon="7.7731947"><ele>268.3333333333333</ele><time>2026-05-01T09:20:04.878Z</time></trkpt><trkpt lat="44.5752034" lon="7.7733316"><ele>269.66666666666663</ele><time>2026-05-01T09:20:05.878Z</time></trkpt><trkpt lat="44.5750126" lon="7.7734593"><ele>271.0</ele><time>2026-05-01T09:20:06.878Z</time></trkpt><trkpt lat="44.5748192" lon="7.7736005"><ele>271.0</ele><time>2026-05-01T09:20:07.878Z</time></trkpt><trkpt lat="44.5746324" lon="7.7737364"><ele>271.0</ele><time>2026-05-01T09:20:08.878Z</time></trkpt><trkpt lat="44.5744409" lon="7.7738679"><ele>271.0</ele><time>2026-05-01T09:20:09.878Z</time></trkpt><trkpt lat="44.5742453" lon="7.773998"><ele>273.3333333333333</ele><time>2026-05-01T09:20:10.878Z</time></trkpt><trkpt lat="44.574051" lon="7.7741359"><ele>275.6666666666667</ele><time>2026-05-01T09:20:11.878Z</time></trkpt><trkpt lat="44.5738527" lon="7.7742735"><ele>278.0</ele><time>2026-05-01T09:20:12.878Z</time></trkpt><trkpt lat="44.5736559" lon="7.7744123"><ele>281.5</ele><time>2026-05-01T09:20:13.878Z</time></trkpt><trkpt lat="44.5734504" lon="7.7745521"><ele>285.0</ele><time>2026-05-01T09:20:14.878Z</time></trkpt><trkpt lat="44.5732475" lon="7.7746955"><ele>285.0</ele><time>2026-05-01T09:20:15.878Z</time></trkpt><trkpt lat="44.5730336" lon="7.7748393"><ele>285.0</ele><time>2026-05-01T09:20:16.878Z</time></trkpt><trkpt lat="44.5728264" lon="7.7749834"><ele>288.5</ele><time>2026-05-01T09:20:17.878Z</time></trkpt><trkpt lat="44.57262" lon="7.7751262"><ele>292.0</ele><time>2026-05-01T09:20:18.878Z</time></trkpt><trkpt lat="44.5724105" lon="7.7752684"><ele>292.0</ele><time>2026-05-01T09:20:19.878Z</time></trkpt><trkpt lat="44.572202" lon="7.7754122"><ele>292.0</ele><time>2026-05-01T09:20:20.879Z</time></trkpt><trkpt lat="44.5719947" lon="7.7755509"><ele>299.0</ele><time>2026-05-01T09:20:21.878Z</time></trkpt><trkpt lat="44.5717857" lon="7.7756952"><ele>306.0</ele><time>2026-05-01T09:20:22.878Z</time></trkpt><trkpt lat="44.57157" lon="7.7758386"><ele>306.0</ele><time>2026-05-01T09:20:23.878Z</time></trkpt><trkpt lat="44.5713528" lon="7.7759835"><ele>306.0</ele><time>2026-05-01T09:20:24.878Z</time></trkpt><trkpt lat="44.5711406" lon="7.776132"><ele>315.5</ele><time>2026-05-01T09:20:25.878Z</time></trkpt><trkpt lat="44.5709319" lon="7.7762781"><ele>325.0</ele><time>2026-05-01T09:20:26.878Z</time></trkpt><trkpt lat="44.570721" lon="7.7764175"><ele>325.0</ele><time>2026-05-01T09:20:27.878Z</time></trkpt><trkpt lat="44.5705147" lon="7.7765633"><ele>325.0</ele><time>2026-05-01T09:20:28.878Z</time></trkpt><trkpt lat="44.5703109" lon="7.776708"><ele>331.0</ele><time>2026-05-01T09:20:29.878Z</time></trkpt><trkpt lat="44.5701051" lon="7.7768526"><ele>337.0</ele><time>2026-05-01T09:20:30.878Z</time></trkpt><trkpt lat="44.5699012" lon="7.7769974"><ele>339.3333333333333</ele><time>2026-05-01T09:20:31.878Z</time></trkpt><trkpt lat="44.569704" lon="7.7771338"><ele>341.6666666666667</ele><time>2026-05-01T09:20:32.878Z</time></trkpt><trkpt lat="44.5694987" lon="7.7772732"><ele>344.0</ele><time>2026-05-01T09:20:33.878Z</time></trkpt><trkpt lat="44.5692926" lon="7.7774165"><ele>347.0</ele><time>2026-05-01T09:20:34.878Z</time></trkpt><trkpt lat="44.5690897" lon="7.7775612"><ele>350.0</ele><time>2026-05-01T09:20:35.878Z</time></trkpt><trkpt lat="44.568887" lon="7.7777013"><ele>357.0</ele><time>2026-05-01T09:20:36.878Z</time></trkpt><trkpt lat="44.5686859" lon="7.7778368"><ele>364.0</ele><time>2026-05-01T09:20:37.878Z</time></trkpt><trkpt lat="44.5684747" lon="7.777983"><ele>364.0</ele><time>2026-05-01T09:20:38.878Z</time></trkpt><trkpt lat="44.5682564" lon="7.7781215"><ele>364.0</ele><time>2026-05-01T09:20:39.878Z</time></trkpt><trkpt lat="44.5680422" lon="7.7782691"><ele>363.5</ele><time>2026-05-01T09:20:40.878Z</time></trkpt><trkpt lat="44.5678226" lon="7.7784179"><ele>363.0</ele><time>2026-05-01T09:20:41.878Z</time></trkpt><trkpt lat="44.5676046" lon="7.7785677"><ele>363.0</ele><time>2026-05-01T09:20:42.878Z</time></trkpt><trkpt lat="44.5673806" lon="7.778724"><ele>363.0</ele><time>2026-05-01T09:20:43.878Z</time></trkpt><trkpt lat="44.5671598" lon="7.7788768"><ele>365.5</ele><time>2026-05-01T09:20:44.878Z</time></trkpt><trkpt lat="44.5669461" lon="7.7790185"><ele>368.0</ele><time>2026-05-01T09:20:45.879Z</time></trkpt><trkpt lat="44.5667432" lon="7.7791602"><ele>368.0</ele><time>2026-05-01T09:20:46.878Z</time></trkpt><trkpt lat="44.566544" lon="7.7793076"><ele>368.0</ele><time>2026-05-01T09:20:47.878Z</time></trkpt><trkpt lat="44.5663485" lon="7.7794449"><ele>368.0</ele><time>2026-05-01T09:20:48.878Z</time></trkpt><trkpt lat="44.5661546" lon="7.7795799"><ele>369.0</ele><time>2026-05-01T09:20:49.878Z</time></trkpt><trkpt lat="44.5659603" lon="7.7797103"><ele>370.0</ele><time>2026-05-01T09:20:50.878Z</time></trkpt><trkpt lat="44.5657677" lon="7.7798441"><ele>371.0</ele><time>2026-05-01T09:20:51.878Z</time></trkpt><trkpt lat="44.5655742" lon="7.7799792"><ele>371.0</ele><time>2026-05-01T09:20:52.878Z</time></trkpt><trkpt lat="44.5653835" lon="7.7801212"><ele>371.0</ele><time>2026-05-01T09:20:53.878Z</time></trkpt><trkpt lat="44.5651913" lon="7.7802514"><ele>371.0</ele><time>2026-05-01T09:20:54.878Z</time></trkpt><trkpt lat="44.5650032" lon="7.780383"><ele>375.33333333333337</ele><time>2026-05-01T09:20:55.878Z</time></trkpt><trkpt lat="44.5648131" lon="7.7805116"><ele>379.6666666666667</ele><time>2026-05-01T09:20:56.878Z</time></trkpt><trkpt lat="44.5646281" lon="7.7806387"><ele>384.0</ele><time>2026-05-01T09:20:57.878Z</time></trkpt><trkpt lat="44.5644268" lon="7.7807738"><ele>385.5</ele><time>2026-05-01T09:20:58.878Z</time></trkpt><trkpt lat="44.5642215" lon="7.7809063"><ele>387.0</ele><time>2026-05-01T09:20:59.878Z</time></trkpt><trkpt lat="44.5640082" lon="7.781047"><ele>388.0</ele><time>2026-05-01T09:21:00.879Z</time></trkpt><trkpt lat="44.5637931" lon="7.781187"><ele>389.0</ele><time>2026-05-01T09:21:01.878Z</time></trkpt><trkpt lat="44.563579" lon="7.7813201"><ele>389.0</ele><time>2026-05-01T09:21:02.878Z</time></trkpt><trkpt lat="44.563361" lon="7.7814437"><ele>389.0</ele><time>2026-05-01T09:21:03.878Z</time></trkpt><trkpt lat="44.5631393" lon="7.7815624"><ele>389.0</ele><time>2026-05-01T09:21:04.879Z</time></trkpt><trkpt lat="44.5629128" lon="7.7816858"><ele>389.0</ele><time>2026-05-01T09:21:05.878Z</time></trkpt><trkpt lat="44.5626865" lon="7.7818048"><ele>390.0</ele><time>2026-05-01T09:21:06.878Z</time></trkpt><trkpt lat="44.5624607" lon="7.7819199"><ele>391.0</ele><time>2026-05-01T09:21:07.878Z</time></trkpt><trkpt lat="44.5622413" lon="7.7820231"><ele>391.0</ele><time>2026-05-01T09:21:08.878Z</time></trkpt><trkpt lat="44.5620165" lon="7.7821338"><ele>391.0</ele><time>2026-05-01T09:21:09.878Z</time></trkpt><trkpt lat="44.5617897" lon="7.782242"><ele>391.0</ele><time>2026-05-01T09:21:10.878Z</time></trkpt><trkpt lat="44.5615584" lon="7.7823451"><ele>391.0</ele><time>2026-05-01T09:21:11.878Z</time></trkpt><trkpt lat="44.5613137" lon="7.7824368"><ele>391.0</ele><time>2026-05-01T09:21:12.878Z</time></trkpt><trkpt lat="44.5610683" lon="7.7825433"><ele>391.0</ele><time>2026-05-01T09:21:13.878Z</time></trkpt><trkpt lat="44.5608167" lon="7.7826378"><ele>391.0</ele><time>2026-05-01T09:21:14.878Z</time></trkpt><trkpt lat="44.5605588" lon="7.7827375"><ele>391.0</ele><time>2026-05-01T09:21:15.878Z</time></trkpt><trkpt lat="44.5603058" lon="7.7828287"><ele>392.0</ele><time>2026-05-01T09:21:16.878Z</time></trkpt><trkpt lat="44.5600514" lon="7.7829045"><ele>393.0</ele><time>2026-05-01T09:21:17.878Z</time></trkpt><trkpt lat="44.559786" lon="7.7829706"><ele>394.0</ele><time>2026-05-01T09:21:18.878Z</time></trkpt><trkpt lat="44.5595128" lon="7.7830425"><ele>395.0</ele><time>2026-05-01T09:21:19.878Z</time></trkpt><trkpt lat="44.5592395" lon="7.7831101"><ele>395.0</ele><time>2026-05-01T09:21:20.878Z</time></trkpt><trkpt lat="44.5589655" lon="7.783171"><ele>395.0</ele><time>2026-05-01T09:21:21.878Z</time></trkpt><trkpt lat="44.558686" lon="7.7832402"><ele>395.5</ele><time>2026-05-01T09:21:22.878Z</time></trkpt><trkpt lat="44.5584123" lon="7.7832869"><ele>396.0</ele><time>2026-05-01T09:21:23.878Z</time></trkpt><trkpt lat="44.5581352" lon="7.7833438"><ele>395.5</ele><time>2026-05-01T09:21:24.878Z</time></trkpt><trkpt lat="44.557858" lon="7.7834018"><ele>395.0</ele><time>2026-05-01T09:21:25.878Z</time></trkpt><trkpt lat="44.5575831" lon="7.7834533"><ele>395.0</ele><time>2026-05-01T09:21:26.878Z</time></trkpt><trkpt lat="44.5573092" lon="7.7835032"><ele>395.0</ele><time>2026-05-01T09:21:27.878Z</time></trkpt><trkpt lat="44.5570339" lon="7.7835694"><ele>395.5</ele><time>2026-05-01T09:21:28.878Z</time></trkpt><trkpt lat="44.5567601" lon="7.7836411"><ele>396.0</ele><time>2026-05-01T09:21:29.878Z</time></trkpt><trkpt lat="44.556482" lon="7.783701"><ele>396.0</ele><time>2026-05-01T09:21:30.878Z</time></trkpt><trkpt lat="44.5562118" lon="7.7837668"><ele>396.0</ele><time>2026-05-01T09:21:31.878Z</time></trkpt><trkpt lat="44.5559419" lon="7.7838291"><ele>396.0</ele><time>2026-05-01T09:21:32.878Z</time></trkpt><trkpt lat="44.555684" lon="7.783885"><ele>396.0</ele><time>2026-05-01T09:21:33.878Z</time></trkpt><trkpt lat="44.5554355" lon="7.7839347"><ele>396.5</ele><time>2026-05-01T09:21:34.878Z</time></trkpt><trkpt lat="44.5551881" lon="7.7839733"><ele>397.0</ele><time>2026-05-01T09:21:35.879Z</time></trkpt><trkpt lat="44.5549333" lon="7.7840001"><ele>397.0</ele><time>2026-05-01T09:21:36.878Z</time></trkpt><trkpt lat="44.5546812" lon="7.7840583"><ele>397.0</ele><time>2026-05-01T09:21:37.878Z</time></trkpt><trkpt lat="44.5544307" lon="7.7841054"><ele>396.0</ele><time>2026-05-01T09:21:38.878Z</time></trkpt><trkpt lat="44.5541795" lon="7.7841546"><ele>395.0</ele><time>2026-05-01T09:21:39.878Z</time></trkpt><trkpt lat="44.553927" lon="7.7842089"><ele>394.0</ele><time>2026-05-01T09:21:40.878Z</time></trkpt><trkpt lat="44.5536747" lon="7.7842498"><ele>393.0</ele><time>2026-05-01T09:21:41.878Z</time></trkpt><trkpt lat="44.5534263" lon="7.784301"><ele>392.5</ele><time>2026-05-01T09:21:42.879Z</time></trkpt><trkpt lat="44.5531829" lon="7.7843539"><ele>392.0</ele><time>2026-05-01T09:21:43.878Z</time></trkpt><trkpt lat="44.5529341" lon="7.7844022"><ele>392.5</ele><time>2026-05-01T09:21:44.878Z</time></trkpt><trkpt lat="44.5526804" lon="7.7844525"><ele>393.0</ele><time>2026-05-01T09:21:45.878Z</time></trkpt><trkpt lat="44.5524357" lon="7.7844917"><ele>393.0</ele><time>2026-05-01T09:21:46.878Z</time></trkpt><trkpt lat="44.5521877" lon="7.7845362"><ele>393.0</ele><time>2026-05-01T09:21:47.878Z</time></trkpt><trkpt lat="44.5519414" lon="7.7845706"><ele>394.0</ele><time>2026-05-01T09:21:48.878Z</time></trkpt><trkpt lat="44.5516777" lon="7.78463"><ele>395.0</ele><time>2026-05-01T09:21:49.878Z</time></trkpt><trkpt lat="44.5514169" lon="7.7846877"><ele>395.0</ele><time>2026-05-01T09:21:50.878Z</time></trkpt><trkpt lat="44.5511633" lon="7.7847262"><ele>395.0</ele><time>2026-05-01T09:21:51.878Z</time></trkpt><trkpt lat="44.5509024" lon="7.7847826"><ele>395.0</ele><time>2026-05-01T09:21:52.878Z</time></trkpt><trkpt lat="44.5506504" lon="7.7848229"><ele>395.0</ele><time>2026-05-01T09:21:53.878Z</time></trkpt><trkpt lat="44.5503895" lon="7.784882"><ele>396.0</ele><time>2026-05-01T09:21:54.878Z</time></trkpt><trkpt lat="44.5501228" lon="7.7849363"><ele>397.0</ele><time>2026-05-01T09:21:55.878Z</time></trkpt><trkpt lat="44.5498571" lon="7.7849824"><ele>397.0</ele><time>2026-05-01T09:21:56.878Z</time></trkpt><trkpt lat="44.5495967" lon="7.7850399"><ele>397.0</ele><time>2026-05-01T09:21:57.878Z</time></trkpt><trkpt lat="44.5493311" lon="7.7850975"><ele>398.0</ele><time>2026-05-01T09:21:58.878Z</time></trkpt><trkpt lat="44.5490653" lon="7.7851486"><ele>399.0</ele><time>2026-05-01T09:21:59.878Z</time></trkpt><trkpt lat="44.5487974" lon="7.7852061"><ele>399.0</ele><time>2026-05-01T09:22:00.878Z</time></trkpt><trkpt lat="44.5485285" lon="7.785256"><ele>399.0</ele><time>2026-05-01T09:22:01.878Z</time></trkpt><trkpt lat="44.5482565" lon="7.785309"><ele>399.0</ele><time>2026-05-01T09:22:02.878Z</time></trkpt><trkpt lat="44.5479779" lon="7.7853664"><ele>399.0</ele><time>2026-05-01T09:22:03.878Z</time></trkpt><trkpt lat="44.5477016" lon="7.7854197"><ele>399.5</ele><time>2026-05-01T09:22:04.878Z</time></trkpt><trkpt lat="44.5474175" lon="7.7854777"><ele>400.0</ele><time>2026-05-01T09:22:05.878Z</time></trkpt><trkpt lat="44.5471355" lon="7.7855317"><ele>400.5</ele><time>2026-05-01T09:22:06.878Z</time></trkpt><trkpt lat="44.5468466" lon="7.7855841"><ele>401.0</ele><time>2026-05-01T09:22:07.878Z</time></trkpt><trkpt lat="44.5465589" lon="7.7856371"><ele>401.0</ele><time>2026-05-01T09:22:08.878Z</time></trkpt><trkpt lat="44.5462678" lon="7.7856944"><ele>401.0</ele><time>2026-05-01T09:22:09.878Z</time></trkpt><trkpt lat="44.5459783" lon="7.7857433"><ele>400.0</ele><time>2026-05-01T09:22:10.879Z</time></trkpt><trkpt lat="44.5456861" lon="7.7858037"><ele>399.0</ele><time>2026-05-01T09:22:11.878Z</time></trkpt><trkpt lat="44.5454019" lon="7.7858618"><ele>398.5</ele><time>2026-05-01T09:22:12.878Z</time></trkpt><trkpt lat="44.545114" lon="7.7859184"><ele>398.0</ele><time>2026-05-01T09:22:13.878Z</time></trkpt><trkpt lat="44.5448277" lon="7.7859811"><ele>399.0</ele><time>2026-05-01T09:22:14.878Z</time></trkpt><trkpt lat="44.5445363" lon="7.786039"><ele>400.0</ele><time>2026-05-01T09:22:15.878Z</time></trkpt><trkpt lat="44.5442485" lon="7.7861037"><ele>400.0</ele><time>2026-05-01T09:22:16.879Z</time></trkpt><trkpt lat="44.543963" lon="7.7861635"><ele>400.0</ele><time>2026-05-01T09:22:17.878Z</time></trkpt><trkpt lat="44.5436827" lon="7.7862304"><ele>400.0</ele><time>2026-05-01T09:22:18.878Z</time></trkpt><trkpt lat="44.5434038" lon="7.7863014"><ele>400.0</ele><time>2026-05-01T09:22:19.878Z</time></trkpt><trkpt lat="44.5431253" lon="7.7863755"><ele>400.5</ele><time>2026-05-01T09:22:20.878Z</time></trkpt><trkpt lat="44.5428555" lon="7.7864479"><ele>401.0</ele><time>2026-05-01T09:22:21.878Z</time></trkpt><trkpt lat="44.5425771" lon="7.7865088"><ele>401.0</ele><time>2026-05-01T09:22:22.878Z</time></trkpt><trkpt lat="44.5423188" lon="7.7865893"><ele>401.0</ele><time>2026-05-01T09:22:23.878Z</time></trkpt><trkpt lat="44.5420478" lon="7.7866745"><ele>401.0</ele><time>2026-05-01T09:22:24.878Z</time></trkpt><trkpt lat="44.5417791" lon="7.7867634"><ele>401.0</ele><time>2026-05-01T09:22:25.878Z</time></trkpt><trkpt lat="44.5415194" lon="7.7868408"><ele>401.0</ele><time>2026-05-01T09:22:26.878Z</time></trkpt><trkpt lat="44.5412476" lon="7.7869349"><ele>401.0</ele><time>2026-05-01T09:22:27.878Z</time></trkpt><trkpt lat="44.5409792" lon="7.787039"><ele>400.5</ele><time>2026-05-01T09:22:28.878Z</time></trkpt><trkpt lat="44.5407116" lon="7.7871433"><ele>400.0</ele><time>2026-05-01T09:22:29.878Z</time></trkpt><trkpt lat="44.5404477" lon="7.7872476"><ele>401.0</ele><time>2026-05-01T09:22:30.878Z</time></trkpt><trkpt lat="44.5401847" lon="7.7873497"><ele>402.0</ele><time>2026-05-01T09:22:31.878Z</time></trkpt><trkpt lat="44.5399241" lon="7.7874592"><ele>402.0</ele><time>2026-05-01T09:22:32.878Z</time></trkpt><trkpt lat="44.5396705" lon="7.7875657"><ele>402.0</ele><time>2026-05-01T09:22:33.878Z</time></trkpt><trkpt lat="44.5394184" lon="7.7876674"><ele>403.0</ele><time>2026-05-01T09:22:34.878Z</time></trkpt><trkpt lat="44.5391622" lon="7.787779"><ele>404.0</ele><time>2026-05-01T09:22:35.878Z</time></trkpt><trkpt lat="44.5389122" lon="7.7878913"><ele>403.0</ele><time>2026-05-01T09:22:36.879Z</time></trkpt><trkpt lat="44.5386678" lon="7.7880019"><ele>402.0</ele><time>2026-05-01T09:22:37.878Z</time></trkpt><trkpt lat="44.5384273" lon="7.7881117"><ele>402.0</ele><time>2026-05-01T09:22:38.878Z</time></trkpt><trkpt lat="44.5381781" lon="7.7882307"><ele>402.0</ele><time>2026-05-01T09:22:39.878Z</time></trkpt><trkpt lat="44.5379216" lon="7.7883491"><ele>402.0</ele><time>2026-05-01T09:22:40.878Z</time></trkpt><trkpt lat="44.53769" lon="7.7884717"><ele>402.0</ele><time>2026-05-01T09:22:41.878Z</time></trkpt><trkpt lat="44.5374509" lon="7.7885909"><ele>401.5</ele><time>2026-05-01T09:22:42.879Z</time></trkpt><trkpt lat="44.5372095" lon="7.7887186"><ele>401.0</ele><time>2026-05-01T09:22:43.878Z</time></trkpt><trkpt lat="44.5369675" lon="7.7888516"><ele>401.0</ele><time>2026-05-01T09:22:44.879Z</time></trkpt><trkpt lat="44.5367245" lon="7.7889841"><ele>401.0</ele><time>2026-05-01T09:22:45.878Z</time></trkpt><trkpt lat="44.5364795" lon="7.7891166"><ele>401.0</ele><time>2026-05-01T09:22:46.879Z</time></trkpt><trkpt lat="44.5362393" lon="7.7892557"><ele>401.0</ele><time>2026-05-01T09:22:47.878Z</time></trkpt><trkpt lat="44.5360048" lon="7.7893966"><ele>401.5</ele><time>2026-05-01T09:22:48.878Z</time></trkpt><trkpt lat="44.5357717" lon="7.7895359"><ele>402.0</ele><time>2026-05-01T09:22:49.878Z</time></trkpt><trkpt lat="44.5355271" lon="7.7896773"><ele>401.5</ele><time>2026-05-01T09:22:50.878Z</time></trkpt><trkpt lat="44.5352794" lon="7.7898156"><ele>401.0</ele><time>2026-05-01T09:22:51.879Z</time></trkpt><trkpt lat="44.5350314" lon="7.7899591"><ele>401.0</ele><time>2026-05-01T09:22:52.878Z</time></trkpt><trkpt lat="44.5347864" lon="7.7901032"><ele>401.0</ele><time>2026-05-01T09:22:53.878Z</time></trkpt><trkpt lat="44.534533" lon="7.7902455"><ele>401.5</ele><time>2026-05-01T09:22:54.878Z</time></trkpt><trkpt lat="44.5342818" lon="7.7903922"><ele>402.0</ele><time>2026-05-01T09:22:55.878Z</time></trkpt><trkpt lat="44.5340262" lon="7.790539"><ele>402.0</ele><time>2026-05-01T09:22:56.878Z</time></trkpt><trkpt lat="44.533767" lon="7.7906873"><ele>402.0</ele><time>2026-05-01T09:22:57.878Z</time></trkpt><trkpt lat="44.5335059" lon="7.7908238"><ele>403.0</ele><time>2026-05-01T09:22:58.878Z</time></trkpt><trkpt lat="44.5332465" lon="7.7909757"><ele>404.0</ele><time>2026-05-01T09:22:59.878Z</time></trkpt><trkpt lat="44.5329828" lon="7.7911255"><ele>403.5</ele><time>2026-05-01T09:23:00.878Z</time></trkpt><trkpt lat="44.5327187" lon="7.7912852"><ele>403.0</ele><time>2026-05-01T09:23:01.878Z</time></trkpt><trkpt lat="44.5324618" lon="7.7914226"><ele>403.0</ele><time>2026-05-01T09:23:02.878Z</time></trkpt><trkpt lat="44.5322073" lon="7.7915691"><ele>403.0</ele><time>2026-05-01T09:23:03.878Z</time></trkpt><trkpt lat="44.5319647" lon="7.7917037"><ele>402.0</ele><time>2026-05-01T09:23:04.878Z</time></trkpt><trkpt lat="44.5317195" lon="7.7918429"><ele>401.0</ele><time>2026-05-01T09:23:05.879Z</time></trkpt><trkpt lat="44.5314684" lon="7.7919913"><ele>394.0</ele><time>2026-05-01T09:23:06.878Z</time></trkpt><trkpt lat="44.5312168" lon="7.7921318"><ele>387.0</ele><time>2026-05-01T09:23:07.879Z</time></trkpt><trkpt lat="44.5309648" lon="7.7922794"><ele>387.0</ele><time>2026-05-01T09:23:08.878Z</time></trkpt><trkpt lat="44.5307207" lon="7.7924179"><ele>387.0</ele><time>2026-05-01T09:23:09.878Z</time></trkpt><trkpt lat="44.530473" lon="7.7925564"><ele>376.0</ele><time>2026-05-01T09:23:10.878Z</time></trkpt><trkpt lat="44.5302319" lon="7.7927"><ele>365.0</ele><time>2026-05-01T09:23:11.878Z</time></trkpt><trkpt lat="44.5299918" lon="7.7928496"><ele>365.0</ele><time>2026-05-01T09:23:12.878Z</time></trkpt><trkpt lat="44.5297505" lon="7.7929899"><ele>365.0</ele><time>2026-05-01T09:23:13.878Z</time></trkpt><trkpt lat="44.5295044" lon="7.7931333"><ele>364.5</ele><time>2026-05-01T09:23:14.878Z</time></trkpt><trkpt lat="44.5292601" lon="7.7932742"><ele>364.0</ele><time>2026-05-01T09:23:15.878Z</time></trkpt><trkpt lat="44.5290168" lon="7.7934143"><ele>362.5</ele><time>2026-05-01T09:23:16.879Z</time></trkpt><trkpt lat="44.5287707" lon="7.7935492"><ele>361.0</ele><time>2026-05-01T09:23:17.878Z</time></trkpt><trkpt lat="44.5285241" lon="7.7936758"><ele>361.0</ele><time>2026-05-01T09:23:18.878Z</time></trkpt><trkpt lat="44.5282782" lon="7.7938074"><ele>361.0</ele><time>2026-05-01T09:23:19.878Z</time></trkpt><trkpt lat="44.5280328" lon="7.7939361"><ele>361.5</ele><time>2026-05-01T09:23:20.878Z</time></trkpt><trkpt lat="44.5277884" lon="7.7940749"><ele>362.0</ele><time>2026-05-01T09:23:21.878Z</time></trkpt><trkpt lat="44.5275585" lon="7.7942097"><ele>362.5</ele><time>2026-05-01T09:23:22.878Z</time></trkpt><trkpt lat="44.5273225" lon="7.7943488"><ele>363.0</ele><time>2026-05-01T09:23:23.878Z</time></trkpt><trkpt lat="44.5270941" lon="7.7944937"><ele>362.5</ele><time>2026-05-01T09:23:24.878Z</time></trkpt><trkpt lat="44.5268672" lon="7.7946355"><ele>362.0</ele><time>2026-05-01T09:23:25.878Z</time></trkpt><trkpt lat="44.5266345" lon="7.7947683"><ele>362.0</ele><time>2026-05-01T09:23:26.878Z</time></trkpt><trkpt lat="44.5264063" lon="7.7949171"><ele>362.0</ele><time>2026-05-01T09:23:27.878Z</time></trkpt><trkpt lat="44.5261733" lon="7.7950594"><ele>361.5</ele><time>2026-05-01T09:23:28.878Z</time></trkpt><trkpt lat="44.5259306" lon="7.7951927"><ele>361.0</ele><time>2026-05-01T09:23:29.878Z</time></trkpt><trkpt lat="44.5256867" lon="7.7953347"><ele>361.0</ele><time>2026-05-01T09:23:30.878Z</time></trkpt><trkpt lat="44.5254387" lon="7.7954811"><ele>361.0</ele><time>2026-05-01T09:23:31.878Z</time></trkpt><trkpt lat="44.5251971" lon="7.7956188"><ele>363.0</ele><time>2026-05-01T09:23:32.878Z</time></trkpt><trkpt lat="44.5249496" lon="7.7957611"><ele>365.0</ele><time>2026-05-01T09:23:33.878Z</time></trkpt><trkpt lat="44.524702" lon="7.7959035"><ele>364.0</ele><time>2026-05-01T09:23:34.878Z</time></trkpt><trkpt lat="44.524448" lon="7.7960496"><ele>363.0</ele><time>2026-05-01T09:23:35.878Z</time></trkpt><trkpt lat="44.5241903" lon="7.7961973"><ele>363.0</ele><time>2026-05-01T09:23:36.878Z</time></trkpt><trkpt lat="44.5239368" lon="7.7963627"><ele>363.0</ele><time>2026-05-01T09:23:37.878Z</time></trkpt><trkpt lat="44.5236846" lon="7.7965001"><ele>363.5</ele><time>2026-05-01T09:23:38.878Z</time></trkpt><trkpt lat="44.5234345" lon="7.7966385"><ele>364.0</ele><time>2026-05-01T09:23:39.878Z</time></trkpt><trkpt lat="44.5231771" lon="7.7967705"><ele>363.5</ele><time>2026-05-01T09:23:40.879Z</time></trkpt><trkpt lat="44.5229164" lon="7.7969184"><ele>363.0</ele><time>2026-05-01T09:23:41.878Z</time></trkpt><trkpt lat="44.5226594" lon="7.7970724"><ele>363.0</ele><time>2026-05-01T09:23:42.878Z</time></trkpt><trkpt lat="44.5223974" lon="7.7972178"><ele>363.0</ele><time>2026-05-01T09:23:43.879Z</time></trkpt><trkpt lat="44.5221357" lon="7.7973719"><ele>363.0</ele><time>2026-05-01T09:23:44.878Z</time></trkpt><trkpt lat="44.5218793" lon="7.7975077"><ele>363.0</ele><time>2026-05-01T09:23:45.878Z</time></trkpt><trkpt lat="44.5216199" lon="7.7976501"><ele>362.5</ele><time>2026-05-01T09:23:46.878Z</time></trkpt><trkpt lat="44.5213702" lon="7.7978059"><ele>362.0</ele><time>2026-05-01T09:23:47.878Z</time></trkpt><trkpt lat="44.5211169" lon="7.7979569"><ele>362.0</ele><time>2026-05-01T09:23:48.878Z</time></trkpt><trkpt lat="44.5208662" lon="7.798113"><ele>362.0</ele><time>2026-05-01T09:23:49.878Z</time></trkpt><trkpt lat="44.5206143" lon="7.7982618"><ele>362.0</ele><time>2026-05-01T09:23:50.878Z</time></trkpt><trkpt lat="44.5203635" lon="7.798397"><ele>362.0</ele><time>2026-05-01T09:23:51.878Z</time></trkpt><trkpt lat="44.5201044" lon="7.7985466"><ele>361.0</ele><time>2026-05-01T09:23:52.878Z</time></trkpt><trkpt lat="44.5198456" lon="7.7986836"><ele>360.0</ele><time>2026-05-01T09:23:53.878Z</time></trkpt><trkpt lat="44.5195821" lon="7.7988385"><ele>361.0</ele><time>2026-05-01T09:23:54.878Z</time></trkpt><trkpt lat="44.5193195" lon="7.7989892"><ele>362.0</ele><time>2026-05-01T09:23:55.878Z</time></trkpt><trkpt lat="44.5190549" lon="7.7991449"><ele>362.0</ele><time>2026-05-01T09:23:56.878Z</time></trkpt><trkpt lat="44.5187935" lon="7.7992916"><ele>362.0</ele><time>2026-05-01T09:23:57.878Z</time></trkpt><trkpt lat="44.518527" lon="7.7994464"><ele>363.0</ele><time>2026-05-01T09:23:58.878Z</time></trkpt><trkpt lat="44.5182564" lon="7.7996041"><ele>364.0</ele><time>2026-05-01T09:23:59.878Z</time></trkpt><trkpt lat="44.5179911" lon="7.7997576"><ele>364.5</ele><time>2026-05-01T09:24:00.878Z</time></trkpt><trkpt lat="44.5177208" lon="7.7999001"><ele>365.0</ele><time>2026-05-01T09:24:01.878Z</time></trkpt><trkpt lat="44.5174528" lon="7.8000515"><ele>364.5</ele><time>2026-05-01T09:24:02.878Z</time></trkpt><trkpt lat="44.5171812" lon="7.8002157"><ele>364.0</ele><time>2026-05-01T09:24:03.878Z</time></trkpt><trkpt lat="44.5169138" lon="7.8003803"><ele>364.0</ele><time>2026-05-01T09:24:04.878Z</time></trkpt><trkpt lat="44.51664" lon="7.8005398"><ele>364.0</ele><time>2026-05-01T09:24:05.879Z</time></trkpt><trkpt lat="44.5163688" lon="7.8007016"><ele>363.0</ele><time>2026-05-01T09:24:06.878Z</time></trkpt><trkpt lat="44.5160952" lon="7.8008524"><ele>362.0</ele><time>2026-05-01T09:24:07.878Z</time></trkpt><trkpt lat="44.5158301" lon="7.8010038"><ele>362.0</ele><time>2026-05-01T09:24:08.878Z</time></trkpt><trkpt lat="44.5155553" lon="7.8011578"><ele>362.0</ele><time>2026-05-01T09:24:09.878Z</time></trkpt><trkpt lat="44.5152898" lon="7.8013157"><ele>362.0</ele><time>2026-05-01T09:24:10.879Z</time></trkpt><trkpt lat="44.5150203" lon="7.8014681"><ele>362.0</ele><time>2026-05-01T09:24:11.878Z</time></trkpt><trkpt lat="44.5147474" lon="7.8016222"><ele>362.0</ele><time>2026-05-01T09:24:12.878Z</time></trkpt><trkpt lat="44.5144759" lon="7.801784"><ele>362.0</ele><time>2026-05-01T09:24:13.878Z</time></trkpt><trkpt lat="44.5141967" lon="7.8019474"><ele>362.0</ele><time>2026-05-01T09:24:14.878Z</time></trkpt><trkpt lat="44.5139218" lon="7.8021119"><ele>362.0</ele><time>2026-05-01T09:24:15.878Z</time></trkpt><trkpt lat="44.5136448" lon="7.8022701"><ele>361.5</ele><time>2026-05-01T09:24:16.878Z</time></trkpt><trkpt lat="44.5133721" lon="7.8024294"><ele>361.0</ele><time>2026-05-01T09:24:17.878Z</time></trkpt><trkpt lat="44.5131035" lon="7.8025827"><ele>361.0</ele><time>2026-05-01T09:24:18.878Z</time></trkpt><trkpt lat="44.5128381" lon="7.8027342"><ele>361.0</ele><time>2026-05-01T09:24:19.879Z</time></trkpt><trkpt lat="44.5125673" lon="7.8028913"><ele>361.0</ele><time>2026-05-01T09:24:20.878Z</time></trkpt><trkpt lat="44.5122967" lon="7.8030501"><ele>361.0</ele><time>2026-05-01T09:24:21.878Z</time></trkpt><trkpt lat="44.5120297" lon="7.803198"><ele>361.0</ele><time>2026-05-01T09:24:22.878Z</time></trkpt><trkpt lat="44.5117609" lon="7.8033596"><ele>361.0</ele><time>2026-05-01T09:24:23.878Z</time></trkpt><trkpt lat="44.5114973" lon="7.8035128"><ele>361.5</ele><time>2026-05-01T09:24:24.878Z</time></trkpt><trkpt lat="44.5112241" lon="7.8036698"><ele>362.0</ele><time>2026-05-01T09:24:25.878Z</time></trkpt><trkpt lat="44.5109489" lon="7.8038265"><ele>362.0</ele><time>2026-05-01T09:24:26.878Z</time></trkpt><trkpt lat="44.5106772" lon="7.8039819"><ele>362.0</ele><time>2026-05-01T09:24:27.878Z</time></trkpt><trkpt lat="44.5104066" lon="7.8041376"><ele>362.0</ele><time>2026-05-01T09:24:28.878Z</time></trkpt><trkpt lat="44.5101343" lon="7.8042955"><ele>362.0</ele><time>2026-05-01T09:24:29.878Z</time></trkpt><trkpt lat="44.5098611" lon="7.8044571"><ele>362.0</ele><time>2026-05-01T09:24:30.878Z</time></trkpt><trkpt lat="44.5095901" lon="7.8046113"><ele>362.0</ele><time>2026-05-01T09:24:31.878Z</time></trkpt><trkpt lat="44.509318" lon="7.804762"><ele>362.5</ele><time>2026-05-01T09:24:32.878Z</time></trkpt><trkpt lat="44.5090529" lon="7.804912"><ele>363.0</ele><time>2026-05-01T09:24:33.878Z</time></trkpt><trkpt lat="44.5087861" lon="7.8050681"><ele>364.0</ele><time>2026-05-01T09:24:34.878Z</time></trkpt><trkpt lat="44.5085147" lon="7.805227"><ele>365.0</ele><time>2026-05-01T09:24:35.879Z</time></trkpt><trkpt lat="44.5082424" lon="7.8053896"><ele>365.0</ele><time>2026-05-01T09:24:36.878Z</time></trkpt><trkpt lat="44.5079743" lon="7.80555"><ele>365.0</ele><time>2026-05-01T09:24:37.878Z</time></trkpt><trkpt lat="44.5077021" lon="7.8057103"><ele>365.5</ele><time>2026-05-01T09:24:38.878Z</time></trkpt><trkpt lat="44.5074318" lon="7.8058684"><ele>366.0</ele><time>2026-05-01T09:24:39.878Z</time></trkpt><trkpt lat="44.5071629" lon="7.8060151"><ele>370.5</ele><time>2026-05-01T09:24:40.878Z</time></trkpt><trkpt lat="44.506896" lon="7.8061704"><ele>375.0</ele><time>2026-05-01T09:24:41.878Z</time></trkpt><trkpt lat="44.5066289" lon="7.8063293"><ele>375.0</ele><time>2026-05-01T09:24:42.878Z</time></trkpt><trkpt lat="44.5063651" lon="7.8064793"><ele>375.0</ele><time>2026-05-01T09:24:43.878Z</time></trkpt><trkpt lat="44.5060998" lon="7.8066328"><ele>377.5</ele><time>2026-05-01T09:24:44.878Z</time></trkpt><trkpt lat="44.5058425" lon="7.8067838"><ele>380.0</ele><time>2026-05-01T09:24:45.878Z</time></trkpt><trkpt lat="44.5055819" lon="7.8069258"><ele>386.0</ele><time>2026-05-01T09:24:46.878Z</time></trkpt><trkpt lat="44.5053249" lon="7.8070648"><ele>392.0</ele><time>2026-05-01T09:24:47.878Z</time></trkpt><trkpt lat="44.5050638" lon="7.8072143"><ele>392.0</ele><time>2026-05-01T09:24:48.878Z</time></trkpt><trkpt lat="44.5048039" lon="7.8073706"><ele>392.0</ele><time>2026-05-01T09:24:49.879Z</time></trkpt><trkpt lat="44.5045408" lon="7.8075209"><ele>398.0</ele><time>2026-05-01T09:24:50.878Z</time></trkpt><trkpt lat="44.5042859" lon="7.8076684"><ele>404.0</ele><time>2026-05-01T09:24:51.878Z</time></trkpt><trkpt lat="44.50403" lon="7.8078166"><ele>404.0</ele><time>2026-05-01T09:24:52.878Z</time></trkpt><trkpt lat="44.5037809" lon="7.8079615"><ele>404.0</ele><time>2026-05-01T09:24:53.878Z</time></trkpt><trkpt lat="44.5035289" lon="7.8081118"><ele>404.0</ele><time>2026-05-01T09:24:54.878Z</time></trkpt><trkpt lat="44.5032724" lon="7.8082576"><ele>404.0</ele><time>2026-05-01T09:24:55.878Z</time></trkpt><trkpt lat="44.5030123" lon="7.8084127"><ele>407.5</ele><time>2026-05-01T09:24:56.878Z</time></trkpt><trkpt lat="44.5027569" lon="7.8085327"><ele>411.0</ele><time>2026-05-01T09:24:57.878Z</time></trkpt><trkpt lat="44.5024968" lon="7.8086688"><ele>411.0</ele><time>2026-05-01T09:24:58.878Z</time></trkpt><trkpt lat="44.5022337" lon="7.8088054"><ele>411.0</ele><time>2026-05-01T09:24:59.878Z</time></trkpt><trkpt lat="44.5019701" lon="7.8089519"><ele>411.5</ele><time>2026-05-01T09:25:00.878Z</time></trkpt><trkpt lat="44.5017058" lon="7.8091049"><ele>412.0</ele><time>2026-05-01T09:25:01.878Z</time></trkpt><trkpt lat="44.5014379" lon="7.8092587"><ele>412.0</ele><time>2026-05-01T09:25:02.878Z</time></trkpt><trkpt lat="44.5011723" lon="7.8094073"><ele>412.0</ele><time>2026-05-01T09:25:03.878Z</time></trkpt><trkpt lat="44.500907" lon="7.8095641"><ele>412.0</ele><time>2026-05-01T09:25:04.878Z</time></trkpt><trkpt lat="44.5006374" lon="7.8097188"><ele>412.0</ele><time>2026-05-01T09:25:05.878Z</time></trkpt><trkpt lat="44.500375" lon="7.8098637"><ele>412.0</ele><time>2026-05-01T09:25:06.878Z</time></trkpt><trkpt lat="44.5001137" lon="7.810021"><ele>412.0</ele><time>2026-05-01T09:25:07.878Z</time></trkpt><trkpt lat="44.4998517" lon="7.8101725"><ele>412.0</ele><time>2026-05-01T09:25:08.878Z</time></trkpt><trkpt lat="44.49959" lon="7.8103263"><ele>412.0</ele><time>2026-05-01T09:25:09.878Z</time></trkpt><trkpt lat="44.4993363" lon="7.810482"><ele>412.5</ele><time>2026-05-01T09:25:10.878Z</time></trkpt><trkpt lat="44.4990772" lon="7.8106376"><ele>413.0</ele><time>2026-05-01T09:25:11.878Z</time></trkpt><trkpt lat="44.4988156" lon="7.810799"><ele>413.5</ele><time>2026-05-01T09:25:12.878Z</time></trkpt><trkpt lat="44.498557" lon="7.810967"><ele>414.0</ele><time>2026-05-01T09:25:13.878Z</time></trkpt><trkpt lat="44.4982892" lon="7.8111135"><ele>414.5</ele><time>2026-05-01T09:25:14.878Z</time></trkpt><trkpt lat="44.4980198" lon="7.8112757"><ele>415.0</ele><time>2026-05-01T09:25:15.878Z</time></trkpt><trkpt lat="44.4977515" lon="7.8114389"><ele>415.0</ele><time>2026-05-01T09:25:16.878Z</time></trkpt><trkpt lat="44.4974845" lon="7.8116081"><ele>415.0</ele><time>2026-05-01T09:25:17.878Z</time></trkpt><trkpt lat="44.4972208" lon="7.8117862"><ele>412.5</ele><time>2026-05-01T09:25:18.878Z</time></trkpt><trkpt lat="44.496958" lon="7.8119565"><ele>410.0</ele><time>2026-05-01T09:25:19.878Z</time></trkpt><trkpt lat="44.4967004" lon="7.8121186"><ele>410.0</ele><time>2026-05-01T09:25:20.878Z</time></trkpt><trkpt lat="44.4964461" lon="7.8122788"><ele>410.0</ele><time>2026-05-01T09:25:21.878Z</time></trkpt><trkpt lat="44.4961922" lon="7.8124454"><ele>409.5</ele><time>2026-05-01T09:25:22.878Z</time></trkpt><trkpt lat="44.4959424" lon="7.8126103"><ele>409.0</ele><time>2026-05-01T09:25:23.878Z</time></trkpt><trkpt lat="44.4956932" lon="7.8127758"><ele>408.5</ele><time>2026-05-01T09:25:24.878Z</time></trkpt><trkpt lat="44.4954491" lon="7.8129475"><ele>408.0</ele><time>2026-05-01T09:25:25.878Z</time></trkpt><trkpt lat="44.4952056" lon="7.8131173"><ele>408.0</ele><time>2026-05-01T09:25:26.878Z</time></trkpt><trkpt lat="44.4949609" lon="7.8132885"><ele>408.0</ele><time>2026-05-01T09:25:27.878Z</time></trkpt><trkpt lat="44.494721" lon="7.8134576"><ele>408.0</ele><time>2026-05-01T09:25:28.878Z</time></trkpt><trkpt lat="44.4944815" lon="7.8136284"><ele>408.0</ele><time>2026-05-01T09:25:29.878Z</time></trkpt><trkpt lat="44.4942395" lon="7.8137931"><ele>408.0</ele><time>2026-05-01T09:25:30.878Z</time></trkpt><trkpt lat="44.4939954" lon="7.813963"><ele>408.0</ele><time>2026-05-01T09:25:31.878Z</time></trkpt><trkpt lat="44.493758" lon="7.8141203"><ele>408.0</ele><time>2026-05-01T09:25:32.878Z</time></trkpt><trkpt lat="44.493512" lon="7.8142891"><ele>408.0</ele><time>2026-05-01T09:25:33.878Z</time></trkpt><trkpt lat="44.4932746" lon="7.8144572"><ele>408.0</ele><time>2026-05-01T09:25:34.878Z</time></trkpt><trkpt lat="44.4930293" lon="7.8146174"><ele>408.0</ele><time>2026-05-01T09:25:35.878Z</time></trkpt><trkpt lat="44.4927895" lon="7.8147847"><ele>408.0</ele><time>2026-05-01T09:25:36.878Z</time></trkpt><trkpt lat="44.4925544" lon="7.814948"><ele>408.0</ele><time>2026-05-01T09:25:37.879Z</time></trkpt><trkpt lat="44.492307" lon="7.8151154"><ele>409.5</ele><time>2026-05-01T09:25:38.878Z</time></trkpt><trkpt lat="44.4920795" lon="7.8152853"><ele>411.0</ele><time>2026-05-01T09:25:39.878Z</time></trkpt><trkpt lat="44.4918446" lon="7.8154677"><ele>411.0</ele><time>2026-05-01T09:25:40.878Z</time></trkpt><trkpt lat="44.4916063" lon="7.8156247"><ele>411.0</ele><time>2026-05-01T09:25:41.878Z</time></trkpt><trkpt lat="44.4913659" lon="7.8157849"><ele>410.5</ele><time>2026-05-01T09:25:42.878Z</time></trkpt><trkpt lat="44.4911358" lon="7.8159447"><ele>410.0</ele><time>2026-05-01T09:25:43.878Z</time></trkpt><trkpt lat="44.4909035" lon="7.8161085"><ele>410.0</ele><time>2026-05-01T09:25:44.878Z</time></trkpt><trkpt lat="44.490673" lon="7.8162649"><ele>410.0</ele><time>2026-05-01T09:25:45.878Z</time></trkpt><trkpt lat="44.4904337" lon="7.8164314"><ele>409.0</ele><time>2026-05-01T09:25:46.878Z</time></trkpt><trkpt lat="44.4901985" lon="7.8165942"><ele>408.0</ele><time>2026-05-01T09:25:47.878Z</time></trkpt><trkpt lat="44.4899743" lon="7.8167536"><ele>408.5</ele><time>2026-05-01T09:25:48.878Z</time></trkpt><trkpt lat="44.4897495" lon="7.8168918"><ele>409.0</ele><time>2026-05-01T09:25:49.878Z</time></trkpt><trkpt lat="44.4895243" lon="7.8170213"><ele>410.5</ele><time>2026-05-01T09:25:50.879Z</time></trkpt><trkpt lat="44.4892972" lon="7.8171153"><ele>412.0</ele><time>2026-05-01T09:25:51.878Z</time></trkpt><trkpt lat="44.489067" lon="7.8171938"><ele>412.0</ele><time>2026-05-01T09:25:52.878Z</time></trkpt><trkpt lat="44.4888349" lon="7.8172414"><ele>412.0</ele><time>2026-05-01T09:25:53.878Z</time></trkpt><trkpt lat="44.4885936" lon="7.8172468"><ele>412.0</ele><time>2026-05-01T09:25:54.878Z</time></trkpt><trkpt lat="44.4883532" lon="7.8172319"><ele>412.0</ele><time>2026-05-01T09:25:55.878Z</time></trkpt><trkpt lat="44.4881202" lon="7.8171794"><ele>411.5</ele><time>2026-05-01T09:25:56.878Z</time></trkpt><trkpt lat="44.4878981" lon="7.8170996"><ele>411.0</ele><time>2026-05-01T09:25:57.878Z</time></trkpt><trkpt lat="44.4876831" lon="7.8169747"><ele>411.0</ele><time>2026-05-01T09:25:58.878Z</time></trkpt><trkpt lat="44.487481" lon="7.8168224"><ele>411.0</ele><time>2026-05-01T09:25:59.878Z</time></trkpt><trkpt lat="44.4872925" lon="7.8166427"><ele>411.0</ele><time>2026-05-01T09:26:00.878Z</time></trkpt><trkpt lat="44.4871165" lon="7.8164292"><ele>411.0</ele><time>2026-05-01T09:26:01.878Z</time></trkpt><trkpt lat="44.4869483" lon="7.8162007"><ele>411.0</ele><time>2026-05-01T09:26:02.878Z</time></trkpt><trkpt lat="44.4867784" lon="7.8159582"><ele>411.0</ele><time>2026-05-01T09:26:03.878Z</time></trkpt><trkpt lat="44.4866119" lon="7.8156976"><ele>411.0</ele><time>2026-05-01T09:26:04.878Z</time></trkpt><trkpt lat="44.4864594" lon="7.8154312"><ele>411.0</ele><time>2026-05-01T09:26:05.878Z</time></trkpt><trkpt lat="44.4863161" lon="7.8151476"><ele>411.0</ele><time>2026-05-01T09:26:06.879Z</time></trkpt><trkpt lat="44.4861698" lon="7.8148525"><ele>411.0</ele><time>2026-05-01T09:26:07.878Z</time></trkpt><trkpt lat="44.4860312" lon="7.814551"><ele>411.0</ele><time>2026-05-01T09:26:08.879Z</time></trkpt><trkpt lat="44.4858994" lon="7.8142323"><ele>411.0</ele><time>2026-05-01T09:26:09.878Z</time></trkpt><trkpt lat="44.4857789" lon="7.8139241"><ele>411.0</ele><time>2026-05-01T09:26:10.878Z</time></trkpt><trkpt lat="44.4856627" lon="7.8135928"><ele>411.0</ele><time>2026-05-01T09:26:11.879Z</time></trkpt><trkpt lat="44.485569" lon="7.8132495"><ele>410.5</ele><time>2026-05-01T09:26:12.878Z</time></trkpt><trkpt lat="44.4854775" lon="7.8129037"><ele>410.0</ele><time>2026-05-01T09:26:13.878Z</time></trkpt><trkpt lat="44.4853948" lon="7.8125572"><ele>411.0</ele><time>2026-05-01T09:26:14.878Z</time></trkpt><trkpt lat="44.4853203" lon="7.8122046"><ele>412.0</ele><time>2026-05-01T09:26:15.879Z</time></trkpt><trkpt lat="44.4852521" lon="7.8118417"><ele>411.5</ele><time>2026-05-01T09:26:16.878Z</time></trkpt><trkpt lat="44.4851975" lon="7.8114811"><ele>411.0</ele><time>2026-05-01T09:26:17.878Z</time></trkpt><trkpt lat="44.4851515" lon="7.8111022"><ele>411.0</ele><time>2026-05-01T09:26:18.878Z</time></trkpt><trkpt lat="44.4851031" lon="7.8107282"><ele>411.0</ele><time>2026-05-01T09:26:19.878Z</time></trkpt><trkpt lat="44.4850679" lon="7.8103458"><ele>411.0</ele><time>2026-05-01T09:26:20.878Z</time></trkpt><trkpt lat="44.4850321" lon="7.8099578"><ele>411.0</ele><time>2026-05-01T09:26:21.878Z</time></trkpt><trkpt lat="44.4849976" lon="7.8095785"><ele>411.0</ele><time>2026-05-01T09:26:22.878Z</time></trkpt><trkpt lat="44.4849477" lon="7.8091854"><ele>411.0</ele><time>2026-05-01T09:26:23.878Z</time></trkpt><trkpt lat="44.4849131" lon="7.8087991"><ele>411.5</ele><time>2026-05-01T09:26:24.878Z</time></trkpt><trkpt lat="44.4848632" lon="7.8084028"><ele>412.0</ele><time>2026-05-01T09:26:25.878Z</time></trkpt><trkpt lat="44.4848154" lon="7.8080182"><ele>412.5</ele><time>2026-05-01T09:26:26.878Z</time></trkpt><trkpt lat="44.4847608" lon="7.807626"><ele>413.0</ele><time>2026-05-01T09:26:27.878Z</time></trkpt><trkpt lat="44.4847047" lon="7.8072411"><ele>413.0</ele><time>2026-05-01T09:26:28.878Z</time></trkpt><trkpt lat="44.4846528" lon="7.8068481"><ele>413.0</ele><time>2026-05-01T09:26:29.878Z</time></trkpt><trkpt lat="44.484577" lon="7.806458"><ele>413.5</ele><time>2026-05-01T09:26:30.878Z</time></trkpt><trkpt lat="44.4845128" lon="7.8060729"><ele>414.0</ele><time>2026-05-01T09:26:31.878Z</time></trkpt><trkpt lat="44.484446" lon="7.8056944"><ele>415.5</ele><time>2026-05-01T09:26:32.878Z</time></trkpt><trkpt lat="44.4843725" lon="7.8053068"><ele>417.0</ele><time>2026-05-01T09:26:33.878Z</time></trkpt><trkpt lat="44.4843019" lon="7.8049361"><ele>418.0</ele><time>2026-05-01T09:26:34.878Z</time></trkpt><trkpt lat="44.4842253" lon="7.8045605"><ele>419.0</ele><time>2026-05-01T09:26:35.878Z</time></trkpt><trkpt lat="44.4841439" lon="7.8041828"><ele>419.0</ele><time>2026-05-01T09:26:36.878Z</time></trkpt><trkpt lat="44.4840563" lon="7.8038164"><ele>419.0</ele><time>2026-05-01T09:26:37.878Z</time></trkpt><trkpt lat="44.4839593" lon="7.803445"><ele>419.0</ele><time>2026-05-01T09:26:38.878Z</time></trkpt><trkpt lat="44.483867" lon="7.8030723"><ele>419.0</ele><time>2026-05-01T09:26:39.879Z</time></trkpt><trkpt lat="44.4837568" lon="7.8027047"><ele>418.5</ele><time>2026-05-01T09:26:40.878Z</time></trkpt><trkpt lat="44.4836454" lon="7.802346"><ele>418.0</ele><time>2026-05-01T09:26:41.878Z</time></trkpt><trkpt lat="44.483532" lon="7.80198"><ele>418.0</ele><time>2026-05-01T09:26:42.878Z</time></trkpt><trkpt lat="44.4834167" lon="7.8016225"><ele>418.0</ele><time>2026-05-01T09:26:43.878Z</time></trkpt><trkpt lat="44.4832883" lon="7.8012711"><ele>417.5</ele><time>2026-05-01T09:26:44.878Z</time></trkpt><trkpt lat="44.4831567" lon="7.8009148"><ele>417.0</ele><time>2026-05-01T09:26:45.878Z</time></trkpt><trkpt lat="44.4830252" lon="7.8005521"><ele>417.0</ele><time>2026-05-01T09:26:46.878Z</time></trkpt><trkpt lat="44.4828956" lon="7.8002094"><ele>417.0</ele><time>2026-05-01T09:26:47.878Z</time></trkpt><trkpt lat="44.4827481" lon="7.7998556"><ele>417.0</ele><time>2026-05-01T09:26:48.878Z</time></trkpt><trkpt lat="44.4826088" lon="7.7995164"><ele>417.0</ele><time>2026-05-01T09:26:49.878Z</time></trkpt><trkpt lat="44.4824577" lon="7.7991813"><ele>417.0</ele><time>2026-05-01T09:26:50.879Z</time></trkpt><trkpt lat="44.4822999" lon="7.7988511"><ele>417.0</ele><time>2026-05-01T09:26:51.878Z</time></trkpt><trkpt lat="44.4821408" lon="7.7985308"><ele>417.5</ele><time>2026-05-01T09:26:52.878Z</time></trkpt><trkpt lat="44.4819818" lon="7.7982124"><ele>418.0</ele><time>2026-05-01T09:26:53.878Z</time></trkpt><trkpt lat="44.4818183" lon="7.7979068"><ele>418.5</ele><time>2026-05-01T09:26:54.878Z</time></trkpt><trkpt lat="44.4816557" lon="7.7976042"><ele>419.0</ele><time>2026-05-01T09:26:55.878Z</time></trkpt><trkpt lat="44.4814804" lon="7.797303"><ele>419.0</ele><time>2026-05-01T09:26:56.878Z</time></trkpt><trkpt lat="44.4813066" lon="7.7970131"><ele>419.0</ele><time>2026-05-01T09:26:57.878Z</time></trkpt><trkpt lat="44.4811348" lon="7.7967226"><ele>419.0</ele><time>2026-05-01T09:26:58.878Z</time></trkpt><trkpt lat="44.480952" lon="7.7964377"><ele>419.0</ele><time>2026-05-01T09:26:59.878Z</time></trkpt><trkpt lat="44.4807713" lon="7.7961411"><ele>418.5</ele><time>2026-05-01T09:27:00.878Z</time></trkpt><trkpt lat="44.4805847" lon="7.7958663"><ele>418.0</ele><time>2026-05-01T09:27:01.878Z</time></trkpt><trkpt lat="44.4803865" lon="7.7955899"><ele>418.0</ele><time>2026-05-01T09:27:02.878Z</time></trkpt><trkpt lat="44.4801839" lon="7.7953155"><ele>418.0</ele><time>2026-05-01T09:27:03.879Z</time></trkpt><trkpt lat="44.4799768" lon="7.7950486"><ele>418.0</ele><time>2026-05-01T09:27:04.878Z</time></trkpt><trkpt lat="44.4797694" lon="7.7947836"><ele>418.0</ele><time>2026-05-01T09:27:05.878Z</time></trkpt><trkpt lat="44.4795573" lon="7.7945258"><ele>417.5</ele><time>2026-05-01T09:27:06.878Z</time></trkpt><trkpt lat="44.4793444" lon="7.7942717"><ele>417.0</ele><time>2026-05-01T09:27:07.878Z</time></trkpt><trkpt lat="44.4791393" lon="7.7940145"><ele>417.0</ele><time>2026-05-01T09:27:08.878Z</time></trkpt><trkpt lat="44.4789186" lon="7.7937703"><ele>417.0</ele><time>2026-05-01T09:27:09.878Z</time></trkpt><trkpt lat="44.4786902" lon="7.7935262"><ele>417.5</ele><time>2026-05-01T09:27:10.878Z</time></trkpt><trkpt lat="44.4784541" lon="7.7933004"><ele>418.0</ele><time>2026-05-01T09:27:11.878Z</time></trkpt><trkpt lat="44.4782158" lon="7.7930667"><ele>418.0</ele><time>2026-05-01T09:27:12.878Z</time></trkpt><trkpt lat="44.4779742" lon="7.7928291"><ele>418.0</ele><time>2026-05-01T09:27:13.878Z</time></trkpt><trkpt lat="44.4777305" lon="7.7925999"><ele>419.0</ele><time>2026-05-01T09:27:14.878Z</time></trkpt><trkpt lat="44.4775049" lon="7.79237"><ele>420.0</ele><time>2026-05-01T09:27:15.878Z</time></trkpt><trkpt lat="44.4772555" lon="7.7921385"><ele>420.0</ele><time>2026-05-01T09:27:16.879Z</time></trkpt><trkpt lat="44.4770105" lon="7.7919071"><ele>420.0</ele><time>2026-05-01T09:27:17.878Z</time></trkpt><trkpt lat="44.4767782" lon="7.791667"><ele>419.5</ele><time>2026-05-01T09:27:18.878Z</time></trkpt><trkpt lat="44.4765347" lon="7.7914401"><ele>419.0</ele><time>2026-05-01T09:27:19.878Z</time></trkpt><trkpt lat="44.4762884" lon="7.7912066"><ele>419.0</ele><time>2026-05-01T09:27:20.878Z</time></trkpt><trkpt lat="44.4760454" lon="7.7909631"><ele>419.0</ele><time>2026-05-01T09:27:21.879Z</time></trkpt><trkpt lat="44.4758067" lon="7.7907246"><ele>419.0</ele><time>2026-05-01T09:27:22.879Z</time></trkpt><trkpt lat="44.4755639" lon="7.7904775"><ele>419.0</ele><time>2026-05-01T09:27:23.878Z</time></trkpt><trkpt lat="44.475323" lon="7.7902384"><ele>420.0</ele><time>2026-05-01T09:27:24.878Z</time></trkpt><trkpt lat="44.4750778" lon="7.7899742"><ele>421.0</ele><time>2026-05-01T09:27:25.878Z</time></trkpt><trkpt lat="44.4748502" lon="7.7897187"><ele>421.0</ele><time>2026-05-01T09:27:26.878Z</time></trkpt><trkpt lat="44.4746244" lon="7.789444"><ele>421.0</ele><time>2026-05-01T09:27:27.878Z</time></trkpt><trkpt lat="44.474406" lon="7.7891721"><ele>420.0</ele><time>2026-05-01T09:27:28.878Z</time></trkpt><trkpt lat="44.4741888" lon="7.7889085"><ele>419.0</ele><time>2026-05-01T09:27:29.878Z</time></trkpt><trkpt lat="44.4739729" lon="7.7886403"><ele>419.0</ele><time>2026-05-01T09:27:30.878Z</time></trkpt><trkpt lat="44.473761" lon="7.7883639"><ele>419.0</ele><time>2026-05-01T09:27:31.878Z</time></trkpt><trkpt lat="44.4735596" lon="7.7880925"><ele>419.0</ele><time>2026-05-01T09:27:32.878Z</time></trkpt><trkpt lat="44.4733567" lon="7.7878074"><ele>419.0</ele><time>2026-05-01T09:27:33.878Z</time></trkpt><trkpt lat="44.473151" lon="7.7875134"><ele>419.0</ele><time>2026-05-01T09:27:34.879Z</time></trkpt><trkpt lat="44.4729641" lon="7.7872411"><ele>419.0</ele><time>2026-05-01T09:27:35.878Z</time></trkpt><trkpt lat="44.4727946" lon="7.7869847"><ele>419.0</ele><time>2026-05-01T09:27:36.878Z</time></trkpt><trkpt lat="44.4726091" lon="7.7867055"><ele>419.0</ele><time>2026-05-01T09:27:37.879Z</time></trkpt><trkpt lat="44.4724371" lon="7.7864031"><ele>419.0</ele><time>2026-05-01T09:27:38.878Z</time></trkpt><trkpt lat="44.472253" lon="7.7861239"><ele>419.0</ele><time>2026-05-01T09:27:39.878Z</time></trkpt><trkpt lat="44.4720755" lon="7.7858212"><ele>419.0</ele><time>2026-05-01T09:27:40.879Z</time></trkpt><trkpt lat="44.4718986" lon="7.7855011"><ele>419.0</ele><time>2026-05-01T09:27:41.878Z</time></trkpt><trkpt lat="44.4717334" lon="7.7851752"><ele>420.0</ele><time>2026-05-01T09:27:42.878Z</time></trkpt><trkpt lat="44.471551" lon="7.7848506"><ele>421.0</ele><time>2026-05-01T09:27:43.878Z</time></trkpt><trkpt lat="44.4713798" lon="7.7845166"><ele>418.5</ele><time>2026-05-01T09:27:44.878Z</time></trkpt><trkpt lat="44.4712171" lon="7.7841718"><ele>416.0</ele><time>2026-05-01T09:27:45.878Z</time></trkpt><trkpt lat="44.4710541" lon="7.7838295"><ele>417.0</ele><time>2026-05-01T09:27:46.879Z</time></trkpt><trkpt lat="44.4708994" lon="7.7834807"><ele>418.0</ele><time>2026-05-01T09:27:47.879Z</time></trkpt><trkpt lat="44.4707443" lon="7.7831224"><ele>418.0</ele><time>2026-05-01T09:27:48.878Z</time></trkpt><trkpt lat="44.4705944" lon="7.7827647"><ele>418.0</ele><time>2026-05-01T09:27:49.878Z</time></trkpt><trkpt lat="44.470445" lon="7.7824029"><ele>417.5</ele><time>2026-05-01T09:27:50.878Z</time></trkpt><trkpt lat="44.4703068" lon="7.782031"><ele>417.0</ele><time>2026-05-01T09:27:51.878Z</time></trkpt><trkpt lat="44.4701684" lon="7.7816522"><ele>417.0</ele><time>2026-05-01T09:27:52.878Z</time></trkpt><trkpt lat="44.4700267" lon="7.7812713"><ele>417.0</ele><time>2026-05-01T09:27:53.878Z</time></trkpt><trkpt lat="44.469895" lon="7.7808903"><ele>416.5</ele><time>2026-05-01T09:27:54.879Z</time></trkpt><trkpt lat="44.4697699" lon="7.7804989"><ele>416.0</ele><time>2026-05-01T09:27:55.878Z</time></trkpt><trkpt lat="44.4696489" lon="7.7801083"><ele>414.5</ele><time>2026-05-01T09:27:56.878Z</time></trkpt><trkpt lat="44.4695304" lon="7.7797196"><ele>413.0</ele><time>2026-05-01T09:27:57.878Z</time></trkpt><trkpt lat="44.4694224" lon="7.7793274"><ele>407.5</ele><time>2026-05-01T09:27:58.878Z</time></trkpt><trkpt lat="44.4693148" lon="7.778934"><ele>402.0</ele><time>2026-05-01T09:27:59.878Z</time></trkpt><trkpt lat="44.469211" lon="7.778541"><ele>397.5</ele><time>2026-05-01T09:28:00.878Z</time></trkpt><trkpt lat="44.4691142" lon="7.7781522"><ele>393.0</ele><time>2026-05-01T09:28:01.878Z</time></trkpt><trkpt lat="44.4690302" lon="7.7777564"><ele>391.0</ele><time>2026-05-01T09:28:02.878Z</time></trkpt><trkpt lat="44.4689448" lon="7.7773588"><ele>389.0</ele><time>2026-05-01T09:28:03.878Z</time></trkpt><trkpt lat="44.4688649" lon="7.7769663"><ele>388.5</ele><time>2026-05-01T09:28:04.879Z</time></trkpt><trkpt lat="44.4687889" lon="7.7765711"><ele>388.0</ele><time>2026-05-01T09:28:05.878Z</time></trkpt><trkpt lat="44.4687237" lon="7.7761711"><ele>389.0</ele><time>2026-05-01T09:28:06.878Z</time></trkpt><trkpt lat="44.4686611" lon="7.7757833"><ele>390.0</ele><time>2026-05-01T09:28:07.879Z</time></trkpt><trkpt lat="44.4685997" lon="7.7753818"><ele>389.0</ele><time>2026-05-01T09:28:08.878Z</time></trkpt><trkpt lat="44.4685515" lon="7.7749715"><ele>388.0</ele><time>2026-05-01T09:28:09.878Z</time></trkpt><trkpt lat="44.4685" lon="7.7745585"><ele>388.0</ele><time>2026-05-01T09:28:10.878Z</time></trkpt><trkpt lat="44.4684497" lon="7.774148"><ele>388.0</ele><time>2026-05-01T09:28:11.878Z</time></trkpt><trkpt lat="44.4683993" lon="7.7737342"><ele>388.0</ele><time>2026-05-01T09:28:12.878Z</time></trkpt><trkpt lat="44.4683635" lon="7.7733189"><ele>388.0</ele><time>2026-05-01T09:28:13.878Z</time></trkpt><trkpt lat="44.4683296" lon="7.7729048"><ele>388.0</ele><time>2026-05-01T09:28:14.878Z</time></trkpt><trkpt lat="44.4683068" lon="7.7724886"><ele>388.0</ele><time>2026-05-01T09:28:15.879Z</time></trkpt><trkpt lat="44.4682903" lon="7.7720725"><ele>388.0</ele><time>2026-05-01T09:28:16.878Z</time></trkpt><trkpt lat="44.4682728" lon="7.7716647"><ele>388.0</ele><time>2026-05-01T09:28:17.878Z</time></trkpt><trkpt lat="44.4682657" lon="7.7712536"><ele>388.5</ele><time>2026-05-01T09:28:18.878Z</time></trkpt><trkpt lat="44.4682576" lon="7.7708483"><ele>389.0</ele><time>2026-05-01T09:28:19.878Z</time></trkpt><trkpt lat="44.4682529" lon="7.7704447"><ele>388.5</ele><time>2026-05-01T09:28:20.878Z</time></trkpt><trkpt lat="44.4682592" lon="7.7700397"><ele>388.0</ele><time>2026-05-01T09:28:21.878Z</time></trkpt><trkpt lat="44.4682655" lon="7.7696472"><ele>388.0</ele><time>2026-05-01T09:28:22.878Z</time></trkpt><trkpt lat="44.4682768" lon="7.7692513"><ele>388.0</ele><time>2026-05-01T09:28:23.878Z</time></trkpt><trkpt lat="44.4682956" lon="7.7688558"><ele>388.0</ele><time>2026-05-01T09:28:24.878Z</time></trkpt><trkpt lat="44.4683171" lon="7.7684589"><ele>388.0</ele><time>2026-05-01T09:28:25.878Z</time></trkpt><trkpt lat="44.468337" lon="7.7680585"><ele>388.5</ele><time>2026-05-01T09:28:26.878Z</time></trkpt><trkpt lat="44.468363" lon="7.7676651"><ele>389.0</ele><time>2026-05-01T09:28:27.878Z</time></trkpt><trkpt lat="44.4683984" lon="7.7672708"><ele>389.0</ele><time>2026-05-01T09:28:28.878Z</time></trkpt><trkpt lat="44.4684357" lon="7.7668741"><ele>389.0</ele><time>2026-05-01T09:28:29.878Z</time></trkpt><trkpt lat="44.468475" lon="7.7664801"><ele>389.0</ele><time>2026-05-01T09:28:30.878Z</time></trkpt><trkpt lat="44.4685169" lon="7.766084"><ele>389.0</ele><time>2026-05-01T09:28:31.878Z</time></trkpt><trkpt lat="44.4685583" lon="7.7656752"><ele>390.5</ele><time>2026-05-01T09:28:32.878Z</time></trkpt><trkpt lat="44.4686062" lon="7.7652703"><ele>392.0</ele><time>2026-05-01T09:28:33.878Z</time></trkpt><trkpt lat="44.4686522" lon="7.7648713"><ele>392.0</ele><time>2026-05-01T09:28:34.879Z</time></trkpt><trkpt lat="44.4687008" lon="7.7644641"><ele>392.0</ele><time>2026-05-01T09:28:35.878Z</time></trkpt><trkpt lat="44.4687497" lon="7.7640558"><ele>391.5</ele><time>2026-05-01T09:28:36.878Z</time></trkpt><trkpt lat="44.4688027" lon="7.7636486"><ele>391.0</ele><time>2026-05-01T09:28:37.878Z</time></trkpt><trkpt lat="44.4688529" lon="7.7632415"><ele>391.0</ele><time>2026-05-01T09:28:38.878Z</time></trkpt><trkpt lat="44.4688982" lon="7.7628334"><ele>391.0</ele><time>2026-05-01T09:28:39.878Z</time></trkpt><trkpt lat="44.4689434" lon="7.7624183"><ele>391.0</ele><time>2026-05-01T09:28:40.878Z</time></trkpt><trkpt lat="44.4689859" lon="7.7620179"><ele>391.0</ele><time>2026-05-01T09:28:41.878Z</time></trkpt><trkpt lat="44.4690331" lon="7.7616253"><ele>391.0</ele><time>2026-05-01T09:28:42.878Z</time></trkpt><trkpt lat="44.4690789" lon="7.7612314"><ele>391.0</ele><time>2026-05-01T09:28:43.878Z</time></trkpt><trkpt lat="44.4691116" lon="7.7608219"><ele>390.5</ele><time>2026-05-01T09:28:44.878Z</time></trkpt><trkpt lat="44.4691504" lon="7.7604212"><ele>390.0</ele><time>2026-05-01T09:28:45.878Z</time></trkpt><trkpt lat="44.4691916" lon="7.7600253"><ele>390.0</ele><time>2026-05-01T09:28:46.878Z</time></trkpt><trkpt lat="44.4692242" lon="7.7596364"><ele>390.0</ele><time>2026-05-01T09:28:47.878Z</time></trkpt><trkpt lat="44.4692591" lon="7.7592445"><ele>390.0</ele><time>2026-05-01T09:28:48.878Z</time></trkpt><trkpt lat="44.4692923" lon="7.7588535"><ele>390.0</ele><time>2026-05-01T09:28:49.878Z</time></trkpt><trkpt lat="44.4693185" lon="7.7584556"><ele>390.5</ele><time>2026-05-01T09:28:50.878Z</time></trkpt><trkpt lat="44.4693523" lon="7.7580557"><ele>391.0</ele><time>2026-05-01T09:28:51.878Z</time></trkpt><trkpt lat="44.4693824" lon="7.7576522"><ele>391.0</ele><time>2026-05-01T09:28:52.878Z</time></trkpt><trkpt lat="44.469408" lon="7.757248"><ele>391.0</ele><time>2026-05-01T09:28:53.878Z</time></trkpt><trkpt lat="44.4694343" lon="7.7568403"><ele>391.0</ele><time>2026-05-01T09:28:54.878Z</time></trkpt><trkpt lat="44.4694634" lon="7.7564395"><ele>391.0</ele><time>2026-05-01T09:28:55.878Z</time></trkpt><trkpt lat="44.4694916" lon="7.7560359"><ele>391.5</ele><time>2026-05-01T09:28:56.878Z</time></trkpt><trkpt lat="44.4695144" lon="7.755632"><ele>392.0</ele><time>2026-05-01T09:28:57.878Z</time></trkpt><trkpt lat="44.4695365" lon="7.7552342"><ele>392.5</ele><time>2026-05-01T09:28:58.878Z</time></trkpt><trkpt lat="44.4695552" lon="7.7548523"><ele>393.0</ele><time>2026-05-01T09:28:59.878Z</time></trkpt><trkpt lat="44.4695795" lon="7.7544454"><ele>393.0</ele><time>2026-05-01T09:29:00.878Z</time></trkpt><trkpt lat="44.4695994" lon="7.7540325"><ele>393.0</ele><time>2026-05-01T09:29:01.878Z</time></trkpt><trkpt lat="44.4696158" lon="7.7536251"><ele>392.0</ele><time>2026-05-01T09:29:02.878Z</time></trkpt><trkpt lat="44.4696327" lon="7.7532157"><ele>391.0</ele><time>2026-05-01T09:29:03.878Z</time></trkpt><trkpt lat="44.4696466" lon="7.7528176"><ele>391.0</ele><time>2026-05-01T09:29:04.878Z</time></trkpt><trkpt lat="44.4696636" lon="7.7524172"><ele>391.0</ele><time>2026-05-01T09:29:05.878Z</time></trkpt><trkpt lat="44.4696828" lon="7.7520095"><ele>391.5</ele><time>2026-05-01T09:29:06.878Z</time></trkpt><trkpt lat="44.4697002" lon="7.7516168"><ele>392.0</ele><time>2026-05-01T09:29:07.878Z</time></trkpt><trkpt lat="44.4697172" lon="7.7512112"><ele>392.0</ele><time>2026-05-01T09:29:08.878Z</time></trkpt><trkpt lat="44.469739" lon="7.7508211"><ele>392.0</ele><time>2026-05-01T09:29:09.878Z</time></trkpt><trkpt lat="44.469758" lon="7.7504233"><ele>392.5</ele><time>2026-05-01T09:29:10.879Z</time></trkpt><trkpt lat="44.4697754" lon="7.7500236"><ele>393.0</ele><time>2026-05-01T09:29:11.879Z</time></trkpt><trkpt lat="44.4697991" lon="7.7496141"><ele>392.5</ele><time>2026-05-01T09:29:12.878Z</time></trkpt><trkpt lat="44.4698247" lon="7.7492076"><ele>392.0</ele><time>2026-05-01T09:29:13.878Z</time></trkpt><trkpt lat="44.4698473" lon="7.7488099"><ele>392.0</ele><time>2026-05-01T09:29:14.878Z</time></trkpt><trkpt lat="44.4698722" lon="7.748414"><ele>392.0</ele><time>2026-05-01T09:29:15.878Z</time></trkpt><trkpt lat="44.4698855" lon="7.7480149"><ele>391.5</ele><time>2026-05-01T09:29:16.878Z</time></trkpt><trkpt lat="44.469907" lon="7.7476141"><ele>391.0</ele><time>2026-05-01T09:29:17.878Z</time></trkpt><trkpt lat="44.4699204" lon="7.7472191"><ele>391.5</ele><time>2026-05-01T09:29:18.878Z</time></trkpt><trkpt lat="44.469943" lon="7.7468236"><ele>392.0</ele><time>2026-05-01T09:29:19.878Z</time></trkpt><trkpt lat="44.4699599" lon="7.7464207"><ele>393.0</ele><time>2026-05-01T09:29:20.878Z</time></trkpt><trkpt lat="44.4699775" lon="7.7460178"><ele>394.0</ele><time>2026-05-01T09:29:21.878Z</time></trkpt><trkpt lat="44.4700004" lon="7.7456356"><ele>394.0</ele><time>2026-05-01T09:29:22.878Z</time></trkpt><trkpt lat="44.4700139" lon="7.7452381"><ele>394.0</ele><time>2026-05-01T09:29:23.878Z</time></trkpt><trkpt lat="44.4700317" lon="7.7448362"><ele>394.0</ele><time>2026-05-01T09:29:24.878Z</time></trkpt><trkpt lat="44.4700501" lon="7.7444322"><ele>394.0</ele><time>2026-05-01T09:29:25.878Z</time></trkpt><trkpt lat="44.4700701" lon="7.7440364"><ele>393.5</ele><time>2026-05-01T09:29:26.878Z</time></trkpt><trkpt lat="44.4700876" lon="7.7436374"><ele>393.0</ele><time>2026-05-01T09:29:27.878Z</time></trkpt><trkpt lat="44.470111" lon="7.7432444"><ele>393.0</ele><time>2026-05-01T09:29:28.879Z</time></trkpt><trkpt lat="44.4701307" lon="7.7428495"><ele>393.0</ele><time>2026-05-01T09:29:29.878Z</time></trkpt><trkpt lat="44.4701402" lon="7.7424419"><ele>393.5</ele><time>2026-05-01T09:29:30.878Z</time></trkpt><trkpt lat="44.4701533" lon="7.7420431"><ele>394.0</ele><time>2026-05-01T09:29:31.878Z</time></trkpt><trkpt lat="44.4701717" lon="7.7416466"><ele>394.0</ele><time>2026-05-01T09:29:32.878Z</time></trkpt><trkpt lat="44.4701896" lon="7.7412496"><ele>394.0</ele><time>2026-05-01T09:29:33.878Z</time></trkpt><trkpt lat="44.4702116" lon="7.740842"><ele>394.0</ele><time>2026-05-01T09:29:34.878Z</time></trkpt><trkpt lat="44.4702343" lon="7.7404407"><ele>394.0</ele><time>2026-05-01T09:29:35.878Z</time></trkpt><trkpt lat="44.4702522" lon="7.7400438"><ele>394.5</ele><time>2026-05-01T09:29:36.878Z</time></trkpt><trkpt lat="44.470269" lon="7.7396457"><ele>395.0</ele><time>2026-05-01T09:29:37.878Z</time></trkpt><trkpt lat="44.4702886" lon="7.7392561"><ele>395.0</ele><time>2026-05-01T09:29:38.878Z</time></trkpt><trkpt lat="44.4703011" lon="7.7388594"><ele>395.0</ele><time>2026-05-01T09:29:39.878Z</time></trkpt><trkpt lat="44.4703097" lon="7.738454"><ele>395.0</ele><time>2026-05-01T09:29:40.879Z</time></trkpt><trkpt lat="44.4703184" lon="7.7380548"><ele>395.0</ele><time>2026-05-01T09:29:41.878Z</time></trkpt><trkpt lat="44.4703161" lon="7.7376644"><ele>395.0</ele><time>2026-05-01T09:29:42.878Z</time></trkpt><trkpt lat="44.4703118" lon="7.7372557"><ele>395.0</ele><time>2026-05-01T09:29:43.878Z</time></trkpt><trkpt lat="44.4703029" lon="7.7368536"><ele>395.5</ele><time>2026-05-01T09:29:44.878Z</time></trkpt><trkpt lat="44.4702958" lon="7.7364536"><ele>396.0</ele><time>2026-05-01T09:29:45.878Z</time></trkpt><trkpt lat="44.470275" lon="7.7360569"><ele>396.5</ele><time>2026-05-01T09:29:46.878Z</time></trkpt><trkpt lat="44.4702528" lon="7.7356623"><ele>397.0</ele><time>2026-05-01T09:29:47.878Z</time></trkpt><trkpt lat="44.4702273" lon="7.7352634"><ele>397.0</ele><time>2026-05-01T09:29:48.878Z</time></trkpt><trkpt lat="44.4702062" lon="7.7348658"><ele>397.0</ele><time>2026-05-01T09:29:49.878Z</time></trkpt><trkpt lat="44.4701767" lon="7.7344653"><ele>396.5</ele><time>2026-05-01T09:29:50.878Z</time></trkpt><trkpt lat="44.4701485" lon="7.7340629"><ele>396.0</ele><time>2026-05-01T09:29:51.878Z</time></trkpt><trkpt lat="44.4701162" lon="7.7336749"><ele>396.0</ele><time>2026-05-01T09:29:52.878Z</time></trkpt><trkpt lat="44.4700762" lon="7.7332857"><ele>396.0</ele><time>2026-05-01T09:29:53.878Z</time></trkpt><trkpt lat="44.4700357" lon="7.7328924"><ele>396.5</ele><time>2026-05-01T09:29:54.878Z</time></trkpt><trkpt lat="44.4699953" lon="7.7325038"><ele>397.0</ele><time>2026-05-01T09:29:55.878Z</time></trkpt><trkpt lat="44.4699576" lon="7.7321087"><ele>396.5</ele><time>2026-05-01T09:29:56.878Z</time></trkpt><trkpt lat="44.4699125" lon="7.7317136"><ele>396.0</ele><time>2026-05-01T09:29:57.878Z</time></trkpt><trkpt lat="44.4698668" lon="7.7313201"><ele>396.5</ele><time>2026-05-01T09:29:58.878Z</time></trkpt><trkpt lat="44.469829" lon="7.7309202"><ele>397.0</ele><time>2026-05-01T09:29:59.878Z</time></trkpt><trkpt lat="44.4697874" lon="7.7305101"><ele>397.0</ele><time>2026-05-01T09:30:00.878Z</time></trkpt><trkpt lat="44.4697471" lon="7.7301091"><ele>397.0</ele><time>2026-05-01T09:30:01.878Z</time></trkpt><trkpt lat="44.4697133" lon="7.7297064"><ele>397.5</ele><time>2026-05-01T09:30:02.878Z</time></trkpt><trkpt lat="44.4696718" lon="7.7293021"><ele>398.0</ele><time>2026-05-01T09:30:03.878Z</time></trkpt><trkpt lat="44.4696384" lon="7.7288742"><ele>398.5</ele><time>2026-05-01T09:30:04.878Z</time></trkpt><trkpt lat="44.4695987" lon="7.7284842"><ele>399.0</ele><time>2026-05-01T09:30:05.878Z</time></trkpt><trkpt lat="44.4695658" lon="7.7280685"><ele>398.5</ele><time>2026-05-01T09:30:06.878Z</time></trkpt><trkpt lat="44.4695331" lon="7.7276623"><ele>398.0</ele><time>2026-05-01T09:30:07.878Z</time></trkpt><trkpt lat="44.4694977" lon="7.7272607"><ele>398.5</ele><time>2026-05-01T09:30:08.878Z</time></trkpt><trkpt lat="44.4694589" lon="7.7268566"><ele>399.0</ele><time>2026-05-01T09:30:09.878Z</time></trkpt><trkpt lat="44.4694208" lon="7.7264525"><ele>398.5</ele><time>2026-05-01T09:30:10.878Z</time></trkpt><trkpt lat="44.4693877" lon="7.7260526"><ele>398.0</ele><time>2026-05-01T09:30:11.878Z</time></trkpt><trkpt lat="44.4693495" lon="7.7256597"><ele>398.0</ele><time>2026-05-01T09:30:12.878Z</time></trkpt><trkpt lat="44.4693145" lon="7.7252665"><ele>398.0</ele><time>2026-05-01T09:30:13.878Z</time></trkpt><trkpt lat="44.4692779" lon="7.7248693"><ele>398.0</ele><time>2026-05-01T09:30:14.878Z</time></trkpt><trkpt lat="44.4692473" lon="7.7244719"><ele>398.0</ele><time>2026-05-01T09:30:15.879Z</time></trkpt><trkpt lat="44.4692179" lon="7.724074"><ele>398.5</ele><time>2026-05-01T09:30:16.878Z</time></trkpt><trkpt lat="44.469195" lon="7.7236842"><ele>399.0</ele><time>2026-05-01T09:30:17.879Z</time></trkpt><trkpt lat="44.4691739" lon="7.7232853"><ele>399.0</ele><time>2026-05-01T09:30:18.878Z</time></trkpt><trkpt lat="44.4691668" lon="7.7228927"><ele>399.0</ele><time>2026-05-01T09:30:19.878Z</time></trkpt><trkpt lat="44.4691569" lon="7.7224956"><ele>399.0</ele><time>2026-05-01T09:30:20.879Z</time></trkpt><trkpt lat="44.469149" lon="7.722095"><ele>399.0</ele><time>2026-05-01T09:30:21.878Z</time></trkpt><trkpt lat="44.4691503" lon="7.721686"><ele>399.0</ele><time>2026-05-01T09:30:22.878Z</time></trkpt><trkpt lat="44.4691579" lon="7.7212757"><ele>399.0</ele><time>2026-05-01T09:30:23.878Z</time></trkpt><trkpt lat="44.4691611" lon="7.7208736"><ele>399.0</ele><time>2026-05-01T09:30:24.878Z</time></trkpt><trkpt lat="44.4691729" lon="7.7204658"><ele>399.0</ele><time>2026-05-01T09:30:25.878Z</time></trkpt><trkpt lat="44.4691924" lon="7.7200581"><ele>399.0</ele><time>2026-05-01T09:30:26.878Z</time></trkpt><trkpt lat="44.4692103" lon="7.7196432"><ele>399.0</ele><time>2026-05-01T09:30:27.878Z</time></trkpt><trkpt lat="44.4692397" lon="7.7192381"><ele>399.5</ele><time>2026-05-01T09:30:28.878Z</time></trkpt><trkpt lat="44.4692756" lon="7.7188419"><ele>400.0</ele><time>2026-05-01T09:30:29.878Z</time></trkpt><trkpt lat="44.4693073" lon="7.7184442"><ele>400.0</ele><time>2026-05-01T09:30:30.878Z</time></trkpt><trkpt lat="44.4693499" lon="7.7180453"><ele>400.0</ele><time>2026-05-01T09:30:31.878Z</time></trkpt><trkpt lat="44.4693974" lon="7.7176459"><ele>400.0</ele><time>2026-05-01T09:30:32.878Z</time></trkpt><trkpt lat="44.4694535" lon="7.7172539"><ele>400.0</ele><time>2026-05-01T09:30:33.878Z</time></trkpt><trkpt lat="44.4695072" lon="7.7168628"><ele>400.5</ele><time>2026-05-01T09:30:34.878Z</time></trkpt><trkpt lat="44.4695651" lon="7.7164675"><ele>401.0</ele><time>2026-05-01T09:30:35.878Z</time></trkpt><trkpt lat="44.4696305" lon="7.7160839"><ele>401.0</ele><time>2026-05-01T09:30:36.878Z</time></trkpt><trkpt lat="44.4696968" lon="7.7156912"><ele>401.0</ele><time>2026-05-01T09:30:37.878Z</time></trkpt><trkpt lat="44.4697729" lon="7.7153094"><ele>401.5</ele><time>2026-05-01T09:30:38.878Z</time></trkpt><trkpt lat="44.4698463" lon="7.7149271"><ele>402.0</ele><time>2026-05-01T09:30:39.878Z</time></trkpt><trkpt lat="44.4699227" lon="7.714545"><ele>402.5</ele><time>2026-05-01T09:30:40.878Z</time></trkpt><trkpt lat="44.4700061" lon="7.7141555"><ele>403.0</ele><time>2026-05-01T09:30:41.878Z</time></trkpt><trkpt lat="44.4700914" lon="7.7137694"><ele>403.0</ele><time>2026-05-01T09:30:42.878Z</time></trkpt><trkpt lat="44.470176" lon="7.7133836"><ele>403.0</ele><time>2026-05-01T09:30:43.878Z</time></trkpt><trkpt lat="44.4702569" lon="7.7129956"><ele>402.5</ele><time>2026-05-01T09:30:44.878Z</time></trkpt><trkpt lat="44.4703553" lon="7.7126189"><ele>402.0</ele><time>2026-05-01T09:30:45.878Z</time></trkpt><trkpt lat="44.4704509" lon="7.7122343"><ele>402.0</ele><time>2026-05-01T09:30:46.878Z</time></trkpt><trkpt lat="44.4705564" lon="7.7118577"><ele>402.0</ele><time>2026-05-01T09:30:47.878Z</time></trkpt><trkpt lat="44.4706699" lon="7.7114714"><ele>402.0</ele><time>2026-05-01T09:30:48.878Z</time></trkpt><trkpt lat="44.4707785" lon="7.7110929"><ele>402.0</ele><time>2026-05-01T09:30:49.878Z</time></trkpt><trkpt lat="44.4708821" lon="7.7107147"><ele>402.5</ele><time>2026-05-01T09:30:50.878Z</time></trkpt><trkpt lat="44.4709897" lon="7.710331"><ele>403.0</ele><time>2026-05-01T09:30:51.878Z</time></trkpt><trkpt lat="44.4710867" lon="7.7099489"><ele>403.0</ele><time>2026-05-01T09:30:52.878Z</time></trkpt><trkpt lat="44.4711942" lon="7.7095774"><ele>403.0</ele><time>2026-05-01T09:30:53.879Z</time></trkpt><trkpt lat="44.471309" lon="7.7091995"><ele>403.0</ele><time>2026-05-01T09:30:54.878Z</time></trkpt><trkpt lat="44.4714233" lon="7.7088178"><ele>403.0</ele><time>2026-05-01T09:30:55.878Z</time></trkpt><trkpt lat="44.4715284" lon="7.7084415"><ele>403.5</ele><time>2026-05-01T09:30:56.878Z</time></trkpt><trkpt lat="44.4716488" lon="7.7080742"><ele>404.0</ele><time>2026-05-01T09:30:57.878Z</time></trkpt><trkpt lat="44.4717702" lon="7.7076907"><ele>404.0</ele><time>2026-05-01T09:30:58.878Z</time></trkpt><trkpt lat="44.4718929" lon="7.7073058"><ele>404.0</ele><time>2026-05-01T09:30:59.878Z</time></trkpt><trkpt lat="44.4720119" lon="7.7069255"><ele>403.0</ele><time>2026-05-01T09:31:00.878Z</time></trkpt><trkpt lat="44.472128" lon="7.706538"><ele>402.0</ele><time>2026-05-01T09:31:01.878Z</time></trkpt><trkpt lat="44.4722481" lon="7.7061515"><ele>402.0</ele><time>2026-05-01T09:31:02.878Z</time></trkpt><trkpt lat="44.4723657" lon="7.7057735"><ele>402.0</ele><time>2026-05-01T09:31:03.878Z</time></trkpt><trkpt lat="44.4724904" lon="7.7053945"><ele>402.5</ele><time>2026-05-01T09:31:04.878Z</time></trkpt><trkpt lat="44.4726143" lon="7.705017"><ele>403.0</ele><time>2026-05-01T09:31:05.878Z</time></trkpt><trkpt lat="44.4727333" lon="7.7046383"><ele>403.5</ele><time>2026-05-01T09:31:06.878Z</time></trkpt><trkpt lat="44.4728548" lon="7.7042738"><ele>404.0</ele><time>2026-05-01T09:31:07.878Z</time></trkpt><trkpt lat="44.4729744" lon="7.7039029"><ele>403.5</ele><time>2026-05-01T09:31:08.878Z</time></trkpt><trkpt lat="44.4730903" lon="7.7035441"><ele>403.0</ele><time>2026-05-01T09:31:09.878Z</time></trkpt><trkpt lat="44.4732009" lon="7.7031795"><ele>403.0</ele><time>2026-05-01T09:31:10.878Z</time></trkpt><trkpt lat="44.4733204" lon="7.7028145"><ele>403.0</ele><time>2026-05-01T09:31:11.878Z</time></trkpt><trkpt lat="44.4734371" lon="7.7024447"><ele>402.5</ele><time>2026-05-01T09:31:12.878Z</time></trkpt><trkpt lat="44.4735521" lon="7.7020847"><ele>402.0</ele><time>2026-05-01T09:31:13.878Z</time></trkpt><trkpt lat="44.4736595" lon="7.7017184"><ele>403.0</ele><time>2026-05-01T09:31:14.878Z</time></trkpt><trkpt lat="44.4737712" lon="7.7013601"><ele>404.0</ele><time>2026-05-01T09:31:15.878Z</time></trkpt><trkpt lat="44.4738819" lon="7.7010143"><ele>404.5</ele><time>2026-05-01T09:31:16.878Z</time></trkpt><trkpt lat="44.4739917" lon="7.7006522"><ele>405.0</ele><time>2026-05-01T09:31:17.878Z</time></trkpt><trkpt lat="44.4741093" lon="7.700283"><ele>404.5</ele><time>2026-05-01T09:31:18.878Z</time></trkpt><trkpt lat="44.4742347" lon="7.6999144"><ele>404.0</ele><time>2026-05-01T09:31:19.878Z</time></trkpt><trkpt lat="44.4743475" lon="7.6995384"><ele>404.0</ele><time>2026-05-01T09:31:20.878Z</time></trkpt><trkpt lat="44.4744639" lon="7.6991784"><ele>404.0</ele><time>2026-05-01T09:31:21.878Z</time></trkpt><trkpt lat="44.474575" lon="7.6987993"><ele>404.5</ele><time>2026-05-01T09:31:22.878Z</time></trkpt><trkpt lat="44.4746963" lon="7.6984239"><ele>405.0</ele><time>2026-05-01T09:31:23.878Z</time></trkpt><trkpt lat="44.4748184" lon="7.6980411"><ele>405.0</ele><time>2026-05-01T09:31:24.878Z</time></trkpt><trkpt lat="44.474938" lon="7.6976572"><ele>405.0</ele><time>2026-05-01T09:31:25.878Z</time></trkpt><trkpt lat="44.4750521" lon="7.6972819"><ele>404.5</ele><time>2026-05-01T09:31:26.878Z</time></trkpt><trkpt lat="44.475174" lon="7.6969025"><ele>404.0</ele><time>2026-05-01T09:31:27.878Z</time></trkpt><trkpt lat="44.4752856" lon="7.6965281"><ele>404.0</ele><time>2026-05-01T09:31:28.878Z</time></trkpt><trkpt lat="44.4753975" lon="7.6961641"><ele>404.0</ele><time>2026-05-01T09:31:29.878Z</time></trkpt><trkpt lat="44.4755252" lon="7.6957852"><ele>404.0</ele><time>2026-05-01T09:31:30.878Z</time></trkpt><trkpt lat="44.4756477" lon="7.695405"><ele>404.0</ele><time>2026-05-01T09:31:31.878Z</time></trkpt><trkpt lat="44.4757629" lon="7.6950275"><ele>404.0</ele><time>2026-05-01T09:31:32.878Z</time></trkpt><trkpt lat="44.4758843" lon="7.6946325"><ele>404.0</ele><time>2026-05-01T09:31:33.878Z</time></trkpt><trkpt lat="44.4759986" lon="7.6942546"><ele>404.0</ele><time>2026-05-01T09:31:34.878Z</time></trkpt><trkpt lat="44.4761039" lon="7.6938563"><ele>404.0</ele><time>2026-05-01T09:31:35.878Z</time></trkpt><trkpt lat="44.4762219" lon="7.6934653"><ele>404.0</ele><time>2026-05-01T09:31:36.878Z</time></trkpt><trkpt lat="44.4763291" lon="7.693085"><ele>404.0</ele><time>2026-05-01T09:31:37.879Z</time></trkpt><trkpt lat="44.4764357" lon="7.6926834"><ele>404.0</ele><time>2026-05-01T09:31:38.878Z</time></trkpt><trkpt lat="44.4765348" lon="7.6922853"><ele>404.0</ele><time>2026-05-01T09:31:39.878Z</time></trkpt><trkpt lat="44.4766321" lon="7.6919038"><ele>404.0</ele><time>2026-05-01T09:31:40.878Z</time></trkpt><trkpt lat="44.4767261" lon="7.6915049"><ele>404.0</ele><time>2026-05-01T09:31:41.878Z</time></trkpt><trkpt lat="44.476809" lon="7.6911071"><ele>404.0</ele><time>2026-05-01T09:31:42.878Z</time></trkpt><trkpt lat="44.4768858" lon="7.690713"><ele>404.0</ele><time>2026-05-01T09:31:43.878Z</time></trkpt><trkpt lat="44.4769537" lon="7.6903216"><ele>404.5</ele><time>2026-05-01T09:31:44.878Z</time></trkpt><trkpt lat="44.4770087" lon="7.6899234"><ele>405.0</ele><time>2026-05-01T09:31:45.878Z</time></trkpt><trkpt lat="44.4770653" lon="7.6895257"><ele>404.5</ele><time>2026-05-01T09:31:46.878Z</time></trkpt><trkpt lat="44.4771124" lon="7.689139"><ele>404.0</ele><time>2026-05-01T09:31:47.878Z</time></trkpt><trkpt lat="44.4771503" lon="7.6887517"><ele>404.5</ele><time>2026-05-01T09:31:48.878Z</time></trkpt><trkpt lat="44.4771783" lon="7.6883656"><ele>405.0</ele><time>2026-05-01T09:31:49.878Z</time></trkpt><trkpt lat="44.4771974" lon="7.6879811"><ele>405.0</ele><time>2026-05-01T09:31:50.879Z</time></trkpt><trkpt lat="44.4772228" lon="7.6875943"><ele>405.0</ele><time>2026-05-01T09:31:51.878Z</time></trkpt><trkpt lat="44.4772285" lon="7.687226"><ele>405.0</ele><time>2026-05-01T09:31:52.878Z</time></trkpt><trkpt lat="44.4772259" lon="7.6868574"><ele>405.0</ele><time>2026-05-01T09:31:53.878Z</time></trkpt><trkpt lat="44.477218" lon="7.686483"><ele>405.0</ele><time>2026-05-01T09:31:54.878Z</time></trkpt><trkpt lat="44.4772005" lon="7.6861039"><ele>405.0</ele><time>2026-05-01T09:31:55.878Z</time></trkpt><trkpt lat="44.4771794" lon="7.6857276"><ele>405.0</ele><time>2026-05-01T09:31:56.878Z</time></trkpt><trkpt lat="44.4771581" lon="7.6853533"><ele>405.0</ele><time>2026-05-01T09:31:57.878Z</time></trkpt><trkpt lat="44.4771186" lon="7.6849686"><ele>405.0</ele><time>2026-05-01T09:31:58.878Z</time></trkpt><trkpt lat="44.4770766" lon="7.6845975"><ele>405.0</ele><time>2026-05-01T09:31:59.878Z</time></trkpt><trkpt lat="44.4770203" lon="7.6842108"><ele>405.5</ele><time>2026-05-01T09:32:00.879Z</time></trkpt><trkpt lat="44.4769589" lon="7.6838272"><ele>406.0</ele><time>2026-05-01T09:32:01.878Z</time></trkpt><trkpt lat="44.4768973" lon="7.6834412"><ele>407.0</ele><time>2026-05-01T09:32:02.878Z</time></trkpt><trkpt lat="44.4768341" lon="7.6830575"><ele>408.0</ele><time>2026-05-01T09:32:03.879Z</time></trkpt><trkpt lat="44.4762707" lon="7.6808233"><ele>407.5</ele><time>2026-05-01T09:32:09.878Z</time></trkpt><trkpt lat="44.4761489" lon="7.6804358"><ele>407.0</ele><time>2026-05-01T09:32:10.879Z</time></trkpt><trkpt lat="44.4760122" lon="7.6800776"><ele>404.0</ele><time>2026-05-01T09:32:11.878Z</time></trkpt><trkpt lat="44.4758604" lon="7.6797363"><ele>401.0</ele><time>2026-05-01T09:32:12.878Z</time></trkpt><trkpt lat="44.4757182" lon="7.6793913"><ele>399.0</ele><time>2026-05-01T09:32:13.878Z</time></trkpt><trkpt lat="44.4755781" lon="7.6790431"><ele>397.0</ele><time>2026-05-01T09:32:14.878Z</time></trkpt><trkpt lat="44.475429" lon="7.678715"><ele>390.5</ele><time>2026-05-01T09:32:15.878Z</time></trkpt><trkpt lat="44.4752573" lon="7.6783873"><ele>384.0</ele><time>2026-05-01T09:32:16.878Z</time></trkpt><trkpt lat="44.4750857" lon="7.6780687"><ele>376.0</ele><time>2026-05-01T09:32:17.878Z</time></trkpt><trkpt lat="44.4749181" lon="7.6777437"><ele>368.0</ele><time>2026-05-01T09:32:18.878Z</time></trkpt><trkpt lat="44.4747376" lon="7.6774158"><ele>368.0</ele><time>2026-05-01T09:32:19.878Z</time></trkpt><trkpt lat="44.4745657" lon="7.6771078"><ele>368.0</ele><time>2026-05-01T09:32:20.878Z</time></trkpt><trkpt lat="44.4743829" lon="7.6768045"><ele>368.0</ele><time>2026-05-01T09:32:21.878Z</time></trkpt><trkpt lat="44.4742027" lon="7.6765146"><ele>368.0</ele><time>2026-05-01T09:32:22.878Z</time></trkpt><trkpt lat="44.474013" lon="7.6762242"><ele>368.0</ele><time>2026-05-01T09:32:23.878Z</time></trkpt><trkpt lat="44.4738362" lon="7.67593"><ele>368.0</ele><time>2026-05-01T09:32:24.878Z</time></trkpt><trkpt lat="44.4736459" lon="7.675637"><ele>368.0</ele><time>2026-05-01T09:32:25.878Z</time></trkpt><trkpt lat="44.4734493" lon="7.6753517"><ele>368.0</ele><time>2026-05-01T09:32:26.878Z</time></trkpt><trkpt lat="44.4732459" lon="7.6750661"><ele>368.0</ele><time>2026-05-01T09:32:27.878Z</time></trkpt><trkpt lat="44.4730335" lon="7.6747835"><ele>368.0</ele><time>2026-05-01T09:32:28.878Z</time></trkpt><trkpt lat="44.4728076" lon="7.6745044"><ele>367.5</ele><time>2026-05-01T09:32:29.878Z</time></trkpt><trkpt lat="44.4725882" lon="7.6742031"><ele>367.0</ele><time>2026-05-01T09:32:30.878Z</time></trkpt><trkpt lat="44.4723778" lon="7.6738927"><ele>366.0</ele><time>2026-05-01T09:32:31.878Z</time></trkpt><trkpt lat="44.4721691" lon="7.6735858"><ele>365.0</ele><time>2026-05-01T09:32:32.878Z</time></trkpt><trkpt lat="44.4719587" lon="7.6732907"><ele>365.0</ele><time>2026-05-01T09:32:33.878Z</time></trkpt><trkpt lat="44.4717436" lon="7.6729918"><ele>365.0</ele><time>2026-05-01T09:32:34.878Z</time></trkpt><trkpt lat="44.4715294" lon="7.6726872"><ele>365.0</ele><time>2026-05-01T09:32:35.878Z</time></trkpt><trkpt lat="44.4713152" lon="7.6723847"><ele>365.0</ele><time>2026-05-01T09:32:36.878Z</time></trkpt><trkpt lat="44.471107" lon="7.6720848"><ele>368.0</ele><time>2026-05-01T09:32:37.878Z</time></trkpt><trkpt lat="44.4708932" lon="7.6717844"><ele>371.0</ele><time>2026-05-01T09:32:38.878Z</time></trkpt><trkpt lat="44.470676" lon="7.6714878"><ele>371.0</ele><time>2026-05-01T09:32:39.878Z</time></trkpt><trkpt lat="44.4704702" lon="7.6711776"><ele>371.0</ele><time>2026-05-01T09:32:40.878Z</time></trkpt><trkpt lat="44.4702674" lon="7.6708665"><ele>371.5</ele><time>2026-05-01T09:32:41.878Z</time></trkpt><trkpt lat="44.4700605" lon="7.670559"><ele>372.0</ele><time>2026-05-01T09:32:42.878Z</time></trkpt><trkpt lat="44.46986" lon="7.6702627"><ele>372.5</ele><time>2026-05-01T09:32:43.878Z</time></trkpt><trkpt lat="44.4696484" lon="7.6699591"><ele>373.0</ele><time>2026-05-01T09:32:44.878Z</time></trkpt><trkpt lat="44.4694438" lon="7.6696714"><ele>372.0</ele><time>2026-05-01T09:32:45.878Z</time></trkpt><trkpt lat="44.4692345" lon="7.6693817"><ele>371.0</ele><time>2026-05-01T09:32:46.878Z</time></trkpt><trkpt lat="44.4690253" lon="7.6690869"><ele>371.0</ele><time>2026-05-01T09:32:47.878Z</time></trkpt><trkpt lat="44.4688105" lon="7.668798"><ele>371.0</ele><time>2026-05-01T09:32:48.878Z</time></trkpt><trkpt lat="44.4686025" lon="7.6685195"><ele>372.5</ele><time>2026-05-01T09:32:49.878Z</time></trkpt><trkpt lat="44.4683892" lon="7.6682346"><ele>374.0</ele><time>2026-05-01T09:32:50.878Z</time></trkpt><trkpt lat="44.4681808" lon="7.667957"><ele>373.5</ele><time>2026-05-01T09:32:51.878Z</time></trkpt><trkpt lat="44.4679684" lon="7.6676766"><ele>373.0</ele><time>2026-05-01T09:32:52.878Z</time></trkpt><trkpt lat="44.4677517" lon="7.6673984"><ele>373.0</ele><time>2026-05-01T09:32:53.878Z</time></trkpt><trkpt lat="44.4675391" lon="7.6671286"><ele>373.0</ele><time>2026-05-01T09:32:54.878Z</time></trkpt><trkpt lat="44.4673208" lon="7.6668595"><ele>374.5</ele><time>2026-05-01T09:32:55.878Z</time></trkpt><trkpt lat="44.4670983" lon="7.6665962"><ele>376.0</ele><time>2026-05-01T09:32:56.878Z</time></trkpt><trkpt lat="44.466873" lon="7.6663325"><ele>375.0</ele><time>2026-05-01T09:32:57.878Z</time></trkpt><trkpt lat="44.4666511" lon="7.6660842"><ele>374.0</ele><time>2026-05-01T09:32:58.878Z</time></trkpt><trkpt lat="44.4664273" lon="7.6658209"><ele>375.5</ele><time>2026-05-01T09:32:59.878Z</time></trkpt><trkpt lat="44.4661941" lon="7.6655651"><ele>377.0</ele><time>2026-05-01T09:33:00.878Z</time></trkpt><trkpt lat="44.4659618" lon="7.665307"><ele>375.5</ele><time>2026-05-01T09:33:01.878Z</time></trkpt><trkpt lat="44.465725" lon="7.6650471"><ele>374.0</ele><time>2026-05-01T09:33:02.878Z</time></trkpt><trkpt lat="44.4654767" lon="7.6647955"><ele>375.0</ele><time>2026-05-01T09:33:03.878Z</time></trkpt><trkpt lat="44.4652396" lon="7.6645335"><ele>376.0</ele><time>2026-05-01T09:33:04.878Z</time></trkpt><trkpt lat="44.464994" lon="7.6642829"><ele>376.0</ele><time>2026-05-01T09:33:05.879Z</time></trkpt><trkpt lat="44.4647502" lon="7.6640442"><ele>376.0</ele><time>2026-05-01T09:33:06.878Z</time></trkpt><trkpt lat="44.4645023" lon="7.6637974"><ele>375.5</ele><time>2026-05-01T09:33:07.878Z</time></trkpt><trkpt lat="44.4642523" lon="7.6635472"><ele>375.0</ele><time>2026-05-01T09:33:08.878Z</time></trkpt><trkpt lat="44.4640045" lon="7.6632933"><ele>376.0</ele><time>2026-05-01T09:33:09.878Z</time></trkpt><trkpt lat="44.4637574" lon="7.6630405"><ele>377.0</ele><time>2026-05-01T09:33:10.878Z</time></trkpt><trkpt lat="44.4635104" lon="7.6627791"><ele>377.0</ele><time>2026-05-01T09:33:11.878Z</time></trkpt><trkpt lat="44.4632594" lon="7.662529"><ele>377.0</ele><time>2026-05-01T09:33:12.878Z</time></trkpt><trkpt lat="44.4630198" lon="7.6622717"><ele>380.0</ele><time>2026-05-01T09:33:13.878Z</time></trkpt><trkpt lat="44.4627643" lon="7.6620211"><ele>383.0</ele><time>2026-05-01T09:33:14.878Z</time></trkpt><trkpt lat="44.462519" lon="7.6617548"><ele>383.0</ele><time>2026-05-01T09:33:15.878Z</time></trkpt><trkpt lat="44.4622665" lon="7.661488"><ele>383.0</ele><time>2026-05-01T09:33:16.879Z</time></trkpt><trkpt lat="44.4620231" lon="7.6612337"><ele>384.0</ele><time>2026-05-01T09:33:17.878Z</time></trkpt><trkpt lat="44.4617848" lon="7.6609642"><ele>385.0</ele><time>2026-05-01T09:33:18.879Z</time></trkpt><trkpt lat="44.4615581" lon="7.6606953"><ele>385.0</ele><time>2026-05-01T09:33:19.878Z</time></trkpt><trkpt lat="44.4613339" lon="7.6604163"><ele>385.0</ele><time>2026-05-01T09:33:20.878Z</time></trkpt><trkpt lat="44.4611086" lon="7.6601359"><ele>383.0</ele><time>2026-05-01T09:33:21.878Z</time></trkpt><trkpt lat="44.4608888" lon="7.6598412"><ele>381.0</ele><time>2026-05-01T09:33:22.878Z</time></trkpt><trkpt lat="44.4606781" lon="7.6595518"><ele>380.0</ele><time>2026-05-01T09:33:23.878Z</time></trkpt><trkpt lat="44.4604625" lon="7.6592632"><ele>379.0</ele><time>2026-05-01T09:33:24.878Z</time></trkpt><trkpt lat="44.4602481" lon="7.6589739"><ele>382.5</ele><time>2026-05-01T09:33:25.878Z</time></trkpt><trkpt lat="44.4600409" lon="7.6586814"><ele>386.0</ele><time>2026-05-01T09:33:26.878Z</time></trkpt><trkpt lat="44.4598327" lon="7.6583839"><ele>386.0</ele><time>2026-05-01T09:33:27.878Z</time></trkpt><trkpt lat="44.4596249" lon="7.6580923"><ele>386.0</ele><time>2026-05-01T09:33:28.878Z</time></trkpt><trkpt lat="44.459419" lon="7.6577902"><ele>387.0</ele><time>2026-05-01T09:33:29.878Z</time></trkpt><trkpt lat="44.4592212" lon="7.6574944"><ele>388.0</ele><time>2026-05-01T09:33:30.878Z</time></trkpt><trkpt lat="44.4590222" lon="7.6572009"><ele>387.5</ele><time>2026-05-01T09:33:31.878Z</time></trkpt><trkpt lat="44.4588205" lon="7.6568998"><ele>387.0</ele><time>2026-05-01T09:33:32.878Z</time></trkpt><trkpt lat="44.458618" lon="7.6565943"><ele>388.0</ele><time>2026-05-01T09:33:33.878Z</time></trkpt><trkpt lat="44.4584162" lon="7.6562883"><ele>389.0</ele><time>2026-05-01T09:33:34.878Z</time></trkpt><trkpt lat="44.4582195" lon="7.6559852"><ele>389.0</ele><time>2026-05-01T09:33:35.879Z</time></trkpt><trkpt lat="44.4580117" lon="7.6556863"><ele>389.0</ele><time>2026-05-01T09:33:36.878Z</time></trkpt><trkpt lat="44.457803" lon="7.6553744"><ele>386.5</ele><time>2026-05-01T09:33:37.878Z</time></trkpt><trkpt lat="44.4575947" lon="7.6550759"><ele>384.0</ele><time>2026-05-01T09:33:38.878Z</time></trkpt><trkpt lat="44.45739" lon="7.6547661"><ele>384.0</ele><time>2026-05-01T09:33:39.878Z</time></trkpt><trkpt lat="44.4571816" lon="7.6544663"><ele>384.0</ele><time>2026-05-01T09:33:40.878Z</time></trkpt><trkpt lat="44.456981" lon="7.6541729"><ele>385.0</ele><time>2026-05-01T09:33:41.878Z</time></trkpt><trkpt lat="44.4567818" lon="7.653871"><ele>386.0</ele><time>2026-05-01T09:33:42.878Z</time></trkpt><trkpt lat="44.4565779" lon="7.6535625"><ele>386.0</ele><time>2026-05-01T09:33:43.878Z</time></trkpt><trkpt lat="44.4563754" lon="7.6532605"><ele>386.0</ele><time>2026-05-01T09:33:44.878Z</time></trkpt><trkpt lat="44.4561786" lon="7.6529638"><ele>387.0</ele><time>2026-05-01T09:33:45.878Z</time></trkpt><trkpt lat="44.4559898" lon="7.6526535"><ele>388.0</ele><time>2026-05-01T09:33:46.878Z</time></trkpt><trkpt lat="44.4557958" lon="7.6523536"><ele>388.0</ele><time>2026-05-01T09:33:47.878Z</time></trkpt><trkpt lat="44.4556039" lon="7.652045"><ele>388.0</ele><time>2026-05-01T09:33:48.878Z</time></trkpt><trkpt lat="44.4554114" lon="7.6517363"><ele>388.0</ele><time>2026-05-01T09:33:49.878Z</time></trkpt><trkpt lat="44.4552228" lon="7.651425"><ele>388.0</ele><time>2026-05-01T09:33:50.878Z</time></trkpt><trkpt lat="44.4550287" lon="7.6511128"><ele>387.0</ele><time>2026-05-01T09:33:51.878Z</time></trkpt><trkpt lat="44.4548355" lon="7.6508046"><ele>386.0</ele><time>2026-05-01T09:33:52.878Z</time></trkpt><trkpt lat="44.4546499" lon="7.6504916"><ele>387.5</ele><time>2026-05-01T09:33:53.878Z</time></trkpt><trkpt lat="44.4544583" lon="7.6501785"><ele>389.0</ele><time>2026-05-01T09:33:54.878Z</time></trkpt><trkpt lat="44.4542654" lon="7.6498655"><ele>389.0</ele><time>2026-05-01T09:33:55.878Z</time></trkpt><trkpt lat="44.4540746" lon="7.6495545"><ele>389.0</ele><time>2026-05-01T09:33:56.878Z</time></trkpt><trkpt lat="44.4538869" lon="7.6492405"><ele>390.0</ele><time>2026-05-01T09:33:57.878Z</time></trkpt><trkpt lat="44.4537014" lon="7.6489337"><ele>391.0</ele><time>2026-05-01T09:33:58.878Z</time></trkpt><trkpt lat="44.4535118" lon="7.6486252"><ele>392.5</ele><time>2026-05-01T09:33:59.878Z</time></trkpt><trkpt lat="44.4533283" lon="7.6483134"><ele>394.0</ele><time>2026-05-01T09:34:00.879Z</time></trkpt><trkpt lat="44.4531426" lon="7.6480009"><ele>393.5</ele><time>2026-05-01T09:34:01.878Z</time></trkpt><trkpt lat="44.4529605" lon="7.6476815"><ele>393.0</ele><time>2026-05-01T09:34:02.878Z</time></trkpt><trkpt lat="44.452778" lon="7.6473702"><ele>393.0</ele><time>2026-05-01T09:34:03.878Z</time></trkpt><trkpt lat="44.4525954" lon="7.6470439"><ele>393.0</ele><time>2026-05-01T09:34:04.878Z</time></trkpt><trkpt lat="44.4524104" lon="7.6467181"><ele>393.0</ele><time>2026-05-01T09:34:05.878Z</time></trkpt><trkpt lat="44.4522288" lon="7.646391"><ele>393.0</ele><time>2026-05-01T09:34:06.878Z</time></trkpt><trkpt lat="44.4520428" lon="7.6460655"><ele>393.0</ele><time>2026-05-01T09:34:07.878Z</time></trkpt><trkpt lat="44.4518554" lon="7.6457364"><ele>393.0</ele><time>2026-05-01T09:34:08.879Z</time></trkpt><trkpt lat="44.4516679" lon="7.6454025"><ele>394.0</ele><time>2026-05-01T09:34:09.878Z</time></trkpt><trkpt lat="44.4514861" lon="7.6450782"><ele>395.0</ele><time>2026-05-01T09:34:10.878Z</time></trkpt><trkpt lat="44.4513019" lon="7.6447447"><ele>394.0</ele><time>2026-05-01T09:34:11.878Z</time></trkpt><trkpt lat="44.4511131" lon="7.6444115"><ele>393.0</ele><time>2026-05-01T09:34:12.878Z</time></trkpt><trkpt lat="44.4509319" lon="7.6440754"><ele>393.0</ele><time>2026-05-01T09:34:13.878Z</time></trkpt><trkpt lat="44.4507385" lon="7.6437519"><ele>393.0</ele><time>2026-05-01T09:34:14.878Z</time></trkpt><trkpt lat="44.45055" lon="7.6434243"><ele>396.0</ele><time>2026-05-01T09:34:15.878Z</time></trkpt><trkpt lat="44.4503704" lon="7.643094"><ele>399.0</ele><time>2026-05-01T09:34:16.878Z</time></trkpt><trkpt lat="44.4501875" lon="7.6427695"><ele>399.0</ele><time>2026-05-01T09:34:17.879Z</time></trkpt><trkpt lat="44.4500078" lon="7.6424509"><ele>399.0</ele><time>2026-05-01T09:34:18.878Z</time></trkpt><trkpt lat="44.4498243" lon="7.6421302"><ele>397.0</ele><time>2026-05-01T09:34:19.878Z</time></trkpt><trkpt lat="44.4496469" lon="7.6418041"><ele>395.0</ele><time>2026-05-01T09:34:20.878Z</time></trkpt><trkpt lat="44.4494655" lon="7.6414777"><ele>397.0</ele><time>2026-05-01T09:34:21.878Z</time></trkpt><trkpt lat="44.4492869" lon="7.6411572"><ele>399.0</ele><time>2026-05-01T09:34:22.878Z</time></trkpt><trkpt lat="44.4491168" lon="7.6408331"><ele>399.0</ele><time>2026-05-01T09:34:23.878Z</time></trkpt><trkpt lat="44.4489409" lon="7.640512"><ele>399.0</ele><time>2026-05-01T09:34:24.878Z</time></trkpt><trkpt lat="44.4487633" lon="7.6401965"><ele>403.0</ele><time>2026-05-01T09:34:25.878Z</time></trkpt><trkpt lat="44.4485806" lon="7.6398807"><ele>407.0</ele><time>2026-05-01T09:34:26.878Z</time></trkpt><trkpt lat="44.4484008" lon="7.6395641"><ele>404.5</ele><time>2026-05-01T09:34:27.878Z</time></trkpt><trkpt lat="44.448219" lon="7.6392407"><ele>402.0</ele><time>2026-05-01T09:34:28.878Z</time></trkpt><trkpt lat="44.4480281" lon="7.6389229"><ele>403.0</ele><time>2026-05-01T09:34:29.878Z</time></trkpt><trkpt lat="44.4478388" lon="7.6386018"><ele>404.0</ele><time>2026-05-01T09:34:30.878Z</time></trkpt><trkpt lat="44.447655" lon="7.6382947"><ele>404.0</ele><time>2026-05-01T09:34:31.878Z</time></trkpt><trkpt lat="44.4474681" lon="7.6379815"><ele>404.0</ele><time>2026-05-01T09:34:32.878Z</time></trkpt><trkpt lat="44.447284" lon="7.6376648"><ele>403.0</ele><time>2026-05-01T09:34:33.878Z</time></trkpt><trkpt lat="44.4470855" lon="7.6373509"><ele>402.0</ele><time>2026-05-01T09:34:34.878Z</time></trkpt><trkpt lat="44.4468921" lon="7.6370452"><ele>401.5</ele><time>2026-05-01T09:34:35.878Z</time></trkpt><trkpt lat="44.4466851" lon="7.6367546"><ele>401.0</ele><time>2026-05-01T09:34:36.878Z</time></trkpt><trkpt lat="44.446487" lon="7.6364646"><ele>403.0</ele><time>2026-05-01T09:34:37.878Z</time></trkpt><trkpt lat="44.4462839" lon="7.6361845"><ele>405.0</ele><time>2026-05-01T09:34:38.878Z</time></trkpt><trkpt lat="44.446083" lon="7.635897"><ele>406.5</ele><time>2026-05-01T09:34:39.878Z</time></trkpt><trkpt lat="44.445869" lon="7.6356075"><ele>408.0</ele><time>2026-05-01T09:34:40.878Z</time></trkpt><trkpt lat="44.4456732" lon="7.6353286"><ele>408.0</ele><time>2026-05-01T09:34:41.878Z</time></trkpt><trkpt lat="44.445473" lon="7.6350589"><ele>408.0</ele><time>2026-05-01T09:34:42.878Z</time></trkpt><trkpt lat="44.4452733" lon="7.6347884"><ele>407.5</ele><time>2026-05-01T09:34:43.878Z</time></trkpt><trkpt lat="44.4450742" lon="7.6345134"><ele>407.0</ele><time>2026-05-01T09:34:44.878Z</time></trkpt><trkpt lat="44.4448691" lon="7.6342388"><ele>406.0</ele><time>2026-05-01T09:34:45.878Z</time></trkpt><trkpt lat="44.4446729" lon="7.6339647"><ele>405.0</ele><time>2026-05-01T09:34:46.878Z</time></trkpt><trkpt lat="44.4444786" lon="7.6336898"><ele>405.0</ele><time>2026-05-01T09:34:47.878Z</time></trkpt><trkpt lat="44.4442789" lon="7.6334146"><ele>405.0</ele><time>2026-05-01T09:34:48.878Z</time></trkpt><trkpt lat="44.4440798" lon="7.6331403"><ele>405.0</ele><time>2026-05-01T09:34:49.878Z</time></trkpt><trkpt lat="44.4438834" lon="7.6328632"><ele>405.0</ele><time>2026-05-01T09:34:50.878Z</time></trkpt><trkpt lat="44.4436934" lon="7.6325779"><ele>407.0</ele><time>2026-05-01T09:34:51.878Z</time></trkpt><trkpt lat="44.4435116" lon="7.6322848"><ele>409.0</ele><time>2026-05-01T09:34:52.878Z</time></trkpt><trkpt lat="44.4433396" lon="7.6319879"><ele>409.5</ele><time>2026-05-01T09:34:53.878Z</time></trkpt><trkpt lat="44.4431607" lon="7.6316798"><ele>410.0</ele><time>2026-05-01T09:34:54.878Z</time></trkpt><trkpt lat="44.4429842" lon="7.631372"><ele>410.0</ele><time>2026-05-01T09:34:55.878Z</time></trkpt><trkpt lat="44.4428077" lon="7.6310671"><ele>410.0</ele><time>2026-05-01T09:34:56.878Z</time></trkpt><trkpt lat="44.4426341" lon="7.6307577"><ele>410.0</ele><time>2026-05-01T09:34:57.878Z</time></trkpt><trkpt lat="44.4424638" lon="7.6304397"><ele>410.0</ele><time>2026-05-01T09:34:58.878Z</time></trkpt><trkpt lat="44.4422919" lon="7.6301233"><ele>411.5</ele><time>2026-05-01T09:34:59.878Z</time></trkpt><trkpt lat="44.4421158" lon="7.6298022"><ele>413.0</ele><time>2026-05-01T09:35:00.878Z</time></trkpt><trkpt lat="44.441941" lon="7.6294813"><ele>413.0</ele><time>2026-05-01T09:35:01.878Z</time></trkpt><trkpt lat="44.4417641" lon="7.6291529"><ele>413.0</ele><time>2026-05-01T09:35:02.878Z</time></trkpt><trkpt lat="44.4416001" lon="7.6288305"><ele>413.5</ele><time>2026-05-01T09:35:03.878Z</time></trkpt><trkpt lat="44.4414193" lon="7.6284903"><ele>414.0</ele><time>2026-05-01T09:35:04.878Z</time></trkpt><trkpt lat="44.4412413" lon="7.6281639"><ele>414.0</ele><time>2026-05-01T09:35:05.878Z</time></trkpt><trkpt lat="44.4410679" lon="7.6278346"><ele>414.0</ele><time>2026-05-01T09:35:06.878Z</time></trkpt><trkpt lat="44.4408911" lon="7.6275016"><ele>414.5</ele><time>2026-05-01T09:35:07.878Z</time></trkpt><trkpt lat="44.4407109" lon="7.6271711"><ele>415.0</ele><time>2026-05-01T09:35:08.878Z</time></trkpt><trkpt lat="44.4405321" lon="7.6268401"><ele>418.5</ele><time>2026-05-01T09:35:09.878Z</time></trkpt><trkpt lat="44.4403489" lon="7.6265086"><ele>422.0</ele><time>2026-05-01T09:35:10.878Z</time></trkpt><trkpt lat="44.440174" lon="7.6261707"><ele>419.5</ele><time>2026-05-01T09:35:11.879Z</time></trkpt><trkpt lat="44.4399956" lon="7.6258354"><ele>417.0</ele><time>2026-05-01T09:35:12.878Z</time></trkpt><trkpt lat="44.4398169" lon="7.6255048"><ele>416.5</ele><time>2026-05-01T09:35:13.878Z</time></trkpt><trkpt lat="44.4396429" lon="7.6251742"><ele>416.0</ele><time>2026-05-01T09:35:14.878Z</time></trkpt><trkpt lat="44.439462" lon="7.6248455"><ele>417.5</ele><time>2026-05-01T09:35:15.878Z</time></trkpt><trkpt lat="44.4392846" lon="7.6245125"><ele>419.0</ele><time>2026-05-01T09:35:16.878Z</time></trkpt><trkpt lat="44.4391095" lon="7.6241842"><ele>419.0</ele><time>2026-05-01T09:35:17.878Z</time></trkpt><trkpt lat="44.4389329" lon="7.6238508"><ele>419.0</ele><time>2026-05-01T09:35:18.878Z</time></trkpt><trkpt lat="44.4387614" lon="7.6235245"><ele>418.0</ele><time>2026-05-01T09:35:19.879Z</time></trkpt><trkpt lat="44.4385886" lon="7.6231941"><ele>417.0</ele><time>2026-05-01T09:35:20.878Z</time></trkpt><trkpt lat="44.4384151" lon="7.6228676"><ele>415.5</ele><time>2026-05-01T09:35:21.878Z</time></trkpt><trkpt lat="44.4382396" lon="7.6225386"><ele>414.0</ele><time>2026-05-01T09:35:22.878Z</time></trkpt><trkpt lat="44.4380641" lon="7.622216"><ele>415.0</ele><time>2026-05-01T09:35:23.879Z</time></trkpt><trkpt lat="44.4378869" lon="7.6218946"><ele>416.0</ele><time>2026-05-01T09:35:24.879Z</time></trkpt><trkpt lat="44.4377084" lon="7.6215675"><ele>416.0</ele><time>2026-05-01T09:35:25.878Z</time></trkpt><trkpt lat="44.4375408" lon="7.6212362"><ele>416.0</ele><time>2026-05-01T09:35:26.878Z</time></trkpt><trkpt lat="44.4373756" lon="7.6209062"><ele>417.5</ele><time>2026-05-01T09:35:27.879Z</time></trkpt><trkpt lat="44.4372014" lon="7.6205869"><ele>419.0</ele><time>2026-05-01T09:35:28.878Z</time></trkpt><trkpt lat="44.4370247" lon="7.6202654"><ele>420.5</ele><time>2026-05-01T09:35:29.878Z</time></trkpt><trkpt lat="44.436851" lon="7.6199442"><ele>422.0</ele><time>2026-05-01T09:35:30.878Z</time></trkpt><trkpt lat="44.4366785" lon="7.6196199"><ele>423.0</ele><time>2026-05-01T09:35:31.878Z</time></trkpt><trkpt lat="44.4365057" lon="7.6192999"><ele>424.0</ele><time>2026-05-01T09:35:32.878Z</time></trkpt><trkpt lat="44.4363327" lon="7.6189784"><ele>425.0</ele><time>2026-05-01T09:35:33.878Z</time></trkpt><trkpt lat="44.4361628" lon="7.6186613"><ele>426.0</ele><time>2026-05-01T09:35:34.878Z</time></trkpt><trkpt lat="44.4359891" lon="7.6183388"><ele>426.5</ele><time>2026-05-01T09:35:35.879Z</time></trkpt><trkpt lat="44.4358175" lon="7.6180206"><ele>427.0</ele><time>2026-05-01T09:35:36.878Z</time></trkpt><trkpt lat="44.4356299" lon="7.6176687"><ele>427.0</ele><time>2026-05-01T09:35:37.878Z</time></trkpt><trkpt lat="44.4354705" lon="7.6173652"><ele>427.0</ele><time>2026-05-01T09:35:38.879Z</time></trkpt><trkpt lat="44.4353038" lon="7.617048"><ele>426.5</ele><time>2026-05-01T09:35:39.878Z</time></trkpt><trkpt lat="44.4351407" lon="7.6167373"><ele>426.0</ele><time>2026-05-01T09:35:40.878Z</time></trkpt><trkpt lat="44.4349712" lon="7.6164192"><ele>426.5</ele><time>2026-05-01T09:35:41.878Z</time></trkpt><trkpt lat="44.4348092" lon="7.6161076"><ele>427.0</ele><time>2026-05-01T09:35:42.878Z</time></trkpt><trkpt lat="44.4346475" lon="7.6158073"><ele>427.0</ele><time>2026-05-01T09:35:43.878Z</time></trkpt><trkpt lat="44.4344877" lon="7.6154919"><ele>427.0</ele><time>2026-05-01T09:35:44.878Z</time></trkpt><trkpt lat="44.4343244" lon="7.6151835"><ele>427.0</ele><time>2026-05-01T09:35:45.878Z</time></trkpt><trkpt lat="44.4341539" lon="7.614867"><ele>427.0</ele><time>2026-05-01T09:35:46.878Z</time></trkpt><trkpt lat="44.4339923" lon="7.6145524"><ele>426.5</ele><time>2026-05-01T09:35:47.878Z</time></trkpt><trkpt lat="44.4338273" lon="7.6142388"><ele>426.0</ele><time>2026-05-01T09:35:48.878Z</time></trkpt><trkpt lat="44.4336614" lon="7.6139156"><ele>424.5</ele><time>2026-05-01T09:35:49.878Z</time></trkpt><trkpt lat="44.4335011" lon="7.6135957"><ele>423.0</ele><time>2026-05-01T09:35:50.878Z</time></trkpt><trkpt lat="44.4333396" lon="7.6132787"><ele>423.0</ele><time>2026-05-01T09:35:51.878Z</time></trkpt><trkpt lat="44.4331785" lon="7.6129718"><ele>423.0</ele><time>2026-05-01T09:35:52.878Z</time></trkpt><trkpt lat="44.4330205" lon="7.6126689"><ele>424.0</ele><time>2026-05-01T09:35:53.878Z</time></trkpt><trkpt lat="44.432866" lon="7.6123853"><ele>425.0</ele><time>2026-05-01T09:35:54.878Z</time></trkpt><trkpt lat="44.4327148" lon="7.6121079"><ele>425.3333333333333</ele><time>2026-05-01T09:35:55.879Z</time></trkpt><trkpt lat="44.4325914" lon="7.6118613"><ele>425.66666666666663</ele><time>2026-05-01T09:35:56.878Z</time></trkpt><trkpt lat="44.4324683" lon="7.6116165"><ele>426.0</ele><time>2026-05-01T09:35:57.878Z</time></trkpt><trkpt lat="44.4323721" lon="7.6113773"><ele>426.0</ele><time>2026-05-01T09:35:58.878Z</time></trkpt><trkpt lat="44.4322894" lon="7.611131"><ele>426.0</ele><time>2026-05-01T09:35:59.878Z</time></trkpt><trkpt lat="44.4322109" lon="7.6108812"><ele>426.0</ele><time>2026-05-01T09:36:00.878Z</time></trkpt><trkpt lat="44.4321426" lon="7.6106473"><ele>426.33333333333337</ele><time>2026-05-01T09:36:01.878Z</time></trkpt><trkpt lat="44.4320749" lon="7.6104216"><ele>426.6666666666667</ele><time>2026-05-01T09:36:02.878Z</time></trkpt><trkpt lat="44.4320025" lon="7.6102027"><ele>427.0</ele><time>2026-05-01T09:36:03.879Z</time></trkpt><trkpt lat="44.4319316" lon="7.6099818"><ele>427.0</ele><time>2026-05-01T09:36:04.878Z</time></trkpt><trkpt lat="44.4318559" lon="7.6097767"><ele>427.0</ele><time>2026-05-01T09:36:05.878Z</time></trkpt><trkpt lat="44.4317777" lon="7.6095826"><ele>427.0</ele><time>2026-05-01T09:36:06.878Z</time></trkpt><trkpt lat="44.4316964" lon="7.6093916"><ele>427.20000000000005</ele><time>2026-05-01T09:36:07.878Z</time></trkpt><trkpt lat="44.4316508" lon="7.6092893"><ele>427.40000000000003</ele><time>2026-05-01T09:36:08.878Z</time></trkpt><trkpt lat="44.4315927" lon="7.6091685"><ele>427.59999999999997</ele><time>2026-05-01T09:36:09.878Z</time></trkpt><trkpt lat="44.4315315" lon="7.6090513"><ele>427.79999999999995</ele><time>2026-05-01T09:36:10.878Z</time></trkpt><trkpt lat="44.4314617" lon="7.6089267"><ele>428.0</ele><time>2026-05-01T09:36:12.878Z</time></trkpt><trkpt lat="44.4314233" lon="7.608853"><ele>427.99999999999994</ele><time>2026-05-01T09:36:14.878Z</time></trkpt><trkpt lat="44.4313916" lon="7.6087684"><ele>428.0</ele><time>2026-05-01T09:36:18.878Z</time></trkpt><trkpt lat="44.431347" lon="7.608681"><ele>428.0</ele><time>2026-05-01T09:37:05.878Z</time></trkpt><trkpt lat="44.4313114" lon="7.6086028"><ele>428.0</ele><time>2026-05-01T09:37:08.878Z</time></trkpt><trkpt lat="44.4312774" lon="7.608487"><ele>427.99999999999994</ele><time>2026-05-01T09:38:34.878Z</time></trkpt><trkpt lat="44.4312208" lon="7.6083841"><ele>428.0</ele><time>2026-05-01T09:38:36.878Z</time></trkpt><trkpt lat="44.4311516" lon="7.6082515"><ele>428.0</ele><time>2026-05-01T09:38:38.878Z</time></trkpt><trkpt lat="44.4310753" lon="7.6081114"><ele>427.99999999999994</ele><time>2026-05-01T09:38:40.878Z</time></trkpt><trkpt lat="44.4310366" lon="7.6080211"><ele>427.99999999999994</ele><time>2026-05-01T09:38:41.878Z</time></trkpt><trkpt lat="44.4309961" lon="7.6079517"><ele>428.0</ele><time>2026-05-01T09:38:42.878Z</time></trkpt><trkpt lat="44.4309076" lon="7.607813"><ele>428.0</ele><time>2026-05-01T09:38:44.878Z</time></trkpt><trkpt lat="44.430849" lon="7.6077324"><ele>427.8333333333333</ele><time>2026-05-01T09:38:46.878Z</time></trkpt><trkpt lat="44.4308012" lon="7.6076746"><ele>427.66666666666663</ele><time>2026-05-01T09:38:48.878Z</time></trkpt><trkpt lat="44.4307518" lon="7.6076134"><ele>427.5</ele><time>2026-05-01T09:38:51.878Z</time></trkpt><trkpt lat="44.4307007" lon="7.6075598"><ele>427.33333333333337</ele><time>2026-05-01T09:40:14.878Z</time></trkpt><trkpt lat="44.4305983" lon="7.6074853"><ele>427.1666666666667</ele><time>2026-05-01T09:40:16.878Z</time></trkpt><trkpt lat="44.4305256" lon="7.6074331"><ele>427.0</ele><time>2026-05-01T09:40:17.878Z</time></trkpt><trkpt lat="44.4304583" lon="7.6073613"><ele>427.6</ele><time>2026-05-01T09:40:18.878Z</time></trkpt><trkpt lat="44.4303915" lon="7.6072865"><ele>428.20000000000005</ele><time>2026-05-01T09:40:19.878Z</time></trkpt><trkpt lat="44.4303314" lon="7.6071785"><ele>428.8</ele><time>2026-05-01T09:40:20.878Z</time></trkpt><trkpt lat="44.4302628" lon="7.6070409"><ele>429.4</ele><time>2026-05-01T09:40:21.879Z</time></trkpt><trkpt lat="44.4301864" lon="7.6068724"><ele>430.0</ele><time>2026-05-01T09:40:22.878Z</time></trkpt><trkpt lat="44.4300941" lon="7.6066771"><ele>430.0</ele><time>2026-05-01T09:40:23.878Z</time></trkpt><trkpt lat="44.4300029" lon="7.6064793"><ele>430.0</ele><time>2026-05-01T09:40:24.878Z</time></trkpt><trkpt lat="44.4299157" lon="7.6062602"><ele>430.0</ele><time>2026-05-01T09:40:25.878Z</time></trkpt><trkpt lat="44.4298183" lon="7.6060317"><ele>430.33333333333337</ele><time>2026-05-01T09:40:26.878Z</time></trkpt><trkpt lat="44.4297192" lon="7.6057891"><ele>430.66666666666663</ele><time>2026-05-01T09:40:27.878Z</time></trkpt><trkpt lat="44.4296116" lon="7.605525"><ele>431.0</ele><time>2026-05-01T09:40:28.878Z</time></trkpt><trkpt lat="44.4295032" lon="7.6052629"><ele>430.0</ele><time>2026-05-01T09:40:29.878Z</time></trkpt><trkpt lat="44.4293921" lon="7.6049875"><ele>429.0</ele><time>2026-05-01T09:40:30.878Z</time></trkpt><trkpt lat="44.4292783" lon="7.6047068"><ele>428.5</ele><time>2026-05-01T09:40:31.878Z</time></trkpt><trkpt lat="44.4291625" lon="7.6044202"><ele>428.0</ele><time>2026-05-01T09:40:32.878Z</time></trkpt><trkpt lat="44.4290502" lon="7.6041401"><ele>428.0</ele><time>2026-05-01T09:40:33.878Z</time></trkpt><trkpt lat="44.4289449" lon="7.6038638"><ele>428.0</ele><time>2026-05-01T09:40:34.878Z</time></trkpt><trkpt lat="44.4288399" lon="7.6035907"><ele>428.0</ele><time>2026-05-01T09:40:35.879Z</time></trkpt><trkpt lat="44.4287233" lon="7.6032968"><ele>430.0</ele><time>2026-05-01T09:40:36.878Z</time></trkpt><trkpt lat="44.4286072" lon="7.6030202"><ele>432.0</ele><time>2026-05-01T09:40:37.878Z</time></trkpt><trkpt lat="44.4284924" lon="7.6027414"><ele>432.0</ele><time>2026-05-01T09:40:38.878Z</time></trkpt><trkpt lat="44.4283858" lon="7.6024557"><ele>432.0</ele><time>2026-05-01T09:40:39.878Z</time></trkpt><trkpt lat="44.4282834" lon="7.602163"><ele>431.0</ele><time>2026-05-01T09:40:40.878Z</time></trkpt><trkpt lat="44.428183" lon="7.6018745"><ele>430.0</ele><time>2026-05-01T09:40:41.878Z</time></trkpt><trkpt lat="44.4280797" lon="7.6015799"><ele>430.0</ele><time>2026-05-01T09:40:42.878Z</time></trkpt><trkpt lat="44.4279838" lon="7.6012977"><ele>430.0</ele><time>2026-05-01T09:40:43.878Z</time></trkpt><trkpt lat="44.4278819" lon="7.6010102"><ele>431.5</ele><time>2026-05-01T09:40:44.878Z</time></trkpt><trkpt lat="44.4277806" lon="7.6007211"><ele>433.0</ele><time>2026-05-01T09:40:45.878Z</time></trkpt><trkpt lat="44.4276867" lon="7.6004225"><ele>433.5</ele><time>2026-05-01T09:40:46.878Z</time></trkpt><trkpt lat="44.4275875" lon="7.6001306"><ele>434.0</ele><time>2026-05-01T09:40:47.878Z</time></trkpt><trkpt lat="44.4275027" lon="7.5998428"><ele>434.0</ele><time>2026-05-01T09:40:48.878Z</time></trkpt><trkpt lat="44.4274108" lon="7.5995501"><ele>434.0</ele><time>2026-05-01T09:40:49.878Z</time></trkpt><trkpt lat="44.427305" lon="7.5992618"><ele>434.0</ele><time>2026-05-01T09:40:50.878Z</time></trkpt><trkpt lat="44.427207" lon="7.598979"><ele>434.0</ele><time>2026-05-01T09:40:51.878Z</time></trkpt><trkpt lat="44.4271183" lon="7.5987"><ele>434.0</ele><time>2026-05-01T09:40:52.878Z</time></trkpt><trkpt lat="44.4270213" lon="7.5984122"><ele>434.5</ele><time>2026-05-01T09:40:53.878Z</time></trkpt><trkpt lat="44.426922" lon="7.5981146"><ele>435.0</ele><time>2026-05-01T09:40:54.879Z</time></trkpt><trkpt lat="44.4268376" lon="7.5978296"><ele>434.33333333333337</ele><time>2026-05-01T09:40:55.878Z</time></trkpt><trkpt lat="44.4267519" lon="7.5975499"><ele>433.6666666666667</ele><time>2026-05-01T09:40:56.878Z</time></trkpt><trkpt lat="44.4266657" lon="7.5972812"><ele>433.0</ele><time>2026-05-01T09:40:57.878Z</time></trkpt><trkpt lat="44.4265749" lon="7.5970063"><ele>433.6666666666667</ele><time>2026-05-01T09:40:58.878Z</time></trkpt><trkpt lat="44.4264887" lon="7.5967309"><ele>434.33333333333337</ele><time>2026-05-01T09:40:59.878Z</time></trkpt><trkpt lat="44.4264008" lon="7.5964543"><ele>435.0</ele><time>2026-05-01T09:41:00.878Z</time></trkpt><trkpt lat="44.4263218" lon="7.5961716"><ele>436.0</ele><time>2026-05-01T09:41:01.878Z</time></trkpt><trkpt lat="44.4262439" lon="7.5959016"><ele>437.0</ele><time>2026-05-01T09:41:02.878Z</time></trkpt><trkpt lat="44.4261659" lon="7.5956312"><ele>438.0</ele><time>2026-05-01T09:41:03.879Z</time></trkpt><trkpt lat="44.4260811" lon="7.5953492"><ele>438.33333333333337</ele><time>2026-05-01T09:41:04.878Z</time></trkpt><trkpt lat="44.4260005" lon="7.5950854"><ele>438.6666666666667</ele><time>2026-05-01T09:41:05.878Z</time></trkpt><trkpt lat="44.4259228" lon="7.5948291"><ele>439.0</ele><time>2026-05-01T09:41:06.878Z</time></trkpt><trkpt lat="44.4258515" lon="7.5945803"><ele>440.0</ele><time>2026-05-01T09:41:07.878Z</time></trkpt><trkpt lat="44.425781" lon="7.5943372"><ele>441.0</ele><time>2026-05-01T09:41:08.878Z</time></trkpt><trkpt lat="44.42572" lon="7.5941154"><ele>442.0</ele><time>2026-05-01T09:41:09.878Z</time></trkpt><trkpt lat="44.4256563" lon="7.5938914"><ele>441.6666666666667</ele><time>2026-05-01T09:41:10.878Z</time></trkpt><trkpt lat="44.4256052" lon="7.5936618"><ele>441.33333333333337</ele><time>2026-05-01T09:41:11.878Z</time></trkpt><trkpt lat="44.4255529" lon="7.5934294"><ele>441.0</ele><time>2026-05-01T09:41:12.878Z</time></trkpt><trkpt lat="44.4255158" lon="7.5931865"><ele>441.0</ele><time>2026-05-01T09:41:13.878Z</time></trkpt><trkpt lat="44.4254897" lon="7.5929421"><ele>441.0</ele><time>2026-05-01T09:41:14.878Z</time></trkpt><trkpt lat="44.4254839" lon="7.5927036"><ele>441.0</ele><time>2026-05-01T09:41:15.878Z</time></trkpt><trkpt lat="44.4254839" lon="7.5924461"><ele>441.0</ele><time>2026-05-01T09:41:16.878Z</time></trkpt><trkpt lat="44.4254988" lon="7.5921875"><ele>441.0</ele><time>2026-05-01T09:41:17.878Z</time></trkpt><trkpt lat="44.4255211" lon="7.5919339"><ele>441.0</ele><time>2026-05-01T09:41:18.878Z</time></trkpt><trkpt lat="44.4255435" lon="7.5916708"><ele>441.66666666666663</ele><time>2026-05-01T09:41:19.878Z</time></trkpt><trkpt lat="44.4255559" lon="7.5914123"><ele>442.3333333333333</ele><time>2026-05-01T09:41:20.878Z</time></trkpt><trkpt lat="44.4255305" lon="7.5911433"><ele>443.0</ele><time>2026-05-01T09:41:21.878Z</time></trkpt><trkpt lat="44.4254975" lon="7.5908553"><ele>443.3333333333333</ele><time>2026-05-01T09:41:22.878Z</time></trkpt><trkpt lat="44.4254394" lon="7.590595"><ele>443.66666666666663</ele><time>2026-05-01T09:41:23.878Z</time></trkpt><trkpt lat="44.4253754" lon="7.5903405"><ele>444.0</ele><time>2026-05-01T09:41:24.878Z</time></trkpt><trkpt lat="44.4252839" lon="7.5901013"><ele>443.33333333333337</ele><time>2026-05-01T09:41:25.878Z</time></trkpt><trkpt lat="44.4251782" lon="7.5898806"><ele>442.6666666666667</ele><time>2026-05-01T09:41:26.878Z</time></trkpt><trkpt lat="44.4250502" lon="7.5896825"><ele>442.0</ele><time>2026-05-01T09:41:27.878Z</time></trkpt><trkpt lat="44.4249129" lon="7.5895093"><ele>442.0</ele><time>2026-05-01T09:41:28.878Z</time></trkpt><trkpt lat="44.4247665" lon="7.5893714"><ele>442.0</ele><time>2026-05-01T09:41:29.878Z</time></trkpt><trkpt lat="44.4246007" lon="7.5892551"><ele>442.0</ele><time>2026-05-01T09:41:30.878Z</time></trkpt><trkpt lat="44.4244257" lon="7.5891783"><ele>442.6666666666667</ele><time>2026-05-01T09:41:31.878Z</time></trkpt><trkpt lat="44.4242486" lon="7.5891242"><ele>443.33333333333337</ele><time>2026-05-01T09:41:32.878Z</time></trkpt><trkpt lat="44.4240678" lon="7.5891001"><ele>444.0</ele><time>2026-05-01T09:41:33.878Z</time></trkpt><trkpt lat="44.423891" lon="7.5891004"><ele>444.66666666666663</ele><time>2026-05-01T09:41:34.878Z</time></trkpt><trkpt lat="44.4237635" lon="7.5891373"><ele>445.3333333333333</ele><time>2026-05-01T09:41:35.878Z</time></trkpt><trkpt lat="44.4235513" lon="7.589289"><ele>446.0</ele><time>2026-05-01T09:41:36.878Z</time></trkpt><trkpt lat="44.4233708" lon="7.5894173"><ele>446.3333333333333</ele><time>2026-05-01T09:41:37.878Z</time></trkpt><trkpt lat="44.4232045" lon="7.5895759"><ele>446.66666666666663</ele><time>2026-05-01T09:41:38.878Z</time></trkpt><trkpt lat="44.4230487" lon="7.5897457"><ele>447.0</ele><time>2026-05-01T09:41:39.878Z</time></trkpt><trkpt lat="44.4228726" lon="7.5899044"><ele>447.0</ele><time>2026-05-01T09:41:40.878Z</time></trkpt><trkpt lat="44.4227063" lon="7.5900685"><ele>447.0</ele><time>2026-05-01T09:41:41.879Z</time></trkpt><trkpt lat="44.422537" lon="7.5902306"><ele>447.0</ele><time>2026-05-01T09:41:42.878Z</time></trkpt><trkpt lat="44.4223656" lon="7.5903907"><ele>447.0</ele><time>2026-05-01T09:41:43.878Z</time></trkpt><trkpt lat="44.4221872" lon="7.5905483"><ele>447.0</ele><time>2026-05-01T09:41:44.878Z</time></trkpt><trkpt lat="44.4220091" lon="7.5907205"><ele>447.0</ele><time>2026-05-01T09:41:45.878Z</time></trkpt><trkpt lat="44.4218211" lon="7.5908953"><ele>448.5</ele><time>2026-05-01T09:41:46.879Z</time></trkpt><trkpt lat="44.4216218" lon="7.5910714"><ele>450.0</ele><time>2026-05-01T09:41:47.878Z</time></trkpt><trkpt lat="44.4214341" lon="7.5912505"><ele>461.0</ele><time>2026-05-01T09:41:48.878Z</time></trkpt><trkpt lat="44.4212411" lon="7.5914311"><ele>472.0</ele><time>2026-05-01T09:41:49.878Z</time></trkpt><trkpt lat="44.4210524" lon="7.5916056"><ele>472.0</ele><time>2026-05-01T09:41:50.879Z</time></trkpt><trkpt lat="44.4208564" lon="7.5917882"><ele>472.0</ele><time>2026-05-01T09:41:51.878Z</time></trkpt><trkpt lat="44.4206563" lon="7.5919721"><ele>473.0</ele><time>2026-05-01T09:41:52.878Z</time></trkpt><trkpt lat="44.4204539" lon="7.5921555"><ele>474.0</ele><time>2026-05-01T09:41:53.878Z</time></trkpt><trkpt lat="44.420251" lon="7.592341"><ele>474.0</ele><time>2026-05-01T09:41:54.878Z</time></trkpt><trkpt lat="44.4200625" lon="7.5925241"><ele>474.0</ele><time>2026-05-01T09:41:55.878Z</time></trkpt><trkpt lat="44.4198669" lon="7.5927084"><ele>473.0</ele><time>2026-05-01T09:41:56.878Z</time></trkpt><trkpt lat="44.4196886" lon="7.5929084"><ele>472.0</ele><time>2026-05-01T09:41:57.878Z</time></trkpt><trkpt lat="44.4195177" lon="7.5931177"><ele>475.5</ele><time>2026-05-01T09:41:58.878Z</time></trkpt><trkpt lat="44.4193512" lon="7.5933381"><ele>479.0</ele><time>2026-05-01T09:41:59.878Z</time></trkpt><trkpt lat="44.4191947" lon="7.5935632"><ele>479.0</ele><time>2026-05-01T09:42:00.878Z</time></trkpt><trkpt lat="44.4190469" lon="7.5937904"><ele>479.0</ele><time>2026-05-01T09:42:01.878Z</time></trkpt><trkpt lat="44.4189021" lon="7.5940148"><ele>479.0</ele><time>2026-05-01T09:42:02.878Z</time></trkpt><trkpt lat="44.4187684" lon="7.5942518"><ele>479.0</ele><time>2026-05-01T09:42:03.878Z</time></trkpt><trkpt lat="44.4186253" lon="7.5944589"><ele>479.0</ele><time>2026-05-01T09:42:04.878Z</time></trkpt><trkpt lat="44.4184631" lon="7.5946522"><ele>479.0</ele><time>2026-05-01T09:42:05.878Z</time></trkpt><trkpt lat="44.4182987" lon="7.59484"><ele>480.0</ele><time>2026-05-01T09:42:06.878Z</time></trkpt><trkpt lat="44.4181071" lon="7.594989"><ele>481.0</ele><time>2026-05-01T09:42:07.878Z</time></trkpt><trkpt lat="44.4179192" lon="7.5951283"><ele>482.0</ele><time>2026-05-01T09:42:08.878Z</time></trkpt><trkpt lat="44.4177241" lon="7.5952528"><ele>482.0</ele><time>2026-05-01T09:42:09.878Z</time></trkpt><trkpt lat="44.4175167" lon="7.5953492"><ele>482.0</ele><time>2026-05-01T09:42:10.878Z</time></trkpt><trkpt lat="44.4173117" lon="7.5954451"><ele>482.0</ele><time>2026-05-01T09:42:11.878Z</time></trkpt><trkpt lat="44.4171153" lon="7.5955429"><ele>482.0</ele><time>2026-05-01T09:42:12.878Z</time></trkpt><trkpt lat="44.4169236" lon="7.5956488"><ele>482.0</ele><time>2026-05-01T09:42:13.878Z</time></trkpt><trkpt lat="44.4167308" lon="7.5957564"><ele>482.0</ele><time>2026-05-01T09:42:14.879Z</time></trkpt><trkpt lat="44.4165572" lon="7.5958906"><ele>482.0</ele><time>2026-05-01T09:42:15.878Z</time></trkpt><trkpt lat="44.4163905" lon="7.5960176"><ele>482.0</ele><time>2026-05-01T09:42:16.878Z</time></trkpt><trkpt lat="44.4162267" lon="7.5961469"><ele>482.0</ele><time>2026-05-01T09:42:17.878Z</time></trkpt><trkpt lat="44.416078" lon="7.5962767"><ele>482.3333333333333</ele><time>2026-05-01T09:42:18.878Z</time></trkpt><trkpt lat="44.4159408" lon="7.596403"><ele>482.66666666666663</ele><time>2026-05-01T09:42:19.878Z</time></trkpt><trkpt lat="44.4158164" lon="7.5965237"><ele>483.0</ele><time>2026-05-01T09:42:20.878Z</time></trkpt><trkpt lat="44.4156954" lon="7.5966472"><ele>483.0</ele><time>2026-05-01T09:42:21.878Z</time></trkpt><trkpt lat="44.4156048" lon="7.5967293"><ele>483.0</ele><time>2026-05-01T09:42:22.878Z</time></trkpt><trkpt lat="44.4155068" lon="7.5968216"><ele>483.0</ele><time>2026-05-01T09:42:23.878Z</time></trkpt><trkpt lat="44.415438" lon="7.5968713"><ele>483.0</ele><time>2026-05-01T09:42:24.878Z</time></trkpt><trkpt lat="44.4153678" lon="7.5968779"><ele>483.0</ele><time>2026-05-01T09:42:25.878Z</time></trkpt><trkpt lat="44.4152946" lon="7.5968651"><ele>483.0</ele><time>2026-05-01T09:42:26.878Z</time></trkpt><trkpt lat="44.4152223" lon="7.5968502"><ele>484.0</ele><time>2026-05-01T09:42:27.878Z</time></trkpt><trkpt lat="44.4151032" lon="7.5968445"><ele>485.0</ele><time>2026-05-01T09:42:28.878Z</time></trkpt><trkpt lat="44.4149875" lon="7.5968438"><ele>486.0</ele><time>2026-05-01T09:42:29.878Z</time></trkpt><trkpt lat="44.4148633" lon="7.5968042"><ele>487.0</ele><time>2026-05-01T09:42:30.878Z</time></trkpt><trkpt lat="44.4147333" lon="7.596751"><ele>487.33333333333337</ele><time>2026-05-01T09:42:31.878Z</time></trkpt><trkpt lat="44.4145975" lon="7.5966517"><ele>487.66666666666663</ele><time>2026-05-01T09:42:32.878Z</time></trkpt><trkpt lat="44.4144588" lon="7.5965505"><ele>488.0</ele><time>2026-05-01T09:42:33.878Z</time></trkpt><trkpt lat="44.4143077" lon="7.5964397"><ele>488.0</ele><time>2026-05-01T09:42:34.879Z</time></trkpt><trkpt lat="44.4141499" lon="7.5963198"><ele>488.0</ele><time>2026-05-01T09:42:35.878Z</time></trkpt><trkpt lat="44.4139947" lon="7.5962008"><ele>488.0</ele><time>2026-05-01T09:42:36.878Z</time></trkpt><trkpt lat="44.4138276" lon="7.5960812"><ele>488.3333333333333</ele><time>2026-05-01T09:42:37.878Z</time></trkpt><trkpt lat="44.4136593" lon="7.5959616"><ele>488.66666666666663</ele><time>2026-05-01T09:42:38.878Z</time></trkpt><trkpt lat="44.4134914" lon="7.5958364"><ele>489.0</ele><time>2026-05-01T09:42:39.878Z</time></trkpt><trkpt lat="44.4133312" lon="7.595714"><ele>489.0</ele><time>2026-05-01T09:42:40.879Z</time></trkpt><trkpt lat="44.4131546" lon="7.5955732"><ele>489.0</ele><time>2026-05-01T09:42:41.878Z</time></trkpt><trkpt lat="44.4129784" lon="7.5954309"><ele>489.0</ele><time>2026-05-01T09:42:42.878Z</time></trkpt><trkpt lat="44.4127988" lon="7.5952982"><ele>489.66666666666663</ele><time>2026-05-01T09:42:43.879Z</time></trkpt><trkpt lat="44.412617" lon="7.5951682"><ele>490.3333333333333</ele><time>2026-05-01T09:42:44.878Z</time></trkpt><trkpt lat="44.4124246" lon="7.5950321"><ele>491.0</ele><time>2026-05-01T09:42:45.878Z</time></trkpt><trkpt lat="44.4122391" lon="7.5948869"><ele>491.0</ele><time>2026-05-01T09:42:46.878Z</time></trkpt><trkpt lat="44.4120488" lon="7.594742"><ele>491.0</ele><time>2026-05-01T09:42:47.878Z</time></trkpt><trkpt lat="44.4118577" lon="7.5945927"><ele>491.0</ele><time>2026-05-01T09:42:48.878Z</time></trkpt><trkpt lat="44.411667" lon="7.5944453"><ele>491.3333333333333</ele><time>2026-05-01T09:42:49.878Z</time></trkpt><trkpt lat="44.4114697" lon="7.5942948"><ele>491.66666666666663</ele><time>2026-05-01T09:42:50.878Z</time></trkpt><trkpt lat="44.4112803" lon="7.5941417"><ele>492.0</ele><time>2026-05-01T09:42:51.878Z</time></trkpt><trkpt lat="44.4110793" lon="7.5939962"><ele>492.0</ele><time>2026-05-01T09:42:52.878Z</time></trkpt><trkpt lat="44.4108804" lon="7.5938462"><ele>492.0</ele><time>2026-05-01T09:42:53.878Z</time></trkpt><trkpt lat="44.4106885" lon="7.5936965"><ele>492.0</ele><time>2026-05-01T09:42:54.878Z</time></trkpt><trkpt lat="44.4104839" lon="7.5935362"><ele>493.0</ele><time>2026-05-01T09:42:55.878Z</time></trkpt><trkpt lat="44.4102867" lon="7.5933727"><ele>494.0</ele><time>2026-05-01T09:42:56.879Z</time></trkpt><trkpt lat="44.4101009" lon="7.5932045"><ele>494.0</ele><time>2026-05-01T09:42:57.878Z</time></trkpt><trkpt lat="44.409908" lon="7.5930322"><ele>494.0</ele><time>2026-05-01T09:42:58.878Z</time></trkpt><trkpt lat="44.4097208" lon="7.5928615"><ele>494.5</ele><time>2026-05-01T09:42:59.878Z</time></trkpt><trkpt lat="44.4095279" lon="7.5926765"><ele>495.0</ele><time>2026-05-01T09:43:00.878Z</time></trkpt><trkpt lat="44.4093408" lon="7.5924865"><ele>495.0</ele><time>2026-05-01T09:43:01.878Z</time></trkpt><trkpt lat="44.4091556" lon="7.5922959"><ele>495.0</ele><time>2026-05-01T09:43:02.878Z</time></trkpt><trkpt lat="44.4089668" lon="7.5921045"><ele>496.5</ele><time>2026-05-01T09:43:03.878Z</time></trkpt><trkpt lat="44.4087806" lon="7.5919128"><ele>498.0</ele><time>2026-05-01T09:43:04.878Z</time></trkpt><trkpt lat="44.4085921" lon="7.5917215"><ele>498.0</ele><time>2026-05-01T09:43:05.879Z</time></trkpt><trkpt lat="44.4084008" lon="7.5915265"><ele>498.0</ele><time>2026-05-01T09:43:06.878Z</time></trkpt><trkpt lat="44.4082121" lon="7.5913328"><ele>498.0</ele><time>2026-05-01T09:43:07.878Z</time></trkpt><trkpt lat="44.4080178" lon="7.5911382"><ele>498.0</ele><time>2026-05-01T09:43:08.878Z</time></trkpt><trkpt lat="44.4078236" lon="7.5909491"><ele>497.5</ele><time>2026-05-01T09:43:09.878Z</time></trkpt><trkpt lat="44.4076275" lon="7.590759"><ele>497.0</ele><time>2026-05-01T09:43:10.878Z</time></trkpt><trkpt lat="44.4074317" lon="7.5905654"><ele>497.0</ele><time>2026-05-01T09:43:11.878Z</time></trkpt><trkpt lat="44.4072397" lon="7.590377"><ele>497.0</ele><time>2026-05-01T09:43:12.878Z</time></trkpt><trkpt lat="44.4070504" lon="7.5901801"><ele>497.0</ele><time>2026-05-01T09:43:13.878Z</time></trkpt><trkpt lat="44.4068631" lon="7.5899927"><ele>497.0</ele><time>2026-05-01T09:43:14.878Z</time></trkpt><trkpt lat="44.4066727" lon="7.5898034"><ele>497.0</ele><time>2026-05-01T09:43:15.878Z</time></trkpt><trkpt lat="44.4064774" lon="7.589617"><ele>497.0</ele><time>2026-05-01T09:43:16.878Z</time></trkpt><trkpt lat="44.4062858" lon="7.5894246"><ele>498.5</ele><time>2026-05-01T09:43:17.878Z</time></trkpt><trkpt lat="44.4060958" lon="7.5892405"><ele>500.0</ele><time>2026-05-01T09:43:18.878Z</time></trkpt><trkpt lat="44.405896" lon="7.58905"><ele>500.0</ele><time>2026-05-01T09:43:19.878Z</time></trkpt><trkpt lat="44.4057" lon="7.5888722"><ele>500.0</ele><time>2026-05-01T09:43:20.878Z</time></trkpt><trkpt lat="44.4055078" lon="7.588707"><ele>499.5</ele><time>2026-05-01T09:43:21.878Z</time></trkpt><trkpt lat="44.4053185" lon="7.5885279"><ele>499.0</ele><time>2026-05-01T09:43:22.878Z</time></trkpt><trkpt lat="44.4051209" lon="7.5883518"><ele>499.0</ele><time>2026-05-01T09:43:23.878Z</time></trkpt><trkpt lat="44.4049278" lon="7.5881779"><ele>499.0</ele><time>2026-05-01T09:43:24.878Z</time></trkpt><trkpt lat="44.4047343" lon="7.5880044"><ele>499.5</ele><time>2026-05-01T09:43:25.879Z</time></trkpt><trkpt lat="44.4045389" lon="7.5878222"><ele>500.0</ele><time>2026-05-01T09:43:26.878Z</time></trkpt><trkpt lat="44.4043414" lon="7.5876437"><ele>500.0</ele><time>2026-05-01T09:43:27.878Z</time></trkpt><trkpt lat="44.4041455" lon="7.5874615"><ele>500.0</ele><time>2026-05-01T09:43:28.878Z</time></trkpt><trkpt lat="44.4039456" lon="7.587283"><ele>500.0</ele><time>2026-05-01T09:43:29.878Z</time></trkpt><trkpt lat="44.4037481" lon="7.5871026"><ele>500.0</ele><time>2026-05-01T09:43:30.878Z</time></trkpt><trkpt lat="44.403552" lon="7.5869241"><ele>500.0</ele><time>2026-05-01T09:43:31.878Z</time></trkpt><trkpt lat="44.4033507" lon="7.5867405"><ele>500.0</ele><time>2026-05-01T09:43:32.878Z</time></trkpt><trkpt lat="44.4031487" lon="7.5865611"><ele>501.5</ele><time>2026-05-01T09:43:33.878Z</time></trkpt><trkpt lat="44.4029529" lon="7.5863807"><ele>503.0</ele><time>2026-05-01T09:43:34.878Z</time></trkpt><trkpt lat="44.4027492" lon="7.586197"><ele>502.5</ele><time>2026-05-01T09:43:35.878Z</time></trkpt><trkpt lat="44.4025476" lon="7.5860167"><ele>502.0</ele><time>2026-05-01T09:43:36.878Z</time></trkpt><trkpt lat="44.4023522" lon="7.585844"><ele>503.5</ele><time>2026-05-01T09:43:37.878Z</time></trkpt><trkpt lat="44.402154" lon="7.5856672"><ele>505.0</ele><time>2026-05-01T09:43:38.878Z</time></trkpt><trkpt lat="44.4019569" lon="7.5854889"><ele>505.5</ele><time>2026-05-01T09:43:39.878Z</time></trkpt><trkpt lat="44.4017677" lon="7.5853144"><ele>506.0</ele><time>2026-05-01T09:43:40.878Z</time></trkpt><trkpt lat="44.4015742" lon="7.5851401"><ele>506.0</ele><time>2026-05-01T09:43:41.878Z</time></trkpt><trkpt lat="44.4013857" lon="7.5849746"><ele>506.0</ele><time>2026-05-01T09:43:42.878Z</time></trkpt><trkpt lat="44.4011983" lon="7.5848044"><ele>506.0</ele><time>2026-05-01T09:43:43.878Z</time></trkpt><trkpt lat="44.4010122" lon="7.5846362"><ele>505.66666666666663</ele><time>2026-05-01T09:43:44.879Z</time></trkpt><trkpt lat="44.4008263" lon="7.5844684"><ele>505.33333333333337</ele><time>2026-05-01T09:43:45.878Z</time></trkpt><trkpt lat="44.4006376" lon="7.5842982"><ele>505.0</ele><time>2026-05-01T09:43:46.879Z</time></trkpt><trkpt lat="44.4004565" lon="7.5841317"><ele>505.6666666666667</ele><time>2026-05-01T09:43:47.878Z</time></trkpt><trkpt lat="44.4002722" lon="7.5839607"><ele>506.33333333333337</ele><time>2026-05-01T09:43:48.878Z</time></trkpt><trkpt lat="44.4000882" lon="7.5837914"><ele>507.0</ele><time>2026-05-01T09:43:49.879Z</time></trkpt><trkpt lat="44.3998973" lon="7.5836146"><ele>507.0</ele><time>2026-05-01T09:43:50.878Z</time></trkpt><trkpt lat="44.3997079" lon="7.5834499"><ele>507.0</ele><time>2026-05-01T09:43:51.878Z</time></trkpt><trkpt lat="44.3995312" lon="7.5832766"><ele>507.0</ele><time>2026-05-01T09:43:52.878Z</time></trkpt><trkpt lat="44.399349" lon="7.5831153"><ele>507.33333333333337</ele><time>2026-05-01T09:43:53.878Z</time></trkpt><trkpt lat="44.3991748" lon="7.5829538"><ele>507.6666666666667</ele><time>2026-05-01T09:43:54.878Z</time></trkpt><trkpt lat="44.3990112" lon="7.5828052"><ele>508.0</ele><time>2026-05-01T09:43:55.878Z</time></trkpt><trkpt lat="44.3988542" lon="7.5826619"><ele>508.33333333333337</ele><time>2026-05-01T09:43:56.878Z</time></trkpt><trkpt lat="44.3987121" lon="7.5825343"><ele>508.66666666666663</ele><time>2026-05-01T09:43:57.878Z</time></trkpt><trkpt lat="44.39858" lon="7.5824113"><ele>509.0</ele><time>2026-05-01T09:43:58.878Z</time></trkpt><trkpt lat="44.3984516" lon="7.5822851"><ele>509.0</ele><time>2026-05-01T09:43:59.878Z</time></trkpt><trkpt lat="44.3983412" lon="7.5821924"><ele>509.0</ele><time>2026-05-01T09:44:00.878Z</time></trkpt><trkpt lat="44.3982326" lon="7.5820954"><ele>509.0</ele><time>2026-05-01T09:44:01.878Z</time></trkpt><trkpt lat="44.3981384" lon="7.5820025"><ele>509.0</ele><time>2026-05-01T09:44:02.878Z</time></trkpt><trkpt lat="44.3980353" lon="7.5819048"><ele>509.2</ele><time>2026-05-01T09:44:03.878Z</time></trkpt><trkpt lat="44.3979551" lon="7.5818329"><ele>509.4</ele><time>2026-05-01T09:44:04.878Z</time></trkpt><trkpt lat="44.397885" lon="7.5817561"><ele>509.6</ele><time>2026-05-01T09:44:05.878Z</time></trkpt><trkpt lat="44.3978152" lon="7.5816757"><ele>509.8</ele><time>2026-05-01T09:44:06.878Z</time></trkpt><trkpt lat="44.3977551" lon="7.5815175"><ele>510.0</ele><time>2026-05-01T09:44:08.878Z</time></trkpt><trkpt lat="44.3977351" lon="7.5814081"><ele>510.0</ele><time>2026-05-01T09:44:09.878Z</time></trkpt><trkpt lat="44.397725" lon="7.5812983"><ele>510.0</ele><time>2026-05-01T09:44:10.878Z</time></trkpt><trkpt lat="44.3976664" lon="7.5811863"><ele>510.0</ele><time>2026-05-01T09:44:11.878Z</time></trkpt><trkpt lat="44.3975986" lon="7.5810978"><ele>510.0</ele><time>2026-05-01T09:44:12.878Z</time></trkpt><trkpt lat="44.3975117" lon="7.58105"><ele>510.0</ele><time>2026-05-01T09:44:13.878Z</time></trkpt><trkpt lat="44.3974198" lon="7.5810405"><ele>510.0</ele><time>2026-05-01T09:44:14.878Z</time></trkpt><trkpt lat="44.3973136" lon="7.5810431"><ele>510.0</ele><time>2026-05-01T09:44:15.878Z</time></trkpt><trkpt lat="44.3971959" lon="7.5810231"><ele>510.0</ele><time>2026-05-01T09:44:16.879Z</time></trkpt><trkpt lat="44.3970759" lon="7.5809703"><ele>510.0</ele><time>2026-05-01T09:44:17.878Z</time></trkpt><trkpt lat="44.3969606" lon="7.5808899"><ele>510.66666666666663</ele><time>2026-05-01T09:44:18.878Z</time></trkpt><trkpt lat="44.3968303" lon="7.5807873"><ele>511.3333333333333</ele><time>2026-05-01T09:44:19.878Z</time></trkpt><trkpt lat="44.3966999" lon="7.5806757"><ele>512.0</ele><time>2026-05-01T09:44:20.878Z</time></trkpt><trkpt lat="44.3965701" lon="7.5805544"><ele>512.0</ele><time>2026-05-01T09:44:21.878Z</time></trkpt><trkpt lat="44.3964256" lon="7.5804138"><ele>512.0</ele><time>2026-05-01T09:44:22.878Z</time></trkpt><trkpt lat="44.3962811" lon="7.5802807"><ele>512.0</ele><time>2026-05-01T09:44:23.878Z</time></trkpt><trkpt lat="44.3961276" lon="7.5801394"><ele>512.6666666666666</ele><time>2026-05-01T09:44:24.878Z</time></trkpt><trkpt lat="44.3959693" lon="7.5799894"><ele>513.3333333333334</ele><time>2026-05-01T09:44:25.878Z</time></trkpt><trkpt lat="44.3958077" lon="7.5798447"><ele>514.0</ele><time>2026-05-01T09:44:26.878Z</time></trkpt><trkpt lat="44.3956671" lon="7.5797034"><ele>514.0</ele><time>2026-05-01T09:44:27.878Z</time></trkpt><trkpt lat="44.3955126" lon="7.579557"><ele>514.0</ele><time>2026-05-01T09:44:28.878Z</time></trkpt><trkpt lat="44.3953551" lon="7.5794053"><ele>514.0</ele><time>2026-05-01T09:44:29.878Z</time></trkpt><trkpt lat="44.3951973" lon="7.5792562"><ele>514.3333333333334</ele><time>2026-05-01T09:44:30.878Z</time></trkpt><trkpt lat="44.3950442" lon="7.5791007"><ele>514.6666666666666</ele><time>2026-05-01T09:44:31.878Z</time></trkpt><trkpt lat="44.3948893" lon="7.5789505"><ele>515.0</ele><time>2026-05-01T09:44:32.878Z</time></trkpt><trkpt lat="44.3947449" lon="7.5787867"><ele>515.6666666666666</ele><time>2026-05-01T09:44:33.879Z</time></trkpt><trkpt lat="44.3946017" lon="7.5786143"><ele>516.3333333333334</ele><time>2026-05-01T09:44:34.878Z</time></trkpt><trkpt lat="44.3944501" lon="7.5784456"><ele>517.0</ele><time>2026-05-01T09:44:35.878Z</time></trkpt><trkpt lat="44.3943059" lon="7.5782727"><ele>517.0</ele><time>2026-05-01T09:44:36.878Z</time></trkpt><trkpt lat="44.3941641" lon="7.5780952"><ele>517.0</ele><time>2026-05-01T09:44:37.878Z</time></trkpt><trkpt lat="44.3940203" lon="7.5779206"><ele>517.0</ele><time>2026-05-01T09:44:38.878Z</time></trkpt><trkpt lat="44.3938703" lon="7.5777466"><ele>516.3333333333334</ele><time>2026-05-01T09:44:39.879Z</time></trkpt><trkpt lat="44.3937142" lon="7.5775653"><ele>515.6666666666666</ele><time>2026-05-01T09:44:40.878Z</time></trkpt><trkpt lat="44.393564" lon="7.5773881"><ele>515.0</ele><time>2026-05-01T09:44:41.878Z</time></trkpt><trkpt lat="44.3934137" lon="7.5772141"><ele>515.0</ele><time>2026-05-01T09:44:42.878Z</time></trkpt><trkpt lat="44.3932839" lon="7.5770542"><ele>515.0</ele><time>2026-05-01T09:44:43.878Z</time></trkpt><trkpt lat="44.3931487" lon="7.5769039"><ele>515.0</ele><time>2026-05-01T09:44:44.878Z</time></trkpt><trkpt lat="44.393038" lon="7.5767602"><ele>516.0</ele><time>2026-05-01T09:44:45.878Z</time></trkpt><trkpt lat="44.3929162" lon="7.5766121"><ele>517.0</ele><time>2026-05-01T09:44:46.878Z</time></trkpt><trkpt lat="44.3927831" lon="7.5764609"><ele>518.0</ele><time>2026-05-01T09:44:47.878Z</time></trkpt><trkpt lat="44.3926461" lon="7.5763055"><ele>517.3333333333333</ele><time>2026-05-01T09:44:48.878Z</time></trkpt><trkpt lat="44.392509" lon="7.5761554"><ele>516.6666666666666</ele><time>2026-05-01T09:44:49.878Z</time></trkpt><trkpt lat="44.3923631" lon="7.576004"><ele>516.0</ele><time>2026-05-01T09:44:50.878Z</time></trkpt><trkpt lat="44.3922235" lon="7.575853"><ele>517.3333333333334</ele><time>2026-05-01T09:44:51.878Z</time></trkpt><trkpt lat="44.3920915" lon="7.5757143"><ele>518.6666666666667</ele><time>2026-05-01T09:44:52.878Z</time></trkpt><trkpt lat="44.3919666" lon="7.5755897"><ele>520.0</ele><time>2026-05-01T09:44:53.878Z</time></trkpt><trkpt lat="44.3918474" lon="7.5754694"><ele>520.0</ele><time>2026-05-01T09:44:54.878Z</time></trkpt><trkpt lat="44.3917308" lon="7.5753573"><ele>520.0</ele><time>2026-05-01T09:44:55.878Z</time></trkpt><trkpt lat="44.3916172" lon="7.5752511"><ele>520.0</ele><time>2026-05-01T09:44:56.878Z</time></trkpt><trkpt lat="44.3915128" lon="7.5751468"><ele>520.0</ele><time>2026-05-01T09:44:57.878Z</time></trkpt><trkpt lat="44.3914168" lon="7.5750478"><ele>519.8</ele><time>2026-05-01T09:44:58.878Z</time></trkpt><trkpt lat="44.3913152" lon="7.5749456"><ele>519.6</ele><time>2026-05-01T09:44:59.878Z</time></trkpt><trkpt lat="44.3912396" lon="7.5748659"><ele>519.4</ele><time>2026-05-01T09:45:00.878Z</time></trkpt><trkpt lat="44.3911682" lon="7.5747967"><ele>519.2</ele><time>2026-05-01T09:45:01.878Z</time></trkpt><trkpt lat="44.3911122" lon="7.5747345"><ele>519.0</ele><time>2026-05-01T09:45:02.878Z</time></trkpt><trkpt lat="44.3910419" lon="7.5746337"><ele>519.0</ele><time>2026-05-01T09:45:04.878Z</time></trkpt><trkpt lat="44.3909885" lon="7.5745304"><ele>519.0</ele><time>2026-05-01T09:45:09.879Z</time></trkpt><trkpt lat="44.3909517" lon="7.5743846"><ele>519.0</ele><time>2026-05-01T09:45:11.878Z</time></trkpt><trkpt lat="44.3909317" lon="7.5742907"><ele>519.0</ele><time>2026-05-01T09:45:12.879Z</time></trkpt><trkpt lat="44.3909143" lon="7.574188"><ele>519.0</ele><time>2026-05-01T09:45:13.878Z</time></trkpt><trkpt lat="44.3908674" lon="7.5740738"><ele>519.0</ele><time>2026-05-01T09:45:14.878Z</time></trkpt><trkpt lat="44.3908059" lon="7.5739716"><ele>519.0</ele><time>2026-05-01T09:45:15.878Z</time></trkpt><trkpt lat="44.3907241" lon="7.5738945"><ele>519.0</ele><time>2026-05-01T09:45:16.878Z</time></trkpt><trkpt lat="44.3906271" lon="7.5738331"><ele>519.0</ele><time>2026-05-01T09:45:17.878Z</time></trkpt><trkpt lat="44.3905268" lon="7.5737772"><ele>519.0</ele><time>2026-05-01T09:45:18.878Z</time></trkpt><trkpt lat="44.3904244" lon="7.5737104"><ele>519.0</ele><time>2026-05-01T09:45:19.878Z</time></trkpt><trkpt lat="44.3903298" lon="7.5736193"><ele>518.0</ele><time>2026-05-01T09:45:20.878Z</time></trkpt><trkpt lat="44.3902376" lon="7.5735144"><ele>517.0</ele><time>2026-05-01T09:45:21.878Z</time></trkpt><trkpt lat="44.3901568" lon="7.5733662"><ele>516.0</ele><time>2026-05-01T09:45:22.878Z</time></trkpt><trkpt lat="44.3900709" lon="7.5732126"><ele>515.0</ele><time>2026-05-01T09:45:23.878Z</time></trkpt><trkpt lat="44.3899873" lon="7.5730435"><ele>515.0</ele><time>2026-05-01T09:45:24.878Z</time></trkpt><trkpt lat="44.3898962" lon="7.5728622"><ele>515.0</ele><time>2026-05-01T09:45:25.878Z</time></trkpt><trkpt lat="44.389804" lon="7.5726749"><ele>515.0</ele><time>2026-05-01T09:45:26.878Z</time></trkpt><trkpt lat="44.389703" lon="7.572494"><ele>514.6666666666666</ele><time>2026-05-01T09:45:27.878Z</time></trkpt><trkpt lat="44.3895955" lon="7.5723068"><ele>514.3333333333334</ele><time>2026-05-01T09:45:28.878Z</time></trkpt><trkpt lat="44.3894891" lon="7.5721191"><ele>514.0</ele><time>2026-05-01T09:45:29.878Z</time></trkpt><trkpt lat="44.3893513" lon="7.5719359"><ele>513.3333333333334</ele><time>2026-05-01T09:45:30.878Z</time></trkpt><trkpt lat="44.3892212" lon="7.5717543"><ele>512.6666666666666</ele><time>2026-05-01T09:45:31.878Z</time></trkpt><trkpt lat="44.3890897" lon="7.571582"><ele>512.0</ele><time>2026-05-01T09:45:32.878Z</time></trkpt><trkpt lat="44.388936" lon="7.5714155"><ele>512.3333333333333</ele><time>2026-05-01T09:45:33.878Z</time></trkpt><trkpt lat="44.3887912" lon="7.5712531"><ele>512.6666666666666</ele><time>2026-05-01T09:45:34.878Z</time></trkpt><trkpt lat="44.3886394" lon="7.5710842"><ele>513.0</ele><time>2026-05-01T09:45:35.878Z</time></trkpt><trkpt lat="44.3885025" lon="7.570926"><ele>513.3333333333334</ele><time>2026-05-01T09:45:36.878Z</time></trkpt><trkpt lat="44.3883594" lon="7.5707704"><ele>513.6666666666667</ele><time>2026-05-01T09:45:37.878Z</time></trkpt><trkpt lat="44.3882171" lon="7.5706173"><ele>514.0</ele><time>2026-05-01T09:45:38.878Z</time></trkpt><trkpt lat="44.3880692" lon="7.570466"><ele>514.0</ele><time>2026-05-01T09:45:39.878Z</time></trkpt><trkpt lat="44.3879242" lon="7.5703181"><ele>514.0</ele><time>2026-05-01T09:45:40.878Z</time></trkpt><trkpt lat="44.387778" lon="7.5701705"><ele>514.0</ele><time>2026-05-01T09:45:41.878Z</time></trkpt><trkpt lat="44.3876391" lon="7.57002"><ele>514.0</ele><time>2026-05-01T09:45:42.878Z</time></trkpt><trkpt lat="44.3875029" lon="7.5698693"><ele>514.0</ele><time>2026-05-01T09:45:43.878Z</time></trkpt><trkpt lat="44.3873687" lon="7.5697263"><ele>514.0</ele><time>2026-05-01T09:45:44.878Z</time></trkpt><trkpt lat="44.3872428" lon="7.5695891"><ele>514.5</ele><time>2026-05-01T09:45:45.878Z</time></trkpt><trkpt lat="44.3871244" lon="7.5694635"><ele>515.0</ele><time>2026-05-01T09:45:46.878Z</time></trkpt><trkpt lat="44.3870042" lon="7.5693412"><ele>515.5</ele><time>2026-05-01T09:45:47.878Z</time></trkpt><trkpt lat="44.3869119" lon="7.5692405"><ele>516.0</ele><time>2026-05-01T09:45:48.878Z</time></trkpt><trkpt lat="44.3868236" lon="7.5691414"><ele>516.0</ele><time>2026-05-01T09:45:49.878Z</time></trkpt><trkpt lat="44.3867545" lon="7.5690635"><ele>516.0</ele><time>2026-05-01T09:45:50.879Z</time></trkpt><trkpt lat="44.3866846" lon="7.5690033"><ele>516.0</ele><time>2026-05-01T09:45:51.878Z</time></trkpt><trkpt lat="44.3866125" lon="7.5690476"><ele>516.0</ele><time>2026-05-01T09:45:53.878Z</time></trkpt><trkpt lat="44.386616" lon="7.5691563"><ele>516.0</ele><time>2026-05-01T09:45:55.878Z</time></trkpt><trkpt lat="44.38664" lon="7.5692717"><ele>516.0</ele><time>2026-05-01T09:45:57.878Z</time></trkpt><trkpt lat="44.3866763" lon="7.5693709"><ele>516.0</ele><time>2026-05-01T09:46:01.878Z</time></trkpt><trkpt lat="44.3867465" lon="7.5694564"><ele>516.0</ele><time>2026-05-01T09:46:20.878Z</time></trkpt><trkpt lat="44.3868197" lon="7.5694793"><ele>516.0</ele><time>2026-05-01T09:50:50.878Z</time></trkpt><trkpt lat="44.3868835" lon="7.5695045"><ele>516.0</ele><time>2026-05-01T09:50:52.878Z</time></trkpt><trkpt lat="44.3869464" lon="7.5695395"><ele>516.0</ele><time>2026-05-01T09:50:53.878Z</time></trkpt><trkpt lat="44.3870628" lon="7.5695426"><ele>516.0</ele><time>2026-05-01T09:50:55.878Z</time></trkpt><trkpt lat="44.3871869" lon="7.569621"><ele>515.5</ele><time>2026-05-01T09:50:57.878Z</time></trkpt><trkpt lat="44.3872681" lon="7.5697095"><ele>515.0</ele><time>2026-05-01T09:50:58.878Z</time></trkpt><trkpt lat="44.3873611" lon="7.5698031"><ele>514.5</ele><time>2026-05-01T09:50:59.878Z</time></trkpt><trkpt lat="44.3874651" lon="7.5699051"><ele>514.0</ele><time>2026-05-01T09:51:00.878Z</time></trkpt><trkpt lat="44.3875877" lon="7.5700301"><ele>514.0</ele><time>2026-05-01T09:51:01.878Z</time></trkpt><trkpt lat="44.3877136" lon="7.5701562"><ele>514.0</ele><time>2026-05-01T09:51:02.878Z</time></trkpt><trkpt lat="44.3878335" lon="7.5702779"><ele>514.0</ele><time>2026-05-01T09:51:03.878Z</time></trkpt><trkpt lat="44.387952" lon="7.570408"><ele>514.0</ele><time>2026-05-01T09:51:04.878Z</time></trkpt><trkpt lat="44.3880698" lon="7.5705372"><ele>514.0</ele><time>2026-05-01T09:51:05.878Z</time></trkpt><trkpt lat="44.3881955" lon="7.5706749"><ele>514.0</ele><time>2026-05-01T09:51:06.878Z</time></trkpt><trkpt lat="44.3883223" lon="7.5708122"><ele>514.0</ele><time>2026-05-01T09:51:07.878Z</time></trkpt><trkpt lat="44.3884452" lon="7.570954"><ele>514.0</ele><time>2026-05-01T09:51:08.878Z</time></trkpt><trkpt lat="44.3885733" lon="7.5710963"><ele>514.0</ele><time>2026-05-01T09:51:09.878Z</time></trkpt><trkpt lat="44.3887062" lon="7.5712307"><ele>513.6666666666667</ele><time>2026-05-01T09:51:10.878Z</time></trkpt><trkpt lat="44.3888303" lon="7.571383"><ele>513.3333333333334</ele><time>2026-05-01T09:51:11.878Z</time></trkpt><trkpt lat="44.3889561" lon="7.5715274"><ele>513.0</ele><time>2026-05-01T09:51:12.878Z</time></trkpt><trkpt lat="44.3890795" lon="7.5716754"><ele>512.6666666666666</ele><time>2026-05-01T09:51:13.878Z</time></trkpt><trkpt lat="44.3891968" lon="7.5718305"><ele>512.3333333333333</ele><time>2026-05-01T09:51:14.878Z</time></trkpt><trkpt lat="44.3893079" lon="7.5719874"><ele>512.0</ele><time>2026-05-01T09:51:15.878Z</time></trkpt><trkpt lat="44.3894393" lon="7.5721477"><ele>511.66666666666663</ele><time>2026-05-01T09:51:16.878Z</time></trkpt><trkpt lat="44.3895319" lon="7.5723285"><ele>511.33333333333337</ele><time>2026-05-01T09:51:17.878Z</time></trkpt><trkpt lat="44.389629" lon="7.5725121"><ele>511.0</ele><time>2026-05-01T09:51:18.878Z</time></trkpt><trkpt lat="44.3897395" lon="7.5726826"><ele>512.0</ele><time>2026-05-01T09:51:19.878Z</time></trkpt><trkpt lat="44.3898371" lon="7.5728674"><ele>513.0</ele><time>2026-05-01T09:51:20.878Z</time></trkpt><trkpt lat="44.3899371" lon="7.5730466"><ele>514.0</ele><time>2026-05-01T09:51:21.878Z</time></trkpt><trkpt lat="44.389974" lon="7.5731783"><ele>515.0</ele><time>2026-05-01T09:51:22.879Z</time></trkpt><trkpt lat="44.3900493" lon="7.5733288"><ele>515.0</ele><time>2026-05-01T09:51:23.878Z</time></trkpt><trkpt lat="44.3901052" lon="7.573466"><ele>515.0</ele><time>2026-05-01T09:51:24.878Z</time></trkpt><trkpt lat="44.3901494" lon="7.5735918"><ele>515.0</ele><time>2026-05-01T09:51:25.878Z</time></trkpt><trkpt lat="44.3901704" lon="7.5736827"><ele>515.0</ele><time>2026-05-01T09:51:26.878Z</time></trkpt><trkpt lat="44.3902087" lon="7.5738155"><ele>515.0</ele><time>2026-05-01T09:51:28.878Z</time></trkpt><trkpt lat="44.3902323" lon="7.5739318"><ele>516.0</ele><time>2026-05-01T09:51:40.878Z</time></trkpt><trkpt lat="44.3902378" lon="7.5740582"><ele>517.0</ele><time>2026-05-01T09:51:42.878Z</time></trkpt><trkpt lat="44.390225" lon="7.5742233"><ele>518.0</ele><time>2026-05-01T09:51:44.878Z</time></trkpt><trkpt lat="44.3902361" lon="7.5743358"><ele>519.0</ele><time>2026-05-01T09:51:45.878Z</time></trkpt><trkpt lat="44.3902765" lon="7.5745735"><ele>519.0</ele><time>2026-05-01T09:51:47.879Z</time></trkpt><trkpt lat="44.3903285" lon="7.5746686"><ele>519.0</ele><time>2026-05-01T09:51:48.878Z</time></trkpt><trkpt lat="44.390397" lon="7.5747293"><ele>519.0</ele><time>2026-05-01T09:51:49.878Z</time></trkpt><trkpt lat="44.3904675" lon="7.574766"><ele>519.0</ele><time>2026-05-01T09:51:50.878Z</time></trkpt><trkpt lat="44.3905499" lon="7.574789"><ele>519.0</ele><time>2026-05-01T09:51:51.878Z</time></trkpt><trkpt lat="44.3906317" lon="7.5747741"><ele>519.0</ele><time>2026-05-01T09:51:52.878Z</time></trkpt><trkpt lat="44.3907107" lon="7.5747356"><ele>519.0</ele><time>2026-05-01T09:51:53.878Z</time></trkpt><trkpt lat="44.3907807" lon="7.5746676"><ele>519.0</ele><time>2026-05-01T09:51:54.878Z</time></trkpt><trkpt lat="44.3908349" lon="7.5745854"><ele>519.0</ele><time>2026-05-01T09:51:55.878Z</time></trkpt><trkpt lat="44.3908787" lon="7.5744763"><ele>519.0</ele><time>2026-05-01T09:51:56.878Z</time></trkpt><trkpt lat="44.3908999" lon="7.5743508"><ele>519.0</ele><time>2026-05-01T09:51:57.878Z</time></trkpt><trkpt lat="44.3908982" lon="7.5742346"><ele>519.0</ele><time>2026-05-01T09:51:58.878Z</time></trkpt><trkpt lat="44.39087" lon="7.5741143"><ele>519.0</ele><time>2026-05-01T09:51:59.878Z</time></trkpt><trkpt lat="44.3908154" lon="7.574004"><ele>519.0</ele><time>2026-05-01T09:52:00.878Z</time></trkpt><trkpt lat="44.3907403" lon="7.5739173"><ele>519.0</ele><time>2026-05-01T09:52:01.878Z</time></trkpt><trkpt lat="44.3906422" lon="7.5738484"><ele>519.0</ele><time>2026-05-01T09:52:02.878Z</time></trkpt><trkpt lat="44.3905424" lon="7.5737858"><ele>519.0</ele><time>2026-05-01T09:52:03.878Z</time></trkpt><trkpt lat="44.3904314" lon="7.5737113"><ele>518.0</ele><time>2026-05-01T09:52:04.878Z</time></trkpt><trkpt lat="44.3903358" lon="7.5736108"><ele>517.0</ele><time>2026-05-01T09:52:05.878Z</time></trkpt><trkpt lat="44.3902372" lon="7.5734913"><ele>516.0</ele><time>2026-05-01T09:52:06.878Z</time></trkpt><trkpt lat="44.3901501" lon="7.573349"><ele>515.0</ele><time>2026-05-01T09:52:07.878Z</time></trkpt><trkpt lat="44.3900616" lon="7.5731794"><ele>515.0</ele><time>2026-05-01T09:52:08.878Z</time></trkpt><trkpt lat="44.3899677" lon="7.5729941"><ele>515.0</ele><time>2026-05-01T09:52:09.878Z</time></trkpt><trkpt lat="44.3898711" lon="7.5728011"><ele>515.0</ele><time>2026-05-01T09:52:10.878Z</time></trkpt><trkpt lat="44.3897687" lon="7.5725974"><ele>514.6666666666666</ele><time>2026-05-01T09:52:11.879Z</time></trkpt><trkpt lat="44.3896644" lon="7.5723965"><ele>514.3333333333334</ele><time>2026-05-01T09:52:12.878Z</time></trkpt><trkpt lat="44.3895456" lon="7.5721987"><ele>514.0</ele><time>2026-05-01T09:52:13.879Z</time></trkpt><trkpt lat="44.3894149" lon="7.5720013"><ele>513.3333333333334</ele><time>2026-05-01T09:52:14.878Z</time></trkpt><trkpt lat="44.389269" lon="7.5718038"><ele>512.6666666666666</ele><time>2026-05-01T09:52:15.878Z</time></trkpt><trkpt lat="44.3891222" lon="7.5716187"><ele>512.0</ele><time>2026-05-01T09:52:16.878Z</time></trkpt><trkpt lat="44.3889692" lon="7.5714379"><ele>512.3333333333333</ele><time>2026-05-01T09:52:17.878Z</time></trkpt><trkpt lat="44.3888071" lon="7.5712575"><ele>512.6666666666666</ele><time>2026-05-01T09:52:18.878Z</time></trkpt><trkpt lat="44.3886401" lon="7.5710731"><ele>513.0</ele><time>2026-05-01T09:52:19.878Z</time></trkpt><trkpt lat="44.3884698" lon="7.5708827"><ele>513.3333333333334</ele><time>2026-05-01T09:52:20.878Z</time></trkpt><trkpt lat="44.3882993" lon="7.5706987"><ele>513.6666666666667</ele><time>2026-05-01T09:52:21.878Z</time></trkpt><trkpt lat="44.3881344" lon="7.5705149"><ele>514.0</ele><time>2026-05-01T09:52:22.878Z</time></trkpt><trkpt lat="44.387954" lon="7.5703183"><ele>514.0</ele><time>2026-05-01T09:52:23.878Z</time></trkpt><trkpt lat="44.3877796" lon="7.5701244"><ele>514.0</ele><time>2026-05-01T09:52:24.878Z</time></trkpt><trkpt lat="44.3876057" lon="7.5699272"><ele>514.0</ele><time>2026-05-01T09:52:25.878Z</time></trkpt><trkpt lat="44.3874229" lon="7.5697352"><ele>514.0</ele><time>2026-05-01T09:52:26.878Z</time></trkpt><trkpt lat="44.3872506" lon="7.5695476"><ele>514.0</ele><time>2026-05-01T09:52:27.878Z</time></trkpt><trkpt lat="44.3870728" lon="7.5693514"><ele>514.0</ele><time>2026-05-01T09:52:28.878Z</time></trkpt><trkpt lat="44.386901" lon="7.5691701"><ele>514.0</ele><time>2026-05-01T09:52:29.878Z</time></trkpt><trkpt lat="44.3867306" lon="7.5689786"><ele>514.0</ele><time>2026-05-01T09:52:30.878Z</time></trkpt><trkpt lat="44.3865546" lon="7.5687901"><ele>514.0</ele><time>2026-05-01T09:52:31.878Z</time></trkpt><trkpt lat="44.3863815" lon="7.5685987"><ele>513.6666666666667</ele><time>2026-05-01T09:52:32.878Z</time></trkpt><trkpt lat="44.3862057" lon="7.5684045"><ele>513.3333333333334</ele><time>2026-05-01T09:52:33.878Z</time></trkpt><trkpt lat="44.3860343" lon="7.568224"><ele>513.0</ele><time>2026-05-01T09:52:34.878Z</time></trkpt><trkpt lat="44.3858598" lon="7.5680388"><ele>513.0</ele><time>2026-05-01T09:52:35.878Z</time></trkpt><trkpt lat="44.3856774" lon="7.5678528"><ele>513.0</ele><time>2026-05-01T09:52:36.878Z</time></trkpt><trkpt lat="44.3855107" lon="7.5676694"><ele>513.0</ele><time>2026-05-01T09:52:37.878Z</time></trkpt><trkpt lat="44.3853544" lon="7.567499"><ele>513.0</ele><time>2026-05-01T09:52:38.878Z</time></trkpt><trkpt lat="44.3851966" lon="7.5673344"><ele>513.0</ele><time>2026-05-01T09:52:39.878Z</time></trkpt><trkpt lat="44.385061" lon="7.5671858"><ele>513.0</ele><time>2026-05-01T09:52:40.878Z</time></trkpt><trkpt lat="44.3849444" lon="7.5670533"><ele>513.25</ele><time>2026-05-01T09:52:41.878Z</time></trkpt><trkpt lat="44.3848389" lon="7.5669322"><ele>513.5</ele><time>2026-05-01T09:52:42.878Z</time></trkpt><trkpt lat="44.3847519" lon="7.5668169"><ele>513.75</ele><time>2026-05-01T09:52:43.878Z</time></trkpt><trkpt lat="44.3846772" lon="7.5667017"><ele>514.0</ele><time>2026-05-01T09:52:44.879Z</time></trkpt><trkpt lat="44.3846133" lon="7.5665834"><ele>514.2</ele><time>2026-05-01T09:52:45.878Z</time></trkpt><trkpt lat="44.3845663" lon="7.5664524"><ele>514.4</ele><time>2026-05-01T09:52:46.878Z</time></trkpt><trkpt lat="44.3845252" lon="7.5663145"><ele>514.6</ele><time>2026-05-01T09:52:47.879Z</time></trkpt><trkpt lat="44.3844767" lon="7.5662052"><ele>514.8</ele><time>2026-05-01T09:52:48.878Z</time></trkpt><trkpt lat="44.3844155" lon="7.566116"><ele>515.0</ele><time>2026-05-01T09:52:49.878Z</time></trkpt><trkpt lat="44.3843398" lon="7.5660355"><ele>515.0</ele><time>2026-05-01T09:52:50.878Z</time></trkpt><trkpt lat="44.3842692" lon="7.5659912"><ele>515.0</ele><time>2026-05-01T09:52:51.878Z</time></trkpt><trkpt lat="44.3841927" lon="7.5659331"><ele>515.0</ele><time>2026-05-01T09:52:52.878Z</time></trkpt><trkpt lat="44.3841172" lon="7.5658814"><ele>515.0</ele><time>2026-05-01T09:52:53.878Z</time></trkpt><trkpt lat="44.3840428" lon="7.5658009"><ele>515.0</ele><time>2026-05-01T09:52:54.878Z</time></trkpt><trkpt lat="44.3839667" lon="7.5656978"><ele>515.0</ele><time>2026-05-01T09:52:55.878Z</time></trkpt><trkpt lat="44.3839229" lon="7.5655697"><ele>515.0</ele><time>2026-05-01T09:52:56.878Z</time></trkpt><trkpt lat="44.3838552" lon="7.5654126"><ele>515.0</ele><time>2026-05-01T09:52:57.879Z</time></trkpt><trkpt lat="44.3837876" lon="7.5652455"><ele>515.0</ele><time>2026-05-01T09:52:58.878Z</time></trkpt><trkpt lat="44.383729" lon="7.5650479"><ele>515.0</ele><time>2026-05-01T09:52:59.878Z</time></trkpt><trkpt lat="44.3836778" lon="7.5648437"><ele>515.3333333333333</ele><time>2026-05-01T09:53:00.878Z</time></trkpt><trkpt lat="44.38363" lon="7.5646513"><ele>515.6666666666666</ele><time>2026-05-01T09:53:01.878Z</time></trkpt><trkpt lat="44.3835743" lon="7.5644516"><ele>516.0</ele><time>2026-05-01T09:53:02.878Z</time></trkpt><trkpt lat="44.3835216" lon="7.5642385"><ele>515.3333333333334</ele><time>2026-05-01T09:53:03.878Z</time></trkpt><trkpt lat="44.3834735" lon="7.5640014"><ele>514.6666666666667</ele><time>2026-05-01T09:53:04.878Z</time></trkpt><trkpt lat="44.3834251" lon="7.5637702"><ele>514.0</ele><time>2026-05-01T09:53:05.878Z</time></trkpt><trkpt lat="44.3833801" lon="7.563533"><ele>514.0</ele><time>2026-05-01T09:53:06.878Z</time></trkpt><trkpt lat="44.3833384" lon="7.5632952"><ele>514.0</ele><time>2026-05-01T09:53:07.878Z</time></trkpt><trkpt lat="44.3832969" lon="7.5630709"><ele>514.0</ele><time>2026-05-01T09:53:08.878Z</time></trkpt><trkpt lat="44.3832483" lon="7.5628682"><ele>514.75</ele><time>2026-05-01T09:53:09.878Z</time></trkpt><trkpt lat="44.3832043" lon="7.5626555"><ele>515.5</ele><time>2026-05-01T09:53:10.878Z</time></trkpt><trkpt lat="44.3831572" lon="7.5624622"><ele>516.25</ele><time>2026-05-01T09:53:11.879Z</time></trkpt><trkpt lat="44.3831164" lon="7.5622811"><ele>517.0</ele><time>2026-05-01T09:53:12.878Z</time></trkpt><trkpt lat="44.3830767" lon="7.5620995"><ele>517.0</ele><time>2026-05-01T09:53:13.878Z</time></trkpt><trkpt lat="44.3830419" lon="7.5619352"><ele>517.0</ele><time>2026-05-01T09:53:14.878Z</time></trkpt><trkpt lat="44.383013" lon="7.5617785"><ele>517.0</ele><time>2026-05-01T09:53:15.878Z</time></trkpt><trkpt lat="44.3829829" lon="7.5616304"><ele>517.0</ele><time>2026-05-01T09:53:16.878Z</time></trkpt><trkpt lat="44.382961" lon="7.5614923"><ele>517.0</ele><time>2026-05-01T09:53:17.878Z</time></trkpt><trkpt lat="44.3829445" lon="7.5613666"><ele>517.0</ele><time>2026-05-01T09:53:18.878Z</time></trkpt><trkpt lat="44.3829452" lon="7.5612501"><ele>517.0</ele><time>2026-05-01T09:53:19.878Z</time></trkpt><trkpt lat="44.3829654" lon="7.5611448"><ele>517.0</ele><time>2026-05-01T09:53:20.878Z</time></trkpt><trkpt lat="44.3829974" lon="7.5610314"><ele>517.0</ele><time>2026-05-01T09:53:21.878Z</time></trkpt><trkpt lat="44.3830348" lon="7.5609015"><ele>517.0</ele><time>2026-05-01T09:53:22.878Z</time></trkpt><trkpt lat="44.3830651" lon="7.5607922"><ele>517.0</ele><time>2026-05-01T09:53:23.878Z</time></trkpt><trkpt lat="44.3830478" lon="7.5606597"><ele>516.8333333333334</ele><time>2026-05-01T09:53:24.878Z</time></trkpt><trkpt lat="44.3830218" lon="7.5605446"><ele>516.6666666666667</ele><time>2026-05-01T09:53:25.878Z</time></trkpt><trkpt lat="44.3829792" lon="7.5604516"><ele>516.5</ele><time>2026-05-01T09:53:26.878Z</time></trkpt><trkpt lat="44.3829213" lon="7.5603744"><ele>516.3333333333334</ele><time>2026-05-01T09:53:27.878Z</time></trkpt><trkpt lat="44.3828604" lon="7.5603335"><ele>516.1666666666666</ele><time>2026-05-01T09:53:28.878Z</time></trkpt><trkpt lat="44.3827827" lon="7.560316"><ele>516.0</ele><time>2026-05-01T09:53:29.878Z</time></trkpt><trkpt lat="44.3826952" lon="7.5603171"><ele>515.8</ele><time>2026-05-01T09:53:30.878Z</time></trkpt><trkpt lat="44.3825983" lon="7.5603255"><ele>515.6</ele><time>2026-05-01T09:53:31.878Z</time></trkpt><trkpt lat="44.3824951" lon="7.5603189"><ele>515.4</ele><time>2026-05-01T09:53:32.878Z</time></trkpt><trkpt lat="44.3823838" lon="7.5603017"><ele>515.2</ele><time>2026-05-01T09:53:33.878Z</time></trkpt><trkpt lat="44.3822769" lon="7.5602695"><ele>515.0</ele><time>2026-05-01T09:53:34.878Z</time></trkpt><trkpt lat="44.3821537" lon="7.5602072"><ele>516.0</ele><time>2026-05-01T09:53:35.878Z</time></trkpt><trkpt lat="44.3820499" lon="7.5601246"><ele>517.0</ele><time>2026-05-01T09:53:36.878Z</time></trkpt><trkpt lat="44.3819343" lon="7.5600416"><ele>518.0</ele><time>2026-05-01T09:53:37.878Z</time></trkpt><trkpt lat="44.3818157" lon="7.5599372"><ele>519.0</ele><time>2026-05-01T09:53:38.878Z</time></trkpt><trkpt lat="44.381695" lon="7.5598459"><ele>519.0</ele><time>2026-05-01T09:53:39.879Z</time></trkpt><trkpt lat="44.3815648" lon="7.5597339"><ele>519.0</ele><time>2026-05-01T09:53:40.878Z</time></trkpt><trkpt lat="44.3814258" lon="7.5596198"><ele>519.0</ele><time>2026-05-01T09:53:41.878Z</time></trkpt><trkpt lat="44.3812925" lon="7.5594971"><ele>519.6666666666666</ele><time>2026-05-01T09:53:42.878Z</time></trkpt><trkpt lat="44.3811577" lon="7.5593863"><ele>520.3333333333333</ele><time>2026-05-01T09:53:43.879Z</time></trkpt><trkpt lat="44.3810209" lon="7.5592845"><ele>521.0</ele><time>2026-05-01T09:53:44.878Z</time></trkpt><trkpt lat="44.3808921" lon="7.5591813"><ele>521.0</ele><time>2026-05-01T09:53:45.879Z</time></trkpt><trkpt lat="44.3807548" lon="7.5590752"><ele>521.0</ele><time>2026-05-01T09:53:46.878Z</time></trkpt><trkpt lat="44.3806116" lon="7.5589565"><ele>521.0</ele><time>2026-05-01T09:53:47.878Z</time></trkpt><trkpt lat="44.380452" lon="7.558843"><ele>521.0</ele><time>2026-05-01T09:53:48.878Z</time></trkpt><trkpt lat="44.3802751" lon="7.5587167"><ele>521.0</ele><time>2026-05-01T09:53:49.878Z</time></trkpt><trkpt lat="44.3801012" lon="7.5585619"><ele>521.0</ele><time>2026-05-01T09:53:50.878Z</time></trkpt><trkpt lat="44.3799261" lon="7.5584021"><ele>520.6666666666666</ele><time>2026-05-01T09:53:51.878Z</time></trkpt><trkpt lat="44.3797498" lon="7.5582466"><ele>520.3333333333334</ele><time>2026-05-01T09:53:52.878Z</time></trkpt><trkpt lat="44.3795716" lon="7.558103"><ele>520.0</ele><time>2026-05-01T09:53:53.878Z</time></trkpt><trkpt lat="44.3794011" lon="7.5579468"><ele>520.6666666666667</ele><time>2026-05-01T09:53:54.878Z</time></trkpt><trkpt lat="44.3792254" lon="7.5578014"><ele>521.3333333333334</ele><time>2026-05-01T09:53:55.878Z</time></trkpt><trkpt lat="44.3790474" lon="7.5576534"><ele>522.0</ele><time>2026-05-01T09:53:56.878Z</time></trkpt><trkpt lat="44.3788706" lon="7.5575106"><ele>522.6666666666666</ele><time>2026-05-01T09:53:57.878Z</time></trkpt><trkpt lat="44.3786906" lon="7.5573682"><ele>523.3333333333333</ele><time>2026-05-01T09:53:58.878Z</time></trkpt><trkpt lat="44.3785114" lon="7.5572242"><ele>524.0</ele><time>2026-05-01T09:53:59.878Z</time></trkpt><trkpt lat="44.378331" lon="7.5570727"><ele>523.3333333333333</ele><time>2026-05-01T09:54:00.878Z</time></trkpt><trkpt lat="44.3781346" lon="7.5569229"><ele>522.6666666666666</ele><time>2026-05-01T09:54:01.878Z</time></trkpt><trkpt lat="44.3779476" lon="7.5567729"><ele>522.0</ele><time>2026-05-01T09:54:02.879Z</time></trkpt><trkpt lat="44.3777551" lon="7.5566153"><ele>522.0</ele><time>2026-05-01T09:54:03.878Z</time></trkpt><trkpt lat="44.3775671" lon="7.5564544"><ele>522.0</ele><time>2026-05-01T09:54:04.878Z</time></trkpt><trkpt lat="44.3773755" lon="7.5563048"><ele>522.0</ele><time>2026-05-01T09:54:05.878Z</time></trkpt><trkpt lat="44.3771765" lon="7.5561308"><ele>523.0</ele><time>2026-05-01T09:54:06.879Z</time></trkpt><trkpt lat="44.3769766" lon="7.5559758"><ele>524.0</ele><time>2026-05-01T09:54:07.878Z</time></trkpt><trkpt lat="44.3767748" lon="7.5558223"><ele>524.0</ele><time>2026-05-01T09:54:08.878Z</time></trkpt><trkpt lat="44.3765685" lon="7.5556714"><ele>524.0</ele><time>2026-05-01T09:54:09.878Z</time></trkpt><trkpt lat="44.3763587" lon="7.5555236"><ele>524.5</ele><time>2026-05-01T09:54:10.878Z</time></trkpt><trkpt lat="44.3761623" lon="7.5553674"><ele>525.0</ele><time>2026-05-01T09:54:11.878Z</time></trkpt><trkpt lat="44.3759439" lon="7.5552332"><ele>525.0</ele><time>2026-05-01T09:54:12.878Z</time></trkpt><trkpt lat="44.3757312" lon="7.5550935"><ele>525.0</ele><time>2026-05-01T09:54:13.878Z</time></trkpt><trkpt lat="44.3755135" lon="7.5549571"><ele>525.5</ele><time>2026-05-01T09:54:14.878Z</time></trkpt><trkpt lat="44.3753092" lon="7.5548226"><ele>526.0</ele><time>2026-05-01T09:54:15.878Z</time></trkpt><trkpt lat="44.3750859" lon="7.5547028"><ele>526.0</ele><time>2026-05-01T09:54:16.878Z</time></trkpt><trkpt lat="44.374863" lon="7.554576"><ele>526.0</ele><time>2026-05-01T09:54:17.878Z</time></trkpt><trkpt lat="44.3746428" lon="7.5544653"><ele>527.0</ele><time>2026-05-01T09:54:18.878Z</time></trkpt><trkpt lat="44.3744283" lon="7.5543435"><ele>528.0</ele><time>2026-05-01T09:54:19.878Z</time></trkpt><trkpt lat="44.374196" lon="7.5542298"><ele>528.0</ele><time>2026-05-01T09:54:20.878Z</time></trkpt><trkpt lat="44.3739668" lon="7.5541175"><ele>528.0</ele><time>2026-05-01T09:54:21.878Z</time></trkpt><trkpt lat="44.3737369" lon="7.5540053"><ele>529.0</ele><time>2026-05-01T09:54:22.878Z</time></trkpt><trkpt lat="44.3735025" lon="7.5538995"><ele>530.0</ele><time>2026-05-01T09:54:23.878Z</time></trkpt><trkpt lat="44.3732708" lon="7.5538049"><ele>530.0</ele><time>2026-05-01T09:54:24.878Z</time></trkpt><trkpt lat="44.3730341" lon="7.5537213"><ele>530.0</ele><time>2026-05-01T09:54:25.878Z</time></trkpt><trkpt lat="44.3728002" lon="7.5536399"><ele>530.5</ele><time>2026-05-01T09:54:26.878Z</time></trkpt><trkpt lat="44.3725717" lon="7.5535559"><ele>531.0</ele><time>2026-05-01T09:54:27.878Z</time></trkpt><trkpt lat="44.3723364" lon="7.5534858"><ele>530.5</ele><time>2026-05-01T09:54:28.878Z</time></trkpt><trkpt lat="44.3721" lon="7.5534056"><ele>530.0</ele><time>2026-05-01T09:54:29.878Z</time></trkpt><trkpt lat="44.3718698" lon="7.5533227"><ele>530.0</ele><time>2026-05-01T09:54:30.878Z</time></trkpt><trkpt lat="44.3716442" lon="7.553234"><ele>530.0</ele><time>2026-05-01T09:54:31.878Z</time></trkpt><trkpt lat="44.3714187" lon="7.5531617"><ele>532.5</ele><time>2026-05-01T09:54:32.878Z</time></trkpt><trkpt lat="44.371196" lon="7.5530835"><ele>535.0</ele><time>2026-05-01T09:54:33.878Z</time></trkpt><trkpt lat="44.3709649" lon="7.5530103"><ele>535.0</ele><time>2026-05-01T09:54:34.878Z</time></trkpt><trkpt lat="44.3707395" lon="7.5529406"><ele>535.0</ele><time>2026-05-01T09:54:35.878Z</time></trkpt><trkpt lat="44.3705156" lon="7.5528653"><ele>534.0</ele><time>2026-05-01T09:54:36.878Z</time></trkpt><trkpt lat="44.3702904" lon="7.5527972"><ele>533.0</ele><time>2026-05-01T09:54:37.878Z</time></trkpt><trkpt lat="44.3700534" lon="7.5527236"><ele>533.0</ele><time>2026-05-01T09:54:38.878Z</time></trkpt><trkpt lat="44.369816" lon="7.5526537"><ele>533.0</ele><time>2026-05-01T09:54:39.878Z</time></trkpt><trkpt lat="44.3695692" lon="7.5525668"><ele>535.5</ele><time>2026-05-01T09:54:40.878Z</time></trkpt><trkpt lat="44.3693268" lon="7.5524868"><ele>538.0</ele><time>2026-05-01T09:54:41.878Z</time></trkpt><trkpt lat="44.3690774" lon="7.5524087"><ele>538.5</ele><time>2026-05-01T09:54:42.878Z</time></trkpt><trkpt lat="44.3688261" lon="7.5523222"><ele>539.0</ele><time>2026-05-01T09:54:43.878Z</time></trkpt><trkpt lat="44.3685759" lon="7.5522421"><ele>539.0</ele><time>2026-05-01T09:54:44.878Z</time></trkpt><trkpt lat="44.3683254" lon="7.5521641"><ele>539.0</ele><time>2026-05-01T09:54:45.878Z</time></trkpt><trkpt lat="44.367325" lon="7.5518594"><ele>539.5</ele><time>2026-05-01T09:54:49.878Z</time></trkpt><trkpt lat="44.3670819" lon="7.5517812"><ele>540.0</ele><time>2026-05-01T09:54:50.878Z</time></trkpt><trkpt lat="44.3668201" lon="7.5517099"><ele>540.0</ele><time>2026-05-01T09:54:51.878Z</time></trkpt><trkpt lat="44.3665834" lon="7.5516234"><ele>540.0</ele><time>2026-05-01T09:54:52.878Z</time></trkpt><trkpt lat="44.3663452" lon="7.5515594"><ele>542.0</ele><time>2026-05-01T09:54:53.878Z</time></trkpt><trkpt lat="44.3661091" lon="7.551481"><ele>544.0</ele><time>2026-05-01T09:54:54.878Z</time></trkpt><trkpt lat="44.3658673" lon="7.5514055"><ele>544.0</ele><time>2026-05-01T09:54:55.879Z</time></trkpt><trkpt lat="44.3656345" lon="7.5513297"><ele>544.0</ele><time>2026-05-01T09:54:56.878Z</time></trkpt><trkpt lat="44.3653996" lon="7.5512526"><ele>543.5</ele><time>2026-05-01T09:54:57.878Z</time></trkpt><trkpt lat="44.365161" lon="7.5511767"><ele>543.0</ele><time>2026-05-01T09:54:58.878Z</time></trkpt><trkpt lat="44.3649175" lon="7.5511065"><ele>544.5</ele><time>2026-05-01T09:54:59.878Z</time></trkpt><trkpt lat="44.3646786" lon="7.5510294"><ele>546.0</ele><time>2026-05-01T09:55:00.878Z</time></trkpt><trkpt lat="44.3644397" lon="7.5509524"><ele>546.0</ele><time>2026-05-01T09:55:01.878Z</time></trkpt><trkpt lat="44.3642059" lon="7.5508742"><ele>546.0</ele><time>2026-05-01T09:55:02.878Z</time></trkpt><trkpt lat="44.3639723" lon="7.5507941"><ele>545.5</ele><time>2026-05-01T09:55:03.878Z</time></trkpt><trkpt lat="44.3637368" lon="7.5507216"><ele>545.0</ele><time>2026-05-01T09:55:04.879Z</time></trkpt><trkpt lat="44.3635069" lon="7.550647"><ele>545.0</ele><time>2026-05-01T09:55:05.878Z</time></trkpt><trkpt lat="44.3632738" lon="7.5505729"><ele>545.0</ele><time>2026-05-01T09:55:06.878Z</time></trkpt><trkpt lat="44.3630387" lon="7.5505031"><ele>545.5</ele><time>2026-05-01T09:55:07.878Z</time></trkpt><trkpt lat="44.3628063" lon="7.550433"><ele>546.0</ele><time>2026-05-01T09:55:08.878Z</time></trkpt><trkpt lat="44.3625754" lon="7.55036"><ele>547.0</ele><time>2026-05-01T09:55:09.878Z</time></trkpt><trkpt lat="44.3623424" lon="7.5502808"><ele>548.0</ele><time>2026-05-01T09:55:10.878Z</time></trkpt><trkpt lat="44.3621071" lon="7.5502054"><ele>548.0</ele><time>2026-05-01T09:55:11.878Z</time></trkpt><trkpt lat="44.3618787" lon="7.5501334"><ele>548.0</ele><time>2026-05-01T09:55:12.878Z</time></trkpt><trkpt lat="44.361654" lon="7.5500627"><ele>548.0</ele><time>2026-05-01T09:55:13.878Z</time></trkpt><trkpt lat="44.3614255" lon="7.5499911"><ele>548.0</ele><time>2026-05-01T09:55:14.878Z</time></trkpt><trkpt lat="44.3611894" lon="7.5499162"><ele>548.0</ele><time>2026-05-01T09:55:15.878Z</time></trkpt><trkpt lat="44.36096" lon="7.5498415"><ele>548.0</ele><time>2026-05-01T09:55:16.878Z</time></trkpt><trkpt lat="44.3607265" lon="7.5497675"><ele>550.5</ele><time>2026-05-01T09:55:17.878Z</time></trkpt><trkpt lat="44.3604966" lon="7.549695"><ele>553.0</ele><time>2026-05-01T09:55:18.878Z</time></trkpt><trkpt lat="44.3602644" lon="7.5496192"><ele>552.0</ele><time>2026-05-01T09:55:19.878Z</time></trkpt><trkpt lat="44.3600364" lon="7.5495416"><ele>551.0</ele><time>2026-05-01T09:55:20.878Z</time></trkpt><trkpt lat="44.3598013" lon="7.5494628"><ele>551.5</ele><time>2026-05-01T09:55:21.878Z</time></trkpt><trkpt lat="44.3595767" lon="7.5493883"><ele>552.0</ele><time>2026-05-01T09:55:22.878Z</time></trkpt><trkpt lat="44.3593469" lon="7.5493176"><ele>552.0</ele><time>2026-05-01T09:55:23.879Z</time></trkpt><trkpt lat="44.3591196" lon="7.5492312"><ele>552.0</ele><time>2026-05-01T09:55:24.878Z</time></trkpt><trkpt lat="44.3588854" lon="7.5491517"><ele>553.5</ele><time>2026-05-01T09:55:25.878Z</time></trkpt><trkpt lat="44.3586508" lon="7.5490781"><ele>555.0</ele><time>2026-05-01T09:55:26.878Z</time></trkpt><trkpt lat="44.3584151" lon="7.5489982"><ele>555.0</ele><time>2026-05-01T09:55:27.878Z</time></trkpt><trkpt lat="44.3581775" lon="7.5489189"><ele>555.0</ele><time>2026-05-01T09:55:28.878Z</time></trkpt><trkpt lat="44.3579429" lon="7.5488422"><ele>556.0</ele><time>2026-05-01T09:55:29.878Z</time></trkpt><trkpt lat="44.3576749" lon="7.5487624"><ele>557.0</ele><time>2026-05-01T09:55:30.878Z</time></trkpt><trkpt lat="44.3574248" lon="7.5486755"><ele>560.5</ele><time>2026-05-01T09:55:31.878Z</time></trkpt><trkpt lat="44.3571544" lon="7.5485858"><ele>564.0</ele><time>2026-05-01T09:55:32.878Z</time></trkpt><trkpt lat="44.3568983" lon="7.5485133"><ele>564.0</ele><time>2026-05-01T09:55:33.878Z</time></trkpt><trkpt lat="44.3566442" lon="7.5484195"><ele>564.0</ele><time>2026-05-01T09:55:34.878Z</time></trkpt><trkpt lat="44.3563777" lon="7.5483358"><ele>563.5</ele><time>2026-05-01T09:55:35.878Z</time></trkpt><trkpt lat="44.3561146" lon="7.5482356"><ele>563.0</ele><time>2026-05-01T09:55:36.878Z</time></trkpt><trkpt lat="44.3558404" lon="7.5481515"><ele>563.0</ele><time>2026-05-01T09:55:37.878Z</time></trkpt><trkpt lat="44.3555723" lon="7.5480558"><ele>563.0</ele><time>2026-05-01T09:55:38.878Z</time></trkpt><trkpt lat="44.3553032" lon="7.5479647"><ele>564.5</ele><time>2026-05-01T09:55:39.878Z</time></trkpt><trkpt lat="44.3550392" lon="7.5478761"><ele>566.0</ele><time>2026-05-01T09:55:40.878Z</time></trkpt><trkpt lat="44.3547836" lon="7.5477892"><ele>566.5</ele><time>2026-05-01T09:55:41.878Z</time></trkpt><trkpt lat="44.3545215" lon="7.5476963"><ele>567.0</ele><time>2026-05-01T09:55:42.878Z</time></trkpt><trkpt lat="44.3542834" lon="7.5476278"><ele>567.0</ele><time>2026-05-01T09:55:43.878Z</time></trkpt><trkpt lat="44.3540379" lon="7.5475428"><ele>567.0</ele><time>2026-05-01T09:55:44.878Z</time></trkpt><trkpt lat="44.3537862" lon="7.5474925"><ele>566.5</ele><time>2026-05-01T09:55:45.878Z</time></trkpt><trkpt lat="44.3535442" lon="7.5474158"><ele>566.0</ele><time>2026-05-01T09:55:46.879Z</time></trkpt><trkpt lat="44.3533003" lon="7.5473326"><ele>566.0</ele><time>2026-05-01T09:55:47.879Z</time></trkpt><trkpt lat="44.353058" lon="7.5472561"><ele>566.0</ele><time>2026-05-01T09:55:48.878Z</time></trkpt><trkpt lat="44.3528122" lon="7.5471742"><ele>566.5</ele><time>2026-05-01T09:55:49.878Z</time></trkpt><trkpt lat="44.3525759" lon="7.5470973"><ele>567.0</ele><time>2026-05-01T09:55:50.878Z</time></trkpt><trkpt lat="44.3523298" lon="7.5470211"><ele>568.5</ele><time>2026-05-01T09:55:51.878Z</time></trkpt><trkpt lat="44.3520936" lon="7.5469444"><ele>570.0</ele><time>2026-05-01T09:55:52.878Z</time></trkpt><trkpt lat="44.3518543" lon="7.5468732"><ele>570.0</ele><time>2026-05-01T09:55:53.878Z</time></trkpt><trkpt lat="44.3516105" lon="7.5468103"><ele>570.0</ele><time>2026-05-01T09:55:54.878Z</time></trkpt><trkpt lat="44.3513705" lon="7.5467459"><ele>571.0</ele><time>2026-05-01T09:55:55.878Z</time></trkpt><trkpt lat="44.3511217" lon="7.5466778"><ele>572.0</ele><time>2026-05-01T09:55:56.878Z</time></trkpt><trkpt lat="44.3508798" lon="7.5466169"><ele>572.0</ele><time>2026-05-01T09:55:57.878Z</time></trkpt><trkpt lat="44.3506359" lon="7.5465597"><ele>572.0</ele><time>2026-05-01T09:55:58.878Z</time></trkpt><trkpt lat="44.3503992" lon="7.5465023"><ele>571.0</ele><time>2026-05-01T09:55:59.878Z</time></trkpt><trkpt lat="44.3501569" lon="7.5464476"><ele>570.0</ele><time>2026-05-01T09:56:00.878Z</time></trkpt><trkpt lat="44.3499086" lon="7.5464033"><ele>570.5</ele><time>2026-05-01T09:56:01.878Z</time></trkpt><trkpt lat="44.3496577" lon="7.5463531"><ele>571.0</ele><time>2026-05-01T09:56:02.878Z</time></trkpt><trkpt lat="44.349415" lon="7.5463041"><ele>571.0</ele><time>2026-05-01T09:56:03.879Z</time></trkpt><trkpt lat="44.3491693" lon="7.5462563"><ele>571.0</ele><time>2026-05-01T09:56:04.879Z</time></trkpt><trkpt lat="44.3489239" lon="7.5462187"><ele>571.0</ele><time>2026-05-01T09:56:05.878Z</time></trkpt><trkpt lat="44.3486869" lon="7.5461813"><ele>571.0</ele><time>2026-05-01T09:56:06.878Z</time></trkpt><trkpt lat="44.3484527" lon="7.5461369"><ele>571.0</ele><time>2026-05-01T09:56:07.878Z</time></trkpt><trkpt lat="44.3482193" lon="7.5461104"><ele>571.0</ele><time>2026-05-01T09:56:08.878Z</time></trkpt><trkpt lat="44.3479814" lon="7.5460792"><ele>571.0</ele><time>2026-05-01T09:56:09.878Z</time></trkpt><trkpt lat="44.3477418" lon="7.5460458"><ele>571.0</ele><time>2026-05-01T09:56:10.878Z</time></trkpt><trkpt lat="44.347509" lon="7.5460134"><ele>571.0</ele><time>2026-05-01T09:56:11.878Z</time></trkpt><trkpt lat="44.3472763" lon="7.545982"><ele>571.0</ele><time>2026-05-01T09:56:12.878Z</time></trkpt><trkpt lat="44.3470419" lon="7.5459493"><ele>571.0</ele><time>2026-05-01T09:56:13.879Z</time></trkpt><trkpt lat="44.3468097" lon="7.5459177"><ele>571.0</ele><time>2026-05-01T09:56:14.878Z</time></trkpt><trkpt lat="44.3465722" lon="7.545888"><ele>571.5</ele><time>2026-05-01T09:56:15.878Z</time></trkpt><trkpt lat="44.3463529" lon="7.5458585"><ele>572.0</ele><time>2026-05-01T09:56:16.878Z</time></trkpt><trkpt lat="44.3461201" lon="7.5458279"><ele>572.0</ele><time>2026-05-01T09:56:17.878Z</time></trkpt><trkpt lat="44.345895" lon="7.5457975"><ele>572.0</ele><time>2026-05-01T09:56:18.879Z</time></trkpt><trkpt lat="44.3456736" lon="7.5457723"><ele>572.0</ele><time>2026-05-01T09:56:19.878Z</time></trkpt><trkpt lat="44.345443" lon="7.5457412"><ele>572.5</ele><time>2026-05-01T09:56:20.878Z</time></trkpt><trkpt lat="44.3452155" lon="7.5457069"><ele>573.0</ele><time>2026-05-01T09:56:21.878Z</time></trkpt><trkpt lat="44.3449913" lon="7.5456737"><ele>573.0</ele><time>2026-05-01T09:56:22.878Z</time></trkpt><trkpt lat="44.3447591" lon="7.5456448"><ele>573.0</ele><time>2026-05-01T09:56:23.878Z</time></trkpt><trkpt lat="44.3445191" lon="7.5455887"><ele>573.3333333333334</ele><time>2026-05-01T09:56:24.878Z</time></trkpt><trkpt lat="44.3442965" lon="7.5455635"><ele>573.6666666666667</ele><time>2026-05-01T09:56:25.878Z</time></trkpt><trkpt lat="44.3440734" lon="7.5455311"><ele>574.0</ele><time>2026-05-01T09:56:26.878Z</time></trkpt><trkpt lat="44.3438527" lon="7.5455053"><ele>574.0</ele><time>2026-05-01T09:56:27.878Z</time></trkpt><trkpt lat="44.3436332" lon="7.5454797"><ele>574.0</ele><time>2026-05-01T09:56:28.878Z</time></trkpt><trkpt lat="44.3434193" lon="7.5454517"><ele>574.0</ele><time>2026-05-01T09:56:29.878Z</time></trkpt><trkpt lat="44.3432099" lon="7.545427"><ele>574.6666666666667</ele><time>2026-05-01T09:56:30.878Z</time></trkpt><trkpt lat="44.3430048" lon="7.545399"><ele>575.3333333333334</ele><time>2026-05-01T09:56:31.878Z</time></trkpt><trkpt lat="44.3428011" lon="7.5453706"><ele>576.0</ele><time>2026-05-01T09:56:32.878Z</time></trkpt><trkpt lat="44.3425996" lon="7.5453439"><ele>576.0</ele><time>2026-05-01T09:56:33.878Z</time></trkpt><trkpt lat="44.3423999" lon="7.5453161"><ele>576.0</ele><time>2026-05-01T09:56:34.878Z</time></trkpt><trkpt lat="44.3422081" lon="7.5452885"><ele>576.0</ele><time>2026-05-01T09:56:35.878Z</time></trkpt><trkpt lat="44.3420249" lon="7.5452631"><ele>576.0</ele><time>2026-05-01T09:56:36.878Z</time></trkpt><trkpt lat="44.3418457" lon="7.5452377"><ele>576.0</ele><time>2026-05-01T09:56:37.878Z</time></trkpt><trkpt lat="44.3416748" lon="7.5452126"><ele>576.0</ele><time>2026-05-01T09:56:38.879Z</time></trkpt><trkpt lat="44.3415065" lon="7.5451938"><ele>576.6666666666666</ele><time>2026-05-01T09:56:39.878Z</time></trkpt><trkpt lat="44.3413355" lon="7.5451717"><ele>577.3333333333333</ele><time>2026-05-01T09:56:40.878Z</time></trkpt><trkpt lat="44.3411661" lon="7.5451515"><ele>578.0</ele><time>2026-05-01T09:56:41.878Z</time></trkpt><trkpt lat="44.3409942" lon="7.5451286"><ele>578.0</ele><time>2026-05-01T09:56:42.878Z</time></trkpt><trkpt lat="44.3408307" lon="7.5451065"><ele>578.0</ele><time>2026-05-01T09:56:43.878Z</time></trkpt><trkpt lat="44.3406618" lon="7.5450825"><ele>578.0</ele><time>2026-05-01T09:56:44.878Z</time></trkpt><trkpt lat="44.3404925" lon="7.5450575"><ele>578.0</ele><time>2026-05-01T09:56:45.878Z</time></trkpt><trkpt lat="44.340325" lon="7.545028"><ele>578.0</ele><time>2026-05-01T09:56:46.878Z</time></trkpt><trkpt lat="44.3401656" lon="7.5449883"><ele>578.0</ele><time>2026-05-01T09:56:47.878Z</time></trkpt><trkpt lat="44.3400037" lon="7.5449351"><ele>578.0</ele><time>2026-05-01T09:56:48.878Z</time></trkpt><trkpt lat="44.3398465" lon="7.5448704"><ele>578.0</ele><time>2026-05-01T09:56:49.878Z</time></trkpt><trkpt lat="44.339692" lon="7.5447971"><ele>578.0</ele><time>2026-05-01T09:56:50.878Z</time></trkpt><trkpt lat="44.3395461" lon="7.5447265"><ele>578.5</ele><time>2026-05-01T09:56:51.878Z</time></trkpt><trkpt lat="44.3393969" lon="7.5446479"><ele>579.0</ele><time>2026-05-01T09:56:52.878Z</time></trkpt><trkpt lat="44.3392757" lon="7.5445735"><ele>579.5</ele><time>2026-05-01T09:56:53.878Z</time></trkpt><trkpt lat="44.3391553" lon="7.5445087"><ele>580.0</ele><time>2026-05-01T09:56:54.878Z</time></trkpt><trkpt lat="44.3390446" lon="7.5444415"><ele>580.25</ele><time>2026-05-01T09:56:55.878Z</time></trkpt><trkpt lat="44.3389382" lon="7.5443815"><ele>580.5</ele><time>2026-05-01T09:56:56.878Z</time></trkpt><trkpt lat="44.3388273" lon="7.5443194"><ele>580.75</ele><time>2026-05-01T09:56:57.878Z</time></trkpt><trkpt lat="44.3387306" lon="7.5442542"><ele>581.0</ele><time>2026-05-01T09:56:58.878Z</time></trkpt><trkpt lat="44.3386319" lon="7.5441929"><ele>581.4</ele><time>2026-05-01T09:56:59.878Z</time></trkpt><trkpt lat="44.3385409" lon="7.5441347"><ele>581.8</ele><time>2026-05-01T09:57:00.878Z</time></trkpt><trkpt lat="44.3384546" lon="7.544087"><ele>582.1999999999999</ele><time>2026-05-01T09:57:01.879Z</time></trkpt><trkpt lat="44.3383789" lon="7.5440339"><ele>582.6</ele><time>2026-05-01T09:57:02.878Z</time></trkpt><trkpt lat="44.3383043" lon="7.5439584"><ele>583.0</ele><time>2026-05-01T09:57:03.878Z</time></trkpt><trkpt lat="44.3382265" lon="7.5438877"><ele>583.0</ele><time>2026-05-01T09:57:05.878Z</time></trkpt><trkpt lat="44.3381321" lon="7.5437607"><ele>583.0</ele><time>2026-05-01T09:57:07.878Z</time></trkpt><trkpt lat="44.3380824" lon="7.5436846"><ele>583.0</ele><time>2026-05-01T09:57:08.878Z</time></trkpt><trkpt lat="44.3380238" lon="7.5436133"><ele>583.0</ele><time>2026-05-01T09:57:09.878Z</time></trkpt><trkpt lat="44.33795" lon="7.5435449"><ele>583.0</ele><time>2026-05-01T09:57:10.878Z</time></trkpt><trkpt lat="44.3378688" lon="7.5434783"><ele>582.6</ele><time>2026-05-01T09:57:11.878Z</time></trkpt><trkpt lat="44.3377906" lon="7.5433922"><ele>582.1999999999999</ele><time>2026-05-01T09:57:12.878Z</time></trkpt><trkpt lat="44.3377174" lon="7.5432845"><ele>581.8</ele><time>2026-05-01T09:57:13.878Z</time></trkpt><trkpt lat="44.3376463" lon="7.5431709"><ele>581.4</ele><time>2026-05-01T09:57:14.878Z</time></trkpt><trkpt lat="44.337575" lon="7.5430249"><ele>581.0</ele><time>2026-05-01T09:57:15.878Z</time></trkpt><trkpt lat="44.337502" lon="7.5428818"><ele>580.75</ele><time>2026-05-01T09:57:16.878Z</time></trkpt><trkpt lat="44.3374261" lon="7.5427308"><ele>580.5</ele><time>2026-05-01T09:57:17.878Z</time></trkpt><trkpt lat="44.3373493" lon="7.5425716"><ele>580.25</ele><time>2026-05-01T09:57:18.878Z</time></trkpt><trkpt lat="44.3372753" lon="7.5424107"><ele>580.0</ele><time>2026-05-01T09:57:19.878Z</time></trkpt><trkpt lat="44.3371928" lon="7.5422362"><ele>580.5</ele><time>2026-05-01T09:57:20.878Z</time></trkpt><trkpt lat="44.3371197" lon="7.542056"><ele>581.0</ele><time>2026-05-01T09:57:21.878Z</time></trkpt><trkpt lat="44.3370461" lon="7.541872"><ele>581.5</ele><time>2026-05-01T09:57:22.878Z</time></trkpt><trkpt lat="44.3369772" lon="7.5416941"><ele>582.0</ele><time>2026-05-01T09:57:23.878Z</time></trkpt><trkpt lat="44.3369076" lon="7.5415035"><ele>582.0</ele><time>2026-05-01T09:57:24.879Z</time></trkpt><trkpt lat="44.3368425" lon="7.5413065"><ele>582.0</ele><time>2026-05-01T09:57:25.879Z</time></trkpt><trkpt lat="44.3367851" lon="7.5411037"><ele>582.0</ele><time>2026-05-01T09:57:26.878Z</time></trkpt><trkpt lat="44.3367231" lon="7.5408951"><ele>582.0</ele><time>2026-05-01T09:57:27.878Z</time></trkpt><trkpt lat="44.3366722" lon="7.540708"><ele>582.0</ele><time>2026-05-01T09:57:28.879Z</time></trkpt><trkpt lat="44.3366351" lon="7.5405285"><ele>582.0</ele><time>2026-05-01T09:57:29.878Z</time></trkpt><trkpt lat="44.3366058" lon="7.540345"><ele>582.0</ele><time>2026-05-01T09:57:30.878Z</time></trkpt><trkpt lat="44.3365803" lon="7.5401508"><ele>582.0</ele><time>2026-05-01T09:57:31.878Z</time></trkpt><trkpt lat="44.3365557" lon="7.5399538"><ele>582.0</ele><time>2026-05-01T09:57:32.879Z</time></trkpt><trkpt lat="44.3365379" lon="7.539736"><ele>582.0</ele><time>2026-05-01T09:57:33.879Z</time></trkpt><trkpt lat="44.336519" lon="7.5395216"><ele>582.3333333333334</ele><time>2026-05-01T09:57:34.878Z</time></trkpt><trkpt lat="44.3365013" lon="7.5393095"><ele>582.6666666666667</ele><time>2026-05-01T09:57:35.878Z</time></trkpt><trkpt lat="44.3364903" lon="7.5390979"><ele>583.0</ele><time>2026-05-01T09:57:36.878Z</time></trkpt><trkpt lat="44.3364866" lon="7.5388849"><ele>583.3333333333334</ele><time>2026-05-01T09:57:37.878Z</time></trkpt><trkpt lat="44.3364841" lon="7.5386574"><ele>583.6666666666666</ele><time>2026-05-01T09:57:38.878Z</time></trkpt><trkpt lat="44.3364847" lon="7.5384223"><ele>584.0</ele><time>2026-05-01T09:57:39.878Z</time></trkpt><trkpt lat="44.3364819" lon="7.538186"><ele>584.0</ele><time>2026-05-01T09:57:40.878Z</time></trkpt><trkpt lat="44.3364899" lon="7.5379613"><ele>584.0</ele><time>2026-05-01T09:57:41.878Z</time></trkpt><trkpt lat="44.3365066" lon="7.5377377"><ele>584.0</ele><time>2026-05-01T09:57:42.878Z</time></trkpt><trkpt lat="44.3365191" lon="7.5375148"><ele>584.0</ele><time>2026-05-01T09:57:43.878Z</time></trkpt><trkpt lat="44.3365224" lon="7.5372861"><ele>584.0</ele><time>2026-05-01T09:57:44.878Z</time></trkpt><trkpt lat="44.3365276" lon="7.5370551"><ele>584.0</ele><time>2026-05-01T09:57:45.878Z</time></trkpt><trkpt lat="44.3365384" lon="7.5368296"><ele>584.0</ele><time>2026-05-01T09:57:46.878Z</time></trkpt><trkpt lat="44.3365476" lon="7.5366042"><ele>584.0</ele><time>2026-05-01T09:57:47.878Z</time></trkpt><trkpt lat="44.3365565" lon="7.5363875"><ele>584.0</ele><time>2026-05-01T09:57:48.878Z</time></trkpt><trkpt lat="44.3365683" lon="7.5361479"><ele>584.3333333333333</ele><time>2026-05-01T09:57:49.878Z</time></trkpt><trkpt lat="44.3365758" lon="7.5359174"><ele>584.6666666666666</ele><time>2026-05-01T09:57:50.878Z</time></trkpt><trkpt lat="44.3365856" lon="7.5356812"><ele>585.0</ele><time>2026-05-01T09:57:51.878Z</time></trkpt><trkpt lat="44.3365995" lon="7.5354478"><ele>585.6666666666666</ele><time>2026-05-01T09:57:52.878Z</time></trkpt><trkpt lat="44.3366107" lon="7.5352192"><ele>586.3333333333333</ele><time>2026-05-01T09:57:53.878Z</time></trkpt><trkpt lat="44.3366153" lon="7.5350036"><ele>587.0</ele><time>2026-05-01T09:57:54.878Z</time></trkpt><trkpt lat="44.3366227" lon="7.5347913"><ele>587.0</ele><time>2026-05-01T09:57:55.878Z</time></trkpt><trkpt lat="44.3366336" lon="7.5345689"><ele>587.0</ele><time>2026-05-01T09:57:56.878Z</time></trkpt><trkpt lat="44.3366465" lon="7.5343552"><ele>587.0</ele><time>2026-05-01T09:57:57.878Z</time></trkpt><trkpt lat="44.3366555" lon="7.5341283"><ele>587.6666666666666</ele><time>2026-05-01T09:57:58.878Z</time></trkpt><trkpt lat="44.3366721" lon="7.5339048"><ele>588.3333333333334</ele><time>2026-05-01T09:57:59.878Z</time></trkpt><trkpt lat="44.3366856" lon="7.5336838"><ele>589.0</ele><time>2026-05-01T09:58:00.878Z</time></trkpt><trkpt lat="44.3366959" lon="7.5334631"><ele>589.0</ele><time>2026-05-01T09:58:01.878Z</time></trkpt><trkpt lat="44.3367023" lon="7.5332439"><ele>589.0</ele><time>2026-05-01T09:58:02.878Z</time></trkpt><trkpt lat="44.3367123" lon="7.5330329"><ele>589.0</ele><time>2026-05-01T09:58:03.878Z</time></trkpt><trkpt lat="44.3367189" lon="7.5328291"><ele>589.0</ele><time>2026-05-01T09:58:04.879Z</time></trkpt><trkpt lat="44.3367231" lon="7.5326368"><ele>589.0</ele><time>2026-05-01T09:58:05.878Z</time></trkpt><trkpt lat="44.3367314" lon="7.5324537"><ele>589.0</ele><time>2026-05-01T09:58:06.878Z</time></trkpt><trkpt lat="44.3367365" lon="7.5322777"><ele>589.0</ele><time>2026-05-01T09:58:07.878Z</time></trkpt><trkpt lat="44.3367314" lon="7.5321384"><ele>589.3333333333334</ele><time>2026-05-01T09:58:08.878Z</time></trkpt><trkpt lat="44.3367349" lon="7.5320291"><ele>589.6666666666667</ele><time>2026-05-01T09:58:09.878Z</time></trkpt><trkpt lat="44.3367331" lon="7.5319387"><ele>590.0</ele><time>2026-05-01T09:58:10.878Z</time></trkpt><trkpt lat="44.3367372" lon="7.5318497"><ele>590.3333333333334</ele><time>2026-05-01T09:58:11.878Z</time></trkpt><trkpt lat="44.3367421" lon="7.5316683"><ele>590.6666666666666</ele><time>2026-05-01T09:58:13.878Z</time></trkpt><trkpt lat="44.336746" lon="7.5315781"><ele>591.0</ele><time>2026-05-01T09:58:14.878Z</time></trkpt><trkpt lat="44.3367469" lon="7.531452"><ele>591.0</ele><time>2026-05-01T09:58:15.878Z</time></trkpt><trkpt lat="44.3367445" lon="7.5313337"><ele>591.0</ele><time>2026-05-01T09:58:16.878Z</time></trkpt><trkpt lat="44.3367484" lon="7.5312087"><ele>591.0</ele><time>2026-05-01T09:58:17.878Z</time></trkpt><trkpt lat="44.3367586" lon="7.5310621"><ele>591.0</ele><time>2026-05-01T09:58:18.878Z</time></trkpt><trkpt lat="44.3367607" lon="7.5309047"><ele>591.0</ele><time>2026-05-01T09:58:19.878Z</time></trkpt><trkpt lat="44.3367564" lon="7.5307472"><ele>591.0</ele><time>2026-05-01T09:58:20.878Z</time></trkpt><trkpt lat="44.3367473" lon="7.5305831"><ele>591.0</ele><time>2026-05-01T09:58:21.878Z</time></trkpt><trkpt lat="44.3367381" lon="7.5304095"><ele>591.0</ele><time>2026-05-01T09:58:22.878Z</time></trkpt><trkpt lat="44.3367127" lon="7.5302148"><ele>591.0</ele><time>2026-05-01T09:58:23.878Z</time></trkpt><trkpt lat="44.3366986" lon="7.5300212"><ele>591.5</ele><time>2026-05-01T09:58:24.878Z</time></trkpt><trkpt lat="44.3366823" lon="7.5298483"><ele>592.0</ele><time>2026-05-01T09:58:25.878Z</time></trkpt><trkpt lat="44.3366599" lon="7.5296669"><ele>592.5</ele><time>2026-05-01T09:58:26.878Z</time></trkpt><trkpt lat="44.3366363" lon="7.5294943"><ele>593.0</ele><time>2026-05-01T09:58:27.878Z</time></trkpt><trkpt lat="44.3366104" lon="7.5293211"><ele>593.0</ele><time>2026-05-01T09:58:28.878Z</time></trkpt><trkpt lat="44.3365808" lon="7.5291591"><ele>593.0</ele><time>2026-05-01T09:58:29.878Z</time></trkpt><trkpt lat="44.3365407" lon="7.5289955"><ele>593.0</ele><time>2026-05-01T09:58:30.878Z</time></trkpt><trkpt lat="44.3364966" lon="7.528832"><ele>593.0</ele><time>2026-05-01T09:58:31.878Z</time></trkpt><trkpt lat="44.3364488" lon="7.5286746"><ele>593.0</ele><time>2026-05-01T09:58:32.878Z</time></trkpt><trkpt lat="44.3364047" lon="7.5285071"><ele>593.0</ele><time>2026-05-01T09:58:33.878Z</time></trkpt><trkpt lat="44.3363567" lon="7.5283427"><ele>593.0</ele><time>2026-05-01T09:58:34.878Z</time></trkpt><trkpt lat="44.3363049" lon="7.5281807"><ele>593.0</ele><time>2026-05-01T09:58:35.878Z</time></trkpt><trkpt lat="44.336252" lon="7.528033"><ele>593.4</ele><time>2026-05-01T09:58:36.878Z</time></trkpt><trkpt lat="44.3361973" lon="7.5278901"><ele>593.8</ele><time>2026-05-01T09:58:37.878Z</time></trkpt><trkpt lat="44.3361368" lon="7.527758"><ele>594.2</ele><time>2026-05-01T09:58:38.878Z</time></trkpt><trkpt lat="44.3360771" lon="7.5276271"><ele>594.6</ele><time>2026-05-01T09:58:39.878Z</time></trkpt><trkpt lat="44.3360301" lon="7.527511"><ele>595.0</ele><time>2026-05-01T09:58:40.878Z</time></trkpt><trkpt lat="44.3359814" lon="7.5273928"><ele>595.0</ele><time>2026-05-01T09:58:41.878Z</time></trkpt><trkpt lat="44.3359301" lon="7.5272746"><ele>595.0</ele><time>2026-05-01T09:58:42.878Z</time></trkpt><trkpt lat="44.3358759" lon="7.5271441"><ele>595.0</ele><time>2026-05-01T09:58:43.878Z</time></trkpt><trkpt lat="44.3358316" lon="7.5270216"><ele>595.0</ele><time>2026-05-01T09:58:44.878Z</time></trkpt><trkpt lat="44.3357893" lon="7.5268913"><ele>595.0</ele><time>2026-05-01T09:58:45.878Z</time></trkpt><trkpt lat="44.3357375" lon="7.5267641"><ele>595.0</ele><time>2026-05-01T09:58:46.878Z</time></trkpt><trkpt lat="44.3356866" lon="7.5266356"><ele>595.0</ele><time>2026-05-01T09:58:47.878Z</time></trkpt><trkpt lat="44.3356343" lon="7.5265"><ele>595.0</ele><time>2026-05-01T09:58:48.878Z</time></trkpt><trkpt lat="44.3355738" lon="7.526358"><ele>595.0</ele><time>2026-05-01T09:58:49.878Z</time></trkpt><trkpt lat="44.335516" lon="7.5262113"><ele>595.0</ele><time>2026-05-01T09:58:50.878Z</time></trkpt><trkpt lat="44.3354574" lon="7.5260638"><ele>595.0</ele><time>2026-05-01T09:58:51.878Z</time></trkpt><trkpt lat="44.3353962" lon="7.5259169"><ele>595.0</ele><time>2026-05-01T09:58:52.878Z</time></trkpt><trkpt lat="44.3353358" lon="7.5257676"><ele>595.0</ele><time>2026-05-01T09:58:53.878Z</time></trkpt><trkpt lat="44.3352737" lon="7.5256105"><ele>595.0</ele><time>2026-05-01T09:58:54.878Z</time></trkpt><trkpt lat="44.3352065" lon="7.5254495"><ele>595.0</ele><time>2026-05-01T09:58:55.878Z</time></trkpt><trkpt lat="44.3351453" lon="7.5252908"><ele>595.0</ele><time>2026-05-01T09:58:56.878Z</time></trkpt><trkpt lat="44.335078" lon="7.5251279"><ele>595.0</ele><time>2026-05-01T09:58:57.878Z</time></trkpt><trkpt lat="44.3350114" lon="7.5249675"><ele>595.25</ele><time>2026-05-01T09:58:58.878Z</time></trkpt><trkpt lat="44.3349299" lon="7.5247982"><ele>595.5</ele><time>2026-05-01T09:58:59.878Z</time></trkpt><trkpt lat="44.3348614" lon="7.52463"><ele>595.75</ele><time>2026-05-01T09:59:00.878Z</time></trkpt><trkpt lat="44.3347929" lon="7.5244715"><ele>596.0</ele><time>2026-05-01T09:59:01.878Z</time></trkpt><trkpt lat="44.3347362" lon="7.5243018"><ele>596.25</ele><time>2026-05-01T09:59:02.879Z</time></trkpt><trkpt lat="44.3346771" lon="7.5241409"><ele>596.5</ele><time>2026-05-01T09:59:03.878Z</time></trkpt><trkpt lat="44.3346215" lon="7.5239841"><ele>596.75</ele><time>2026-05-01T09:59:04.878Z</time></trkpt><trkpt lat="44.3345601" lon="7.5238332"><ele>597.0</ele><time>2026-05-01T09:59:05.878Z</time></trkpt><trkpt lat="44.3345039" lon="7.5236843"><ele>597.0</ele><time>2026-05-01T09:59:06.878Z</time></trkpt><trkpt lat="44.3344347" lon="7.5235288"><ele>597.0</ele><time>2026-05-01T09:59:07.878Z</time></trkpt><trkpt lat="44.3343737" lon="7.5233874"><ele>597.0</ele><time>2026-05-01T09:59:08.878Z</time></trkpt><trkpt lat="44.334309" lon="7.5232403"><ele>597.0</ele><time>2026-05-01T09:59:09.878Z</time></trkpt><trkpt lat="44.3342489" lon="7.5230868"><ele>597.0</ele><time>2026-05-01T09:59:10.878Z</time></trkpt><trkpt lat="44.334172" lon="7.5229288"><ele>597.0</ele><time>2026-05-01T09:59:11.878Z</time></trkpt><trkpt lat="44.3341064" lon="7.5227728"><ele>597.0</ele><time>2026-05-01T09:59:12.878Z</time></trkpt><trkpt lat="44.3340364" lon="7.5226162"><ele>597.0</ele><time>2026-05-01T09:59:13.878Z</time></trkpt><trkpt lat="44.3339719" lon="7.5224576"><ele>596.75</ele><time>2026-05-01T09:59:14.878Z</time></trkpt><trkpt lat="44.3339072" lon="7.5223003"><ele>596.5</ele><time>2026-05-01T09:59:15.878Z</time></trkpt><trkpt lat="44.3338449" lon="7.5221532"><ele>596.25</ele><time>2026-05-01T09:59:16.878Z</time></trkpt><trkpt lat="44.3337748" lon="7.5220046"><ele>596.0</ele><time>2026-05-01T09:59:17.878Z</time></trkpt><trkpt lat="44.333705" lon="7.5218563"><ele>596.75</ele><time>2026-05-01T09:59:18.878Z</time></trkpt><trkpt lat="44.3336355" lon="7.5217028"><ele>597.5</ele><time>2026-05-01T09:59:19.879Z</time></trkpt><trkpt lat="44.3335774" lon="7.5215612"><ele>598.25</ele><time>2026-05-01T09:59:20.878Z</time></trkpt><trkpt lat="44.3335132" lon="7.5213962"><ele>599.0</ele><time>2026-05-01T09:59:21.878Z</time></trkpt><trkpt lat="44.3334399" lon="7.5212337"><ele>598.5</ele><time>2026-05-01T09:59:22.878Z</time></trkpt><trkpt lat="44.3333707" lon="7.5210767"><ele>598.0</ele><time>2026-05-01T09:59:23.878Z</time></trkpt><trkpt lat="44.3333052" lon="7.5209311"><ele>597.5</ele><time>2026-05-01T09:59:24.878Z</time></trkpt><trkpt lat="44.3332225" lon="7.5207815"><ele>597.0</ele><time>2026-05-01T09:59:25.878Z</time></trkpt><trkpt lat="44.33315" lon="7.520635"><ele>597.0</ele><time>2026-05-01T09:59:26.878Z</time></trkpt><trkpt lat="44.3330904" lon="7.5204859"><ele>597.0</ele><time>2026-05-01T09:59:27.879Z</time></trkpt><trkpt lat="44.3330272" lon="7.5203398"><ele>597.0</ele><time>2026-05-01T09:59:28.878Z</time></trkpt><trkpt lat="44.332959" lon="7.5201939"><ele>597.0</ele><time>2026-05-01T09:59:29.878Z</time></trkpt><trkpt lat="44.3328845" lon="7.5200333"><ele>597.25</ele><time>2026-05-01T09:59:30.878Z</time></trkpt><trkpt lat="44.332824" lon="7.5198758"><ele>597.5</ele><time>2026-05-01T09:59:31.878Z</time></trkpt><trkpt lat="44.3327607" lon="7.5197189"><ele>597.75</ele><time>2026-05-01T09:59:32.878Z</time></trkpt><trkpt lat="44.3326913" lon="7.5195588"><ele>598.0</ele><time>2026-05-01T09:59:33.878Z</time></trkpt><trkpt lat="44.3326246" lon="7.519398"><ele>598.0</ele><time>2026-05-01T09:59:34.878Z</time></trkpt><trkpt lat="44.3325611" lon="7.5192477"><ele>598.0</ele><time>2026-05-01T09:59:35.878Z</time></trkpt><trkpt lat="44.3324985" lon="7.5190982"><ele>598.0</ele><time>2026-05-01T09:59:36.878Z</time></trkpt><trkpt lat="44.3324367" lon="7.5189479"><ele>598.0</ele><time>2026-05-01T09:59:37.878Z</time></trkpt><trkpt lat="44.3323831" lon="7.5188015"><ele>597.75</ele><time>2026-05-01T09:59:38.878Z</time></trkpt><trkpt lat="44.3323245" lon="7.5186676"><ele>597.5</ele><time>2026-05-01T09:59:39.878Z</time></trkpt><trkpt lat="44.332256" lon="7.5185156"><ele>597.25</ele><time>2026-05-01T09:59:40.878Z</time></trkpt><trkpt lat="44.3322027" lon="7.5183737"><ele>597.0</ele><time>2026-05-01T09:59:41.878Z</time></trkpt><trkpt lat="44.3321553" lon="7.5182402"><ele>597.4</ele><time>2026-05-01T09:59:42.878Z</time></trkpt><trkpt lat="44.3321093" lon="7.5181059"><ele>597.8000000000001</ele><time>2026-05-01T09:59:43.878Z</time></trkpt><trkpt lat="44.3320615" lon="7.5179787"><ele>598.2</ele><time>2026-05-01T09:59:44.878Z</time></trkpt><trkpt lat="44.3320102" lon="7.5178403"><ele>598.6</ele><time>2026-05-01T09:59:45.878Z</time></trkpt><trkpt lat="44.331959" lon="7.5177012"><ele>599.0</ele><time>2026-05-01T09:59:46.878Z</time></trkpt><trkpt lat="44.3319084" lon="7.5175687"><ele>599.0</ele><time>2026-05-01T09:59:47.878Z</time></trkpt><trkpt lat="44.3318628" lon="7.517441"><ele>599.0</ele><time>2026-05-01T09:59:48.878Z</time></trkpt><trkpt lat="44.3318196" lon="7.5173194"><ele>599.0</ele><time>2026-05-01T09:59:49.878Z</time></trkpt><trkpt lat="44.33178" lon="7.5172042"><ele>599.0</ele><time>2026-05-01T09:59:50.878Z</time></trkpt><trkpt lat="44.3317382" lon="7.5170919"><ele>599.0</ele><time>2026-05-01T09:59:51.878Z</time></trkpt><trkpt lat="44.3317035" lon="7.5169762"><ele>599.0</ele><time>2026-05-01T09:59:52.878Z</time></trkpt><trkpt lat="44.3316738" lon="7.5168665"><ele>599.0</ele><time>2026-05-01T09:59:53.878Z</time></trkpt><trkpt lat="44.3316557" lon="7.5167559"><ele>599.0</ele><time>2026-05-01T09:59:54.878Z</time></trkpt><trkpt lat="44.3316411" lon="7.5166504"><ele>599.0</ele><time>2026-05-01T09:59:55.878Z</time></trkpt><trkpt lat="44.3316095" lon="7.5165371"><ele>599.0</ele><time>2026-05-01T09:59:56.878Z</time></trkpt><trkpt lat="44.3315586" lon="7.5164327"><ele>599.0</ele><time>2026-05-01T09:59:57.878Z</time></trkpt><trkpt lat="44.3314918" lon="7.5163181"><ele>599.0</ele><time>2026-05-01T09:59:58.878Z</time></trkpt><trkpt lat="44.3314241" lon="7.516186"><ele>599.0</ele><time>2026-05-01T09:59:59.878Z</time></trkpt><trkpt lat="44.3313604" lon="7.5160384"><ele>599.0</ele><time>2026-05-01T10:00:00.878Z</time></trkpt><trkpt lat="44.3312987" lon="7.5158664"><ele>599.0</ele><time>2026-05-01T10:00:01.878Z</time></trkpt><trkpt lat="44.3312337" lon="7.5156926"><ele>599.0</ele><time>2026-05-01T10:00:02.878Z</time></trkpt><trkpt lat="44.3311534" lon="7.515498"><ele>599.0</ele><time>2026-05-01T10:00:03.878Z</time></trkpt><trkpt lat="44.3310877" lon="7.5152884"><ele>599.0</ele><time>2026-05-01T10:00:04.878Z</time></trkpt><trkpt lat="44.3310286" lon="7.5150628"><ele>599.0</ele><time>2026-05-01T10:00:05.878Z</time></trkpt><trkpt lat="44.3309848" lon="7.5148329"><ele>599.0</ele><time>2026-05-01T10:00:06.878Z</time></trkpt><trkpt lat="44.3309411" lon="7.5145968"><ele>599.0</ele><time>2026-05-01T10:00:07.878Z</time></trkpt><trkpt lat="44.3309041" lon="7.5143503"><ele>599.0</ele><time>2026-05-01T10:00:08.878Z</time></trkpt><trkpt lat="44.3308714" lon="7.5140996"><ele>599.0</ele><time>2026-05-01T10:00:09.878Z</time></trkpt><trkpt lat="44.3308582" lon="7.5138372"><ele>599.0</ele><time>2026-05-01T10:00:10.878Z</time></trkpt><trkpt lat="44.3308549" lon="7.5135564"><ele>598.6666666666666</ele><time>2026-05-01T10:00:11.878Z</time></trkpt><trkpt lat="44.3308528" lon="7.5132665"><ele>598.3333333333334</ele><time>2026-05-01T10:00:12.878Z</time></trkpt><trkpt lat="44.3308735" lon="7.5129973"><ele>598.0</ele><time>2026-05-01T10:00:13.878Z</time></trkpt><trkpt lat="44.330906" lon="7.5127197"><ele>598.0</ele><time>2026-05-01T10:00:14.878Z</time></trkpt><trkpt lat="44.3309506" lon="7.5124575"><ele>598.0</ele><time>2026-05-01T10:00:15.878Z</time></trkpt><trkpt lat="44.3310038" lon="7.5121964"><ele>598.0</ele><time>2026-05-01T10:00:16.878Z</time></trkpt><trkpt lat="44.3310621" lon="7.5119402"><ele>598.0</ele><time>2026-05-01T10:00:17.878Z</time></trkpt><trkpt lat="44.3311305" lon="7.5116954"><ele>598.0</ele><time>2026-05-01T10:00:18.878Z</time></trkpt><trkpt lat="44.3312108" lon="7.5114491"><ele>598.0</ele><time>2026-05-01T10:00:19.878Z</time></trkpt><trkpt lat="44.3312993" lon="7.5112088"><ele>598.3333333333334</ele><time>2026-05-01T10:00:20.878Z</time></trkpt><trkpt lat="44.3314011" lon="7.5109597"><ele>598.6666666666666</ele><time>2026-05-01T10:00:21.878Z</time></trkpt><trkpt lat="44.3314957" lon="7.5107269"><ele>599.0</ele><time>2026-05-01T10:00:22.878Z</time></trkpt><trkpt lat="44.3315927" lon="7.510486"><ele>598.6666666666666</ele><time>2026-05-01T10:00:23.878Z</time></trkpt><trkpt lat="44.3316892" lon="7.5102547"><ele>598.3333333333334</ele><time>2026-05-01T10:00:24.878Z</time></trkpt><trkpt lat="44.3317922" lon="7.5100302"><ele>598.0</ele><time>2026-05-01T10:00:25.878Z</time></trkpt><trkpt lat="44.3318844" lon="7.5098046"><ele>598.0</ele><time>2026-05-01T10:00:26.878Z</time></trkpt><trkpt lat="44.3319791" lon="7.5095915"><ele>598.0</ele><time>2026-05-01T10:00:27.878Z</time></trkpt><trkpt lat="44.332067" lon="7.5093708"><ele>598.0</ele><time>2026-05-01T10:00:28.878Z</time></trkpt><trkpt lat="44.3321532" lon="7.5091516"><ele>597.6666666666667</ele><time>2026-05-01T10:00:29.878Z</time></trkpt><trkpt lat="44.3322551" lon="7.5089435"><ele>597.3333333333334</ele><time>2026-05-01T10:00:30.878Z</time></trkpt><trkpt lat="44.3323504" lon="7.5087214"><ele>597.0</ele><time>2026-05-01T10:00:31.878Z</time></trkpt><trkpt lat="44.3324463" lon="7.5084898"><ele>597.0</ele><time>2026-05-01T10:00:32.878Z</time></trkpt><trkpt lat="44.3325358" lon="7.5082622"><ele>597.0</ele><time>2026-05-01T10:00:33.878Z</time></trkpt><trkpt lat="44.3326301" lon="7.5080282"><ele>597.0</ele><time>2026-05-01T10:00:34.878Z</time></trkpt><trkpt lat="44.3327162" lon="7.5078003"><ele>596.6666666666666</ele><time>2026-05-01T10:00:35.878Z</time></trkpt><trkpt lat="44.3328047" lon="7.5075683"><ele>596.3333333333333</ele><time>2026-05-01T10:00:36.878Z</time></trkpt><trkpt lat="44.332891" lon="7.5073321"><ele>596.0</ele><time>2026-05-01T10:00:37.878Z</time></trkpt><trkpt lat="44.3329884" lon="7.507092"><ele>597.6666666666666</ele><time>2026-05-01T10:00:38.878Z</time></trkpt><trkpt lat="44.3330924" lon="7.5068599"><ele>599.3333333333334</ele><time>2026-05-01T10:00:39.878Z</time></trkpt><trkpt lat="44.3331958" lon="7.5066205"><ele>601.0</ele><time>2026-05-01T10:00:40.878Z</time></trkpt><trkpt lat="44.3332979" lon="7.5063834"><ele>602.0</ele><time>2026-05-01T10:00:41.878Z</time></trkpt><trkpt lat="44.3334059" lon="7.5061445"><ele>603.0</ele><time>2026-05-01T10:00:42.879Z</time></trkpt><trkpt lat="44.3335112" lon="7.5059094"><ele>604.0</ele><time>2026-05-01T10:00:43.878Z</time></trkpt><trkpt lat="44.3336166" lon="7.5056789"><ele>604.0</ele><time>2026-05-01T10:00:44.878Z</time></trkpt><trkpt lat="44.3337176" lon="7.5054477"><ele>604.0</ele><time>2026-05-01T10:00:45.878Z</time></trkpt><trkpt lat="44.3338121" lon="7.5052206"><ele>604.0</ele><time>2026-05-01T10:00:46.879Z</time></trkpt><trkpt lat="44.3339099" lon="7.504997"><ele>604.6666666666667</ele><time>2026-05-01T10:00:47.878Z</time></trkpt><trkpt lat="44.3340049" lon="7.504783"><ele>605.3333333333334</ele><time>2026-05-01T10:00:48.878Z</time></trkpt><trkpt lat="44.3340954" lon="7.5045551"><ele>606.0</ele><time>2026-05-01T10:00:49.878Z</time></trkpt><trkpt lat="44.3341722" lon="7.5043351"><ele>607.3333333333334</ele><time>2026-05-01T10:00:50.878Z</time></trkpt><trkpt lat="44.3342359" lon="7.5041262"><ele>608.6666666666667</ele><time>2026-05-01T10:00:51.879Z</time></trkpt><trkpt lat="44.3342861" lon="7.503919"><ele>610.0</ele><time>2026-05-01T10:00:52.878Z</time></trkpt><trkpt lat="44.3343273" lon="7.5037387"><ele>610.25</ele><time>2026-05-01T10:00:53.878Z</time></trkpt><trkpt lat="44.334357" lon="7.5035601"><ele>610.5</ele><time>2026-05-01T10:00:54.878Z</time></trkpt><trkpt lat="44.3343765" lon="7.5033901"><ele>610.75</ele><time>2026-05-01T10:00:55.878Z</time></trkpt><trkpt lat="44.3343949" lon="7.5032333"><ele>611.0</ele><time>2026-05-01T10:00:56.878Z</time></trkpt><trkpt lat="44.3344108" lon="7.5030897"><ele>611.0</ele><time>2026-05-01T10:00:57.878Z</time></trkpt><trkpt lat="44.3344284" lon="7.5029588"><ele>611.0</ele><time>2026-05-01T10:00:58.878Z</time></trkpt><trkpt lat="44.3344441" lon="7.5028389"><ele>611.0</ele><time>2026-05-01T10:00:59.878Z</time></trkpt><trkpt lat="44.3344617" lon="7.5027404"><ele>611.0</ele><time>2026-05-01T10:01:00.878Z</time></trkpt><trkpt lat="44.3345052" lon="7.5026039"><ele>611.0</ele><time>2026-05-01T10:01:02.879Z</time></trkpt><trkpt lat="44.3345639" lon="7.5024574"><ele>611.3333333333333</ele><time>2026-05-01T10:01:04.878Z</time></trkpt><trkpt lat="44.334577" lon="7.5023691"><ele>611.6666666666666</ele><time>2026-05-01T10:01:05.879Z</time></trkpt><trkpt lat="44.3345664" lon="7.5021961"><ele>612.0</ele><time>2026-05-01T10:01:07.878Z</time></trkpt><trkpt lat="44.3345158" lon="7.502111"><ele>612.3333333333334</ele><time>2026-05-01T10:01:08.878Z</time></trkpt><trkpt lat="44.3344547" lon="7.5020297"><ele>612.6666666666667</ele><time>2026-05-01T10:01:09.879Z</time></trkpt><trkpt lat="44.3343941" lon="7.5019363"><ele>613.0</ele><time>2026-05-01T10:01:10.878Z</time></trkpt><trkpt lat="44.3343413" lon="7.5018337"><ele>613.75</ele><time>2026-05-01T10:01:11.879Z</time></trkpt><trkpt lat="44.3342843" lon="7.5017115"><ele>614.5</ele><time>2026-05-01T10:01:12.878Z</time></trkpt><trkpt lat="44.3342276" lon="7.5015763"><ele>615.25</ele><time>2026-05-01T10:01:13.878Z</time></trkpt><trkpt lat="44.3341689" lon="7.501433"><ele>616.0</ele><time>2026-05-01T10:01:14.878Z</time></trkpt><trkpt lat="44.3341071" lon="7.5012915"><ele>615.75</ele><time>2026-05-01T10:01:15.878Z</time></trkpt><trkpt lat="44.3340438" lon="7.5011458"><ele>615.5</ele><time>2026-05-01T10:01:16.879Z</time></trkpt><trkpt lat="44.3339822" lon="7.5009976"><ele>615.25</ele><time>2026-05-01T10:01:17.878Z</time></trkpt><trkpt lat="44.3339196" lon="7.5008433"><ele>615.0</ele><time>2026-05-01T10:01:18.878Z</time></trkpt><trkpt lat="44.3338565" lon="7.5007001"><ele>615.0</ele><time>2026-05-01T10:01:19.878Z</time></trkpt><trkpt lat="44.3337887" lon="7.500546"><ele>615.0</ele><time>2026-05-01T10:01:20.878Z</time></trkpt><trkpt lat="44.3337248" lon="7.5003892"><ele>615.0</ele><time>2026-05-01T10:01:21.878Z</time></trkpt><trkpt lat="44.333658" lon="7.5002392"><ele>615.0</ele><time>2026-05-01T10:01:22.878Z</time></trkpt><trkpt lat="44.3335938" lon="7.5000962"><ele>615.8</ele><time>2026-05-01T10:01:23.878Z</time></trkpt><trkpt lat="44.3335332" lon="7.4999651"><ele>616.6</ele><time>2026-05-01T10:01:24.878Z</time></trkpt><trkpt lat="44.3334682" lon="7.4998361"><ele>617.4</ele><time>2026-05-01T10:01:25.878Z</time></trkpt><trkpt lat="44.3334068" lon="7.4997089"><ele>618.2</ele><time>2026-05-01T10:01:26.879Z</time></trkpt><trkpt lat="44.3333542" lon="7.4995885"><ele>619.0</ele><time>2026-05-01T10:01:27.878Z</time></trkpt><trkpt lat="44.3332948" lon="7.4994589"><ele>619.6</ele><time>2026-05-01T10:01:28.878Z</time></trkpt><trkpt lat="44.3332483" lon="7.4993334"><ele>620.2</ele><time>2026-05-01T10:01:29.878Z</time></trkpt><trkpt lat="44.3331996" lon="7.4992123"><ele>620.8000000000001</ele><time>2026-05-01T10:01:30.878Z</time></trkpt><trkpt lat="44.3331591" lon="7.4991133"><ele>621.4</ele><time>2026-05-01T10:01:31.878Z</time></trkpt><trkpt lat="44.333105" lon="7.4990102"><ele>622.0</ele><time>2026-05-01T10:01:32.878Z</time></trkpt><trkpt lat="44.3330568" lon="7.4988944"><ele>621.4</ele><time>2026-05-01T10:01:33.878Z</time></trkpt><trkpt lat="44.3330095" lon="7.4987745"><ele>620.8000000000001</ele><time>2026-05-01T10:01:34.878Z</time></trkpt><trkpt lat="44.3329523" lon="7.4986404"><ele>620.2</ele><time>2026-05-01T10:01:35.878Z</time></trkpt><trkpt lat="44.3328938" lon="7.4985248"><ele>619.6</ele><time>2026-05-01T10:01:36.878Z</time></trkpt><trkpt lat="44.3328445" lon="7.4984124"><ele>619.0</ele><time>2026-05-01T10:01:37.879Z</time></trkpt><trkpt lat="44.3327992" lon="7.4983085"><ele>619.0</ele><time>2026-05-01T10:01:38.878Z</time></trkpt><trkpt lat="44.3327565" lon="7.4982104"><ele>619.0</ele><time>2026-05-01T10:01:39.878Z</time></trkpt><trkpt lat="44.3327124" lon="7.4981029"><ele>619.0</ele><time>2026-05-01T10:01:40.878Z</time></trkpt><trkpt lat="44.3326663" lon="7.4979931"><ele>619.0</ele><time>2026-05-01T10:01:41.878Z</time></trkpt><trkpt lat="44.3326161" lon="7.4978895"><ele>619.0</ele><time>2026-05-01T10:01:42.878Z</time></trkpt><trkpt lat="44.3325666" lon="7.4977799"><ele>619.0</ele><time>2026-05-01T10:01:43.879Z</time></trkpt><trkpt lat="44.332524" lon="7.4976503"><ele>619.8333333333334</ele><time>2026-05-01T10:01:44.878Z</time></trkpt><trkpt lat="44.3324934" lon="7.4975234"><ele>620.6666666666667</ele><time>2026-05-01T10:01:45.879Z</time></trkpt><trkpt lat="44.3324686" lon="7.4973892"><ele>621.5</ele><time>2026-05-01T10:01:46.878Z</time></trkpt><trkpt lat="44.3324475" lon="7.4972572"><ele>622.3333333333334</ele><time>2026-05-01T10:01:47.878Z</time></trkpt><trkpt lat="44.3324377" lon="7.4971496"><ele>623.1666666666666</ele><time>2026-05-01T10:01:48.878Z</time></trkpt><trkpt lat="44.3324502" lon="7.4970497"><ele>624.0</ele><time>2026-05-01T10:01:49.878Z</time></trkpt><trkpt lat="44.3324745" lon="7.4969463"><ele>624.5</ele><time>2026-05-01T10:01:50.878Z</time></trkpt><trkpt lat="44.3325038" lon="7.4968521"><ele>625.0</ele><time>2026-05-01T10:01:51.878Z</time></trkpt><trkpt lat="44.3325275" lon="7.4967491"><ele>625.5</ele><time>2026-05-01T10:01:52.878Z</time></trkpt><trkpt lat="44.3325288" lon="7.4966358"><ele>626.0</ele><time>2026-05-01T10:01:53.878Z</time></trkpt><trkpt lat="44.3325145" lon="7.4965422"><ele>626.5</ele><time>2026-05-01T10:01:54.878Z</time></trkpt><trkpt lat="44.3324576" lon="7.4964177"><ele>627.0</ele><time>2026-05-01T10:01:55.878Z</time></trkpt><trkpt lat="44.3323949" lon="7.496316"><ele>627.2</ele><time>2026-05-01T10:01:56.878Z</time></trkpt><trkpt lat="44.332329" lon="7.4962131"><ele>627.4000000000001</ele><time>2026-05-01T10:01:57.878Z</time></trkpt><trkpt lat="44.3322911" lon="7.4961242"><ele>627.5999999999999</ele><time>2026-05-01T10:01:58.878Z</time></trkpt><trkpt lat="44.3322515" lon="7.4960121"><ele>627.8</ele><time>2026-05-01T10:01:59.878Z</time></trkpt><trkpt lat="44.3322086" lon="7.495899"><ele>628.0</ele><time>2026-05-01T10:02:00.878Z</time></trkpt><trkpt lat="44.3321719" lon="7.4957679"><ele>627.25</ele><time>2026-05-01T10:02:01.878Z</time></trkpt><trkpt lat="44.3321332" lon="7.4956104"><ele>626.5</ele><time>2026-05-01T10:02:02.878Z</time></trkpt><trkpt lat="44.3320922" lon="7.4954587"><ele>625.75</ele><time>2026-05-01T10:02:03.878Z</time></trkpt><trkpt lat="44.3320592" lon="7.4952948"><ele>625.0</ele><time>2026-05-01T10:02:04.878Z</time></trkpt><trkpt lat="44.3320234" lon="7.4951176"><ele>625.0</ele><time>2026-05-01T10:02:05.878Z</time></trkpt><trkpt lat="44.3319979" lon="7.4949428"><ele>625.0</ele><time>2026-05-01T10:02:06.878Z</time></trkpt><trkpt lat="44.3319726" lon="7.4947642"><ele>625.0</ele><time>2026-05-01T10:02:07.878Z</time></trkpt><trkpt lat="44.3319513" lon="7.4945834"><ele>625.0</ele><time>2026-05-01T10:02:08.878Z</time></trkpt><trkpt lat="44.3319302" lon="7.4944102"><ele>625.5</ele><time>2026-05-01T10:02:09.878Z</time></trkpt><trkpt lat="44.3319112" lon="7.4942279"><ele>626.0</ele><time>2026-05-01T10:02:10.878Z</time></trkpt><trkpt lat="44.3318941" lon="7.4940635"><ele>626.5</ele><time>2026-05-01T10:02:11.878Z</time></trkpt><trkpt lat="44.3318727" lon="7.4938875"><ele>627.0</ele><time>2026-05-01T10:02:12.878Z</time></trkpt><trkpt lat="44.3318508" lon="7.4937044"><ele>627.5</ele><time>2026-05-01T10:02:13.878Z</time></trkpt><trkpt lat="44.3318382" lon="7.4935233"><ele>628.0</ele><time>2026-05-01T10:02:14.878Z</time></trkpt><trkpt lat="44.3318203" lon="7.4933458"><ele>628.5</ele><time>2026-05-01T10:02:15.878Z</time></trkpt><trkpt lat="44.3318026" lon="7.49318"><ele>629.0</ele><time>2026-05-01T10:02:16.878Z</time></trkpt><trkpt lat="44.3317922" lon="7.4930214"><ele>629.5</ele><time>2026-05-01T10:02:17.878Z</time></trkpt><trkpt lat="44.3317649" lon="7.4928326"><ele>630.0</ele><time>2026-05-01T10:02:18.878Z</time></trkpt><trkpt lat="44.331754" lon="7.4926713"><ele>630.5</ele><time>2026-05-01T10:02:19.878Z</time></trkpt><trkpt lat="44.3317289" lon="7.4925024"><ele>631.0</ele><time>2026-05-01T10:02:20.878Z</time></trkpt><trkpt lat="44.3317244" lon="7.4923481"><ele>631.0</ele><time>2026-05-01T10:02:21.878Z</time></trkpt><trkpt lat="44.3317219" lon="7.4922053"><ele>631.0</ele><time>2026-05-01T10:02:22.878Z</time></trkpt><trkpt lat="44.3317178" lon="7.4920669"><ele>631.0</ele><time>2026-05-01T10:02:23.878Z</time></trkpt><trkpt lat="44.3317154" lon="7.4919366"><ele>631.0</ele><time>2026-05-01T10:02:24.878Z</time></trkpt><trkpt lat="44.3317141" lon="7.4918202"><ele>631.0</ele><time>2026-05-01T10:02:25.878Z</time></trkpt><trkpt lat="44.331712" lon="7.4917184"><ele>631.2</ele><time>2026-05-01T10:02:26.879Z</time></trkpt><trkpt lat="44.3317161" lon="7.4916024"><ele>631.4000000000001</ele><time>2026-05-01T10:02:27.878Z</time></trkpt><trkpt lat="44.331715" lon="7.4914815"><ele>631.6</ele><time>2026-05-01T10:02:28.878Z</time></trkpt><trkpt lat="44.3317126" lon="7.4913601"><ele>631.8000000000001</ele><time>2026-05-01T10:02:29.878Z</time></trkpt><trkpt lat="44.3317056" lon="7.4912209"><ele>632.0</ele><time>2026-05-01T10:02:30.878Z</time></trkpt><trkpt lat="44.3317073" lon="7.4910833"><ele>632.2</ele><time>2026-05-01T10:02:31.878Z</time></trkpt><trkpt lat="44.3316984" lon="7.4909468"><ele>632.4000000000001</ele><time>2026-05-01T10:02:32.878Z</time></trkpt><trkpt lat="44.3316943" lon="7.4908242"><ele>632.5999999999999</ele><time>2026-05-01T10:02:33.878Z</time></trkpt><trkpt lat="44.3316923" lon="7.4906952"><ele>632.8</ele><time>2026-05-01T10:02:34.878Z</time></trkpt><trkpt lat="44.3316914" lon="7.4905691"><ele>633.0</ele><time>2026-05-01T10:02:35.878Z</time></trkpt><trkpt lat="44.3316919" lon="7.4904523"><ele>633.3333333333334</ele><time>2026-05-01T10:02:36.878Z</time></trkpt><trkpt lat="44.3316902" lon="7.4903304"><ele>633.6666666666666</ele><time>2026-05-01T10:02:37.878Z</time></trkpt><trkpt lat="44.3316839" lon="7.4902164"><ele>634.0</ele><time>2026-05-01T10:02:38.878Z</time></trkpt><trkpt lat="44.3316718" lon="7.4901099"><ele>634.3333333333333</ele><time>2026-05-01T10:02:39.878Z</time></trkpt><trkpt lat="44.3316616" lon="7.4900183"><ele>634.6666666666666</ele><time>2026-05-01T10:02:40.878Z</time></trkpt><trkpt lat="44.3316524" lon="7.4898817"><ele>635.0</ele><time>2026-05-01T10:02:42.878Z</time></trkpt><trkpt lat="44.3316674" lon="7.4897464"><ele>635.0</ele><time>2026-05-01T10:02:44.878Z</time></trkpt><trkpt lat="44.3316905" lon="7.489593"><ele>635.0</ele><time>2026-05-01T10:02:46.878Z</time></trkpt><trkpt lat="44.3317058" lon="7.4895009"><ele>635.0</ele><time>2026-05-01T10:02:47.878Z</time></trkpt><trkpt lat="44.3317294" lon="7.489388"><ele>635.0</ele><time>2026-05-01T10:02:48.879Z</time></trkpt><trkpt lat="44.3317498" lon="7.4892984"><ele>635.0</ele><time>2026-05-01T10:02:49.878Z</time></trkpt><trkpt lat="44.3317789" lon="7.4891589"><ele>635.0</ele><time>2026-05-01T10:02:51.878Z</time></trkpt><trkpt lat="44.3318419" lon="7.4890899"><ele>635.1666666666666</ele><time>2026-05-01T10:02:54.878Z</time></trkpt><trkpt lat="44.3319158" lon="7.4890285"><ele>635.3333333333333</ele><time>2026-05-01T10:02:56.878Z</time></trkpt><trkpt lat="44.33197" lon="7.4889675"><ele>635.5</ele><time>2026-05-01T10:02:57.878Z</time></trkpt><trkpt lat="44.3319779" lon="7.4888784"><ele>635.6666666666666</ele><time>2026-05-01T10:02:58.878Z</time></trkpt><trkpt lat="44.3319305" lon="7.488784"><ele>635.8333333333334</ele><time>2026-05-01T10:03:00.879Z</time></trkpt><trkpt lat="44.3318545" lon="7.4887957"><ele>636.0</ele><time>2026-05-01T10:03:02.879Z</time></trkpt><trkpt lat="44.3317856" lon="7.4888859"><ele>636.0</ele><time>2026-05-01T10:03:04.878Z</time></trkpt><trkpt lat="44.3317057" lon="7.4889406"><ele>636.0</ele><time>2026-05-01T10:03:06.878Z</time></trkpt><trkpt lat="44.3315918" lon="7.4889206"><ele>636.0</ele><time>2026-05-01T10:03:08.878Z</time></trkpt><trkpt lat="44.3314715" lon="7.4888992"><ele>636.0</ele><time>2026-05-01T10:03:10.878Z</time></trkpt><trkpt lat="44.3314048" lon="7.4888703"><ele>636.0</ele><time>2026-05-01T10:03:11.878Z</time></trkpt><trkpt lat="44.3313007" lon="7.4888201"><ele>636.3333333333334</ele><time>2026-05-01T10:03:13.878Z</time></trkpt><trkpt lat="44.3312" lon="7.4887854"><ele>636.6666666666666</ele><time>2026-05-01T10:03:15.878Z</time></trkpt><trkpt lat="44.3311299" lon="7.4887398"><ele>637.0</ele><time>2026-05-01T10:03:17.878Z</time></trkpt><trkpt lat="44.3310537" lon="7.4886911"><ele>637.3333333333333</ele><time>2026-05-01T10:03:20.878Z</time></trkpt><trkpt lat="44.3310087" lon="7.4886165"><ele>637.6666666666666</ele><time>2026-05-01T10:03:31.878Z</time></trkpt><trkpt lat="44.3309514" lon="7.4886809"><ele>638.0</ele><time>2026-05-01T10:03:34.878Z</time></trkpt><trkpt lat="44.3309048" lon="7.4887599"><ele>638.0</ele><time>2026-05-01T10:03:43.878Z</time></trkpt></trkseg><trkseg><trkpt lat="44.3308977" lon="7.4886761"><ele>639.0</ele><time>2026-05-01T10:37:26.884Z</time></trkpt><trkpt lat="44.3309046" lon="7.4885658"><ele>639.0</ele><time>2026-05-01T10:37:30.885Z</time></trkpt><trkpt lat="44.3309042" lon="7.4884418"><ele>639.0</ele><time>2026-05-01T10:37:33.884Z</time></trkpt><trkpt lat="44.3308938" lon="7.4883407"><ele>639.0</ele><time>2026-05-01T10:37:35.884Z</time></trkpt><trkpt lat="44.3309354" lon="7.4882055"><ele>639.0</ele><time>2026-05-01T10:37:37.885Z</time></trkpt><trkpt lat="44.3309395" lon="7.4880836"><ele>639.0</ele><time>2026-05-01T10:37:39.884Z</time></trkpt><trkpt lat="44.330916" lon="7.487976"><ele>639.4</ele><time>2026-05-01T10:37:41.884Z</time></trkpt><trkpt lat="44.3308701" lon="7.4878623"><ele>639.8</ele><time>2026-05-01T10:37:43.884Z</time></trkpt><trkpt lat="44.3307947" lon="7.4877335"><ele>640.1999999999999</ele><time>2026-05-01T10:37:45.884Z</time></trkpt><trkpt lat="44.3307647" lon="7.4875957"><ele>640.5999999999999</ele><time>2026-05-01T10:37:47.884Z</time></trkpt><trkpt lat="44.3307266" lon="7.4875153"><ele>641.0</ele><time>2026-05-01T10:37:48.884Z</time></trkpt><trkpt lat="44.3306781" lon="7.4874477"><ele>641.0</ele><time>2026-05-01T10:37:49.884Z</time></trkpt><trkpt lat="44.3306316" lon="7.4873758"><ele>641.0</ele><time>2026-05-01T10:37:50.884Z</time></trkpt><trkpt lat="44.3305813" lon="7.4873061"><ele>641.0</ele><time>2026-05-01T10:37:51.884Z</time></trkpt><trkpt lat="44.3305315" lon="7.4872402"><ele>641.0</ele><time>2026-05-01T10:37:52.884Z</time></trkpt><trkpt lat="44.3304827" lon="7.4871683"><ele>641.0</ele><time>2026-05-01T10:37:53.884Z</time></trkpt><trkpt lat="44.3304263" lon="7.4871007"><ele>641.0</ele><time>2026-05-01T10:37:54.884Z</time></trkpt><trkpt lat="44.3303612" lon="7.4870167"><ele>641.0</ele><time>2026-05-01T10:37:56.884Z</time></trkpt><trkpt lat="44.3302697" lon="7.4869625"><ele>640.8333333333333</ele><time>2026-05-01T10:37:58.884Z</time></trkpt><trkpt lat="44.3302023" lon="7.4869306"><ele>640.6666666666666</ele><time>2026-05-01T10:37:59.884Z</time></trkpt><trkpt lat="44.3301309" lon="7.4868763"><ele>640.5</ele><time>2026-05-01T10:38:01.884Z</time></trkpt><trkpt lat="44.3300466" lon="7.4868594"><ele>640.3333333333334</ele><time>2026-05-01T10:38:04.884Z</time></trkpt><trkpt lat="44.3299947" lon="7.4867885"><ele>640.1666666666667</ele><time>2026-05-01T10:38:10.884Z</time></trkpt><trkpt lat="44.3299265" lon="7.4867591"><ele>640.0</ele><time>2026-05-01T10:38:12.884Z</time></trkpt><trkpt lat="44.3298391" lon="7.4867768"><ele>640.0</ele><time>2026-05-01T10:38:14.884Z</time></trkpt><trkpt lat="44.3297531" lon="7.4867917"><ele>640.0</ele><time>2026-05-01T10:38:16.884Z</time></trkpt><trkpt lat="44.329653" lon="7.4867661"><ele>640.0</ele><time>2026-05-01T10:38:18.884Z</time></trkpt><trkpt lat="44.3296047" lon="7.4866835"><ele>640.0</ele><time>2026-05-01T10:38:19.884Z</time></trkpt><trkpt lat="44.3295439" lon="7.4866133"><ele>640.0</ele><time>2026-05-01T10:38:20.884Z</time></trkpt><trkpt lat="44.3294909" lon="7.4865625"><ele>640.0</ele><time>2026-05-01T10:38:21.884Z</time></trkpt><trkpt lat="44.3294337" lon="7.4864978"><ele>640.0</ele><time>2026-05-01T10:38:22.884Z</time></trkpt><trkpt lat="44.3293879" lon="7.486433"><ele>640.0</ele><time>2026-05-01T10:38:23.884Z</time></trkpt><trkpt lat="44.3293213" lon="7.4863922"><ele>640.0</ele><time>2026-05-01T10:38:25.884Z</time></trkpt><trkpt lat="44.3292635" lon="7.4863125"><ele>640.0</ele><time>2026-05-01T10:38:27.884Z</time></trkpt><trkpt lat="44.3292252" lon="7.4861937"><ele>640.0</ele><time>2026-05-01T10:38:30.885Z</time></trkpt><trkpt lat="44.3291864" lon="7.4860776"><ele>640.0</ele><time>2026-05-01T10:38:32.884Z</time></trkpt><trkpt lat="44.329118" lon="7.4859566"><ele>640.0</ele><time>2026-05-01T10:38:34.884Z</time></trkpt><trkpt lat="44.3290382" lon="7.4858238"><ele>640.0</ele><time>2026-05-01T10:38:36.884Z</time></trkpt><trkpt lat="44.3289676" lon="7.4857716"><ele>640.0</ele><time>2026-05-01T10:38:37.884Z</time></trkpt><trkpt lat="44.3289025" lon="7.4857196"><ele>640.0</ele><time>2026-05-01T10:38:38.884Z</time></trkpt><trkpt lat="44.3288419" lon="7.4856386"><ele>640.0</ele><time>2026-05-01T10:38:39.884Z</time></trkpt><trkpt lat="44.3287707" lon="7.4855276"><ele>640.1666666666667</ele><time>2026-05-01T10:38:41.884Z</time></trkpt><trkpt lat="44.3287165" lon="7.4854741"><ele>640.3333333333334</ele><time>2026-05-01T10:38:47.884Z</time></trkpt><trkpt lat="44.3286533" lon="7.4854694"><ele>640.5</ele><time>2026-05-01T10:38:51.884Z</time></trkpt><trkpt lat="44.3285649" lon="7.4855511"><ele>640.6666666666666</ele><time>2026-05-01T10:38:53.885Z</time></trkpt><trkpt lat="44.3284808" lon="7.4856727"><ele>640.8333333333333</ele><time>2026-05-01T10:38:55.885Z</time></trkpt><trkpt lat="44.3284277" lon="7.4857616"><ele>641.0</ele><time>2026-05-01T10:38:56.884Z</time></trkpt><trkpt lat="44.3283651" lon="7.4858475"><ele>641.0</ele><time>2026-05-01T10:38:57.884Z</time></trkpt><trkpt lat="44.3283075" lon="7.4859345"><ele>641.0</ele><time>2026-05-01T10:38:58.884Z</time></trkpt><trkpt lat="44.3282566" lon="7.4860312"><ele>641.0</ele><time>2026-05-01T10:38:59.884Z</time></trkpt><trkpt lat="44.3282168" lon="7.4861326"><ele>641.0</ele><time>2026-05-01T10:39:00.884Z</time></trkpt><trkpt lat="44.3281727" lon="7.4862198"><ele>641.0</ele><time>2026-05-01T10:39:01.884Z</time></trkpt><trkpt lat="44.3281356" lon="7.4863228"><ele>641.0</ele><time>2026-05-01T10:39:02.884Z</time></trkpt><trkpt lat="44.3281088" lon="7.4864087"><ele>640.8</ele><time>2026-05-01T10:39:03.884Z</time></trkpt><trkpt lat="44.3280713" lon="7.4865462"><ele>640.5999999999999</ele><time>2026-05-01T10:39:05.884Z</time></trkpt><trkpt lat="44.3280331" lon="7.4866493"><ele>640.4</ele><time>2026-05-01T10:39:07.884Z</time></trkpt><trkpt lat="44.3279847" lon="7.486717"><ele>640.2</ele><time>2026-05-01T10:39:09.884Z</time></trkpt><trkpt lat="44.3279514" lon="7.4868073"><ele>640.0</ele><time>2026-05-01T10:39:11.884Z</time></trkpt><trkpt lat="44.327815" lon="7.4868287"><ele>640.0</ele><time>2026-05-01T10:39:13.884Z</time></trkpt><trkpt lat="44.327698" lon="7.486843"><ele>640.0</ele><time>2026-05-01T10:39:15.884Z</time></trkpt><trkpt lat="44.3276254" lon="7.4868458"><ele>640.0</ele><time>2026-05-01T10:39:16.884Z</time></trkpt><trkpt lat="44.3275491" lon="7.4868444"><ele>640.0</ele><time>2026-05-01T10:39:17.884Z</time></trkpt><trkpt lat="44.3274769" lon="7.4868385"><ele>640.0</ele><time>2026-05-01T10:39:18.884Z</time></trkpt><trkpt lat="44.3274023" lon="7.4868039"><ele>640.0</ele><time>2026-05-01T10:39:19.884Z</time></trkpt><trkpt lat="44.3272969" lon="7.4867158"><ele>640.0</ele><time>2026-05-01T10:39:21.884Z</time></trkpt><trkpt lat="44.3272338" lon="7.4866652"><ele>640.0</ele><time>2026-05-01T10:39:22.884Z</time></trkpt><trkpt lat="44.3271152" lon="7.4865905"><ele>640.0</ele><time>2026-05-01T10:39:24.884Z</time></trkpt><trkpt lat="44.327021" lon="7.4865164"><ele>640.0</ele><time>2026-05-01T10:39:26.884Z</time></trkpt><trkpt lat="44.326923" lon="7.486455"><ele>640.0</ele><time>2026-05-01T10:39:28.884Z</time></trkpt><trkpt lat="44.3268717" lon="7.486383"><ele>639.6</ele><time>2026-05-01T10:39:29.884Z</time></trkpt><trkpt lat="44.3268165" lon="7.4862985"><ele>639.2</ele><time>2026-05-01T10:39:30.884Z</time></trkpt><trkpt lat="44.326762" lon="7.4861816"><ele>638.8</ele><time>2026-05-01T10:39:31.884Z</time></trkpt><trkpt lat="44.3266921" lon="7.4860698"><ele>638.4</ele><time>2026-05-01T10:39:32.884Z</time></trkpt><trkpt lat="44.3266241" lon="7.485952"><ele>638.0</ele><time>2026-05-01T10:39:33.884Z</time></trkpt><trkpt lat="44.3265563" lon="7.4858289"><ele>638.0</ele><time>2026-05-01T10:39:34.884Z</time></trkpt><trkpt lat="44.3264917" lon="7.4857065"><ele>638.0</ele><time>2026-05-01T10:39:35.884Z</time></trkpt><trkpt lat="44.3264373" lon="7.4856021"><ele>638.0</ele><time>2026-05-01T10:39:36.884Z</time></trkpt><trkpt lat="44.3263821" lon="7.485501"><ele>638.0</ele><time>2026-05-01T10:39:37.884Z</time></trkpt><trkpt lat="44.326328" lon="7.4853852"><ele>638.0</ele><time>2026-05-01T10:39:38.885Z</time></trkpt><trkpt lat="44.3262687" lon="7.4852623"><ele>636.75</ele><time>2026-05-01T10:39:39.884Z</time></trkpt><trkpt lat="44.3261967" lon="7.4851122"><ele>635.5</ele><time>2026-05-01T10:39:40.884Z</time></trkpt><trkpt lat="44.3261382" lon="7.4849688"><ele>634.25</ele><time>2026-05-01T10:39:41.884Z</time></trkpt><trkpt lat="44.3260747" lon="7.4848335"><ele>633.0</ele><time>2026-05-01T10:39:42.884Z</time></trkpt><trkpt lat="44.3260098" lon="7.4846855"><ele>633.75</ele><time>2026-05-01T10:39:43.884Z</time></trkpt><trkpt lat="44.325946" lon="7.4845473"><ele>634.5</ele><time>2026-05-01T10:39:44.884Z</time></trkpt><trkpt lat="44.3258819" lon="7.4844119"><ele>635.25</ele><time>2026-05-01T10:39:45.884Z</time></trkpt><trkpt lat="44.3258205" lon="7.4842873"><ele>636.0</ele><time>2026-05-01T10:39:46.884Z</time></trkpt><trkpt lat="44.3257602" lon="7.484161"><ele>636.0</ele><time>2026-05-01T10:39:47.884Z</time></trkpt><trkpt lat="44.3256973" lon="7.4840388"><ele>636.0</ele><time>2026-05-01T10:39:48.884Z</time></trkpt><trkpt lat="44.3256347" lon="7.4839155"><ele>636.0</ele><time>2026-05-01T10:39:49.884Z</time></trkpt><trkpt lat="44.3255787" lon="7.4837978"><ele>636.0</ele><time>2026-05-01T10:39:50.884Z</time></trkpt><trkpt lat="44.3255214" lon="7.4836788"><ele>636.0</ele><time>2026-05-01T10:39:51.884Z</time></trkpt><trkpt lat="44.3254628" lon="7.4835643"><ele>635.3333333333334</ele><time>2026-05-01T10:39:52.884Z</time></trkpt><trkpt lat="44.3254168" lon="7.4834608"><ele>634.6666666666666</ele><time>2026-05-01T10:39:53.884Z</time></trkpt><trkpt lat="44.3253713" lon="7.4833589"><ele>634.0</ele><time>2026-05-01T10:39:54.884Z</time></trkpt><trkpt lat="44.3253197" lon="7.4832615"><ele>633.3333333333333</ele><time>2026-05-01T10:39:55.884Z</time></trkpt><trkpt lat="44.3252765" lon="7.4831681"><ele>632.6666666666666</ele><time>2026-05-01T10:39:56.884Z</time></trkpt><trkpt lat="44.3252362" lon="7.4830825"><ele>632.0</ele><time>2026-05-01T10:39:57.884Z</time></trkpt><trkpt lat="44.3252002" lon="7.4829949"><ele>632.8333333333333</ele><time>2026-05-01T10:39:58.884Z</time></trkpt><trkpt lat="44.3251617" lon="7.4829122"><ele>633.6666666666666</ele><time>2026-05-01T10:39:59.884Z</time></trkpt><trkpt lat="44.3251233" lon="7.4828316"><ele>634.5</ele><time>2026-05-01T10:40:00.884Z</time></trkpt><trkpt lat="44.3250797" lon="7.4827403"><ele>635.3333333333334</ele><time>2026-05-01T10:40:01.885Z</time></trkpt><trkpt lat="44.3250349" lon="7.48265"><ele>636.1666666666667</ele><time>2026-05-01T10:40:02.884Z</time></trkpt><trkpt lat="44.3250031" lon="7.4825668"><ele>637.0</ele><time>2026-05-01T10:40:03.884Z</time></trkpt><trkpt lat="44.3249506" lon="7.4824563"><ele>637.0</ele><time>2026-05-01T10:40:04.884Z</time></trkpt><trkpt lat="44.3249051" lon="7.4823525"><ele>637.0</ele><time>2026-05-01T10:40:05.884Z</time></trkpt><trkpt lat="44.3248588" lon="7.4822384"><ele>637.0</ele><time>2026-05-01T10:40:06.884Z</time></trkpt><trkpt lat="44.3248138" lon="7.4821237"><ele>637.0</ele><time>2026-05-01T10:40:07.884Z</time></trkpt><trkpt lat="44.324755" lon="7.4819985"><ele>637.0</ele><time>2026-05-01T10:40:08.884Z</time></trkpt><trkpt lat="44.3246997" lon="7.4818828"><ele>636.2</ele><time>2026-05-01T10:40:09.884Z</time></trkpt><trkpt lat="44.3246427" lon="7.4817619"><ele>635.4000000000001</ele><time>2026-05-01T10:40:10.884Z</time></trkpt><trkpt lat="44.3245879" lon="7.4816367"><ele>634.5999999999999</ele><time>2026-05-01T10:40:11.884Z</time></trkpt><trkpt lat="44.3245264" lon="7.4815132"><ele>633.8</ele><time>2026-05-01T10:40:12.884Z</time></trkpt><trkpt lat="44.324467" lon="7.4813956"><ele>633.0</ele><time>2026-05-01T10:40:13.884Z</time></trkpt><trkpt lat="44.3244102" lon="7.4812835"><ele>634.0</ele><time>2026-05-01T10:40:14.884Z</time></trkpt><trkpt lat="44.3243601" lon="7.4811838"><ele>635.0</ele><time>2026-05-01T10:40:15.885Z</time></trkpt><trkpt lat="44.3243189" lon="7.481103"><ele>636.0</ele><time>2026-05-01T10:40:16.884Z</time></trkpt><trkpt lat="44.3242823" lon="7.4810245"><ele>637.0</ele><time>2026-05-01T10:40:17.884Z</time></trkpt><trkpt lat="44.3242291" lon="7.4809429"><ele>638.0</ele><time>2026-05-01T10:40:18.884Z</time></trkpt><trkpt lat="44.3241724" lon="7.4807856"><ele>639.0</ele><time>2026-05-01T10:40:20.884Z</time></trkpt><trkpt lat="44.3240945" lon="7.4806647"><ele>639.0</ele><time>2026-05-01T10:40:22.884Z</time></trkpt><trkpt lat="44.3239842" lon="7.4805976"><ele>639.0</ele><time>2026-05-01T10:40:24.884Z</time></trkpt><trkpt lat="44.3239136" lon="7.4805957"><ele>639.0</ele><time>2026-05-01T10:40:25.884Z</time></trkpt><trkpt lat="44.3238313" lon="7.4805996"><ele>639.0</ele><time>2026-05-01T10:40:26.884Z</time></trkpt><trkpt lat="44.3237484" lon="7.4805788"><ele>639.0</ele><time>2026-05-01T10:40:27.884Z</time></trkpt><trkpt lat="44.3236655" lon="7.4805412"><ele>639.0</ele><time>2026-05-01T10:40:28.884Z</time></trkpt><trkpt lat="44.3235828" lon="7.4804957"><ele>638.0</ele><time>2026-05-01T10:40:29.884Z</time></trkpt><trkpt lat="44.3234916" lon="7.4804633"><ele>637.0</ele><time>2026-05-01T10:40:30.884Z</time></trkpt><trkpt lat="44.3234048" lon="7.4804237"><ele>636.0</ele><time>2026-05-01T10:40:31.884Z</time></trkpt><trkpt lat="44.3233241" lon="7.4803733"><ele>635.0</ele><time>2026-05-01T10:40:32.884Z</time></trkpt><trkpt lat="44.3232109" lon="7.4803614"><ele>634.0</ele><time>2026-05-01T10:40:33.884Z</time></trkpt><trkpt lat="44.3231013" lon="7.4803526"><ele>634.0</ele><time>2026-05-01T10:40:34.884Z</time></trkpt><trkpt lat="44.3229943" lon="7.4803452"><ele>634.0</ele><time>2026-05-01T10:40:35.884Z</time></trkpt><trkpt lat="44.322878" lon="7.4803641"><ele>634.0</ele><time>2026-05-01T10:40:36.884Z</time></trkpt><trkpt lat="44.3227736" lon="7.4803891"><ele>634.0</ele><time>2026-05-01T10:40:37.884Z</time></trkpt><trkpt lat="44.3226697" lon="7.4804086"><ele>634.0</ele><time>2026-05-01T10:40:38.884Z</time></trkpt><trkpt lat="44.3225725" lon="7.4804365"><ele>633.6</ele><time>2026-05-01T10:40:39.884Z</time></trkpt><trkpt lat="44.3224663" lon="7.4804661"><ele>633.2</ele><time>2026-05-01T10:40:40.884Z</time></trkpt><trkpt lat="44.3223648" lon="7.4804981"><ele>632.8000000000001</ele><time>2026-05-01T10:40:41.884Z</time></trkpt><trkpt lat="44.3222582" lon="7.4805343"><ele>632.4</ele><time>2026-05-01T10:40:42.884Z</time></trkpt><trkpt lat="44.3221678" lon="7.4805581"><ele>632.0</ele><time>2026-05-01T10:40:43.884Z</time></trkpt><trkpt lat="44.3220773" lon="7.4805915"><ele>631.8000000000001</ele><time>2026-05-01T10:40:44.884Z</time></trkpt><trkpt lat="44.3219684" lon="7.4806159"><ele>631.6</ele><time>2026-05-01T10:40:45.884Z</time></trkpt><trkpt lat="44.3218694" lon="7.480652"><ele>631.4000000000001</ele><time>2026-05-01T10:40:46.884Z</time></trkpt><trkpt lat="44.3217639" lon="7.4806826"><ele>631.2</ele><time>2026-05-01T10:40:47.884Z</time></trkpt><trkpt lat="44.3216528" lon="7.4807027"><ele>631.0</ele><time>2026-05-01T10:40:48.884Z</time></trkpt><trkpt lat="44.321537" lon="7.4807301"><ele>631.0</ele><time>2026-05-01T10:40:49.884Z</time></trkpt><trkpt lat="44.3214194" lon="7.4807668"><ele>631.0</ele><time>2026-05-01T10:40:50.884Z</time></trkpt><trkpt lat="44.3212876" lon="7.4808057"><ele>631.0</ele><time>2026-05-01T10:40:51.885Z</time></trkpt><trkpt lat="44.3211623" lon="7.4808295"><ele>631.0</ele><time>2026-05-01T10:40:52.884Z</time></trkpt><trkpt lat="44.3210254" lon="7.48086"><ele>631.0</ele><time>2026-05-01T10:40:53.884Z</time></trkpt><trkpt lat="44.3208925" lon="7.4808941"><ele>631.0</ele><time>2026-05-01T10:40:54.884Z</time></trkpt><trkpt lat="44.3207563" lon="7.4809237"><ele>631.0</ele><time>2026-05-01T10:40:55.884Z</time></trkpt><trkpt lat="44.3206187" lon="7.4809499"><ele>631.0</ele><time>2026-05-01T10:40:56.884Z</time></trkpt><trkpt lat="44.3204602" lon="7.4809924"><ele>632.6666666666667</ele><time>2026-05-01T10:40:57.884Z</time></trkpt><trkpt lat="44.32031" lon="7.4810355"><ele>634.3333333333334</ele><time>2026-05-01T10:40:58.884Z</time></trkpt><trkpt lat="44.320156" lon="7.4810738"><ele>636.0</ele><time>2026-05-01T10:40:59.884Z</time></trkpt><trkpt lat="44.3199974" lon="7.4811147"><ele>636.0</ele><time>2026-05-01T10:41:00.884Z</time></trkpt><trkpt lat="44.3198372" lon="7.4811539"><ele>636.0</ele><time>2026-05-01T10:41:01.884Z</time></trkpt><trkpt lat="44.3196842" lon="7.4812004"><ele>636.0</ele><time>2026-05-01T10:41:02.884Z</time></trkpt><trkpt lat="44.3195415" lon="7.4812373"><ele>636.0</ele><time>2026-05-01T10:41:03.884Z</time></trkpt><trkpt lat="44.3193832" lon="7.4812827"><ele>636.0</ele><time>2026-05-01T10:41:04.884Z</time></trkpt><trkpt lat="44.319238" lon="7.4813205"><ele>636.0</ele><time>2026-05-01T10:41:05.884Z</time></trkpt><trkpt lat="44.3191086" lon="7.4813555"><ele>636.0</ele><time>2026-05-01T10:41:06.884Z</time></trkpt><trkpt lat="44.3189836" lon="7.4814014"><ele>637.0</ele><time>2026-05-01T10:41:07.884Z</time></trkpt><trkpt lat="44.3188552" lon="7.4814254"><ele>638.0</ele><time>2026-05-01T10:41:08.884Z</time></trkpt><trkpt lat="44.3187194" lon="7.4814545"><ele>639.0</ele><time>2026-05-01T10:41:09.884Z</time></trkpt><trkpt lat="44.3186026" lon="7.4814747"><ele>640.0</ele><time>2026-05-01T10:41:10.885Z</time></trkpt><trkpt lat="44.3184849" lon="7.4815075"><ele>640.0</ele><time>2026-05-01T10:41:11.884Z</time></trkpt><trkpt lat="44.3183752" lon="7.4815365"><ele>640.0</ele><time>2026-05-01T10:41:12.884Z</time></trkpt><trkpt lat="44.3182603" lon="7.4815443"><ele>640.0</ele><time>2026-05-01T10:41:13.884Z</time></trkpt><trkpt lat="44.3181445" lon="7.4815654"><ele>640.0</ele><time>2026-05-01T10:41:14.884Z</time></trkpt><trkpt lat="44.3180284" lon="7.4815939"><ele>640.8</ele><time>2026-05-01T10:41:15.884Z</time></trkpt><trkpt lat="44.3179099" lon="7.4816174"><ele>641.6</ele><time>2026-05-01T10:41:16.884Z</time></trkpt><trkpt lat="44.3178054" lon="7.4816452"><ele>642.4000000000001</ele><time>2026-05-01T10:41:17.884Z</time></trkpt><trkpt lat="44.3177193" lon="7.4816697"><ele>643.2</ele><time>2026-05-01T10:41:18.884Z</time></trkpt><trkpt lat="44.3176383" lon="7.4816771"><ele>644.0</ele><time>2026-05-01T10:41:19.884Z</time></trkpt><trkpt lat="44.3175487" lon="7.4816562"><ele>644.0</ele><time>2026-05-01T10:41:20.884Z</time></trkpt><trkpt lat="44.3174631" lon="7.4816334"><ele>644.0</ele><time>2026-05-01T10:41:21.884Z</time></trkpt><trkpt lat="44.3173859" lon="7.4815604"><ele>644.0</ele><time>2026-05-01T10:41:22.884Z</time></trkpt><trkpt lat="44.3173352" lon="7.4814776"><ele>644.0</ele><time>2026-05-01T10:41:23.885Z</time></trkpt><trkpt lat="44.3172854" lon="7.4813799"><ele>644.0</ele><time>2026-05-01T10:41:24.884Z</time></trkpt><trkpt lat="44.3172336" lon="7.4812134"><ele>645.25</ele><time>2026-05-01T10:41:25.884Z</time></trkpt><trkpt lat="44.3171842" lon="7.4810711"><ele>646.5</ele><time>2026-05-01T10:41:26.884Z</time></trkpt><trkpt lat="44.3171149" lon="7.4809038"><ele>647.75</ele><time>2026-05-01T10:41:27.884Z</time></trkpt><trkpt lat="44.31706" lon="7.4807387"><ele>649.0</ele><time>2026-05-01T10:41:28.884Z</time></trkpt><trkpt lat="44.3169982" lon="7.480579"><ele>648.75</ele><time>2026-05-01T10:41:29.884Z</time></trkpt><trkpt lat="44.3169226" lon="7.4804027"><ele>648.5</ele><time>2026-05-01T10:41:30.884Z</time></trkpt><trkpt lat="44.3168594" lon="7.4802265"><ele>648.25</ele><time>2026-05-01T10:41:31.884Z</time></trkpt><trkpt lat="44.3167924" lon="7.4800602"><ele>648.0</ele><time>2026-05-01T10:41:32.884Z</time></trkpt><trkpt lat="44.3167274" lon="7.4798706"><ele>648.0</ele><time>2026-05-01T10:41:33.885Z</time></trkpt><trkpt lat="44.3166683" lon="7.479689"><ele>648.0</ele><time>2026-05-01T10:41:34.884Z</time></trkpt><trkpt lat="44.31661" lon="7.479519"><ele>648.0</ele><time>2026-05-01T10:41:35.884Z</time></trkpt><trkpt lat="44.3165615" lon="7.4793616"><ele>648.0</ele><time>2026-05-01T10:41:36.884Z</time></trkpt><trkpt lat="44.3165234" lon="7.4792263"><ele>647.5999999999999</ele><time>2026-05-01T10:41:37.884Z</time></trkpt><trkpt lat="44.3164896" lon="7.4790844"><ele>647.1999999999999</ele><time>2026-05-01T10:41:38.884Z</time></trkpt><trkpt lat="44.3165139" lon="7.4789894"><ele>646.8</ele><time>2026-05-01T10:41:39.884Z</time></trkpt><trkpt lat="44.3165274" lon="7.4788938"><ele>646.4</ele><time>2026-05-01T10:41:40.884Z</time></trkpt><trkpt lat="44.3166036" lon="7.4787867"><ele>646.0</ele><time>2026-05-01T10:41:41.884Z</time></trkpt><trkpt lat="44.3166755" lon="7.4786772"><ele>645.75</ele><time>2026-05-01T10:41:42.884Z</time></trkpt><trkpt lat="44.3167414" lon="7.4785616"><ele>645.5</ele><time>2026-05-01T10:41:43.884Z</time></trkpt><trkpt lat="44.316839" lon="7.4784124"><ele>645.25</ele><time>2026-05-01T10:41:44.884Z</time></trkpt><trkpt lat="44.3169399" lon="7.4782719"><ele>645.0</ele><time>2026-05-01T10:41:45.884Z</time></trkpt><trkpt lat="44.3170477" lon="7.4781259"><ele>645.0</ele><time>2026-05-01T10:41:46.884Z</time></trkpt><trkpt lat="44.31715" lon="7.4779919"><ele>645.0</ele><time>2026-05-01T10:41:47.884Z</time></trkpt><trkpt lat="44.3172551" lon="7.4778709"><ele>645.0</ele><time>2026-05-01T10:41:48.884Z</time></trkpt><trkpt lat="44.3173701" lon="7.4777734"><ele>645.0</ele><time>2026-05-01T10:41:49.885Z</time></trkpt><trkpt lat="44.3175025" lon="7.4776983"><ele>643.5</ele><time>2026-05-01T10:41:50.884Z</time></trkpt><trkpt lat="44.3176411" lon="7.4776605"><ele>642.0</ele><time>2026-05-01T10:41:51.884Z</time></trkpt><trkpt lat="44.3177758" lon="7.4776461"><ele>640.5</ele><time>2026-05-01T10:41:52.884Z</time></trkpt><trkpt lat="44.3179221" lon="7.4776815"><ele>639.0</ele><time>2026-05-01T10:41:53.884Z</time></trkpt><trkpt lat="44.3180635" lon="7.4777541"><ele>638.6666666666666</ele><time>2026-05-01T10:41:54.884Z</time></trkpt><trkpt lat="44.3182002" lon="7.4778548"><ele>638.3333333333333</ele><time>2026-05-01T10:41:55.884Z</time></trkpt><trkpt lat="44.3183275" lon="7.4779734"><ele>638.0</ele><time>2026-05-01T10:41:56.884Z</time></trkpt><trkpt lat="44.3184224" lon="7.4781398"><ele>637.6666666666666</ele><time>2026-05-01T10:41:57.884Z</time></trkpt><trkpt lat="44.3185052" lon="7.4783144"><ele>637.3333333333334</ele><time>2026-05-01T10:41:58.884Z</time></trkpt><trkpt lat="44.3185648" lon="7.4785315"><ele>637.0</ele><time>2026-05-01T10:41:59.884Z</time></trkpt><trkpt lat="44.318591" lon="7.4787663"><ele>636.6666666666667</ele><time>2026-05-01T10:42:00.884Z</time></trkpt><trkpt lat="44.318606" lon="7.4790224"><ele>636.3333333333334</ele><time>2026-05-01T10:42:01.885Z</time></trkpt><trkpt lat="44.3186279" lon="7.4792773"><ele>636.0</ele><time>2026-05-01T10:42:02.884Z</time></trkpt><trkpt lat="44.3186426" lon="7.4795307"><ele>636.0</ele><time>2026-05-01T10:42:03.884Z</time></trkpt><trkpt lat="44.318665" lon="7.4797964"><ele>636.0</ele><time>2026-05-01T10:42:04.884Z</time></trkpt><trkpt lat="44.3186978" lon="7.4800742"><ele>636.0</ele><time>2026-05-01T10:42:05.884Z</time></trkpt><trkpt lat="44.3187222" lon="7.4803561"><ele>636.6666666666666</ele><time>2026-05-01T10:42:06.884Z</time></trkpt><trkpt lat="44.3187547" lon="7.4806474"><ele>637.3333333333333</ele><time>2026-05-01T10:42:07.884Z</time></trkpt><trkpt lat="44.3187841" lon="7.4809565"><ele>638.0</ele><time>2026-05-01T10:42:08.884Z</time></trkpt><trkpt lat="44.3188139" lon="7.4812604"><ele>638.3333333333333</ele><time>2026-05-01T10:42:09.884Z</time></trkpt><trkpt lat="44.3188371" lon="7.4815517"><ele>638.6666666666666</ele><time>2026-05-01T10:42:10.884Z</time></trkpt><trkpt lat="44.3188629" lon="7.4818677"><ele>639.0</ele><time>2026-05-01T10:42:11.885Z</time></trkpt><trkpt lat="44.3188993" lon="7.4821661"><ele>638.3333333333334</ele><time>2026-05-01T10:42:12.884Z</time></trkpt><trkpt lat="44.3189259" lon="7.4824802"><ele>637.6666666666667</ele><time>2026-05-01T10:42:13.884Z</time></trkpt><trkpt lat="44.31896" lon="7.4827844"><ele>637.0</ele><time>2026-05-01T10:42:14.884Z</time></trkpt><trkpt lat="44.3189857" lon="7.4830835"><ele>637.0</ele><time>2026-05-01T10:42:15.884Z</time></trkpt><trkpt lat="44.3190043" lon="7.4833778"><ele>637.0</ele><time>2026-05-01T10:42:16.885Z</time></trkpt><trkpt lat="44.3189982" lon="7.4836622"><ele>637.0</ele><time>2026-05-01T10:42:17.884Z</time></trkpt><trkpt lat="44.3189978" lon="7.483944"><ele>636.6666666666667</ele><time>2026-05-01T10:42:18.885Z</time></trkpt><trkpt lat="44.3189628" lon="7.4842483"><ele>636.3333333333334</ele><time>2026-05-01T10:42:19.884Z</time></trkpt><trkpt lat="44.3189143" lon="7.4845295"><ele>636.0</ele><time>2026-05-01T10:42:20.885Z</time></trkpt><trkpt lat="44.3188519" lon="7.4848161"><ele>637.0</ele><time>2026-05-01T10:42:21.885Z</time></trkpt><trkpt lat="44.3187845" lon="7.4850914"><ele>638.0</ele><time>2026-05-01T10:42:22.884Z</time></trkpt><trkpt lat="44.3186835" lon="7.4853352"><ele>639.0</ele><time>2026-05-01T10:42:23.884Z</time></trkpt><trkpt lat="44.3185838" lon="7.4855573"><ele>639.3333333333334</ele><time>2026-05-01T10:42:24.884Z</time></trkpt><trkpt lat="44.3184774" lon="7.4857564"><ele>639.6666666666667</ele><time>2026-05-01T10:42:25.884Z</time></trkpt><trkpt lat="44.318361" lon="7.4859392"><ele>640.0</ele><time>2026-05-01T10:42:26.884Z</time></trkpt><trkpt lat="44.3182361" lon="7.4860993"><ele>640.0</ele><time>2026-05-01T10:42:27.884Z</time></trkpt><trkpt lat="44.3181043" lon="7.4862564"><ele>640.0</ele><time>2026-05-01T10:42:28.884Z</time></trkpt><trkpt lat="44.3179563" lon="7.4864038"><ele>640.0</ele><time>2026-05-01T10:42:29.884Z</time></trkpt><trkpt lat="44.3178081" lon="7.4865393"><ele>640.6666666666667</ele><time>2026-05-01T10:42:30.884Z</time></trkpt><trkpt lat="44.3176531" lon="7.486665"><ele>641.3333333333334</ele><time>2026-05-01T10:42:31.884Z</time></trkpt><trkpt lat="44.317492" lon="7.4867718"><ele>642.0</ele><time>2026-05-01T10:42:32.884Z</time></trkpt><trkpt lat="44.3173362" lon="7.4868551"><ele>641.5</ele><time>2026-05-01T10:42:33.884Z</time></trkpt><trkpt lat="44.3171793" lon="7.4869341"><ele>641.0</ele><time>2026-05-01T10:42:34.884Z</time></trkpt><trkpt lat="44.3170784" lon="7.4869898"><ele>640.5</ele><time>2026-05-01T10:42:35.884Z</time></trkpt><trkpt lat="44.316977" lon="7.487027"><ele>640.0</ele><time>2026-05-01T10:42:36.884Z</time></trkpt><trkpt lat="44.316896" lon="7.48706"><ele>640.0</ele><time>2026-05-01T10:42:37.884Z</time></trkpt><trkpt lat="44.3168113" lon="7.4870686"><ele>640.0</ele><time>2026-05-01T10:42:38.884Z</time></trkpt><trkpt lat="44.3167347" lon="7.4870604"><ele>640.0</ele><time>2026-05-01T10:42:40.885Z</time></trkpt><trkpt lat="44.3165885" lon="7.4870281"><ele>640.0</ele><time>2026-05-01T10:42:42.884Z</time></trkpt><trkpt lat="44.3164984" lon="7.4870083"><ele>640.0</ele><time>2026-05-01T10:42:43.884Z</time></trkpt><trkpt lat="44.3164051" lon="7.4870153"><ele>639.75</ele><time>2026-05-01T10:42:44.884Z</time></trkpt><trkpt lat="44.3163048" lon="7.4870516"><ele>639.5</ele><time>2026-05-01T10:42:45.884Z</time></trkpt><trkpt lat="44.3161998" lon="7.4871006"><ele>639.25</ele><time>2026-05-01T10:42:46.884Z</time></trkpt><trkpt lat="44.3161173" lon="7.4872154"><ele>639.0</ele><time>2026-05-01T10:42:47.884Z</time></trkpt><trkpt lat="44.3160284" lon="7.4873411"><ele>638.0</ele><time>2026-05-01T10:42:48.884Z</time></trkpt><trkpt lat="44.3159359" lon="7.4874574"><ele>637.0</ele><time>2026-05-01T10:42:49.885Z</time></trkpt><trkpt lat="44.3158296" lon="7.487551"><ele>636.0</ele><time>2026-05-01T10:42:50.884Z</time></trkpt><trkpt lat="44.3157133" lon="7.4876376"><ele>635.0</ele><time>2026-05-01T10:42:51.884Z</time></trkpt><trkpt lat="44.3155856" lon="7.4877195"><ele>634.5</ele><time>2026-05-01T10:42:52.884Z</time></trkpt><trkpt lat="44.3154579" lon="7.4877965"><ele>634.0</ele><time>2026-05-01T10:42:53.884Z</time></trkpt><trkpt lat="44.3153266" lon="7.4878623"><ele>633.5</ele><time>2026-05-01T10:42:54.884Z</time></trkpt><trkpt lat="44.3151822" lon="7.4879517"><ele>633.0</ele><time>2026-05-01T10:42:55.884Z</time></trkpt><trkpt lat="44.3150407" lon="7.4880416"><ele>633.3333333333334</ele><time>2026-05-01T10:42:56.884Z</time></trkpt><trkpt lat="44.314896" lon="7.4881569"><ele>633.6666666666667</ele><time>2026-05-01T10:42:57.884Z</time></trkpt><trkpt lat="44.3147524" lon="7.488278"><ele>634.0</ele><time>2026-05-01T10:42:58.884Z</time></trkpt><trkpt lat="44.3146176" lon="7.4884046"><ele>634.0</ele><time>2026-05-01T10:42:59.884Z</time></trkpt><trkpt lat="44.3144821" lon="7.4885268"><ele>634.0</ele><time>2026-05-01T10:43:00.884Z</time></trkpt><trkpt lat="44.3143504" lon="7.488654"><ele>634.0</ele><time>2026-05-01T10:43:01.884Z</time></trkpt><trkpt lat="44.314222" lon="7.488814"><ele>634.0</ele><time>2026-05-01T10:43:02.884Z</time></trkpt><trkpt lat="44.3140891" lon="7.4889847"><ele>634.0</ele><time>2026-05-01T10:43:03.884Z</time></trkpt><trkpt lat="44.3139521" lon="7.4891733"><ele>634.0</ele><time>2026-05-01T10:43:04.884Z</time></trkpt><trkpt lat="44.313837" lon="7.4893599"><ele>634.0</ele><time>2026-05-01T10:43:05.884Z</time></trkpt><trkpt lat="44.3137159" lon="7.4895512"><ele>634.0</ele><time>2026-05-01T10:43:06.884Z</time></trkpt><trkpt lat="44.3135984" lon="7.4897954"><ele>634.0</ele><time>2026-05-01T10:43:07.884Z</time></trkpt><trkpt lat="44.31348" lon="7.4900313"><ele>634.5</ele><time>2026-05-01T10:43:08.884Z</time></trkpt><trkpt lat="44.3133698" lon="7.4903251"><ele>635.0</ele><time>2026-05-01T10:43:09.884Z</time></trkpt><trkpt lat="44.3132336" lon="7.4906093"><ele>635.0</ele><time>2026-05-01T10:43:10.884Z</time></trkpt><trkpt lat="44.3130992" lon="7.4908975"><ele>635.0</ele><time>2026-05-01T10:43:11.885Z</time></trkpt><trkpt lat="44.3129671" lon="7.4912059"><ele>634.5</ele><time>2026-05-01T10:43:12.884Z</time></trkpt><trkpt lat="44.3128371" lon="7.4915195"><ele>634.0</ele><time>2026-05-01T10:43:13.884Z</time></trkpt><trkpt lat="44.3127049" lon="7.4918279"><ele>635.5</ele><time>2026-05-01T10:43:14.885Z</time></trkpt><trkpt lat="44.3125719" lon="7.4921367"><ele>637.0</ele><time>2026-05-01T10:43:15.884Z</time></trkpt><trkpt lat="44.3124319" lon="7.4924488"><ele>637.0</ele><time>2026-05-01T10:43:16.884Z</time></trkpt><trkpt lat="44.3122921" lon="7.492744"><ele>637.0</ele><time>2026-05-01T10:43:17.884Z</time></trkpt><trkpt lat="44.3121533" lon="7.4930508"><ele>637.5</ele><time>2026-05-01T10:43:18.884Z</time></trkpt><trkpt lat="44.3120254" lon="7.4933702"><ele>638.0</ele><time>2026-05-01T10:43:19.884Z</time></trkpt><trkpt lat="44.3118872" lon="7.4936708"><ele>639.0</ele><time>2026-05-01T10:43:20.884Z</time></trkpt><trkpt lat="44.3117506" lon="7.4939837"><ele>640.0</ele><time>2026-05-01T10:43:21.884Z</time></trkpt><trkpt lat="44.3116263" lon="7.4943131"><ele>639.0</ele><time>2026-05-01T10:43:22.884Z</time></trkpt><trkpt lat="44.3114974" lon="7.4946392"><ele>638.0</ele><time>2026-05-01T10:43:23.884Z</time></trkpt><trkpt lat="44.3113635" lon="7.4949657"><ele>638.0</ele><time>2026-05-01T10:43:24.884Z</time></trkpt><trkpt lat="44.3112289" lon="7.4952873"><ele>638.0</ele><time>2026-05-01T10:43:25.884Z</time></trkpt><trkpt lat="44.3110901" lon="7.4955988"><ele>639.5</ele><time>2026-05-01T10:43:26.884Z</time></trkpt><trkpt lat="44.3109555" lon="7.4959163"><ele>641.0</ele><time>2026-05-01T10:43:27.884Z</time></trkpt><trkpt lat="44.3108204" lon="7.4962354"><ele>642.0</ele><time>2026-05-01T10:43:28.884Z</time></trkpt><trkpt lat="44.3106813" lon="7.4965551"><ele>643.0</ele><time>2026-05-01T10:43:29.884Z</time></trkpt><trkpt lat="44.3105556" lon="7.4968649"><ele>643.5</ele><time>2026-05-01T10:43:30.884Z</time></trkpt><trkpt lat="44.3104409" lon="7.4971902"><ele>644.0</ele><time>2026-05-01T10:43:31.884Z</time></trkpt><trkpt lat="44.310319" lon="7.4975214"><ele>644.0</ele><time>2026-05-01T10:43:32.884Z</time></trkpt><trkpt lat="44.3102051" lon="7.497837"><ele>644.0</ele><time>2026-05-01T10:43:33.884Z</time></trkpt><trkpt lat="44.3101034" lon="7.4981578"><ele>644.0</ele><time>2026-05-01T10:43:34.884Z</time></trkpt><trkpt lat="44.3100159" lon="7.4984842"><ele>644.0</ele><time>2026-05-01T10:43:35.885Z</time></trkpt><trkpt lat="44.3099362" lon="7.4988111"><ele>644.0</ele><time>2026-05-01T10:43:36.884Z</time></trkpt><trkpt lat="44.3098523" lon="7.4991257"><ele>644.0</ele><time>2026-05-01T10:43:37.884Z</time></trkpt><trkpt lat="44.3097821" lon="7.4994307"><ele>644.0</ele><time>2026-05-01T10:43:38.884Z</time></trkpt><trkpt lat="44.3097216" lon="7.4997484"><ele>644.0</ele><time>2026-05-01T10:43:39.884Z</time></trkpt><trkpt lat="44.3096668" lon="7.5000703"><ele>644.0</ele><time>2026-05-01T10:43:40.884Z</time></trkpt><trkpt lat="44.3096105" lon="7.5004008"><ele>644.0</ele><time>2026-05-01T10:43:41.884Z</time></trkpt><trkpt lat="44.3095627" lon="7.5006996"><ele>644.6666666666666</ele><time>2026-05-01T10:43:42.884Z</time></trkpt><trkpt lat="44.3095174" lon="7.5010001"><ele>645.3333333333334</ele><time>2026-05-01T10:43:43.884Z</time></trkpt><trkpt lat="44.3094674" lon="7.5012894"><ele>646.0</ele><time>2026-05-01T10:43:44.884Z</time></trkpt><trkpt lat="44.3094101" lon="7.5015807"><ele>646.6666666666667</ele><time>2026-05-01T10:43:45.884Z</time></trkpt><trkpt lat="44.3093504" lon="7.5018733"><ele>647.3333333333334</ele><time>2026-05-01T10:43:46.884Z</time></trkpt><trkpt lat="44.3092878" lon="7.5021714"><ele>648.0</ele><time>2026-05-01T10:43:47.884Z</time></trkpt><trkpt lat="44.3092203" lon="7.5024767"><ele>648.3333333333334</ele><time>2026-05-01T10:43:48.884Z</time></trkpt><trkpt lat="44.3091368" lon="7.5027565"><ele>648.6666666666667</ele><time>2026-05-01T10:43:49.884Z</time></trkpt><trkpt lat="44.3090496" lon="7.5030253"><ele>649.0</ele><time>2026-05-01T10:43:50.884Z</time></trkpt><trkpt lat="44.3089523" lon="7.5033056"><ele>649.5</ele><time>2026-05-01T10:43:51.884Z</time></trkpt><trkpt lat="44.3088503" lon="7.5035831"><ele>650.0</ele><time>2026-05-01T10:43:52.884Z</time></trkpt><trkpt lat="44.3087477" lon="7.503879"><ele>650.0</ele><time>2026-05-01T10:43:53.884Z</time></trkpt><trkpt lat="44.3086283" lon="7.5041545"><ele>650.0</ele><time>2026-05-01T10:43:54.884Z</time></trkpt><trkpt lat="44.3085178" lon="7.5044333"><ele>650.0</ele><time>2026-05-01T10:43:55.884Z</time></trkpt><trkpt lat="44.3084096" lon="7.5047014"><ele>650.0</ele><time>2026-05-01T10:43:56.884Z</time></trkpt><trkpt lat="44.3082922" lon="7.5049529"><ele>650.0</ele><time>2026-05-01T10:43:57.884Z</time></trkpt><trkpt lat="44.3081784" lon="7.5051944"><ele>650.6666666666666</ele><time>2026-05-01T10:43:58.884Z</time></trkpt><trkpt lat="44.3080628" lon="7.5054277"><ele>651.3333333333334</ele><time>2026-05-01T10:43:59.884Z</time></trkpt><trkpt lat="44.3079421" lon="7.5056571"><ele>652.0</ele><time>2026-05-01T10:44:00.884Z</time></trkpt><trkpt lat="44.3078112" lon="7.5058703"><ele>652.0</ele><time>2026-05-01T10:44:01.884Z</time></trkpt><trkpt lat="44.3076775" lon="7.5060933"><ele>652.0</ele><time>2026-05-01T10:44:02.884Z</time></trkpt><trkpt lat="44.3075366" lon="7.5063188"><ele>652.0</ele><time>2026-05-01T10:44:03.884Z</time></trkpt><trkpt lat="44.3073993" lon="7.5065402"><ele>653.3333333333334</ele><time>2026-05-01T10:44:04.884Z</time></trkpt><trkpt lat="44.3072636" lon="7.5067629"><ele>654.6666666666666</ele><time>2026-05-01T10:44:05.884Z</time></trkpt><trkpt lat="44.3071214" lon="7.5069851"><ele>656.0</ele><time>2026-05-01T10:44:06.884Z</time></trkpt><trkpt lat="44.3069803" lon="7.5071904"><ele>657.0</ele><time>2026-05-01T10:44:07.884Z</time></trkpt><trkpt lat="44.3068276" lon="7.5074121"><ele>658.0</ele><time>2026-05-01T10:44:08.884Z</time></trkpt><trkpt lat="44.3066764" lon="7.5076303"><ele>659.0</ele><time>2026-05-01T10:44:09.885Z</time></trkpt><trkpt lat="44.3065194" lon="7.5078436"><ele>658.6666666666666</ele><time>2026-05-01T10:44:10.884Z</time></trkpt><trkpt lat="44.3063778" lon="7.5080584"><ele>658.3333333333334</ele><time>2026-05-01T10:44:11.884Z</time></trkpt><trkpt lat="44.3062317" lon="7.5082715"><ele>658.0</ele><time>2026-05-01T10:44:12.884Z</time></trkpt><trkpt lat="44.306086" lon="7.5084734"><ele>658.0</ele><time>2026-05-01T10:44:13.884Z</time></trkpt><trkpt lat="44.3059283" lon="7.5086834"><ele>658.0</ele><time>2026-05-01T10:44:14.884Z</time></trkpt><trkpt lat="44.3057761" lon="7.5088823"><ele>658.0</ele><time>2026-05-01T10:44:15.884Z</time></trkpt><trkpt lat="44.3056313" lon="7.5090928"><ele>658.3333333333334</ele><time>2026-05-01T10:44:16.884Z</time></trkpt><trkpt lat="44.305489" lon="7.509308"><ele>658.6666666666666</ele><time>2026-05-01T10:44:17.884Z</time></trkpt><trkpt lat="44.3053475" lon="7.5095126"><ele>659.0</ele><time>2026-05-01T10:44:18.884Z</time></trkpt><trkpt lat="44.3051981" lon="7.5097163"><ele>659.6666666666666</ele><time>2026-05-01T10:44:19.884Z</time></trkpt><trkpt lat="44.3050436" lon="7.5099336"><ele>660.3333333333334</ele><time>2026-05-01T10:44:20.884Z</time></trkpt><trkpt lat="44.3048922" lon="7.5101513"><ele>661.0</ele><time>2026-05-01T10:44:21.884Z</time></trkpt><trkpt lat="44.3047434" lon="7.5103617"><ele>661.5</ele><time>2026-05-01T10:44:22.884Z</time></trkpt><trkpt lat="44.30459" lon="7.5106035"><ele>662.0</ele><time>2026-05-01T10:44:23.884Z</time></trkpt><trkpt lat="44.3044534" lon="7.5108631"><ele>662.0</ele><time>2026-05-01T10:44:24.884Z</time></trkpt><trkpt lat="44.304305" lon="7.5111168"><ele>662.0</ele><time>2026-05-01T10:44:25.884Z</time></trkpt><trkpt lat="44.3041725" lon="7.5113669"><ele>662.0</ele><time>2026-05-01T10:44:26.884Z</time></trkpt><trkpt lat="44.3040444" lon="7.5116136"><ele>662.0</ele><time>2026-05-01T10:44:27.884Z</time></trkpt><trkpt lat="44.303923" lon="7.5118608"><ele>662.0</ele><time>2026-05-01T10:44:28.884Z</time></trkpt><trkpt lat="44.3038022" lon="7.5121094"><ele>662.3333333333333</ele><time>2026-05-01T10:44:29.884Z</time></trkpt><trkpt lat="44.3036819" lon="7.5123537"><ele>662.6666666666666</ele><time>2026-05-01T10:44:30.885Z</time></trkpt><trkpt lat="44.3035618" lon="7.5126021"><ele>663.0</ele><time>2026-05-01T10:44:31.884Z</time></trkpt><trkpt lat="44.3034386" lon="7.5128548"><ele>662.3333333333334</ele><time>2026-05-01T10:44:32.885Z</time></trkpt><trkpt lat="44.3033279" lon="7.5131134"><ele>661.6666666666667</ele><time>2026-05-01T10:44:33.884Z</time></trkpt><trkpt lat="44.3031845" lon="7.5133616"><ele>661.0</ele><time>2026-05-01T10:44:34.884Z</time></trkpt><trkpt lat="44.3030485" lon="7.513618"><ele>663.0</ele><time>2026-05-01T10:44:35.884Z</time></trkpt><trkpt lat="44.3029067" lon="7.513864"><ele>665.0</ele><time>2026-05-01T10:44:36.884Z</time></trkpt><trkpt lat="44.3027494" lon="7.5140701"><ele>667.0</ele><time>2026-05-01T10:44:37.884Z</time></trkpt><trkpt lat="44.302588" lon="7.5142925"><ele>667.0</ele><time>2026-05-01T10:44:38.884Z</time></trkpt><trkpt lat="44.3024222" lon="7.5145164"><ele>667.0</ele><time>2026-05-01T10:44:39.884Z</time></trkpt><trkpt lat="44.3022461" lon="7.5147433"><ele>669.5</ele><time>2026-05-01T10:44:40.884Z</time></trkpt><trkpt lat="44.3020643" lon="7.514947"><ele>672.0</ele><time>2026-05-01T10:44:41.884Z</time></trkpt><trkpt lat="44.3018703" lon="7.515118"><ele>672.0</ele><time>2026-05-01T10:44:42.884Z</time></trkpt><trkpt lat="44.3016792" lon="7.5152801"><ele>672.0</ele><time>2026-05-01T10:44:43.884Z</time></trkpt><trkpt lat="44.3014823" lon="7.5154383"><ele>674.0</ele><time>2026-05-01T10:44:44.884Z</time></trkpt><trkpt lat="44.3012904" lon="7.5155916"><ele>676.0</ele><time>2026-05-01T10:44:45.884Z</time></trkpt><trkpt lat="44.3010941" lon="7.5157184"><ele>678.0</ele><time>2026-05-01T10:44:46.885Z</time></trkpt><trkpt lat="44.3008811" lon="7.5158272"><ele>678.0</ele><time>2026-05-01T10:44:47.884Z</time></trkpt><trkpt lat="44.3006685" lon="7.5159285"><ele>678.0</ele><time>2026-05-01T10:44:48.884Z</time></trkpt><trkpt lat="44.3004555" lon="7.5160332"><ele>674.0</ele><time>2026-05-01T10:44:49.884Z</time></trkpt><trkpt lat="44.3002273" lon="7.5161028"><ele>670.0</ele><time>2026-05-01T10:44:50.884Z</time></trkpt><trkpt lat="44.3000027" lon="7.5161942"><ele>672.0</ele><time>2026-05-01T10:44:51.884Z</time></trkpt><trkpt lat="44.2997763" lon="7.5162844"><ele>674.0</ele><time>2026-05-01T10:44:52.884Z</time></trkpt><trkpt lat="44.2995468" lon="7.5163486"><ele>674.0</ele><time>2026-05-01T10:44:53.884Z</time></trkpt><trkpt lat="44.2993156" lon="7.5163986"><ele>674.0</ele><time>2026-05-01T10:44:54.884Z</time></trkpt><trkpt lat="44.2990892" lon="7.5164322"><ele>674.0</ele><time>2026-05-01T10:44:55.884Z</time></trkpt><trkpt lat="44.2988643" lon="7.516464"><ele>674.0</ele><time>2026-05-01T10:44:56.884Z</time></trkpt><trkpt lat="44.2986357" lon="7.5164645"><ele>674.0</ele><time>2026-05-01T10:44:57.885Z</time></trkpt><trkpt lat="44.2984121" lon="7.5164564"><ele>674.0</ele><time>2026-05-01T10:44:58.884Z</time></trkpt><trkpt lat="44.2981954" lon="7.5164369"><ele>674.0</ele><time>2026-05-01T10:44:59.884Z</time></trkpt><trkpt lat="44.2979793" lon="7.5164033"><ele>674.3333333333333</ele><time>2026-05-01T10:45:00.884Z</time></trkpt><trkpt lat="44.2977558" lon="7.5163596"><ele>674.6666666666666</ele><time>2026-05-01T10:45:01.884Z</time></trkpt><trkpt lat="44.2975405" lon="7.5163045"><ele>675.0</ele><time>2026-05-01T10:45:02.885Z</time></trkpt><trkpt lat="44.2973108" lon="7.5162449"><ele>674.5</ele><time>2026-05-01T10:45:03.884Z</time></trkpt><trkpt lat="44.2970831" lon="7.5162031"><ele>674.0</ele><time>2026-05-01T10:45:04.884Z</time></trkpt><trkpt lat="44.2968547" lon="7.5161803"><ele>674.0</ele><time>2026-05-01T10:45:05.884Z</time></trkpt><trkpt lat="44.2966253" lon="7.516166"><ele>674.0</ele><time>2026-05-01T10:45:06.884Z</time></trkpt><trkpt lat="44.2963925" lon="7.516165"><ele>674.5</ele><time>2026-05-01T10:45:07.885Z</time></trkpt><trkpt lat="44.296162" lon="7.5161703"><ele>675.0</ele><time>2026-05-01T10:45:08.884Z</time></trkpt><trkpt lat="44.2959273" lon="7.5161928"><ele>675.0</ele><time>2026-05-01T10:45:09.884Z</time></trkpt><trkpt lat="44.2956904" lon="7.516232"><ele>675.0</ele><time>2026-05-01T10:45:10.884Z</time></trkpt><trkpt lat="44.2954569" lon="7.5162851"><ele>676.0</ele><time>2026-05-01T10:45:11.884Z</time></trkpt><trkpt lat="44.2952287" lon="7.5163406"><ele>677.0</ele><time>2026-05-01T10:45:12.884Z</time></trkpt><trkpt lat="44.2950037" lon="7.5164273"><ele>677.0</ele><time>2026-05-01T10:45:13.884Z</time></trkpt><trkpt lat="44.2947801" lon="7.5165217"><ele>677.0</ele><time>2026-05-01T10:45:14.884Z</time></trkpt><trkpt lat="44.2945575" lon="7.5166294"><ele>678.0</ele><time>2026-05-01T10:45:15.884Z</time></trkpt><trkpt lat="44.2943485" lon="7.5167383"><ele>679.0</ele><time>2026-05-01T10:45:16.884Z</time></trkpt><trkpt lat="44.2941348" lon="7.516853"><ele>679.0</ele><time>2026-05-01T10:45:17.884Z</time></trkpt><trkpt lat="44.2939284" lon="7.5169751"><ele>679.0</ele><time>2026-05-01T10:45:18.884Z</time></trkpt><trkpt lat="44.2937233" lon="7.5170971"><ele>679.0</ele><time>2026-05-01T10:45:19.884Z</time></trkpt><trkpt lat="44.2935238" lon="7.5172056"><ele>680.0</ele><time>2026-05-01T10:45:20.884Z</time></trkpt><trkpt lat="44.2933118" lon="7.5173233"><ele>681.0</ele><time>2026-05-01T10:45:21.884Z</time></trkpt><trkpt lat="44.2931007" lon="7.5174428"><ele>680.0</ele><time>2026-05-01T10:45:22.884Z</time></trkpt><trkpt lat="44.2928915" lon="7.5175649"><ele>679.0</ele><time>2026-05-01T10:45:23.884Z</time></trkpt><trkpt lat="44.2926809" lon="7.51768"><ele>679.0</ele><time>2026-05-01T10:45:24.884Z</time></trkpt><trkpt lat="44.2924655" lon="7.5177965"><ele>679.0</ele><time>2026-05-01T10:45:25.884Z</time></trkpt><trkpt lat="44.2922491" lon="7.5179103"><ele>681.0</ele><time>2026-05-01T10:45:26.884Z</time></trkpt><trkpt lat="44.2920295" lon="7.518034"><ele>683.0</ele><time>2026-05-01T10:45:27.884Z</time></trkpt><trkpt lat="44.2918079" lon="7.5181311"><ele>683.0</ele><time>2026-05-01T10:45:28.884Z</time></trkpt><trkpt lat="44.2915855" lon="7.5182316"><ele>683.0</ele><time>2026-05-01T10:45:29.884Z</time></trkpt><trkpt lat="44.2913717" lon="7.5183237"><ele>684.5</ele><time>2026-05-01T10:45:30.884Z</time></trkpt><trkpt lat="44.2911536" lon="7.5184096"><ele>686.0</ele><time>2026-05-01T10:45:31.884Z</time></trkpt><trkpt lat="44.2909343" lon="7.5184971"><ele>686.0</ele><time>2026-05-01T10:45:32.884Z</time></trkpt><trkpt lat="44.2907294" lon="7.5185814"><ele>686.0</ele><time>2026-05-01T10:45:33.884Z</time></trkpt><trkpt lat="44.2905066" lon="7.5186625"><ele>686.0</ele><time>2026-05-01T10:45:34.884Z</time></trkpt><trkpt lat="44.2902858" lon="7.5187311"><ele>690.0</ele><time>2026-05-01T10:45:35.884Z</time></trkpt><trkpt lat="44.2900699" lon="7.5187898"><ele>694.0</ele><time>2026-05-01T10:45:36.884Z</time></trkpt><trkpt lat="44.2898342" lon="7.518859"><ele>694.0</ele><time>2026-05-01T10:45:37.884Z</time></trkpt><trkpt lat="44.2895944" lon="7.5189214"><ele>694.0</ele><time>2026-05-01T10:45:38.884Z</time></trkpt><trkpt lat="44.2893623" lon="7.5189868"><ele>694.0</ele><time>2026-05-01T10:45:39.885Z</time></trkpt><trkpt lat="44.2891264" lon="7.5190504"><ele>694.0</ele><time>2026-05-01T10:45:40.885Z</time></trkpt><trkpt lat="44.2888928" lon="7.5191126"><ele>691.0</ele><time>2026-05-01T10:45:41.884Z</time></trkpt><trkpt lat="44.288667" lon="7.5191652"><ele>688.0</ele><time>2026-05-01T10:45:42.884Z</time></trkpt><trkpt lat="44.288442" lon="7.5192263"><ele>688.0</ele><time>2026-05-01T10:45:43.884Z</time></trkpt><trkpt lat="44.2882228" lon="7.5192757"><ele>688.0</ele><time>2026-05-01T10:45:44.884Z</time></trkpt><trkpt lat="44.2880077" lon="7.5193137"><ele>688.0</ele><time>2026-05-01T10:45:45.884Z</time></trkpt><trkpt lat="44.2877854" lon="7.5193382"><ele>688.3333333333334</ele><time>2026-05-01T10:45:46.884Z</time></trkpt><trkpt lat="44.287564" lon="7.5193547"><ele>688.6666666666666</ele><time>2026-05-01T10:45:47.884Z</time></trkpt><trkpt lat="44.2873373" lon="7.5193651"><ele>689.0</ele><time>2026-05-01T10:45:48.884Z</time></trkpt><trkpt lat="44.2871052" lon="7.5193663"><ele>689.0</ele><time>2026-05-01T10:45:49.884Z</time></trkpt><trkpt lat="44.2868765" lon="7.5193653"><ele>689.0</ele><time>2026-05-01T10:45:50.884Z</time></trkpt><trkpt lat="44.2866459" lon="7.5193572"><ele>691.5</ele><time>2026-05-01T10:45:51.884Z</time></trkpt><trkpt lat="44.2864123" lon="7.5193352"><ele>694.0</ele><time>2026-05-01T10:45:52.884Z</time></trkpt><trkpt lat="44.2861801" lon="7.5193023"><ele>694.0</ele><time>2026-05-01T10:45:53.884Z</time></trkpt><trkpt lat="44.2859443" lon="7.5192513"><ele>694.0</ele><time>2026-05-01T10:45:54.884Z</time></trkpt><trkpt lat="44.2857151" lon="7.5192044"><ele>697.0</ele><time>2026-05-01T10:45:55.884Z</time></trkpt><trkpt lat="44.2854846" lon="7.5191564"><ele>700.0</ele><time>2026-05-01T10:45:56.884Z</time></trkpt><trkpt lat="44.2852631" lon="7.5191025"><ele>700.0</ele><time>2026-05-01T10:45:57.885Z</time></trkpt><trkpt lat="44.2850478" lon="7.5190428"><ele>700.0</ele><time>2026-05-01T10:45:58.884Z</time></trkpt><trkpt lat="44.2848375" lon="7.5189758"><ele>700.0</ele><time>2026-05-01T10:45:59.884Z</time></trkpt><trkpt lat="44.2846278" lon="7.5189062"><ele>701.3333333333334</ele><time>2026-05-01T10:46:00.884Z</time></trkpt><trkpt lat="44.2844258" lon="7.5188228"><ele>702.6666666666666</ele><time>2026-05-01T10:46:01.885Z</time></trkpt><trkpt lat="44.2842262" lon="7.5187362"><ele>704.0</ele><time>2026-05-01T10:46:02.884Z</time></trkpt><trkpt lat="44.2840342" lon="7.5186377"><ele>701.6666666666666</ele><time>2026-05-01T10:46:03.884Z</time></trkpt><trkpt lat="44.2838373" lon="7.5185409"><ele>699.3333333333334</ele><time>2026-05-01T10:46:04.885Z</time></trkpt><trkpt lat="44.2836318" lon="7.5184352"><ele>697.0</ele><time>2026-05-01T10:46:05.884Z</time></trkpt><trkpt lat="44.2834386" lon="7.5183162"><ele>697.0</ele><time>2026-05-01T10:46:06.884Z</time></trkpt><trkpt lat="44.2832489" lon="7.518193"><ele>697.0</ele><time>2026-05-01T10:46:07.884Z</time></trkpt><trkpt lat="44.2830621" lon="7.5180714"><ele>697.0</ele><time>2026-05-01T10:46:08.884Z</time></trkpt><trkpt lat="44.2828638" lon="7.5179504"><ele>697.6666666666667</ele><time>2026-05-01T10:46:09.884Z</time></trkpt><trkpt lat="44.2826644" lon="7.5178379"><ele>698.3333333333334</ele><time>2026-05-01T10:46:10.884Z</time></trkpt><trkpt lat="44.2824538" lon="7.5177378"><ele>699.0</ele><time>2026-05-01T10:46:11.884Z</time></trkpt><trkpt lat="44.2822454" lon="7.5176511"><ele>699.0</ele><time>2026-05-01T10:46:12.884Z</time></trkpt><trkpt lat="44.2820299" lon="7.5175809"><ele>699.0</ele><time>2026-05-01T10:46:13.884Z</time></trkpt><trkpt lat="44.2818164" lon="7.5175032"><ele>699.0</ele><time>2026-05-01T10:46:14.884Z</time></trkpt><trkpt lat="44.2815885" lon="7.517462"><ele>699.5</ele><time>2026-05-01T10:46:15.884Z</time></trkpt><trkpt lat="44.2813567" lon="7.5174391"><ele>700.0</ele><time>2026-05-01T10:46:16.884Z</time></trkpt><trkpt lat="44.2811284" lon="7.5174335"><ele>700.0</ele><time>2026-05-01T10:46:17.884Z</time></trkpt><trkpt lat="44.2808992" lon="7.5174418"><ele>700.0</ele><time>2026-05-01T10:46:18.884Z</time></trkpt><trkpt lat="44.280678" lon="7.5174595"><ele>700.6666666666667</ele><time>2026-05-01T10:46:19.884Z</time></trkpt><trkpt lat="44.2804613" lon="7.5174792"><ele>701.3333333333334</ele><time>2026-05-01T10:46:20.884Z</time></trkpt><trkpt lat="44.2802389" lon="7.5175027"><ele>702.0</ele><time>2026-05-01T10:46:21.884Z</time></trkpt><trkpt lat="44.2800195" lon="7.5175244"><ele>702.0</ele><time>2026-05-01T10:46:22.885Z</time></trkpt><trkpt lat="44.2797901" lon="7.517545"><ele>702.0</ele><time>2026-05-01T10:46:23.884Z</time></trkpt><trkpt lat="44.2795605" lon="7.5175744"><ele>702.5</ele><time>2026-05-01T10:46:24.884Z</time></trkpt><trkpt lat="44.2793313" lon="7.517603"><ele>703.0</ele><time>2026-05-01T10:46:25.884Z</time></trkpt><trkpt lat="44.2791012" lon="7.5176333"><ele>705.5</ele><time>2026-05-01T10:46:26.884Z</time></trkpt><trkpt lat="44.2788727" lon="7.5176633"><ele>708.0</ele><time>2026-05-01T10:46:27.884Z</time></trkpt><trkpt lat="44.2786509" lon="7.5176855"><ele>708.0</ele><time>2026-05-01T10:46:28.884Z</time></trkpt><trkpt lat="44.2784337" lon="7.5177047"><ele>708.0</ele><time>2026-05-01T10:46:29.884Z</time></trkpt><trkpt lat="44.2782147" lon="7.5177257"><ele>708.0</ele><time>2026-05-01T10:46:30.884Z</time></trkpt><trkpt lat="44.2779946" lon="7.5177621"><ele>709.0</ele><time>2026-05-01T10:46:31.885Z</time></trkpt><trkpt lat="44.277767" lon="7.5178063"><ele>710.0</ele><time>2026-05-01T10:46:32.885Z</time></trkpt><trkpt lat="44.2775464" lon="7.5178564"><ele>710.5</ele><time>2026-05-01T10:46:33.884Z</time></trkpt><trkpt lat="44.2773172" lon="7.5179089"><ele>711.0</ele><time>2026-05-01T10:46:34.884Z</time></trkpt><trkpt lat="44.2770968" lon="7.5179786"><ele>711.0</ele><time>2026-05-01T10:46:35.884Z</time></trkpt><trkpt lat="44.2768778" lon="7.5180615"><ele>711.0</ele><time>2026-05-01T10:46:36.884Z</time></trkpt><trkpt lat="44.2766547" lon="7.5181417"><ele>711.0</ele><time>2026-05-01T10:46:37.884Z</time></trkpt><trkpt lat="44.2764364" lon="7.5182258"><ele>711.0</ele><time>2026-05-01T10:46:38.884Z</time></trkpt><trkpt lat="44.2762211" lon="7.5183131"><ele>711.5</ele><time>2026-05-01T10:46:39.885Z</time></trkpt><trkpt lat="44.2760104" lon="7.5184035"><ele>712.0</ele><time>2026-05-01T10:46:40.884Z</time></trkpt><trkpt lat="44.275789" lon="7.5184978"><ele>715.5</ele><time>2026-05-01T10:46:41.885Z</time></trkpt><trkpt lat="44.2755577" lon="7.5185941"><ele>719.0</ele><time>2026-05-01T10:46:42.884Z</time></trkpt><trkpt lat="44.2753418" lon="7.51868"><ele>716.5</ele><time>2026-05-01T10:46:43.884Z</time></trkpt><trkpt lat="44.2751239" lon="7.5187682"><ele>714.0</ele><time>2026-05-01T10:46:44.884Z</time></trkpt><trkpt lat="44.2749024" lon="7.5188599"><ele>714.5</ele><time>2026-05-01T10:46:45.884Z</time></trkpt><trkpt lat="44.2746771" lon="7.5189478"><ele>715.0</ele><time>2026-05-01T10:46:46.884Z</time></trkpt><trkpt lat="44.2744402" lon="7.519019"><ele>715.0</ele><time>2026-05-01T10:46:47.884Z</time></trkpt><trkpt lat="44.2741975" lon="7.5190694"><ele>715.0</ele><time>2026-05-01T10:46:48.884Z</time></trkpt><trkpt lat="44.2739519" lon="7.5191023"><ele>716.5</ele><time>2026-05-01T10:46:49.884Z</time></trkpt><trkpt lat="44.2737006" lon="7.5191245"><ele>718.0</ele><time>2026-05-01T10:46:50.885Z</time></trkpt><trkpt lat="44.273443" lon="7.5191355"><ele>718.0</ele><time>2026-05-01T10:46:51.884Z</time></trkpt><trkpt lat="44.2731608" lon="7.5191333"><ele>718.0</ele><time>2026-05-01T10:46:52.884Z</time></trkpt><trkpt lat="44.2728909" lon="7.519116"><ele>716.0</ele><time>2026-05-01T10:46:53.884Z</time></trkpt><trkpt lat="44.2726195" lon="7.5190992"><ele>714.0</ele><time>2026-05-01T10:46:54.884Z</time></trkpt><trkpt lat="44.2723381" lon="7.5190811"><ele>716.5</ele><time>2026-05-01T10:46:55.884Z</time></trkpt><trkpt lat="44.2720539" lon="7.5190558"><ele>719.0</ele><time>2026-05-01T10:46:56.884Z</time></trkpt><trkpt lat="44.2717628" lon="7.5190405"><ele>719.0</ele><time>2026-05-01T10:46:57.884Z</time></trkpt><trkpt lat="44.2714635" lon="7.5190241"><ele>719.0</ele><time>2026-05-01T10:46:58.884Z</time></trkpt><trkpt lat="44.2711675" lon="7.5190024"><ele>720.5</ele><time>2026-05-01T10:46:59.884Z</time></trkpt><trkpt lat="44.2708892" lon="7.5189777"><ele>722.0</ele><time>2026-05-01T10:47:00.884Z</time></trkpt><trkpt lat="44.2706071" lon="7.5189418"><ele>723.0</ele><time>2026-05-01T10:47:01.884Z</time></trkpt><trkpt lat="44.2703294" lon="7.5189148"><ele>724.0</ele><time>2026-05-01T10:47:02.884Z</time></trkpt><trkpt lat="44.2700627" lon="7.5188885"><ele>724.0</ele><time>2026-05-01T10:47:03.884Z</time></trkpt><trkpt lat="44.2697923" lon="7.5188765"><ele>724.0</ele><time>2026-05-01T10:47:04.884Z</time></trkpt><trkpt lat="44.269519" lon="7.5188632"><ele>725.0</ele><time>2026-05-01T10:47:05.884Z</time></trkpt><trkpt lat="44.269254" lon="7.5188442"><ele>726.0</ele><time>2026-05-01T10:47:06.884Z</time></trkpt><trkpt lat="44.2689826" lon="7.5188314"><ele>726.0</ele><time>2026-05-01T10:47:07.884Z</time></trkpt><trkpt lat="44.2687159" lon="7.5188244"><ele>726.0</ele><time>2026-05-01T10:47:08.885Z</time></trkpt><trkpt lat="44.2684599" lon="7.5188129"><ele>726.0</ele><time>2026-05-01T10:47:09.884Z</time></trkpt><trkpt lat="44.2682021" lon="7.5188"><ele>726.0</ele><time>2026-05-01T10:47:10.884Z</time></trkpt><trkpt lat="44.26795" lon="7.5187768"><ele>727.0</ele><time>2026-05-01T10:47:11.884Z</time></trkpt><trkpt lat="44.2677006" lon="7.5187501"><ele>728.0</ele><time>2026-05-01T10:47:12.884Z</time></trkpt><trkpt lat="44.267453" lon="7.518715"><ele>733.5</ele><time>2026-05-01T10:47:13.884Z</time></trkpt><trkpt lat="44.2672077" lon="7.5186744"><ele>739.0</ele><time>2026-05-01T10:47:14.884Z</time></trkpt><trkpt lat="44.2669655" lon="7.51862"><ele>739.0</ele><time>2026-05-01T10:47:15.884Z</time></trkpt><trkpt lat="44.2667312" lon="7.5185637"><ele>739.0</ele><time>2026-05-01T10:47:16.884Z</time></trkpt><trkpt lat="44.2664927" lon="7.518501"><ele>738.0</ele><time>2026-05-01T10:47:17.884Z</time></trkpt><trkpt lat="44.2662608" lon="7.5184299"><ele>737.0</ele><time>2026-05-01T10:47:18.884Z</time></trkpt><trkpt lat="44.2660444" lon="7.5183742"><ele>737.0</ele><time>2026-05-01T10:47:19.884Z</time></trkpt><trkpt lat="44.2658361" lon="7.518315"><ele>737.0</ele><time>2026-05-01T10:47:20.884Z</time></trkpt><trkpt lat="44.2656329" lon="7.5182581"><ele>737.0</ele><time>2026-05-01T10:47:21.884Z</time></trkpt><trkpt lat="44.2654286" lon="7.5182041"><ele>736.6666666666666</ele><time>2026-05-01T10:47:22.884Z</time></trkpt><trkpt lat="44.2652327" lon="7.5181491"><ele>736.3333333333334</ele><time>2026-05-01T10:47:23.885Z</time></trkpt><trkpt lat="44.265051" lon="7.5181064"><ele>736.0</ele><time>2026-05-01T10:47:24.884Z</time></trkpt><trkpt lat="44.2648778" lon="7.5180642"><ele>736.5</ele><time>2026-05-01T10:47:25.884Z</time></trkpt><trkpt lat="44.2647117" lon="7.5180391"><ele>737.0</ele><time>2026-05-01T10:47:26.884Z</time></trkpt><trkpt lat="44.2645702" lon="7.5180018"><ele>737.5</ele><time>2026-05-01T10:47:27.884Z</time></trkpt><trkpt lat="44.2644527" lon="7.5179581"><ele>738.0</ele><time>2026-05-01T10:47:28.884Z</time></trkpt><trkpt lat="44.2643519" lon="7.5179176"><ele>738.0</ele><time>2026-05-01T10:47:29.884Z</time></trkpt><trkpt lat="44.2642541" lon="7.5178973"><ele>738.0</ele><time>2026-05-01T10:47:30.884Z</time></trkpt><trkpt lat="44.2641617" lon="7.517912"><ele>738.0</ele><time>2026-05-01T10:47:31.884Z</time></trkpt><trkpt lat="44.2640752" lon="7.5179657"><ele>738.0</ele><time>2026-05-01T10:47:32.884Z</time></trkpt><trkpt lat="44.2639964" lon="7.5180227"><ele>738.0</ele><time>2026-05-01T10:47:33.884Z</time></trkpt><trkpt lat="44.2639367" lon="7.5181319"><ele>738.0</ele><time>2026-05-01T10:47:34.884Z</time></trkpt><trkpt lat="44.2638745" lon="7.5183025"><ele>738.0</ele><time>2026-05-01T10:47:35.884Z</time></trkpt><trkpt lat="44.2638228" lon="7.5184669"><ele>738.0</ele><time>2026-05-01T10:47:36.884Z</time></trkpt><trkpt lat="44.2637735" lon="7.5186125"><ele>738.0</ele><time>2026-05-01T10:47:37.884Z</time></trkpt><trkpt lat="44.2637004" lon="7.5187489"><ele>740.75</ele><time>2026-05-01T10:47:38.884Z</time></trkpt><trkpt lat="44.2636026" lon="7.5188574"><ele>743.5</ele><time>2026-05-01T10:47:39.884Z</time></trkpt><trkpt lat="44.2634729" lon="7.5189102"><ele>746.25</ele><time>2026-05-01T10:47:40.884Z</time></trkpt><trkpt lat="44.2633359" lon="7.5189179"><ele>749.0</ele><time>2026-05-01T10:47:41.885Z</time></trkpt><trkpt lat="44.2631998" lon="7.5188971"><ele>753.6666666666666</ele><time>2026-05-01T10:47:42.884Z</time></trkpt><trkpt lat="44.2630591" lon="7.5188476"><ele>758.3333333333334</ele><time>2026-05-01T10:47:43.884Z</time></trkpt><trkpt lat="44.2629059" lon="7.5188"><ele>763.0</ele><time>2026-05-01T10:47:44.884Z</time></trkpt><trkpt lat="44.2627421" lon="7.5187523"><ele>756.0</ele><time>2026-05-01T10:47:45.885Z</time></trkpt><trkpt lat="44.2625781" lon="7.5186992"><ele>749.0</ele><time>2026-05-01T10:47:46.884Z</time></trkpt><trkpt lat="44.2624073" lon="7.5186459"><ele>742.0</ele><time>2026-05-01T10:47:47.884Z</time></trkpt><trkpt lat="44.2622666" lon="7.5185989"><ele>741.6666666666667</ele><time>2026-05-01T10:47:48.885Z</time></trkpt><trkpt lat="44.2621234" lon="7.5185743"><ele>741.3333333333334</ele><time>2026-05-01T10:47:49.884Z</time></trkpt><trkpt lat="44.2619809" lon="7.5185604"><ele>741.0</ele><time>2026-05-01T10:47:50.884Z</time></trkpt><trkpt lat="44.2618127" lon="7.5185981"><ele>741.0</ele><time>2026-05-01T10:47:51.884Z</time></trkpt><trkpt lat="44.2616528" lon="7.5186588"><ele>741.0</ele><time>2026-05-01T10:47:52.884Z</time></trkpt><trkpt lat="44.2615135" lon="7.5187375"><ele>741.0</ele><time>2026-05-01T10:47:53.884Z</time></trkpt><trkpt lat="44.2613684" lon="7.5188707"><ele>743.0</ele><time>2026-05-01T10:47:54.884Z</time></trkpt><trkpt lat="44.2612395" lon="7.5190987"><ele>745.0</ele><time>2026-05-01T10:47:55.884Z</time></trkpt><trkpt lat="44.261126" lon="7.5192558"><ele>747.0</ele><time>2026-05-01T10:47:56.884Z</time></trkpt><trkpt lat="44.2610108" lon="7.5194175"><ele>750.3333333333334</ele><time>2026-05-01T10:47:57.884Z</time></trkpt><trkpt lat="44.2609149" lon="7.519594"><ele>753.6666666666667</ele><time>2026-05-01T10:47:58.884Z</time></trkpt><trkpt lat="44.2608217" lon="7.5197759"><ele>757.0</ele><time>2026-05-01T10:47:59.884Z</time></trkpt><trkpt lat="44.2607926" lon="7.5200197"><ele>757.0</ele><time>2026-05-01T10:48:00.884Z</time></trkpt><trkpt lat="44.2607559" lon="7.5202955"><ele>757.0</ele><time>2026-05-01T10:48:01.884Z</time></trkpt><trkpt lat="44.2607148" lon="7.5205643"><ele>757.0</ele><time>2026-05-01T10:48:02.884Z</time></trkpt><trkpt lat="44.2606713" lon="7.5208312"><ele>759.6666666666667</ele><time>2026-05-01T10:48:03.884Z</time></trkpt><trkpt lat="44.2606262" lon="7.5210953"><ele>762.3333333333334</ele><time>2026-05-01T10:48:04.884Z</time></trkpt><trkpt lat="44.2605745" lon="7.5213475"><ele>765.0</ele><time>2026-05-01T10:48:05.884Z</time></trkpt><trkpt lat="44.2605156" lon="7.5216084"><ele>761.0</ele><time>2026-05-01T10:48:06.884Z</time></trkpt><trkpt lat="44.2604012" lon="7.5218511"><ele>757.0</ele><time>2026-05-01T10:48:07.884Z</time></trkpt><trkpt lat="44.2602999" lon="7.5221158"><ele>753.0</ele><time>2026-05-01T10:48:08.884Z</time></trkpt><trkpt lat="44.2601522" lon="7.5223358"><ele>753.0</ele><time>2026-05-01T10:48:09.885Z</time></trkpt><trkpt lat="44.2600273" lon="7.5225862"><ele>753.0</ele><time>2026-05-01T10:48:10.884Z</time></trkpt><trkpt lat="44.2598912" lon="7.5228265"><ele>753.0</ele><time>2026-05-01T10:48:11.884Z</time></trkpt><trkpt lat="44.2597543" lon="7.5230582"><ele>753.0</ele><time>2026-05-01T10:48:12.884Z</time></trkpt><trkpt lat="44.2596135" lon="7.5232707"><ele>753.0</ele><time>2026-05-01T10:48:13.884Z</time></trkpt><trkpt lat="44.2594849" lon="7.5234913"><ele>753.0</ele><time>2026-05-01T10:48:14.885Z</time></trkpt><trkpt lat="44.259323" lon="7.5236621"><ele>754.6666666666666</ele><time>2026-05-01T10:48:15.884Z</time></trkpt><trkpt lat="44.2591662" lon="7.5238416"><ele>756.3333333333333</ele><time>2026-05-01T10:48:16.885Z</time></trkpt><trkpt lat="44.2589765" lon="7.5239374"><ele>758.0</ele><time>2026-05-01T10:48:17.884Z</time></trkpt><trkpt lat="44.258803" lon="7.5240382"><ele>758.0</ele><time>2026-05-01T10:48:18.884Z</time></trkpt><trkpt lat="44.2586122" lon="7.5241215"><ele>758.0</ele><time>2026-05-01T10:48:19.884Z</time></trkpt><trkpt lat="44.2584249" lon="7.524206"><ele>758.0</ele><time>2026-05-01T10:48:20.884Z</time></trkpt><trkpt lat="44.2582583" lon="7.5243111"><ele>758.3333333333333</ele><time>2026-05-01T10:48:21.884Z</time></trkpt><trkpt lat="44.258091" lon="7.5244434"><ele>758.6666666666666</ele><time>2026-05-01T10:48:22.885Z</time></trkpt><trkpt lat="44.2579374" lon="7.5245852"><ele>759.0</ele><time>2026-05-01T10:48:23.884Z</time></trkpt><trkpt lat="44.2577995" lon="7.524803"><ele>759.0</ele><time>2026-05-01T10:48:24.884Z</time></trkpt><trkpt lat="44.2576348" lon="7.5249428"><ele>759.0</ele><time>2026-05-01T10:48:25.884Z</time></trkpt><trkpt lat="44.2574636" lon="7.5251015"><ele>759.0</ele><time>2026-05-01T10:48:26.884Z</time></trkpt><trkpt lat="44.2572841" lon="7.5252496"><ele>760.6666666666666</ele><time>2026-05-01T10:48:27.884Z</time></trkpt><trkpt lat="44.257089" lon="7.5253586"><ele>762.3333333333333</ele><time>2026-05-01T10:48:28.884Z</time></trkpt><trkpt lat="44.2568872" lon="7.5254532"><ele>764.0</ele><time>2026-05-01T10:48:29.884Z</time></trkpt><trkpt lat="44.2566915" lon="7.5255332"><ele>764.0</ele><time>2026-05-01T10:48:30.884Z</time></trkpt><trkpt lat="44.2564951" lon="7.5256209"><ele>764.0</ele><time>2026-05-01T10:48:31.884Z</time></trkpt><trkpt lat="44.2563095" lon="7.5257026"><ele>764.0</ele><time>2026-05-01T10:48:32.884Z</time></trkpt><trkpt lat="44.2561319" lon="7.5257973"><ele>761.0</ele><time>2026-05-01T10:48:33.885Z</time></trkpt><trkpt lat="44.2559581" lon="7.5258813"><ele>758.0</ele><time>2026-05-01T10:48:34.884Z</time></trkpt><trkpt lat="44.2557934" lon="7.5259545"><ele>755.0</ele><time>2026-05-01T10:48:35.884Z</time></trkpt><trkpt lat="44.2556389" lon="7.5260304"><ele>757.0</ele><time>2026-05-01T10:48:36.884Z</time></trkpt><trkpt lat="44.2554912" lon="7.5260953"><ele>759.0</ele><time>2026-05-01T10:48:37.884Z</time></trkpt><trkpt lat="44.2553581" lon="7.5261899"><ele>761.0</ele><time>2026-05-01T10:48:38.884Z</time></trkpt><trkpt lat="44.2552371" lon="7.5263251"><ele>761.0</ele><time>2026-05-01T10:48:39.884Z</time></trkpt><trkpt lat="44.2551695" lon="7.5265205"><ele>761.0</ele><time>2026-05-01T10:48:40.884Z</time></trkpt><trkpt lat="44.255096" lon="7.5266999"><ele>761.0</ele><time>2026-05-01T10:48:41.884Z</time></trkpt><trkpt lat="44.2550847" lon="7.5270206"><ele>762.3333333333333</ele><time>2026-05-01T10:48:42.884Z</time></trkpt><trkpt lat="44.255042" lon="7.527284"><ele>763.6666666666666</ele><time>2026-05-01T10:48:43.884Z</time></trkpt><trkpt lat="44.2549833" lon="7.5275321"><ele>765.0</ele><time>2026-05-01T10:48:44.884Z</time></trkpt><trkpt lat="44.254916" lon="7.5277628"><ele>765.6666666666666</ele><time>2026-05-01T10:48:45.884Z</time></trkpt><trkpt lat="44.254821" lon="7.5279708"><ele>766.3333333333333</ele><time>2026-05-01T10:48:46.884Z</time></trkpt><trkpt lat="44.2547039" lon="7.5281628"><ele>767.0</ele><time>2026-05-01T10:48:47.884Z</time></trkpt><trkpt lat="44.2545697" lon="7.5283393"><ele>765.0</ele><time>2026-05-01T10:48:48.885Z</time></trkpt><trkpt lat="44.2543889" lon="7.5284745"><ele>763.0</ele><time>2026-05-01T10:48:49.884Z</time></trkpt><trkpt lat="44.2542075" lon="7.5286027"><ele>761.0</ele><time>2026-05-01T10:48:50.884Z</time></trkpt><trkpt lat="44.2540153" lon="7.5287253"><ele>763.3333333333333</ele><time>2026-05-01T10:48:51.884Z</time></trkpt><trkpt lat="44.2538123" lon="7.5288315"><ele>765.6666666666666</ele><time>2026-05-01T10:48:52.885Z</time></trkpt><trkpt lat="44.2536205" lon="7.5289457"><ele>768.0</ele><time>2026-05-01T10:48:53.884Z</time></trkpt><trkpt lat="44.2534263" lon="7.5290671"><ele>768.0</ele><time>2026-05-01T10:48:54.884Z</time></trkpt><trkpt lat="44.2532467" lon="7.5292008"><ele>768.0</ele><time>2026-05-01T10:48:55.884Z</time></trkpt><trkpt lat="44.253062" lon="7.5293659"><ele>768.0</ele><time>2026-05-01T10:48:56.884Z</time></trkpt><trkpt lat="44.252891" lon="7.5295318"><ele>770.6666666666667</ele><time>2026-05-01T10:48:57.884Z</time></trkpt><trkpt lat="44.2527241" lon="7.5297047"><ele>773.3333333333334</ele><time>2026-05-01T10:48:58.885Z</time></trkpt><trkpt lat="44.2525344" lon="7.5298168"><ele>776.0</ele><time>2026-05-01T10:48:59.884Z</time></trkpt><trkpt lat="44.2523511" lon="7.5299161"><ele>772.6666666666667</ele><time>2026-05-01T10:49:00.884Z</time></trkpt><trkpt lat="44.2521597" lon="7.530009"><ele>769.3333333333334</ele><time>2026-05-01T10:49:01.884Z</time></trkpt><trkpt lat="44.2519535" lon="7.5300796"><ele>766.0</ele><time>2026-05-01T10:49:02.884Z</time></trkpt><trkpt lat="44.2517607" lon="7.5301469"><ele>766.0</ele><time>2026-05-01T10:49:03.884Z</time></trkpt><trkpt lat="44.2515627" lon="7.5302451"><ele>766.0</ele><time>2026-05-01T10:49:04.884Z</time></trkpt><trkpt lat="44.2513747" lon="7.5304152"><ele>766.0</ele><time>2026-05-01T10:49:05.884Z</time></trkpt><trkpt lat="44.251185" lon="7.5305777"><ele>768.3333333333334</ele><time>2026-05-01T10:49:06.885Z</time></trkpt><trkpt lat="44.2510112" lon="7.5307672"><ele>770.6666666666667</ele><time>2026-05-01T10:49:07.885Z</time></trkpt><trkpt lat="44.2508323" lon="7.5309512"><ele>773.0</ele><time>2026-05-01T10:49:08.884Z</time></trkpt><trkpt lat="44.2506604" lon="7.5311506"><ele>774.0</ele><time>2026-05-01T10:49:09.884Z</time></trkpt><trkpt lat="44.2505001" lon="7.5313359"><ele>775.0</ele><time>2026-05-01T10:49:10.884Z</time></trkpt><trkpt lat="44.2503187" lon="7.5315121"><ele>776.0</ele><time>2026-05-01T10:49:11.884Z</time></trkpt><trkpt lat="44.250127" lon="7.5316366"><ele>776.0</ele><time>2026-05-01T10:49:12.884Z</time></trkpt><trkpt lat="44.2499397" lon="7.5317359"><ele>776.0</ele><time>2026-05-01T10:49:13.884Z</time></trkpt><trkpt lat="44.2497517" lon="7.5318432"><ele>776.0</ele><time>2026-05-01T10:49:14.884Z</time></trkpt><trkpt lat="44.2495777" lon="7.531897"><ele>775.0</ele><time>2026-05-01T10:49:15.884Z</time></trkpt><trkpt lat="44.2494371" lon="7.5318907"><ele>774.0</ele><time>2026-05-01T10:49:16.884Z</time></trkpt><trkpt lat="44.2492949" lon="7.531913"><ele>773.0</ele><time>2026-05-01T10:49:17.884Z</time></trkpt><trkpt lat="44.2491692" lon="7.53194"><ele>772.0</ele><time>2026-05-01T10:49:18.885Z</time></trkpt><trkpt lat="44.2490422" lon="7.5319793"><ele>771.75</ele><time>2026-05-01T10:49:19.884Z</time></trkpt><trkpt lat="44.2489196" lon="7.5320178"><ele>771.5</ele><time>2026-05-01T10:49:20.884Z</time></trkpt><trkpt lat="44.2488005" lon="7.5320634"><ele>771.25</ele><time>2026-05-01T10:49:21.884Z</time></trkpt><trkpt lat="44.2486649" lon="7.5321123"><ele>771.0</ele><time>2026-05-01T10:49:22.884Z</time></trkpt><trkpt lat="44.2485395" lon="7.532151"><ele>773.5</ele><time>2026-05-01T10:49:23.884Z</time></trkpt><trkpt lat="44.2484117" lon="7.5321713"><ele>776.0</ele><time>2026-05-01T10:49:24.884Z</time></trkpt><trkpt lat="44.2482827" lon="7.5321686"><ele>778.5</ele><time>2026-05-01T10:49:25.884Z</time></trkpt><trkpt lat="44.2481567" lon="7.532148"><ele>781.0</ele><time>2026-05-01T10:49:26.884Z</time></trkpt><trkpt lat="44.2480188" lon="7.5321183"><ele>781.25</ele><time>2026-05-01T10:49:27.884Z</time></trkpt><trkpt lat="44.2478799" lon="7.5320649"><ele>781.5</ele><time>2026-05-01T10:49:28.884Z</time></trkpt><trkpt lat="44.2477428" lon="7.5320082"><ele>781.75</ele><time>2026-05-01T10:49:29.884Z</time></trkpt><trkpt lat="44.2476163" lon="7.5319442"><ele>782.0</ele><time>2026-05-01T10:49:30.884Z</time></trkpt><trkpt lat="44.2474856" lon="7.5318963"><ele>780.75</ele><time>2026-05-01T10:49:31.884Z</time></trkpt><trkpt lat="44.2473532" lon="7.5318656"><ele>779.5</ele><time>2026-05-01T10:49:32.884Z</time></trkpt><trkpt lat="44.2472264" lon="7.531839"><ele>778.25</ele><time>2026-05-01T10:49:33.884Z</time></trkpt><trkpt lat="44.2470899" lon="7.5318563"><ele>777.0</ele><time>2026-05-01T10:49:34.884Z</time></trkpt><trkpt lat="44.2469519" lon="7.5318891"><ele>777.0</ele><time>2026-05-01T10:49:35.884Z</time></trkpt><trkpt lat="44.2468121" lon="7.5319398"><ele>777.0</ele><time>2026-05-01T10:49:36.884Z</time></trkpt><trkpt lat="44.2466659" lon="7.5320015"><ele>777.0</ele><time>2026-05-01T10:49:37.884Z</time></trkpt><trkpt lat="44.2465215" lon="7.5320611"><ele>777.0</ele><time>2026-05-01T10:49:38.884Z</time></trkpt><trkpt lat="44.2463734" lon="7.5321216"><ele>778.5</ele><time>2026-05-01T10:49:39.885Z</time></trkpt><trkpt lat="44.2462284" lon="7.5321739"><ele>780.0</ele><time>2026-05-01T10:49:40.884Z</time></trkpt><trkpt lat="44.2460848" lon="7.5322311"><ele>781.5</ele><time>2026-05-01T10:49:41.884Z</time></trkpt><trkpt lat="44.2459402" lon="7.5322817"><ele>783.0</ele><time>2026-05-01T10:49:42.884Z</time></trkpt><trkpt lat="44.2458038" lon="7.532342"><ele>783.0</ele><time>2026-05-01T10:49:43.884Z</time></trkpt><trkpt lat="44.2456664" lon="7.5324008"><ele>783.0</ele><time>2026-05-01T10:49:44.884Z</time></trkpt><trkpt lat="44.2455345" lon="7.5324567"><ele>783.0</ele><time>2026-05-01T10:49:45.884Z</time></trkpt><trkpt lat="44.2453941" lon="7.5325112"><ele>783.0</ele><time>2026-05-01T10:49:46.884Z</time></trkpt><trkpt lat="44.245261" lon="7.5325659"><ele>783.25</ele><time>2026-05-01T10:49:47.884Z</time></trkpt><trkpt lat="44.2451291" lon="7.5326187"><ele>783.5</ele><time>2026-05-01T10:49:48.884Z</time></trkpt><trkpt lat="44.2450015" lon="7.5326707"><ele>783.75</ele><time>2026-05-01T10:49:49.884Z</time></trkpt><trkpt lat="44.2448793" lon="7.5327301"><ele>784.0</ele><time>2026-05-01T10:49:50.884Z</time></trkpt><trkpt lat="44.2447511" lon="7.5327793"><ele>784.0</ele><time>2026-05-01T10:49:51.884Z</time></trkpt><trkpt lat="44.2446238" lon="7.5328388"><ele>784.0</ele><time>2026-05-01T10:49:52.884Z</time></trkpt><trkpt lat="44.2444993" lon="7.5328881"><ele>784.0</ele><time>2026-05-01T10:49:53.884Z</time></trkpt><trkpt lat="44.244365" lon="7.5329431"><ele>784.0</ele><time>2026-05-01T10:49:54.884Z</time></trkpt><trkpt lat="44.2442352" lon="7.5329965"><ele>784.5</ele><time>2026-05-01T10:49:55.885Z</time></trkpt><trkpt lat="44.244104" lon="7.5330567"><ele>785.0</ele><time>2026-05-01T10:49:56.884Z</time></trkpt><trkpt lat="44.2439822" lon="7.533122"><ele>785.5</ele><time>2026-05-01T10:49:57.884Z</time></trkpt><trkpt lat="44.2438635" lon="7.5332056"><ele>786.0</ele><time>2026-05-01T10:49:58.884Z</time></trkpt><trkpt lat="44.243745" lon="7.5332968"><ele>786.0</ele><time>2026-05-01T10:49:59.884Z</time></trkpt><trkpt lat="44.2436307" lon="7.5334093"><ele>786.0</ele><time>2026-05-01T10:50:00.884Z</time></trkpt><trkpt lat="44.2435286" lon="7.5335326"><ele>786.0</ele><time>2026-05-01T10:50:01.884Z</time></trkpt><trkpt lat="44.2434357" lon="7.5336707"><ele>786.0</ele><time>2026-05-01T10:50:02.884Z</time></trkpt><trkpt lat="44.2433447" lon="7.5338178"><ele>787.25</ele><time>2026-05-01T10:50:03.884Z</time></trkpt><trkpt lat="44.243261" lon="7.5339706"><ele>788.5</ele><time>2026-05-01T10:50:04.884Z</time></trkpt><trkpt lat="44.2431863" lon="7.5341279"><ele>789.75</ele><time>2026-05-01T10:50:05.884Z</time></trkpt><trkpt lat="44.243118" lon="7.5342827"><ele>791.0</ele><time>2026-05-01T10:50:06.884Z</time></trkpt><trkpt lat="44.2430513" lon="7.5344375"><ele>792.0</ele><time>2026-05-01T10:50:07.884Z</time></trkpt><trkpt lat="44.2429952" lon="7.5345763"><ele>793.0</ele><time>2026-05-01T10:50:08.884Z</time></trkpt><trkpt lat="44.242938" lon="7.5347031"><ele>794.0</ele><time>2026-05-01T10:50:09.884Z</time></trkpt><trkpt lat="44.2428902" lon="7.5348197"><ele>795.0</ele><time>2026-05-01T10:50:10.884Z</time></trkpt><trkpt lat="44.2428314" lon="7.5349655"><ele>796.0</ele><time>2026-05-01T10:50:11.884Z</time></trkpt><trkpt lat="44.2427672" lon="7.5351071"><ele>796.0</ele><time>2026-05-01T10:50:12.884Z</time></trkpt><trkpt lat="44.2427035" lon="7.5352506"><ele>796.0</ele><time>2026-05-01T10:50:13.884Z</time></trkpt><trkpt lat="44.242632" lon="7.5353903"><ele>796.0</ele><time>2026-05-01T10:50:14.885Z</time></trkpt><trkpt lat="44.2425574" lon="7.5355357"><ele>796.0</ele><time>2026-05-01T10:50:15.884Z</time></trkpt><trkpt lat="44.2424762" lon="7.5356648"><ele>796.25</ele><time>2026-05-01T10:50:16.884Z</time></trkpt><trkpt lat="44.2423925" lon="7.5357933"><ele>796.5</ele><time>2026-05-01T10:50:17.884Z</time></trkpt><trkpt lat="44.2423299" lon="7.5359363"><ele>796.75</ele><time>2026-05-01T10:50:18.884Z</time></trkpt><trkpt lat="44.2422404" lon="7.5360678"><ele>797.0</ele><time>2026-05-01T10:50:19.884Z</time></trkpt><trkpt lat="44.242153" lon="7.5361932"><ele>798.25</ele><time>2026-05-01T10:50:20.884Z</time></trkpt><trkpt lat="44.242059" lon="7.5363102"><ele>799.5</ele><time>2026-05-01T10:50:21.884Z</time></trkpt><trkpt lat="44.2419622" lon="7.5364284"><ele>800.75</ele><time>2026-05-01T10:50:22.884Z</time></trkpt><trkpt lat="44.2418786" lon="7.5365593"><ele>802.0</ele><time>2026-05-01T10:50:23.884Z</time></trkpt><trkpt lat="44.241772" lon="7.5366898"><ele>802.0</ele><time>2026-05-01T10:50:24.884Z</time></trkpt><trkpt lat="44.2416689" lon="7.5368273"><ele>802.0</ele><time>2026-05-01T10:50:25.885Z</time></trkpt><trkpt lat="44.2415657" lon="7.5369636"><ele>802.0</ele><time>2026-05-01T10:50:26.884Z</time></trkpt><trkpt lat="44.2414742" lon="7.5371183"><ele>802.0</ele><time>2026-05-01T10:50:27.884Z</time></trkpt><trkpt lat="44.2413825" lon="7.5372667"><ele>801.5</ele><time>2026-05-01T10:50:28.884Z</time></trkpt><trkpt lat="44.2412868" lon="7.5374196"><ele>801.0</ele><time>2026-05-01T10:50:29.884Z</time></trkpt><trkpt lat="44.2411993" lon="7.5375652"><ele>800.5</ele><time>2026-05-01T10:50:30.884Z</time></trkpt><trkpt lat="44.2411133" lon="7.5377108"><ele>800.0</ele><time>2026-05-01T10:50:31.884Z</time></trkpt><trkpt lat="44.2410268" lon="7.5378548"><ele>800.5</ele><time>2026-05-01T10:50:32.884Z</time></trkpt><trkpt lat="44.2409456" lon="7.5379997"><ele>801.0</ele><time>2026-05-01T10:50:33.884Z</time></trkpt><trkpt lat="44.240862" lon="7.5381447"><ele>801.5</ele><time>2026-05-01T10:50:34.884Z</time></trkpt><trkpt lat="44.2407728" lon="7.5382895"><ele>802.0</ele><time>2026-05-01T10:50:35.884Z</time></trkpt><trkpt lat="44.2406822" lon="7.5384407"><ele>802.5</ele><time>2026-05-01T10:50:36.884Z</time></trkpt><trkpt lat="44.2405966" lon="7.5385873"><ele>803.0</ele><time>2026-05-01T10:50:37.884Z</time></trkpt><trkpt lat="44.2405154" lon="7.53874"><ele>803.5</ele><time>2026-05-01T10:50:38.885Z</time></trkpt><trkpt lat="44.2404075" lon="7.5389105"><ele>804.0</ele><time>2026-05-01T10:50:39.884Z</time></trkpt><trkpt lat="44.2402874" lon="7.5390828"><ele>804.0</ele><time>2026-05-01T10:50:40.884Z</time></trkpt><trkpt lat="44.2401615" lon="7.539258"><ele>804.0</ele><time>2026-05-01T10:50:41.884Z</time></trkpt><trkpt lat="44.2400169" lon="7.5394413"><ele>804.0</ele><time>2026-05-01T10:50:42.884Z</time></trkpt><trkpt lat="44.23986" lon="7.5396168"><ele>805.0</ele><time>2026-05-01T10:50:43.884Z</time></trkpt><trkpt lat="44.2396942" lon="7.5397882"><ele>806.0</ele><time>2026-05-01T10:50:44.884Z</time></trkpt><trkpt lat="44.2395091" lon="7.5399637"><ele>807.0</ele><time>2026-05-01T10:50:45.884Z</time></trkpt><trkpt lat="44.2393194" lon="7.5401689"><ele>807.0</ele><time>2026-05-01T10:50:46.884Z</time></trkpt><trkpt lat="44.2391378" lon="7.5403741"><ele>807.0</ele><time>2026-05-01T10:50:47.884Z</time></trkpt><trkpt lat="44.2389629" lon="7.5405963"><ele>808.5</ele><time>2026-05-01T10:50:48.884Z</time></trkpt><trkpt lat="44.2387904" lon="7.540818"><ele>810.0</ele><time>2026-05-01T10:50:49.885Z</time></trkpt><trkpt lat="44.2386104" lon="7.5410446"><ele>816.5</ele><time>2026-05-01T10:50:50.884Z</time></trkpt><trkpt lat="44.2384469" lon="7.5412819"><ele>823.0</ele><time>2026-05-01T10:50:51.884Z</time></trkpt><trkpt lat="44.2382876" lon="7.541525"><ele>823.0</ele><time>2026-05-01T10:50:52.884Z</time></trkpt><trkpt lat="44.2381384" lon="7.5417776"><ele>823.0</ele><time>2026-05-01T10:50:53.884Z</time></trkpt><trkpt lat="44.2379958" lon="7.5420244"><ele>819.5</ele><time>2026-05-01T10:50:54.884Z</time></trkpt><trkpt lat="44.2378547" lon="7.5422783"><ele>816.0</ele><time>2026-05-01T10:50:55.884Z</time></trkpt><trkpt lat="44.2377171" lon="7.5425307"><ele>816.0</ele><time>2026-05-01T10:50:56.884Z</time></trkpt><trkpt lat="44.2376003" lon="7.5427984"><ele>816.0</ele><time>2026-05-01T10:50:57.884Z</time></trkpt><trkpt lat="44.2374918" lon="7.5430709"><ele>816.0</ele><time>2026-05-01T10:50:58.884Z</time></trkpt><trkpt lat="44.2373846" lon="7.5433405"><ele>816.5</ele><time>2026-05-01T10:50:59.884Z</time></trkpt><trkpt lat="44.2372844" lon="7.5436223"><ele>817.0</ele><time>2026-05-01T10:51:00.884Z</time></trkpt><trkpt lat="44.2371462" lon="7.5438787"><ele>817.0</ele><time>2026-05-01T10:51:01.884Z</time></trkpt><trkpt lat="44.2369921" lon="7.5440973"><ele>817.0</ele><time>2026-05-01T10:51:02.884Z</time></trkpt><trkpt lat="44.2368287" lon="7.5443243"><ele>817.0</ele><time>2026-05-01T10:51:03.884Z</time></trkpt><trkpt lat="44.2366724" lon="7.5445316"><ele>817.0</ele><time>2026-05-01T10:51:04.884Z</time></trkpt><trkpt lat="44.2365113" lon="7.5447426"><ele>817.0</ele><time>2026-05-01T10:51:05.884Z</time></trkpt><trkpt lat="44.2363571" lon="7.5449243"><ele>817.6666666666666</ele><time>2026-05-01T10:51:06.884Z</time></trkpt><trkpt lat="44.2362161" lon="7.545125"><ele>818.3333333333333</ele><time>2026-05-01T10:51:07.885Z</time></trkpt><trkpt lat="44.2360741" lon="7.5453197"><ele>819.0</ele><time>2026-05-01T10:51:08.884Z</time></trkpt><trkpt lat="44.2359385" lon="7.5455128"><ele>820.6666666666667</ele><time>2026-05-01T10:51:09.884Z</time></trkpt><trkpt lat="44.2358008" lon="7.5457007"><ele>822.3333333333334</ele><time>2026-05-01T10:51:10.884Z</time></trkpt><trkpt lat="44.2356679" lon="7.54589"><ele>824.0</ele><time>2026-05-01T10:51:11.884Z</time></trkpt><trkpt lat="44.235532" lon="7.5460624"><ele>824.6666666666667</ele><time>2026-05-01T10:51:12.884Z</time></trkpt><trkpt lat="44.235419" lon="7.5462387"><ele>825.3333333333333</ele><time>2026-05-01T10:51:13.884Z</time></trkpt><trkpt lat="44.2353017" lon="7.5464028"><ele>826.0</ele><time>2026-05-01T10:51:14.884Z</time></trkpt><trkpt lat="44.2351783" lon="7.546565"><ele>826.0</ele><time>2026-05-01T10:51:15.884Z</time></trkpt><trkpt lat="44.2350592" lon="7.5467237"><ele>826.0</ele><time>2026-05-01T10:51:16.884Z</time></trkpt><trkpt lat="44.2349279" lon="7.5468476"><ele>826.0</ele><time>2026-05-01T10:51:17.884Z</time></trkpt><trkpt lat="44.2347855" lon="7.5469714"><ele>827.3333333333333</ele><time>2026-05-01T10:51:18.884Z</time></trkpt><trkpt lat="44.2346515" lon="7.5470864"><ele>828.6666666666667</ele><time>2026-05-01T10:51:19.884Z</time></trkpt><trkpt lat="44.2345143" lon="7.5471697"><ele>830.0</ele><time>2026-05-01T10:51:20.884Z</time></trkpt><trkpt lat="44.234385" lon="7.5472627"><ele>830.0</ele><time>2026-05-01T10:51:21.884Z</time></trkpt><trkpt lat="44.2342603" lon="7.5473568"><ele>830.0</ele><time>2026-05-01T10:51:22.885Z</time></trkpt><trkpt lat="44.234134" lon="7.547452"><ele>830.0</ele><time>2026-05-01T10:51:23.884Z</time></trkpt><trkpt lat="44.2340108" lon="7.5475742"><ele>830.0</ele><time>2026-05-01T10:51:24.885Z</time></trkpt><trkpt lat="44.2338842" lon="7.5476928"><ele>831.0</ele><time>2026-05-01T10:51:25.884Z</time></trkpt><trkpt lat="44.2337664" lon="7.547845"><ele>832.0</ele><time>2026-05-01T10:51:26.884Z</time></trkpt><trkpt lat="44.2336591" lon="7.5479782"><ele>833.0</ele><time>2026-05-01T10:51:27.885Z</time></trkpt><trkpt lat="44.2335622" lon="7.5481489"><ele>834.0</ele><time>2026-05-01T10:51:28.884Z</time></trkpt><trkpt lat="44.2335497" lon="7.5483879"><ele>835.0</ele><time>2026-05-01T10:51:29.885Z</time></trkpt><trkpt lat="44.2335393" lon="7.5486263"><ele>836.0</ele><time>2026-05-01T10:51:30.884Z</time></trkpt><trkpt lat="44.2335341" lon="7.5488518"><ele>836.6666666666667</ele><time>2026-05-01T10:51:31.884Z</time></trkpt><trkpt lat="44.233537" lon="7.5490818"><ele>837.3333333333333</ele><time>2026-05-01T10:51:32.884Z</time></trkpt><trkpt lat="44.2335211" lon="7.5493023"><ele>838.0</ele><time>2026-05-01T10:51:33.885Z</time></trkpt><trkpt lat="44.2334922" lon="7.5495234"><ele>840.3333333333333</ele><time>2026-05-01T10:51:34.884Z</time></trkpt><trkpt lat="44.2334334" lon="7.549734"><ele>842.6666666666667</ele><time>2026-05-01T10:51:35.884Z</time></trkpt><trkpt lat="44.2333689" lon="7.5499357"><ele>845.0</ele><time>2026-05-01T10:51:36.884Z</time></trkpt><trkpt lat="44.2332974" lon="7.5501459"><ele>845.0</ele><time>2026-05-01T10:51:37.884Z</time></trkpt><trkpt lat="44.2332055" lon="7.5503315"><ele>845.0</ele><time>2026-05-01T10:51:38.884Z</time></trkpt><trkpt lat="44.2331218" lon="7.550541"><ele>845.0</ele><time>2026-05-01T10:51:39.884Z</time></trkpt><trkpt lat="44.2330563" lon="7.550749"><ele>843.6666666666667</ele><time>2026-05-01T10:51:40.884Z</time></trkpt><trkpt lat="44.2329709" lon="7.5509387"><ele>842.3333333333333</ele><time>2026-05-01T10:51:41.884Z</time></trkpt><trkpt lat="44.2328825" lon="7.5511269"><ele>841.0</ele><time>2026-05-01T10:51:42.884Z</time></trkpt><trkpt lat="44.2327914" lon="7.5512997"><ele>844.6666666666666</ele><time>2026-05-01T10:51:43.884Z</time></trkpt><trkpt lat="44.232686" lon="7.5514759"><ele>848.3333333333333</ele><time>2026-05-01T10:51:44.885Z</time></trkpt><trkpt lat="44.2325634" lon="7.5516354"><ele>852.0</ele><time>2026-05-01T10:51:45.884Z</time></trkpt><trkpt lat="44.2324667" lon="7.5517916"><ele>852.0</ele><time>2026-05-01T10:51:46.884Z</time></trkpt><trkpt lat="44.2323514" lon="7.5519351"><ele>852.0</ele><time>2026-05-01T10:51:47.884Z</time></trkpt><trkpt lat="44.2322568" lon="7.5520752"><ele>852.0</ele><time>2026-05-01T10:51:48.884Z</time></trkpt><trkpt lat="44.232148" lon="7.5522022"><ele>852.0</ele><time>2026-05-01T10:51:49.884Z</time></trkpt><trkpt lat="44.232052" lon="7.5523334"><ele>852.6666666666667</ele><time>2026-05-01T10:51:50.884Z</time></trkpt><trkpt lat="44.2319569" lon="7.5525241"><ele>853.3333333333334</ele><time>2026-05-01T10:51:51.884Z</time></trkpt><trkpt lat="44.2318697" lon="7.5527197"><ele>854.0</ele><time>2026-05-01T10:51:52.884Z</time></trkpt><trkpt lat="44.231805" lon="7.5529393"><ele>854.0</ele><time>2026-05-01T10:51:53.884Z</time></trkpt><trkpt lat="44.2317325" lon="7.5531409"><ele>854.0</ele><time>2026-05-01T10:51:54.884Z</time></trkpt><trkpt lat="44.2316799" lon="7.5533593"><ele>854.0</ele><time>2026-05-01T10:51:55.884Z</time></trkpt><trkpt lat="44.231638" lon="7.5535842"><ele>856.6666666666667</ele><time>2026-05-01T10:51:56.884Z</time></trkpt><trkpt lat="44.2316036" lon="7.5538104"><ele>859.3333333333333</ele><time>2026-05-01T10:51:57.884Z</time></trkpt><trkpt lat="44.2315744" lon="7.554029"><ele>862.0</ele><time>2026-05-01T10:51:58.884Z</time></trkpt><trkpt lat="44.2315249" lon="7.5542183"><ele>859.0</ele><time>2026-05-01T10:51:59.884Z</time></trkpt><trkpt lat="44.2314705" lon="7.5544303"><ele>856.0</ele><time>2026-05-01T10:52:00.884Z</time></trkpt><trkpt lat="44.2314018" lon="7.5546404"><ele>853.0</ele><time>2026-05-01T10:52:01.884Z</time></trkpt><trkpt lat="44.2312711" lon="7.5548182"><ele>853.0</ele><time>2026-05-01T10:52:02.884Z</time></trkpt><trkpt lat="44.2311846" lon="7.5550148"><ele>853.0</ele><time>2026-05-01T10:52:03.885Z</time></trkpt><trkpt lat="44.2310493" lon="7.5551872"><ele>853.0</ele><time>2026-05-01T10:52:04.884Z</time></trkpt><trkpt lat="44.2309267" lon="7.5553627"><ele>855.3333333333333</ele><time>2026-05-01T10:52:05.884Z</time></trkpt><trkpt lat="44.2307881" lon="7.5554973"><ele>857.6666666666667</ele><time>2026-05-01T10:52:06.884Z</time></trkpt><trkpt lat="44.2306408" lon="7.5556312"><ele>860.0</ele><time>2026-05-01T10:52:07.884Z</time></trkpt><trkpt lat="44.2304721" lon="7.5557296"><ele>860.0</ele><time>2026-05-01T10:52:08.884Z</time></trkpt><trkpt lat="44.2302989" lon="7.555817"><ele>860.0</ele><time>2026-05-01T10:52:09.884Z</time></trkpt><trkpt lat="44.2301317" lon="7.5559254"><ele>860.0</ele><time>2026-05-01T10:52:10.884Z</time></trkpt><trkpt lat="44.2299653" lon="7.5560199"><ele>859.6666666666667</ele><time>2026-05-01T10:52:11.884Z</time></trkpt><trkpt lat="44.2297995" lon="7.5561083"><ele>859.3333333333333</ele><time>2026-05-01T10:52:12.884Z</time></trkpt><trkpt lat="44.2296404" lon="7.5561985"><ele>859.0</ele><time>2026-05-01T10:52:13.884Z</time></trkpt><trkpt lat="44.2294837" lon="7.5562848"><ele>861.3333333333333</ele><time>2026-05-01T10:52:14.884Z</time></trkpt><trkpt lat="44.2293222" lon="7.5563844"><ele>863.6666666666667</ele><time>2026-05-01T10:52:15.884Z</time></trkpt><trkpt lat="44.2291748" lon="7.5565103"><ele>866.0</ele><time>2026-05-01T10:52:16.884Z</time></trkpt><trkpt lat="44.2290353" lon="7.5566519"><ele>866.3333333333334</ele><time>2026-05-01T10:52:17.884Z</time></trkpt><trkpt lat="44.2289329" lon="7.556839"><ele>866.6666666666667</ele><time>2026-05-01T10:52:18.885Z</time></trkpt><trkpt lat="44.2288177" lon="7.5570004"><ele>867.0</ele><time>2026-05-01T10:52:19.884Z</time></trkpt><trkpt lat="44.2287087" lon="7.5571646"><ele>867.0</ele><time>2026-05-01T10:52:20.884Z</time></trkpt><trkpt lat="44.2286022" lon="7.5573247"><ele>867.0</ele><time>2026-05-01T10:52:21.884Z</time></trkpt><trkpt lat="44.2285206" lon="7.5575044"><ele>867.0</ele><time>2026-05-01T10:52:22.884Z</time></trkpt><trkpt lat="44.2284437" lon="7.5576876"><ele>869.3333333333333</ele><time>2026-05-01T10:52:23.884Z</time></trkpt><trkpt lat="44.2284038" lon="7.557899"><ele>871.6666666666666</ele><time>2026-05-01T10:52:24.884Z</time></trkpt><trkpt lat="44.2283543" lon="7.5581155"><ele>874.0</ele><time>2026-05-01T10:52:25.884Z</time></trkpt><trkpt lat="44.2282974" lon="7.5583116"><ele>874.0</ele><time>2026-05-01T10:52:26.884Z</time></trkpt><trkpt lat="44.2282873" lon="7.5585451"><ele>874.0</ele><time>2026-05-01T10:52:27.884Z</time></trkpt><trkpt lat="44.228253" lon="7.5587333"><ele>874.0</ele><time>2026-05-01T10:52:28.884Z</time></trkpt><trkpt lat="44.2282762" lon="7.558967"><ele>874.6666666666666</ele><time>2026-05-01T10:52:29.885Z</time></trkpt><trkpt lat="44.228319" lon="7.5592183"><ele>875.3333333333333</ele><time>2026-05-01T10:52:30.884Z</time></trkpt><trkpt lat="44.2283851" lon="7.5595082"><ele>876.0</ele><time>2026-05-01T10:52:31.884Z</time></trkpt><trkpt lat="44.2284478" lon="7.559802"><ele>876.0</ele><time>2026-05-01T10:52:32.884Z</time></trkpt><trkpt lat="44.2285034" lon="7.560099"><ele>876.0</ele><time>2026-05-01T10:52:33.884Z</time></trkpt><trkpt lat="44.2285586" lon="7.5603857"><ele>876.0</ele><time>2026-05-01T10:52:34.884Z</time></trkpt><trkpt lat="44.2286183" lon="7.5606713"><ele>875.3333333333333</ele><time>2026-05-01T10:52:35.884Z</time></trkpt><trkpt lat="44.2286715" lon="7.5609099"><ele>874.6666666666666</ele><time>2026-05-01T10:52:36.884Z</time></trkpt><trkpt lat="44.228687" lon="7.5611307"><ele>874.0</ele><time>2026-05-01T10:52:37.884Z</time></trkpt><trkpt lat="44.2287064" lon="7.5613345"><ele>874.0</ele><time>2026-05-01T10:52:38.884Z</time></trkpt><trkpt lat="44.2287157" lon="7.5615198"><ele>874.0</ele><time>2026-05-01T10:52:39.884Z</time></trkpt><trkpt lat="44.2287109" lon="7.5617068"><ele>874.0</ele><time>2026-05-01T10:52:40.884Z</time></trkpt><trkpt lat="44.2287024" lon="7.5618913"><ele>874.0</ele><time>2026-05-01T10:52:41.884Z</time></trkpt><trkpt lat="44.2286351" lon="7.5620671"><ele>875.3333333333333</ele><time>2026-05-01T10:52:42.884Z</time></trkpt><trkpt lat="44.2285304" lon="7.5622011"><ele>876.6666666666667</ele><time>2026-05-01T10:52:43.884Z</time></trkpt><trkpt lat="44.2284149" lon="7.5623428"><ele>878.0</ele><time>2026-05-01T10:52:44.884Z</time></trkpt><trkpt lat="44.2282811" lon="7.562457"><ele>880.0</ele><time>2026-05-01T10:52:45.884Z</time></trkpt><trkpt lat="44.228141" lon="7.5625467"><ele>882.0</ele><time>2026-05-01T10:52:46.884Z</time></trkpt><trkpt lat="44.2279995" lon="7.5626267"><ele>884.0</ele><time>2026-05-01T10:52:47.885Z</time></trkpt><trkpt lat="44.227841" lon="7.5626342"><ele>884.0</ele><time>2026-05-01T10:52:48.884Z</time></trkpt><trkpt lat="44.227681" lon="7.5626144"><ele>884.0</ele><time>2026-05-01T10:52:49.884Z</time></trkpt><trkpt lat="44.2275197" lon="7.5625907"><ele>884.0</ele><time>2026-05-01T10:52:50.884Z</time></trkpt><trkpt lat="44.2273588" lon="7.5625611"><ele>885.0</ele><time>2026-05-01T10:52:51.884Z</time></trkpt><trkpt lat="44.2272024" lon="7.5625283"><ele>886.0</ele><time>2026-05-01T10:52:52.884Z</time></trkpt><trkpt lat="44.2270483" lon="7.5624936"><ele>887.0</ele><time>2026-05-01T10:52:53.884Z</time></trkpt><trkpt lat="44.2268975" lon="7.5624839"><ele>887.0</ele><time>2026-05-01T10:52:54.885Z</time></trkpt><trkpt lat="44.2267596" lon="7.5625017"><ele>887.0</ele><time>2026-05-01T10:52:55.884Z</time></trkpt><trkpt lat="44.2266166" lon="7.5625267"><ele>887.0</ele><time>2026-05-01T10:52:56.884Z</time></trkpt><trkpt lat="44.2264591" lon="7.5625745"><ele>887.0</ele><time>2026-05-01T10:52:57.884Z</time></trkpt><trkpt lat="44.2263064" lon="7.5626215"><ele>886.3333333333334</ele><time>2026-05-01T10:52:58.884Z</time></trkpt><trkpt lat="44.226153" lon="7.5627044"><ele>885.6666666666667</ele><time>2026-05-01T10:52:59.884Z</time></trkpt><trkpt lat="44.2260041" lon="7.5628211"><ele>885.0</ele><time>2026-05-01T10:53:00.884Z</time></trkpt><trkpt lat="44.2258528" lon="7.5629077"><ele>887.0</ele><time>2026-05-01T10:53:01.884Z</time></trkpt><trkpt lat="44.2256908" lon="7.5630283"><ele>889.0</ele><time>2026-05-01T10:53:02.884Z</time></trkpt><trkpt lat="44.2255324" lon="7.5632568"><ele>891.0</ele><time>2026-05-01T10:53:03.884Z</time></trkpt><trkpt lat="44.2253864" lon="7.563453"><ele>891.0</ele><time>2026-05-01T10:53:04.884Z</time></trkpt><trkpt lat="44.2252477" lon="7.5636563"><ele>891.0</ele><time>2026-05-01T10:53:05.884Z</time></trkpt><trkpt lat="44.2250953" lon="7.5638692"><ele>891.0</ele><time>2026-05-01T10:53:06.884Z</time></trkpt><trkpt lat="44.2249256" lon="7.5640521"><ele>892.6666666666667</ele><time>2026-05-01T10:53:07.884Z</time></trkpt><trkpt lat="44.2247646" lon="7.5640939"><ele>894.3333333333334</ele><time>2026-05-01T10:53:08.884Z</time></trkpt><trkpt lat="44.2245988" lon="7.564175"><ele>896.0</ele><time>2026-05-01T10:53:09.884Z</time></trkpt><trkpt lat="44.2244379" lon="7.564239"><ele>896.0</ele><time>2026-05-01T10:53:10.884Z</time></trkpt><trkpt lat="44.2242821" lon="7.564287"><ele>896.0</ele><time>2026-05-01T10:53:11.884Z</time></trkpt><trkpt lat="44.224115" lon="7.5643429"><ele>896.0</ele><time>2026-05-01T10:53:12.884Z</time></trkpt><trkpt lat="44.2239618" lon="7.5643785"><ele>896.3333333333334</ele><time>2026-05-01T10:53:13.884Z</time></trkpt><trkpt lat="44.2238204" lon="7.5644388"><ele>896.6666666666667</ele><time>2026-05-01T10:53:14.884Z</time></trkpt><trkpt lat="44.2236844" lon="7.5645211"><ele>897.0</ele><time>2026-05-01T10:53:15.884Z</time></trkpt><trkpt lat="44.2235331" lon="7.5646021"><ele>897.0</ele><time>2026-05-01T10:53:16.884Z</time></trkpt><trkpt lat="44.2233945" lon="7.5647054"><ele>897.0</ele><time>2026-05-01T10:53:17.884Z</time></trkpt><trkpt lat="44.2232494" lon="7.5648405"><ele>897.0</ele><time>2026-05-01T10:53:18.884Z</time></trkpt><trkpt lat="44.2231257" lon="7.5650016"><ele>897.0</ele><time>2026-05-01T10:53:19.884Z</time></trkpt><trkpt lat="44.2230047" lon="7.5652086"><ele>897.0</ele><time>2026-05-01T10:53:20.884Z</time></trkpt><trkpt lat="44.2228953" lon="7.5654267"><ele>897.0</ele><time>2026-05-01T10:53:21.884Z</time></trkpt><trkpt lat="44.2228052" lon="7.5657207"><ele>897.6666666666667</ele><time>2026-05-01T10:53:22.884Z</time></trkpt><trkpt lat="44.222697" lon="7.5659687"><ele>898.3333333333334</ele><time>2026-05-01T10:53:23.884Z</time></trkpt><trkpt lat="44.2225995" lon="7.5662099"><ele>899.0</ele><time>2026-05-01T10:53:24.884Z</time></trkpt><trkpt lat="44.2224981" lon="7.5664581"><ele>900.6666666666667</ele><time>2026-05-01T10:53:25.884Z</time></trkpt><trkpt lat="44.2223936" lon="7.5666816"><ele>902.3333333333333</ele><time>2026-05-01T10:53:26.884Z</time></trkpt><trkpt lat="44.2222848" lon="7.5669064"><ele>904.0</ele><time>2026-05-01T10:53:27.884Z</time></trkpt><trkpt lat="44.2221488" lon="7.5671273"><ele>905.0</ele><time>2026-05-01T10:53:28.884Z</time></trkpt><trkpt lat="44.2220017" lon="7.5673503"><ele>906.0</ele><time>2026-05-01T10:53:29.884Z</time></trkpt><trkpt lat="44.2218486" lon="7.5675673"><ele>907.0</ele><time>2026-05-01T10:53:30.884Z</time></trkpt><trkpt lat="44.2216632" lon="7.567765"><ele>911.0</ele><time>2026-05-01T10:53:31.885Z</time></trkpt><trkpt lat="44.2214637" lon="7.56796"><ele>915.0</ele><time>2026-05-01T10:53:32.884Z</time></trkpt><trkpt lat="44.221258" lon="7.5681435"><ele>915.0</ele><time>2026-05-01T10:53:33.884Z</time></trkpt><trkpt lat="44.2210311" lon="7.5682941"><ele>915.0</ele><time>2026-05-01T10:53:34.884Z</time></trkpt><trkpt lat="44.2207723" lon="7.5684295"><ele>914.5</ele><time>2026-05-01T10:53:35.884Z</time></trkpt><trkpt lat="44.2205327" lon="7.5685468"><ele>914.0</ele><time>2026-05-01T10:53:36.884Z</time></trkpt><trkpt lat="44.2202988" lon="7.5686555"><ele>925.0</ele><time>2026-05-01T10:53:37.884Z</time></trkpt><trkpt lat="44.2200661" lon="7.5687701"><ele>936.0</ele><time>2026-05-01T10:53:38.884Z</time></trkpt><trkpt lat="44.2198239" lon="7.5688821"><ele>928.5</ele><time>2026-05-01T10:53:39.884Z</time></trkpt><trkpt lat="44.2195833" lon="7.5690112"><ele>921.0</ele><time>2026-05-01T10:53:40.884Z</time></trkpt><trkpt lat="44.2193563" lon="7.5691244"><ele>921.0</ele><time>2026-05-01T10:53:41.884Z</time></trkpt><trkpt lat="44.2191204" lon="7.5692366"><ele>921.0</ele><time>2026-05-01T10:53:42.884Z</time></trkpt><trkpt lat="44.2188935" lon="7.5693438"><ele>921.5</ele><time>2026-05-01T10:53:43.884Z</time></trkpt><trkpt lat="44.2186644" lon="7.5694537"><ele>922.0</ele><time>2026-05-01T10:53:44.884Z</time></trkpt><trkpt lat="44.2184228" lon="7.5695625"><ele>923.5</ele><time>2026-05-01T10:53:45.884Z</time></trkpt><trkpt lat="44.218205" lon="7.5696859"><ele>925.0</ele><time>2026-05-01T10:53:46.884Z</time></trkpt><trkpt lat="44.2179759" lon="7.5698042"><ele>925.0</ele><time>2026-05-01T10:53:47.884Z</time></trkpt><trkpt lat="44.2177553" lon="7.569926"><ele>925.0</ele><time>2026-05-01T10:53:48.884Z</time></trkpt><trkpt lat="44.2175401" lon="7.5700425"><ele>924.5</ele><time>2026-05-01T10:53:49.884Z</time></trkpt><trkpt lat="44.2173165" lon="7.5701741"><ele>924.0</ele><time>2026-05-01T10:53:50.884Z</time></trkpt><trkpt lat="44.2170977" lon="7.5703211"><ele>931.0</ele><time>2026-05-01T10:53:51.884Z</time></trkpt><trkpt lat="44.2168762" lon="7.5704747"><ele>938.0</ele><time>2026-05-01T10:53:52.884Z</time></trkpt><trkpt lat="44.2166537" lon="7.5706241"><ele>934.0</ele><time>2026-05-01T10:53:53.884Z</time></trkpt><trkpt lat="44.2164403" lon="7.5707858"><ele>930.0</ele><time>2026-05-01T10:53:54.884Z</time></trkpt><trkpt lat="44.2162228" lon="7.5709608"><ele>930.0</ele><time>2026-05-01T10:53:55.884Z</time></trkpt><trkpt lat="44.2160077" lon="7.5711243"><ele>930.0</ele><time>2026-05-01T10:53:56.884Z</time></trkpt><trkpt lat="44.2157912" lon="7.5712899"><ele>934.5</ele><time>2026-05-01T10:53:57.884Z</time></trkpt><trkpt lat="44.2155804" lon="7.5714554"><ele>939.0</ele><time>2026-05-01T10:53:58.884Z</time></trkpt><trkpt lat="44.2153522" lon="7.571544"><ele>939.0</ele><time>2026-05-01T10:53:59.884Z</time></trkpt><trkpt lat="44.2151203" lon="7.5716161"><ele>939.0</ele><time>2026-05-01T10:54:00.885Z</time></trkpt><trkpt lat="44.2148874" lon="7.5716676"><ele>938.6666666666667</ele><time>2026-05-01T10:54:01.884Z</time></trkpt><trkpt lat="44.2146637" lon="7.5717078"><ele>938.3333333333334</ele><time>2026-05-01T10:54:02.885Z</time></trkpt><trkpt lat="44.2144431" lon="7.5717545"><ele>938.0</ele><time>2026-05-01T10:54:03.884Z</time></trkpt><trkpt lat="44.2142247" lon="7.5718048"><ele>938.0</ele><time>2026-05-01T10:54:04.884Z</time></trkpt><trkpt lat="44.2140053" lon="7.571859"><ele>938.0</ele><time>2026-05-01T10:54:05.884Z</time></trkpt><trkpt lat="44.2138045" lon="7.5719635"><ele>938.0</ele><time>2026-05-01T10:54:06.884Z</time></trkpt><trkpt lat="44.2135904" lon="7.5721005"><ele>942.6666666666667</ele><time>2026-05-01T10:54:07.884Z</time></trkpt><trkpt lat="44.2133879" lon="7.5722288"><ele>947.3333333333333</ele><time>2026-05-01T10:54:08.884Z</time></trkpt><trkpt lat="44.2131842" lon="7.5723492"><ele>952.0</ele><time>2026-05-01T10:54:09.884Z</time></trkpt><trkpt lat="44.2129958" lon="7.5724507"><ele>954.0</ele><time>2026-05-01T10:54:10.884Z</time></trkpt><trkpt lat="44.2128032" lon="7.5725123"><ele>956.0</ele><time>2026-05-01T10:54:11.884Z</time></trkpt><trkpt lat="44.2126186" lon="7.5725456"><ele>958.0</ele><time>2026-05-01T10:54:12.884Z</time></trkpt><trkpt lat="44.2124299" lon="7.5725412"><ele>959.6666666666666</ele><time>2026-05-01T10:54:13.884Z</time></trkpt><trkpt lat="44.2122508" lon="7.5724827"><ele>961.3333333333333</ele><time>2026-05-01T10:54:14.884Z</time></trkpt><trkpt lat="44.2120935" lon="7.572393"><ele>963.0</ele><time>2026-05-01T10:54:15.884Z</time></trkpt><trkpt lat="44.2119261" lon="7.5722847"><ele>963.0</ele><time>2026-05-01T10:54:16.884Z</time></trkpt><trkpt lat="44.211725" lon="7.572124"><ele>963.0</ele><time>2026-05-01T10:54:17.884Z</time></trkpt><trkpt lat="44.2115479" lon="7.5720469"><ele>963.0</ele><time>2026-05-01T10:54:18.884Z</time></trkpt><trkpt lat="44.211362" lon="7.5719896"><ele>965.3333333333333</ele><time>2026-05-01T10:54:19.884Z</time></trkpt><trkpt lat="44.2111715" lon="7.5719382"><ele>967.6666666666666</ele><time>2026-05-01T10:54:20.884Z</time></trkpt><trkpt lat="44.2109505" lon="7.5719834"><ele>970.0</ele><time>2026-05-01T10:54:21.884Z</time></trkpt><trkpt lat="44.2107404" lon="7.5720555"><ele>967.0</ele><time>2026-05-01T10:54:22.884Z</time></trkpt><trkpt lat="44.2105359" lon="7.5720996"><ele>964.0</ele><time>2026-05-01T10:54:23.884Z</time></trkpt><trkpt lat="44.2103214" lon="7.5721484"><ele>961.0</ele><time>2026-05-01T10:54:24.884Z</time></trkpt><trkpt lat="44.2101262" lon="7.572221"><ele>961.0</ele><time>2026-05-01T10:54:25.884Z</time></trkpt><trkpt lat="44.2099371" lon="7.5723305"><ele>961.0</ele><time>2026-05-01T10:54:26.884Z</time></trkpt><trkpt lat="44.2097473" lon="7.5724665"><ele>961.0</ele><time>2026-05-01T10:54:27.884Z</time></trkpt><trkpt lat="44.2095666" lon="7.5726497"><ele>958.0</ele><time>2026-05-01T10:54:28.884Z</time></trkpt><trkpt lat="44.2093969" lon="7.5728544"><ele>955.0</ele><time>2026-05-01T10:54:29.884Z</time></trkpt><trkpt lat="44.2092272" lon="7.573063"><ele>957.0</ele><time>2026-05-01T10:54:30.884Z</time></trkpt><trkpt lat="44.2090731" lon="7.5732873"><ele>959.0</ele><time>2026-05-01T10:54:31.884Z</time></trkpt><trkpt lat="44.2089254" lon="7.5734942"><ele>961.0</ele><time>2026-05-01T10:54:32.884Z</time></trkpt><trkpt lat="44.2087814" lon="7.5736803"><ele>965.3333333333333</ele><time>2026-05-01T10:54:33.884Z</time></trkpt><trkpt lat="44.2086494" lon="7.5738529"><ele>969.6666666666667</ele><time>2026-05-01T10:54:34.884Z</time></trkpt><trkpt lat="44.2085056" lon="7.5740066"><ele>974.0</ele><time>2026-05-01T10:54:35.884Z</time></trkpt><trkpt lat="44.2083469" lon="7.5741224"><ele>974.0</ele><time>2026-05-01T10:54:36.884Z</time></trkpt><trkpt lat="44.20818" lon="7.5742359"><ele>974.0</ele><time>2026-05-01T10:54:37.884Z</time></trkpt><trkpt lat="44.2080088" lon="7.5742825"><ele>974.0</ele><time>2026-05-01T10:54:38.885Z</time></trkpt><trkpt lat="44.2078086" lon="7.5742764"><ele>972.3333333333334</ele><time>2026-05-01T10:54:39.884Z</time></trkpt><trkpt lat="44.2076195" lon="7.5742791"><ele>970.6666666666667</ele><time>2026-05-01T10:54:40.884Z</time></trkpt><trkpt lat="44.2074092" lon="7.5742721"><ele>969.0</ele><time>2026-05-01T10:54:41.884Z</time></trkpt><trkpt lat="44.2072128" lon="7.5742848"><ele>967.6666666666667</ele><time>2026-05-01T10:54:42.884Z</time></trkpt><trkpt lat="44.2070116" lon="7.5742853"><ele>966.3333333333334</ele><time>2026-05-01T10:54:43.884Z</time></trkpt><trkpt lat="44.2068233" lon="7.5743234"><ele>965.0</ele><time>2026-05-01T10:54:44.884Z</time></trkpt><trkpt lat="44.2066393" lon="7.5743759"><ele>967.3333333333334</ele><time>2026-05-01T10:54:45.884Z</time></trkpt><trkpt lat="44.2064523" lon="7.574446"><ele>969.6666666666667</ele><time>2026-05-01T10:54:46.885Z</time></trkpt><trkpt lat="44.2062772" lon="7.5745272"><ele>972.0</ele><time>2026-05-01T10:54:47.884Z</time></trkpt><trkpt lat="44.2061405" lon="7.5746009"><ele>973.0</ele><time>2026-05-01T10:54:48.884Z</time></trkpt><trkpt lat="44.2059925" lon="7.574688"><ele>974.0</ele><time>2026-05-01T10:54:49.884Z</time></trkpt><trkpt lat="44.2058669" lon="7.5747678"><ele>975.0</ele><time>2026-05-01T10:54:50.884Z</time></trkpt><trkpt lat="44.2057409" lon="7.5748291"><ele>976.0</ele><time>2026-05-01T10:54:51.884Z</time></trkpt><trkpt lat="44.2056271" lon="7.5748779"><ele>976.5</ele><time>2026-05-01T10:54:52.884Z</time></trkpt><trkpt lat="44.2055189" lon="7.574947"><ele>977.0</ele><time>2026-05-01T10:54:53.884Z</time></trkpt><trkpt lat="44.2053998" lon="7.5749689"><ele>977.5</ele><time>2026-05-01T10:54:54.884Z</time></trkpt><trkpt lat="44.2052828" lon="7.5749904"><ele>978.0</ele><time>2026-05-01T10:54:55.884Z</time></trkpt><trkpt lat="44.2051574" lon="7.5749655"><ele>978.0</ele><time>2026-05-01T10:54:56.884Z</time></trkpt><trkpt lat="44.2050305" lon="7.5749175"><ele>978.0</ele><time>2026-05-01T10:54:57.884Z</time></trkpt><trkpt lat="44.2049105" lon="7.5748564"><ele>978.0</ele><time>2026-05-01T10:54:58.884Z</time></trkpt><trkpt lat="44.2047829" lon="7.5747717"><ele>978.0</ele><time>2026-05-01T10:54:59.885Z</time></trkpt><trkpt lat="44.204651" lon="7.5746753"><ele>979.0</ele><time>2026-05-01T10:55:00.884Z</time></trkpt><trkpt lat="44.2045163" lon="7.5745764"><ele>980.0</ele><time>2026-05-01T10:55:01.884Z</time></trkpt><trkpt lat="44.2043813" lon="7.5744571"><ele>981.0</ele><time>2026-05-01T10:55:02.884Z</time></trkpt><trkpt lat="44.2042435" lon="7.5743422"><ele>981.3333333333333</ele><time>2026-05-01T10:55:03.884Z</time></trkpt><trkpt lat="44.2041006" lon="7.5742289"><ele>981.6666666666666</ele><time>2026-05-01T10:55:04.884Z</time></trkpt><trkpt lat="44.2039624" lon="7.5741124"><ele>982.0</ele><time>2026-05-01T10:55:05.884Z</time></trkpt><trkpt lat="44.2038278" lon="7.5740042"><ele>982.0</ele><time>2026-05-01T10:55:06.885Z</time></trkpt><trkpt lat="44.2036889" lon="7.5738968"><ele>982.0</ele><time>2026-05-01T10:55:07.884Z</time></trkpt><trkpt lat="44.2035581" lon="7.5738114"><ele>982.0</ele><time>2026-05-01T10:55:08.884Z</time></trkpt><trkpt lat="44.203432" lon="7.5737628"><ele>982.0</ele><time>2026-05-01T10:55:09.884Z</time></trkpt><trkpt lat="44.2032889" lon="7.5737414"><ele>986.3333333333333</ele><time>2026-05-01T10:55:10.884Z</time></trkpt><trkpt lat="44.2031337" lon="7.5738224"><ele>990.6666666666667</ele><time>2026-05-01T10:55:11.884Z</time></trkpt><trkpt lat="44.2029782" lon="7.5739294"><ele>995.0</ele><time>2026-05-01T10:55:12.884Z</time></trkpt><trkpt lat="44.2028397" lon="7.5740134"><ele>995.0</ele><time>2026-05-01T10:55:13.884Z</time></trkpt><trkpt lat="44.2027133" lon="7.5740869"><ele>995.0</ele><time>2026-05-01T10:55:14.884Z</time></trkpt><trkpt lat="44.2025884" lon="7.5741634"><ele>995.0</ele><time>2026-05-01T10:55:15.884Z</time></trkpt><trkpt lat="44.2024643" lon="7.5742321"><ele>995.0</ele><time>2026-05-01T10:55:16.884Z</time></trkpt><trkpt lat="44.2023422" lon="7.5743006"><ele>998.25</ele><time>2026-05-01T10:55:17.884Z</time></trkpt><trkpt lat="44.2022027" lon="7.5743667"><ele>1001.5</ele><time>2026-05-01T10:55:18.884Z</time></trkpt><trkpt lat="44.2020627" lon="7.5744002"><ele>1004.75</ele><time>2026-05-01T10:55:19.884Z</time></trkpt><trkpt lat="44.201908" lon="7.5744298"><ele>1008.0</ele><time>2026-05-01T10:55:20.885Z</time></trkpt><trkpt lat="44.2017526" lon="7.5744597"><ele>1008.0</ele><time>2026-05-01T10:55:21.884Z</time></trkpt><trkpt lat="44.2015937" lon="7.5744817"><ele>1008.0</ele><time>2026-05-01T10:55:22.884Z</time></trkpt><trkpt lat="44.201429" lon="7.574506"><ele>1008.0</ele><time>2026-05-01T10:55:23.884Z</time></trkpt><trkpt lat="44.2012664" lon="7.5745338"><ele>1005.0</ele><time>2026-05-01T10:55:24.884Z</time></trkpt><trkpt lat="44.2011047" lon="7.5745427"><ele>1002.0</ele><time>2026-05-01T10:55:25.884Z</time></trkpt><trkpt lat="44.2009482" lon="7.5745644"><ele>999.0</ele><time>2026-05-01T10:55:26.885Z</time></trkpt><trkpt lat="44.2008063" lon="7.574567"><ele>1000.75</ele><time>2026-05-01T10:55:27.884Z</time></trkpt><trkpt lat="44.2006627" lon="7.5745896"><ele>1002.5</ele><time>2026-05-01T10:55:28.884Z</time></trkpt><trkpt lat="44.2005086" lon="7.5746207"><ele>1004.25</ele><time>2026-05-01T10:55:29.885Z</time></trkpt><trkpt lat="44.2003706" lon="7.5746701"><ele>1006.0</ele><time>2026-05-01T10:55:30.884Z</time></trkpt><trkpt lat="44.2002504" lon="7.5747237"><ele>1006.0</ele><time>2026-05-01T10:55:31.884Z</time></trkpt><trkpt lat="44.2001299" lon="7.5748001"><ele>1006.0</ele><time>2026-05-01T10:55:32.885Z</time></trkpt><trkpt lat="44.2000067" lon="7.5748851"><ele>1006.0</ele><time>2026-05-01T10:55:33.885Z</time></trkpt><trkpt lat="44.1998864" lon="7.5749689"><ele>1006.0</ele><time>2026-05-01T10:55:34.884Z</time></trkpt><trkpt lat="44.1997689" lon="7.5750466"><ele>1008.0</ele><time>2026-05-01T10:55:35.884Z</time></trkpt><trkpt lat="44.1996398" lon="7.5751062"><ele>1010.0</ele><time>2026-05-01T10:55:36.884Z</time></trkpt><trkpt lat="44.1995095" lon="7.5751421"><ele>1012.0</ele><time>2026-05-01T10:55:37.884Z</time></trkpt><trkpt lat="44.1993739" lon="7.5751657"><ele>1014.0</ele><time>2026-05-01T10:55:38.884Z</time></trkpt><trkpt lat="44.1992323" lon="7.5751767"><ele>1014.0</ele><time>2026-05-01T10:55:39.885Z</time></trkpt><trkpt lat="44.1990779" lon="7.5751686"><ele>1014.0</ele><time>2026-05-01T10:55:40.884Z</time></trkpt><trkpt lat="44.1989282" lon="7.5751666"><ele>1014.0</ele><time>2026-05-01T10:55:41.884Z</time></trkpt><trkpt lat="44.1987768" lon="7.5751488"><ele>1014.75</ele><time>2026-05-01T10:55:42.885Z</time></trkpt><trkpt lat="44.1986227" lon="7.5751178"><ele>1015.5</ele><time>2026-05-01T10:55:43.884Z</time></trkpt><trkpt lat="44.1984783" lon="7.5750998"><ele>1016.25</ele><time>2026-05-01T10:55:44.884Z</time></trkpt><trkpt lat="44.198344" lon="7.5750735"><ele>1017.0</ele><time>2026-05-01T10:55:45.884Z</time></trkpt><trkpt lat="44.1982107" lon="7.5750573"><ele>1017.75</ele><time>2026-05-01T10:55:46.884Z</time></trkpt><trkpt lat="44.198067" lon="7.575025"><ele>1018.5</ele><time>2026-05-01T10:55:47.884Z</time></trkpt><trkpt lat="44.1979315" lon="7.5749927"><ele>1019.25</ele><time>2026-05-01T10:55:48.884Z</time></trkpt><trkpt lat="44.1977765" lon="7.5749782"><ele>1020.0</ele><time>2026-05-01T10:55:49.884Z</time></trkpt><trkpt lat="44.1976277" lon="7.5749542"><ele>1020.0</ele><time>2026-05-01T10:55:50.884Z</time></trkpt><trkpt lat="44.1974647" lon="7.5749259"><ele>1020.0</ele><time>2026-05-01T10:55:51.884Z</time></trkpt><trkpt lat="44.1972998" lon="7.5749007"><ele>1020.0</ele><time>2026-05-01T10:55:52.884Z</time></trkpt><trkpt lat="44.1971229" lon="7.5748783"><ele>1021.3333333333333</ele><time>2026-05-01T10:55:53.884Z</time></trkpt><trkpt lat="44.1969675" lon="7.5748593"><ele>1022.6666666666666</ele><time>2026-05-01T10:55:54.884Z</time></trkpt><trkpt lat="44.1968021" lon="7.5748332"><ele>1024.0</ele><time>2026-05-01T10:55:55.884Z</time></trkpt><trkpt lat="44.1966396" lon="7.5748182"><ele>1024.0</ele><time>2026-05-01T10:55:56.884Z</time></trkpt><trkpt lat="44.1964641" lon="7.5748038"><ele>1024.0</ele><time>2026-05-01T10:55:57.884Z</time></trkpt><trkpt lat="44.196325" lon="7.5747806"><ele>1024.0</ele><time>2026-05-01T10:55:58.884Z</time></trkpt><trkpt lat="44.1961801" lon="7.5747679"><ele>1024.0</ele><time>2026-05-01T10:55:59.884Z</time></trkpt><trkpt lat="44.196049" lon="7.5747404"><ele>1024.0</ele><time>2026-05-01T10:56:00.884Z</time></trkpt><trkpt lat="44.1959141" lon="7.5747134"><ele>1024.0</ele><time>2026-05-01T10:56:01.884Z</time></trkpt><trkpt lat="44.1957819" lon="7.5746894"><ele>1024.0</ele><time>2026-05-01T10:56:02.885Z</time></trkpt><trkpt lat="44.1956556" lon="7.5746417"><ele>1024.5</ele><time>2026-05-01T10:56:03.884Z</time></trkpt><trkpt lat="44.1955359" lon="7.574594"><ele>1025.0</ele><time>2026-05-01T10:56:04.884Z</time></trkpt><trkpt lat="44.1954098" lon="7.5745525"><ele>1025.5</ele><time>2026-05-01T10:56:05.884Z</time></trkpt><trkpt lat="44.1952918" lon="7.5744644"><ele>1026.0</ele><time>2026-05-01T10:56:06.884Z</time></trkpt><trkpt lat="44.1952136" lon="7.5743367"><ele>1026.0</ele><time>2026-05-01T10:56:07.884Z</time></trkpt><trkpt lat="44.1951466" lon="7.5742"><ele>1026.0</ele><time>2026-05-01T10:56:08.884Z</time></trkpt><trkpt lat="44.1950562" lon="7.574005"><ele>1026.0</ele><time>2026-05-01T10:56:09.884Z</time></trkpt><trkpt lat="44.1949731" lon="7.5738311"><ele>1026.0</ele><time>2026-05-01T10:56:10.884Z</time></trkpt><trkpt lat="44.194889" lon="7.5736437"><ele>1028.3333333333333</ele><time>2026-05-01T10:56:11.884Z</time></trkpt><trkpt lat="44.1947993" lon="7.5734561"><ele>1030.6666666666665</ele><time>2026-05-01T10:56:12.885Z</time></trkpt><trkpt lat="44.194714" lon="7.5732751"><ele>1033.0</ele><time>2026-05-01T10:56:13.884Z</time></trkpt><trkpt lat="44.1946274" lon="7.5730824"><ele>1033.0</ele><time>2026-05-01T10:56:14.884Z</time></trkpt><trkpt lat="44.1945349" lon="7.5729095"><ele>1033.0</ele><time>2026-05-01T10:56:15.884Z</time></trkpt><trkpt lat="44.1944442" lon="7.572737"><ele>1033.0</ele><time>2026-05-01T10:56:16.884Z</time></trkpt><trkpt lat="44.1943209" lon="7.5726038"><ele>1033.6666666666665</ele><time>2026-05-01T10:56:17.884Z</time></trkpt><trkpt lat="44.1942099" lon="7.5724623"><ele>1034.3333333333333</ele><time>2026-05-01T10:56:18.884Z</time></trkpt><trkpt lat="44.1940895" lon="7.5723324"><ele>1035.0</ele><time>2026-05-01T10:56:19.884Z</time></trkpt><trkpt lat="44.1939646" lon="7.5721905"><ele>1035.0</ele><time>2026-05-01T10:56:20.884Z</time></trkpt><trkpt lat="44.193818" lon="7.5720753"><ele>1035.0</ele><time>2026-05-01T10:56:21.884Z</time></trkpt><trkpt lat="44.1936735" lon="7.5719541"><ele>1035.0</ele><time>2026-05-01T10:56:22.884Z</time></trkpt><trkpt lat="44.1935439" lon="7.5718306"><ele>1035.75</ele><time>2026-05-01T10:56:23.884Z</time></trkpt><trkpt lat="44.1934237" lon="7.5717062"><ele>1036.5</ele><time>2026-05-01T10:56:24.884Z</time></trkpt><trkpt lat="44.1933369" lon="7.5715883"><ele>1037.25</ele><time>2026-05-01T10:56:25.885Z</time></trkpt><trkpt lat="44.1932218" lon="7.571475"><ele>1038.0</ele><time>2026-05-01T10:56:26.884Z</time></trkpt><trkpt lat="44.1931094" lon="7.5713586"><ele>1038.0</ele><time>2026-05-01T10:56:27.884Z</time></trkpt><trkpt lat="44.1930025" lon="7.5712461"><ele>1038.0</ele><time>2026-05-01T10:56:28.884Z</time></trkpt><trkpt lat="44.1928805" lon="7.5711431"><ele>1038.0</ele><time>2026-05-01T10:56:29.884Z</time></trkpt><trkpt lat="44.1927762" lon="7.5710346"><ele>1038.0</ele><time>2026-05-01T10:56:30.884Z</time></trkpt><trkpt lat="44.1926846" lon="7.5709514"><ele>1038.5</ele><time>2026-05-01T10:56:31.884Z</time></trkpt><trkpt lat="44.1925763" lon="7.5708269"><ele>1039.0</ele><time>2026-05-01T10:56:32.884Z</time></trkpt><trkpt lat="44.1924692" lon="7.5707242"><ele>1039.5</ele><time>2026-05-01T10:56:33.885Z</time></trkpt><trkpt lat="44.1923701" lon="7.5706221"><ele>1040.0</ele><time>2026-05-01T10:56:34.884Z</time></trkpt><trkpt lat="44.1922752" lon="7.570521"><ele>1041.0</ele><time>2026-05-01T10:56:35.884Z</time></trkpt><trkpt lat="44.1921798" lon="7.5704272"><ele>1042.0</ele><time>2026-05-01T10:56:36.884Z</time></trkpt><trkpt lat="44.1920782" lon="7.5703226"><ele>1043.0</ele><time>2026-05-01T10:56:37.884Z</time></trkpt><trkpt lat="44.1919757" lon="7.5702179"><ele>1044.0</ele><time>2026-05-01T10:56:38.884Z</time></trkpt><trkpt lat="44.1918822" lon="7.5701023"><ele>1044.75</ele><time>2026-05-01T10:56:39.884Z</time></trkpt><trkpt lat="44.1917725" lon="7.5699893"><ele>1045.5</ele><time>2026-05-01T10:56:40.884Z</time></trkpt><trkpt lat="44.1916748" lon="7.5698664"><ele>1046.25</ele><time>2026-05-01T10:56:41.885Z</time></trkpt><trkpt lat="44.1915803" lon="7.5697433"><ele>1047.0</ele><time>2026-05-01T10:56:42.884Z</time></trkpt><trkpt lat="44.1914936" lon="7.5696228"><ele>1048.25</ele><time>2026-05-01T10:56:43.884Z</time></trkpt><trkpt lat="44.1914071" lon="7.5694986"><ele>1049.5</ele><time>2026-05-01T10:56:44.884Z</time></trkpt><trkpt lat="44.1913142" lon="7.5693889"><ele>1050.75</ele><time>2026-05-01T10:56:45.884Z</time></trkpt><trkpt lat="44.191205" lon="7.5692834"><ele>1052.0</ele><time>2026-05-01T10:56:46.884Z</time></trkpt><trkpt lat="44.1911024" lon="7.5691856"><ele>1052.0</ele><time>2026-05-01T10:56:47.884Z</time></trkpt><trkpt lat="44.1910078" lon="7.5690965"><ele>1052.0</ele><time>2026-05-01T10:56:48.884Z</time></trkpt><trkpt lat="44.1909245" lon="7.5690154"><ele>1052.0</ele><time>2026-05-01T10:56:49.884Z</time></trkpt><trkpt lat="44.1908194" lon="7.5689451"><ele>1052.0</ele><time>2026-05-01T10:56:50.884Z</time></trkpt><trkpt lat="44.1907218" lon="7.5688814"><ele>1052.0</ele><time>2026-05-01T10:56:51.885Z</time></trkpt><trkpt lat="44.1906176" lon="7.568802"><ele>1053.75</ele><time>2026-05-01T10:56:52.884Z</time></trkpt><trkpt lat="44.1905116" lon="7.5687138"><ele>1055.5</ele><time>2026-05-01T10:56:53.884Z</time></trkpt><trkpt lat="44.1903953" lon="7.5686308"><ele>1057.25</ele><time>2026-05-01T10:56:54.884Z</time></trkpt><trkpt lat="44.190272" lon="7.5685364"><ele>1059.0</ele><time>2026-05-01T10:56:55.884Z</time></trkpt><trkpt lat="44.1901568" lon="7.5684462"><ele>1059.25</ele><time>2026-05-01T10:56:56.884Z</time></trkpt><trkpt lat="44.1900414" lon="7.5683517"><ele>1059.5</ele><time>2026-05-01T10:56:57.884Z</time></trkpt><trkpt lat="44.1899289" lon="7.5682586"><ele>1059.75</ele><time>2026-05-01T10:56:58.884Z</time></trkpt><trkpt lat="44.1898191" lon="7.5681672"><ele>1060.0</ele><time>2026-05-01T10:56:59.884Z</time></trkpt><trkpt lat="44.1897062" lon="7.5680495"><ele>1060.75</ele><time>2026-05-01T10:57:00.884Z</time></trkpt><trkpt lat="44.1896141" lon="7.5679225"><ele>1061.5</ele><time>2026-05-01T10:57:01.884Z</time></trkpt><trkpt lat="44.1895492" lon="7.5677756"><ele>1062.25</ele><time>2026-05-01T10:57:02.885Z</time></trkpt><trkpt lat="44.1894994" lon="7.5676123"><ele>1063.0</ele><time>2026-05-01T10:57:03.884Z</time></trkpt><trkpt lat="44.1894423" lon="7.5674539"><ele>1063.0</ele><time>2026-05-01T10:57:04.884Z</time></trkpt><trkpt lat="44.1893934" lon="7.5672948"><ele>1063.0</ele><time>2026-05-01T10:57:05.884Z</time></trkpt><trkpt lat="44.1893342" lon="7.5671418"><ele>1063.0</ele><time>2026-05-01T10:57:06.884Z</time></trkpt><trkpt lat="44.1892757" lon="7.5669713"><ele>1063.0</ele><time>2026-05-01T10:57:07.884Z</time></trkpt><trkpt lat="44.1892172" lon="7.5667751"><ele>1062.75</ele><time>2026-05-01T10:57:08.884Z</time></trkpt><trkpt lat="44.1891328" lon="7.5666241"><ele>1062.5</ele><time>2026-05-01T10:57:09.884Z</time></trkpt><trkpt lat="44.189042" lon="7.5664691"><ele>1062.25</ele><time>2026-05-01T10:57:10.884Z</time></trkpt><trkpt lat="44.188961" lon="7.5663199"><ele>1062.0</ele><time>2026-05-01T10:57:11.884Z</time></trkpt><trkpt lat="44.1888608" lon="7.5661982"><ele>1063.4</ele><time>2026-05-01T10:57:12.884Z</time></trkpt><trkpt lat="44.1887776" lon="7.5660984"><ele>1064.8000000000002</ele><time>2026-05-01T10:57:13.884Z</time></trkpt><trkpt lat="44.1886945" lon="7.5659912"><ele>1066.2</ele><time>2026-05-01T10:57:14.884Z</time></trkpt><trkpt lat="44.1886147" lon="7.5658905"><ele>1067.6000000000001</ele><time>2026-05-01T10:57:15.884Z</time></trkpt><trkpt lat="44.1885326" lon="7.5657866"><ele>1069.0</ele><time>2026-05-01T10:57:16.884Z</time></trkpt><trkpt lat="44.1884853" lon="7.5657053"><ele>1069.0</ele><time>2026-05-01T10:57:17.884Z</time></trkpt><trkpt lat="44.1884167" lon="7.5656194"><ele>1069.0</ele><time>2026-05-01T10:57:18.884Z</time></trkpt><trkpt lat="44.1883724" lon="7.5655347"><ele>1069.0</ele><time>2026-05-01T10:57:19.884Z</time></trkpt><trkpt lat="44.1883169" lon="7.5654585"><ele>1069.0</ele><time>2026-05-01T10:57:20.884Z</time></trkpt><trkpt lat="44.1882466" lon="7.565374"><ele>1069.0</ele><time>2026-05-01T10:57:21.884Z</time></trkpt><trkpt lat="44.1881974" lon="7.5652776"><ele>1069.0</ele><time>2026-05-01T10:57:22.884Z</time></trkpt><trkpt lat="44.1881249" lon="7.5651808"><ele>1071.0</ele><time>2026-05-01T10:57:23.884Z</time></trkpt><trkpt lat="44.1880533" lon="7.5650761"><ele>1073.0</ele><time>2026-05-01T10:57:24.884Z</time></trkpt><trkpt lat="44.1879787" lon="7.5649657"><ele>1075.0</ele><time>2026-05-01T10:57:25.884Z</time></trkpt><trkpt lat="44.1878907" lon="7.564846"><ele>1077.0</ele><time>2026-05-01T10:57:26.884Z</time></trkpt><trkpt lat="44.1878062" lon="7.5647307"><ele>1077.0</ele><time>2026-05-01T10:57:27.884Z</time></trkpt><trkpt lat="44.1877131" lon="7.564604"><ele>1077.0</ele><time>2026-05-01T10:57:28.884Z</time></trkpt><trkpt lat="44.1876208" lon="7.5644786"><ele>1077.0</ele><time>2026-05-01T10:57:29.884Z</time></trkpt><trkpt lat="44.1875412" lon="7.5643584"><ele>1077.0</ele><time>2026-05-01T10:57:30.884Z</time></trkpt><trkpt lat="44.1874594" lon="7.5642356"><ele>1078.25</ele><time>2026-05-01T10:57:31.885Z</time></trkpt><trkpt lat="44.1873797" lon="7.5641219"><ele>1079.5</ele><time>2026-05-01T10:57:32.884Z</time></trkpt><trkpt lat="44.1872962" lon="7.5639968"><ele>1080.75</ele><time>2026-05-01T10:57:33.884Z</time></trkpt><trkpt lat="44.1872223" lon="7.5638701"><ele>1082.0</ele><time>2026-05-01T10:57:34.884Z</time></trkpt><trkpt lat="44.1871461" lon="7.5637295"><ele>1084.5</ele><time>2026-05-01T10:57:35.884Z</time></trkpt><trkpt lat="44.1870761" lon="7.5635908"><ele>1087.0</ele><time>2026-05-01T10:57:36.884Z</time></trkpt><trkpt lat="44.1870125" lon="7.5634496"><ele>1089.5</ele><time>2026-05-01T10:57:37.884Z</time></trkpt><trkpt lat="44.1869423" lon="7.5633169"><ele>1092.0</ele><time>2026-05-01T10:57:38.884Z</time></trkpt><trkpt lat="44.186878" lon="7.5631667"><ele>1092.0</ele><time>2026-05-01T10:57:39.884Z</time></trkpt><trkpt lat="44.1868335" lon="7.5630134"><ele>1092.0</ele><time>2026-05-01T10:57:40.884Z</time></trkpt><trkpt lat="44.1867945" lon="7.5628678"><ele>1092.0</ele><time>2026-05-01T10:57:41.884Z</time></trkpt><trkpt lat="44.1867581" lon="7.5627267"><ele>1092.0</ele><time>2026-05-01T10:57:42.884Z</time></trkpt><trkpt lat="44.1867073" lon="7.562611"><ele>1092.0</ele><time>2026-05-01T10:57:43.884Z</time></trkpt><trkpt lat="44.1866468" lon="7.56251"><ele>1092.4</ele><time>2026-05-01T10:57:44.885Z</time></trkpt><trkpt lat="44.1865744" lon="7.5624399"><ele>1092.8000000000002</ele><time>2026-05-01T10:57:45.884Z</time></trkpt><trkpt lat="44.1864769" lon="7.562393"><ele>1093.2</ele><time>2026-05-01T10:57:46.885Z</time></trkpt><trkpt lat="44.1863762" lon="7.5623575"><ele>1093.6000000000001</ele><time>2026-05-01T10:57:47.884Z</time></trkpt><trkpt lat="44.1862692" lon="7.5623206"><ele>1094.0</ele><time>2026-05-01T10:57:48.884Z</time></trkpt><trkpt lat="44.1861562" lon="7.5622788"><ele>1095.2</ele><time>2026-05-01T10:57:49.884Z</time></trkpt><trkpt lat="44.1860713" lon="7.5622427"><ele>1096.4</ele><time>2026-05-01T10:57:50.884Z</time></trkpt><trkpt lat="44.1859845" lon="7.5622249"><ele>1097.6</ele><time>2026-05-01T10:57:51.884Z</time></trkpt><trkpt lat="44.1858668" lon="7.5622456"><ele>1098.8</ele><time>2026-05-01T10:57:52.884Z</time></trkpt><trkpt lat="44.1857537" lon="7.5622589"><ele>1100.0</ele><time>2026-05-01T10:57:53.884Z</time></trkpt><trkpt lat="44.1856377" lon="7.5622714"><ele>1102.4</ele><time>2026-05-01T10:57:54.884Z</time></trkpt><trkpt lat="44.1855303" lon="7.562286"><ele>1104.8</ele><time>2026-05-01T10:57:55.884Z</time></trkpt><trkpt lat="44.1854494" lon="7.5623452"><ele>1107.2</ele><time>2026-05-01T10:57:56.884Z</time></trkpt><trkpt lat="44.1853694" lon="7.5624229"><ele>1109.6</ele><time>2026-05-01T10:57:57.884Z</time></trkpt><trkpt lat="44.1852906" lon="7.5625085"><ele>1112.0</ele><time>2026-05-01T10:57:58.884Z</time></trkpt><trkpt lat="44.1852263" lon="7.5626235"><ele>1112.0</ele><time>2026-05-01T10:57:59.884Z</time></trkpt><trkpt lat="44.1851717" lon="7.5627524"><ele>1112.0</ele><time>2026-05-01T10:58:00.884Z</time></trkpt><trkpt lat="44.1851363" lon="7.5628721"><ele>1112.0</ele><time>2026-05-01T10:58:01.884Z</time></trkpt><trkpt lat="44.1851301" lon="7.5630053"><ele>1112.0</ele><time>2026-05-01T10:58:02.884Z</time></trkpt><trkpt lat="44.1852171" lon="7.5630904"><ele>1112.0</ele><time>2026-05-01T10:58:03.884Z</time></trkpt><trkpt lat="44.1852781" lon="7.56319"><ele>1111.0</ele><time>2026-05-01T10:58:04.884Z</time></trkpt><trkpt lat="44.1854095" lon="7.5631991"><ele>1110.0</ele><time>2026-05-01T10:58:05.884Z</time></trkpt><trkpt lat="44.1855238" lon="7.5632079"><ele>1109.0</ele><time>2026-05-01T10:58:06.884Z</time></trkpt><trkpt lat="44.1856244" lon="7.5632123"><ele>1108.0</ele><time>2026-05-01T10:58:07.884Z</time></trkpt><trkpt lat="44.1857097" lon="7.5632079"><ele>1107.0</ele><time>2026-05-01T10:58:08.884Z</time></trkpt><trkpt lat="44.1857842" lon="7.5632206"><ele>1107.0</ele><time>2026-05-01T10:58:09.884Z</time></trkpt><trkpt lat="44.185849" lon="7.5632262"><ele>1107.0</ele><time>2026-05-01T10:58:10.884Z</time></trkpt><trkpt lat="44.1858997" lon="7.5633035"><ele>1107.0</ele><time>2026-05-01T10:58:11.884Z</time></trkpt><trkpt lat="44.1859233" lon="7.5633965"><ele>1107.0</ele><time>2026-05-01T10:58:12.884Z</time></trkpt><trkpt lat="44.1859172" lon="7.5634881"><ele>1107.0</ele><time>2026-05-01T10:58:13.884Z</time></trkpt><trkpt lat="44.1858067" lon="7.5636097"><ele>1107.0</ele><time>2026-05-01T10:58:15.884Z</time></trkpt><trkpt lat="44.1857221" lon="7.5636215"><ele>1109.8</ele><time>2026-05-01T10:58:16.884Z</time></trkpt><trkpt lat="44.1856269" lon="7.5635782"><ele>1112.6</ele><time>2026-05-01T10:58:17.884Z</time></trkpt><trkpt lat="44.1855247" lon="7.5635367"><ele>1115.3999999999999</ele><time>2026-05-01T10:58:18.885Z</time></trkpt><trkpt lat="44.1854199" lon="7.5634904"><ele>1118.2</ele><time>2026-05-01T10:58:19.884Z</time></trkpt><trkpt lat="44.1853064" lon="7.5634438"><ele>1121.0</ele><time>2026-05-01T10:58:20.884Z</time></trkpt><trkpt lat="44.1851923" lon="7.5633906"><ele>1121.0</ele><time>2026-05-01T10:58:21.884Z</time></trkpt><trkpt lat="44.1850601" lon="7.5633513"><ele>1121.0</ele><time>2026-05-01T10:58:22.884Z</time></trkpt><trkpt lat="44.1849518" lon="7.5632928"><ele>1121.0</ele><time>2026-05-01T10:58:23.884Z</time></trkpt><trkpt lat="44.184833" lon="7.5632492"><ele>1121.0</ele><time>2026-05-01T10:58:24.884Z</time></trkpt><trkpt lat="44.1847163" lon="7.5632039"><ele>1125.5</ele><time>2026-05-01T10:58:25.884Z</time></trkpt><trkpt lat="44.1845918" lon="7.5631427"><ele>1130.0</ele><time>2026-05-01T10:58:26.884Z</time></trkpt><trkpt lat="44.1844656" lon="7.5630888"><ele>1134.5</ele><time>2026-05-01T10:58:27.884Z</time></trkpt><trkpt lat="44.1843503" lon="7.5630013"><ele>1139.0</ele><time>2026-05-01T10:58:28.884Z</time></trkpt><trkpt lat="44.1842414" lon="7.5629231"><ele>1140.25</ele><time>2026-05-01T10:58:29.884Z</time></trkpt><trkpt lat="44.1841314" lon="7.5628469"><ele>1141.5</ele><time>2026-05-01T10:58:30.884Z</time></trkpt><trkpt lat="44.1840353" lon="7.5627525"><ele>1142.75</ele><time>2026-05-01T10:58:31.884Z</time></trkpt><trkpt lat="44.1839493" lon="7.5626632"><ele>1144.0</ele><time>2026-05-01T10:58:32.885Z</time></trkpt><trkpt lat="44.183887" lon="7.562511"><ele>1144.0</ele><time>2026-05-01T10:58:33.884Z</time></trkpt><trkpt lat="44.1838212" lon="7.5623652"><ele>1144.0</ele><time>2026-05-01T10:58:34.885Z</time></trkpt><trkpt lat="44.1837762" lon="7.5622038"><ele>1144.0</ele><time>2026-05-01T10:58:35.884Z</time></trkpt><trkpt lat="44.1837357" lon="7.5620519"><ele>1144.0</ele><time>2026-05-01T10:58:36.884Z</time></trkpt><trkpt lat="44.1837095" lon="7.5619018"><ele>1143.25</ele><time>2026-05-01T10:58:37.885Z</time></trkpt><trkpt lat="44.1836906" lon="7.5617434"><ele>1142.5</ele><time>2026-05-01T10:58:38.884Z</time></trkpt><trkpt lat="44.1837021" lon="7.5615786"><ele>1141.75</ele><time>2026-05-01T10:58:39.884Z</time></trkpt><trkpt lat="44.1837269" lon="7.5614094"><ele>1141.0</ele><time>2026-05-01T10:58:40.884Z</time></trkpt><trkpt lat="44.1837574" lon="7.5612467"><ele>1141.0</ele><time>2026-05-01T10:58:41.884Z</time></trkpt><trkpt lat="44.1837844" lon="7.5611037"><ele>1141.0</ele><time>2026-05-01T10:58:42.885Z</time></trkpt><trkpt lat="44.1838141" lon="7.5609708"><ele>1141.0</ele><time>2026-05-01T10:58:43.884Z</time></trkpt><trkpt lat="44.1838418" lon="7.5608309"><ele>1141.0</ele><time>2026-05-01T10:58:44.884Z</time></trkpt><trkpt lat="44.183856" lon="7.5607095"><ele>1141.0</ele><time>2026-05-01T10:58:45.884Z</time></trkpt><trkpt lat="44.1838423" lon="7.5605732"><ele>1141.0</ele><time>2026-05-01T10:58:46.884Z</time></trkpt><trkpt lat="44.1837916" lon="7.5604665"><ele>1141.0</ele><time>2026-05-01T10:58:47.884Z</time></trkpt><trkpt lat="44.1837163" lon="7.5603911"><ele>1141.0</ele><time>2026-05-01T10:58:48.884Z</time></trkpt><trkpt lat="44.18365" lon="7.5603177"><ele>1141.0</ele><time>2026-05-01T10:58:49.884Z</time></trkpt><trkpt lat="44.1835836" lon="7.5602611"><ele>1141.0</ele><time>2026-05-01T10:58:50.884Z</time></trkpt><trkpt lat="44.1835186" lon="7.5602835"><ele>1141.0</ele><time>2026-05-01T10:58:51.884Z</time></trkpt><trkpt lat="44.1834541" lon="7.560362"><ele>1141.0</ele><time>2026-05-01T10:58:52.884Z</time></trkpt><trkpt lat="44.1834061" lon="7.5604861"><ele>1141.0</ele><time>2026-05-01T10:58:53.884Z</time></trkpt><trkpt lat="44.1834025" lon="7.5606952"><ele>1141.0</ele><time>2026-05-01T10:58:54.884Z</time></trkpt><trkpt lat="44.1834225" lon="7.5609157"><ele>1141.0</ele><time>2026-05-01T10:58:55.884Z</time></trkpt><trkpt lat="44.1834303" lon="7.5611126"><ele>1141.0</ele><time>2026-05-01T10:58:56.884Z</time></trkpt><trkpt lat="44.1834428" lon="7.5613078"><ele>1141.0</ele><time>2026-05-01T10:58:57.884Z</time></trkpt><trkpt lat="44.1834626" lon="7.5615011"><ele>1141.0</ele><time>2026-05-01T10:58:58.884Z</time></trkpt><trkpt lat="44.1834809" lon="7.561669"><ele>1141.0</ele><time>2026-05-01T10:58:59.884Z</time></trkpt><trkpt lat="44.1834871" lon="7.5618381"><ele>1141.0</ele><time>2026-05-01T10:59:00.884Z</time></trkpt><trkpt lat="44.183492" lon="7.5619775"><ele>1141.0</ele><time>2026-05-01T10:59:01.884Z</time></trkpt><trkpt lat="44.1834712" lon="7.5620886"><ele>1141.0</ele><time>2026-05-01T10:59:02.884Z</time></trkpt><trkpt lat="44.183427" lon="7.5621835"><ele>1141.0</ele><time>2026-05-01T10:59:03.884Z</time></trkpt><trkpt lat="44.183376" lon="7.5622542"><ele>1141.0</ele><time>2026-05-01T10:59:04.884Z</time></trkpt><trkpt lat="44.1832759" lon="7.5622619"><ele>1141.0</ele><time>2026-05-01T10:59:05.884Z</time></trkpt><trkpt lat="44.1831925" lon="7.5622519"><ele>1145.2</ele><time>2026-05-01T10:59:06.884Z</time></trkpt><trkpt lat="44.1831259" lon="7.562192"><ele>1149.3999999999999</ele><time>2026-05-01T10:59:07.884Z</time></trkpt><trkpt lat="44.1831053" lon="7.5620479"><ele>1153.6</ele><time>2026-05-01T10:59:08.884Z</time></trkpt><trkpt lat="44.1831081" lon="7.5619139"><ele>1157.8</ele><time>2026-05-01T10:59:09.884Z</time></trkpt><trkpt lat="44.1831244" lon="7.5617833"><ele>1162.0</ele><time>2026-05-01T10:59:10.884Z</time></trkpt><trkpt lat="44.1831548" lon="7.561647"><ele>1157.8</ele><time>2026-05-01T10:59:11.884Z</time></trkpt><trkpt lat="44.1831929" lon="7.5615033"><ele>1153.6</ele><time>2026-05-01T10:59:12.884Z</time></trkpt><trkpt lat="44.1832158" lon="7.5613687"><ele>1149.3999999999999</ele><time>2026-05-01T10:59:13.884Z</time></trkpt><trkpt lat="44.1832288" lon="7.5612347"><ele>1145.2</ele><time>2026-05-01T10:59:14.884Z</time></trkpt><trkpt lat="44.183233" lon="7.5610988"><ele>1141.0</ele><time>2026-05-01T10:59:15.884Z</time></trkpt><trkpt lat="44.1831917" lon="7.5609932"><ele>1144.6</ele><time>2026-05-01T10:59:16.884Z</time></trkpt><trkpt lat="44.1831263" lon="7.5609127"><ele>1148.1999999999998</ele><time>2026-05-01T10:59:17.885Z</time></trkpt><trkpt lat="44.183062" lon="7.5608415"><ele>1151.8000000000002</ele><time>2026-05-01T10:59:18.884Z</time></trkpt><trkpt lat="44.1829596" lon="7.5608619"><ele>1155.4</ele><time>2026-05-01T10:59:19.884Z</time></trkpt><trkpt lat="44.1828729" lon="7.5608812"><ele>1159.0</ele><time>2026-05-01T10:59:20.884Z</time></trkpt><trkpt lat="44.1828008" lon="7.5609988"><ele>1159.0</ele><time>2026-05-01T10:59:21.884Z</time></trkpt><trkpt lat="44.1827574" lon="7.5611262"><ele>1159.0</ele><time>2026-05-01T10:59:22.884Z</time></trkpt><trkpt lat="44.1827141" lon="7.5612414"><ele>1159.0</ele><time>2026-05-01T10:59:23.884Z</time></trkpt><trkpt lat="44.1826716" lon="7.5613738"><ele>1159.0</ele><time>2026-05-01T10:59:24.884Z</time></trkpt><trkpt lat="44.1826408" lon="7.561524"><ele>1159.0</ele><time>2026-05-01T10:59:25.884Z</time></trkpt><trkpt lat="44.1827615" lon="7.5617198"><ele>1159.75</ele><time>2026-05-01T10:59:26.884Z</time></trkpt><trkpt lat="44.1827992" lon="7.5618965"><ele>1160.5</ele><time>2026-05-01T10:59:27.884Z</time></trkpt><trkpt lat="44.1828662" lon="7.5620705"><ele>1161.25</ele><time>2026-05-01T10:59:28.884Z</time></trkpt><trkpt lat="44.182912" lon="7.5622277"><ele>1162.0</ele><time>2026-05-01T10:59:29.884Z</time></trkpt><trkpt lat="44.1829282" lon="7.5623738"><ele>1162.0</ele><time>2026-05-01T10:59:30.884Z</time></trkpt><trkpt lat="44.1829547" lon="7.56252"><ele>1162.0</ele><time>2026-05-01T10:59:31.884Z</time></trkpt><trkpt lat="44.1829575" lon="7.5626226"><ele>1162.0</ele><time>2026-05-01T10:59:32.884Z</time></trkpt><trkpt lat="44.1829246" lon="7.5627055"><ele>1162.0</ele><time>2026-05-01T10:59:33.884Z</time></trkpt><trkpt lat="44.1828677" lon="7.5627714"><ele>1162.0</ele><time>2026-05-01T10:59:34.884Z</time></trkpt><trkpt lat="44.1828121" lon="7.5628244"><ele>1162.0</ele><time>2026-05-01T10:59:35.884Z</time></trkpt><trkpt lat="44.1827126" lon="7.5628016"><ele>1162.0</ele><time>2026-05-01T10:59:36.884Z</time></trkpt><trkpt lat="44.1826408" lon="7.5627522"><ele>1162.0</ele><time>2026-05-01T10:59:37.884Z</time></trkpt><trkpt lat="44.1825827" lon="7.5626543"><ele>1162.0</ele><time>2026-05-01T10:59:38.884Z</time></trkpt><trkpt lat="44.1825569" lon="7.5625091"><ele>1162.0</ele><time>2026-05-01T10:59:39.885Z</time></trkpt><trkpt lat="44.1825346" lon="7.5623351"><ele>1162.0</ele><time>2026-05-01T10:59:40.884Z</time></trkpt><trkpt lat="44.1825193" lon="7.5621451"><ele>1162.0</ele><time>2026-05-01T10:59:41.884Z</time></trkpt><trkpt lat="44.1824991" lon="7.5619555"><ele>1162.0</ele><time>2026-05-01T10:59:42.884Z</time></trkpt><trkpt lat="44.1824848" lon="7.5617184"><ele>1162.0</ele><time>2026-05-01T10:59:43.884Z</time></trkpt><trkpt lat="44.1824476" lon="7.5615065"><ele>1162.0</ele><time>2026-05-01T10:59:44.884Z</time></trkpt><trkpt lat="44.1824017" lon="7.5612848"><ele>1162.0</ele><time>2026-05-01T10:59:45.884Z</time></trkpt><trkpt lat="44.182342" lon="7.5610628"><ele>1162.0</ele><time>2026-05-01T10:59:46.884Z</time></trkpt><trkpt lat="44.1822746" lon="7.5608413"><ele>1167.0</ele><time>2026-05-01T10:59:47.884Z</time></trkpt><trkpt lat="44.1822242" lon="7.5606818"><ele>1172.0</ele><time>2026-05-01T10:59:48.884Z</time></trkpt><trkpt lat="44.1821855" lon="7.5605041"><ele>1177.0</ele><time>2026-05-01T10:59:49.884Z</time></trkpt><trkpt lat="44.1821679" lon="7.5603532"><ele>1182.0</ele><time>2026-05-01T10:59:50.884Z</time></trkpt><trkpt lat="44.1821705" lon="7.5602151"><ele>1182.0</ele><time>2026-05-01T10:59:51.884Z</time></trkpt><trkpt lat="44.1821859" lon="7.5600977"><ele>1182.0</ele><time>2026-05-01T10:59:52.884Z</time></trkpt><trkpt lat="44.1821856" lon="7.559989"><ele>1182.0</ele><time>2026-05-01T10:59:53.884Z</time></trkpt><trkpt lat="44.1821692" lon="7.5598815"><ele>1182.0</ele><time>2026-05-01T10:59:54.884Z</time></trkpt><trkpt lat="44.1821553" lon="7.5597757"><ele>1182.0</ele><time>2026-05-01T10:59:55.884Z</time></trkpt><trkpt lat="44.1820842" lon="7.5597704"><ele>1182.0</ele><time>2026-05-01T10:59:56.884Z</time></trkpt><trkpt lat="44.1819418" lon="7.5598442"><ele>1182.0</ele><time>2026-05-01T10:59:58.884Z</time></trkpt><trkpt lat="44.1819654" lon="7.5600631"><ele>1182.0</ele><time>2026-05-01T10:59:59.885Z</time></trkpt><trkpt lat="44.1819162" lon="7.5602134"><ele>1182.0</ele><time>2026-05-01T11:00:00.884Z</time></trkpt><trkpt lat="44.1819071" lon="7.5604231"><ele>1182.0</ele><time>2026-05-01T11:00:01.884Z</time></trkpt><trkpt lat="44.1818909" lon="7.5606107"><ele>1183.3333333333333</ele><time>2026-05-01T11:00:02.884Z</time></trkpt><trkpt lat="44.1818847" lon="7.5608492"><ele>1184.6666666666665</ele><time>2026-05-01T11:00:03.884Z</time></trkpt><trkpt lat="44.1818709" lon="7.5610972"><ele>1186.0</ele><time>2026-05-01T11:00:04.884Z</time></trkpt><trkpt lat="44.1819037" lon="7.5613417"><ele>1188.0</ele><time>2026-05-01T11:00:05.884Z</time></trkpt><trkpt lat="44.1819302" lon="7.5616058"><ele>1190.0</ele><time>2026-05-01T11:00:06.884Z</time></trkpt><trkpt lat="44.1819517" lon="7.5618518"><ele>1192.0</ele><time>2026-05-01T11:00:07.884Z</time></trkpt><trkpt lat="44.1819704" lon="7.562096"><ele>1194.3333333333333</ele><time>2026-05-01T11:00:08.884Z</time></trkpt><trkpt lat="44.1819773" lon="7.5623408"><ele>1196.6666666666667</ele><time>2026-05-01T11:00:09.884Z</time></trkpt><trkpt lat="44.1820014" lon="7.562559"><ele>1199.0</ele><time>2026-05-01T11:00:10.884Z</time></trkpt><trkpt lat="44.1819992" lon="7.5627712"><ele>1199.0</ele><time>2026-05-01T11:00:11.884Z</time></trkpt><trkpt lat="44.1820029" lon="7.5629791"><ele>1199.0</ele><time>2026-05-01T11:00:12.884Z</time></trkpt><trkpt lat="44.1820048" lon="7.5631825"><ele>1199.0</ele><time>2026-05-01T11:00:13.884Z</time></trkpt><trkpt lat="44.1819918" lon="7.5633624"><ele>1199.0</ele><time>2026-05-01T11:00:14.884Z</time></trkpt><trkpt lat="44.1819626" lon="7.5634872"><ele>1199.0</ele><time>2026-05-01T11:00:15.884Z</time></trkpt><trkpt lat="44.1819249" lon="7.5636441"><ele>1199.0</ele><time>2026-05-01T11:00:16.884Z</time></trkpt><trkpt lat="44.1818674" lon="7.5637542"><ele>1199.0</ele><time>2026-05-01T11:00:17.884Z</time></trkpt><trkpt lat="44.1817903" lon="7.5638866"><ele>1199.0</ele><time>2026-05-01T11:00:18.884Z</time></trkpt><trkpt lat="44.181694" lon="7.5640368"><ele>1196.3333333333335</ele><time>2026-05-01T11:00:19.884Z</time></trkpt><trkpt lat="44.1815883" lon="7.5641804"><ele>1193.6666666666667</ele><time>2026-05-01T11:00:20.884Z</time></trkpt><trkpt lat="44.181481" lon="7.5643238"><ele>1191.0</ele><time>2026-05-01T11:00:21.884Z</time></trkpt><trkpt lat="44.1813595" lon="7.5644652"><ele>1194.0</ele><time>2026-05-01T11:00:22.884Z</time></trkpt><trkpt lat="44.1812374" lon="7.5646004"><ele>1197.0</ele><time>2026-05-01T11:00:23.884Z</time></trkpt><trkpt lat="44.1810845" lon="7.5647457"><ele>1200.0</ele><time>2026-05-01T11:00:24.884Z</time></trkpt><trkpt lat="44.1809338" lon="7.5648972"><ele>1200.0</ele><time>2026-05-01T11:00:25.884Z</time></trkpt><trkpt lat="44.180814" lon="7.5650707"><ele>1200.0</ele><time>2026-05-01T11:00:26.884Z</time></trkpt><trkpt lat="44.1807122" lon="7.5652554"><ele>1200.0</ele><time>2026-05-01T11:00:27.884Z</time></trkpt><trkpt lat="44.1805886" lon="7.5654264"><ele>1203.6666666666667</ele><time>2026-05-01T11:00:28.884Z</time></trkpt><trkpt lat="44.1804801" lon="7.5655872"><ele>1207.3333333333335</ele><time>2026-05-01T11:00:29.884Z</time></trkpt><trkpt lat="44.1803788" lon="7.5657555"><ele>1211.0</ele><time>2026-05-01T11:00:30.884Z</time></trkpt><trkpt lat="44.1802662" lon="7.5659067"><ele>1211.0</ele><time>2026-05-01T11:00:31.884Z</time></trkpt><trkpt lat="44.1801605" lon="7.5660446"><ele>1211.0</ele><time>2026-05-01T11:00:32.884Z</time></trkpt><trkpt lat="44.1800292" lon="7.5661652"><ele>1211.0</ele><time>2026-05-01T11:00:33.884Z</time></trkpt><trkpt lat="44.1799045" lon="7.5662806"><ele>1212.5</ele><time>2026-05-01T11:00:34.884Z</time></trkpt><trkpt lat="44.1797818" lon="7.5664099"><ele>1214.0</ele><time>2026-05-01T11:00:35.884Z</time></trkpt><trkpt lat="44.1796597" lon="7.5665218"><ele>1215.5</ele><time>2026-05-01T11:00:36.884Z</time></trkpt><trkpt lat="44.1795421" lon="7.5666249"><ele>1217.0</ele><time>2026-05-01T11:00:37.884Z</time></trkpt><trkpt lat="44.1794277" lon="7.5667096"><ele>1217.0</ele><time>2026-05-01T11:00:38.884Z</time></trkpt><trkpt lat="44.1793312" lon="7.5667891"><ele>1217.0</ele><time>2026-05-01T11:00:39.885Z</time></trkpt><trkpt lat="44.1792585" lon="7.5668623"><ele>1217.0</ele><time>2026-05-01T11:00:40.884Z</time></trkpt><trkpt lat="44.179187" lon="7.5669239"><ele>1217.0</ele><time>2026-05-01T11:00:41.884Z</time></trkpt><trkpt lat="44.1791193" lon="7.5669471"><ele>1217.0</ele><time>2026-05-01T11:00:42.884Z</time></trkpt><trkpt lat="44.1790469" lon="7.5668526"><ele>1217.0</ele><time>2026-05-01T11:00:44.884Z</time></trkpt><trkpt lat="44.1790782" lon="7.5666819"><ele>1217.0</ele><time>2026-05-01T11:00:46.884Z</time></trkpt><trkpt lat="44.1791198" lon="7.5665701"><ele>1217.0</ele><time>2026-05-01T11:00:47.884Z</time></trkpt><trkpt lat="44.1792012" lon="7.5664014"><ele>1217.0</ele><time>2026-05-01T11:00:48.884Z</time></trkpt><trkpt lat="44.1792864" lon="7.5662432"><ele>1223.0</ele><time>2026-05-01T11:00:49.884Z</time></trkpt><trkpt lat="44.1793727" lon="7.5660819"><ele>1229.0</ele><time>2026-05-01T11:00:50.884Z</time></trkpt><trkpt lat="44.1794742" lon="7.5659164"><ele>1235.0</ele><time>2026-05-01T11:00:51.884Z</time></trkpt><trkpt lat="44.1795706" lon="7.5657388"><ele>1235.0</ele><time>2026-05-01T11:00:52.884Z</time></trkpt><trkpt lat="44.1796673" lon="7.5655455"><ele>1235.0</ele><time>2026-05-01T11:00:53.884Z</time></trkpt><trkpt lat="44.1797254" lon="7.5653056"><ele>1235.0</ele><time>2026-05-01T11:00:54.884Z</time></trkpt><trkpt lat="44.1797912" lon="7.5650735"><ele>1233.0</ele><time>2026-05-01T11:00:55.884Z</time></trkpt><trkpt lat="44.1798562" lon="7.5648396"><ele>1231.0</ele><time>2026-05-01T11:00:56.884Z</time></trkpt><trkpt lat="44.1799143" lon="7.5646251"><ele>1229.0</ele><time>2026-05-01T11:00:57.884Z</time></trkpt><trkpt lat="44.1799577" lon="7.5643886"><ele>1229.0</ele><time>2026-05-01T11:00:58.884Z</time></trkpt><trkpt lat="44.1800018" lon="7.564154"><ele>1229.0</ele><time>2026-05-01T11:00:59.884Z</time></trkpt><trkpt lat="44.180029" lon="7.5639421"><ele>1229.0</ele><time>2026-05-01T11:01:00.885Z</time></trkpt><trkpt lat="44.1800612" lon="7.5637704"><ele>1232.5</ele><time>2026-05-01T11:01:01.884Z</time></trkpt><trkpt lat="44.1801176" lon="7.5636248"><ele>1236.0</ele><time>2026-05-01T11:01:02.884Z</time></trkpt><trkpt lat="44.1801752" lon="7.5634835"><ele>1239.5</ele><time>2026-05-01T11:01:03.884Z</time></trkpt><trkpt lat="44.1802595" lon="7.5633745"><ele>1243.0</ele><time>2026-05-01T11:01:04.884Z</time></trkpt><trkpt lat="44.1803723" lon="7.5633056"><ele>1243.0</ele><time>2026-05-01T11:01:05.884Z</time></trkpt><trkpt lat="44.1804908" lon="7.5632745"><ele>1243.0</ele><time>2026-05-01T11:01:06.884Z</time></trkpt><trkpt lat="44.1805959" lon="7.5632645"><ele>1243.0</ele><time>2026-05-01T11:01:07.884Z</time></trkpt><trkpt lat="44.1806798" lon="7.5632746"><ele>1243.0</ele><time>2026-05-01T11:01:08.884Z</time></trkpt><trkpt lat="44.1807813" lon="7.5632571"><ele>1243.0</ele><time>2026-05-01T11:01:10.884Z</time></trkpt><trkpt lat="44.1808505" lon="7.5631364"><ele>1243.0</ele><time>2026-05-01T11:01:12.884Z</time></trkpt><trkpt lat="44.1808106" lon="7.5630112"><ele>1243.0</ele><time>2026-05-01T11:01:14.884Z</time></trkpt><trkpt lat="44.1807267" lon="7.5629524"><ele>1243.0</ele><time>2026-05-01T11:01:16.884Z</time></trkpt><trkpt lat="44.180626" lon="7.5629895"><ele>1243.0</ele><time>2026-05-01T11:01:17.884Z</time></trkpt><trkpt lat="44.1805484" lon="7.5630166"><ele>1243.0</ele><time>2026-05-01T11:01:18.884Z</time></trkpt><trkpt lat="44.1804743" lon="7.5630299"><ele>1243.0</ele><time>2026-05-01T11:01:19.884Z</time></trkpt><trkpt lat="44.1803997" lon="7.5630681"><ele>1243.0</ele><time>2026-05-01T11:01:20.884Z</time></trkpt><trkpt lat="44.1803354" lon="7.5630993"><ele>1243.0</ele><time>2026-05-01T11:01:21.884Z</time></trkpt><trkpt lat="44.180269" lon="7.5631523"><ele>1243.0</ele><time>2026-05-01T11:01:22.884Z</time></trkpt><trkpt lat="44.1801914" lon="7.5632078"><ele>1243.0</ele><time>2026-05-01T11:01:23.884Z</time></trkpt><trkpt lat="44.1801188" lon="7.5632583"><ele>1243.0</ele><time>2026-05-01T11:01:24.884Z</time></trkpt><trkpt lat="44.1800333" lon="7.5633369"><ele>1243.0</ele><time>2026-05-01T11:01:25.884Z</time></trkpt><trkpt lat="44.1799492" lon="7.5634209"><ele>1243.0</ele><time>2026-05-01T11:01:26.884Z</time></trkpt><trkpt lat="44.1798596" lon="7.5635306"><ele>1243.0</ele><time>2026-05-01T11:01:27.884Z</time></trkpt><trkpt lat="44.1797648" lon="7.5636439"><ele>1243.0</ele><time>2026-05-01T11:01:28.884Z</time></trkpt><trkpt lat="44.1796821" lon="7.5638104"><ele>1249.25</ele><time>2026-05-01T11:01:29.884Z</time></trkpt><trkpt lat="44.1796051" lon="7.5639783"><ele>1255.5</ele><time>2026-05-01T11:01:30.884Z</time></trkpt><trkpt lat="44.179533" lon="7.5641474"><ele>1261.75</ele><time>2026-05-01T11:01:31.884Z</time></trkpt><trkpt lat="44.1794549" lon="7.5643196"><ele>1268.0</ele><time>2026-05-01T11:01:32.884Z</time></trkpt><trkpt lat="44.1793883" lon="7.5644859"><ele>1264.5</ele><time>2026-05-01T11:01:33.884Z</time></trkpt><trkpt lat="44.1792948" lon="7.5646528"><ele>1261.0</ele><time>2026-05-01T11:01:34.884Z</time></trkpt><trkpt lat="44.1792341" lon="7.5648061"><ele>1257.5</ele><time>2026-05-01T11:01:35.884Z</time></trkpt><trkpt lat="44.1791863" lon="7.5649726"><ele>1254.0</ele><time>2026-05-01T11:01:36.884Z</time></trkpt><trkpt lat="44.1791102" lon="7.5651094"><ele>1254.0</ele><time>2026-05-01T11:01:37.884Z</time></trkpt><trkpt lat="44.1790393" lon="7.5652643"><ele>1254.0</ele><time>2026-05-01T11:01:38.884Z</time></trkpt><trkpt lat="44.1789793" lon="7.5653743"><ele>1254.0</ele><time>2026-05-01T11:01:39.884Z</time></trkpt><trkpt lat="44.178919" lon="7.5654912"><ele>1254.0</ele><time>2026-05-01T11:01:40.884Z</time></trkpt><trkpt lat="44.1788512" lon="7.5656029"><ele>1254.0</ele><time>2026-05-01T11:01:41.884Z</time></trkpt><trkpt lat="44.1787844" lon="7.5656923"><ele>1257.5</ele><time>2026-05-01T11:01:42.884Z</time></trkpt><trkpt lat="44.1786968" lon="7.5657823"><ele>1261.0</ele><time>2026-05-01T11:01:43.884Z</time></trkpt><trkpt lat="44.1785921" lon="7.5658493"><ele>1264.5</ele><time>2026-05-01T11:01:44.884Z</time></trkpt><trkpt lat="44.1784228" lon="7.5659404"><ele>1268.0</ele><time>2026-05-01T11:01:45.884Z</time></trkpt><trkpt lat="44.1782803" lon="7.5660411"><ele>1270.3333333333335</ele><time>2026-05-01T11:01:46.884Z</time></trkpt><trkpt lat="44.1781384" lon="7.5661485"><ele>1272.6666666666667</ele><time>2026-05-01T11:01:47.884Z</time></trkpt><trkpt lat="44.1780066" lon="7.5663036"><ele>1275.0</ele><time>2026-05-01T11:01:48.884Z</time></trkpt><trkpt lat="44.1778615" lon="7.56648"><ele>1275.0</ele><time>2026-05-01T11:01:49.884Z</time></trkpt><trkpt lat="44.1776679" lon="7.5666785"><ele>1275.0</ele><time>2026-05-01T11:01:50.884Z</time></trkpt><trkpt lat="44.1775146" lon="7.5668424"><ele>1275.0</ele><time>2026-05-01T11:01:51.884Z</time></trkpt><trkpt lat="44.1773548" lon="7.5669894"><ele>1272.0</ele><time>2026-05-01T11:01:52.885Z</time></trkpt><trkpt lat="44.1771849" lon="7.5670905"><ele>1269.0</ele><time>2026-05-01T11:01:53.884Z</time></trkpt><trkpt lat="44.1770475" lon="7.567197"><ele>1266.0</ele><time>2026-05-01T11:01:54.884Z</time></trkpt><trkpt lat="44.176922" lon="7.567295"><ele>1266.0</ele><time>2026-05-01T11:01:55.884Z</time></trkpt><trkpt lat="44.1768256" lon="7.5673337"><ele>1266.0</ele><time>2026-05-01T11:01:56.884Z</time></trkpt><trkpt lat="44.1767522" lon="7.5673608"><ele>1266.0</ele><time>2026-05-01T11:01:57.885Z</time></trkpt><trkpt lat="44.176627" lon="7.5673557"><ele>1266.0</ele><time>2026-05-01T11:01:58.884Z</time></trkpt><trkpt lat="44.1765038" lon="7.5673359"><ele>1266.0</ele><time>2026-05-01T11:01:59.884Z</time></trkpt><trkpt lat="44.1763887" lon="7.5673037"><ele>1267.0</ele><time>2026-05-01T11:02:00.884Z</time></trkpt><trkpt lat="44.1762657" lon="7.5672466"><ele>1268.0</ele><time>2026-05-01T11:02:01.884Z</time></trkpt><trkpt lat="44.176143" lon="7.5671934"><ele>1269.0</ele><time>2026-05-01T11:02:02.884Z</time></trkpt><trkpt lat="44.1760215" lon="7.5671227"><ele>1270.0</ele><time>2026-05-01T11:02:03.884Z</time></trkpt><trkpt lat="44.175895" lon="7.5671535"><ele>1270.0</ele><time>2026-05-01T11:02:04.884Z</time></trkpt><trkpt lat="44.1757673" lon="7.5671899"><ele>1270.0</ele><time>2026-05-01T11:02:05.884Z</time></trkpt><trkpt lat="44.1756391" lon="7.5672605"><ele>1270.0</ele><time>2026-05-01T11:02:06.885Z</time></trkpt><trkpt lat="44.1755253" lon="7.5673407"><ele>1270.0</ele><time>2026-05-01T11:02:07.884Z</time></trkpt><trkpt lat="44.1754459" lon="7.5674399"><ele>1273.8</ele><time>2026-05-01T11:02:08.884Z</time></trkpt><trkpt lat="44.1753818" lon="7.5675367"><ele>1277.6</ele><time>2026-05-01T11:02:09.884Z</time></trkpt><trkpt lat="44.1753146" lon="7.5676433"><ele>1281.4</ele><time>2026-05-01T11:02:10.884Z</time></trkpt><trkpt lat="44.1752585" lon="7.56776"><ele>1285.2</ele><time>2026-05-01T11:02:11.884Z</time></trkpt><trkpt lat="44.1752068" lon="7.5678847"><ele>1289.0</ele><time>2026-05-01T11:02:12.884Z</time></trkpt><trkpt lat="44.1751712" lon="7.5680289"><ele>1289.0</ele><time>2026-05-01T11:02:13.884Z</time></trkpt><trkpt lat="44.1751192" lon="7.5681789"><ele>1289.0</ele><time>2026-05-01T11:02:14.884Z</time></trkpt><trkpt lat="44.1750942" lon="7.5683225"><ele>1289.0</ele><time>2026-05-01T11:02:15.884Z</time></trkpt><trkpt lat="44.1750857" lon="7.5684672"><ele>1289.0</ele><time>2026-05-01T11:02:16.884Z</time></trkpt><trkpt lat="44.1750583" lon="7.5685959"><ele>1289.0</ele><time>2026-05-01T11:02:17.885Z</time></trkpt><trkpt lat="44.1750348" lon="7.5687205"><ele>1288.4</ele><time>2026-05-01T11:02:18.884Z</time></trkpt><trkpt lat="44.1749985" lon="7.5688168"><ele>1287.8000000000002</ele><time>2026-05-01T11:02:19.884Z</time></trkpt><trkpt lat="44.1749205" lon="7.5689085"><ele>1287.1999999999998</ele><time>2026-05-01T11:02:20.884Z</time></trkpt><trkpt lat="44.1748454" lon="7.568982"><ele>1286.6</ele><time>2026-05-01T11:02:21.884Z</time></trkpt><trkpt lat="44.1747694" lon="7.5690445"><ele>1286.0</ele><time>2026-05-01T11:02:22.884Z</time></trkpt><trkpt lat="44.1746797" lon="7.5690865"><ele>1286.0</ele><time>2026-05-01T11:02:23.884Z</time></trkpt><trkpt lat="44.1745996" lon="7.5691206"><ele>1286.0</ele><time>2026-05-01T11:02:24.884Z</time></trkpt><trkpt lat="44.1745273" lon="7.5691385"><ele>1286.0</ele><time>2026-05-01T11:02:25.884Z</time></trkpt><trkpt lat="44.1744436" lon="7.5691495"><ele>1286.0</ele><time>2026-05-01T11:02:26.884Z</time></trkpt><trkpt lat="44.1743222" lon="7.569124"><ele>1286.0</ele><time>2026-05-01T11:02:27.884Z</time></trkpt><trkpt lat="44.1742162" lon="7.5691131"><ele>1286.0</ele><time>2026-05-01T11:02:28.884Z</time></trkpt><trkpt lat="44.174107" lon="7.5691047"><ele>1286.0</ele><time>2026-05-01T11:02:29.884Z</time></trkpt><trkpt lat="44.174" lon="7.5691061"><ele>1286.0</ele><time>2026-05-01T11:02:30.884Z</time></trkpt><trkpt lat="44.1738977" lon="7.5690886"><ele>1286.0</ele><time>2026-05-01T11:02:31.884Z</time></trkpt><trkpt lat="44.1737642" lon="7.569023"><ele>1285.5</ele><time>2026-05-01T11:02:32.884Z</time></trkpt><trkpt lat="44.1736403" lon="7.5689507"><ele>1285.0</ele><time>2026-05-01T11:02:33.884Z</time></trkpt><trkpt lat="44.1735208" lon="7.5688507"><ele>1284.5</ele><time>2026-05-01T11:02:34.884Z</time></trkpt><trkpt lat="44.1733907" lon="7.5687615"><ele>1284.0</ele><time>2026-05-01T11:02:35.884Z</time></trkpt><trkpt lat="44.173277" lon="7.5686837"><ele>1290.6</ele><time>2026-05-01T11:02:36.884Z</time></trkpt><trkpt lat="44.173168" lon="7.568616"><ele>1297.2</ele><time>2026-05-01T11:02:37.885Z</time></trkpt><trkpt lat="44.1730892" lon="7.5685512"><ele>1303.8</ele><time>2026-05-01T11:02:38.884Z</time></trkpt><trkpt lat="44.1730007" lon="7.5685313"><ele>1310.3999999999999</ele><time>2026-05-01T11:02:39.884Z</time></trkpt><trkpt lat="44.172906" lon="7.5685225"><ele>1317.0</ele><time>2026-05-01T11:02:40.884Z</time></trkpt><trkpt lat="44.1728132" lon="7.568509"><ele>1317.0</ele><time>2026-05-01T11:02:41.884Z</time></trkpt><trkpt lat="44.1727478" lon="7.5685745"><ele>1317.0</ele><time>2026-05-01T11:02:42.884Z</time></trkpt><trkpt lat="44.1726787" lon="7.5686616"><ele>1317.0</ele><time>2026-05-01T11:02:43.884Z</time></trkpt><trkpt lat="44.1726076" lon="7.5687574"><ele>1317.0</ele><time>2026-05-01T11:02:44.884Z</time></trkpt><trkpt lat="44.1725485" lon="7.5688458"><ele>1317.0</ele><time>2026-05-01T11:02:45.884Z</time></trkpt><trkpt lat="44.1725017" lon="7.5689488"><ele>1317.0</ele><time>2026-05-01T11:02:46.884Z</time></trkpt><trkpt lat="44.1724953" lon="7.5690787"><ele>1315.8</ele><time>2026-05-01T11:02:47.884Z</time></trkpt><trkpt lat="44.1724702" lon="7.5691918"><ele>1314.6</ele><time>2026-05-01T11:02:48.884Z</time></trkpt><trkpt lat="44.1724358" lon="7.5693"><ele>1313.3999999999999</ele><time>2026-05-01T11:02:49.884Z</time></trkpt><trkpt lat="44.1723845" lon="7.5694042"><ele>1312.1999999999998</ele><time>2026-05-01T11:02:50.884Z</time></trkpt><trkpt lat="44.1723175" lon="7.5694959"><ele>1311.0</ele><time>2026-05-01T11:02:51.885Z</time></trkpt><trkpt lat="44.1721958" lon="7.5696073"><ele>1311.0</ele><time>2026-05-01T11:02:52.884Z</time></trkpt><trkpt lat="44.1720943" lon="7.5696862"><ele>1311.0</ele><time>2026-05-01T11:02:53.884Z</time></trkpt><trkpt lat="44.1719638" lon="7.5697612"><ele>1311.0</ele><time>2026-05-01T11:02:54.884Z</time></trkpt><trkpt lat="44.1718263" lon="7.5698383"><ele>1311.0</ele><time>2026-05-01T11:02:55.884Z</time></trkpt><trkpt lat="44.1716664" lon="7.5699042"><ele>1318.3333333333333</ele><time>2026-05-01T11:02:56.884Z</time></trkpt><trkpt lat="44.1714994" lon="7.5699711"><ele>1325.6666666666665</ele><time>2026-05-01T11:02:57.885Z</time></trkpt><trkpt lat="44.1713501" lon="7.570082"><ele>1333.0</ele><time>2026-05-01T11:02:58.884Z</time></trkpt><trkpt lat="44.171204" lon="7.5701724"><ele>1333.0</ele><time>2026-05-01T11:02:59.884Z</time></trkpt><trkpt lat="44.1710637" lon="7.5702393"><ele>1333.0</ele><time>2026-05-01T11:03:00.884Z</time></trkpt><trkpt lat="44.1709231" lon="7.5702851"><ele>1333.0</ele><time>2026-05-01T11:03:01.884Z</time></trkpt><trkpt lat="44.1707953" lon="7.5703315"><ele>1333.0</ele><time>2026-05-01T11:03:02.884Z</time></trkpt><trkpt lat="44.1706664" lon="7.5703711"><ele>1328.6000000000001</ele><time>2026-05-01T11:03:03.884Z</time></trkpt><trkpt lat="44.1705554" lon="7.5703887"><ele>1324.2</ele><time>2026-05-01T11:03:04.884Z</time></trkpt><trkpt lat="44.1704647" lon="7.5704048"><ele>1319.8</ele><time>2026-05-01T11:03:05.884Z</time></trkpt><trkpt lat="44.1703888" lon="7.5703804"><ele>1315.4</ele><time>2026-05-01T11:03:06.884Z</time></trkpt><trkpt lat="44.1702802" lon="7.5704058"><ele>1311.0</ele><time>2026-05-01T11:03:07.884Z</time></trkpt><trkpt lat="44.1701874" lon="7.5704298"><ele>1311.0</ele><time>2026-05-01T11:03:08.884Z</time></trkpt><trkpt lat="44.1700967" lon="7.5704615"><ele>1311.0</ele><time>2026-05-01T11:03:09.884Z</time></trkpt><trkpt lat="44.1699953" lon="7.5704967"><ele>1311.0</ele><time>2026-05-01T11:03:10.884Z</time></trkpt><trkpt lat="44.1699285" lon="7.5705463"><ele>1311.0</ele><time>2026-05-01T11:03:11.884Z</time></trkpt><trkpt lat="44.1698701" lon="7.5705791"><ele>1311.0</ele><time>2026-05-01T11:03:12.884Z</time></trkpt><trkpt lat="44.1697936" lon="7.5706303"><ele>1311.0</ele><time>2026-05-01T11:03:13.884Z</time></trkpt><trkpt lat="44.169724" lon="7.5706573"><ele>1312.8333333333333</ele><time>2026-05-01T11:03:14.884Z</time></trkpt><trkpt lat="44.169646" lon="7.5706917"><ele>1314.6666666666667</ele><time>2026-05-01T11:03:15.884Z</time></trkpt><trkpt lat="44.1695724" lon="7.570724"><ele>1316.5</ele><time>2026-05-01T11:03:16.884Z</time></trkpt><trkpt lat="44.1695025" lon="7.5707736"><ele>1318.3333333333335</ele><time>2026-05-01T11:03:17.884Z</time></trkpt><trkpt lat="44.1694206" lon="7.5708201"><ele>1320.1666666666667</ele><time>2026-05-01T11:03:18.884Z</time></trkpt><trkpt lat="44.1693393" lon="7.5708601"><ele>1322.0</ele><time>2026-05-01T11:03:19.884Z</time></trkpt><trkpt lat="44.1692579" lon="7.5708997"><ele>1322.0</ele><time>2026-05-01T11:03:20.884Z</time></trkpt><trkpt lat="44.1691751" lon="7.5709347"><ele>1322.0</ele><time>2026-05-01T11:03:21.884Z</time></trkpt><trkpt lat="44.1690949" lon="7.5709778"><ele>1322.0</ele><time>2026-05-01T11:03:22.884Z</time></trkpt><trkpt lat="44.1690186" lon="7.5710071"><ele>1322.0</ele><time>2026-05-01T11:03:23.884Z</time></trkpt><trkpt lat="44.168946" lon="7.571031"><ele>1322.0</ele><time>2026-05-01T11:03:24.884Z</time></trkpt><trkpt lat="44.1688611" lon="7.57105"><ele>1322.0</ele><time>2026-05-01T11:03:25.884Z</time></trkpt><trkpt lat="44.1687606" lon="7.5710627"><ele>1324.6</ele><time>2026-05-01T11:03:26.884Z</time></trkpt><trkpt lat="44.1686552" lon="7.5710658"><ele>1327.1999999999998</ele><time>2026-05-01T11:03:27.884Z</time></trkpt><trkpt lat="44.1685562" lon="7.5710779"><ele>1329.8</ele><time>2026-05-01T11:03:28.884Z</time></trkpt><trkpt lat="44.1684398" lon="7.5710738"><ele>1332.4</ele><time>2026-05-01T11:03:29.884Z</time></trkpt><trkpt lat="44.1683258" lon="7.571065"><ele>1335.0</ele><time>2026-05-01T11:03:30.884Z</time></trkpt><trkpt lat="44.1682118" lon="7.5710581"><ele>1341.6666666666667</ele><time>2026-05-01T11:03:31.884Z</time></trkpt><trkpt lat="44.1680984" lon="7.5710477"><ele>1348.3333333333335</ele><time>2026-05-01T11:03:32.884Z</time></trkpt><trkpt lat="44.1679855" lon="7.5710338"><ele>1355.0</ele><time>2026-05-01T11:03:33.884Z</time></trkpt><trkpt lat="44.1387122" lon="7.5696"><ele>1336.8</ele><time>2026-05-01T11:07:20.889Z</time></trkpt><trkpt lat="44.1386372" lon="7.5694769"><ele>1318.6</ele><time>2026-05-01T11:07:21.886Z</time></trkpt><trkpt lat="44.1385766" lon="7.5693469"><ele>1300.4</ele><time>2026-05-01T11:07:22.884Z</time></trkpt><trkpt lat="44.1385246" lon="7.5692337"><ele>1282.2</ele><time>2026-05-01T11:07:23.883Z</time></trkpt><trkpt lat="44.1384828" lon="7.5691131"><ele>1264.0</ele><time>2026-05-01T11:07:24.884Z</time></trkpt><trkpt lat="44.138446" lon="7.5689885"><ele>1264.0</ele><time>2026-05-01T11:07:25.884Z</time></trkpt><trkpt lat="44.1383954" lon="7.5688604"><ele>1264.0</ele><time>2026-05-01T11:07:26.885Z</time></trkpt><trkpt lat="44.1383487" lon="7.5687364"><ele>1264.0</ele><time>2026-05-01T11:07:27.884Z</time></trkpt><trkpt lat="44.1383261" lon="7.5686111"><ele>1264.0</ele><time>2026-05-01T11:07:28.884Z</time></trkpt><trkpt lat="44.1383091" lon="7.5685129"><ele>1264.0</ele><time>2026-05-01T11:07:29.884Z</time></trkpt><trkpt lat="44.1382894" lon="7.5683413"><ele>1264.0</ele><time>2026-05-01T11:07:31.884Z</time></trkpt><trkpt lat="44.1382788" lon="7.5682363"><ele>1264.0</ele><time>2026-05-01T11:07:32.884Z</time></trkpt><trkpt lat="44.1382127" lon="7.5680971"><ele>1264.0</ele><time>2026-05-01T11:07:34.884Z</time></trkpt><trkpt lat="44.1381304" lon="7.5679755"><ele>1264.0</ele><time>2026-05-01T11:07:36.885Z</time></trkpt><trkpt lat="44.1380588" lon="7.567904"><ele>1264.0</ele><time>2026-05-01T11:07:38.884Z</time></trkpt><trkpt lat="44.1379595" lon="7.567801"><ele>1264.0</ele><time>2026-05-01T11:07:41.884Z</time></trkpt><trkpt lat="44.1378732" lon="7.5677401"><ele>1264.0</ele><time>2026-05-01T11:07:43.884Z</time></trkpt><trkpt lat="44.1377943" lon="7.5676668"><ele>1264.0</ele><time>2026-05-01T11:07:45.884Z</time></trkpt><trkpt lat="44.1377332" lon="7.567594"><ele>1264.0</ele><time>2026-05-01T11:07:47.884Z</time></trkpt><trkpt lat="44.1376629" lon="7.5675088"><ele>1264.0</ele><time>2026-05-01T11:07:49.884Z</time></trkpt><trkpt lat="44.1375939" lon="7.5674078"><ele>1264.0</ele><time>2026-05-01T11:07:51.885Z</time></trkpt><trkpt lat="44.1375401" lon="7.5672956"><ele>1264.0</ele><time>2026-05-01T11:07:53.884Z</time></trkpt><trkpt lat="44.1374943" lon="7.567156"><ele>1264.0</ele><time>2026-05-01T11:07:55.884Z</time></trkpt><trkpt lat="44.1374597" lon="7.5670219"><ele>1264.0</ele><time>2026-05-01T11:07:57.884Z</time></trkpt><trkpt lat="44.1373975" lon="7.5669185"><ele>1264.0</ele><time>2026-05-01T11:07:59.884Z</time></trkpt><trkpt lat="44.1373289" lon="7.566841"><ele>1260.8</ele><time>2026-05-01T11:08:01.885Z</time></trkpt><trkpt lat="44.137224" lon="7.5668775"><ele>1257.6000000000001</ele><time>2026-05-01T11:08:03.884Z</time></trkpt><trkpt lat="44.1371457" lon="7.566997"><ele>1254.4</ele><time>2026-05-01T11:08:05.884Z</time></trkpt><trkpt lat="44.1371318" lon="7.5670836"><ele>1251.2</ele><time>2026-05-01T11:08:06.884Z</time></trkpt><trkpt lat="44.1371312" lon="7.5671739"><ele>1248.0</ele><time>2026-05-01T11:08:07.884Z</time></trkpt><trkpt lat="44.1371628" lon="7.5673297"><ele>1245.6666666666667</ele><time>2026-05-01T11:08:09.884Z</time></trkpt><trkpt lat="44.1371975" lon="7.5674067"><ele>1243.3333333333333</ele><time>2026-05-01T11:08:10.884Z</time></trkpt><trkpt lat="44.1372464" lon="7.5674909"><ele>1241.0</ele><time>2026-05-01T11:08:11.884Z</time></trkpt><trkpt lat="44.1372874" lon="7.5675774"><ele>1238.6666666666665</ele><time>2026-05-01T11:08:12.884Z</time></trkpt><trkpt lat="44.1373576" lon="7.5676503"><ele>1236.3333333333333</ele><time>2026-05-01T11:08:13.884Z</time></trkpt><trkpt lat="44.1374119" lon="7.5677414"><ele>1234.0</ele><time>2026-05-01T11:08:14.884Z</time></trkpt><trkpt lat="44.1374628" lon="7.5678225"><ele>1235.8333333333333</ele><time>2026-05-01T11:08:15.884Z</time></trkpt><trkpt lat="44.1375322" lon="7.5678841"><ele>1237.6666666666665</ele><time>2026-05-01T11:08:16.884Z</time></trkpt><trkpt lat="44.1375983" lon="7.5679423"><ele>1239.5</ele><time>2026-05-01T11:08:17.884Z</time></trkpt><trkpt lat="44.1376616" lon="7.5680124"><ele>1241.3333333333333</ele><time>2026-05-01T11:08:18.884Z</time></trkpt><trkpt lat="44.1377129" lon="7.5680852"><ele>1243.1666666666667</ele><time>2026-05-01T11:08:19.884Z</time></trkpt><trkpt lat="44.1377672" lon="7.5681571"><ele>1245.0</ele><time>2026-05-01T11:08:20.884Z</time></trkpt><trkpt lat="44.1378103" lon="7.568228"><ele>1245.0</ele><time>2026-05-01T11:08:21.884Z</time></trkpt><trkpt lat="44.1378553" lon="7.5683041"><ele>1245.0</ele><time>2026-05-01T11:08:22.884Z</time></trkpt><trkpt lat="44.137893" lon="7.568386"><ele>1245.0</ele><time>2026-05-01T11:08:23.884Z</time></trkpt><trkpt lat="44.1379291" lon="7.5684665"><ele>1245.0</ele><time>2026-05-01T11:08:24.884Z</time></trkpt><trkpt lat="44.1379689" lon="7.5686144"><ele>1245.0</ele><time>2026-05-01T11:08:26.884Z</time></trkpt><trkpt lat="44.1379984" lon="7.5687763"><ele>1245.0</ele><time>2026-05-01T11:08:28.885Z</time></trkpt><trkpt lat="44.1380067" lon="7.5688761"><ele>1242.6</ele><time>2026-05-01T11:08:29.884Z</time></trkpt><trkpt lat="44.1380276" lon="7.5690407"><ele>1240.2</ele><time>2026-05-01T11:08:31.885Z</time></trkpt><trkpt lat="44.1380222" lon="7.5691752"><ele>1237.8</ele><time>2026-05-01T11:08:33.884Z</time></trkpt><trkpt lat="44.1379684" lon="7.5693044"><ele>1235.4</ele><time>2026-05-01T11:08:35.884Z</time></trkpt><trkpt lat="44.1379004" lon="7.5693332"><ele>1233.0</ele><time>2026-05-01T11:08:36.884Z</time></trkpt><trkpt lat="44.1377906" lon="7.5693587"><ele>1233.0</ele><time>2026-05-01T11:08:38.884Z</time></trkpt><trkpt lat="44.1377423" lon="7.5692631"><ele>1233.0</ele><time>2026-05-01T11:08:39.884Z</time></trkpt><trkpt lat="44.1377157" lon="7.5691671"><ele>1233.0</ele><time>2026-05-01T11:08:40.884Z</time></trkpt><trkpt lat="44.1376963" lon="7.5690705"><ele>1233.0</ele><time>2026-05-01T11:08:41.884Z</time></trkpt><trkpt lat="44.1376818" lon="7.5689796"><ele>1233.0</ele><time>2026-05-01T11:08:42.884Z</time></trkpt><trkpt lat="44.1376672" lon="7.5688833"><ele>1233.0</ele><time>2026-05-01T11:08:43.884Z</time></trkpt><trkpt lat="44.1376504" lon="7.5687729"><ele>1233.0</ele><time>2026-05-01T11:08:44.884Z</time></trkpt><trkpt lat="44.1376242" lon="7.568685"><ele>1235.4</ele><time>2026-05-01T11:08:45.884Z</time></trkpt><trkpt lat="44.1375721" lon="7.5685178"><ele>1237.8</ele><time>2026-05-01T11:08:47.884Z</time></trkpt><trkpt lat="44.1375317" lon="7.5684211"><ele>1240.2</ele><time>2026-05-01T11:08:48.884Z</time></trkpt><trkpt lat="44.1374804" lon="7.5683211"><ele>1242.6</ele><time>2026-05-01T11:08:49.884Z</time></trkpt><trkpt lat="44.1374194" lon="7.5682322"><ele>1245.0</ele><time>2026-05-01T11:08:50.884Z</time></trkpt><trkpt lat="44.1373414" lon="7.5681501"><ele>1242.8</ele><time>2026-05-01T11:08:51.884Z</time></trkpt><trkpt lat="44.1372604" lon="7.5680684"><ele>1240.6</ele><time>2026-05-01T11:08:52.884Z</time></trkpt><trkpt lat="44.1371799" lon="7.567993"><ele>1238.4</ele><time>2026-05-01T11:08:53.884Z</time></trkpt><trkpt lat="44.1370829" lon="7.5679205"><ele>1236.2</ele><time>2026-05-01T11:08:54.884Z</time></trkpt><trkpt lat="44.1369989" lon="7.5678475"><ele>1234.0</ele><time>2026-05-01T11:08:55.884Z</time></trkpt><trkpt lat="44.1369269" lon="7.5677668"><ele>1234.0</ele><time>2026-05-01T11:08:56.884Z</time></trkpt><trkpt lat="44.1368638" lon="7.5676647"><ele>1234.0</ele><time>2026-05-01T11:08:57.885Z</time></trkpt><trkpt lat="44.1367926" lon="7.5675799"><ele>1234.0</ele><time>2026-05-01T11:08:58.884Z</time></trkpt><trkpt lat="44.1367161" lon="7.5674824"><ele>1234.0</ele><time>2026-05-01T11:08:59.884Z</time></trkpt><trkpt lat="44.1366202" lon="7.567414"><ele>1234.0</ele><time>2026-05-01T11:09:00.884Z</time></trkpt><trkpt lat="44.1365458" lon="7.5673541"><ele>1232.0</ele><time>2026-05-01T11:09:01.884Z</time></trkpt><trkpt lat="44.1364531" lon="7.567301"><ele>1230.0</ele><time>2026-05-01T11:09:02.885Z</time></trkpt><trkpt lat="44.1363582" lon="7.5672686"><ele>1228.0</ele><time>2026-05-01T11:09:03.884Z</time></trkpt><trkpt lat="44.1362633" lon="7.5672444"><ele>1226.0</ele><time>2026-05-01T11:09:04.884Z</time></trkpt><trkpt lat="44.1361759" lon="7.567204"><ele>1224.0</ele><time>2026-05-01T11:09:05.884Z</time></trkpt><trkpt lat="44.1360911" lon="7.5671762"><ele>1224.0</ele><time>2026-05-01T11:09:06.884Z</time></trkpt><trkpt lat="44.1359938" lon="7.5671415"><ele>1224.0</ele><time>2026-05-01T11:09:07.884Z</time></trkpt><trkpt lat="44.1358964" lon="7.567132"><ele>1224.0</ele><time>2026-05-01T11:09:08.884Z</time></trkpt><trkpt lat="44.1357982" lon="7.5671454"><ele>1224.0</ele><time>2026-05-01T11:09:09.884Z</time></trkpt><trkpt lat="44.1357032" lon="7.5671612"><ele>1224.0</ele><time>2026-05-01T11:09:10.884Z</time></trkpt><trkpt lat="44.1356302" lon="7.5672102"><ele>1226.8</ele><time>2026-05-01T11:09:11.884Z</time></trkpt><trkpt lat="44.1355561" lon="7.5672704"><ele>1229.6000000000001</ele><time>2026-05-01T11:09:12.884Z</time></trkpt><trkpt lat="44.1354809" lon="7.5673789"><ele>1232.4</ele><time>2026-05-01T11:09:13.884Z</time></trkpt><trkpt lat="44.1354054" lon="7.5674517"><ele>1235.2</ele><time>2026-05-01T11:09:14.884Z</time></trkpt><trkpt lat="44.1353027" lon="7.5675427"><ele>1238.0</ele><time>2026-05-01T11:09:15.884Z</time></trkpt><trkpt lat="44.135228" lon="7.5676029"><ele>1238.0</ele><time>2026-05-01T11:09:16.884Z</time></trkpt><trkpt lat="44.1351476" lon="7.5676742"><ele>1238.0</ele><time>2026-05-01T11:09:17.884Z</time></trkpt><trkpt lat="44.1350734" lon="7.5677398"><ele>1238.0</ele><time>2026-05-01T11:09:18.884Z</time></trkpt><trkpt lat="44.1349853" lon="7.5678005"><ele>1238.0</ele><time>2026-05-01T11:09:19.884Z</time></trkpt><trkpt lat="44.1348915" lon="7.5678384"><ele>1238.0</ele><time>2026-05-01T11:09:20.885Z</time></trkpt><trkpt lat="44.1347634" lon="7.5678426"><ele>1234.0</ele><time>2026-05-01T11:09:21.884Z</time></trkpt><trkpt lat="44.1346349" lon="7.5678442"><ele>1230.0</ele><time>2026-05-01T11:09:22.885Z</time></trkpt><trkpt lat="44.134524" lon="7.5677677"><ele>1226.0</ele><time>2026-05-01T11:09:23.885Z</time></trkpt><trkpt lat="44.134402" lon="7.5677175"><ele>1222.0</ele><time>2026-05-01T11:09:24.884Z</time></trkpt><trkpt lat="44.1342678" lon="7.5676244"><ele>1222.0</ele><time>2026-05-01T11:09:25.885Z</time></trkpt><trkpt lat="44.1341225" lon="7.5675544"><ele>1222.0</ele><time>2026-05-01T11:09:26.884Z</time></trkpt><trkpt lat="44.1339623" lon="7.5674727"><ele>1222.0</ele><time>2026-05-01T11:09:27.884Z</time></trkpt><trkpt lat="44.1338013" lon="7.567392"><ele>1209.0</ele><time>2026-05-01T11:09:28.884Z</time></trkpt><trkpt lat="44.133646" lon="7.5673183"><ele>1196.0</ele><time>2026-05-01T11:09:29.884Z</time></trkpt><trkpt lat="44.1334925" lon="7.5672306"><ele>1183.0</ele><time>2026-05-01T11:09:30.884Z</time></trkpt><trkpt lat="44.1333496" lon="7.5671652"><ele>1183.0</ele><time>2026-05-01T11:09:31.884Z</time></trkpt><trkpt lat="44.1332273" lon="7.5671241"><ele>1183.0</ele><time>2026-05-01T11:09:32.884Z</time></trkpt><trkpt lat="44.133109" lon="7.567061"><ele>1183.0</ele><time>2026-05-01T11:09:33.884Z</time></trkpt><trkpt lat="44.1329876" lon="7.5669804"><ele>1183.0</ele><time>2026-05-01T11:09:34.884Z</time></trkpt><trkpt lat="44.132864" lon="7.5669123"><ele>1184.0</ele><time>2026-05-01T11:09:35.884Z</time></trkpt><trkpt lat="44.1327249" lon="7.5668198"><ele>1185.0</ele><time>2026-05-01T11:09:36.884Z</time></trkpt><trkpt lat="44.1325781" lon="7.5666936"><ele>1186.0</ele><time>2026-05-01T11:09:37.884Z</time></trkpt><trkpt lat="44.1324622" lon="7.5666481"><ele>1187.0</ele><time>2026-05-01T11:09:38.884Z</time></trkpt><trkpt lat="44.1323407" lon="7.5666192"><ele>1187.0</ele><time>2026-05-01T11:09:39.884Z</time></trkpt><trkpt lat="44.1322031" lon="7.5666085"><ele>1187.0</ele><time>2026-05-01T11:09:40.884Z</time></trkpt><trkpt lat="44.1320694" lon="7.5665956"><ele>1187.0</ele><time>2026-05-01T11:09:41.884Z</time></trkpt><trkpt lat="44.1319444" lon="7.5665703"><ele>1187.0</ele><time>2026-05-01T11:09:42.884Z</time></trkpt><trkpt lat="44.1318312" lon="7.5665132"><ele>1187.0</ele><time>2026-05-01T11:09:43.884Z</time></trkpt><trkpt lat="44.1317149" lon="7.5664568"><ele>1187.0</ele><time>2026-05-01T11:09:44.884Z</time></trkpt><trkpt lat="44.1316105" lon="7.5663554"><ele>1187.0</ele><time>2026-05-01T11:09:45.884Z</time></trkpt><trkpt lat="44.131528" lon="7.5662276"><ele>1187.0</ele><time>2026-05-01T11:09:46.884Z</time></trkpt><trkpt lat="44.1314671" lon="7.5660747"><ele>1179.25</ele><time>2026-05-01T11:09:47.884Z</time></trkpt><trkpt lat="44.1314528" lon="7.5659252"><ele>1171.5</ele><time>2026-05-01T11:09:48.884Z</time></trkpt><trkpt lat="44.1314996" lon="7.5657177"><ele>1163.75</ele><time>2026-05-01T11:09:49.884Z</time></trkpt><trkpt lat="44.1314916" lon="7.5655597"><ele>1156.0</ele><time>2026-05-01T11:09:50.884Z</time></trkpt><trkpt lat="44.13148" lon="7.5653992"><ele>1159.8</ele><time>2026-05-01T11:09:51.884Z</time></trkpt><trkpt lat="44.131446" lon="7.5652743"><ele>1163.6</ele><time>2026-05-01T11:09:52.884Z</time></trkpt><trkpt lat="44.1314326" lon="7.565145"><ele>1167.4</ele><time>2026-05-01T11:09:53.884Z</time></trkpt><trkpt lat="44.1313757" lon="7.5650188"><ele>1171.2</ele><time>2026-05-01T11:09:54.885Z</time></trkpt><trkpt lat="44.1313145" lon="7.564917"><ele>1175.0</ele><time>2026-05-01T11:09:55.884Z</time></trkpt><trkpt lat="44.131229" lon="7.5648509"><ele>1175.0</ele><time>2026-05-01T11:09:56.884Z</time></trkpt><trkpt lat="44.1311226" lon="7.5647899"><ele>1175.0</ele><time>2026-05-01T11:09:57.884Z</time></trkpt><trkpt lat="44.1309623" lon="7.5648387"><ele>1175.0</ele><time>2026-05-01T11:09:58.884Z</time></trkpt><trkpt lat="44.1308321" lon="7.5648492"><ele>1175.0</ele><time>2026-05-01T11:09:59.884Z</time></trkpt><trkpt lat="44.1307243" lon="7.5648339"><ele>1173.4</ele><time>2026-05-01T11:10:00.884Z</time></trkpt><trkpt lat="44.1306012" lon="7.5648366"><ele>1171.8</ele><time>2026-05-01T11:10:01.884Z</time></trkpt><trkpt lat="44.1304923" lon="7.5648165"><ele>1170.2</ele><time>2026-05-01T11:10:02.884Z</time></trkpt><trkpt lat="44.1303982" lon="7.564765"><ele>1168.6</ele><time>2026-05-01T11:10:03.884Z</time></trkpt><trkpt lat="44.1303238" lon="7.5646759"><ele>1167.0</ele><time>2026-05-01T11:10:04.884Z</time></trkpt><trkpt lat="44.1302394" lon="7.5645057"><ele>1167.0</ele><time>2026-05-01T11:10:05.884Z</time></trkpt><trkpt lat="44.130188" lon="7.5643511"><ele>1167.0</ele><time>2026-05-01T11:10:06.884Z</time></trkpt><trkpt lat="44.1301356" lon="7.564182"><ele>1167.0</ele><time>2026-05-01T11:10:07.884Z</time></trkpt><trkpt lat="44.1300977" lon="7.5639647"><ele>1167.0</ele><time>2026-05-01T11:10:08.884Z</time></trkpt><trkpt lat="44.130039" lon="7.5638019"><ele>1162.5</ele><time>2026-05-01T11:10:09.884Z</time></trkpt><trkpt lat="44.129959" lon="7.5636603"><ele>1158.0</ele><time>2026-05-01T11:10:10.884Z</time></trkpt><trkpt lat="44.129885" lon="7.5635203"><ele>1153.5</ele><time>2026-05-01T11:10:11.884Z</time></trkpt><trkpt lat="44.129798" lon="7.5634007"><ele>1149.0</ele><time>2026-05-01T11:10:12.884Z</time></trkpt><trkpt lat="44.1296749" lon="7.5632683"><ele>1149.0</ele><time>2026-05-01T11:10:13.884Z</time></trkpt><trkpt lat="44.1294806" lon="7.5631516"><ele>1149.0</ele><time>2026-05-01T11:10:14.884Z</time></trkpt><trkpt lat="44.1293385" lon="7.5630253"><ele>1149.0</ele><time>2026-05-01T11:10:15.884Z</time></trkpt><trkpt lat="44.1291832" lon="7.5629127"><ele>1154.3333333333333</ele><time>2026-05-01T11:10:16.884Z</time></trkpt><trkpt lat="44.1290435" lon="7.5628067"><ele>1159.6666666666665</ele><time>2026-05-01T11:10:17.884Z</time></trkpt><trkpt lat="44.128908" lon="7.5626883"><ele>1165.0</ele><time>2026-05-01T11:10:18.884Z</time></trkpt><trkpt lat="44.1287682" lon="7.5626515"><ele>1165.0</ele><time>2026-05-01T11:10:19.884Z</time></trkpt><trkpt lat="44.1286295" lon="7.5626334"><ele>1165.0</ele><time>2026-05-01T11:10:20.884Z</time></trkpt><trkpt lat="44.1284994" lon="7.562635"><ele>1165.0</ele><time>2026-05-01T11:10:21.884Z</time></trkpt><trkpt lat="44.1283313" lon="7.5626848"><ele>1165.0</ele><time>2026-05-01T11:10:22.884Z</time></trkpt><trkpt lat="44.1281721" lon="7.5627092"><ele>1165.0</ele><time>2026-05-01T11:10:23.884Z</time></trkpt><trkpt lat="44.1280114" lon="7.5627305"><ele>1165.0</ele><time>2026-05-01T11:10:24.884Z</time></trkpt><trkpt lat="44.1278649" lon="7.5627126"><ele>1165.0</ele><time>2026-05-01T11:10:25.884Z</time></trkpt><trkpt lat="44.127719" lon="7.5627032"><ele>1165.0</ele><time>2026-05-01T11:10:26.884Z</time></trkpt><trkpt lat="44.127583" lon="7.562668"><ele>1165.0</ele><time>2026-05-01T11:10:27.884Z</time></trkpt><trkpt lat="44.1274581" lon="7.5626253"><ele>1165.0</ele><time>2026-05-01T11:10:28.884Z</time></trkpt><trkpt lat="44.1273345" lon="7.5625846"><ele>1165.0</ele><time>2026-05-01T11:10:29.884Z</time></trkpt><trkpt lat="44.1272252" lon="7.5625357"><ele>1164.5</ele><time>2026-05-01T11:10:30.884Z</time></trkpt><trkpt lat="44.1271395" lon="7.5625296"><ele>1164.0</ele><time>2026-05-01T11:10:31.884Z</time></trkpt><trkpt lat="44.1270759" lon="7.5625592"><ele>1163.5</ele><time>2026-05-01T11:10:32.884Z</time></trkpt><trkpt lat="44.1270078" lon="7.5626212"><ele>1163.0</ele><time>2026-05-01T11:10:33.885Z</time></trkpt><trkpt lat="44.1269418" lon="7.5627076"><ele>1162.5</ele><time>2026-05-01T11:10:34.884Z</time></trkpt><trkpt lat="44.1269359" lon="7.5628362"><ele>1162.0</ele><time>2026-05-01T11:10:35.884Z</time></trkpt><trkpt lat="44.1269431" lon="7.5629394"><ele>1160.0</ele><time>2026-05-01T11:10:36.884Z</time></trkpt><trkpt lat="44.1270146" lon="7.5630295"><ele>1158.0</ele><time>2026-05-01T11:10:37.884Z</time></trkpt><trkpt lat="44.1270847" lon="7.5630868"><ele>1156.0</ele><time>2026-05-01T11:10:38.884Z</time></trkpt><trkpt lat="44.1271971" lon="7.5631099"><ele>1154.0</ele><time>2026-05-01T11:10:39.884Z</time></trkpt><trkpt lat="44.1272925" lon="7.5631358"><ele>1152.0</ele><time>2026-05-01T11:10:40.884Z</time></trkpt><trkpt lat="44.1274103" lon="7.5631757"><ele>1152.0</ele><time>2026-05-01T11:10:41.884Z</time></trkpt><trkpt lat="44.1275878" lon="7.5631332"><ele>1152.0</ele><time>2026-05-01T11:10:42.884Z</time></trkpt><trkpt lat="44.127727" lon="7.5631577"><ele>1152.0</ele><time>2026-05-01T11:10:43.884Z</time></trkpt><trkpt lat="44.1278763" lon="7.5631844"><ele>1152.0</ele><time>2026-05-01T11:10:44.885Z</time></trkpt><trkpt lat="44.1280645" lon="7.5631432"><ele>1152.0</ele><time>2026-05-01T11:10:45.884Z</time></trkpt><trkpt lat="44.1282144" lon="7.5631709"><ele>1152.0</ele><time>2026-05-01T11:10:46.884Z</time></trkpt><trkpt lat="44.1283593" lon="7.5631897"><ele>1148.0</ele><time>2026-05-01T11:10:47.884Z</time></trkpt><trkpt lat="44.1285014" lon="7.5632213"><ele>1144.0</ele><time>2026-05-01T11:10:48.884Z</time></trkpt><trkpt lat="44.1286265" lon="7.5632061"><ele>1140.0</ele><time>2026-05-01T11:10:49.884Z</time></trkpt><trkpt lat="44.1287457" lon="7.563204"><ele>1136.0</ele><time>2026-05-01T11:10:50.884Z</time></trkpt><trkpt lat="44.1288283" lon="7.563226"><ele>1136.0</ele><time>2026-05-01T11:10:51.885Z</time></trkpt><trkpt lat="44.1288953" lon="7.5632755"><ele>1136.0</ele><time>2026-05-01T11:10:52.884Z</time></trkpt><trkpt lat="44.1288963" lon="7.563379"><ele>1136.0</ele><time>2026-05-01T11:10:53.884Z</time></trkpt><trkpt lat="44.1288507" lon="7.5635616"><ele>1136.0</ele><time>2026-05-01T11:10:55.884Z</time></trkpt><trkpt lat="44.1287439" lon="7.5635847"><ele>1136.0</ele><time>2026-05-01T11:10:56.884Z</time></trkpt><trkpt lat="44.1286383" lon="7.5635761"><ele>1136.0</ele><time>2026-05-01T11:10:57.884Z</time></trkpt><trkpt lat="44.1285282" lon="7.5635223"><ele>1136.0</ele><time>2026-05-01T11:10:58.884Z</time></trkpt><trkpt lat="44.1284137" lon="7.5635088"><ele>1136.0</ele><time>2026-05-01T11:10:59.884Z</time></trkpt><trkpt lat="44.1282857" lon="7.5634539"><ele>1136.0</ele><time>2026-05-01T11:11:00.884Z</time></trkpt><trkpt lat="44.1281881" lon="7.5634068"><ele>1138.6666666666667</ele><time>2026-05-01T11:11:01.884Z</time></trkpt><trkpt lat="44.1280918" lon="7.5633821"><ele>1141.3333333333335</ele><time>2026-05-01T11:11:02.884Z</time></trkpt><trkpt lat="44.1280012" lon="7.5633914"><ele>1144.0</ele><time>2026-05-01T11:11:03.884Z</time></trkpt><trkpt lat="44.1279205" lon="7.5634016"><ele>1146.6666666666667</ele><time>2026-05-01T11:11:04.884Z</time></trkpt><trkpt lat="44.1278698" lon="7.5634935"><ele>1149.3333333333333</ele><time>2026-05-01T11:11:05.884Z</time></trkpt><trkpt lat="44.1278536" lon="7.5635999"><ele>1152.0</ele><time>2026-05-01T11:11:06.884Z</time></trkpt><trkpt lat="44.1278729" lon="7.5637051"><ele>1150.2</ele><time>2026-05-01T11:11:07.884Z</time></trkpt><trkpt lat="44.1278953" lon="7.5638021"><ele>1148.4</ele><time>2026-05-01T11:11:08.884Z</time></trkpt><trkpt lat="44.1279546" lon="7.5638877"><ele>1146.6</ele><time>2026-05-01T11:11:09.884Z</time></trkpt><trkpt lat="44.1280512" lon="7.5639522"><ele>1144.8</ele><time>2026-05-01T11:11:10.884Z</time></trkpt><trkpt lat="44.1281907" lon="7.5639864"><ele>1143.0</ele><time>2026-05-01T11:11:11.884Z</time></trkpt><trkpt lat="44.1283287" lon="7.5640081"><ele>1143.0</ele><time>2026-05-01T11:11:12.884Z</time></trkpt><trkpt lat="44.1284831" lon="7.5640142"><ele>1143.0</ele><time>2026-05-01T11:11:13.884Z</time></trkpt><trkpt lat="44.1286402" lon="7.5640245"><ele>1143.0</ele><time>2026-05-01T11:11:14.884Z</time></trkpt><trkpt lat="44.1287901" lon="7.5640335"><ele>1143.0</ele><time>2026-05-01T11:11:15.884Z</time></trkpt><trkpt lat="44.1289399" lon="7.5640534"><ele>1143.0</ele><time>2026-05-01T11:11:16.884Z</time></trkpt><trkpt lat="44.1290661" lon="7.5641133"><ele>1143.0</ele><time>2026-05-01T11:11:17.884Z</time></trkpt><trkpt lat="44.1291934" lon="7.5641977"><ele>1143.0</ele><time>2026-05-01T11:11:18.884Z</time></trkpt><trkpt lat="44.1292852" lon="7.5643284"><ele>1139.5</ele><time>2026-05-01T11:11:19.885Z</time></trkpt><trkpt lat="44.1293554" lon="7.5644744"><ele>1136.0</ele><time>2026-05-01T11:11:20.884Z</time></trkpt><trkpt lat="44.1294127" lon="7.5646324"><ele>1132.5</ele><time>2026-05-01T11:11:21.884Z</time></trkpt><trkpt lat="44.1294572" lon="7.5647905"><ele>1129.0</ele><time>2026-05-01T11:11:22.884Z</time></trkpt><trkpt lat="44.1294872" lon="7.5649483"><ele>1126.0</ele><time>2026-05-01T11:11:23.884Z</time></trkpt><trkpt lat="44.1295157" lon="7.5651177"><ele>1123.0</ele><time>2026-05-01T11:11:24.884Z</time></trkpt><trkpt lat="44.1295556" lon="7.5652775"><ele>1120.0</ele><time>2026-05-01T11:11:25.885Z</time></trkpt><trkpt lat="44.1296096" lon="7.5654214"><ele>1117.0</ele><time>2026-05-01T11:11:26.884Z</time></trkpt><trkpt lat="44.1296993" lon="7.5655223"><ele>1117.0</ele><time>2026-05-01T11:11:27.884Z</time></trkpt><trkpt lat="44.1297912" lon="7.5656086"><ele>1117.0</ele><time>2026-05-01T11:11:28.884Z</time></trkpt><trkpt lat="44.1298996" lon="7.5656795"><ele>1117.0</ele><time>2026-05-01T11:11:29.884Z</time></trkpt><trkpt lat="44.1300193" lon="7.5657559"><ele>1117.0</ele><time>2026-05-01T11:11:30.884Z</time></trkpt><trkpt lat="44.1301317" lon="7.5658353"><ele>1117.0</ele><time>2026-05-01T11:11:31.884Z</time></trkpt><trkpt lat="44.1302125" lon="7.5659244"><ele>1117.0</ele><time>2026-05-01T11:11:32.884Z</time></trkpt><trkpt lat="44.130277" lon="7.5660248"><ele>1117.0</ele><time>2026-05-01T11:11:33.884Z</time></trkpt><trkpt lat="44.1303281" lon="7.5661421"><ele>1117.0</ele><time>2026-05-01T11:11:34.884Z</time></trkpt><trkpt lat="44.1303344" lon="7.5662624"><ele>1117.0</ele><time>2026-05-01T11:11:35.884Z</time></trkpt><trkpt lat="44.1303304" lon="7.5663753"><ele>1115.8</ele><time>2026-05-01T11:11:36.884Z</time></trkpt><trkpt lat="44.1302823" lon="7.5664582"><ele>1114.6</ele><time>2026-05-01T11:11:38.884Z</time></trkpt><trkpt lat="44.1301876" lon="7.5664952"><ele>1113.3999999999999</ele><time>2026-05-01T11:11:39.884Z</time></trkpt><trkpt lat="44.1300815" lon="7.56648"><ele>1112.2</ele><time>2026-05-01T11:11:40.884Z</time></trkpt><trkpt lat="44.130001" lon="7.5664084"><ele>1111.0</ele><time>2026-05-01T11:11:41.884Z</time></trkpt><trkpt lat="44.1299218" lon="7.5663592"><ele>1108.8</ele><time>2026-05-01T11:11:42.884Z</time></trkpt><trkpt lat="44.1298619" lon="7.566228"><ele>1106.6</ele><time>2026-05-01T11:11:43.884Z</time></trkpt><trkpt lat="44.1298004" lon="7.566104"><ele>1104.4</ele><time>2026-05-01T11:11:44.884Z</time></trkpt><trkpt lat="44.1297255" lon="7.5659967"><ele>1102.2</ele><time>2026-05-01T11:11:45.884Z</time></trkpt><trkpt lat="44.1296652" lon="7.565886"><ele>1100.0</ele><time>2026-05-01T11:11:46.884Z</time></trkpt><trkpt lat="44.129595" lon="7.5657724"><ele>1100.0</ele><time>2026-05-01T11:11:47.884Z</time></trkpt><trkpt lat="44.1295251" lon="7.5656839"><ele>1100.0</ele><time>2026-05-01T11:11:48.884Z</time></trkpt><trkpt lat="44.1294415" lon="7.5656028"><ele>1100.0</ele><time>2026-05-01T11:11:49.885Z</time></trkpt><trkpt lat="44.1293481" lon="7.5655278"><ele>1100.0</ele><time>2026-05-01T11:11:50.884Z</time></trkpt><trkpt lat="44.1292592" lon="7.5654984"><ele>1100.0</ele><time>2026-05-01T11:11:51.884Z</time></trkpt><trkpt lat="44.1291455" lon="7.5655434"><ele>1108.0</ele><time>2026-05-01T11:11:52.884Z</time></trkpt><trkpt lat="44.1290523" lon="7.5656023"><ele>1116.0</ele><time>2026-05-01T11:11:53.884Z</time></trkpt><trkpt lat="44.1289544" lon="7.5656661"><ele>1124.0</ele><time>2026-05-01T11:11:54.884Z</time></trkpt><trkpt lat="44.1288868" lon="7.5657356"><ele>1132.0</ele><time>2026-05-01T11:11:55.884Z</time></trkpt><trkpt lat="44.1288214" lon="7.565853"><ele>1140.0</ele><time>2026-05-01T11:11:56.884Z</time></trkpt><trkpt lat="44.1287566" lon="7.5660266"><ele>1131.25</ele><time>2026-05-01T11:11:57.884Z</time></trkpt><trkpt lat="44.1287014" lon="7.5661985"><ele>1122.5</ele><time>2026-05-01T11:11:58.884Z</time></trkpt><trkpt lat="44.1286509" lon="7.5663419"><ele>1113.75</ele><time>2026-05-01T11:11:59.884Z</time></trkpt><trkpt lat="44.1285927" lon="7.5664789"><ele>1105.0</ele><time>2026-05-01T11:12:00.884Z</time></trkpt><trkpt lat="44.1285424" lon="7.5666345"><ele>1105.0</ele><time>2026-05-01T11:12:01.884Z</time></trkpt><trkpt lat="44.1285003" lon="7.5667847"><ele>1105.0</ele><time>2026-05-01T11:12:02.884Z</time></trkpt><trkpt lat="44.1283778" lon="7.5669306"><ele>1105.0</ele><time>2026-05-01T11:12:03.884Z</time></trkpt><trkpt lat="44.1282834" lon="7.5670554"><ele>1105.0</ele><time>2026-05-01T11:12:04.884Z</time></trkpt><trkpt lat="44.1282255" lon="7.5672037"><ele>1100.4</ele><time>2026-05-01T11:12:05.884Z</time></trkpt><trkpt lat="44.1281474" lon="7.5672985"><ele>1095.8</ele><time>2026-05-01T11:12:06.884Z</time></trkpt><trkpt lat="44.1280906" lon="7.5673578"><ele>1091.2</ele><time>2026-05-01T11:12:07.884Z</time></trkpt><trkpt lat="44.1280025" lon="7.5673743"><ele>1086.6</ele><time>2026-05-01T11:12:08.884Z</time></trkpt><trkpt lat="44.1278301" lon="7.5672987"><ele>1082.0</ele><time>2026-05-01T11:12:09.884Z</time></trkpt><trkpt lat="44.1277031" lon="7.5672642"><ele>1082.0</ele><time>2026-05-01T11:12:10.884Z</time></trkpt><trkpt lat="44.1275393" lon="7.5672078"><ele>1082.0</ele><time>2026-05-01T11:12:11.884Z</time></trkpt><trkpt lat="44.1273879" lon="7.5671643"><ele>1082.0</ele><time>2026-05-01T11:12:12.884Z</time></trkpt><trkpt lat="44.1272393" lon="7.5671434"><ele>1078.75</ele><time>2026-05-01T11:12:13.885Z</time></trkpt><trkpt lat="44.1270938" lon="7.567142"><ele>1075.5</ele><time>2026-05-01T11:12:14.884Z</time></trkpt><trkpt lat="44.126946" lon="7.5671461"><ele>1072.25</ele><time>2026-05-01T11:12:15.884Z</time></trkpt><trkpt lat="44.1268046" lon="7.5671594"><ele>1069.0</ele><time>2026-05-01T11:12:16.884Z</time></trkpt><trkpt lat="44.1266655" lon="7.5671775"><ele>1071.0</ele><time>2026-05-01T11:12:17.884Z</time></trkpt><trkpt lat="44.1265284" lon="7.5672301"><ele>1073.0</ele><time>2026-05-01T11:12:18.885Z</time></trkpt><trkpt lat="44.1263953" lon="7.5672908"><ele>1075.0</ele><time>2026-05-01T11:12:19.884Z</time></trkpt><trkpt lat="44.1262925" lon="7.5673583"><ele>1077.0</ele><time>2026-05-01T11:12:20.884Z</time></trkpt><trkpt lat="44.1261964" lon="7.5674401"><ele>1077.0</ele><time>2026-05-01T11:12:21.884Z</time></trkpt><trkpt lat="44.1260802" lon="7.5675235"><ele>1077.0</ele><time>2026-05-01T11:12:22.884Z</time></trkpt><trkpt lat="44.1259185" lon="7.5675701"><ele>1077.0</ele><time>2026-05-01T11:12:23.884Z</time></trkpt><trkpt lat="44.1257827" lon="7.5676014"><ele>1077.0</ele><time>2026-05-01T11:12:24.884Z</time></trkpt><trkpt lat="44.1256176" lon="7.5676205"><ele>1073.3333333333333</ele><time>2026-05-01T11:12:25.884Z</time></trkpt><trkpt lat="44.1254612" lon="7.5676189"><ele>1069.6666666666665</ele><time>2026-05-01T11:12:26.884Z</time></trkpt><trkpt lat="44.1252909" lon="7.5676067"><ele>1066.0</ele><time>2026-05-01T11:12:27.884Z</time></trkpt><trkpt lat="44.125111" lon="7.5675622"><ele>1060.5</ele><time>2026-05-01T11:12:28.884Z</time></trkpt><trkpt lat="44.1248908" lon="7.5674488"><ele>1055.0</ele><time>2026-05-01T11:12:29.884Z</time></trkpt><trkpt lat="44.1246764" lon="7.5673716"><ele>1055.0</ele><time>2026-05-01T11:12:30.884Z</time></trkpt><trkpt lat="44.1244831" lon="7.5672941"><ele>1055.0</ele><time>2026-05-01T11:12:31.884Z</time></trkpt><trkpt lat="44.1242961" lon="7.5672241"><ele>1055.0</ele><time>2026-05-01T11:12:32.884Z</time></trkpt><trkpt lat="44.1240907" lon="7.5671736"><ele>1052.6666666666667</ele><time>2026-05-01T11:12:33.884Z</time></trkpt><trkpt lat="44.1239079" lon="7.5671052"><ele>1050.3333333333333</ele><time>2026-05-01T11:12:34.884Z</time></trkpt><trkpt lat="44.1237228" lon="7.5670515"><ele>1048.0</ele><time>2026-05-01T11:12:35.884Z</time></trkpt><trkpt lat="44.1235278" lon="7.5670334"><ele>1044.3333333333333</ele><time>2026-05-01T11:12:36.884Z</time></trkpt><trkpt lat="44.1233338" lon="7.5670208"><ele>1040.6666666666667</ele><time>2026-05-01T11:12:37.884Z</time></trkpt><trkpt lat="44.1231308" lon="7.567067"><ele>1037.0</ele><time>2026-05-01T11:12:38.884Z</time></trkpt><trkpt lat="44.1229274" lon="7.5671155"><ele>1037.0</ele><time>2026-05-01T11:12:39.884Z</time></trkpt><trkpt lat="44.1227378" lon="7.5671399"><ele>1037.0</ele><time>2026-05-01T11:12:40.884Z</time></trkpt><trkpt lat="44.122568" lon="7.5671688"><ele>1037.0</ele><time>2026-05-01T11:12:41.884Z</time></trkpt><trkpt lat="44.1223896" lon="7.5672127"><ele>1034.0</ele><time>2026-05-01T11:12:42.884Z</time></trkpt><trkpt lat="44.1222096" lon="7.5672903"><ele>1031.0</ele><time>2026-05-01T11:12:43.884Z</time></trkpt><trkpt lat="44.1220254" lon="7.5673676"><ele>1028.0</ele><time>2026-05-01T11:12:44.884Z</time></trkpt><trkpt lat="44.1218816" lon="7.567456"><ele>1028.0</ele><time>2026-05-01T11:12:45.884Z</time></trkpt><trkpt lat="44.1217323" lon="7.567528"><ele>1028.0</ele><time>2026-05-01T11:12:46.884Z</time></trkpt><trkpt lat="44.121583" lon="7.5676024"><ele>1028.0</ele><time>2026-05-01T11:12:47.884Z</time></trkpt><trkpt lat="44.1214637" lon="7.5676053"><ele>1028.0</ele><time>2026-05-01T11:12:48.884Z</time></trkpt><trkpt lat="44.1213219" lon="7.5676216"><ele>1023.75</ele><time>2026-05-01T11:12:49.884Z</time></trkpt><trkpt lat="44.1212122" lon="7.5675362"><ele>1019.5</ele><time>2026-05-01T11:12:50.884Z</time></trkpt><trkpt lat="44.1211095" lon="7.5673843"><ele>1015.25</ele><time>2026-05-01T11:12:51.884Z</time></trkpt><trkpt lat="44.1209837" lon="7.5672516"><ele>1011.0</ele><time>2026-05-01T11:12:52.884Z</time></trkpt><trkpt lat="44.1208495" lon="7.5671536"><ele>1012.6666666666667</ele><time>2026-05-01T11:12:53.884Z</time></trkpt><trkpt lat="44.1207019" lon="7.5670659"><ele>1014.3333333333334</ele><time>2026-05-01T11:12:54.884Z</time></trkpt><trkpt lat="44.1205486" lon="7.5670041"><ele>1016.0</ele><time>2026-05-01T11:12:55.884Z</time></trkpt><trkpt lat="44.1203988" lon="7.5669323"><ele>1016.0</ele><time>2026-05-01T11:12:56.884Z</time></trkpt><trkpt lat="44.1202399" lon="7.5668908"><ele>1016.0</ele><time>2026-05-01T11:12:57.884Z</time></trkpt><trkpt lat="44.1200921" lon="7.5668351"><ele>1016.0</ele><time>2026-05-01T11:12:58.884Z</time></trkpt><trkpt lat="44.1199497" lon="7.5667806"><ele>1012.75</ele><time>2026-05-01T11:12:59.884Z</time></trkpt><trkpt lat="44.1197992" lon="7.5667313"><ele>1009.5</ele><time>2026-05-01T11:13:00.884Z</time></trkpt><trkpt lat="44.1196648" lon="7.5666782"><ele>1006.25</ele><time>2026-05-01T11:13:01.884Z</time></trkpt><trkpt lat="44.1195481" lon="7.5666152"><ele>1003.0</ele><time>2026-05-01T11:13:02.884Z</time></trkpt><trkpt lat="44.1194123" lon="7.5665658"><ele>1003.0</ele><time>2026-05-01T11:13:03.885Z</time></trkpt><trkpt lat="44.1192889" lon="7.5665374"><ele>1003.0</ele><time>2026-05-01T11:13:04.884Z</time></trkpt><trkpt lat="44.1191652" lon="7.5665229"><ele>1003.0</ele><time>2026-05-01T11:13:05.884Z</time></trkpt><trkpt lat="44.1190385" lon="7.5665459"><ele>1003.0</ele><time>2026-05-01T11:13:06.884Z</time></trkpt><trkpt lat="44.1189057" lon="7.5665494"><ele>1001.25</ele><time>2026-05-01T11:13:07.884Z</time></trkpt><trkpt lat="44.1187893" lon="7.5665407"><ele>999.5</ele><time>2026-05-01T11:13:08.884Z</time></trkpt><trkpt lat="44.1186626" lon="7.5665653"><ele>997.75</ele><time>2026-05-01T11:13:09.884Z</time></trkpt><trkpt lat="44.1185514" lon="7.5665834"><ele>996.0</ele><time>2026-05-01T11:13:10.884Z</time></trkpt><trkpt lat="44.1184364" lon="7.5666019"><ele>996.0</ele><time>2026-05-01T11:13:11.884Z</time></trkpt><trkpt lat="44.11837" lon="7.5665907"><ele>996.0</ele><time>2026-05-01T11:13:12.884Z</time></trkpt><trkpt lat="44.1182997" lon="7.5665918"><ele>996.0</ele><time>2026-05-01T11:13:13.884Z</time></trkpt><trkpt lat="44.1182354" lon="7.566586"><ele>996.0</ele><time>2026-05-01T11:13:14.884Z</time></trkpt><trkpt lat="44.1181303" lon="7.5665518"><ele>996.0</ele><time>2026-05-01T11:13:16.884Z</time></trkpt><trkpt lat="44.1180398" lon="7.5664977"><ele>996.0</ele><time>2026-05-01T11:13:18.884Z</time></trkpt><trkpt lat="44.1179599" lon="7.566442"><ele>994.8</ele><time>2026-05-01T11:13:19.884Z</time></trkpt><trkpt lat="44.1178703" lon="7.5663891"><ele>993.5999999999999</ele><time>2026-05-01T11:13:20.884Z</time></trkpt><trkpt lat="44.1177679" lon="7.5663363"><ele>992.4</ele><time>2026-05-01T11:13:21.884Z</time></trkpt><trkpt lat="44.1176545" lon="7.5662843"><ele>991.2</ele><time>2026-05-01T11:13:22.884Z</time></trkpt><trkpt lat="44.1175395" lon="7.5662579"><ele>990.0</ele><time>2026-05-01T11:13:23.884Z</time></trkpt><trkpt lat="44.1174294" lon="7.5662167"><ele>990.4</ele><time>2026-05-01T11:13:24.884Z</time></trkpt><trkpt lat="44.1173224" lon="7.5661905"><ele>990.8</ele><time>2026-05-01T11:13:25.884Z</time></trkpt><trkpt lat="44.1172162" lon="7.5661596"><ele>991.2</ele><time>2026-05-01T11:13:26.884Z</time></trkpt><trkpt lat="44.1171132" lon="7.566128"><ele>991.6</ele><time>2026-05-01T11:13:27.884Z</time></trkpt><trkpt lat="44.1170147" lon="7.5660981"><ele>992.0</ele><time>2026-05-01T11:13:28.884Z</time></trkpt><trkpt lat="44.1169179" lon="7.5660555"><ele>992.0</ele><time>2026-05-01T11:13:29.884Z</time></trkpt><trkpt lat="44.1168129" lon="7.5660072"><ele>992.0</ele><time>2026-05-01T11:13:30.884Z</time></trkpt><trkpt lat="44.1167259" lon="7.5659551"><ele>992.0</ele><time>2026-05-01T11:13:31.884Z</time></trkpt><trkpt lat="44.116633" lon="7.5658975"><ele>992.0</ele><time>2026-05-01T11:13:32.884Z</time></trkpt><trkpt lat="44.1165399" lon="7.5658529"><ele>992.0</ele><time>2026-05-01T11:13:33.884Z</time></trkpt><trkpt lat="44.1164531" lon="7.5657958"><ele>990.1666666666667</ele><time>2026-05-01T11:13:34.884Z</time></trkpt><trkpt lat="44.1163563" lon="7.5657475"><ele>988.3333333333334</ele><time>2026-05-01T11:13:35.884Z</time></trkpt><trkpt lat="44.1162848" lon="7.5657061"><ele>986.5</ele><time>2026-05-01T11:13:36.884Z</time></trkpt><trkpt lat="44.1162051" lon="7.5656525"><ele>984.6666666666667</ele><time>2026-05-01T11:13:37.884Z</time></trkpt><trkpt lat="44.1161296" lon="7.565599"><ele>982.8333333333334</ele><time>2026-05-01T11:13:38.884Z</time></trkpt><trkpt lat="44.1160471" lon="7.5655534"><ele>981.0</ele><time>2026-05-01T11:13:39.884Z</time></trkpt><trkpt lat="44.1159727" lon="7.5654852"><ele>981.0</ele><time>2026-05-01T11:13:40.884Z</time></trkpt><trkpt lat="44.1158984" lon="7.565422"><ele>980.9999999999999</ele><time>2026-05-01T11:13:41.884Z</time></trkpt><trkpt lat="44.1158298" lon="7.5653347"><ele>980.9999999999999</ele><time>2026-05-01T11:13:42.884Z</time></trkpt><trkpt lat="44.1157572" lon="7.5652457"><ele>981.0</ele><time>2026-05-01T11:13:43.884Z</time></trkpt><trkpt lat="44.1156813" lon="7.5651449"><ele>981.0</ele><time>2026-05-01T11:13:44.884Z</time></trkpt><trkpt lat="44.1156145" lon="7.56505"><ele>980.1999999999999</ele><time>2026-05-01T11:13:45.884Z</time></trkpt><trkpt lat="44.1155624" lon="7.5649397"><ele>979.3999999999999</ele><time>2026-05-01T11:13:46.884Z</time></trkpt><trkpt lat="44.1155204" lon="7.5648645"><ele>978.6</ele><time>2026-05-01T11:13:47.884Z</time></trkpt><trkpt lat="44.1154215" lon="7.564745"><ele>977.8</ele><time>2026-05-01T11:13:49.883Z</time></trkpt><trkpt lat="44.1153275" lon="7.5646478"><ele>977.0</ele><time>2026-05-01T11:13:51.887Z</time></trkpt><trkpt lat="44.1152214" lon="7.5645577"><ele>976.1666666666667</ele><time>2026-05-01T11:13:53.886Z</time></trkpt><trkpt lat="44.1151634" lon="7.564512"><ele>975.3333333333334</ele><time>2026-05-01T11:13:54.884Z</time></trkpt><trkpt lat="44.1150845" lon="7.5644878"><ele>974.5</ele><time>2026-05-01T11:13:55.884Z</time></trkpt><trkpt lat="44.1150134" lon="7.5644778"><ele>973.6666666666667</ele><time>2026-05-01T11:13:56.884Z</time></trkpt><trkpt lat="44.1148709" lon="7.5645343"><ele>972.8333333333334</ele><time>2026-05-01T11:13:58.884Z</time></trkpt><trkpt lat="44.1148032" lon="7.564577"><ele>972.0</ele><time>2026-05-01T11:13:59.884Z</time></trkpt><trkpt lat="44.1147448" lon="7.5646262"><ele>972.0</ele><time>2026-05-01T11:14:00.884Z</time></trkpt><trkpt lat="44.1146828" lon="7.5647133"><ele>972.0</ele><time>2026-05-01T11:14:01.884Z</time></trkpt><trkpt lat="44.1145977" lon="7.5648522"><ele>972.0</ele><time>2026-05-01T11:14:03.884Z</time></trkpt><trkpt lat="44.1145557" lon="7.5649286"><ele>972.0</ele><time>2026-05-01T11:14:04.884Z</time></trkpt><trkpt lat="44.1144149" lon="7.5652067"><ele>972.0</ele><time>2026-05-01T11:14:07.883Z</time></trkpt><trkpt lat="44.1143264" lon="7.5653116"><ele>972.0</ele><time>2026-05-01T11:14:09.884Z</time></trkpt><trkpt lat="44.1142193" lon="7.5653797"><ele>972.0</ele><time>2026-05-01T11:14:10.885Z</time></trkpt><trkpt lat="44.1141389" lon="7.5654389"><ele>972.0</ele><time>2026-05-01T11:14:11.885Z</time></trkpt><trkpt lat="44.1140544" lon="7.5654307"><ele>972.0</ele><time>2026-05-01T11:14:12.885Z</time></trkpt><trkpt lat="44.1139524" lon="7.5654253"><ele>970.4000000000001</ele><time>2026-05-01T11:14:13.884Z</time></trkpt><trkpt lat="44.1138557" lon="7.5654066"><ele>968.8000000000001</ele><time>2026-05-01T11:14:14.884Z</time></trkpt><trkpt lat="44.1137508" lon="7.5653787"><ele>967.2</ele><time>2026-05-01T11:14:15.884Z</time></trkpt><trkpt lat="44.1136535" lon="7.565342"><ele>965.6</ele><time>2026-05-01T11:14:16.884Z</time></trkpt><trkpt lat="44.1135582" lon="7.5652923"><ele>964.0</ele><time>2026-05-01T11:14:17.884Z</time></trkpt><trkpt lat="44.1134635" lon="7.5652464"><ele>964.0</ele><time>2026-05-01T11:14:18.884Z</time></trkpt><trkpt lat="44.1133658" lon="7.565201"><ele>964.0000000000001</ele><time>2026-05-01T11:14:19.884Z</time></trkpt><trkpt lat="44.1132552" lon="7.5652075"><ele>964.0000000000001</ele><time>2026-05-01T11:14:20.884Z</time></trkpt><trkpt lat="44.1131437" lon="7.5652242"><ele>964.0</ele><time>2026-05-01T11:14:21.884Z</time></trkpt><trkpt lat="44.113026" lon="7.5652711"><ele>964.0</ele><time>2026-05-01T11:14:22.884Z</time></trkpt><trkpt lat="44.112926" lon="7.5653339"><ele>962.4000000000001</ele><time>2026-05-01T11:14:23.884Z</time></trkpt><trkpt lat="44.1128322" lon="7.5654071"><ele>960.8000000000001</ele><time>2026-05-01T11:14:24.884Z</time></trkpt><trkpt lat="44.1127316" lon="7.5654757"><ele>959.1999999999999</ele><time>2026-05-01T11:14:25.885Z</time></trkpt><trkpt lat="44.1126292" lon="7.5655532"><ele>957.5999999999999</ele><time>2026-05-01T11:14:26.884Z</time></trkpt><trkpt lat="44.1125377" lon="7.565618"><ele>956.0</ele><time>2026-05-01T11:14:27.884Z</time></trkpt><trkpt lat="44.1124517" lon="7.5656725"><ele>954.8</ele><time>2026-05-01T11:14:28.884Z</time></trkpt><trkpt lat="44.112371" lon="7.5657242"><ele>953.5999999999999</ele><time>2026-05-01T11:14:29.884Z</time></trkpt><trkpt lat="44.1122879" lon="7.5657666"><ele>952.4</ele><time>2026-05-01T11:14:30.884Z</time></trkpt><trkpt lat="44.1122004" lon="7.5657872"><ele>951.2</ele><time>2026-05-01T11:14:31.884Z</time></trkpt><trkpt lat="44.1121002" lon="7.5658113"><ele>950.0</ele><time>2026-05-01T11:14:32.884Z</time></trkpt><trkpt lat="44.1119912" lon="7.5658254"><ele>950.0000000000001</ele><time>2026-05-01T11:14:33.884Z</time></trkpt><trkpt lat="44.1119024" lon="7.5658249"><ele>950.0</ele><time>2026-05-01T11:14:34.885Z</time></trkpt><trkpt lat="44.1118029" lon="7.5658445"><ele>950.0</ele><time>2026-05-01T11:14:35.884Z</time></trkpt><trkpt lat="44.1117237" lon="7.5658523"><ele>950.0</ele><time>2026-05-01T11:14:36.885Z</time></trkpt><trkpt lat="44.1116446" lon="7.5658872"><ele>950.0000000000001</ele><time>2026-05-01T11:14:37.884Z</time></trkpt><trkpt lat="44.1115657" lon="7.5658969"><ele>950.0</ele><time>2026-05-01T11:14:38.884Z</time></trkpt><trkpt lat="44.1114868" lon="7.5659062"><ele>948.5000000000001</ele><time>2026-05-01T11:14:39.884Z</time></trkpt><trkpt lat="44.1114026" lon="7.5659128"><ele>947.0</ele><time>2026-05-01T11:14:40.884Z</time></trkpt><trkpt lat="44.1113264" lon="7.5659406"><ele>945.5</ele><time>2026-05-01T11:14:41.884Z</time></trkpt><trkpt lat="44.111245" lon="7.5659642"><ele>944.0</ele><time>2026-05-01T11:14:42.884Z</time></trkpt><trkpt lat="44.1111673" lon="7.5659949"><ele>942.5000000000001</ele><time>2026-05-01T11:14:43.884Z</time></trkpt><trkpt lat="44.1110805" lon="7.566015"><ele>941.0</ele><time>2026-05-01T11:14:44.884Z</time></trkpt><trkpt lat="44.1109835" lon="7.5660493"><ele>941.0</ele><time>2026-05-01T11:14:45.885Z</time></trkpt><trkpt lat="44.1108915" lon="7.5660822"><ele>940.9999999999999</ele><time>2026-05-01T11:14:46.884Z</time></trkpt><trkpt lat="44.1108144" lon="7.5661279"><ele>940.9999999999999</ele><time>2026-05-01T11:14:47.884Z</time></trkpt><trkpt lat="44.1107221" lon="7.5662217"><ele>941.0</ele><time>2026-05-01T11:14:48.884Z</time></trkpt><trkpt lat="44.1106249" lon="7.5663019"><ele>941.0</ele><time>2026-05-01T11:14:49.884Z</time></trkpt><trkpt lat="44.1105297" lon="7.56639"><ele>940.5</ele><time>2026-05-01T11:14:50.884Z</time></trkpt><trkpt lat="44.1104318" lon="7.5664892"><ele>940.0</ele><time>2026-05-01T11:14:51.884Z</time></trkpt><trkpt lat="44.1103377" lon="7.5666005"><ele>939.5</ele><time>2026-05-01T11:14:52.884Z</time></trkpt><trkpt lat="44.1102581" lon="7.5667229"><ele>939.0</ele><time>2026-05-01T11:14:53.884Z</time></trkpt><trkpt lat="44.1101868" lon="7.5668466"><ele>939.0</ele><time>2026-05-01T11:14:54.884Z</time></trkpt><trkpt lat="44.1101265" lon="7.566959"><ele>939.0</ele><time>2026-05-01T11:14:55.885Z</time></trkpt><trkpt lat="44.1100945" lon="7.5671171"><ele>939.0</ele><time>2026-05-01T11:14:56.884Z</time></trkpt><trkpt lat="44.1100645" lon="7.5672842"><ele>939.0</ele><time>2026-05-01T11:14:57.884Z</time></trkpt><trkpt lat="44.1100676" lon="7.5674861"><ele>938.75</ele><time>2026-05-01T11:14:58.884Z</time></trkpt><trkpt lat="44.110049" lon="7.5676764"><ele>938.5</ele><time>2026-05-01T11:14:59.884Z</time></trkpt><trkpt lat="44.1100482" lon="7.5678757"><ele>938.25</ele><time>2026-05-01T11:15:00.884Z</time></trkpt><trkpt lat="44.1100231" lon="7.5680645"><ele>938.0</ele><time>2026-05-01T11:15:01.884Z</time></trkpt><trkpt lat="44.1100061" lon="7.5682166"><ele>938.0</ele><time>2026-05-01T11:15:02.884Z</time></trkpt><trkpt lat="44.109993" lon="7.5683916"><ele>938.0</ele><time>2026-05-01T11:15:03.884Z</time></trkpt><trkpt lat="44.1099659" lon="7.5685484"><ele>938.0</ele><time>2026-05-01T11:15:04.884Z</time></trkpt><trkpt lat="44.1099464" lon="7.5686946"><ele>938.0</ele><time>2026-05-01T11:15:05.884Z</time></trkpt><trkpt lat="44.1099176" lon="7.5688205"><ele>938.0</ele><time>2026-05-01T11:15:06.884Z</time></trkpt><trkpt lat="44.1098907" lon="7.5689737"><ele>937.5</ele><time>2026-05-01T11:15:07.884Z</time></trkpt><trkpt lat="44.1098022" lon="7.5691162"><ele>937.0</ele><time>2026-05-01T11:15:08.884Z</time></trkpt><trkpt lat="44.1097264" lon="7.5692649"><ele>936.5</ele><time>2026-05-01T11:15:09.884Z</time></trkpt><trkpt lat="44.1096138" lon="7.5693358"><ele>936.0</ele><time>2026-05-01T11:15:10.884Z</time></trkpt><trkpt lat="44.1095194" lon="7.5694134"><ele>936.0</ele><time>2026-05-01T11:15:11.884Z</time></trkpt><trkpt lat="44.1094204" lon="7.5694807"><ele>935.9999999999999</ele><time>2026-05-01T11:15:12.884Z</time></trkpt><trkpt lat="44.1093258" lon="7.5695431"><ele>935.9999999999999</ele><time>2026-05-01T11:15:13.884Z</time></trkpt><trkpt lat="44.1092276" lon="7.5696085"><ele>936.0</ele><time>2026-05-01T11:15:14.884Z</time></trkpt><trkpt lat="44.1091177" lon="7.5696624"><ele>936.0</ele><time>2026-05-01T11:15:15.884Z</time></trkpt><trkpt lat="44.1089958" lon="7.5696819"><ele>934.5999999999999</ele><time>2026-05-01T11:15:16.884Z</time></trkpt><trkpt lat="44.1088721" lon="7.5697091"><ele>933.1999999999999</ele><time>2026-05-01T11:15:17.884Z</time></trkpt><trkpt lat="44.1087631" lon="7.5697233"><ele>931.8000000000001</ele><time>2026-05-01T11:15:18.884Z</time></trkpt><trkpt lat="44.1086647" lon="7.5697484"><ele>930.4000000000001</ele><time>2026-05-01T11:15:19.884Z</time></trkpt><trkpt lat="44.1085642" lon="7.5697792"><ele>929.0</ele><time>2026-05-01T11:15:20.884Z</time></trkpt><trkpt lat="44.1084608" lon="7.5698185"><ele>929.0</ele><time>2026-05-01T11:15:21.884Z</time></trkpt><trkpt lat="44.108374" lon="7.5699064"><ele>929.0</ele><time>2026-05-01T11:15:22.884Z</time></trkpt><trkpt lat="44.1082821" lon="7.5700101"><ele>929.0</ele><time>2026-05-01T11:15:23.884Z</time></trkpt><trkpt lat="44.1081862" lon="7.5701046"><ele>929.0</ele><time>2026-05-01T11:15:24.884Z</time></trkpt><trkpt lat="44.108121" lon="7.5702306"><ele>929.75</ele><time>2026-05-01T11:15:25.884Z</time></trkpt><trkpt lat="44.1080614" lon="7.5703608"><ele>930.5</ele><time>2026-05-01T11:15:26.884Z</time></trkpt><trkpt lat="44.1080093" lon="7.5705089"><ele>931.25</ele><time>2026-05-01T11:15:27.884Z</time></trkpt><trkpt lat="44.1079737" lon="7.5707003"><ele>932.0</ele><time>2026-05-01T11:15:28.884Z</time></trkpt><trkpt lat="44.1079407" lon="7.5708684"><ele>932.0</ele><time>2026-05-01T11:15:29.884Z</time></trkpt><trkpt lat="44.1078982" lon="7.5710284"><ele>932.0</ele><time>2026-05-01T11:15:30.885Z</time></trkpt><trkpt lat="44.1078355" lon="7.5711675"><ele>932.0</ele><time>2026-05-01T11:15:31.884Z</time></trkpt><trkpt lat="44.1077684" lon="7.5712887"><ele>932.0</ele><time>2026-05-01T11:15:32.884Z</time></trkpt><trkpt lat="44.1076921" lon="7.5714"><ele>933.25</ele><time>2026-05-01T11:15:33.884Z</time></trkpt><trkpt lat="44.1076284" lon="7.5715184"><ele>934.5</ele><time>2026-05-01T11:15:34.884Z</time></trkpt><trkpt lat="44.1075527" lon="7.5716321"><ele>935.75</ele><time>2026-05-01T11:15:35.884Z</time></trkpt><trkpt lat="44.1074457" lon="7.5717701"><ele>937.0</ele><time>2026-05-01T11:15:36.884Z</time></trkpt><trkpt lat="44.107315" lon="7.5719057"><ele>931.0</ele><time>2026-05-01T11:15:37.884Z</time></trkpt><trkpt lat="44.1071872" lon="7.5720261"><ele>925.0</ele><time>2026-05-01T11:15:38.884Z</time></trkpt><trkpt lat="44.1070435" lon="7.5721403"><ele>919.0</ele><time>2026-05-01T11:15:39.884Z</time></trkpt><trkpt lat="44.1069007" lon="7.5722457"><ele>919.0</ele><time>2026-05-01T11:15:40.885Z</time></trkpt><trkpt lat="44.1067861" lon="7.5723306"><ele>919.0</ele><time>2026-05-01T11:15:41.884Z</time></trkpt><trkpt lat="44.1066547" lon="7.5724103"><ele>919.0</ele><time>2026-05-01T11:15:42.884Z</time></trkpt><trkpt lat="44.1065321" lon="7.572524"><ele>919.0</ele><time>2026-05-01T11:15:43.884Z</time></trkpt><trkpt lat="44.1064144" lon="7.5726396"><ele>919.6666666666666</ele><time>2026-05-01T11:15:44.884Z</time></trkpt><trkpt lat="44.1062884" lon="7.5727383"><ele>920.3333333333333</ele><time>2026-05-01T11:15:45.884Z</time></trkpt><trkpt lat="44.1061536" lon="7.5728578"><ele>921.0</ele><time>2026-05-01T11:15:46.884Z</time></trkpt><trkpt lat="44.1060276" lon="7.5729624"><ele>922.0</ele><time>2026-05-01T11:15:47.884Z</time></trkpt><trkpt lat="44.1058991" lon="7.5730557"><ele>923.0</ele><time>2026-05-01T11:15:48.884Z</time></trkpt><trkpt lat="44.1057576" lon="7.5731535"><ele>924.0</ele><time>2026-05-01T11:15:49.884Z</time></trkpt><trkpt lat="44.1056463" lon="7.5732095"><ele>925.0</ele><time>2026-05-01T11:15:50.884Z</time></trkpt><trkpt lat="44.1055137" lon="7.5732568"><ele>920.75</ele><time>2026-05-01T11:15:51.884Z</time></trkpt><trkpt lat="44.1053941" lon="7.5732971"><ele>916.5</ele><time>2026-05-01T11:15:52.884Z</time></trkpt><trkpt lat="44.1052751" lon="7.5733686"><ele>912.25</ele><time>2026-05-01T11:15:53.884Z</time></trkpt><trkpt lat="44.1051475" lon="7.5734279"><ele>908.0</ele><time>2026-05-01T11:15:54.884Z</time></trkpt><trkpt lat="44.1050061" lon="7.5734762"><ele>907.75</ele><time>2026-05-01T11:15:55.884Z</time></trkpt><trkpt lat="44.1048827" lon="7.5735529"><ele>907.5</ele><time>2026-05-01T11:15:56.884Z</time></trkpt><trkpt lat="44.1047608" lon="7.5736545"><ele>907.25</ele><time>2026-05-01T11:15:57.884Z</time></trkpt><trkpt lat="44.104637" lon="7.5737536"><ele>907.0</ele><time>2026-05-01T11:15:58.885Z</time></trkpt><trkpt lat="44.1045169" lon="7.5738554"><ele>907.0</ele><time>2026-05-01T11:15:59.884Z</time></trkpt><trkpt lat="44.1043986" lon="7.5739511"><ele>907.0</ele><time>2026-05-01T11:16:00.884Z</time></trkpt><trkpt lat="44.104278" lon="7.5740465"><ele>907.0</ele><time>2026-05-01T11:16:01.884Z</time></trkpt><trkpt lat="44.1041662" lon="7.5741497"><ele>907.0</ele><time>2026-05-01T11:16:02.884Z</time></trkpt><trkpt lat="44.1040644" lon="7.5742602"><ele>907.0</ele><time>2026-05-01T11:16:03.884Z</time></trkpt><trkpt lat="44.1039677" lon="7.5743691"><ele>907.0</ele><time>2026-05-01T11:16:04.884Z</time></trkpt><trkpt lat="44.1038728" lon="7.5744796"><ele>907.0</ele><time>2026-05-01T11:16:05.884Z</time></trkpt><trkpt lat="44.1037571" lon="7.5745484"><ele>907.0</ele><time>2026-05-01T11:16:06.884Z</time></trkpt><trkpt lat="44.1036381" lon="7.5746417"><ele>907.0</ele><time>2026-05-01T11:16:07.884Z</time></trkpt><trkpt lat="44.1035201" lon="7.5747236"><ele>907.0</ele><time>2026-05-01T11:16:08.884Z</time></trkpt><trkpt lat="44.1034058" lon="7.5748228"><ele>907.0</ele><time>2026-05-01T11:16:09.884Z</time></trkpt><trkpt lat="44.1032924" lon="7.5749207"><ele>907.0</ele><time>2026-05-01T11:16:10.884Z</time></trkpt><trkpt lat="44.1031839" lon="7.5750288"><ele>907.0</ele><time>2026-05-01T11:16:11.884Z</time></trkpt><trkpt lat="44.103077" lon="7.575147"><ele>907.0</ele><time>2026-05-01T11:16:12.884Z</time></trkpt><trkpt lat="44.1029848" lon="7.5752727"><ele>907.0</ele><time>2026-05-01T11:16:13.884Z</time></trkpt><trkpt lat="44.1029001" lon="7.5754114"><ele>907.0</ele><time>2026-05-01T11:16:14.884Z</time></trkpt><trkpt lat="44.1028322" lon="7.5755747"><ele>907.0</ele><time>2026-05-01T11:16:15.884Z</time></trkpt><trkpt lat="44.1028048" lon="7.5757632"><ele>907.0</ele><time>2026-05-01T11:16:16.884Z</time></trkpt><trkpt lat="44.1027984" lon="7.5759784"><ele>907.0</ele><time>2026-05-01T11:16:17.884Z</time></trkpt><trkpt lat="44.1028211" lon="7.5762009"><ele>905.6666666666666</ele><time>2026-05-01T11:16:18.884Z</time></trkpt><trkpt lat="44.1028387" lon="7.576423"><ele>904.3333333333333</ele><time>2026-05-01T11:16:19.884Z</time></trkpt><trkpt lat="44.1028631" lon="7.5766452"><ele>903.0</ele><time>2026-05-01T11:16:20.884Z</time></trkpt><trkpt lat="44.1028714" lon="7.57685"><ele>903.3333333333333</ele><time>2026-05-01T11:16:21.884Z</time></trkpt><trkpt lat="44.1028847" lon="7.577068"><ele>903.6666666666666</ele><time>2026-05-01T11:16:22.884Z</time></trkpt><trkpt lat="44.1028779" lon="7.5772856"><ele>904.0</ele><time>2026-05-01T11:16:23.885Z</time></trkpt><trkpt lat="44.1028524" lon="7.5774903"><ele>904.0</ele><time>2026-05-01T11:16:24.884Z</time></trkpt><trkpt lat="44.1028376" lon="7.5776988"><ele>904.0</ele><time>2026-05-01T11:16:25.884Z</time></trkpt><trkpt lat="44.102816" lon="7.577887"><ele>904.0</ele><time>2026-05-01T11:16:26.884Z</time></trkpt><trkpt lat="44.1027876" lon="7.5780885"><ele>904.0</ele><time>2026-05-01T11:16:27.885Z</time></trkpt><trkpt lat="44.1027881" lon="7.5782985"><ele>903.0</ele><time>2026-05-01T11:16:28.884Z</time></trkpt><trkpt lat="44.1027901" lon="7.578501"><ele>902.0</ele><time>2026-05-01T11:16:29.884Z</time></trkpt><trkpt lat="44.1028148" lon="7.5787028"><ele>901.0</ele><time>2026-05-01T11:16:30.884Z</time></trkpt><trkpt lat="44.1028569" lon="7.578912"><ele>900.0</ele><time>2026-05-01T11:16:31.884Z</time></trkpt><trkpt lat="44.1029065" lon="7.5791166"><ele>898.6666666666667</ele><time>2026-05-01T11:16:32.884Z</time></trkpt><trkpt lat="44.1029655" lon="7.5793146"><ele>897.3333333333334</ele><time>2026-05-01T11:16:33.884Z</time></trkpt><trkpt lat="44.1030302" lon="7.5795043"><ele>896.0</ele><time>2026-05-01T11:16:34.884Z</time></trkpt><trkpt lat="44.1030545" lon="7.5797061"><ele>894.3333333333334</ele><time>2026-05-01T11:16:35.884Z</time></trkpt><trkpt lat="44.1030557" lon="7.5799244"><ele>892.6666666666667</ele><time>2026-05-01T11:16:36.884Z</time></trkpt><trkpt lat="44.1030314" lon="7.580131"><ele>891.0</ele><time>2026-05-01T11:16:37.884Z</time></trkpt><trkpt lat="44.1029948" lon="7.5803575"><ele>889.6666666666667</ele><time>2026-05-01T11:16:38.884Z</time></trkpt><trkpt lat="44.1029475" lon="7.5805734"><ele>888.3333333333334</ele><time>2026-05-01T11:16:39.884Z</time></trkpt><trkpt lat="44.1029186" lon="7.5807954"><ele>887.0</ele><time>2026-05-01T11:16:40.884Z</time></trkpt><trkpt lat="44.1028906" lon="7.5810201"><ele>885.75</ele><time>2026-05-01T11:16:41.884Z</time></trkpt><trkpt lat="44.1028882" lon="7.5812301"><ele>884.5</ele><time>2026-05-01T11:16:42.884Z</time></trkpt><trkpt lat="44.1028728" lon="7.5814338"><ele>883.25</ele><time>2026-05-01T11:16:43.884Z</time></trkpt><trkpt lat="44.1028359" lon="7.5816314"><ele>882.0</ele><time>2026-05-01T11:16:44.884Z</time></trkpt><trkpt lat="44.1027628" lon="7.5817912"><ele>882.0</ele><time>2026-05-01T11:16:45.884Z</time></trkpt><trkpt lat="44.1026924" lon="7.5819494"><ele>882.0</ele><time>2026-05-01T11:16:46.884Z</time></trkpt><trkpt lat="44.1025974" lon="7.5820799"><ele>882.0</ele><time>2026-05-01T11:16:47.884Z</time></trkpt><trkpt lat="44.1025016" lon="7.5821883"><ele>882.0</ele><time>2026-05-01T11:16:48.884Z</time></trkpt><trkpt lat="44.1024145" lon="7.5822958"><ele>890.5</ele><time>2026-05-01T11:16:49.884Z</time></trkpt><trkpt lat="44.1023347" lon="7.582414"><ele>899.0</ele><time>2026-05-01T11:16:50.884Z</time></trkpt><trkpt lat="44.102267" lon="7.5825225"><ele>907.5</ele><time>2026-05-01T11:16:51.884Z</time></trkpt><trkpt lat="44.1022226" lon="7.5826676"><ele>916.0</ele><time>2026-05-01T11:16:52.884Z</time></trkpt><trkpt lat="44.1022139" lon="7.5828362"><ele>909.0</ele><time>2026-05-01T11:16:53.884Z</time></trkpt><trkpt lat="44.1022024" lon="7.5830051"><ele>902.0</ele><time>2026-05-01T11:16:54.884Z</time></trkpt><trkpt lat="44.1021809" lon="7.5831769"><ele>895.0</ele><time>2026-05-01T11:16:55.884Z</time></trkpt><trkpt lat="44.1021483" lon="7.5833258"><ele>888.0</ele><time>2026-05-01T11:16:56.884Z</time></trkpt><trkpt lat="44.1021162" lon="7.5834665"><ele>888.0</ele><time>2026-05-01T11:16:57.884Z</time></trkpt><trkpt lat="44.1020376" lon="7.5836136"><ele>888.0</ele><time>2026-05-01T11:16:58.884Z</time></trkpt><trkpt lat="44.1019592" lon="7.5837475"><ele>888.0</ele><time>2026-05-01T11:16:59.884Z</time></trkpt><trkpt lat="44.1018825" lon="7.5838895"><ele>888.0</ele><time>2026-05-01T11:17:00.885Z</time></trkpt><trkpt lat="44.1018197" lon="7.5840368"><ele>887.2</ele><time>2026-05-01T11:17:01.884Z</time></trkpt><trkpt lat="44.1017461" lon="7.5841715"><ele>886.4</ele><time>2026-05-01T11:17:02.884Z</time></trkpt><trkpt lat="44.1016766" lon="7.5842948"><ele>885.6000000000001</ele><time>2026-05-01T11:17:03.884Z</time></trkpt><trkpt lat="44.1016225" lon="7.5844107"><ele>884.8000000000001</ele><time>2026-05-01T11:17:04.884Z</time></trkpt><trkpt lat="44.1015902" lon="7.5845458"><ele>884.0</ele><time>2026-05-01T11:17:05.884Z</time></trkpt><trkpt lat="44.1015773" lon="7.5847121"><ele>882.2</ele><time>2026-05-01T11:17:06.884Z</time></trkpt><trkpt lat="44.1016243" lon="7.5848577"><ele>880.4000000000001</ele><time>2026-05-01T11:17:07.884Z</time></trkpt><trkpt lat="44.1016751" lon="7.5849838"><ele>878.6</ele><time>2026-05-01T11:17:08.884Z</time></trkpt><trkpt lat="44.1017217" lon="7.5850993"><ele>876.8</ele><time>2026-05-01T11:17:09.884Z</time></trkpt><trkpt lat="44.101773" lon="7.5852131"><ele>875.0</ele><time>2026-05-01T11:17:10.884Z</time></trkpt><trkpt lat="44.1017874" lon="7.5853312"><ele>876.4</ele><time>2026-05-01T11:17:11.884Z</time></trkpt><trkpt lat="44.101782" lon="7.5854499"><ele>877.8</ele><time>2026-05-01T11:17:12.884Z</time></trkpt><trkpt lat="44.1017442" lon="7.5855761"><ele>879.2</ele><time>2026-05-01T11:17:13.884Z</time></trkpt><trkpt lat="44.1017026" lon="7.5856995"><ele>880.6</ele><time>2026-05-01T11:17:14.884Z</time></trkpt><trkpt lat="44.1016458" lon="7.5858076"><ele>882.0</ele><time>2026-05-01T11:17:15.884Z</time></trkpt><trkpt lat="44.101584" lon="7.5858987"><ele>879.6</ele><time>2026-05-01T11:17:16.884Z</time></trkpt><trkpt lat="44.1015227" lon="7.585984"><ele>877.2</ele><time>2026-05-01T11:17:17.884Z</time></trkpt><trkpt lat="44.1013857" lon="7.5859748"><ele>874.8</ele><time>2026-05-01T11:17:18.884Z</time></trkpt><trkpt lat="44.1012868" lon="7.5859811"><ele>872.4</ele><time>2026-05-01T11:17:19.884Z</time></trkpt><trkpt lat="44.1011782" lon="7.5859663"><ele>870.0</ele><time>2026-05-01T11:17:20.884Z</time></trkpt><trkpt lat="44.1010708" lon="7.5859287"><ele>870.0</ele><time>2026-05-01T11:17:21.884Z</time></trkpt><trkpt lat="44.1009599" lon="7.5859229"><ele>870.0</ele><time>2026-05-01T11:17:22.884Z</time></trkpt><trkpt lat="44.1008502" lon="7.5859245"><ele>870.0</ele><time>2026-05-01T11:17:23.884Z</time></trkpt><trkpt lat="44.1007698" lon="7.5859854"><ele>870.0</ele><time>2026-05-01T11:17:24.884Z</time></trkpt><trkpt lat="44.100684" lon="7.5860365"><ele>870.0</ele><time>2026-05-01T11:17:25.884Z</time></trkpt><trkpt lat="44.1006047" lon="7.5861177"><ele>874.75</ele><time>2026-05-01T11:17:26.885Z</time></trkpt><trkpt lat="44.1005507" lon="7.5863158"><ele>879.5</ele><time>2026-05-01T11:17:27.884Z</time></trkpt><trkpt lat="44.1004921" lon="7.5864723"><ele>884.25</ele><time>2026-05-01T11:17:28.884Z</time></trkpt><trkpt lat="44.1004253" lon="7.5866537"><ele>889.0</ele><time>2026-05-01T11:17:29.884Z</time></trkpt><trkpt lat="44.1003654" lon="7.5868376"><ele>882.0</ele><time>2026-05-01T11:17:30.884Z</time></trkpt><trkpt lat="44.1003104" lon="7.5870218"><ele>875.0</ele><time>2026-05-01T11:17:31.884Z</time></trkpt><trkpt lat="44.1003178" lon="7.5872565"><ele>868.0</ele><time>2026-05-01T11:17:32.884Z</time></trkpt><trkpt lat="44.1003106" lon="7.5874485"><ele>868.0</ele><time>2026-05-01T11:17:33.884Z</time></trkpt><trkpt lat="44.1003089" lon="7.5876475"><ele>868.0</ele><time>2026-05-01T11:17:34.884Z</time></trkpt><trkpt lat="44.1003014" lon="7.5878216"><ele>868.0</ele><time>2026-05-01T11:17:35.885Z</time></trkpt><trkpt lat="44.1002922" lon="7.5879897"><ele>868.0</ele><time>2026-05-01T11:17:36.884Z</time></trkpt><trkpt lat="44.1002603" lon="7.5881525"><ele>866.0</ele><time>2026-05-01T11:17:37.884Z</time></trkpt><trkpt lat="44.1002095" lon="7.5883062"><ele>864.0</ele><time>2026-05-01T11:17:38.884Z</time></trkpt><trkpt lat="44.100125" lon="7.5884414"><ele>862.0</ele><time>2026-05-01T11:17:39.884Z</time></trkpt><trkpt lat="44.1000475" lon="7.588565"><ele>860.0</ele><time>2026-05-01T11:17:40.884Z</time></trkpt><trkpt lat="44.099962" lon="7.5886932"><ele>861.0</ele><time>2026-05-01T11:17:41.884Z</time></trkpt><trkpt lat="44.0998524" lon="7.5887566"><ele>862.0</ele><time>2026-05-01T11:17:42.884Z</time></trkpt><trkpt lat="44.0997501" lon="7.5888076"><ele>863.0</ele><time>2026-05-01T11:17:43.884Z</time></trkpt><trkpt lat="44.0996594" lon="7.5888271"><ele>864.0</ele><time>2026-05-01T11:17:44.884Z</time></trkpt><trkpt lat="44.0995546" lon="7.5887993"><ele>865.0</ele><time>2026-05-01T11:17:45.884Z</time></trkpt><trkpt lat="44.0994543" lon="7.5887617"><ele>865.0</ele><time>2026-05-01T11:17:46.884Z</time></trkpt><trkpt lat="44.0993451" lon="7.5887286"><ele>865.0</ele><time>2026-05-01T11:17:47.884Z</time></trkpt><trkpt lat="44.0992272" lon="7.58867"><ele>865.0</ele><time>2026-05-01T11:17:48.884Z</time></trkpt><trkpt lat="44.0990992" lon="7.5886303"><ele>865.0</ele><time>2026-05-01T11:17:49.885Z</time></trkpt><trkpt lat="44.0989746" lon="7.5886082"><ele>863.0</ele><time>2026-05-01T11:17:50.884Z</time></trkpt><trkpt lat="44.0988464" lon="7.5885999"><ele>861.0</ele><time>2026-05-01T11:17:51.884Z</time></trkpt><trkpt lat="44.0987298" lon="7.5886015"><ele>859.0</ele><time>2026-05-01T11:17:52.884Z</time></trkpt><trkpt lat="44.0986084" lon="7.5885955"><ele>857.0</ele><time>2026-05-01T11:17:53.884Z</time></trkpt><trkpt lat="44.0984843" lon="7.5885825"><ele>857.0</ele><time>2026-05-01T11:17:54.884Z</time></trkpt><trkpt lat="44.0983594" lon="7.5885848"><ele>857.0</ele><time>2026-05-01T11:17:55.884Z</time></trkpt><trkpt lat="44.0982345" lon="7.5886052"><ele>857.0</ele><time>2026-05-01T11:17:56.884Z</time></trkpt><trkpt lat="44.0981166" lon="7.5885992"><ele>857.0</ele><time>2026-05-01T11:17:57.884Z</time></trkpt><trkpt lat="44.09799" lon="7.5886099"><ele>857.25</ele><time>2026-05-01T11:17:58.884Z</time></trkpt><trkpt lat="44.0978607" lon="7.5886193"><ele>857.5</ele><time>2026-05-01T11:17:59.884Z</time></trkpt><trkpt lat="44.0977358" lon="7.5886229"><ele>857.75</ele><time>2026-05-01T11:18:00.884Z</time></trkpt><trkpt lat="44.0976061" lon="7.5886242"><ele>858.0</ele><time>2026-05-01T11:18:01.884Z</time></trkpt><trkpt lat="44.0974732" lon="7.5886299"><ele>860.5</ele><time>2026-05-01T11:18:02.884Z</time></trkpt><trkpt lat="44.0973381" lon="7.5886451"><ele>863.0</ele><time>2026-05-01T11:18:03.884Z</time></trkpt><trkpt lat="44.0972099" lon="7.5886597"><ele>865.5</ele><time>2026-05-01T11:18:04.884Z</time></trkpt><trkpt lat="44.0970665" lon="7.588685"><ele>868.0</ele><time>2026-05-01T11:18:05.884Z</time></trkpt><trkpt lat="44.0969516" lon="7.5887018"><ele>863.5</ele><time>2026-05-01T11:18:06.884Z</time></trkpt><trkpt lat="44.0968406" lon="7.5887346"><ele>859.0</ele><time>2026-05-01T11:18:07.885Z</time></trkpt><trkpt lat="44.0967301" lon="7.5887771"><ele>854.5</ele><time>2026-05-01T11:18:08.884Z</time></trkpt><trkpt lat="44.0966206" lon="7.5888314"><ele>850.0</ele><time>2026-05-01T11:18:09.884Z</time></trkpt><trkpt lat="44.096493" lon="7.5889025"><ele>850.0</ele><time>2026-05-01T11:18:10.884Z</time></trkpt><trkpt lat="44.0963813" lon="7.5889631"><ele>850.0</ele><time>2026-05-01T11:18:11.884Z</time></trkpt><trkpt lat="44.0962634" lon="7.5890276"><ele>850.0</ele><time>2026-05-01T11:18:12.884Z</time></trkpt><trkpt lat="44.0961456" lon="7.5890855"><ele>850.0</ele><time>2026-05-01T11:18:13.884Z</time></trkpt><trkpt lat="44.0960259" lon="7.5891524"><ele>850.0</ele><time>2026-05-01T11:18:14.884Z</time></trkpt><trkpt lat="44.0959048" lon="7.5892082"><ele>850.0</ele><time>2026-05-01T11:18:15.884Z</time></trkpt><trkpt lat="44.0957871" lon="7.589272"><ele>850.0</ele><time>2026-05-01T11:18:16.884Z</time></trkpt><trkpt lat="44.0956698" lon="7.5893307"><ele>850.0</ele><time>2026-05-01T11:18:17.884Z</time></trkpt><trkpt lat="44.0955502" lon="7.5893885"><ele>852.75</ele><time>2026-05-01T11:18:18.884Z</time></trkpt><trkpt lat="44.0954439" lon="7.5894393"><ele>855.5</ele><time>2026-05-01T11:18:19.884Z</time></trkpt><trkpt lat="44.0953318" lon="7.5894971"><ele>858.25</ele><time>2026-05-01T11:18:20.884Z</time></trkpt><trkpt lat="44.095219" lon="7.5895558"><ele>861.0</ele><time>2026-05-01T11:18:21.884Z</time></trkpt><trkpt lat="44.095104" lon="7.589602"><ele>857.0</ele><time>2026-05-01T11:18:22.884Z</time></trkpt><trkpt lat="44.0949857" lon="7.5896521"><ele>853.0</ele><time>2026-05-01T11:18:23.885Z</time></trkpt><trkpt lat="44.094867" lon="7.5896965"><ele>849.0</ele><time>2026-05-01T11:18:24.884Z</time></trkpt><trkpt lat="44.0947501" lon="7.5897146"><ele>845.0</ele><time>2026-05-01T11:18:25.884Z</time></trkpt><trkpt lat="44.0946333" lon="7.5897453"><ele>845.0</ele><time>2026-05-01T11:18:26.884Z</time></trkpt><trkpt lat="44.0945168" lon="7.5897818"><ele>845.0</ele><time>2026-05-01T11:18:27.884Z</time></trkpt><trkpt lat="44.09441" lon="7.5898217"><ele>845.0</ele><time>2026-05-01T11:18:28.884Z</time></trkpt><trkpt lat="44.0943008" lon="7.5898742"><ele>845.0</ele><time>2026-05-01T11:18:29.884Z</time></trkpt><trkpt lat="44.094189" lon="7.5899261"><ele>847.5</ele><time>2026-05-01T11:18:30.884Z</time></trkpt><trkpt lat="44.0940654" lon="7.5900232"><ele>850.0</ele><time>2026-05-01T11:18:31.884Z</time></trkpt><trkpt lat="44.0939499" lon="7.5901138"><ele>852.5</ele><time>2026-05-01T11:18:32.885Z</time></trkpt><trkpt lat="44.0938325" lon="7.5901889"><ele>855.0</ele><time>2026-05-01T11:18:33.884Z</time></trkpt><trkpt lat="44.0937201" lon="7.5902647"><ele>855.0</ele><time>2026-05-01T11:18:34.884Z</time></trkpt><trkpt lat="44.093608" lon="7.5903336"><ele>855.0</ele><time>2026-05-01T11:18:35.884Z</time></trkpt><trkpt lat="44.093494" lon="7.590399"><ele>855.0</ele><time>2026-05-01T11:18:36.885Z</time></trkpt><trkpt lat="44.0933807" lon="7.5904467"><ele>855.0</ele><time>2026-05-01T11:18:37.884Z</time></trkpt><trkpt lat="44.0932662" lon="7.5905022"><ele>852.5</ele><time>2026-05-01T11:18:38.884Z</time></trkpt><trkpt lat="44.0931533" lon="7.5905737"><ele>850.0</ele><time>2026-05-01T11:18:39.884Z</time></trkpt><trkpt lat="44.0930405" lon="7.5906345"><ele>847.5</ele><time>2026-05-01T11:18:40.884Z</time></trkpt><trkpt lat="44.0929324" lon="7.5907265"><ele>845.0</ele><time>2026-05-01T11:18:41.884Z</time></trkpt><trkpt lat="44.0928283" lon="7.5908259"><ele>845.0</ele><time>2026-05-01T11:18:42.884Z</time></trkpt><trkpt lat="44.0927394" lon="7.5909115"><ele>845.0</ele><time>2026-05-01T11:18:43.884Z</time></trkpt><trkpt lat="44.0926499" lon="7.5909962"><ele>845.0</ele><time>2026-05-01T11:18:44.885Z</time></trkpt><trkpt lat="44.0925607" lon="7.5910911"><ele>845.0</ele><time>2026-05-01T11:18:45.885Z</time></trkpt><trkpt lat="44.0924632" lon="7.5911833"><ele>845.0</ele><time>2026-05-01T11:18:46.883Z</time></trkpt><trkpt lat="44.0923459" lon="7.591286"><ele>843.0</ele><time>2026-05-01T11:18:47.881Z</time></trkpt><trkpt lat="44.0922384" lon="7.5913426"><ele>841.0</ele><time>2026-05-01T11:18:48.884Z</time></trkpt><trkpt lat="44.0921322" lon="7.5914262"><ele>839.0</ele><time>2026-05-01T11:18:49.883Z</time></trkpt><trkpt lat="44.0920334" lon="7.5914977"><ele>837.0</ele><time>2026-05-01T11:18:50.883Z</time></trkpt><trkpt lat="44.0919386" lon="7.5915674"><ele>837.0</ele><time>2026-05-01T11:18:51.883Z</time></trkpt><trkpt lat="44.0918569" lon="7.5916478"><ele>837.0</ele><time>2026-05-01T11:18:52.883Z</time></trkpt><trkpt lat="44.0917823" lon="7.5917144"><ele>837.0</ele><time>2026-05-01T11:18:53.883Z</time></trkpt><trkpt lat="44.0917046" lon="7.5917842"><ele>837.0</ele><time>2026-05-01T11:18:54.883Z</time></trkpt><trkpt lat="44.0916444" lon="7.5918382"><ele>837.0</ele><time>2026-05-01T11:18:55.883Z</time></trkpt><trkpt lat="44.0915885" lon="7.5919017"><ele>837.0</ele><time>2026-05-01T11:18:56.883Z</time></trkpt><trkpt lat="44.0915151" lon="7.5919776"><ele>835.0</ele><time>2026-05-01T11:18:58.883Z</time></trkpt><trkpt lat="44.091446" lon="7.5920588"><ele>833.0</ele><time>2026-05-01T11:19:00.883Z</time></trkpt><trkpt lat="44.0913542" lon="7.5921259"><ele>831.0</ele><time>2026-05-01T11:19:02.884Z</time></trkpt><trkpt lat="44.0912355" lon="7.5921875"><ele>829.0</ele><time>2026-05-01T11:19:04.883Z</time></trkpt><trkpt lat="44.0911372" lon="7.5922367"><ele>827.0</ele><time>2026-05-01T11:19:06.883Z</time></trkpt><trkpt lat="44.0910612" lon="7.5923341"><ele>827.0</ele><time>2026-05-01T11:19:08.884Z</time></trkpt><trkpt lat="44.0909849" lon="7.5923844"><ele>827.0</ele><time>2026-05-01T11:19:10.883Z</time></trkpt><trkpt lat="44.0908965" lon="7.5924173"><ele>827.0</ele><time>2026-05-01T11:19:12.883Z</time></trkpt><trkpt lat="44.0908226" lon="7.5924725"><ele>827.0</ele><time>2026-05-01T11:19:14.883Z</time></trkpt><trkpt lat="44.0907057" lon="7.5925232"><ele>827.0</ele><time>2026-05-01T11:19:16.883Z</time></trkpt><trkpt lat="44.090637" lon="7.5925614"><ele>828.0</ele><time>2026-05-01T11:19:17.883Z</time></trkpt><trkpt lat="44.0905278" lon="7.5926145"><ele>829.0</ele><time>2026-05-01T11:19:19.883Z</time></trkpt><trkpt lat="44.0904193" lon="7.5926744"><ele>830.0</ele><time>2026-05-01T11:19:21.883Z</time></trkpt><trkpt lat="44.0903064" lon="7.5927159"><ele>831.0</ele><time>2026-05-01T11:19:23.883Z</time></trkpt><trkpt lat="44.0902466" lon="7.5927545"><ele>832.0</ele><time>2026-05-01T11:19:24.883Z</time></trkpt><trkpt lat="44.0901661" lon="7.5927896"><ele>831.9999999999999</ele><time>2026-05-01T11:19:26.883Z</time></trkpt><trkpt lat="44.0900997" lon="7.5928191"><ele>832.0</ele><time>2026-05-01T11:19:28.883Z</time></trkpt><trkpt lat="44.0900363" lon="7.5928321"><ele>832.0</ele><time>2026-05-01T11:19:30.883Z</time></trkpt><trkpt lat="44.0899689" lon="7.5928514"><ele>832.0</ele><time>2026-05-01T11:19:32.883Z</time></trkpt><trkpt lat="44.089893" lon="7.5928801"><ele>831.9999999999999</ele><time>2026-05-01T11:19:34.883Z</time></trkpt><trkpt lat="44.0897838" lon="7.5929219"><ele>832.0</ele><time>2026-05-01T11:19:36.884Z</time></trkpt><trkpt lat="44.0896886" lon="7.5929631"><ele>830.6666666666666</ele><time>2026-05-01T11:19:38.883Z</time></trkpt><trkpt lat="44.0896177" lon="7.5930085"><ele>829.3333333333333</ele><time>2026-05-01T11:19:40.883Z</time></trkpt><trkpt lat="44.0895399" lon="7.5930499"><ele>828.0</ele><time>2026-05-01T11:19:42.883Z</time></trkpt><trkpt lat="44.0894481" lon="7.5930838"><ele>826.6666666666667</ele><time>2026-05-01T11:19:44.884Z</time></trkpt><trkpt lat="44.0893601" lon="7.5931134"><ele>825.3333333333334</ele><time>2026-05-01T11:19:46.883Z</time></trkpt><trkpt lat="44.0892658" lon="7.5931603"><ele>824.0</ele><time>2026-05-01T11:19:48.883Z</time></trkpt><trkpt lat="44.0891506" lon="7.5931973"><ele>824.0000000000001</ele><time>2026-05-01T11:19:50.883Z</time></trkpt><trkpt lat="44.0890869" lon="7.5932035"><ele>824.0</ele><time>2026-05-01T11:19:51.883Z</time></trkpt><trkpt lat="44.0889609" lon="7.5932407"><ele>824.0</ele><time>2026-05-01T11:19:53.883Z</time></trkpt><trkpt lat="44.088887" lon="7.5932597"><ele>824.0</ele><time>2026-05-01T11:19:54.883Z</time></trkpt><trkpt lat="44.0888218" lon="7.5932734"><ele>824.0000000000001</ele><time>2026-05-01T11:19:55.884Z</time></trkpt><trkpt lat="44.0887573" lon="7.5932936"><ele>824.0</ele><time>2026-05-01T11:19:56.883Z</time></trkpt><trkpt lat="44.0886438" lon="7.593355"><ele>824.0</ele><time>2026-05-01T11:19:58.883Z</time></trkpt><trkpt lat="44.0885424" lon="7.5933965"><ele>824.0</ele><time>2026-05-01T11:20:00.883Z</time></trkpt><trkpt lat="44.0884553" lon="7.5934377"><ele>824.0</ele><time>2026-05-01T11:20:02.883Z</time></trkpt><trkpt lat="44.0883471" lon="7.5934735"><ele>824.0</ele><time>2026-05-01T11:20:04.883Z</time></trkpt><trkpt lat="44.0882543" lon="7.5935159"><ele>824.0</ele><time>2026-05-01T11:20:06.883Z</time></trkpt><trkpt lat="44.0881769" lon="7.5935456"><ele>824.1666666666667</ele><time>2026-05-01T11:20:08.884Z</time></trkpt><trkpt lat="44.0881115" lon="7.5935711"><ele>824.3333333333334</ele><time>2026-05-01T11:20:10.884Z</time></trkpt><trkpt lat="44.0880292" lon="7.5935952"><ele>824.5</ele><time>2026-05-01T11:20:12.883Z</time></trkpt><trkpt lat="44.087935" lon="7.5936018"><ele>824.6666666666667</ele><time>2026-05-01T11:20:14.883Z</time></trkpt><trkpt lat="44.0878485" lon="7.5936139"><ele>824.8333333333334</ele><time>2026-05-01T11:20:16.883Z</time></trkpt><trkpt lat="44.0877638" lon="7.5936257"><ele>825.0</ele><time>2026-05-01T11:20:18.884Z</time></trkpt><trkpt lat="44.0876964" lon="7.5936383"><ele>825.0</ele><time>2026-05-01T11:20:19.883Z</time></trkpt><trkpt lat="44.0876154" lon="7.5936234"><ele>825.0</ele><time>2026-05-01T11:20:21.883Z</time></trkpt><trkpt lat="44.0875346" lon="7.5936388"><ele>825.0</ele><time>2026-05-01T11:20:23.883Z</time></trkpt><trkpt lat="44.0874267" lon="7.5936949"><ele>825.0</ele><time>2026-05-01T11:20:25.883Z</time></trkpt><trkpt lat="44.0873179" lon="7.593735"><ele>825.0</ele><time>2026-05-01T11:20:27.883Z</time></trkpt><trkpt lat="44.0871983" lon="7.5937445"><ele>825.0</ele><time>2026-05-01T11:20:29.883Z</time></trkpt><trkpt lat="44.0870669" lon="7.5937326"><ele>825.0</ele><time>2026-05-01T11:20:30.883Z</time></trkpt><trkpt lat="44.0869809" lon="7.5936988"><ele>825.0</ele><time>2026-05-01T11:20:31.883Z</time></trkpt><trkpt lat="44.08691" lon="7.5936479"><ele>825.0</ele><time>2026-05-01T11:20:32.883Z</time></trkpt><trkpt lat="44.0868089" lon="7.593586"><ele>825.0</ele><time>2026-05-01T11:20:33.883Z</time></trkpt><trkpt lat="44.086725" lon="7.593569"><ele>825.0</ele><time>2026-05-01T11:20:34.883Z</time></trkpt><trkpt lat="44.0866348" lon="7.5935639"><ele>825.0</ele><time>2026-05-01T11:20:35.883Z</time></trkpt><trkpt lat="44.08654" lon="7.5935688"><ele>825.0</ele><time>2026-05-01T11:20:36.883Z</time></trkpt><trkpt lat="44.0864493" lon="7.5935841"><ele>825.0</ele><time>2026-05-01T11:20:37.883Z</time></trkpt><trkpt lat="44.0863647" lon="7.5936291"><ele>825.0</ele><time>2026-05-01T11:20:38.883Z</time></trkpt><trkpt lat="44.0862888" lon="7.5936782"><ele>820.2</ele><time>2026-05-01T11:20:39.883Z</time></trkpt><trkpt lat="44.0862077" lon="7.5937308"><ele>815.4</ele><time>2026-05-01T11:20:40.883Z</time></trkpt><trkpt lat="44.0861263" lon="7.5937647"><ele>810.5999999999999</ele><time>2026-05-01T11:20:41.883Z</time></trkpt><trkpt lat="44.0860142" lon="7.5937963"><ele>805.8</ele><time>2026-05-01T11:20:42.883Z</time></trkpt><trkpt lat="44.0859044" lon="7.5938214"><ele>801.0</ele><time>2026-05-01T11:20:43.884Z</time></trkpt><trkpt lat="44.0857923" lon="7.5938439"><ele>801.0</ele><time>2026-05-01T11:20:44.883Z</time></trkpt><trkpt lat="44.0856843" lon="7.5938745"><ele>801.0</ele><time>2026-05-01T11:20:45.883Z</time></trkpt><trkpt lat="44.0855754" lon="7.5938931"><ele>801.0</ele><time>2026-05-01T11:20:46.883Z</time></trkpt><trkpt lat="44.0854701" lon="7.5938879"><ele>801.0</ele><time>2026-05-01T11:20:47.884Z</time></trkpt><trkpt lat="44.0853614" lon="7.5938986"><ele>801.0</ele><time>2026-05-01T11:20:48.883Z</time></trkpt><trkpt lat="44.0852664" lon="7.5938868"><ele>801.0</ele><time>2026-05-01T11:20:49.883Z</time></trkpt><trkpt lat="44.0851608" lon="7.5938699"><ele>801.0</ele><time>2026-05-01T11:20:50.883Z</time></trkpt><trkpt lat="44.0850615" lon="7.5938362"><ele>801.0</ele><time>2026-05-01T11:20:51.883Z</time></trkpt><trkpt lat="44.0849456" lon="7.5938158"><ele>801.0</ele><time>2026-05-01T11:20:52.883Z</time></trkpt><trkpt lat="44.0848364" lon="7.5937932"><ele>801.0</ele><time>2026-05-01T11:20:53.883Z</time></trkpt><trkpt lat="44.0847344" lon="7.5937508"><ele>800.5999999999999</ele><time>2026-05-01T11:20:54.883Z</time></trkpt><trkpt lat="44.0846582" lon="7.593677"><ele>800.2</ele><time>2026-05-01T11:20:55.883Z</time></trkpt><trkpt lat="44.0845743" lon="7.5936062"><ele>799.8</ele><time>2026-05-01T11:20:56.883Z</time></trkpt><trkpt lat="44.0844845" lon="7.5935773"><ele>799.4000000000001</ele><time>2026-05-01T11:20:57.883Z</time></trkpt><trkpt lat="44.0843876" lon="7.5935571"><ele>799.0</ele><time>2026-05-01T11:20:58.883Z</time></trkpt><trkpt lat="44.0842748" lon="7.5935637"><ele>800.0</ele><time>2026-05-01T11:20:59.883Z</time></trkpt><trkpt lat="44.0841689" lon="7.5935741"><ele>801.0</ele><time>2026-05-01T11:21:00.884Z</time></trkpt><trkpt lat="44.0840643" lon="7.5935902"><ele>802.0</ele><time>2026-05-01T11:21:01.883Z</time></trkpt><trkpt lat="44.0839652" lon="7.593588"><ele>803.0</ele><time>2026-05-01T11:21:02.883Z</time></trkpt><trkpt lat="44.0838642" lon="7.5936007"><ele>804.0</ele><time>2026-05-01T11:21:03.883Z</time></trkpt><trkpt lat="44.0837893" lon="7.5935753"><ele>804.0</ele><time>2026-05-01T11:21:04.884Z</time></trkpt><trkpt lat="44.083694" lon="7.5936053"><ele>804.0</ele><time>2026-05-01T11:21:05.883Z</time></trkpt><trkpt lat="44.0836317" lon="7.5936528"><ele>804.0</ele><time>2026-05-01T11:21:06.883Z</time></trkpt><trkpt lat="44.0835764" lon="7.5937298"><ele>804.0</ele><time>2026-05-01T11:21:07.883Z</time></trkpt><trkpt lat="44.0835332" lon="7.5938093"><ele>804.0</ele><time>2026-05-01T11:21:08.883Z</time></trkpt><trkpt lat="44.0835116" lon="7.5940009"><ele>802.6666666666666</ele><time>2026-05-01T11:21:10.883Z</time></trkpt><trkpt lat="44.0835188" lon="7.5941274"><ele>801.3333333333333</ele><time>2026-05-01T11:21:11.883Z</time></trkpt><trkpt lat="44.0835195" lon="7.5942518"><ele>800.0</ele><time>2026-05-01T11:21:12.883Z</time></trkpt><trkpt lat="44.0835084" lon="7.5943667"><ele>798.6666666666666</ele><time>2026-05-01T11:21:13.883Z</time></trkpt><trkpt lat="44.0834781" lon="7.5944823"><ele>797.3333333333333</ele><time>2026-05-01T11:21:14.883Z</time></trkpt><trkpt lat="44.0834142" lon="7.5945768"><ele>796.0</ele><time>2026-05-01T11:21:15.883Z</time></trkpt><trkpt lat="44.0833159" lon="7.5946832"><ele>794.25</ele><time>2026-05-01T11:21:16.883Z</time></trkpt><trkpt lat="44.0832199" lon="7.5947841"><ele>792.5</ele><time>2026-05-01T11:21:17.884Z</time></trkpt><trkpt lat="44.0831175" lon="7.5948737"><ele>790.75</ele><time>2026-05-01T11:21:18.883Z</time></trkpt><trkpt lat="44.0830216" lon="7.5949648"><ele>789.0</ele><time>2026-05-01T11:21:19.883Z</time></trkpt><trkpt lat="44.0829449" lon="7.5950382"><ele>789.0</ele><time>2026-05-01T11:21:20.883Z</time></trkpt><trkpt lat="44.0828704" lon="7.5951355"><ele>789.0</ele><time>2026-05-01T11:21:22.883Z</time></trkpt><trkpt lat="44.0827723" lon="7.5952391"><ele>789.0</ele><time>2026-05-01T11:21:24.883Z</time></trkpt><trkpt lat="44.0827177" lon="7.5953161"><ele>789.0</ele><time>2026-05-01T11:21:25.883Z</time></trkpt><trkpt lat="44.0826508" lon="7.5953973"><ele>789.0</ele><time>2026-05-01T11:21:26.883Z</time></trkpt><trkpt lat="44.0825729" lon="7.5954919"><ele>789.25</ele><time>2026-05-01T11:21:27.883Z</time></trkpt><trkpt lat="44.0824754" lon="7.5955962"><ele>789.5</ele><time>2026-05-01T11:21:28.883Z</time></trkpt><trkpt lat="44.0823735" lon="7.5956983"><ele>789.75</ele><time>2026-05-01T11:21:29.883Z</time></trkpt><trkpt lat="44.0822587" lon="7.5958123"><ele>790.0</ele><time>2026-05-01T11:21:30.883Z</time></trkpt><trkpt lat="44.0821517" lon="7.5959361"><ele>790.0</ele><time>2026-05-01T11:21:31.884Z</time></trkpt><trkpt lat="44.0820281" lon="7.5960696"><ele>790.0</ele><time>2026-05-01T11:21:32.883Z</time></trkpt><trkpt lat="44.0818938" lon="7.5961959"><ele>790.0</ele><time>2026-05-01T11:21:33.883Z</time></trkpt><trkpt lat="44.0817605" lon="7.5963225"><ele>790.0</ele><time>2026-05-01T11:21:34.883Z</time></trkpt><trkpt lat="44.0816305" lon="7.5964468"><ele>790.0</ele><time>2026-05-01T11:21:35.883Z</time></trkpt><trkpt lat="44.0815035" lon="7.5965761"><ele>790.0</ele><time>2026-05-01T11:21:36.884Z</time></trkpt><trkpt lat="44.0813685" lon="7.5967073"><ele>790.0</ele><time>2026-05-01T11:21:37.883Z</time></trkpt><trkpt lat="44.0812389" lon="7.5968399"><ele>790.0</ele><time>2026-05-01T11:21:38.883Z</time></trkpt><trkpt lat="44.0811086" lon="7.5969433"><ele>790.0</ele><time>2026-05-01T11:21:39.883Z</time></trkpt><trkpt lat="44.0809825" lon="7.5970619"><ele>789.3333333333333</ele><time>2026-05-01T11:21:40.883Z</time></trkpt><trkpt lat="44.0808352" lon="7.5972035"><ele>788.6666666666667</ele><time>2026-05-01T11:21:41.883Z</time></trkpt><trkpt lat="44.0806911" lon="7.5973514"><ele>788.0</ele><time>2026-05-01T11:21:42.883Z</time></trkpt><trkpt lat="44.0805468" lon="7.597483"><ele>788.0</ele><time>2026-05-01T11:21:43.884Z</time></trkpt><trkpt lat="44.0804065" lon="7.5976179"><ele>788.0</ele><time>2026-05-01T11:21:44.883Z</time></trkpt><trkpt lat="44.0802605" lon="7.5977529"><ele>788.0</ele><time>2026-05-01T11:21:45.883Z</time></trkpt><trkpt lat="44.0801146" lon="7.5978734"><ele>789.6666666666667</ele><time>2026-05-01T11:21:46.883Z</time></trkpt><trkpt lat="44.0799829" lon="7.5979981"><ele>791.3333333333333</ele><time>2026-05-01T11:21:47.883Z</time></trkpt><trkpt lat="44.0798523" lon="7.598116"><ele>793.0</ele><time>2026-05-01T11:21:48.883Z</time></trkpt><trkpt lat="44.0797261" lon="7.598237"><ele>790.0</ele><time>2026-05-01T11:21:49.883Z</time></trkpt><trkpt lat="44.0796059" lon="7.5983453"><ele>787.0</ele><time>2026-05-01T11:21:50.883Z</time></trkpt><trkpt lat="44.07948" lon="7.5984477"><ele>784.0</ele><time>2026-05-01T11:21:51.883Z</time></trkpt><trkpt lat="44.0793681" lon="7.5985612"><ele>781.0</ele><time>2026-05-01T11:21:52.884Z</time></trkpt><trkpt lat="44.0792572" lon="7.5986475"><ele>782.5</ele><time>2026-05-01T11:21:53.883Z</time></trkpt><trkpt lat="44.0791407" lon="7.5987373"><ele>784.0</ele><time>2026-05-01T11:21:54.883Z</time></trkpt><trkpt lat="44.0790167" lon="7.5987926"><ele>785.5</ele><time>2026-05-01T11:21:55.883Z</time></trkpt><trkpt lat="44.0788942" lon="7.5988313"><ele>787.0</ele><time>2026-05-01T11:21:56.883Z</time></trkpt><trkpt lat="44.078758" lon="7.598831"><ele>787.0</ele><time>2026-05-01T11:21:57.883Z</time></trkpt><trkpt lat="44.0786199" lon="7.5988186"><ele>787.0</ele><time>2026-05-01T11:21:58.883Z</time></trkpt><trkpt lat="44.0784934" lon="7.5988059"><ele>787.0</ele><time>2026-05-01T11:21:59.883Z</time></trkpt><trkpt lat="44.0783556" lon="7.5987921"><ele>787.0</ele><time>2026-05-01T11:22:00.883Z</time></trkpt><trkpt lat="44.0782291" lon="7.5987744"><ele>786.25</ele><time>2026-05-01T11:22:01.883Z</time></trkpt><trkpt lat="44.0781022" lon="7.5987559"><ele>785.5</ele><time>2026-05-01T11:22:02.884Z</time></trkpt><trkpt lat="44.0779687" lon="7.5987483"><ele>784.75</ele><time>2026-05-01T11:22:03.883Z</time></trkpt><trkpt lat="44.0778383" lon="7.5987367"><ele>784.0</ele><time>2026-05-01T11:22:04.883Z</time></trkpt><trkpt lat="44.0777176" lon="7.5987274"><ele>784.0</ele><time>2026-05-01T11:22:05.883Z</time></trkpt><trkpt lat="44.0775848" lon="7.5987392"><ele>784.0</ele><time>2026-05-01T11:22:06.883Z</time></trkpt><trkpt lat="44.0774493" lon="7.5987716"><ele>784.0</ele><time>2026-05-01T11:22:07.884Z</time></trkpt><trkpt lat="44.0773208" lon="7.5988174"><ele>784.0</ele><time>2026-05-01T11:22:08.883Z</time></trkpt><trkpt lat="44.0771812" lon="7.59888"><ele>783.0</ele><time>2026-05-01T11:22:09.883Z</time></trkpt><trkpt lat="44.0770487" lon="7.5989333"><ele>782.0</ele><time>2026-05-01T11:22:10.883Z</time></trkpt><trkpt lat="44.0769148" lon="7.5989917"><ele>781.0</ele><time>2026-05-01T11:22:11.883Z</time></trkpt><trkpt lat="44.0767837" lon="7.5990506"><ele>780.0</ele><time>2026-05-01T11:22:12.883Z</time></trkpt><trkpt lat="44.0766358" lon="7.5991216"><ele>780.0</ele><time>2026-05-01T11:22:13.883Z</time></trkpt><trkpt lat="44.076491" lon="7.5991654"><ele>780.0</ele><time>2026-05-01T11:22:14.883Z</time></trkpt><trkpt lat="44.0763508" lon="7.5991808"><ele>780.0</ele><time>2026-05-01T11:22:15.883Z</time></trkpt><trkpt lat="44.0762143" lon="7.5991945"><ele>780.0</ele><time>2026-05-01T11:22:16.883Z</time></trkpt><trkpt lat="44.0760809" lon="7.599176"><ele>780.0</ele><time>2026-05-01T11:22:17.883Z</time></trkpt><trkpt lat="44.0759431" lon="7.5991389"><ele>780.0</ele><time>2026-05-01T11:22:18.883Z</time></trkpt><trkpt lat="44.075808" lon="7.5991087"><ele>780.0</ele><time>2026-05-01T11:22:19.883Z</time></trkpt><trkpt lat="44.0756707" lon="7.5990819"><ele>780.0</ele><time>2026-05-01T11:22:20.883Z</time></trkpt><trkpt lat="44.0755477" lon="7.5990591"><ele>780.25</ele><time>2026-05-01T11:22:21.883Z</time></trkpt><trkpt lat="44.075434" lon="7.5990265"><ele>780.5</ele><time>2026-05-01T11:22:22.883Z</time></trkpt><trkpt lat="44.0753141" lon="7.5989872"><ele>780.75</ele><time>2026-05-01T11:22:23.883Z</time></trkpt><trkpt lat="44.0751996" lon="7.598951"><ele>781.0</ele><time>2026-05-01T11:22:24.883Z</time></trkpt><trkpt lat="44.0750906" lon="7.5989084"><ele>781.0</ele><time>2026-05-01T11:22:25.883Z</time></trkpt><trkpt lat="44.0749822" lon="7.598903"><ele>781.0</ele><time>2026-05-01T11:22:26.883Z</time></trkpt><trkpt lat="44.0748702" lon="7.5988794"><ele>781.0</ele><time>2026-05-01T11:22:27.883Z</time></trkpt><trkpt lat="44.0747473" lon="7.5988539"><ele>781.0</ele><time>2026-05-01T11:22:28.883Z</time></trkpt><trkpt lat="44.0746293" lon="7.5988261"><ele>781.0</ele><time>2026-05-01T11:22:29.883Z</time></trkpt><trkpt lat="44.0745083" lon="7.5987889"><ele>781.0</ele><time>2026-05-01T11:22:30.884Z</time></trkpt><trkpt lat="44.0743747" lon="7.5987531"><ele>781.0</ele><time>2026-05-01T11:22:31.883Z</time></trkpt><trkpt lat="44.0742409" lon="7.5987237"><ele>781.0</ele><time>2026-05-01T11:22:32.883Z</time></trkpt><trkpt lat="44.0741176" lon="7.5986988"><ele>779.0</ele><time>2026-05-01T11:22:33.883Z</time></trkpt><trkpt lat="44.0740098" lon="7.5986387"><ele>777.0</ele><time>2026-05-01T11:22:34.883Z</time></trkpt><trkpt lat="44.0739056" lon="7.5985645"><ele>775.0</ele><time>2026-05-01T11:22:35.884Z</time></trkpt><trkpt lat="44.0738049" lon="7.5984565"><ele>773.0</ele><time>2026-05-01T11:22:36.883Z</time></trkpt><trkpt lat="44.0737084" lon="7.5983419"><ele>773.0</ele><time>2026-05-01T11:22:37.883Z</time></trkpt><trkpt lat="44.0736149" lon="7.5982351"><ele>773.0</ele><time>2026-05-01T11:22:38.883Z</time></trkpt><trkpt lat="44.0735199" lon="7.5981261"><ele>773.0</ele><time>2026-05-01T11:22:39.883Z</time></trkpt><trkpt lat="44.0734295" lon="7.5980138"><ele>773.0</ele><time>2026-05-01T11:22:40.883Z</time></trkpt><trkpt lat="44.0733403" lon="7.5978942"><ele>778.0</ele><time>2026-05-01T11:22:41.883Z</time></trkpt><trkpt lat="44.0732554" lon="7.5977196"><ele>783.0</ele><time>2026-05-01T11:22:42.883Z</time></trkpt><trkpt lat="44.0731906" lon="7.597524"><ele>788.0</ele><time>2026-05-01T11:22:43.883Z</time></trkpt><trkpt lat="44.0731221" lon="7.5973273"><ele>788.0</ele><time>2026-05-01T11:22:44.883Z</time></trkpt><trkpt lat="44.0730775" lon="7.5971212"><ele>788.0</ele><time>2026-05-01T11:22:45.883Z</time></trkpt><trkpt lat="44.0730361" lon="7.5969294"><ele>788.0</ele><time>2026-05-01T11:22:46.883Z</time></trkpt><trkpt lat="44.0730074" lon="7.5967307"><ele>788.0</ele><time>2026-05-01T11:22:47.883Z</time></trkpt><trkpt lat="44.0729717" lon="7.596539"><ele>785.6666666666667</ele><time>2026-05-01T11:22:48.883Z</time></trkpt><trkpt lat="44.0729077" lon="7.596385"><ele>783.3333333333333</ele><time>2026-05-01T11:22:49.883Z</time></trkpt><trkpt lat="44.0728408" lon="7.5962003"><ele>781.0</ele><time>2026-05-01T11:22:50.883Z</time></trkpt><trkpt lat="44.0727179" lon="7.5960193"><ele>779.0</ele><time>2026-05-01T11:22:51.883Z</time></trkpt><trkpt lat="44.0725876" lon="7.5958132"><ele>777.0</ele><time>2026-05-01T11:22:52.883Z</time></trkpt><trkpt lat="44.0724474" lon="7.5956203"><ele>775.0</ele><time>2026-05-01T11:22:53.883Z</time></trkpt><trkpt lat="44.072309" lon="7.5954153"><ele>776.6666666666666</ele><time>2026-05-01T11:22:54.883Z</time></trkpt><trkpt lat="44.0721631" lon="7.595227"><ele>778.3333333333333</ele><time>2026-05-01T11:22:55.883Z</time></trkpt><trkpt lat="44.072011" lon="7.5950534"><ele>780.0</ele><time>2026-05-01T11:22:56.883Z</time></trkpt><trkpt lat="44.0718643" lon="7.5948965"><ele>780.0</ele><time>2026-05-01T11:22:57.883Z</time></trkpt><trkpt lat="44.0717112" lon="7.5947557"><ele>780.0</ele><time>2026-05-01T11:22:58.883Z</time></trkpt><trkpt lat="44.0715657" lon="7.5946204"><ele>780.0</ele><time>2026-05-01T11:22:59.883Z</time></trkpt><trkpt lat="44.0714493" lon="7.5945068"><ele>778.25</ele><time>2026-05-01T11:23:00.883Z</time></trkpt><trkpt lat="44.0713627" lon="7.5944171"><ele>776.5</ele><time>2026-05-01T11:23:01.884Z</time></trkpt><trkpt lat="44.0712617" lon="7.5943329"><ele>774.75</ele><time>2026-05-01T11:23:02.884Z</time></trkpt><trkpt lat="44.0711571" lon="7.5942548"><ele>773.0</ele><time>2026-05-01T11:23:03.883Z</time></trkpt><trkpt lat="44.0710687" lon="7.594161"><ele>773.0</ele><time>2026-05-01T11:23:04.883Z</time></trkpt><trkpt lat="44.0709979" lon="7.5940742"><ele>773.0</ele><time>2026-05-01T11:23:05.883Z</time></trkpt><trkpt lat="44.0709338" lon="7.5938977"><ele>773.0</ele><time>2026-05-01T11:23:06.883Z</time></trkpt><trkpt lat="44.0708759" lon="7.5937474"><ele>773.0</ele><time>2026-05-01T11:23:07.883Z</time></trkpt><trkpt lat="44.0708368" lon="7.5935874"><ele>773.0</ele><time>2026-05-01T11:23:08.884Z</time></trkpt><trkpt lat="44.0708309" lon="7.5933375"><ele>773.0</ele><time>2026-05-01T11:23:09.883Z</time></trkpt><trkpt lat="44.0707922" lon="7.5931069"><ele>773.0</ele><time>2026-05-01T11:23:10.883Z</time></trkpt><trkpt lat="44.0707693" lon="7.5928477"><ele>777.6666666666667</ele><time>2026-05-01T11:23:11.883Z</time></trkpt><trkpt lat="44.0707464" lon="7.5926095"><ele>782.3333333333333</ele><time>2026-05-01T11:23:12.883Z</time></trkpt><trkpt lat="44.070729" lon="7.5923617"><ele>787.0</ele><time>2026-05-01T11:23:13.883Z</time></trkpt><trkpt lat="44.0706973" lon="7.5921174"><ele>784.0</ele><time>2026-05-01T11:23:14.883Z</time></trkpt><trkpt lat="44.0706821" lon="7.5918774"><ele>781.0</ele><time>2026-05-01T11:23:15.884Z</time></trkpt><trkpt lat="44.0706661" lon="7.5916901"><ele>778.0</ele><time>2026-05-01T11:23:16.883Z</time></trkpt><trkpt lat="44.0706492" lon="7.5914878"><ele>778.0</ele><time>2026-05-01T11:23:17.883Z</time></trkpt><trkpt lat="44.0706245" lon="7.5912806"><ele>778.0</ele><time>2026-05-01T11:23:18.883Z</time></trkpt><trkpt lat="44.0706068" lon="7.5910883"><ele>778.0</ele><time>2026-05-01T11:23:19.883Z</time></trkpt><trkpt lat="44.0705909" lon="7.5909066"><ele>778.0</ele><time>2026-05-01T11:23:20.883Z</time></trkpt><trkpt lat="44.0705825" lon="7.5907268"><ele>776.75</ele><time>2026-05-01T11:23:21.883Z</time></trkpt><trkpt lat="44.0705727" lon="7.5905512"><ele>775.5</ele><time>2026-05-01T11:23:22.883Z</time></trkpt><trkpt lat="44.0706076" lon="7.5903584"><ele>774.25</ele><time>2026-05-01T11:23:23.883Z</time></trkpt><trkpt lat="44.0706497" lon="7.5901746"><ele>773.0</ele><time>2026-05-01T11:23:24.883Z</time></trkpt><trkpt lat="44.0706832" lon="7.5899655"><ele>770.0</ele><time>2026-05-01T11:23:25.883Z</time></trkpt><trkpt lat="44.0707235" lon="7.589772"><ele>767.0</ele><time>2026-05-01T11:23:26.883Z</time></trkpt><trkpt lat="44.0707356" lon="7.5895589"><ele>764.0</ele><time>2026-05-01T11:23:27.883Z</time></trkpt><trkpt lat="44.0707538" lon="7.589351"><ele>761.0</ele><time>2026-05-01T11:23:28.883Z</time></trkpt><trkpt lat="44.0707398" lon="7.5891824"><ele>759.0</ele><time>2026-05-01T11:23:29.883Z</time></trkpt><trkpt lat="44.0706619" lon="7.5889987"><ele>757.0</ele><time>2026-05-01T11:23:30.883Z</time></trkpt><trkpt lat="44.0705934" lon="7.5888623"><ele>755.0</ele><time>2026-05-01T11:23:31.883Z</time></trkpt><trkpt lat="44.070519" lon="7.588738"><ele>753.0</ele><time>2026-05-01T11:23:32.883Z</time></trkpt><trkpt lat="44.070418" lon="7.5886377"><ele>761.0</ele><time>2026-05-01T11:23:33.883Z</time></trkpt><trkpt lat="44.0702912" lon="7.5885641"><ele>769.0</ele><time>2026-05-01T11:23:34.883Z</time></trkpt><trkpt lat="44.0701162" lon="7.5885803"><ele>777.0</ele><time>2026-05-01T11:23:35.883Z</time></trkpt><trkpt lat="44.0699712" lon="7.5885544"><ele>779.0</ele><time>2026-05-01T11:23:36.883Z</time></trkpt><trkpt lat="44.069799" lon="7.5885452"><ele>781.0</ele><time>2026-05-01T11:23:37.883Z</time></trkpt><trkpt lat="44.0696462" lon="7.5885181"><ele>783.0</ele><time>2026-05-01T11:23:38.883Z</time></trkpt><trkpt lat="44.069479" lon="7.5885868"><ele>783.0</ele><time>2026-05-01T11:23:39.883Z</time></trkpt><trkpt lat="44.0693179" lon="7.5886238"><ele>783.0</ele><time>2026-05-01T11:23:40.883Z</time></trkpt><trkpt lat="44.06917" lon="7.5887757"><ele>783.0</ele><time>2026-05-01T11:23:41.883Z</time></trkpt><trkpt lat="44.0690189" lon="7.5889385"><ele>782.6666666666667</ele><time>2026-05-01T11:23:42.883Z</time></trkpt><trkpt lat="44.0688825" lon="7.5890867"><ele>782.3333333333334</ele><time>2026-05-01T11:23:43.883Z</time></trkpt><trkpt lat="44.068751" lon="7.5892245"><ele>782.0</ele><time>2026-05-01T11:23:44.883Z</time></trkpt><trkpt lat="44.0686109" lon="7.5893573"><ele>782.0</ele><time>2026-05-01T11:23:45.883Z</time></trkpt><trkpt lat="44.0684813" lon="7.5894968"><ele>782.0</ele><time>2026-05-01T11:23:46.883Z</time></trkpt><trkpt lat="44.068366" lon="7.58961"><ele>782.0</ele><time>2026-05-01T11:23:47.883Z</time></trkpt><trkpt lat="44.0682645" lon="7.5896964"><ele>782.0</ele><time>2026-05-01T11:23:48.883Z</time></trkpt><trkpt lat="44.0681322" lon="7.5897676"><ele>775.25</ele><time>2026-05-01T11:23:49.883Z</time></trkpt><trkpt lat="44.0679756" lon="7.5898246"><ele>768.5</ele><time>2026-05-01T11:23:50.883Z</time></trkpt><trkpt lat="44.0678381" lon="7.5898708"><ele>761.75</ele><time>2026-05-01T11:23:51.883Z</time></trkpt><trkpt lat="44.067707" lon="7.5899042"><ele>755.0</ele><time>2026-05-01T11:23:52.883Z</time></trkpt><trkpt lat="44.067565" lon="7.5898924"><ele>753.6666666666666</ele><time>2026-05-01T11:23:53.883Z</time></trkpt><trkpt lat="44.0674145" lon="7.5898601"><ele>752.3333333333334</ele><time>2026-05-01T11:23:54.883Z</time></trkpt><trkpt lat="44.0672449" lon="7.5898211"><ele>751.0</ele><time>2026-05-01T11:23:55.883Z</time></trkpt><trkpt lat="44.0670689" lon="7.589771"><ele>751.0</ele><time>2026-05-01T11:23:56.883Z</time></trkpt><trkpt lat="44.0668948" lon="7.5897239"><ele>751.0</ele><time>2026-05-01T11:23:57.883Z</time></trkpt><trkpt lat="44.0666982" lon="7.5896509"><ele>751.0</ele><time>2026-05-01T11:23:58.883Z</time></trkpt><trkpt lat="44.0665181" lon="7.5895746"><ele>752.0</ele><time>2026-05-01T11:23:59.883Z</time></trkpt><trkpt lat="44.066326" lon="7.5895235"><ele>753.0</ele><time>2026-05-01T11:24:00.883Z</time></trkpt><trkpt lat="44.066176" lon="7.589373"><ele>754.0</ele><time>2026-05-01T11:24:01.883Z</time></trkpt><trkpt lat="44.0660022" lon="7.5893151"><ele>753.0</ele><time>2026-05-01T11:24:02.883Z</time></trkpt><trkpt lat="44.0658314" lon="7.5892643"><ele>752.0</ele><time>2026-05-01T11:24:03.883Z</time></trkpt><trkpt lat="44.0656549" lon="7.5892306"><ele>751.0</ele><time>2026-05-01T11:24:04.883Z</time></trkpt><trkpt lat="44.0654596" lon="7.5892293"><ele>751.0</ele><time>2026-05-01T11:24:05.883Z</time></trkpt><trkpt lat="44.0652819" lon="7.5892309"><ele>751.0</ele><time>2026-05-01T11:24:06.883Z</time></trkpt><trkpt lat="44.0651098" lon="7.5892365"><ele>751.0</ele><time>2026-05-01T11:24:07.883Z</time></trkpt><trkpt lat="44.0649497" lon="7.5892359"><ele>749.0</ele><time>2026-05-01T11:24:08.883Z</time></trkpt><trkpt lat="44.064814" lon="7.5892299"><ele>747.0</ele><time>2026-05-01T11:24:09.883Z</time></trkpt><trkpt lat="44.0646665" lon="7.5892562"><ele>745.0</ele><time>2026-05-01T11:24:10.883Z</time></trkpt><trkpt lat="44.0645417" lon="7.5892361"><ele>743.0</ele><time>2026-05-01T11:24:11.883Z</time></trkpt><trkpt lat="44.064404" lon="7.5892267"><ele>743.0</ele><time>2026-05-01T11:24:12.883Z</time></trkpt><trkpt lat="44.0642534" lon="7.589173"><ele>743.0</ele><time>2026-05-01T11:24:13.883Z</time></trkpt><trkpt lat="44.0640882" lon="7.5891351"><ele>743.0</ele><time>2026-05-01T11:24:14.883Z</time></trkpt><trkpt lat="44.0639242" lon="7.5890831"><ele>739.3333333333333</ele><time>2026-05-01T11:24:15.883Z</time></trkpt><trkpt lat="44.0637438" lon="7.5890101"><ele>735.6666666666666</ele><time>2026-05-01T11:24:16.884Z</time></trkpt><trkpt lat="44.0635826" lon="7.5889354"><ele>732.0</ele><time>2026-05-01T11:24:17.883Z</time></trkpt><trkpt lat="44.0634275" lon="7.588859"><ele>732.3333333333334</ele><time>2026-05-01T11:24:18.883Z</time></trkpt><trkpt lat="44.063262" lon="7.5887991"><ele>732.6666666666667</ele><time>2026-05-01T11:24:19.883Z</time></trkpt><trkpt lat="44.0631297" lon="7.5887358"><ele>733.0</ele><time>2026-05-01T11:24:20.883Z</time></trkpt><trkpt lat="44.0629813" lon="7.5886498"><ele>734.75</ele><time>2026-05-01T11:24:21.883Z</time></trkpt><trkpt lat="44.0628813" lon="7.5885996"><ele>736.5</ele><time>2026-05-01T11:24:22.883Z</time></trkpt><trkpt lat="44.0627405" lon="7.5885938"><ele>738.25</ele><time>2026-05-01T11:24:23.883Z</time></trkpt><trkpt lat="44.0626025" lon="7.5885388"><ele>740.0</ele><time>2026-05-01T11:24:24.883Z</time></trkpt><trkpt lat="44.0624638" lon="7.5885308"><ele>737.25</ele><time>2026-05-01T11:24:25.883Z</time></trkpt><trkpt lat="44.0623566" lon="7.5884807"><ele>734.5</ele><time>2026-05-01T11:24:26.883Z</time></trkpt><trkpt lat="44.0622283" lon="7.5884696"><ele>731.75</ele><time>2026-05-01T11:24:27.883Z</time></trkpt><trkpt lat="44.0620951" lon="7.5884665"><ele>729.0</ele><time>2026-05-01T11:24:28.884Z</time></trkpt><trkpt lat="44.0619715" lon="7.5884778"><ele>729.0</ele><time>2026-05-01T11:24:29.883Z</time></trkpt><trkpt lat="44.0618547" lon="7.5884854"><ele>729.0</ele><time>2026-05-01T11:24:30.883Z</time></trkpt><trkpt lat="44.0617508" lon="7.5884809"><ele>729.0</ele><time>2026-05-01T11:24:31.883Z</time></trkpt><trkpt lat="44.0616397" lon="7.5884801"><ele>729.0</ele><time>2026-05-01T11:24:32.883Z</time></trkpt><trkpt lat="44.0615336" lon="7.588462"><ele>729.0</ele><time>2026-05-01T11:24:33.883Z</time></trkpt><trkpt lat="44.0614302" lon="7.588418"><ele>725.25</ele><time>2026-05-01T11:24:34.883Z</time></trkpt><trkpt lat="44.0613489" lon="7.5883123"><ele>721.5</ele><time>2026-05-01T11:24:35.884Z</time></trkpt><trkpt lat="44.0612687" lon="7.5882108"><ele>717.75</ele><time>2026-05-01T11:24:36.883Z</time></trkpt><trkpt lat="44.0611691" lon="7.5881334"><ele>714.0</ele><time>2026-05-01T11:24:37.883Z</time></trkpt><trkpt lat="44.0610653" lon="7.5880533"><ele>714.0</ele><time>2026-05-01T11:24:38.883Z</time></trkpt><trkpt lat="44.0609469" lon="7.588019"><ele>714.0</ele><time>2026-05-01T11:24:39.883Z</time></trkpt><trkpt lat="44.0608258" lon="7.5880061"><ele>714.0</ele><time>2026-05-01T11:24:40.884Z</time></trkpt><trkpt lat="44.0607119" lon="7.5879988"><ele>714.0</ele><time>2026-05-01T11:24:41.883Z</time></trkpt><trkpt lat="44.0605955" lon="7.5879931"><ele>711.8000000000001</ele><time>2026-05-01T11:24:42.883Z</time></trkpt><trkpt lat="44.0604929" lon="7.5879827"><ele>709.6</ele><time>2026-05-01T11:24:43.883Z</time></trkpt><trkpt lat="44.0604012" lon="7.5879774"><ele>707.4</ele><time>2026-05-01T11:24:44.883Z</time></trkpt><trkpt lat="44.0603076" lon="7.5879692"><ele>705.2</ele><time>2026-05-01T11:24:45.883Z</time></trkpt><trkpt lat="44.0602034" lon="7.5879733"><ele>703.0</ele><time>2026-05-01T11:24:46.883Z</time></trkpt><trkpt lat="44.0601159" lon="7.587958"><ele>703.0</ele><time>2026-05-01T11:24:47.883Z</time></trkpt><trkpt lat="44.0600229" lon="7.5879292"><ele>703.0</ele><time>2026-05-01T11:24:48.883Z</time></trkpt><trkpt lat="44.0599427" lon="7.587897"><ele>703.0</ele><time>2026-05-01T11:24:49.883Z</time></trkpt><trkpt lat="44.0598648" lon="7.5878688"><ele>703.0</ele><time>2026-05-01T11:24:50.883Z</time></trkpt><trkpt lat="44.0597917" lon="7.5878373"><ele>703.0</ele><time>2026-05-01T11:24:51.883Z</time></trkpt><trkpt lat="44.0597161" lon="7.5878109"><ele>703.0</ele><time>2026-05-01T11:24:52.883Z</time></trkpt><trkpt lat="44.0596298" lon="7.5877574"><ele>702.8</ele><time>2026-05-01T11:24:53.883Z</time></trkpt><trkpt lat="44.059548" lon="7.5877041"><ele>702.5999999999999</ele><time>2026-05-01T11:24:54.883Z</time></trkpt><trkpt lat="44.0594579" lon="7.5876234"><ele>702.4000000000001</ele><time>2026-05-01T11:24:55.883Z</time></trkpt><trkpt lat="44.0593729" lon="7.5875472"><ele>702.2</ele><time>2026-05-01T11:24:56.883Z</time></trkpt><trkpt lat="44.0592961" lon="7.587451"><ele>702.0</ele><time>2026-05-01T11:24:57.883Z</time></trkpt><trkpt lat="44.0592283" lon="7.5873592"><ele>702.0</ele><time>2026-05-01T11:24:58.883Z</time></trkpt><trkpt lat="44.0591719" lon="7.5872547"><ele>702.0</ele><time>2026-05-01T11:24:59.883Z</time></trkpt><trkpt lat="44.0591138" lon="7.5871545"><ele>702.0</ele><time>2026-05-01T11:25:00.883Z</time></trkpt><trkpt lat="44.0590484" lon="7.5870476"><ele>702.0</ele><time>2026-05-01T11:25:01.883Z</time></trkpt><trkpt lat="44.058981" lon="7.5869433"><ele>702.0</ele><time>2026-05-01T11:25:02.883Z</time></trkpt><trkpt lat="44.0589242" lon="7.5868492"><ele>701.0</ele><time>2026-05-01T11:25:03.883Z</time></trkpt><trkpt lat="44.0588433" lon="7.5867283"><ele>700.0</ele><time>2026-05-01T11:25:04.883Z</time></trkpt><trkpt lat="44.0587697" lon="7.5866387"><ele>699.0</ele><time>2026-05-01T11:25:05.883Z</time></trkpt><trkpt lat="44.0587104" lon="7.5865532"><ele>698.0</ele><time>2026-05-01T11:25:06.883Z</time></trkpt><trkpt lat="44.0586443" lon="7.5864684"><ele>697.0</ele><time>2026-05-01T11:25:07.883Z</time></trkpt><trkpt lat="44.0585842" lon="7.5863801"><ele>697.0</ele><time>2026-05-01T11:25:08.883Z</time></trkpt><trkpt lat="44.058501" lon="7.5863179"><ele>697.0</ele><time>2026-05-01T11:25:09.883Z</time></trkpt><trkpt lat="44.0584135" lon="7.5862579"><ele>697.0</ele><time>2026-05-01T11:25:10.883Z</time></trkpt><trkpt lat="44.0583225" lon="7.5862172"><ele>697.0</ele><time>2026-05-01T11:25:11.883Z</time></trkpt><trkpt lat="44.0582241" lon="7.5862034"><ele>697.0</ele><time>2026-05-01T11:25:12.883Z</time></trkpt><trkpt lat="44.0581197" lon="7.5862025"><ele>697.4000000000001</ele><time>2026-05-01T11:25:13.883Z</time></trkpt><trkpt lat="44.0580186" lon="7.586195"><ele>697.8000000000001</ele><time>2026-05-01T11:25:14.884Z</time></trkpt><trkpt lat="44.0579067" lon="7.5861879"><ele>698.2</ele><time>2026-05-01T11:25:15.883Z</time></trkpt><trkpt lat="44.0578053" lon="7.5861889"><ele>698.6</ele><time>2026-05-01T11:25:16.883Z</time></trkpt><trkpt lat="44.0577051" lon="7.5861803"><ele>699.0</ele><time>2026-05-01T11:25:17.883Z</time></trkpt><trkpt lat="44.0576119" lon="7.5861718"><ele>699.0</ele><time>2026-05-01T11:25:18.883Z</time></trkpt><trkpt lat="44.057524" lon="7.5861548"><ele>699.0</ele><time>2026-05-01T11:25:19.883Z</time></trkpt><trkpt lat="44.0574434" lon="7.5861426"><ele>699.0</ele><time>2026-05-01T11:25:20.883Z</time></trkpt><trkpt lat="44.0573575" lon="7.5861345"><ele>699.0</ele><time>2026-05-01T11:25:21.883Z</time></trkpt><trkpt lat="44.0572699" lon="7.5861273"><ele>699.0</ele><time>2026-05-01T11:25:22.883Z</time></trkpt><trkpt lat="44.057194" lon="7.5861246"><ele>699.0</ele><time>2026-05-01T11:25:23.883Z</time></trkpt><trkpt lat="44.0571221" lon="7.58618"><ele>699.5</ele><time>2026-05-01T11:25:24.883Z</time></trkpt><trkpt lat="44.057052" lon="7.5862395"><ele>700.0</ele><time>2026-05-01T11:25:25.883Z</time></trkpt><trkpt lat="44.0569835" lon="7.5863118"><ele>700.5</ele><time>2026-05-01T11:25:26.883Z</time></trkpt><trkpt lat="44.0569083" lon="7.586383"><ele>701.0</ele><time>2026-05-01T11:25:27.883Z</time></trkpt><trkpt lat="44.0568343" lon="7.5864271"><ele>701.5</ele><time>2026-05-01T11:25:28.883Z</time></trkpt><trkpt lat="44.0567565" lon="7.5864554"><ele>702.0</ele><time>2026-05-01T11:25:29.883Z</time></trkpt><trkpt lat="44.056368" lon="7.5866471"><ele>702.0</ele><time>2026-05-01T11:25:34.883Z</time></trkpt><trkpt lat="44.0562842" lon="7.586886"><ele>702.0</ele><time>2026-05-01T11:25:35.883Z</time></trkpt><trkpt lat="44.0561765" lon="7.5869781"><ele>702.0</ele><time>2026-05-01T11:25:36.883Z</time></trkpt><trkpt lat="44.056083" lon="7.5870792"><ele>702.0</ele><time>2026-05-01T11:25:37.883Z</time></trkpt><trkpt lat="44.0560204" lon="7.5871634"><ele>700.8571428571429</ele><time>2026-05-01T11:25:38.883Z</time></trkpt><trkpt lat="44.0560053" lon="7.5872637"><ele>699.7142857142858</ele><time>2026-05-01T11:25:39.883Z</time></trkpt><trkpt lat="44.0559628" lon="7.587365"><ele>698.5714285714287</ele><time>2026-05-01T11:25:40.883Z</time></trkpt><trkpt lat="44.0559417" lon="7.5874596"><ele>697.4285714285714</ele><time>2026-05-01T11:25:41.883Z</time></trkpt><trkpt lat="44.0559305" lon="7.5875501"><ele>696.2857142857142</ele><time>2026-05-01T11:25:42.883Z</time></trkpt><trkpt lat="44.0559137" lon="7.5876519"><ele>695.1428571428572</ele><time>2026-05-01T11:25:43.883Z</time></trkpt><trkpt lat="44.0558738" lon="7.5877444"><ele>694.0</ele><time>2026-05-01T11:25:44.883Z</time></trkpt><trkpt lat="44.0558428" lon="7.58785"><ele>693.0</ele><time>2026-05-01T11:25:45.883Z</time></trkpt><trkpt lat="44.0558044" lon="7.5879637"><ele>692.0</ele><time>2026-05-01T11:25:46.883Z</time></trkpt><trkpt lat="44.0557572" lon="7.5880555"><ele>691.0</ele><time>2026-05-01T11:25:47.883Z</time></trkpt><trkpt lat="44.0557092" lon="7.5881528"><ele>690.0</ele><time>2026-05-01T11:25:48.883Z</time></trkpt><trkpt lat="44.0556675" lon="7.5882484"><ele>689.0</ele><time>2026-05-01T11:25:49.883Z</time></trkpt><trkpt lat="44.0556309" lon="7.5883446"><ele>688.0</ele><time>2026-05-01T11:25:50.883Z</time></trkpt><trkpt lat="44.0555766" lon="7.5884258"><ele>688.0</ele><time>2026-05-01T11:25:51.883Z</time></trkpt><trkpt lat="44.055514" lon="7.588497"><ele>688.0</ele><time>2026-05-01T11:25:52.883Z</time></trkpt><trkpt lat="44.0554326" lon="7.5885569"><ele>688.0</ele><time>2026-05-01T11:25:53.883Z</time></trkpt><trkpt lat="44.0553495" lon="7.5886112"><ele>688.0</ele><time>2026-05-01T11:25:54.883Z</time></trkpt><trkpt lat="44.0552652" lon="7.5886455"><ele>688.0</ele><time>2026-05-01T11:25:55.883Z</time></trkpt><trkpt lat="44.0551921" lon="7.5886756"><ele>688.0</ele><time>2026-05-01T11:25:56.883Z</time></trkpt><trkpt lat="44.0551289" lon="7.5887122"><ele>685.5999999999999</ele><time>2026-05-01T11:25:57.884Z</time></trkpt><trkpt lat="44.0550435" lon="7.5887619"><ele>683.1999999999999</ele><time>2026-05-01T11:25:58.883Z</time></trkpt><trkpt lat="44.0549153" lon="7.5887953"><ele>680.8</ele><time>2026-05-01T11:26:00.883Z</time></trkpt><trkpt lat="44.0548422" lon="7.5888191"><ele>678.4</ele><time>2026-05-01T11:26:01.883Z</time></trkpt><trkpt lat="44.0547664" lon="7.5888232"><ele>676.0</ele><time>2026-05-01T11:26:02.883Z</time></trkpt><trkpt lat="44.054676" lon="7.5888432"><ele>675.6666666666667</ele><time>2026-05-01T11:26:03.883Z</time></trkpt><trkpt lat="44.0545906" lon="7.5888474"><ele>675.3333333333334</ele><time>2026-05-01T11:26:04.883Z</time></trkpt><trkpt lat="44.0545075" lon="7.5888577"><ele>675.0</ele><time>2026-05-01T11:26:05.883Z</time></trkpt><trkpt lat="44.0544206" lon="7.5888542"><ele>674.6666666666666</ele><time>2026-05-01T11:26:06.883Z</time></trkpt><trkpt lat="44.0543397" lon="7.5888585"><ele>674.3333333333333</ele><time>2026-05-01T11:26:07.883Z</time></trkpt><trkpt lat="44.0542477" lon="7.5888782"><ele>674.0</ele><time>2026-05-01T11:26:08.883Z</time></trkpt><trkpt lat="44.0541732" lon="7.5888701"><ele>673.8571428571429</ele><time>2026-05-01T11:26:09.883Z</time></trkpt><trkpt lat="44.0541012" lon="7.5888642"><ele>673.7142857142858</ele><time>2026-05-01T11:26:10.883Z</time></trkpt><trkpt lat="44.0540299" lon="7.5888687"><ele>673.5714285714287</ele><time>2026-05-01T11:26:11.883Z</time></trkpt><trkpt lat="44.0539572" lon="7.5888758"><ele>673.4285714285714</ele><time>2026-05-01T11:26:12.883Z</time></trkpt><trkpt lat="44.0538881" lon="7.5888948"><ele>673.2857142857142</ele><time>2026-05-01T11:26:13.883Z</time></trkpt><trkpt lat="44.0538115" lon="7.5889184"><ele>673.1428571428572</ele><time>2026-05-01T11:26:14.883Z</time></trkpt><trkpt lat="44.0537355" lon="7.588932"><ele>673.0</ele><time>2026-05-01T11:26:15.883Z</time></trkpt><trkpt lat="44.0536632" lon="7.58893"><ele>673.0</ele><time>2026-05-01T11:26:16.883Z</time></trkpt><trkpt lat="44.0535927" lon="7.5889238"><ele>673.0</ele><time>2026-05-01T11:26:17.883Z</time></trkpt><trkpt lat="44.053509" lon="7.5889521"><ele>673.0</ele><time>2026-05-01T11:26:18.883Z</time></trkpt><trkpt lat="44.0534364" lon="7.5889626"><ele>673.0</ele><time>2026-05-01T11:26:19.884Z</time></trkpt><trkpt lat="44.0533509" lon="7.5889833"><ele>673.0</ele><time>2026-05-01T11:26:20.883Z</time></trkpt><trkpt lat="44.0532691" lon="7.5890075"><ele>673.0</ele><time>2026-05-01T11:26:21.883Z</time></trkpt><trkpt lat="44.0531885" lon="7.5890343"><ele>672.2</ele><time>2026-05-01T11:26:22.883Z</time></trkpt><trkpt lat="44.0531168" lon="7.5890563"><ele>671.4</ele><time>2026-05-01T11:26:23.883Z</time></trkpt><trkpt lat="44.0529974" lon="7.5890812"><ele>670.6</ele><time>2026-05-01T11:26:24.883Z</time></trkpt><trkpt lat="44.0528971" lon="7.5890821"><ele>669.8000000000001</ele><time>2026-05-01T11:26:25.883Z</time></trkpt><trkpt lat="44.0528236" lon="7.5890377"><ele>669.0</ele><time>2026-05-01T11:26:26.883Z</time></trkpt><trkpt lat="44.0527307" lon="7.5890228"><ele>669.0</ele><time>2026-05-01T11:26:27.883Z</time></trkpt><trkpt lat="44.0526301" lon="7.5890085"><ele>669.0</ele><time>2026-05-01T11:26:28.883Z</time></trkpt><trkpt lat="44.0525288" lon="7.5890041"><ele>669.0</ele><time>2026-05-01T11:26:29.883Z</time></trkpt><trkpt lat="44.05243" lon="7.5889996"><ele>669.0</ele><time>2026-05-01T11:26:30.883Z</time></trkpt><trkpt lat="44.0523229" lon="7.588999"><ele>669.0</ele><time>2026-05-01T11:26:31.883Z</time></trkpt><trkpt lat="44.0522181" lon="7.5889878"><ele>667.8000000000001</ele><time>2026-05-01T11:26:32.883Z</time></trkpt><trkpt lat="44.0521175" lon="7.5889681"><ele>666.6</ele><time>2026-05-01T11:26:33.883Z</time></trkpt><trkpt lat="44.0520505" lon="7.5889233"><ele>665.4</ele><time>2026-05-01T11:26:34.883Z</time></trkpt><trkpt lat="44.0519488" lon="7.5888843"><ele>664.2</ele><time>2026-05-01T11:26:35.883Z</time></trkpt><trkpt lat="44.051862" lon="7.5888571"><ele>663.0</ele><time>2026-05-01T11:26:36.883Z</time></trkpt><trkpt lat="44.0517662" lon="7.588832"><ele>663.0</ele><time>2026-05-01T11:26:37.883Z</time></trkpt><trkpt lat="44.0516741" lon="7.5888071"><ele>663.0</ele><time>2026-05-01T11:26:38.883Z</time></trkpt><trkpt lat="44.0515809" lon="7.5887663"><ele>663.0</ele><time>2026-05-01T11:26:39.884Z</time></trkpt><trkpt lat="44.0514804" lon="7.5887417"><ele>663.0</ele><time>2026-05-01T11:26:40.883Z</time></trkpt><trkpt lat="44.0513865" lon="7.5887041"><ele>663.0</ele><time>2026-05-01T11:26:41.884Z</time></trkpt><trkpt lat="44.0513144" lon="7.5886613"><ele>662.1666666666666</ele><time>2026-05-01T11:26:42.883Z</time></trkpt><trkpt lat="44.0512339" lon="7.5886385"><ele>661.3333333333334</ele><time>2026-05-01T11:26:43.883Z</time></trkpt><trkpt lat="44.0511589" lon="7.5885992"><ele>660.5</ele><time>2026-05-01T11:26:44.883Z</time></trkpt><trkpt lat="44.0510816" lon="7.5885694"><ele>659.6666666666667</ele><time>2026-05-01T11:26:45.883Z</time></trkpt><trkpt lat="44.0509888" lon="7.5885244"><ele>658.8333333333334</ele><time>2026-05-01T11:26:46.883Z</time></trkpt><trkpt lat="44.0509108" lon="7.5884943"><ele>658.0</ele><time>2026-05-01T11:26:47.883Z</time></trkpt><trkpt lat="44.0508253" lon="7.5884629"><ele>657.0</ele><time>2026-05-01T11:26:48.883Z</time></trkpt><trkpt lat="44.0507336" lon="7.5884035"><ele>656.0</ele><time>2026-05-01T11:26:49.883Z</time></trkpt><trkpt lat="44.0506662" lon="7.5883372"><ele>655.0</ele><time>2026-05-01T11:26:50.883Z</time></trkpt><trkpt lat="44.0505845" lon="7.5882566"><ele>654.0</ele><time>2026-05-01T11:26:51.883Z</time></trkpt><trkpt lat="44.0505201" lon="7.5881916"><ele>653.0</ele><time>2026-05-01T11:26:52.883Z</time></trkpt><trkpt lat="44.0504455" lon="7.588107"><ele>653.0</ele><time>2026-05-01T11:26:53.883Z</time></trkpt><trkpt lat="44.050381" lon="7.5880154"><ele>653.0</ele><time>2026-05-01T11:26:54.883Z</time></trkpt><trkpt lat="44.0502987" lon="7.5879265"><ele>653.0</ele><time>2026-05-01T11:26:55.883Z</time></trkpt><trkpt lat="44.0502227" lon="7.5878489"><ele>653.0</ele><time>2026-05-01T11:26:56.883Z</time></trkpt><trkpt lat="44.0501372" lon="7.5877862"><ele>653.0</ele><time>2026-05-01T11:26:57.883Z</time></trkpt><trkpt lat="44.0500475" lon="7.5877347"><ele>654.5999999999999</ele><time>2026-05-01T11:26:58.883Z</time></trkpt><trkpt lat="44.0499641" lon="7.5877046"><ele>656.1999999999999</ele><time>2026-05-01T11:26:59.884Z</time></trkpt><trkpt lat="44.049865" lon="7.5876699"><ele>657.8</ele><time>2026-05-01T11:27:00.883Z</time></trkpt><trkpt lat="44.0497797" lon="7.5876524"><ele>659.4</ele><time>2026-05-01T11:27:01.883Z</time></trkpt><trkpt lat="44.0496881" lon="7.5876538"><ele>661.0</ele><time>2026-05-01T11:27:02.883Z</time></trkpt><trkpt lat="44.0496035" lon="7.5876488"><ele>661.0</ele><time>2026-05-01T11:27:03.883Z</time></trkpt><trkpt lat="44.0495244" lon="7.5876487"><ele>661.0</ele><time>2026-05-01T11:27:04.883Z</time></trkpt><trkpt lat="44.0494051" lon="7.5876392"><ele>661.0</ele><time>2026-05-01T11:27:06.883Z</time></trkpt><trkpt lat="44.0493016" lon="7.5876231"><ele>661.0</ele><time>2026-05-01T11:27:08.883Z</time></trkpt><trkpt lat="44.0491708" lon="7.5875937"><ele>661.0</ele><time>2026-05-01T11:27:10.884Z</time></trkpt><trkpt lat="44.0490998" lon="7.5875399"><ele>658.5999999999999</ele><time>2026-05-01T11:27:11.883Z</time></trkpt><trkpt lat="44.0490118" lon="7.5875019"><ele>656.2</ele><time>2026-05-01T11:27:12.883Z</time></trkpt><trkpt lat="44.0489344" lon="7.5874369"><ele>653.8</ele><time>2026-05-01T11:27:13.883Z</time></trkpt><trkpt lat="44.0488498" lon="7.587377"><ele>651.4000000000001</ele><time>2026-05-01T11:27:14.883Z</time></trkpt><trkpt lat="44.0487611" lon="7.5873295"><ele>649.0</ele><time>2026-05-01T11:27:15.883Z</time></trkpt><trkpt lat="44.0486421" lon="7.5872629"><ele>649.0</ele><time>2026-05-01T11:27:16.883Z</time></trkpt><trkpt lat="44.0485288" lon="7.5871959"><ele>649.0</ele><time>2026-05-01T11:27:17.883Z</time></trkpt><trkpt lat="44.0484164" lon="7.5871242"><ele>649.0</ele><time>2026-05-01T11:27:18.883Z</time></trkpt><trkpt lat="44.048317" lon="7.5870587"><ele>649.0</ele><time>2026-05-01T11:27:19.883Z</time></trkpt><trkpt lat="44.048209" lon="7.5869966"><ele>649.5</ele><time>2026-05-01T11:27:20.883Z</time></trkpt><trkpt lat="44.0480974" lon="7.5869143"><ele>650.0</ele><time>2026-05-01T11:27:21.883Z</time></trkpt><trkpt lat="44.0479832" lon="7.5868328"><ele>650.5</ele><time>2026-05-01T11:27:22.883Z</time></trkpt><trkpt lat="44.0478952" lon="7.5867643"><ele>651.0</ele><time>2026-05-01T11:27:23.884Z</time></trkpt><trkpt lat="44.0478026" lon="7.5866909"><ele>651.0</ele><time>2026-05-01T11:27:24.883Z</time></trkpt><trkpt lat="44.0477088" lon="7.5866114"><ele>651.0</ele><time>2026-05-01T11:27:25.883Z</time></trkpt><trkpt lat="44.0476216" lon="7.5865035"><ele>651.0</ele><time>2026-05-01T11:27:26.883Z</time></trkpt><trkpt lat="44.0475181" lon="7.5864408"><ele>651.0</ele><time>2026-05-01T11:27:27.883Z</time></trkpt><trkpt lat="44.0474024" lon="7.5863897"><ele>651.25</ele><time>2026-05-01T11:27:28.884Z</time></trkpt><trkpt lat="44.0472779" lon="7.5863736"><ele>651.5</ele><time>2026-05-01T11:27:29.883Z</time></trkpt><trkpt lat="44.0471388" lon="7.586345"><ele>651.75</ele><time>2026-05-01T11:27:30.883Z</time></trkpt><trkpt lat="44.0469894" lon="7.5863416"><ele>652.0</ele><time>2026-05-01T11:27:31.883Z</time></trkpt><trkpt lat="44.0468217" lon="7.5863458"><ele>652.0</ele><time>2026-05-01T11:27:32.883Z</time></trkpt><trkpt lat="44.0466419" lon="7.5863494"><ele>652.0</ele><time>2026-05-01T11:27:33.883Z</time></trkpt><trkpt lat="44.0464448" lon="7.5863389"><ele>652.0</ele><time>2026-05-01T11:27:34.883Z</time></trkpt><trkpt lat="44.0462736" lon="7.5863281"><ele>650.0</ele><time>2026-05-01T11:27:35.883Z</time></trkpt><trkpt lat="44.0460924" lon="7.5863146"><ele>648.0</ele><time>2026-05-01T11:27:36.884Z</time></trkpt><trkpt lat="44.0459381" lon="7.5862788"><ele>646.0</ele><time>2026-05-01T11:27:37.883Z</time></trkpt><trkpt lat="44.0457723" lon="7.586261"><ele>644.0</ele><time>2026-05-01T11:27:38.883Z</time></trkpt><trkpt lat="44.0456019" lon="7.5862674"><ele>642.0</ele><time>2026-05-01T11:27:39.883Z</time></trkpt><trkpt lat="44.045419" lon="7.5862962"><ele>640.0</ele><time>2026-05-01T11:27:40.883Z</time></trkpt><trkpt lat="44.0452551" lon="7.5863195"><ele>640.0</ele><time>2026-05-01T11:27:41.883Z</time></trkpt><trkpt lat="44.0450919" lon="7.5863358"><ele>640.0</ele><time>2026-05-01T11:27:42.883Z</time></trkpt><trkpt lat="44.044952" lon="7.5862975"><ele>640.0</ele><time>2026-05-01T11:27:43.883Z</time></trkpt><trkpt lat="44.0448082" lon="7.5862858"><ele>641.25</ele><time>2026-05-01T11:27:44.883Z</time></trkpt><trkpt lat="44.0446693" lon="7.5862484"><ele>642.5</ele><time>2026-05-01T11:27:45.883Z</time></trkpt><trkpt lat="44.0445183" lon="7.5862285"><ele>643.75</ele><time>2026-05-01T11:27:46.884Z</time></trkpt><trkpt lat="44.0443754" lon="7.5862221"><ele>645.0</ele><time>2026-05-01T11:27:47.883Z</time></trkpt><trkpt lat="44.0442271" lon="7.586226"><ele>642.6666666666666</ele><time>2026-05-01T11:27:48.883Z</time></trkpt><trkpt lat="44.0440883" lon="7.5862046"><ele>640.3333333333333</ele><time>2026-05-01T11:27:49.883Z</time></trkpt><trkpt lat="44.0439364" lon="7.5861902"><ele>638.0</ele><time>2026-05-01T11:27:50.883Z</time></trkpt><trkpt lat="44.043777" lon="7.5861497"><ele>638.0</ele><time>2026-05-01T11:27:51.883Z</time></trkpt><trkpt lat="44.0436251" lon="7.5860891"><ele>638.0</ele><time>2026-05-01T11:27:52.884Z</time></trkpt><trkpt lat="44.0434867" lon="7.5859933"><ele>638.0</ele><time>2026-05-01T11:27:53.883Z</time></trkpt><trkpt lat="44.0433581" lon="7.5859101"><ele>638.3333333333333</ele><time>2026-05-01T11:27:54.883Z</time></trkpt><trkpt lat="44.0432269" lon="7.5857747"><ele>638.6666666666666</ele><time>2026-05-01T11:27:55.883Z</time></trkpt><trkpt lat="44.0430955" lon="7.5856174"><ele>639.0</ele><time>2026-05-01T11:27:56.883Z</time></trkpt><trkpt lat="44.0429662" lon="7.5854824"><ele>635.3333333333334</ele><time>2026-05-01T11:27:57.883Z</time></trkpt><trkpt lat="44.0428496" lon="7.5853296"><ele>631.6666666666667</ele><time>2026-05-01T11:27:58.883Z</time></trkpt><trkpt lat="44.0427393" lon="7.5851756"><ele>628.0</ele><time>2026-05-01T11:27:59.883Z</time></trkpt><trkpt lat="44.0426078" lon="7.5850225"><ele>628.0</ele><time>2026-05-01T11:28:00.883Z</time></trkpt><trkpt lat="44.0424894" lon="7.5848984"><ele>628.0</ele><time>2026-05-01T11:28:01.883Z</time></trkpt><trkpt lat="44.0423484" lon="7.5847678"><ele>628.0</ele><time>2026-05-01T11:28:02.883Z</time></trkpt><trkpt lat="44.0421934" lon="7.5846728"><ele>628.0</ele><time>2026-05-01T11:28:03.883Z</time></trkpt><trkpt lat="44.0420378" lon="7.5845703"><ele>628.0</ele><time>2026-05-01T11:28:04.883Z</time></trkpt><trkpt lat="44.0418795" lon="7.5844614"><ele>628.0</ele><time>2026-05-01T11:28:05.883Z</time></trkpt><trkpt lat="44.041714" lon="7.5843716"><ele>631.3333333333334</ele><time>2026-05-01T11:28:06.883Z</time></trkpt><trkpt lat="44.0415657" lon="7.5842734"><ele>634.6666666666666</ele><time>2026-05-01T11:28:07.883Z</time></trkpt><trkpt lat="44.0414147" lon="7.5841816"><ele>638.0</ele><time>2026-05-01T11:28:08.884Z</time></trkpt><trkpt lat="44.0412602" lon="7.5840973"><ele>638.0</ele><time>2026-05-01T11:28:09.884Z</time></trkpt><trkpt lat="44.0411068" lon="7.5840121"><ele>638.0</ele><time>2026-05-01T11:28:10.883Z</time></trkpt><trkpt lat="44.0403628" lon="7.5835092"><ele>633.6666666666666</ele><time>2026-05-01T11:28:15.883Z</time></trkpt><trkpt lat="44.0402029" lon="7.5833896"><ele>629.3333333333334</ele><time>2026-05-01T11:28:16.883Z</time></trkpt><trkpt lat="44.0401072" lon="7.5832251"><ele>625.0</ele><time>2026-05-01T11:28:17.883Z</time></trkpt><trkpt lat="44.040008" lon="7.5830723"><ele>639.0</ele><time>2026-05-01T11:28:18.883Z</time></trkpt><trkpt lat="44.0399007" lon="7.5829456"><ele>653.0</ele><time>2026-05-01T11:28:19.883Z</time></trkpt><trkpt lat="44.0397869" lon="7.5827806"><ele>667.0</ele><time>2026-05-01T11:28:20.883Z</time></trkpt><trkpt lat="44.0395869" lon="7.5827472"><ele>667.0</ele><time>2026-05-01T11:28:21.883Z</time></trkpt><trkpt lat="44.0394295" lon="7.5826452"><ele>667.0</ele><time>2026-05-01T11:28:22.883Z</time></trkpt><trkpt lat="44.0392955" lon="7.5825255"><ele>667.0</ele><time>2026-05-01T11:28:23.883Z</time></trkpt><trkpt lat="44.0391397" lon="7.582445"><ele>667.0</ele><time>2026-05-01T11:28:24.884Z</time></trkpt><trkpt lat="44.0389889" lon="7.5823738"><ele>667.0</ele><time>2026-05-01T11:28:25.883Z</time></trkpt><trkpt lat="44.0388495" lon="7.5822892"><ele>667.0</ele><time>2026-05-01T11:28:26.883Z</time></trkpt><trkpt lat="44.0387106" lon="7.5822503"><ele>667.0</ele><time>2026-05-01T11:28:27.883Z</time></trkpt><trkpt lat="44.0385658" lon="7.582217"><ele>667.0</ele><time>2026-05-01T11:28:28.883Z</time></trkpt><trkpt lat="44.0383655" lon="7.5822433"><ele>667.0</ele><time>2026-05-01T11:28:29.883Z</time></trkpt><trkpt lat="44.0382067" lon="7.5822054"><ele>667.0</ele><time>2026-05-01T11:28:30.883Z</time></trkpt><trkpt lat="44.0380528" lon="7.5821696"><ele>667.0</ele><time>2026-05-01T11:28:31.883Z</time></trkpt><trkpt lat="44.0379042" lon="7.5821312"><ele>667.0</ele><time>2026-05-01T11:28:32.883Z</time></trkpt><trkpt lat="44.0377454" lon="7.5820512"><ele>650.0</ele><time>2026-05-01T11:28:33.883Z</time></trkpt><trkpt lat="44.0376099" lon="7.5819389"><ele>633.0</ele><time>2026-05-01T11:28:34.883Z</time></trkpt><trkpt lat="44.0374866" lon="7.5818634"><ele>616.0</ele><time>2026-05-01T11:28:35.883Z</time></trkpt><trkpt lat="44.0373622" lon="7.5817907"><ele>599.0</ele><time>2026-05-01T11:28:36.883Z</time></trkpt><trkpt lat="44.0372515" lon="7.5816828"><ele>599.0</ele><time>2026-05-01T11:28:37.883Z</time></trkpt><trkpt lat="44.0371565" lon="7.5815162"><ele>599.0</ele><time>2026-05-01T11:28:38.883Z</time></trkpt><trkpt lat="44.0370492" lon="7.581364"><ele>599.0</ele><time>2026-05-01T11:28:39.883Z</time></trkpt><trkpt lat="44.0369636" lon="7.5812118"><ele>599.0</ele><time>2026-05-01T11:28:40.883Z</time></trkpt><trkpt lat="44.0368864" lon="7.5810668"><ele>597.25</ele><time>2026-05-01T11:28:41.883Z</time></trkpt><trkpt lat="44.0368235" lon="7.5808744"><ele>595.5</ele><time>2026-05-01T11:28:42.883Z</time></trkpt><trkpt lat="44.0367755" lon="7.5807077"><ele>593.75</ele><time>2026-05-01T11:28:43.883Z</time></trkpt><trkpt lat="44.0367308" lon="7.5805327"><ele>592.0</ele><time>2026-05-01T11:28:44.883Z</time></trkpt><trkpt lat="44.0366846" lon="7.5803889"><ele>604.75</ele><time>2026-05-01T11:28:45.883Z</time></trkpt><trkpt lat="44.036646" lon="7.5802295"><ele>617.5</ele><time>2026-05-01T11:28:46.883Z</time></trkpt><trkpt lat="44.0365772" lon="7.5801348"><ele>630.25</ele><time>2026-05-01T11:28:47.883Z</time></trkpt><trkpt lat="44.0364558" lon="7.5800678"><ele>643.0</ele><time>2026-05-01T11:28:48.883Z</time></trkpt><trkpt lat="44.0362734" lon="7.5800605"><ele>643.0</ele><time>2026-05-01T11:28:49.883Z</time></trkpt><trkpt lat="44.0361253" lon="7.5800429"><ele>643.0</ele><time>2026-05-01T11:28:50.883Z</time></trkpt><trkpt lat="44.0359723" lon="7.5800382"><ele>643.0</ele><time>2026-05-01T11:28:51.883Z</time></trkpt><trkpt lat="44.0358258" lon="7.5800443"><ele>643.0</ele><time>2026-05-01T11:28:52.883Z</time></trkpt><trkpt lat="44.0356795" lon="7.5800697"><ele>643.0</ele><time>2026-05-01T11:28:53.883Z</time></trkpt><trkpt lat="44.0355391" lon="7.5800909"><ele>643.0</ele><time>2026-05-01T11:28:54.883Z</time></trkpt><trkpt lat="44.0353946" lon="7.5801453"><ele>643.0</ele><time>2026-05-01T11:28:55.883Z</time></trkpt><trkpt lat="44.0352528" lon="7.5801809"><ele>643.0</ele><time>2026-05-01T11:28:56.883Z</time></trkpt><trkpt lat="44.0351168" lon="7.580215"><ele>639.0</ele><time>2026-05-01T11:28:57.883Z</time></trkpt><trkpt lat="44.0349756" lon="7.5802339"><ele>635.0</ele><time>2026-05-01T11:28:58.884Z</time></trkpt><trkpt lat="44.034853" lon="7.5802605"><ele>631.0</ele><time>2026-05-01T11:28:59.883Z</time></trkpt><trkpt lat="44.0346912" lon="7.5802344"><ele>627.0</ele><time>2026-05-01T11:29:00.883Z</time></trkpt><trkpt lat="44.0345044" lon="7.5802033"><ele>627.0</ele><time>2026-05-01T11:29:01.883Z</time></trkpt><trkpt lat="44.0343428" lon="7.5801797"><ele>627.0</ele><time>2026-05-01T11:29:02.883Z</time></trkpt><trkpt lat="44.0341827" lon="7.5801049"><ele>627.0</ele><time>2026-05-01T11:29:03.883Z</time></trkpt><trkpt lat="44.0340271" lon="7.5800353"><ele>615.75</ele><time>2026-05-01T11:29:04.884Z</time></trkpt><trkpt lat="44.0338883" lon="7.5799855"><ele>604.5</ele><time>2026-05-01T11:29:05.883Z</time></trkpt><trkpt lat="44.0337779" lon="7.579958"><ele>593.25</ele><time>2026-05-01T11:29:06.883Z</time></trkpt><trkpt lat="44.0336422" lon="7.5799739"><ele>582.0</ele><time>2026-05-01T11:29:07.883Z</time></trkpt><trkpt lat="44.0335199" lon="7.5799833"><ele>582.0</ele><time>2026-05-01T11:29:08.883Z</time></trkpt><trkpt lat="44.0333948" lon="7.5799672"><ele>582.0</ele><time>2026-05-01T11:29:09.883Z</time></trkpt><trkpt lat="44.0332931" lon="7.5799767"><ele>582.0</ele><time>2026-05-01T11:29:10.883Z</time></trkpt><trkpt lat="44.0331504" lon="7.5800563"><ele>582.0</ele><time>2026-05-01T11:29:11.883Z</time></trkpt><trkpt lat="44.0330252" lon="7.5801129"><ele>585.0</ele><time>2026-05-01T11:29:12.883Z</time></trkpt><trkpt lat="44.0329063" lon="7.5802101"><ele>588.0</ele><time>2026-05-01T11:29:13.883Z</time></trkpt><trkpt lat="44.0327849" lon="7.5803762"><ele>591.0</ele><time>2026-05-01T11:29:14.883Z</time></trkpt><trkpt lat="44.0326659" lon="7.5805126"><ele>591.0</ele><time>2026-05-01T11:29:15.883Z</time></trkpt><trkpt lat="44.0325494" lon="7.5806837"><ele>591.0</ele><time>2026-05-01T11:29:16.883Z</time></trkpt><trkpt lat="44.0324835" lon="7.5808755"><ele>591.0</ele><time>2026-05-01T11:29:17.883Z</time></trkpt><trkpt lat="44.0323963" lon="7.5810659"><ele>592.0</ele><time>2026-05-01T11:29:18.883Z</time></trkpt><trkpt lat="44.0323512" lon="7.5812723"><ele>593.0</ele><time>2026-05-01T11:29:19.884Z</time></trkpt><trkpt lat="44.0322719" lon="7.5814353"><ele>594.0</ele><time>2026-05-01T11:29:20.883Z</time></trkpt><trkpt lat="44.0322027" lon="7.5815967"><ele>595.0</ele><time>2026-05-01T11:29:21.883Z</time></trkpt><trkpt lat="44.0321186" lon="7.5817434"><ele>595.0</ele><time>2026-05-01T11:29:22.883Z</time></trkpt><trkpt lat="44.032045" lon="7.5818536"><ele>595.0</ele><time>2026-05-01T11:29:23.883Z</time></trkpt><trkpt lat="44.0320555" lon="7.5819944"><ele>595.0</ele><time>2026-05-01T11:29:24.883Z</time></trkpt><trkpt lat="44.03199" lon="7.5820731"><ele>595.0</ele><time>2026-05-01T11:29:25.883Z</time></trkpt><trkpt lat="44.0318443" lon="7.5821024"><ele>595.0</ele><time>2026-05-01T11:29:26.883Z</time></trkpt><trkpt lat="44.0316418" lon="7.5821455"><ele>592.6666666666667</ele><time>2026-05-01T11:29:27.883Z</time></trkpt><trkpt lat="44.0314726" lon="7.5821442"><ele>590.3333333333334</ele><time>2026-05-01T11:29:28.883Z</time></trkpt><trkpt lat="44.0313306" lon="7.5821262"><ele>588.0</ele><time>2026-05-01T11:29:29.883Z</time></trkpt><trkpt lat="44.031164" lon="7.582125"><ele>588.0</ele><time>2026-05-01T11:29:30.883Z</time></trkpt><trkpt lat="44.0310306" lon="7.5820722"><ele>588.0</ele><time>2026-05-01T11:29:31.883Z</time></trkpt><trkpt lat="44.0309031" lon="7.5820006"><ele>588.0</ele><time>2026-05-01T11:29:32.883Z</time></trkpt><trkpt lat="44.030777" lon="7.5819338"><ele>588.0</ele><time>2026-05-01T11:29:33.883Z</time></trkpt><trkpt lat="44.0306722" lon="7.5818267"><ele>589.6666666666666</ele><time>2026-05-01T11:29:34.883Z</time></trkpt><trkpt lat="44.0305428" lon="7.5816173"><ele>591.3333333333333</ele><time>2026-05-01T11:29:35.883Z</time></trkpt><trkpt lat="44.0304399" lon="7.58143"><ele>593.0</ele><time>2026-05-01T11:29:36.883Z</time></trkpt><trkpt lat="44.0303489" lon="7.5812602"><ele>592.25</ele><time>2026-05-01T11:29:37.883Z</time></trkpt><trkpt lat="44.030248" lon="7.5811001"><ele>591.5</ele><time>2026-05-01T11:29:38.883Z</time></trkpt><trkpt lat="44.0301654" lon="7.580947"><ele>590.75</ele><time>2026-05-01T11:29:39.883Z</time></trkpt><trkpt lat="44.030093" lon="7.5807722"><ele>590.0</ele><time>2026-05-01T11:29:40.883Z</time></trkpt><trkpt lat="44.0300169" lon="7.5806454"><ele>598.25</ele><time>2026-05-01T11:29:41.883Z</time></trkpt><trkpt lat="44.0299676" lon="7.5804329"><ele>606.5</ele><time>2026-05-01T11:29:42.883Z</time></trkpt><trkpt lat="44.0299365" lon="7.5802428"><ele>614.75</ele><time>2026-05-01T11:29:43.883Z</time></trkpt><trkpt lat="44.029938" lon="7.5800499"><ele>623.0</ele><time>2026-05-01T11:29:44.883Z</time></trkpt><trkpt lat="44.0299479" lon="7.5798519"><ele>610.0</ele><time>2026-05-01T11:29:45.883Z</time></trkpt><trkpt lat="44.0299959" lon="7.5796696"><ele>597.0</ele><time>2026-05-01T11:29:46.883Z</time></trkpt><trkpt lat="44.0301037" lon="7.579483"><ele>584.0</ele><time>2026-05-01T11:29:47.883Z</time></trkpt><trkpt lat="44.0301944" lon="7.5793016"><ele>582.5</ele><time>2026-05-01T11:29:48.883Z</time></trkpt><trkpt lat="44.0302646" lon="7.5791253"><ele>581.0</ele><time>2026-05-01T11:29:49.883Z</time></trkpt><trkpt lat="44.0303042" lon="7.5789381"><ele>579.5</ele><time>2026-05-01T11:29:50.883Z</time></trkpt><trkpt lat="44.0303391" lon="7.5787503"><ele>578.0</ele><time>2026-05-01T11:29:51.883Z</time></trkpt><trkpt lat="44.0303542" lon="7.5785391"><ele>577.3333333333333</ele><time>2026-05-01T11:29:52.883Z</time></trkpt><trkpt lat="44.0303571" lon="7.5783483"><ele>576.6666666666666</ele><time>2026-05-01T11:29:53.883Z</time></trkpt><trkpt lat="44.0303513" lon="7.5781486"><ele>576.0</ele><time>2026-05-01T11:29:54.883Z</time></trkpt><trkpt lat="44.0303099" lon="7.5779209"><ele>569.25</ele><time>2026-05-01T11:29:55.883Z</time></trkpt><trkpt lat="44.0302921" lon="7.5777174"><ele>562.5</ele><time>2026-05-01T11:29:56.883Z</time></trkpt><trkpt lat="44.0302746" lon="7.5775222"><ele>555.75</ele><time>2026-05-01T11:29:57.884Z</time></trkpt><trkpt lat="44.0302623" lon="7.5773447"><ele>549.0</ele><time>2026-05-01T11:29:58.883Z</time></trkpt><trkpt lat="44.0302029" lon="7.5771747"><ele>549.0</ele><time>2026-05-01T11:29:59.883Z</time></trkpt><trkpt lat="44.0301749" lon="7.5770325"><ele>549.0</ele><time>2026-05-01T11:30:00.883Z</time></trkpt><trkpt lat="44.0301121" lon="7.5768902"><ele>549.0</ele><time>2026-05-01T11:30:01.883Z</time></trkpt><trkpt lat="44.0300252" lon="7.5767771"><ele>549.0</ele><time>2026-05-01T11:30:02.883Z</time></trkpt><trkpt lat="44.0299311" lon="7.5766738"><ele>555.25</ele><time>2026-05-01T11:30:03.883Z</time></trkpt><trkpt lat="44.0297527" lon="7.5766506"><ele>561.5</ele><time>2026-05-01T11:30:04.883Z</time></trkpt><trkpt lat="44.0296197" lon="7.5766741"><ele>567.75</ele><time>2026-05-01T11:30:05.883Z</time></trkpt><trkpt lat="44.0294944" lon="7.5767152"><ele>574.0</ele><time>2026-05-01T11:30:06.883Z</time></trkpt><trkpt lat="44.0293664" lon="7.576761"><ele>574.0</ele><time>2026-05-01T11:30:07.883Z</time></trkpt><trkpt lat="44.0292224" lon="7.5768513"><ele>574.0</ele><time>2026-05-01T11:30:08.883Z</time></trkpt><trkpt lat="44.029086" lon="7.5769359"><ele>574.0</ele><time>2026-05-01T11:30:09.883Z</time></trkpt><trkpt lat="44.0289728" lon="7.5770049"><ele>574.0</ele><time>2026-05-01T11:30:10.883Z</time></trkpt><trkpt lat="44.0288714" lon="7.5770619"><ele>569.0</ele><time>2026-05-01T11:30:11.883Z</time></trkpt><trkpt lat="44.0287599" lon="7.5771135"><ele>564.0</ele><time>2026-05-01T11:30:12.883Z</time></trkpt><trkpt lat="44.0286453" lon="7.5771164"><ele>559.0</ele><time>2026-05-01T11:30:13.883Z</time></trkpt><trkpt lat="44.028533" lon="7.577079"><ele>554.0</ele><time>2026-05-01T11:30:14.883Z</time></trkpt><trkpt lat="44.0284162" lon="7.5770097"><ele>554.0</ele><time>2026-05-01T11:30:15.883Z</time></trkpt><trkpt lat="44.0283315" lon="7.576904"><ele>554.0</ele><time>2026-05-01T11:30:16.883Z</time></trkpt><trkpt lat="44.028239" lon="7.5767286"><ele>554.0</ele><time>2026-05-01T11:30:17.883Z</time></trkpt><trkpt lat="44.0281425" lon="7.5765646"><ele>554.0</ele><time>2026-05-01T11:30:18.883Z</time></trkpt><trkpt lat="44.0280379" lon="7.5764026"><ele>555.0</ele><time>2026-05-01T11:30:19.884Z</time></trkpt><trkpt lat="44.0279179" lon="7.5762619"><ele>556.0</ele><time>2026-05-01T11:30:20.883Z</time></trkpt><trkpt lat="44.0278076" lon="7.5761134"><ele>557.0</ele><time>2026-05-01T11:30:21.883Z</time></trkpt><trkpt lat="44.0276852" lon="7.5759594"><ele>558.0</ele><time>2026-05-01T11:30:22.883Z</time></trkpt><trkpt lat="44.0275855" lon="7.5757775"><ele>559.0</ele><time>2026-05-01T11:30:23.883Z</time></trkpt><trkpt lat="44.0274757" lon="7.5755881"><ele>560.0</ele><time>2026-05-01T11:30:24.883Z</time></trkpt><trkpt lat="44.0273687" lon="7.5754067"><ele>549.6666666666666</ele><time>2026-05-01T11:30:25.883Z</time></trkpt><trkpt lat="44.0272496" lon="7.5751993"><ele>539.3333333333334</ele><time>2026-05-01T11:30:26.884Z</time></trkpt><trkpt lat="44.0271378" lon="7.5750226"><ele>529.0</ele><time>2026-05-01T11:30:27.883Z</time></trkpt><trkpt lat="44.0270328" lon="7.5748528"><ele>529.0</ele><time>2026-05-01T11:30:28.883Z</time></trkpt><trkpt lat="44.0269023" lon="7.5747155"><ele>529.0</ele><time>2026-05-01T11:30:29.883Z</time></trkpt><trkpt lat="44.0267531" lon="7.5746032"><ele>529.0</ele><time>2026-05-01T11:30:30.883Z</time></trkpt><trkpt lat="44.0266126" lon="7.5744763"><ele>527.3333333333334</ele><time>2026-05-01T11:30:31.883Z</time></trkpt><trkpt lat="44.0264398" lon="7.5743612"><ele>525.6666666666666</ele><time>2026-05-01T11:30:32.883Z</time></trkpt><trkpt lat="44.0262902" lon="7.5742489"><ele>524.0</ele><time>2026-05-01T11:30:33.883Z</time></trkpt><trkpt lat="44.0261352" lon="7.5741536"><ele>524.0</ele><time>2026-05-01T11:30:34.884Z</time></trkpt><trkpt lat="44.0259888" lon="7.5740477"><ele>524.0</ele><time>2026-05-01T11:30:35.883Z</time></trkpt><trkpt lat="44.0258511" lon="7.5739363"><ele>524.0</ele><time>2026-05-01T11:30:36.883Z</time></trkpt><trkpt lat="44.0257039" lon="7.573846"><ele>525.0</ele><time>2026-05-01T11:30:37.883Z</time></trkpt><trkpt lat="44.0255598" lon="7.573724"><ele>526.0</ele><time>2026-05-01T11:30:38.883Z</time></trkpt><trkpt lat="44.0254374" lon="7.5735908"><ele>527.0</ele><time>2026-05-01T11:30:39.883Z</time></trkpt><trkpt lat="44.025299" lon="7.5734706"><ele>527.0</ele><time>2026-05-01T11:30:40.883Z</time></trkpt><trkpt lat="44.025174" lon="7.5733499"><ele>527.0</ele><time>2026-05-01T11:30:41.883Z</time></trkpt><trkpt lat="44.0250469" lon="7.5732457"><ele>527.0</ele><time>2026-05-01T11:30:42.883Z</time></trkpt><trkpt lat="44.0249237" lon="7.573135"><ele>527.0</ele><time>2026-05-01T11:30:43.883Z</time></trkpt><trkpt lat="44.0248143" lon="7.5730242"><ele>532.0</ele><time>2026-05-01T11:30:44.883Z</time></trkpt><trkpt lat="44.0247067" lon="7.5729209"><ele>537.0</ele><time>2026-05-01T11:30:45.883Z</time></trkpt><trkpt lat="44.0246135" lon="7.5728034"><ele>542.0</ele><time>2026-05-01T11:30:46.883Z</time></trkpt><trkpt lat="44.024519" lon="7.5726098"><ele>547.0</ele><time>2026-05-01T11:30:47.883Z</time></trkpt><trkpt lat="44.0244621" lon="7.5723985"><ele>547.0</ele><time>2026-05-01T11:30:48.883Z</time></trkpt><trkpt lat="44.0244204" lon="7.5722058"><ele>547.0</ele><time>2026-05-01T11:30:49.883Z</time></trkpt><trkpt lat="44.0243727" lon="7.5719228"><ele>547.0</ele><time>2026-05-01T11:30:50.883Z</time></trkpt><trkpt lat="44.0243231" lon="7.5716749"><ele>540.3333333333334</ele><time>2026-05-01T11:30:51.883Z</time></trkpt><trkpt lat="44.0242773" lon="7.5714626"><ele>533.6666666666666</ele><time>2026-05-01T11:30:52.883Z</time></trkpt><trkpt lat="44.0242283" lon="7.5712594"><ele>527.0</ele><time>2026-05-01T11:30:53.883Z</time></trkpt><trkpt lat="44.0241537" lon="7.5710764"><ele>522.75</ele><time>2026-05-01T11:30:54.884Z</time></trkpt><trkpt lat="44.0240771" lon="7.5709084"><ele>518.5</ele><time>2026-05-01T11:30:55.884Z</time></trkpt><trkpt lat="44.0239881" lon="7.5707385"><ele>514.25</ele><time>2026-05-01T11:30:56.883Z</time></trkpt><trkpt lat="44.0238798" lon="7.5706348"><ele>510.0</ele><time>2026-05-01T11:30:57.883Z</time></trkpt><trkpt lat="44.0237528" lon="7.5705642"><ele>510.0</ele><time>2026-05-01T11:30:58.883Z</time></trkpt><trkpt lat="44.023621" lon="7.5705002"><ele>510.0</ele><time>2026-05-01T11:30:59.883Z</time></trkpt><trkpt lat="44.0234835" lon="7.5704557"><ele>510.0</ele><time>2026-05-01T11:31:00.883Z</time></trkpt><trkpt lat="44.0233184" lon="7.5704308"><ele>510.0</ele><time>2026-05-01T11:31:01.883Z</time></trkpt><trkpt lat="44.0231715" lon="7.5703715"><ele>511.0</ele><time>2026-05-01T11:31:02.883Z</time></trkpt><trkpt lat="44.0230166" lon="7.570313"><ele>512.0</ele><time>2026-05-01T11:31:03.883Z</time></trkpt><trkpt lat="44.0228818" lon="7.5702413"><ele>513.0</ele><time>2026-05-01T11:31:04.883Z</time></trkpt><trkpt lat="44.0227342" lon="7.5701867"><ele>513.0</ele><time>2026-05-01T11:31:05.883Z</time></trkpt><trkpt lat="44.0225895" lon="7.5701215"><ele>513.0</ele><time>2026-05-01T11:31:06.883Z</time></trkpt><trkpt lat="44.0224589" lon="7.5700292"><ele>513.0</ele><time>2026-05-01T11:31:07.883Z</time></trkpt><trkpt lat="44.0223464" lon="7.5698965"><ele>513.0</ele><time>2026-05-01T11:31:08.883Z</time></trkpt><trkpt lat="44.0222344" lon="7.5697806"><ele>512.3333333333334</ele><time>2026-05-01T11:31:09.883Z</time></trkpt><trkpt lat="44.022116" lon="7.5696233"><ele>511.6666666666667</ele><time>2026-05-01T11:31:10.883Z</time></trkpt><trkpt lat="44.0219518" lon="7.5695079"><ele>511.0</ele><time>2026-05-01T11:31:11.883Z</time></trkpt><trkpt lat="44.0218087" lon="7.5693819"><ele>511.0</ele><time>2026-05-01T11:31:12.883Z</time></trkpt><trkpt lat="44.0216776" lon="7.5692539"><ele>511.0</ele><time>2026-05-01T11:31:13.883Z</time></trkpt><trkpt lat="44.021523" lon="7.5691576"><ele>511.0</ele><time>2026-05-01T11:31:14.883Z</time></trkpt><trkpt lat="44.0213752" lon="7.5690342"><ele>509.5</ele><time>2026-05-01T11:31:15.883Z</time></trkpt><trkpt lat="44.0212357" lon="7.5689504"><ele>508.0</ele><time>2026-05-01T11:31:16.883Z</time></trkpt><trkpt lat="44.02116" lon="7.5688841"><ele>506.5</ele><time>2026-05-01T11:31:17.883Z</time></trkpt><trkpt lat="44.0210722" lon="7.5687772"><ele>505.0</ele><time>2026-05-01T11:31:18.883Z</time></trkpt><trkpt lat="44.0209889" lon="7.5686615"><ele>504.0</ele><time>2026-05-01T11:31:19.883Z</time></trkpt><trkpt lat="44.0209084" lon="7.5684834"><ele>503.0</ele><time>2026-05-01T11:31:20.883Z</time></trkpt><trkpt lat="44.0209078" lon="7.5682673"><ele>502.0</ele><time>2026-05-01T11:31:21.883Z</time></trkpt><trkpt lat="44.0208994" lon="7.5680626"><ele>500.6666666666667</ele><time>2026-05-01T11:31:22.883Z</time></trkpt><trkpt lat="44.0209073" lon="7.5678564"><ele>499.33333333333337</ele><time>2026-05-01T11:31:23.883Z</time></trkpt><trkpt lat="44.0209421" lon="7.5676412"><ele>498.0</ele><time>2026-05-01T11:31:24.883Z</time></trkpt><trkpt lat="44.0209895" lon="7.5674142"><ele>498.0</ele><time>2026-05-01T11:31:25.883Z</time></trkpt><trkpt lat="44.0210372" lon="7.5671826"><ele>498.0</ele><time>2026-05-01T11:31:26.883Z</time></trkpt><trkpt lat="44.0210655" lon="7.5669505"><ele>498.0</ele><time>2026-05-01T11:31:27.884Z</time></trkpt><trkpt lat="44.0210793" lon="7.5667262"><ele>495.66666666666663</ele><time>2026-05-01T11:31:28.884Z</time></trkpt><trkpt lat="44.021089" lon="7.5665043"><ele>493.3333333333333</ele><time>2026-05-01T11:31:29.883Z</time></trkpt><trkpt lat="44.0210823" lon="7.5662802"><ele>491.0</ele><time>2026-05-01T11:31:30.884Z</time></trkpt><trkpt lat="44.0210683" lon="7.5660773"><ele>491.0</ele><time>2026-05-01T11:31:31.884Z</time></trkpt><trkpt lat="44.0210185" lon="7.565857"><ele>491.0</ele><time>2026-05-01T11:31:32.883Z</time></trkpt><trkpt lat="44.02097" lon="7.5656554"><ele>491.0</ele><time>2026-05-01T11:31:33.884Z</time></trkpt><trkpt lat="44.0208797" lon="7.5654768"><ele>490.0</ele><time>2026-05-01T11:31:34.883Z</time></trkpt><trkpt lat="44.0207923" lon="7.5653125"><ele>489.0</ele><time>2026-05-01T11:31:35.883Z</time></trkpt><trkpt lat="44.0206851" lon="7.5651674"><ele>488.0</ele><time>2026-05-01T11:31:36.883Z</time></trkpt><trkpt lat="44.0205737" lon="7.5650309"><ele>487.0</ele><time>2026-05-01T11:31:37.883Z</time></trkpt><trkpt lat="44.0204518" lon="7.5649084"><ele>487.0</ele><time>2026-05-01T11:31:38.883Z</time></trkpt><trkpt lat="44.0202706" lon="7.5648681"><ele>487.0</ele><time>2026-05-01T11:31:39.883Z</time></trkpt><trkpt lat="44.0201233" lon="7.5648116"><ele>487.0</ele><time>2026-05-01T11:31:40.883Z</time></trkpt><trkpt lat="44.019969" lon="7.5647679"><ele>486.0</ele><time>2026-05-01T11:31:41.883Z</time></trkpt><trkpt lat="44.0198102" lon="7.56473"><ele>485.0</ele><time>2026-05-01T11:31:42.883Z</time></trkpt><trkpt lat="44.0196656" lon="7.5646989"><ele>484.0</ele><time>2026-05-01T11:31:43.883Z</time></trkpt><trkpt lat="44.0195218" lon="7.5646576"><ele>484.0</ele><time>2026-05-01T11:31:44.883Z</time></trkpt><trkpt lat="44.0193319" lon="7.5646582"><ele>484.0</ele><time>2026-05-01T11:31:45.883Z</time></trkpt><trkpt lat="44.019143" lon="7.5646267"><ele>484.0</ele><time>2026-05-01T11:31:46.883Z</time></trkpt><trkpt lat="44.0189666" lon="7.5645757"><ele>482.33333333333337</ele><time>2026-05-01T11:31:47.883Z</time></trkpt><trkpt lat="44.0187769" lon="7.5645428"><ele>480.66666666666663</ele><time>2026-05-01T11:31:48.883Z</time></trkpt><trkpt lat="44.0185938" lon="7.5644898"><ele>479.0</ele><time>2026-05-01T11:31:49.883Z</time></trkpt><trkpt lat="44.0184112" lon="7.5644441"><ele>482.66666666666663</ele><time>2026-05-01T11:31:50.883Z</time></trkpt><trkpt lat="44.0182406" lon="7.5643827"><ele>486.33333333333337</ele><time>2026-05-01T11:31:51.883Z</time></trkpt><trkpt lat="44.0180597" lon="7.5643237"><ele>490.0</ele><time>2026-05-01T11:31:52.883Z</time></trkpt><trkpt lat="44.0178636" lon="7.564269"><ele>490.0</ele><time>2026-05-01T11:31:53.883Z</time></trkpt><trkpt lat="44.01768" lon="7.564214"><ele>490.0</ele><time>2026-05-01T11:31:54.883Z</time></trkpt><trkpt lat="44.0174949" lon="7.5641395"><ele>490.0</ele><time>2026-05-01T11:31:55.883Z</time></trkpt><trkpt lat="44.0173186" lon="7.5640859"><ele>487.33333333333337</ele><time>2026-05-01T11:31:56.883Z</time></trkpt><trkpt lat="44.0171412" lon="7.5640377"><ele>484.66666666666663</ele><time>2026-05-01T11:31:57.883Z</time></trkpt><trkpt lat="44.0169713" lon="7.5639806"><ele>482.0</ele><time>2026-05-01T11:31:58.883Z</time></trkpt><trkpt lat="44.0167903" lon="7.563937"><ele>483.66666666666663</ele><time>2026-05-01T11:31:59.883Z</time></trkpt><trkpt lat="44.0166211" lon="7.5638938"><ele>485.33333333333337</ele><time>2026-05-01T11:32:00.883Z</time></trkpt><trkpt lat="44.0164663" lon="7.5638174"><ele>487.0</ele><time>2026-05-01T11:32:01.883Z</time></trkpt><trkpt lat="44.0163246" lon="7.56371"><ele>481.33333333333337</ele><time>2026-05-01T11:32:02.883Z</time></trkpt><trkpt lat="44.0161735" lon="7.5635989"><ele>475.66666666666663</ele><time>2026-05-01T11:32:03.883Z</time></trkpt><trkpt lat="44.0160052" lon="7.5634742"><ele>470.0</ele><time>2026-05-01T11:32:04.883Z</time></trkpt><trkpt lat="44.0158382" lon="7.5633308"><ele>469.66666666666663</ele><time>2026-05-01T11:32:05.883Z</time></trkpt><trkpt lat="44.015665" lon="7.5631903"><ele>469.33333333333337</ele><time>2026-05-01T11:32:06.883Z</time></trkpt><trkpt lat="44.0154918" lon="7.5630161"><ele>469.0</ele><time>2026-05-01T11:32:07.884Z</time></trkpt><trkpt lat="44.0153371" lon="7.5628163"><ele>469.0</ele><time>2026-05-01T11:32:08.883Z</time></trkpt><trkpt lat="44.0151737" lon="7.5626391"><ele>469.0</ele><time>2026-05-01T11:32:09.883Z</time></trkpt><trkpt lat="44.0150124" lon="7.5624596"><ele>469.0</ele><time>2026-05-01T11:32:10.883Z</time></trkpt><trkpt lat="44.0148497" lon="7.5622998"><ele>472.33333333333337</ele><time>2026-05-01T11:32:11.884Z</time></trkpt><trkpt lat="44.0146932" lon="7.5621348"><ele>475.66666666666663</ele><time>2026-05-01T11:32:12.883Z</time></trkpt><trkpt lat="44.0145275" lon="7.5619884"><ele>479.0</ele><time>2026-05-01T11:32:13.883Z</time></trkpt><trkpt lat="44.0143885" lon="7.5618234"><ele>480.66666666666663</ele><time>2026-05-01T11:32:14.883Z</time></trkpt><trkpt lat="44.0142463" lon="7.5616862"><ele>482.33333333333337</ele><time>2026-05-01T11:32:15.883Z</time></trkpt><trkpt lat="44.0141021" lon="7.5615705"><ele>484.0</ele><time>2026-05-01T11:32:16.883Z</time></trkpt><trkpt lat="44.0139712" lon="7.5614554"><ele>484.0</ele><time>2026-05-01T11:32:17.883Z</time></trkpt><trkpt lat="44.0138847" lon="7.5612768"><ele>484.0</ele><time>2026-05-01T11:32:18.883Z</time></trkpt><trkpt lat="44.013783" lon="7.5611311"><ele>484.0</ele><time>2026-05-01T11:32:19.883Z</time></trkpt><trkpt lat="44.0137023" lon="7.5609803"><ele>484.0</ele><time>2026-05-01T11:32:20.883Z</time></trkpt><trkpt lat="44.013614" lon="7.560803"><ele>477.0</ele><time>2026-05-01T11:32:21.883Z</time></trkpt><trkpt lat="44.0135398" lon="7.560607"><ele>470.0</ele><time>2026-05-01T11:32:22.883Z</time></trkpt><trkpt lat="44.0134715" lon="7.5604066"><ele>463.0</ele><time>2026-05-01T11:32:23.884Z</time></trkpt><trkpt lat="44.0134016" lon="7.5601912"><ele>462.6666666666667</ele><time>2026-05-01T11:32:24.883Z</time></trkpt><trkpt lat="44.0133274" lon="7.5599775"><ele>462.33333333333337</ele><time>2026-05-01T11:32:25.883Z</time></trkpt><trkpt lat="44.0132466" lon="7.5597936"><ele>462.0</ele><time>2026-05-01T11:32:26.884Z</time></trkpt><trkpt lat="44.0131657" lon="7.5596105"><ele>459.0</ele><time>2026-05-01T11:32:27.883Z</time></trkpt><trkpt lat="44.0130737" lon="7.5594398"><ele>456.0</ele><time>2026-05-01T11:32:28.883Z</time></trkpt><trkpt lat="44.0129735" lon="7.5592758"><ele>453.0</ele><time>2026-05-01T11:32:29.883Z</time></trkpt><trkpt lat="44.0128445" lon="7.5591111"><ele>453.0</ele><time>2026-05-01T11:32:30.883Z</time></trkpt><trkpt lat="44.0127022" lon="7.5589949"><ele>453.0</ele><time>2026-05-01T11:32:31.883Z</time></trkpt><trkpt lat="44.0125432" lon="7.5588934"><ele>453.0</ele><time>2026-05-01T11:32:32.883Z</time></trkpt><trkpt lat="44.0123813" lon="7.5587857"><ele>451.33333333333337</ele><time>2026-05-01T11:32:33.884Z</time></trkpt><trkpt lat="44.0122261" lon="7.5586879"><ele>449.6666666666667</ele><time>2026-05-01T11:32:34.883Z</time></trkpt><trkpt lat="44.0120847" lon="7.5585618"><ele>448.0</ele><time>2026-05-01T11:32:35.883Z</time></trkpt><trkpt lat="44.0119298" lon="7.5584622"><ele>448.0</ele><time>2026-05-01T11:32:36.883Z</time></trkpt><trkpt lat="44.01178" lon="7.55835"><ele>448.0</ele><time>2026-05-01T11:32:37.883Z</time></trkpt><trkpt lat="44.011634" lon="7.5582493"><ele>448.0</ele><time>2026-05-01T11:32:38.883Z</time></trkpt><trkpt lat="44.0114841" lon="7.5581597"><ele>449.5</ele><time>2026-05-01T11:32:39.883Z</time></trkpt><trkpt lat="44.0113299" lon="7.5581087"><ele>451.0</ele><time>2026-05-01T11:32:40.883Z</time></trkpt><trkpt lat="44.0111906" lon="7.5580618"><ele>452.5</ele><time>2026-05-01T11:32:41.883Z</time></trkpt><trkpt lat="44.0110536" lon="7.5580151"><ele>454.0</ele><time>2026-05-01T11:32:42.883Z</time></trkpt><trkpt lat="44.010926" lon="7.5579672"><ele>452.25</ele><time>2026-05-01T11:32:43.883Z</time></trkpt><trkpt lat="44.0108119" lon="7.5579275"><ele>450.5</ele><time>2026-05-01T11:32:44.883Z</time></trkpt><trkpt lat="44.0107041" lon="7.5578855"><ele>448.75</ele><time>2026-05-01T11:32:45.883Z</time></trkpt><trkpt lat="44.0105823" lon="7.5578179"><ele>447.0</ele><time>2026-05-01T11:32:46.883Z</time></trkpt><trkpt lat="44.0104718" lon="7.5577555"><ele>447.0</ele><time>2026-05-01T11:32:47.883Z</time></trkpt><trkpt lat="44.0103825" lon="7.5576811"><ele>447.0</ele><time>2026-05-01T11:32:48.884Z</time></trkpt><trkpt lat="44.0102903" lon="7.5575777"><ele>447.0</ele><time>2026-05-01T11:32:49.883Z</time></trkpt><trkpt lat="44.0102014" lon="7.5574435"><ele>447.0</ele><time>2026-05-01T11:32:50.883Z</time></trkpt><trkpt lat="44.0101353" lon="7.5572913"><ele>447.0</ele><time>2026-05-01T11:32:51.883Z</time></trkpt><trkpt lat="44.0100718" lon="7.5571357"><ele>447.0</ele><time>2026-05-01T11:32:52.883Z</time></trkpt><trkpt lat="44.0100015" lon="7.556949"><ele>447.0</ele><time>2026-05-01T11:32:53.884Z</time></trkpt><trkpt lat="44.0099431" lon="7.5567591"><ele>447.0</ele><time>2026-05-01T11:32:54.883Z</time></trkpt><trkpt lat="44.0098788" lon="7.5565436"><ele>446.25</ele><time>2026-05-01T11:32:55.883Z</time></trkpt><trkpt lat="44.0098014" lon="7.5563574"><ele>445.5</ele><time>2026-05-01T11:32:56.883Z</time></trkpt><trkpt lat="44.0097093" lon="7.5562272"><ele>444.75</ele><time>2026-05-01T11:32:57.883Z</time></trkpt><trkpt lat="44.0096104" lon="7.5560963"><ele>444.0</ele><time>2026-05-01T11:32:58.883Z</time></trkpt><trkpt lat="44.0095079" lon="7.555977"><ele>442.0</ele><time>2026-05-01T11:32:59.883Z</time></trkpt><trkpt lat="44.0093747" lon="7.5558748"><ele>440.0</ele><time>2026-05-01T11:33:00.883Z</time></trkpt><trkpt lat="44.0092371" lon="7.5557964"><ele>438.0</ele><time>2026-05-01T11:33:01.883Z</time></trkpt><trkpt lat="44.0091053" lon="7.555702"><ele>436.0</ele><time>2026-05-01T11:33:02.883Z</time></trkpt><trkpt lat="44.0089632" lon="7.5556384"><ele>436.0</ele><time>2026-05-01T11:33:03.883Z</time></trkpt><trkpt lat="44.0088275" lon="7.5555565"><ele>436.0</ele><time>2026-05-01T11:33:04.883Z</time></trkpt><trkpt lat="44.008691" lon="7.5554728"><ele>436.0</ele><time>2026-05-01T11:33:05.884Z</time></trkpt><trkpt lat="44.0085579" lon="7.5553751"><ele>436.0</ele><time>2026-05-01T11:33:06.883Z</time></trkpt><trkpt lat="44.0084338" lon="7.5552979"><ele>437.0</ele><time>2026-05-01T11:33:07.883Z</time></trkpt><trkpt lat="44.008311" lon="7.5552288"><ele>438.0</ele><time>2026-05-01T11:33:08.883Z</time></trkpt><trkpt lat="44.0081835" lon="7.5551571"><ele>439.0</ele><time>2026-05-01T11:33:09.884Z</time></trkpt><trkpt lat="44.008057" lon="7.5550694"><ele>440.0</ele><time>2026-05-01T11:33:10.883Z</time></trkpt><trkpt lat="44.0079343" lon="7.5550136"><ele>440.0</ele><time>2026-05-01T11:33:11.883Z</time></trkpt><trkpt lat="44.0077984" lon="7.5549513"><ele>440.0</ele><time>2026-05-01T11:33:12.883Z</time></trkpt><trkpt lat="44.0076716" lon="7.5548905"><ele>440.0</ele><time>2026-05-01T11:33:13.883Z</time></trkpt><trkpt lat="44.0075507" lon="7.5548649"><ele>440.0</ele><time>2026-05-01T11:33:14.883Z</time></trkpt><trkpt lat="44.007419" lon="7.554864"><ele>439.75</ele><time>2026-05-01T11:33:15.883Z</time></trkpt><trkpt lat="44.0073034" lon="7.5548377"><ele>439.5</ele><time>2026-05-01T11:33:16.883Z</time></trkpt><trkpt lat="44.0071943" lon="7.554804"><ele>439.25</ele><time>2026-05-01T11:33:17.883Z</time></trkpt><trkpt lat="44.0070757" lon="7.5547801"><ele>439.0</ele><time>2026-05-01T11:33:18.884Z</time></trkpt><trkpt lat="44.0069679" lon="7.5547658"><ele>439.0</ele><time>2026-05-01T11:33:19.883Z</time></trkpt><trkpt lat="44.0068746" lon="7.5547486"><ele>439.0</ele><time>2026-05-01T11:33:20.883Z</time></trkpt><trkpt lat="44.006784" lon="7.5547465"><ele>439.0</ele><time>2026-05-01T11:33:21.883Z</time></trkpt><trkpt lat="44.0066941" lon="7.5547844"><ele>439.0</ele><time>2026-05-01T11:33:22.884Z</time></trkpt><trkpt lat="44.006612" lon="7.5548273"><ele>439.0</ele><time>2026-05-01T11:33:23.883Z</time></trkpt><trkpt lat="44.0065296" lon="7.5548687"><ele>437.83333333333337</ele><time>2026-05-01T11:33:24.883Z</time></trkpt><trkpt lat="44.0064486" lon="7.554921"><ele>436.6666666666667</ele><time>2026-05-01T11:33:25.883Z</time></trkpt><trkpt lat="44.0063885" lon="7.5549549"><ele>435.5</ele><time>2026-05-01T11:33:26.883Z</time></trkpt><trkpt lat="44.006307" lon="7.5549427"><ele>434.33333333333337</ele><time>2026-05-01T11:33:27.883Z</time></trkpt><trkpt lat="44.0062273" lon="7.5549497"><ele>433.1666666666667</ele><time>2026-05-01T11:33:28.883Z</time></trkpt><trkpt lat="44.0061301" lon="7.5549207"><ele>432.0</ele><time>2026-05-01T11:33:29.883Z</time></trkpt><trkpt lat="44.0060246" lon="7.5549004"><ele>432.0</ele><time>2026-05-01T11:33:30.883Z</time></trkpt><trkpt lat="44.0059217" lon="7.5548835"><ele>432.00000000000006</ele><time>2026-05-01T11:33:31.883Z</time></trkpt><trkpt lat="44.0058365" lon="7.5548629"><ele>432.00000000000006</ele><time>2026-05-01T11:33:32.884Z</time></trkpt><trkpt lat="44.0057427" lon="7.5548418"><ele>432.0</ele><time>2026-05-01T11:33:33.883Z</time></trkpt><trkpt lat="44.0056603" lon="7.5548085"><ele>432.0</ele><time>2026-05-01T11:33:34.883Z</time></trkpt><trkpt lat="44.0055782" lon="7.554808"><ele>430.8333333333333</ele><time>2026-05-01T11:33:35.883Z</time></trkpt><trkpt lat="44.0055132" lon="7.554779"><ele>429.66666666666663</ele><time>2026-05-01T11:33:36.884Z</time></trkpt><trkpt lat="44.0054399" lon="7.5547543"><ele>428.5</ele><time>2026-05-01T11:33:37.883Z</time></trkpt><trkpt lat="44.005373" lon="7.5547222"><ele>427.3333333333333</ele><time>2026-05-01T11:33:38.883Z</time></trkpt><trkpt lat="44.0052977" lon="7.5547005"><ele>426.16666666666663</ele><time>2026-05-01T11:33:39.883Z</time></trkpt><trkpt lat="44.0052074" lon="7.5546615"><ele>425.0</ele><time>2026-05-01T11:33:40.883Z</time></trkpt><trkpt lat="44.0051142" lon="7.5546584"><ele>424.99999999999994</ele><time>2026-05-01T11:33:41.883Z</time></trkpt><trkpt lat="44.0050279" lon="7.5546319"><ele>425.0</ele><time>2026-05-01T11:33:42.883Z</time></trkpt><trkpt lat="44.0049416" lon="7.5546006"><ele>425.0</ele><time>2026-05-01T11:33:43.883Z</time></trkpt><trkpt lat="44.0048597" lon="7.5545665"><ele>425.0</ele><time>2026-05-01T11:33:44.883Z</time></trkpt><trkpt lat="44.0047668" lon="7.5545485"><ele>424.99999999999994</ele><time>2026-05-01T11:33:45.883Z</time></trkpt><trkpt lat="44.0046778" lon="7.5545323"><ele>425.0</ele><time>2026-05-01T11:33:46.883Z</time></trkpt><trkpt lat="44.0045926" lon="7.5545314"><ele>425.16666666666663</ele><time>2026-05-01T11:33:47.883Z</time></trkpt><trkpt lat="44.0044967" lon="7.5545315"><ele>425.3333333333333</ele><time>2026-05-01T11:33:48.883Z</time></trkpt><trkpt lat="44.0044167" lon="7.5545102"><ele>425.5</ele><time>2026-05-01T11:33:49.883Z</time></trkpt><trkpt lat="44.0043316" lon="7.5544952"><ele>425.66666666666663</ele><time>2026-05-01T11:33:50.883Z</time></trkpt><trkpt lat="44.0042537" lon="7.5544823"><ele>425.8333333333333</ele><time>2026-05-01T11:33:51.883Z</time></trkpt><trkpt lat="44.0041784" lon="7.5544626"><ele>426.0</ele><time>2026-05-01T11:33:52.883Z</time></trkpt><trkpt lat="44.0040665" lon="7.5544303"><ele>426.0</ele><time>2026-05-01T11:33:54.883Z</time></trkpt><trkpt lat="44.0039732" lon="7.5543632"><ele>426.0</ele><time>2026-05-01T11:33:56.883Z</time></trkpt><trkpt lat="44.0038781" lon="7.5543086"><ele>426.0</ele><time>2026-05-01T11:33:58.883Z</time></trkpt><trkpt lat="44.0038192" lon="7.5542774"><ele>426.0</ele><time>2026-05-01T11:33:59.883Z</time></trkpt><trkpt lat="44.0037693" lon="7.5542203"><ele>426.0</ele><time>2026-05-01T11:34:00.883Z</time></trkpt><trkpt lat="44.0036783" lon="7.5541708"><ele>426.0</ele><time>2026-05-01T11:34:02.884Z</time></trkpt><trkpt lat="44.0036078" lon="7.5541491"><ele>426.0</ele><time>2026-05-01T11:34:05.883Z</time></trkpt><trkpt lat="44.0035286" lon="7.5541219"><ele>426.0</ele><time>2026-05-01T11:35:23.883Z</time></trkpt><trkpt lat="44.0034482" lon="7.5540889"><ele>426.0</ele><time>2026-05-01T11:35:25.883Z</time></trkpt><trkpt lat="44.003369" lon="7.5540326"><ele>426.0</ele><time>2026-05-01T11:35:27.884Z</time></trkpt><trkpt lat="44.0032506" lon="7.5539614"><ele>426.0</ele><time>2026-05-01T11:35:29.883Z</time></trkpt><trkpt lat="44.0031726" lon="7.5539148"><ele>426.4</ele><time>2026-05-01T11:35:30.884Z</time></trkpt><trkpt lat="44.0030944" lon="7.5538753"><ele>426.8</ele><time>2026-05-01T11:35:31.883Z</time></trkpt><trkpt lat="44.0030228" lon="7.553807"><ele>427.19999999999993</ele><time>2026-05-01T11:35:32.883Z</time></trkpt><trkpt lat="44.0029369" lon="7.5537522"><ele>427.59999999999997</ele><time>2026-05-01T11:35:33.883Z</time></trkpt><trkpt lat="44.0028477" lon="7.5536921"><ele>428.0</ele><time>2026-05-01T11:35:34.884Z</time></trkpt><trkpt lat="44.0027642" lon="7.5536442"><ele>428.0</ele><time>2026-05-01T11:35:35.883Z</time></trkpt><trkpt lat="44.0026646" lon="7.5536273"><ele>427.99999999999994</ele><time>2026-05-01T11:35:36.883Z</time></trkpt><trkpt lat="44.0025994" lon="7.5535541"><ele>427.99999999999994</ele><time>2026-05-01T11:35:37.883Z</time></trkpt><trkpt lat="44.002502" lon="7.5535134"><ele>428.0</ele><time>2026-05-01T11:35:38.883Z</time></trkpt><trkpt lat="44.0024109" lon="7.5534662"><ele>428.0</ele><time>2026-05-01T11:35:39.883Z</time></trkpt><trkpt lat="44.002324" lon="7.5534086"><ele>426.79999999999995</ele><time>2026-05-01T11:35:40.883Z</time></trkpt><trkpt lat="44.0022411" lon="7.5533306"><ele>425.59999999999997</ele><time>2026-05-01T11:35:41.883Z</time></trkpt><trkpt lat="44.0021594" lon="7.5532636"><ele>424.4</ele><time>2026-05-01T11:35:42.884Z</time></trkpt><trkpt lat="44.002081" lon="7.5531919"><ele>423.20000000000005</ele><time>2026-05-01T11:35:43.883Z</time></trkpt><trkpt lat="44.0019999" lon="7.5531243"><ele>422.0</ele><time>2026-05-01T11:35:44.883Z</time></trkpt><trkpt lat="44.0019019" lon="7.5530714"><ele>422.0</ele><time>2026-05-01T11:35:45.883Z</time></trkpt><trkpt lat="44.0018062" lon="7.5530139"><ele>422.0</ele><time>2026-05-01T11:35:46.883Z</time></trkpt><trkpt lat="44.0016992" lon="7.5529852"><ele>422.0</ele><time>2026-05-01T11:35:47.883Z</time></trkpt><trkpt lat="44.0015959" lon="7.5529442"><ele>422.0</ele><time>2026-05-01T11:35:48.883Z</time></trkpt><trkpt lat="44.0014896" lon="7.5529031"><ele>422.0</ele><time>2026-05-01T11:35:49.883Z</time></trkpt><trkpt lat="44.0013864" lon="7.5528585"><ele>423.0</ele><time>2026-05-01T11:35:50.883Z</time></trkpt><trkpt lat="44.0012802" lon="7.552825"><ele>424.0</ele><time>2026-05-01T11:35:51.883Z</time></trkpt><trkpt lat="44.0011668" lon="7.5527906"><ele>425.00000000000006</ele><time>2026-05-01T11:35:52.883Z</time></trkpt><trkpt lat="44.0010783" lon="7.5527533"><ele>426.0</ele><time>2026-05-01T11:35:53.883Z</time></trkpt><trkpt lat="44.000972" lon="7.5527177"><ele>427.0</ele><time>2026-05-01T11:35:54.884Z</time></trkpt><trkpt lat="44.0009273" lon="7.5525993"><ele>425.6</ele><time>2026-05-01T11:35:55.883Z</time></trkpt><trkpt lat="44.0008283" lon="7.5525513"><ele>424.20000000000005</ele><time>2026-05-01T11:35:56.883Z</time></trkpt><trkpt lat="44.0007273" lon="7.5524967"><ele>422.8</ele><time>2026-05-01T11:35:57.883Z</time></trkpt><trkpt lat="44.0006304" lon="7.5524339"><ele>421.4</ele><time>2026-05-01T11:35:58.883Z</time></trkpt><trkpt lat="44.000539" lon="7.5523631"><ele>420.0</ele><time>2026-05-01T11:35:59.883Z</time></trkpt><trkpt lat="44.0004462" lon="7.5522937"><ele>420.0</ele><time>2026-05-01T11:36:00.883Z</time></trkpt><trkpt lat="44.0003481" lon="7.552222"><ele>420.0</ele><time>2026-05-01T11:36:01.883Z</time></trkpt><trkpt lat="44.0002351" lon="7.5521457"><ele>420.0</ele><time>2026-05-01T11:36:02.883Z</time></trkpt><trkpt lat="44.0001327" lon="7.5520688"><ele>420.0</ele><time>2026-05-01T11:36:03.883Z</time></trkpt><trkpt lat="44.0000241" lon="7.5520087"><ele>423.0</ele><time>2026-05-01T11:36:04.884Z</time></trkpt><trkpt lat="43.9998937" lon="7.5519301"><ele>426.0</ele><time>2026-05-01T11:36:05.883Z</time></trkpt><trkpt lat="43.9997874" lon="7.5518418"><ele>429.0</ele><time>2026-05-01T11:36:06.883Z</time></trkpt><trkpt lat="43.9996827" lon="7.5517585"><ele>432.0</ele><time>2026-05-01T11:36:07.883Z</time></trkpt><trkpt lat="43.9995799" lon="7.5516606"><ele>432.0</ele><time>2026-05-01T11:36:08.883Z</time></trkpt><trkpt lat="43.9994771" lon="7.551561"><ele>432.0</ele><time>2026-05-01T11:36:09.883Z</time></trkpt><trkpt lat="43.9993788" lon="7.551456"><ele>432.0</ele><time>2026-05-01T11:36:10.883Z</time></trkpt><trkpt lat="43.9992881" lon="7.5513412"><ele>432.0</ele><time>2026-05-01T11:36:11.883Z</time></trkpt><trkpt lat="43.999203" lon="7.5512218"><ele>431.5</ele><time>2026-05-01T11:36:12.883Z</time></trkpt><trkpt lat="43.9991136" lon="7.5510947"><ele>431.0</ele><time>2026-05-01T11:36:13.883Z</time></trkpt><trkpt lat="43.9990175" lon="7.5509775"><ele>430.5</ele><time>2026-05-01T11:36:14.883Z</time></trkpt><trkpt lat="43.9989176" lon="7.5508921"><ele>430.0</ele><time>2026-05-01T11:36:15.883Z</time></trkpt><trkpt lat="43.9988073" lon="7.5508041"><ele>430.0</ele><time>2026-05-01T11:36:16.883Z</time></trkpt><trkpt lat="43.9986918" lon="7.5507319"><ele>430.0</ele><time>2026-05-01T11:36:17.883Z</time></trkpt><trkpt lat="43.9985741" lon="7.5506609"><ele>430.0</ele><time>2026-05-01T11:36:18.883Z</time></trkpt><trkpt lat="43.998463" lon="7.5505891"><ele>430.0</ele><time>2026-05-01T11:36:19.883Z</time></trkpt><trkpt lat="43.9983548" lon="7.5505091"><ele>426.75</ele><time>2026-05-01T11:36:20.883Z</time></trkpt><trkpt lat="43.9982403" lon="7.5504201"><ele>423.5</ele><time>2026-05-01T11:36:21.883Z</time></trkpt><trkpt lat="43.9981368" lon="7.5503983"><ele>420.25</ele><time>2026-05-01T11:36:22.883Z</time></trkpt><trkpt lat="43.9980214" lon="7.5503249"><ele>417.0</ele><time>2026-05-01T11:36:23.883Z</time></trkpt><trkpt lat="43.9978981" lon="7.5502584"><ele>419.0</ele><time>2026-05-01T11:36:24.884Z</time></trkpt><trkpt lat="43.9977689" lon="7.5501981"><ele>421.0</ele><time>2026-05-01T11:36:25.883Z</time></trkpt><trkpt lat="43.9976366" lon="7.550143"><ele>423.0</ele><time>2026-05-01T11:36:26.883Z</time></trkpt><trkpt lat="43.997497" lon="7.5500919"><ele>425.0</ele><time>2026-05-01T11:36:27.883Z</time></trkpt><trkpt lat="43.997358" lon="7.5500351"><ele>425.0</ele><time>2026-05-01T11:36:28.883Z</time></trkpt><trkpt lat="43.9972225" lon="7.5499983"><ele>425.0</ele><time>2026-05-01T11:36:29.883Z</time></trkpt><trkpt lat="43.9970848" lon="7.5499626"><ele>425.0</ele><time>2026-05-01T11:36:30.883Z</time></trkpt><trkpt lat="43.9969534" lon="7.5499275"><ele>425.0</ele><time>2026-05-01T11:36:31.883Z</time></trkpt><trkpt lat="43.9968228" lon="7.5498732"><ele>425.0</ele><time>2026-05-01T11:36:32.883Z</time></trkpt><trkpt lat="43.9966947" lon="7.5498379"><ele>425.0</ele><time>2026-05-01T11:36:33.884Z</time></trkpt><trkpt lat="43.9965588" lon="7.5497987"><ele>425.0</ele><time>2026-05-01T11:36:34.883Z</time></trkpt><trkpt lat="43.9964163" lon="7.5497762"><ele>425.0</ele><time>2026-05-01T11:36:35.882Z</time></trkpt><trkpt lat="43.9962857" lon="7.5497482"><ele>422.5</ele><time>2026-05-01T11:36:36.882Z</time></trkpt><trkpt lat="43.9961473" lon="7.5497164"><ele>420.0</ele><time>2026-05-01T11:36:37.882Z</time></trkpt><trkpt lat="43.9960232" lon="7.5496862"><ele>417.5</ele><time>2026-05-01T11:36:38.882Z</time></trkpt><trkpt lat="43.995888" lon="7.5496597"><ele>415.0</ele><time>2026-05-01T11:36:39.882Z</time></trkpt><trkpt lat="43.9957482" lon="7.5496585"><ele>414.25</ele><time>2026-05-01T11:36:40.882Z</time></trkpt><trkpt lat="43.9956119" lon="7.549668"><ele>413.5</ele><time>2026-05-01T11:36:41.882Z</time></trkpt><trkpt lat="43.995472" lon="7.5496822"><ele>412.75</ele><time>2026-05-01T11:36:42.882Z</time></trkpt><trkpt lat="43.9953427" lon="7.5497022"><ele>412.0</ele><time>2026-05-01T11:36:43.882Z</time></trkpt><trkpt lat="43.9952145" lon="7.549719"><ele>412.0</ele><time>2026-05-01T11:36:44.882Z</time></trkpt><trkpt lat="43.9950902" lon="7.5497443"><ele>412.0</ele><time>2026-05-01T11:36:45.882Z</time></trkpt><trkpt lat="43.9949634" lon="7.54977"><ele>412.0</ele><time>2026-05-01T11:36:46.882Z</time></trkpt><trkpt lat="43.9948442" lon="7.5497939"><ele>412.0</ele><time>2026-05-01T11:36:47.882Z</time></trkpt><trkpt lat="43.9947174" lon="7.549823"><ele>411.75</ele><time>2026-05-01T11:36:48.882Z</time></trkpt><trkpt lat="43.9945738" lon="7.549845"><ele>411.5</ele><time>2026-05-01T11:36:49.882Z</time></trkpt><trkpt lat="43.9944469" lon="7.5498617"><ele>411.25</ele><time>2026-05-01T11:36:50.882Z</time></trkpt><trkpt lat="43.9943232" lon="7.549848"><ele>411.0</ele><time>2026-05-01T11:36:51.882Z</time></trkpt><trkpt lat="43.9941962" lon="7.5497797"><ele>410.33333333333337</ele><time>2026-05-01T11:36:52.883Z</time></trkpt><trkpt lat="43.9940643" lon="7.549671"><ele>409.6666666666667</ele><time>2026-05-01T11:36:53.882Z</time></trkpt><trkpt lat="43.9939351" lon="7.5495482"><ele>409.0</ele><time>2026-05-01T11:36:54.882Z</time></trkpt><trkpt lat="43.9938037" lon="7.5494023"><ele>409.0</ele><time>2026-05-01T11:36:55.882Z</time></trkpt><trkpt lat="43.9936603" lon="7.5492455"><ele>409.0</ele><time>2026-05-01T11:36:56.882Z</time></trkpt><trkpt lat="43.993558" lon="7.5490651"><ele>409.0</ele><time>2026-05-01T11:36:57.882Z</time></trkpt><trkpt lat="43.9934212" lon="7.5489061"><ele>407.33333333333337</ele><time>2026-05-01T11:36:58.882Z</time></trkpt><trkpt lat="43.9933029" lon="7.5487418"><ele>405.66666666666663</ele><time>2026-05-01T11:36:59.882Z</time></trkpt><trkpt lat="43.9931866" lon="7.5485731"><ele>404.0</ele><time>2026-05-01T11:37:00.882Z</time></trkpt><trkpt lat="43.9930994" lon="7.5483616"><ele>404.0</ele><time>2026-05-01T11:37:01.882Z</time></trkpt><trkpt lat="43.9930068" lon="7.5481843"><ele>404.0</ele><time>2026-05-01T11:37:02.882Z</time></trkpt><trkpt lat="43.9929231" lon="7.5480073"><ele>404.0</ele><time>2026-05-01T11:37:03.882Z</time></trkpt><trkpt lat="43.99282" lon="7.5478533"><ele>404.3333333333333</ele><time>2026-05-01T11:37:04.882Z</time></trkpt><trkpt lat="43.9926975" lon="7.547715"><ele>404.66666666666663</ele><time>2026-05-01T11:37:05.883Z</time></trkpt><trkpt lat="43.9925731" lon="7.5475863"><ele>405.0</ele><time>2026-05-01T11:37:06.882Z</time></trkpt><trkpt lat="43.9924359" lon="7.5475017"><ele>405.5</ele><time>2026-05-01T11:37:07.882Z</time></trkpt><trkpt lat="43.9922945" lon="7.5474326"><ele>406.0</ele><time>2026-05-01T11:37:08.882Z</time></trkpt><trkpt lat="43.9921474" lon="7.5473682"><ele>406.5</ele><time>2026-05-01T11:37:09.882Z</time></trkpt><trkpt lat="43.9920086" lon="7.5473108"><ele>407.0</ele><time>2026-05-01T11:37:10.882Z</time></trkpt><trkpt lat="43.9918641" lon="7.5472582"><ele>407.0</ele><time>2026-05-01T11:37:11.882Z</time></trkpt><trkpt lat="43.9917216" lon="7.5472113"><ele>407.0</ele><time>2026-05-01T11:37:12.882Z</time></trkpt><trkpt lat="43.9915817" lon="7.5471656"><ele>407.0</ele><time>2026-05-01T11:37:13.882Z</time></trkpt><trkpt lat="43.9914231" lon="7.5470894"><ele>407.25</ele><time>2026-05-01T11:37:14.882Z</time></trkpt><trkpt lat="43.9912978" lon="7.5470346"><ele>407.5</ele><time>2026-05-01T11:37:15.882Z</time></trkpt><trkpt lat="43.9911562" lon="7.546971"><ele>407.75</ele><time>2026-05-01T11:37:16.882Z</time></trkpt><trkpt lat="43.9910089" lon="7.5468999"><ele>408.0</ele><time>2026-05-01T11:37:17.882Z</time></trkpt><trkpt lat="43.9908814" lon="7.5468488"><ele>412.0</ele><time>2026-05-01T11:37:18.882Z</time></trkpt><trkpt lat="43.9907381" lon="7.5467661"><ele>416.0</ele><time>2026-05-01T11:37:19.882Z</time></trkpt><trkpt lat="43.990597" lon="7.546778"><ele>420.0</ele><time>2026-05-01T11:37:20.882Z</time></trkpt><trkpt lat="43.990461" lon="7.5468356"><ele>424.0</ele><time>2026-05-01T11:37:21.882Z</time></trkpt><trkpt lat="43.9903094" lon="7.5469292"><ele>424.0</ele><time>2026-05-01T11:37:22.882Z</time></trkpt><trkpt lat="43.9901701" lon="7.5470249"><ele>424.0</ele><time>2026-05-01T11:37:23.882Z</time></trkpt><trkpt lat="43.9900441" lon="7.5471573"><ele>424.0</ele><time>2026-05-01T11:37:24.883Z</time></trkpt><trkpt lat="43.9899053" lon="7.5472849"><ele>425.0</ele><time>2026-05-01T11:37:25.882Z</time></trkpt><trkpt lat="43.9897799" lon="7.5474011"><ele>426.0</ele><time>2026-05-01T11:37:26.882Z</time></trkpt><trkpt lat="43.9896149" lon="7.5474735"><ele>427.0</ele><time>2026-05-01T11:37:27.882Z</time></trkpt><trkpt lat="43.9894413" lon="7.5475246"><ele>427.0</ele><time>2026-05-01T11:37:28.882Z</time></trkpt><trkpt lat="43.9892684" lon="7.547571"><ele>427.0</ele><time>2026-05-01T11:37:29.882Z</time></trkpt><trkpt lat="43.989085" lon="7.5475895"><ele>427.0</ele><time>2026-05-01T11:37:30.883Z</time></trkpt><trkpt lat="43.9888974" lon="7.5475786"><ele>417.33333333333337</ele><time>2026-05-01T11:37:31.882Z</time></trkpt><trkpt lat="43.9887028" lon="7.5475822"><ele>407.66666666666663</ele><time>2026-05-01T11:37:32.882Z</time></trkpt><trkpt lat="43.9884998" lon="7.5475614"><ele>398.0</ele><time>2026-05-01T11:37:33.882Z</time></trkpt><trkpt lat="43.9882977" lon="7.5475627"><ele>394.66666666666663</ele><time>2026-05-01T11:37:34.882Z</time></trkpt><trkpt lat="43.98813" lon="7.5475336"><ele>391.33333333333337</ele><time>2026-05-01T11:37:35.882Z</time></trkpt><trkpt lat="43.9879782" lon="7.5475281"><ele>388.0</ele><time>2026-05-01T11:37:36.882Z</time></trkpt><trkpt lat="43.9878116" lon="7.54747"><ele>388.0</ele><time>2026-05-01T11:37:37.883Z</time></trkpt><trkpt lat="43.9876293" lon="7.5473724"><ele>388.0</ele><time>2026-05-01T11:37:38.882Z</time></trkpt><trkpt lat="43.9874957" lon="7.5472958"><ele>388.0</ele><time>2026-05-01T11:37:39.882Z</time></trkpt><trkpt lat="43.9873099" lon="7.5471753"><ele>389.33333333333337</ele><time>2026-05-01T11:37:40.882Z</time></trkpt><trkpt lat="43.9871046" lon="7.5470661"><ele>390.66666666666663</ele><time>2026-05-01T11:37:41.882Z</time></trkpt><trkpt lat="43.9869035" lon="7.5469604"><ele>392.0</ele><time>2026-05-01T11:37:42.882Z</time></trkpt><trkpt lat="43.986711" lon="7.5468712"><ele>391.0</ele><time>2026-05-01T11:37:43.882Z</time></trkpt><trkpt lat="43.9865131" lon="7.5468029"><ele>390.0</ele><time>2026-05-01T11:37:44.882Z</time></trkpt><trkpt lat="43.9863153" lon="7.5467328"><ele>389.0</ele><time>2026-05-01T11:37:45.882Z</time></trkpt><trkpt lat="43.9861186" lon="7.5466717"><ele>389.0</ele><time>2026-05-01T11:37:46.882Z</time></trkpt><trkpt lat="43.9859439" lon="7.5466183"><ele>389.0</ele><time>2026-05-01T11:37:47.882Z</time></trkpt><trkpt lat="43.9857369" lon="7.5465681"><ele>389.0</ele><time>2026-05-01T11:37:48.882Z</time></trkpt><trkpt lat="43.9855213" lon="7.5465253"><ele>406.0</ele><time>2026-05-01T11:37:49.882Z</time></trkpt><trkpt lat="43.9853067" lon="7.5464903"><ele>423.0</ele><time>2026-05-01T11:37:50.882Z</time></trkpt><trkpt lat="43.9850846" lon="7.5464638"><ele>440.0</ele><time>2026-05-01T11:37:51.882Z</time></trkpt><trkpt lat="43.9848542" lon="7.5464459"><ele>446.0</ele><time>2026-05-01T11:37:52.882Z</time></trkpt><trkpt lat="43.9846236" lon="7.5464375"><ele>452.0</ele><time>2026-05-01T11:37:53.882Z</time></trkpt><trkpt lat="43.9843845" lon="7.5464373"><ele>438.5</ele><time>2026-05-01T11:37:54.882Z</time></trkpt><trkpt lat="43.9841643" lon="7.5464409"><ele>425.0</ele><time>2026-05-01T11:37:55.882Z</time></trkpt><trkpt lat="43.9839349" lon="7.546445"><ele>425.0</ele><time>2026-05-01T11:37:56.882Z</time></trkpt><trkpt lat="43.9836991" lon="7.5464493"><ele>425.0</ele><time>2026-05-01T11:37:57.883Z</time></trkpt><trkpt lat="43.9834683" lon="7.5464543"><ele>399.0</ele><time>2026-05-01T11:37:58.882Z</time></trkpt><trkpt lat="43.9832424" lon="7.546461"><ele>373.0</ele><time>2026-05-01T11:37:59.882Z</time></trkpt><trkpt lat="43.9830046" lon="7.5464694"><ele>373.0</ele><time>2026-05-01T11:38:00.882Z</time></trkpt><trkpt lat="43.9827655" lon="7.5464785"><ele>373.0</ele><time>2026-05-01T11:38:01.882Z</time></trkpt><trkpt lat="43.9825162" lon="7.5464872"><ele>375.0</ele><time>2026-05-01T11:38:02.882Z</time></trkpt><trkpt lat="43.9822799" lon="7.5464945"><ele>377.0</ele><time>2026-05-01T11:38:03.882Z</time></trkpt><trkpt lat="43.9820267" lon="7.5464977"><ele>414.0</ele><time>2026-05-01T11:38:04.882Z</time></trkpt><trkpt lat="43.9825558" lon="7.5458903"><ele>403.0</ele><time>2026-05-01T11:38:05.882Z</time></trkpt><trkpt lat="43.982439" lon="7.5457981"><ele>392.0</ele><time>2026-05-01T11:38:06.882Z</time></trkpt><trkpt lat="43.9822598" lon="7.5456562"><ele>381.0</ele><time>2026-05-01T11:38:07.882Z</time></trkpt><trkpt lat="43.9820907" lon="7.5455701"><ele>381.0</ele><time>2026-05-01T11:38:08.882Z</time></trkpt><trkpt lat="43.9819131" lon="7.5454346"><ele>381.0</ele><time>2026-05-01T11:38:09.882Z</time></trkpt><trkpt lat="43.9817336" lon="7.5452911"><ele>381.0</ele><time>2026-05-01T11:38:10.882Z</time></trkpt><trkpt lat="43.9815565" lon="7.5452091"><ele>381.6666666666667</ele><time>2026-05-01T11:38:11.883Z</time></trkpt><trkpt lat="43.9813895" lon="7.5451106"><ele>382.33333333333337</ele><time>2026-05-01T11:38:12.883Z</time></trkpt><trkpt lat="43.9811888" lon="7.545039"><ele>383.0</ele><time>2026-05-01T11:38:13.882Z</time></trkpt><trkpt lat="43.9810097" lon="7.5449908"><ele>383.0</ele><time>2026-05-01T11:38:14.882Z</time></trkpt><trkpt lat="43.9808633" lon="7.5450516"><ele>383.0</ele><time>2026-05-01T11:38:15.882Z</time></trkpt><trkpt lat="43.9806844" lon="7.5450018"><ele>383.0</ele><time>2026-05-01T11:38:16.882Z</time></trkpt><trkpt lat="43.9805039" lon="7.5449525"><ele>386.33333333333337</ele><time>2026-05-01T11:38:17.882Z</time></trkpt><trkpt lat="43.9803226" lon="7.5449052"><ele>389.6666666666667</ele><time>2026-05-01T11:38:18.882Z</time></trkpt><trkpt lat="43.9801549" lon="7.544863"><ele>393.0</ele><time>2026-05-01T11:38:19.882Z</time></trkpt><trkpt lat="43.9799859" lon="7.5448211"><ele>393.0</ele><time>2026-05-01T11:38:20.882Z</time></trkpt><trkpt lat="43.9798168" lon="7.5447782"><ele>393.0</ele><time>2026-05-01T11:38:21.882Z</time></trkpt><trkpt lat="43.9796639" lon="7.5447369"><ele>393.0</ele><time>2026-05-01T11:38:22.883Z</time></trkpt><trkpt lat="43.9795248" lon="7.5446966"><ele>393.0</ele><time>2026-05-01T11:38:23.882Z</time></trkpt><trkpt lat="43.9793913" lon="7.5446552"><ele>393.0</ele><time>2026-05-01T11:38:24.882Z</time></trkpt><trkpt lat="43.9792676" lon="7.5446138"><ele>393.0</ele><time>2026-05-01T11:38:25.882Z</time></trkpt><trkpt lat="43.9791539" lon="7.5445743"><ele>393.0</ele><time>2026-05-01T11:38:26.882Z</time></trkpt><trkpt lat="43.9751684" lon="7.5405093"><ele>391.33333333333337</ele><time>2026-05-01T11:38:50.882Z</time></trkpt><trkpt lat="43.9750357" lon="7.5403311"><ele>389.6666666666667</ele><time>2026-05-01T11:38:51.882Z</time></trkpt><trkpt lat="43.974893" lon="7.5401511"><ele>388.0</ele><time>2026-05-01T11:38:52.882Z</time></trkpt><trkpt lat="43.9747841" lon="7.540003"><ele>378.33333333333337</ele><time>2026-05-01T11:38:53.882Z</time></trkpt><trkpt lat="43.9746313" lon="7.5398618"><ele>368.6666666666667</ele><time>2026-05-01T11:38:54.883Z</time></trkpt><trkpt lat="43.9744789" lon="7.539713"><ele>359.0</ele><time>2026-05-01T11:38:55.882Z</time></trkpt><trkpt lat="43.9743146" lon="7.5396042"><ele>364.33333333333337</ele><time>2026-05-01T11:38:56.882Z</time></trkpt><trkpt lat="43.9741581" lon="7.5394843"><ele>369.6666666666667</ele><time>2026-05-01T11:38:57.882Z</time></trkpt><trkpt lat="43.9739959" lon="7.5393635"><ele>375.0</ele><time>2026-05-01T11:38:58.882Z</time></trkpt><trkpt lat="43.9738379" lon="7.5392514"><ele>375.0</ele><time>2026-05-01T11:38:59.882Z</time></trkpt><trkpt lat="43.9736653" lon="7.5391403"><ele>375.0</ele><time>2026-05-01T11:39:00.883Z</time></trkpt><trkpt lat="43.9735089" lon="7.539074"><ele>375.0</ele><time>2026-05-01T11:39:01.881Z</time></trkpt><trkpt lat="43.9733365" lon="7.5390189"><ele>369.0</ele><time>2026-05-01T11:39:02.882Z</time></trkpt><trkpt lat="43.9731719" lon="7.5389249"><ele>363.0</ele><time>2026-05-01T11:39:03.882Z</time></trkpt><trkpt lat="43.9729832" lon="7.5388815"><ele>357.0</ele><time>2026-05-01T11:39:04.882Z</time></trkpt><trkpt lat="43.9728127" lon="7.5388199"><ele>357.0</ele><time>2026-05-01T11:39:05.882Z</time></trkpt><trkpt lat="43.9726344" lon="7.5387752"><ele>357.0</ele><time>2026-05-01T11:39:06.882Z</time></trkpt><trkpt lat="43.9724562" lon="7.5387287"><ele>357.0</ele><time>2026-05-01T11:39:07.882Z</time></trkpt><trkpt lat="43.9722801" lon="7.5386657"><ele>361.3333333333333</ele><time>2026-05-01T11:39:08.882Z</time></trkpt><trkpt lat="43.9721074" lon="7.5385985"><ele>365.66666666666663</ele><time>2026-05-01T11:39:09.883Z</time></trkpt><trkpt lat="43.9719582" lon="7.5385188"><ele>370.0</ele><time>2026-05-01T11:39:10.882Z</time></trkpt><trkpt lat="43.9717927" lon="7.5384357"><ele>364.66666666666663</ele><time>2026-05-01T11:39:11.883Z</time></trkpt><trkpt lat="43.9716411" lon="7.5383353"><ele>359.3333333333333</ele><time>2026-05-01T11:39:12.882Z</time></trkpt><trkpt lat="43.9714873" lon="7.5382343"><ele>354.0</ele><time>2026-05-01T11:39:13.882Z</time></trkpt><trkpt lat="43.9713312" lon="7.5381168"><ele>354.0</ele><time>2026-05-01T11:39:14.882Z</time></trkpt><trkpt lat="43.9712054" lon="7.5379656"><ele>354.0</ele><time>2026-05-01T11:39:15.882Z</time></trkpt><trkpt lat="43.9710594" lon="7.5377953"><ele>354.0</ele><time>2026-05-01T11:39:16.882Z</time></trkpt><trkpt lat="43.9709168" lon="7.5376236"><ele>354.3333333333333</ele><time>2026-05-01T11:39:17.882Z</time></trkpt><trkpt lat="43.970773" lon="7.5374278"><ele>354.66666666666663</ele><time>2026-05-01T11:39:18.882Z</time></trkpt><trkpt lat="43.9706397" lon="7.5372221"><ele>355.0</ele><time>2026-05-01T11:39:19.882Z</time></trkpt><trkpt lat="43.9704997" lon="7.5370029"><ele>355.0</ele><time>2026-05-01T11:39:20.882Z</time></trkpt><trkpt lat="43.9703745" lon="7.536764"><ele>355.0</ele><time>2026-05-01T11:39:21.882Z</time></trkpt><trkpt lat="43.9702761" lon="7.5365189"><ele>355.0</ele><time>2026-05-01T11:39:22.882Z</time></trkpt><trkpt lat="43.9701773" lon="7.5362685"><ele>360.0</ele><time>2026-05-01T11:39:23.882Z</time></trkpt><trkpt lat="43.9700821" lon="7.5360107"><ele>365.0</ele><time>2026-05-01T11:39:24.882Z</time></trkpt><trkpt lat="43.9699936" lon="7.5357473"><ele>370.0</ele><time>2026-05-01T11:39:25.882Z</time></trkpt><trkpt lat="43.9699123" lon="7.53549"><ele>363.0</ele><time>2026-05-01T11:39:26.882Z</time></trkpt><trkpt lat="43.9698398" lon="7.5352247"><ele>356.0</ele><time>2026-05-01T11:39:27.882Z</time></trkpt><trkpt lat="43.9697814" lon="7.5349351"><ele>349.0</ele><time>2026-05-01T11:39:28.882Z</time></trkpt><trkpt lat="43.9697127" lon="7.5346417"><ele>352.5</ele><time>2026-05-01T11:39:29.882Z</time></trkpt><trkpt lat="43.9696611" lon="7.5343223"><ele>356.0</ele><time>2026-05-01T11:39:30.882Z</time></trkpt><trkpt lat="43.9696133" lon="7.5340028"><ele>361.5</ele><time>2026-05-01T11:39:31.882Z</time></trkpt><trkpt lat="43.9695511" lon="7.5337166"><ele>367.0</ele><time>2026-05-01T11:39:32.882Z</time></trkpt><trkpt lat="43.9694866" lon="7.5333974"><ele>367.0</ele><time>2026-05-01T11:39:33.883Z</time></trkpt><trkpt lat="43.9694317" lon="7.5330883"><ele>367.0</ele><time>2026-05-01T11:39:34.882Z</time></trkpt><trkpt lat="43.9694086" lon="7.5328243"><ele>367.0</ele><time>2026-05-01T11:39:35.882Z</time></trkpt><trkpt lat="43.9693459" lon="7.5325256"><ele>372.66666666666663</ele><time>2026-05-01T11:39:36.882Z</time></trkpt><trkpt lat="43.9692935" lon="7.5322327"><ele>378.3333333333333</ele><time>2026-05-01T11:39:37.882Z</time></trkpt><trkpt lat="43.969223" lon="7.5319475"><ele>384.0</ele><time>2026-05-01T11:39:38.882Z</time></trkpt><trkpt lat="43.9691419" lon="7.5316689"><ele>377.6666666666667</ele><time>2026-05-01T11:39:39.882Z</time></trkpt><trkpt lat="43.9690133" lon="7.5314659"><ele>371.33333333333337</ele><time>2026-05-01T11:39:40.882Z</time></trkpt><trkpt lat="43.9688999" lon="7.5312117"><ele>365.0</ele><time>2026-05-01T11:39:41.882Z</time></trkpt><trkpt lat="43.9687829" lon="7.5309732"><ele>365.0</ele><time>2026-05-01T11:39:42.882Z</time></trkpt><trkpt lat="43.968663" lon="7.5307474"><ele>365.0</ele><time>2026-05-01T11:39:43.882Z</time></trkpt><trkpt lat="43.9685223" lon="7.5305224"><ele>365.0</ele><time>2026-05-01T11:39:44.882Z</time></trkpt><trkpt lat="43.9683797" lon="7.5303027"><ele>350.5</ele><time>2026-05-01T11:39:45.882Z</time></trkpt><trkpt lat="43.9682241" lon="7.5300769"><ele>336.0</ele><time>2026-05-01T11:39:46.883Z</time></trkpt><trkpt lat="43.968083" lon="7.5298336"><ele>336.0</ele><time>2026-05-01T11:39:47.882Z</time></trkpt><trkpt lat="43.9679449" lon="7.5295745"><ele>336.0</ele><time>2026-05-01T11:39:48.882Z</time></trkpt><trkpt lat="43.9678042" lon="7.529292"><ele>341.5</ele><time>2026-05-01T11:39:49.882Z</time></trkpt><trkpt lat="43.9676641" lon="7.5290214"><ele>347.0</ele><time>2026-05-01T11:39:50.882Z</time></trkpt><trkpt lat="43.9675384" lon="7.5287643"><ele>341.0</ele><time>2026-05-01T11:39:51.882Z</time></trkpt><trkpt lat="43.9673936" lon="7.5284977"><ele>335.0</ele><time>2026-05-01T11:39:52.882Z</time></trkpt><trkpt lat="43.9672544" lon="7.5282473"><ele>335.0</ele><time>2026-05-01T11:39:53.882Z</time></trkpt><trkpt lat="43.9671111" lon="7.5279937"><ele>335.0</ele><time>2026-05-01T11:39:54.882Z</time></trkpt><trkpt lat="43.9669732" lon="7.5277578"><ele>337.6666666666667</ele><time>2026-05-01T11:39:55.882Z</time></trkpt><trkpt lat="43.966842" lon="7.5275252"><ele>340.3333333333333</ele><time>2026-05-01T11:39:56.882Z</time></trkpt><trkpt lat="43.9667229" lon="7.5272834"><ele>343.0</ele><time>2026-05-01T11:39:57.882Z</time></trkpt><trkpt lat="43.9665963" lon="7.5270401"><ele>343.0</ele><time>2026-05-01T11:39:58.882Z</time></trkpt><trkpt lat="43.9664802" lon="7.5268042"><ele>343.0</ele><time>2026-05-01T11:39:59.882Z</time></trkpt><trkpt lat="43.9663595" lon="7.526564"><ele>343.0</ele><time>2026-05-01T11:40:00.883Z</time></trkpt><trkpt lat="43.9662371" lon="7.5263341"><ele>338.66666666666663</ele><time>2026-05-01T11:40:01.882Z</time></trkpt><trkpt lat="43.9660983" lon="7.5261092"><ele>334.3333333333333</ele><time>2026-05-01T11:40:02.882Z</time></trkpt><trkpt lat="43.9659587" lon="7.5259089"><ele>330.0</ele><time>2026-05-01T11:40:03.882Z</time></trkpt><trkpt lat="43.9658044" lon="7.5257049"><ele>330.0</ele><time>2026-05-01T11:40:04.882Z</time></trkpt><trkpt lat="43.965648" lon="7.5254953"><ele>330.0</ele><time>2026-05-01T11:40:05.882Z</time></trkpt><trkpt lat="43.9654878" lon="7.5253086"><ele>330.0</ele><time>2026-05-01T11:40:06.882Z</time></trkpt><trkpt lat="43.9653304" lon="7.5251423"><ele>329.0</ele><time>2026-05-01T11:40:07.882Z</time></trkpt><trkpt lat="43.9651621" lon="7.5249867"><ele>328.0</ele><time>2026-05-01T11:40:08.882Z</time></trkpt><trkpt lat="43.9649844" lon="7.5248489"><ele>327.0</ele><time>2026-05-01T11:40:09.882Z</time></trkpt><trkpt lat="43.964797" lon="7.5247274"><ele>327.0</ele><time>2026-05-01T11:40:10.882Z</time></trkpt><trkpt lat="43.9646168" lon="7.5246265"><ele>327.0</ele><time>2026-05-01T11:40:11.882Z</time></trkpt><trkpt lat="43.9644294" lon="7.5245226"><ele>327.0</ele><time>2026-05-01T11:40:12.882Z</time></trkpt><trkpt lat="43.9642296" lon="7.5244206"><ele>328.3333333333333</ele><time>2026-05-01T11:40:13.882Z</time></trkpt><trkpt lat="43.9640372" lon="7.5243195"><ele>329.66666666666663</ele><time>2026-05-01T11:40:14.882Z</time></trkpt><trkpt lat="43.9638538" lon="7.5242211"><ele>331.0</ele><time>2026-05-01T11:40:15.882Z</time></trkpt><trkpt lat="43.9636661" lon="7.5241213"><ele>331.0</ele><time>2026-05-01T11:40:16.882Z</time></trkpt><trkpt lat="43.9634754" lon="7.5240016"><ele>331.0</ele><time>2026-05-01T11:40:17.882Z</time></trkpt><trkpt lat="43.9633138" lon="7.52388"><ele>331.0</ele><time>2026-05-01T11:40:18.883Z</time></trkpt><trkpt lat="43.9631323" lon="7.523763"><ele>334.0</ele><time>2026-05-01T11:40:19.882Z</time></trkpt><trkpt lat="43.9629423" lon="7.5236413"><ele>337.0</ele><time>2026-05-01T11:40:20.882Z</time></trkpt><trkpt lat="43.9627462" lon="7.523514"><ele>340.0</ele><time>2026-05-01T11:40:21.882Z</time></trkpt><trkpt lat="43.962555" lon="7.5233987"><ele>334.66666666666663</ele><time>2026-05-01T11:40:22.882Z</time></trkpt><trkpt lat="43.9623779" lon="7.5232985"><ele>329.3333333333333</ele><time>2026-05-01T11:40:23.883Z</time></trkpt><trkpt lat="43.9621913" lon="7.5231955"><ele>324.0</ele><time>2026-05-01T11:40:24.882Z</time></trkpt><trkpt lat="43.9620009" lon="7.5230891"><ele>324.0</ele><time>2026-05-01T11:40:25.882Z</time></trkpt><trkpt lat="43.9618056" lon="7.5229917"><ele>324.0</ele><time>2026-05-01T11:40:26.882Z</time></trkpt><trkpt lat="43.9616257" lon="7.522908"><ele>324.0</ele><time>2026-05-01T11:40:27.882Z</time></trkpt><trkpt lat="43.9614297" lon="7.5228487"><ele>325.3333333333333</ele><time>2026-05-01T11:40:28.882Z</time></trkpt><trkpt lat="43.9612335" lon="7.5227768"><ele>326.66666666666663</ele><time>2026-05-01T11:40:29.883Z</time></trkpt><trkpt lat="43.9610434" lon="7.5227045"><ele>328.0</ele><time>2026-05-01T11:40:30.882Z</time></trkpt><trkpt lat="43.9608569" lon="7.5226465"><ele>328.0</ele><time>2026-05-01T11:40:31.882Z</time></trkpt><trkpt lat="43.9606645" lon="7.5225849"><ele>328.0</ele><time>2026-05-01T11:40:32.882Z</time></trkpt><trkpt lat="43.9604781" lon="7.5225185"><ele>328.0</ele><time>2026-05-01T11:40:33.882Z</time></trkpt><trkpt lat="43.9602881" lon="7.522457"><ele>328.0</ele><time>2026-05-01T11:40:34.882Z</time></trkpt><trkpt lat="43.960118" lon="7.5224036"><ele>328.0</ele><time>2026-05-01T11:40:35.882Z</time></trkpt><trkpt lat="43.9599545" lon="7.5223471"><ele>328.0</ele><time>2026-05-01T11:40:36.882Z</time></trkpt><trkpt lat="43.9597928" lon="7.5222834"><ele>328.66666666666663</ele><time>2026-05-01T11:40:37.882Z</time></trkpt><trkpt lat="43.959633" lon="7.5222118"><ele>329.3333333333333</ele><time>2026-05-01T11:40:38.882Z</time></trkpt><trkpt lat="43.9594897" lon="7.5221187"><ele>330.0</ele><time>2026-05-01T11:40:39.882Z</time></trkpt><trkpt lat="43.9593487" lon="7.5220219"><ele>330.0</ele><time>2026-05-01T11:40:40.882Z</time></trkpt><trkpt lat="43.9592181" lon="7.5219129"><ele>330.0</ele><time>2026-05-01T11:40:41.883Z</time></trkpt><trkpt lat="43.9590891" lon="7.5218102"><ele>330.0</ele><time>2026-05-01T11:40:42.882Z</time></trkpt><trkpt lat="43.9589737" lon="7.5217217"><ele>330.0</ele><time>2026-05-01T11:40:43.882Z</time></trkpt><trkpt lat="43.9588575" lon="7.5216323"><ele>327.0</ele><time>2026-05-01T11:40:44.882Z</time></trkpt><trkpt lat="43.958744" lon="7.5215426"><ele>324.0</ele><time>2026-05-01T11:40:45.882Z</time></trkpt><trkpt lat="43.9586409" lon="7.5214583"><ele>321.0</ele><time>2026-05-01T11:40:46.882Z</time></trkpt><trkpt lat="43.958544" lon="7.521375"><ele>318.0</ele><time>2026-05-01T11:40:47.882Z</time></trkpt><trkpt lat="43.9584423" lon="7.5212931"><ele>319.0</ele><time>2026-05-01T11:40:48.882Z</time></trkpt><trkpt lat="43.9583319" lon="7.5212042"><ele>320.0</ele><time>2026-05-01T11:40:49.882Z</time></trkpt><trkpt lat="43.9582215" lon="7.5211137"><ele>321.0</ele><time>2026-05-01T11:40:50.882Z</time></trkpt><trkpt lat="43.958105" lon="7.5210207"><ele>322.0</ele><time>2026-05-01T11:40:51.882Z</time></trkpt><trkpt lat="43.9579923" lon="7.5209441"><ele>322.0</ele><time>2026-05-01T11:40:52.882Z</time></trkpt><trkpt lat="43.9578743" lon="7.5208712"><ele>322.0</ele><time>2026-05-01T11:40:53.882Z</time></trkpt><trkpt lat="43.9577575" lon="7.5208169"><ele>322.0</ele><time>2026-05-01T11:40:54.882Z</time></trkpt><trkpt lat="43.957642" lon="7.5207759"><ele>322.0</ele><time>2026-05-01T11:40:55.882Z</time></trkpt><trkpt lat="43.9575243" lon="7.5207543"><ele>320.20000000000005</ele><time>2026-05-01T11:40:56.882Z</time></trkpt><trkpt lat="43.9574083" lon="7.520752"><ele>318.40000000000003</ele><time>2026-05-01T11:40:57.882Z</time></trkpt><trkpt lat="43.9572908" lon="7.5207601"><ele>316.6</ele><time>2026-05-01T11:40:58.882Z</time></trkpt><trkpt lat="43.9571855" lon="7.5207677"><ele>314.8</ele><time>2026-05-01T11:40:59.882Z</time></trkpt><trkpt lat="43.957087" lon="7.520779"><ele>313.0</ele><time>2026-05-01T11:41:00.882Z</time></trkpt><trkpt lat="43.9569875" lon="7.520793"><ele>313.0</ele><time>2026-05-01T11:41:01.882Z</time></trkpt><trkpt lat="43.9568995" lon="7.5208039"><ele>313.0</ele><time>2026-05-01T11:41:02.882Z</time></trkpt><trkpt lat="43.9568055" lon="7.5208151"><ele>313.0</ele><time>2026-05-01T11:41:03.882Z</time></trkpt><trkpt lat="43.9567011" lon="7.5208285"><ele>313.0</ele><time>2026-05-01T11:41:04.882Z</time></trkpt><trkpt lat="43.9565883" lon="7.5208403"><ele>313.0</ele><time>2026-05-01T11:41:05.882Z</time></trkpt><trkpt lat="43.9564629" lon="7.5208563"><ele>312.75</ele><time>2026-05-01T11:41:06.882Z</time></trkpt><trkpt lat="43.9563333" lon="7.5208762"><ele>312.5</ele><time>2026-05-01T11:41:07.882Z</time></trkpt><trkpt lat="43.9561946" lon="7.5208906"><ele>312.25</ele><time>2026-05-01T11:41:08.882Z</time></trkpt><trkpt lat="43.9560539" lon="7.5209076"><ele>312.0</ele><time>2026-05-01T11:41:09.882Z</time></trkpt><trkpt lat="43.9559176" lon="7.5209236"><ele>311.3333333333333</ele><time>2026-05-01T11:41:10.883Z</time></trkpt><trkpt lat="43.9557819" lon="7.5209336"><ele>310.66666666666663</ele><time>2026-05-01T11:41:11.882Z</time></trkpt><trkpt lat="43.955614" lon="7.520926"><ele>310.0</ele><time>2026-05-01T11:41:12.882Z</time></trkpt><trkpt lat="43.9554538" lon="7.5209061"><ele>310.0</ele><time>2026-05-01T11:41:13.882Z</time></trkpt><trkpt lat="43.955296" lon="7.5208708"><ele>310.0</ele><time>2026-05-01T11:41:14.882Z</time></trkpt><trkpt lat="43.9551504" lon="7.5208091"><ele>310.0</ele><time>2026-05-01T11:41:15.882Z</time></trkpt><trkpt lat="43.9550182" lon="7.5207104"><ele>309.0</ele><time>2026-05-01T11:41:16.882Z</time></trkpt><trkpt lat="43.9548893" lon="7.5205792"><ele>308.0</ele><time>2026-05-01T11:41:17.882Z</time></trkpt><trkpt lat="43.9547636" lon="7.5204424"><ele>307.0</ele><time>2026-05-01T11:41:18.882Z</time></trkpt><trkpt lat="43.954634" lon="7.5203078"><ele>308.3333333333333</ele><time>2026-05-01T11:41:19.882Z</time></trkpt><trkpt lat="43.9544898" lon="7.5201829"><ele>309.6666666666667</ele><time>2026-05-01T11:41:20.882Z</time></trkpt><trkpt lat="43.9543305" lon="7.5200797"><ele>311.0</ele><time>2026-05-01T11:41:21.882Z</time></trkpt><trkpt lat="43.9541602" lon="7.5199958"><ele>311.0</ele><time>2026-05-01T11:41:22.882Z</time></trkpt><trkpt lat="43.9540166" lon="7.5200431"><ele>311.0</ele><time>2026-05-01T11:41:23.882Z</time></trkpt><trkpt lat="43.9538699" lon="7.5200141"><ele>311.0</ele><time>2026-05-01T11:41:24.882Z</time></trkpt><trkpt lat="43.9537251" lon="7.5199812"><ele>311.0</ele><time>2026-05-01T11:41:25.882Z</time></trkpt><trkpt lat="43.9535977" lon="7.5199367"><ele>311.0</ele><time>2026-05-01T11:41:26.882Z</time></trkpt><trkpt lat="43.9534782" lon="7.5198889"><ele>311.0</ele><time>2026-05-01T11:41:27.882Z</time></trkpt><trkpt lat="43.9533644" lon="7.5198194"><ele>311.0</ele><time>2026-05-01T11:41:28.882Z</time></trkpt><trkpt lat="43.9532682" lon="7.5197565"><ele>311.0</ele><time>2026-05-01T11:41:29.882Z</time></trkpt><trkpt lat="43.9531446" lon="7.5197142"><ele>311.0</ele><time>2026-05-01T11:41:30.882Z</time></trkpt><trkpt lat="43.9530676" lon="7.5196634"><ele>311.0</ele><time>2026-05-01T11:41:31.882Z</time></trkpt><trkpt lat="43.9530044" lon="7.5196204"><ele>311.0</ele><time>2026-05-01T11:41:32.882Z</time></trkpt><trkpt lat="43.9529332" lon="7.5195807"><ele>311.0</ele><time>2026-05-01T11:41:33.882Z</time></trkpt><trkpt lat="43.9528677" lon="7.5195437"><ele>311.0</ele><time>2026-05-01T11:41:34.882Z</time></trkpt><trkpt lat="43.9527523" lon="7.5194843"><ele>311.0</ele><time>2026-05-01T11:41:36.882Z</time></trkpt><trkpt lat="43.9526876" lon="7.5194623"><ele>311.75</ele><time>2026-05-01T11:41:37.882Z</time></trkpt><trkpt lat="43.9525177" lon="7.5193377"><ele>312.5</ele><time>2026-05-01T11:41:39.882Z</time></trkpt><trkpt lat="43.9524367" lon="7.5192912"><ele>313.25</ele><time>2026-05-01T11:41:40.882Z</time></trkpt><trkpt lat="43.9523516" lon="7.519238"><ele>314.0</ele><time>2026-05-01T11:41:41.882Z</time></trkpt><trkpt lat="43.9522639" lon="7.5191893"><ele>314.0</ele><time>2026-05-01T11:41:42.882Z</time></trkpt><trkpt lat="43.9521888" lon="7.5191486"><ele>314.0</ele><time>2026-05-01T11:41:43.882Z</time></trkpt><trkpt lat="43.9521135" lon="7.5191088"><ele>314.0</ele><time>2026-05-01T11:41:44.882Z</time></trkpt><trkpt lat="43.9520308" lon="7.5190501"><ele>314.0</ele><time>2026-05-01T11:41:45.882Z</time></trkpt><trkpt lat="43.9519399" lon="7.5190041"><ele>314.0</ele><time>2026-05-01T11:41:46.882Z</time></trkpt><trkpt lat="43.9518546" lon="7.5189629"><ele>314.0</ele><time>2026-05-01T11:41:47.883Z</time></trkpt><trkpt lat="43.9517625" lon="7.5189226"><ele>313.4</ele><time>2026-05-01T11:41:48.882Z</time></trkpt><trkpt lat="43.9516727" lon="7.5188803"><ele>312.79999999999995</ele><time>2026-05-01T11:41:49.882Z</time></trkpt><trkpt lat="43.9515813" lon="7.5188425"><ele>312.20000000000005</ele><time>2026-05-01T11:41:50.882Z</time></trkpt><trkpt lat="43.9514939" lon="7.518811"><ele>311.6</ele><time>2026-05-01T11:41:51.882Z</time></trkpt><trkpt lat="43.9514101" lon="7.5187807"><ele>311.0</ele><time>2026-05-01T11:41:52.882Z</time></trkpt><trkpt lat="43.9513171" lon="7.518762"><ele>314.0</ele><time>2026-05-01T11:41:53.882Z</time></trkpt><trkpt lat="43.9511852" lon="7.5187113"><ele>317.0</ele><time>2026-05-01T11:41:55.882Z</time></trkpt><trkpt lat="43.9511034" lon="7.5186912"><ele>320.0</ele><time>2026-05-01T11:41:56.882Z</time></trkpt><trkpt lat="43.9510261" lon="7.5186559"><ele>323.0</ele><time>2026-05-01T11:41:57.882Z</time></trkpt><trkpt lat="43.9509655" lon="7.518586"><ele>326.0</ele><time>2026-05-01T11:41:58.882Z</time></trkpt><trkpt lat="43.9509278" lon="7.5184955"><ele>326.0</ele><time>2026-05-01T11:41:59.882Z</time></trkpt><trkpt lat="43.9509135" lon="7.518376"><ele>326.0</ele><time>2026-05-01T11:42:00.882Z</time></trkpt><trkpt lat="43.9508958" lon="7.5182482"><ele>326.0</ele><time>2026-05-01T11:42:01.882Z</time></trkpt><trkpt lat="43.9508683" lon="7.5180937"><ele>326.0</ele><time>2026-05-01T11:42:02.882Z</time></trkpt><trkpt lat="43.9508201" lon="7.5179452"><ele>326.0</ele><time>2026-05-01T11:42:03.882Z</time></trkpt><trkpt lat="43.9507339" lon="7.5177912"><ele>330.25</ele><time>2026-05-01T11:42:04.882Z</time></trkpt><trkpt lat="43.9506275" lon="7.5176534"><ele>334.5</ele><time>2026-05-01T11:42:05.882Z</time></trkpt><trkpt lat="43.9505083" lon="7.5175682"><ele>338.75</ele><time>2026-05-01T11:42:06.882Z</time></trkpt><trkpt lat="43.9504048" lon="7.517534"><ele>343.0</ele><time>2026-05-01T11:42:07.882Z</time></trkpt><trkpt lat="43.950287" lon="7.5174773"><ele>343.0</ele><time>2026-05-01T11:42:08.882Z</time></trkpt><trkpt lat="43.950155" lon="7.517507"><ele>343.0</ele><time>2026-05-01T11:42:10.882Z</time></trkpt><trkpt lat="43.9500901" lon="7.5175094"><ele>343.0</ele><time>2026-05-01T11:42:11.882Z</time></trkpt><trkpt lat="43.9499787" lon="7.5175046"><ele>343.0</ele><time>2026-05-01T11:42:13.882Z</time></trkpt><trkpt lat="43.9499296" lon="7.5174346"><ele>343.0</ele><time>2026-05-01T11:42:15.882Z</time></trkpt><trkpt lat="43.950016" lon="7.5174255"><ele>343.0</ele><time>2026-05-01T11:42:17.882Z</time></trkpt><trkpt lat="43.950103" lon="7.517455"><ele>343.0</ele><time>2026-05-01T11:42:18.882Z</time></trkpt><trkpt lat="43.9502057" lon="7.5174984"><ele>343.0</ele><time>2026-05-01T11:42:19.882Z</time></trkpt><trkpt lat="43.9503158" lon="7.5175344"><ele>343.0</ele><time>2026-05-01T11:42:20.882Z</time></trkpt><trkpt lat="43.9504224" lon="7.5175346"><ele>343.0</ele><time>2026-05-01T11:42:21.882Z</time></trkpt><trkpt lat="43.9505632" lon="7.5175589"><ele>343.0</ele><time>2026-05-01T11:42:22.882Z</time></trkpt><trkpt lat="43.9506906" lon="7.5175244"><ele>343.0</ele><time>2026-05-01T11:42:23.882Z</time></trkpt><trkpt lat="43.9509948" lon="7.5175915"><ele>343.0</ele><time>2026-05-01T11:42:26.882Z</time></trkpt><trkpt lat="43.9512243" lon="7.5174931"><ele>342.5</ele><time>2026-05-01T11:42:28.882Z</time></trkpt><trkpt lat="43.9513513" lon="7.5174319"><ele>342.0</ele><time>2026-05-01T11:42:29.882Z</time></trkpt><trkpt lat="43.9514783" lon="7.51739"><ele>341.5</ele><time>2026-05-01T11:42:30.882Z</time></trkpt><trkpt lat="43.9516068" lon="7.5173514"><ele>341.0</ele><time>2026-05-01T11:42:31.882Z</time></trkpt><trkpt lat="43.9517343" lon="7.5173149"><ele>341.0</ele><time>2026-05-01T11:42:32.882Z</time></trkpt><trkpt lat="43.9518711" lon="7.5172712"><ele>341.0</ele><time>2026-05-01T11:42:33.883Z</time></trkpt><trkpt lat="43.9520118" lon="7.5172501"><ele>341.0</ele><time>2026-05-01T11:42:34.883Z</time></trkpt><trkpt lat="43.9521616" lon="7.5172274"><ele>341.0</ele><time>2026-05-01T11:42:35.882Z</time></trkpt><trkpt lat="43.9522943" lon="7.5172216"><ele>341.0</ele><time>2026-05-01T11:42:36.882Z</time></trkpt><trkpt lat="43.9524161" lon="7.5172137"><ele>341.0</ele><time>2026-05-01T11:42:37.882Z</time></trkpt><trkpt lat="43.9525393" lon="7.5171746"><ele>341.0</ele><time>2026-05-01T11:42:38.882Z</time></trkpt><trkpt lat="43.9526684" lon="7.5171047"><ele>341.0</ele><time>2026-05-01T11:42:39.882Z</time></trkpt><trkpt lat="43.9527742" lon="7.5170279"><ele>340.0</ele><time>2026-05-01T11:42:40.882Z</time></trkpt><trkpt lat="43.9528552" lon="7.5169202"><ele>339.0</ele><time>2026-05-01T11:42:41.882Z</time></trkpt><trkpt lat="43.9529272" lon="7.5167739"><ele>338.0</ele><time>2026-05-01T11:42:42.882Z</time></trkpt><trkpt lat="43.953005" lon="7.5165955"><ele>337.0</ele><time>2026-05-01T11:42:43.882Z</time></trkpt><trkpt lat="43.9530758" lon="7.5163995"><ele>344.66666666666663</ele><time>2026-05-01T11:42:44.882Z</time></trkpt><trkpt lat="43.9531486" lon="7.5161451"><ele>352.3333333333333</ele><time>2026-05-01T11:42:45.882Z</time></trkpt><trkpt lat="43.9532146" lon="7.5159613"><ele>360.0</ele><time>2026-05-01T11:42:46.882Z</time></trkpt><trkpt lat="43.9532823" lon="7.5157884"><ele>360.0</ele><time>2026-05-01T11:42:47.882Z</time></trkpt><trkpt lat="43.9533574" lon="7.5156261"><ele>360.0</ele><time>2026-05-01T11:42:48.882Z</time></trkpt><trkpt lat="43.9534531" lon="7.5154785"><ele>360.0</ele><time>2026-05-01T11:42:49.882Z</time></trkpt><trkpt lat="43.9535554" lon="7.5153308"><ele>360.0</ele><time>2026-05-01T11:42:50.882Z</time></trkpt><trkpt lat="43.9536575" lon="7.5152101"><ele>358.5</ele><time>2026-05-01T11:42:51.882Z</time></trkpt><trkpt lat="43.9537705" lon="7.5150911"><ele>357.0</ele><time>2026-05-01T11:42:52.882Z</time></trkpt><trkpt lat="43.9538806" lon="7.5149548"><ele>355.5</ele><time>2026-05-01T11:42:53.882Z</time></trkpt><trkpt lat="43.9539945" lon="7.5148256"><ele>354.0</ele><time>2026-05-01T11:42:54.882Z</time></trkpt><trkpt lat="43.9540787" lon="7.5147007"><ele>354.0</ele><time>2026-05-01T11:42:55.882Z</time></trkpt><trkpt lat="43.9541493" lon="7.5145794"><ele>354.0</ele><time>2026-05-01T11:42:56.882Z</time></trkpt><trkpt lat="43.9542216" lon="7.5144876"><ele>354.0</ele><time>2026-05-01T11:42:57.883Z</time></trkpt><trkpt lat="43.9542737" lon="7.514415"><ele>354.0</ele><time>2026-05-01T11:42:58.882Z</time></trkpt><trkpt lat="43.9543718" lon="7.5143356"><ele>354.0</ele><time>2026-05-01T11:43:00.882Z</time></trkpt><trkpt lat="43.9544054" lon="7.5142437"><ele>351.79999999999995</ele><time>2026-05-01T11:43:02.882Z</time></trkpt><trkpt lat="43.954394" lon="7.5141305"><ele>349.59999999999997</ele><time>2026-05-01T11:43:04.882Z</time></trkpt><trkpt lat="43.9543105" lon="7.5141789"><ele>347.4</ele><time>2026-05-01T11:43:06.882Z</time></trkpt><trkpt lat="43.9542397" lon="7.5142675"><ele>345.2</ele><time>2026-05-01T11:43:07.882Z</time></trkpt><trkpt lat="43.954167" lon="7.5143737"><ele>343.0</ele><time>2026-05-01T11:43:08.882Z</time></trkpt><trkpt lat="43.9540728" lon="7.5144881"><ele>345.75</ele><time>2026-05-01T11:43:09.882Z</time></trkpt><trkpt lat="43.9539697" lon="7.5146029"><ele>348.5</ele><time>2026-05-01T11:43:10.882Z</time></trkpt><trkpt lat="43.9538695" lon="7.5147089"><ele>351.25</ele><time>2026-05-01T11:43:11.882Z</time></trkpt><trkpt lat="43.9537377" lon="7.5147981"><ele>354.0</ele><time>2026-05-01T11:43:12.882Z</time></trkpt><trkpt lat="43.9536093" lon="7.5148996"><ele>354.0</ele><time>2026-05-01T11:43:13.882Z</time></trkpt><trkpt lat="43.953478" lon="7.5150178"><ele>354.0</ele><time>2026-05-01T11:43:14.882Z</time></trkpt><trkpt lat="43.9533589" lon="7.5151341"><ele>354.0</ele><time>2026-05-01T11:43:15.882Z</time></trkpt><trkpt lat="43.9532292" lon="7.5152565"><ele>355.5</ele><time>2026-05-01T11:43:16.882Z</time></trkpt><trkpt lat="43.9531139" lon="7.5153925"><ele>357.0</ele><time>2026-05-01T11:43:17.882Z</time></trkpt><trkpt lat="43.9530074" lon="7.5155185"><ele>358.5</ele><time>2026-05-01T11:43:18.882Z</time></trkpt><trkpt lat="43.9529059" lon="7.5156347"><ele>360.0</ele><time>2026-05-01T11:43:19.882Z</time></trkpt><trkpt lat="43.9527912" lon="7.5157426"><ele>360.0</ele><time>2026-05-01T11:43:20.882Z</time></trkpt><trkpt lat="43.9526652" lon="7.5158244"><ele>360.0</ele><time>2026-05-01T11:43:21.882Z</time></trkpt><trkpt lat="43.9525385" lon="7.5158489"><ele>360.0</ele><time>2026-05-01T11:43:22.882Z</time></trkpt><trkpt lat="43.9524364" lon="7.5158492"><ele>360.0</ele><time>2026-05-01T11:43:23.882Z</time></trkpt><trkpt lat="43.9523666" lon="7.5157733"><ele>366.0</ele><time>2026-05-01T11:43:24.882Z</time></trkpt><trkpt lat="43.9522515" lon="7.5157015"><ele>372.0</ele><time>2026-05-01T11:43:25.882Z</time></trkpt><trkpt lat="43.952116" lon="7.5156527"><ele>378.0</ele><time>2026-05-01T11:43:26.882Z</time></trkpt><trkpt lat="43.9519737" lon="7.515608"><ele>384.0</ele><time>2026-05-01T11:43:27.882Z</time></trkpt><trkpt lat="43.951829" lon="7.5156091"><ele>385.5</ele><time>2026-05-01T11:43:28.882Z</time></trkpt><trkpt lat="43.9517004" lon="7.5156123"><ele>387.0</ele><time>2026-05-01T11:43:29.882Z</time></trkpt><trkpt lat="43.9515524" lon="7.5156421"><ele>388.5</ele><time>2026-05-01T11:43:30.882Z</time></trkpt><trkpt lat="43.951393" lon="7.515626"><ele>390.0</ele><time>2026-05-01T11:43:31.882Z</time></trkpt><trkpt lat="43.9512322" lon="7.5156107"><ele>390.0</ele><time>2026-05-01T11:43:32.882Z</time></trkpt><trkpt lat="43.9510803" lon="7.5156116"><ele>390.0</ele><time>2026-05-01T11:43:33.882Z</time></trkpt><trkpt lat="43.9509386" lon="7.515642"><ele>390.0</ele><time>2026-05-01T11:43:34.882Z</time></trkpt><trkpt lat="43.9507988" lon="7.5156699"><ele>390.0</ele><time>2026-05-01T11:43:35.882Z</time></trkpt><trkpt lat="43.9506913" lon="7.5156792"><ele>391.5</ele><time>2026-05-01T11:43:36.882Z</time></trkpt><trkpt lat="43.9505852" lon="7.5156855"><ele>393.0</ele><time>2026-05-01T11:43:37.882Z</time></trkpt><trkpt lat="43.9504815" lon="7.5156503"><ele>394.5</ele><time>2026-05-01T11:43:38.882Z</time></trkpt><trkpt lat="43.9503741" lon="7.5155603"><ele>396.0</ele><time>2026-05-01T11:43:39.882Z</time></trkpt><trkpt lat="43.9502535" lon="7.5154633"><ele>402.0</ele><time>2026-05-01T11:43:40.882Z</time></trkpt><trkpt lat="43.9501222" lon="7.5153825"><ele>408.0</ele><time>2026-05-01T11:43:41.882Z</time></trkpt><trkpt lat="43.9499918" lon="7.515321"><ele>414.0</ele><time>2026-05-01T11:43:42.882Z</time></trkpt><trkpt lat="43.949869" lon="7.5152699"><ele>420.0</ele><time>2026-05-01T11:43:43.882Z</time></trkpt><trkpt lat="43.9497485" lon="7.5152423"><ele>420.75</ele><time>2026-05-01T11:43:44.882Z</time></trkpt><trkpt lat="43.9496284" lon="7.5152489"><ele>421.5</ele><time>2026-05-01T11:43:45.882Z</time></trkpt><trkpt lat="43.9494993" lon="7.515245"><ele>422.25</ele><time>2026-05-01T11:43:46.882Z</time></trkpt><trkpt lat="43.9493841" lon="7.5152561"><ele>423.0</ele><time>2026-05-01T11:43:47.882Z</time></trkpt><trkpt lat="43.949262" lon="7.5153104"><ele>420.2</ele><time>2026-05-01T11:43:48.882Z</time></trkpt><trkpt lat="43.9491737" lon="7.5153146"><ele>417.4</ele><time>2026-05-01T11:43:49.882Z</time></trkpt><trkpt lat="43.9491078" lon="7.5152641"><ele>414.59999999999997</ele><time>2026-05-01T11:43:50.882Z</time></trkpt><trkpt lat="43.9490484" lon="7.5151786"><ele>411.79999999999995</ele><time>2026-05-01T11:43:51.882Z</time></trkpt><trkpt lat="43.9490401" lon="7.5149889"><ele>409.0</ele><time>2026-05-01T11:43:53.882Z</time></trkpt><trkpt lat="43.9490723" lon="7.5148692"><ele>409.0</ele><time>2026-05-01T11:43:54.883Z</time></trkpt><trkpt lat="43.9490904" lon="7.5147287"><ele>409.0</ele><time>2026-05-01T11:43:55.882Z</time></trkpt><trkpt lat="43.9491198" lon="7.5145283"><ele>409.0</ele><time>2026-05-01T11:43:56.882Z</time></trkpt><trkpt lat="43.9492035" lon="7.5143052"><ele>409.0</ele><time>2026-05-01T11:43:57.883Z</time></trkpt><trkpt lat="43.9492439" lon="7.5141294"><ele>413.25</ele><time>2026-05-01T11:43:58.882Z</time></trkpt><trkpt lat="43.9492696" lon="7.5139785"><ele>417.5</ele><time>2026-05-01T11:43:59.882Z</time></trkpt><trkpt lat="43.9492753" lon="7.5138166"><ele>421.75</ele><time>2026-05-01T11:44:00.882Z</time></trkpt><trkpt lat="43.9492225" lon="7.5136404"><ele>426.0</ele><time>2026-05-01T11:44:01.882Z</time></trkpt><trkpt lat="43.9491444" lon="7.513453"><ele>426.0</ele><time>2026-05-01T11:44:02.882Z</time></trkpt><trkpt lat="43.9491038" lon="7.5132608"><ele>426.0</ele><time>2026-05-01T11:44:03.882Z</time></trkpt><trkpt lat="43.9490462" lon="7.5130709"><ele>426.0</ele><time>2026-05-01T11:44:04.882Z</time></trkpt><trkpt lat="43.9490089" lon="7.5129004"><ele>426.0</ele><time>2026-05-01T11:44:05.882Z</time></trkpt><trkpt lat="43.9489748" lon="7.5127709"><ele>430.20000000000005</ele><time>2026-05-01T11:44:06.882Z</time></trkpt><trkpt lat="43.9489292" lon="7.5126312"><ele>434.40000000000003</ele><time>2026-05-01T11:44:07.882Z</time></trkpt><trkpt lat="43.9488547" lon="7.5125646"><ele>438.6</ele><time>2026-05-01T11:44:08.882Z</time></trkpt><trkpt lat="43.9487652" lon="7.5124932"><ele>442.8</ele><time>2026-05-01T11:44:09.882Z</time></trkpt><trkpt lat="43.9486485" lon="7.5125139"><ele>447.0</ele><time>2026-05-01T11:44:10.882Z</time></trkpt><trkpt lat="43.948545" lon="7.51252"><ele>447.0</ele><time>2026-05-01T11:44:11.883Z</time></trkpt><trkpt lat="43.9484404" lon="7.5126046"><ele>447.0</ele><time>2026-05-01T11:44:12.882Z</time></trkpt><trkpt lat="43.948336" lon="7.5126325"><ele>447.0</ele><time>2026-05-01T11:44:13.882Z</time></trkpt><trkpt lat="43.9482149" lon="7.5126146"><ele>447.0</ele><time>2026-05-01T11:44:14.882Z</time></trkpt><trkpt lat="43.9481096" lon="7.5125895"><ele>442.66666666666663</ele><time>2026-05-01T11:44:15.882Z</time></trkpt><trkpt lat="43.9479967" lon="7.5125033"><ele>438.3333333333333</ele><time>2026-05-01T11:44:16.883Z</time></trkpt><trkpt lat="43.9478528" lon="7.5123586"><ele>434.0</ele><time>2026-05-01T11:44:17.882Z</time></trkpt><trkpt lat="43.9477258" lon="7.512229"><ele>434.0</ele><time>2026-05-01T11:44:18.882Z</time></trkpt><trkpt lat="43.9476084" lon="7.5120955"><ele>434.0</ele><time>2026-05-01T11:44:19.882Z</time></trkpt><trkpt lat="43.9474702" lon="7.5119832"><ele>434.0</ele><time>2026-05-01T11:44:20.882Z</time></trkpt><trkpt lat="43.9473532" lon="7.5118422"><ele>437.25</ele><time>2026-05-01T11:44:21.882Z</time></trkpt><trkpt lat="43.9472543" lon="7.5116747"><ele>440.5</ele><time>2026-05-01T11:44:22.882Z</time></trkpt><trkpt lat="43.9471944" lon="7.5115274"><ele>443.75</ele><time>2026-05-01T11:44:23.882Z</time></trkpt><trkpt lat="43.9471138" lon="7.5113969"><ele>447.0</ele><time>2026-05-01T11:44:24.882Z</time></trkpt><trkpt lat="43.9470253" lon="7.5113013"><ele>451.5</ele><time>2026-05-01T11:44:25.882Z</time></trkpt><trkpt lat="43.9469288" lon="7.5112075"><ele>456.0</ele><time>2026-05-01T11:44:26.882Z</time></trkpt><trkpt lat="43.9468345" lon="7.5111486"><ele>460.5</ele><time>2026-05-01T11:44:27.882Z</time></trkpt><trkpt lat="43.9466833" lon="7.5111925"><ele>465.0</ele><time>2026-05-01T11:44:28.882Z</time></trkpt><trkpt lat="43.9465494" lon="7.5111961"><ele>465.0</ele><time>2026-05-01T11:44:29.882Z</time></trkpt><trkpt lat="43.9464171" lon="7.5111747"><ele>465.0</ele><time>2026-05-01T11:44:30.882Z</time></trkpt><trkpt lat="43.9462936" lon="7.5111282"><ele>465.0</ele><time>2026-05-01T11:44:31.882Z</time></trkpt><trkpt lat="43.9461456" lon="7.5110213"><ele>465.0</ele><time>2026-05-01T11:44:32.883Z</time></trkpt><trkpt lat="43.9460143" lon="7.5109067"><ele>465.0</ele><time>2026-05-01T11:44:33.882Z</time></trkpt><trkpt lat="43.9458846" lon="7.5107745"><ele>465.0</ele><time>2026-05-01T11:44:34.882Z</time></trkpt><trkpt lat="43.9457592" lon="7.5106607"><ele>465.0</ele><time>2026-05-01T11:44:35.882Z</time></trkpt><trkpt lat="43.9456095" lon="7.5105886"><ele>462.33333333333337</ele><time>2026-05-01T11:44:36.882Z</time></trkpt><trkpt lat="43.9454728" lon="7.5105059"><ele>459.6666666666667</ele><time>2026-05-01T11:44:37.882Z</time></trkpt><trkpt lat="43.9453343" lon="7.5104055"><ele>457.0</ele><time>2026-05-01T11:44:38.882Z</time></trkpt><trkpt lat="43.9451964" lon="7.5102856"><ele>460.6666666666667</ele><time>2026-05-01T11:44:39.882Z</time></trkpt><trkpt lat="43.9450526" lon="7.5101638"><ele>464.33333333333337</ele><time>2026-05-01T11:44:40.882Z</time></trkpt><trkpt lat="43.9448916" lon="7.5100763"><ele>468.0</ele><time>2026-05-01T11:44:41.882Z</time></trkpt><trkpt lat="43.9447357" lon="7.5099867"><ele>468.0</ele><time>2026-05-01T11:44:42.882Z</time></trkpt><trkpt lat="43.9445734" lon="7.5099026"><ele>468.0</ele><time>2026-05-01T11:44:43.882Z</time></trkpt><trkpt lat="43.9444052" lon="7.5098391"><ele>468.0</ele><time>2026-05-01T11:44:44.882Z</time></trkpt><trkpt lat="43.9442458" lon="7.5097696"><ele>463.33333333333337</ele><time>2026-05-01T11:44:45.882Z</time></trkpt><trkpt lat="43.9440963" lon="7.509719"><ele>458.6666666666667</ele><time>2026-05-01T11:44:46.882Z</time></trkpt><trkpt lat="43.9439385" lon="7.5096845"><ele>454.0</ele><time>2026-05-01T11:44:47.882Z</time></trkpt><trkpt lat="43.9437963" lon="7.5096355"><ele>457.0</ele><time>2026-05-01T11:44:48.882Z</time></trkpt><trkpt lat="43.9436592" lon="7.5095533"><ele>460.0</ele><time>2026-05-01T11:44:49.883Z</time></trkpt><trkpt lat="43.943513" lon="7.5094814"><ele>463.0</ele><time>2026-05-01T11:44:50.882Z</time></trkpt><trkpt lat="43.9433937" lon="7.5094178"><ele>466.0</ele><time>2026-05-01T11:44:51.882Z</time></trkpt><trkpt lat="43.9433048" lon="7.5093501"><ele>466.0</ele><time>2026-05-01T11:44:52.882Z</time></trkpt><trkpt lat="43.9432238" lon="7.5092551"><ele>466.0</ele><time>2026-05-01T11:44:53.882Z</time></trkpt><trkpt lat="43.9431505" lon="7.5091521"><ele>466.0</ele><time>2026-05-01T11:44:54.882Z</time></trkpt><trkpt lat="43.9431224" lon="7.5089876"><ele>466.0</ele><time>2026-05-01T11:44:55.882Z</time></trkpt><trkpt lat="43.943107" lon="7.5088251"><ele>470.0</ele><time>2026-05-01T11:44:56.882Z</time></trkpt><trkpt lat="43.9430815" lon="7.5086347"><ele>474.0</ele><time>2026-05-01T11:44:57.882Z</time></trkpt><trkpt lat="43.9430657" lon="7.508443"><ele>478.0</ele><time>2026-05-01T11:44:58.882Z</time></trkpt><trkpt lat="43.9430396" lon="7.5082391"><ele>482.0</ele><time>2026-05-01T11:44:59.883Z</time></trkpt><trkpt lat="43.9429985" lon="7.5080433"><ele>487.66666666666663</ele><time>2026-05-01T11:45:00.882Z</time></trkpt><trkpt lat="43.9429391" lon="7.5078521"><ele>493.33333333333337</ele><time>2026-05-01T11:45:01.882Z</time></trkpt><trkpt lat="43.9428639" lon="7.5076564"><ele>499.0</ele><time>2026-05-01T11:45:02.883Z</time></trkpt><trkpt lat="43.9427686" lon="7.5074509"><ele>499.0</ele><time>2026-05-01T11:45:03.883Z</time></trkpt><trkpt lat="43.9426971" lon="7.507277"><ele>499.0</ele><time>2026-05-01T11:45:04.882Z</time></trkpt><trkpt lat="43.9426462" lon="7.507088"><ele>499.0</ele><time>2026-05-01T11:45:05.882Z</time></trkpt><trkpt lat="43.9426098" lon="7.5069071"><ele>499.0</ele><time>2026-05-01T11:45:06.882Z</time></trkpt><trkpt lat="43.9426154" lon="7.5067088"><ele>501.75</ele><time>2026-05-01T11:45:07.882Z</time></trkpt><trkpt lat="43.9426325" lon="7.5065284"><ele>504.5</ele><time>2026-05-01T11:45:08.882Z</time></trkpt><trkpt lat="43.9426059" lon="7.5063521"><ele>507.25</ele><time>2026-05-01T11:45:09.882Z</time></trkpt><trkpt lat="43.9425748" lon="7.5062023"><ele>510.0</ele><time>2026-05-01T11:45:10.882Z</time></trkpt><trkpt lat="43.9425011" lon="7.5060373"><ele>505.0</ele><time>2026-05-01T11:45:11.882Z</time></trkpt><trkpt lat="43.9424474" lon="7.5058994"><ele>500.0</ele><time>2026-05-01T11:45:12.882Z</time></trkpt><trkpt lat="43.9424091" lon="7.5057575"><ele>495.0</ele><time>2026-05-01T11:45:13.882Z</time></trkpt><trkpt lat="43.9423886" lon="7.505607"><ele>490.0</ele><time>2026-05-01T11:45:14.882Z</time></trkpt><trkpt lat="43.9423949" lon="7.5054558"><ele>485.0</ele><time>2026-05-01T11:45:15.883Z</time></trkpt><trkpt lat="43.9423998" lon="7.5053018"><ele>485.0</ele><time>2026-05-01T11:45:16.882Z</time></trkpt><trkpt lat="43.9424397" lon="7.5051357"><ele>485.0</ele><time>2026-05-01T11:45:17.882Z</time></trkpt><trkpt lat="43.9424763" lon="7.5049575"><ele>485.0</ele><time>2026-05-01T11:45:18.883Z</time></trkpt><trkpt lat="43.9425015" lon="7.5047759"><ele>485.0</ele><time>2026-05-01T11:45:19.882Z</time></trkpt><trkpt lat="43.9425186" lon="7.5045779"><ele>484.0</ele><time>2026-05-01T11:45:20.882Z</time></trkpt><trkpt lat="43.942546" lon="7.5043998"><ele>483.0</ele><time>2026-05-01T11:45:21.882Z</time></trkpt><trkpt lat="43.9425872" lon="7.5042288"><ele>482.0</ele><time>2026-05-01T11:45:22.882Z</time></trkpt><trkpt lat="43.9426321" lon="7.5040881"><ele>481.0</ele><time>2026-05-01T11:45:23.882Z</time></trkpt><trkpt lat="43.942676" lon="7.503934"><ele>491.0</ele><time>2026-05-01T11:45:24.882Z</time></trkpt><trkpt lat="43.9426923" lon="7.5037736"><ele>501.0</ele><time>2026-05-01T11:45:25.882Z</time></trkpt><trkpt lat="43.9427075" lon="7.5036152"><ele>511.0</ele><time>2026-05-01T11:45:26.882Z</time></trkpt><trkpt lat="43.9427188" lon="7.5034564"><ele>521.0</ele><time>2026-05-01T11:45:27.882Z</time></trkpt><trkpt lat="43.9427194" lon="7.5032868"><ele>521.0</ele><time>2026-05-01T11:45:28.883Z</time></trkpt><trkpt lat="43.9427093" lon="7.5031141"><ele>521.0</ele><time>2026-05-01T11:45:29.882Z</time></trkpt><trkpt lat="43.942721" lon="7.5029125"><ele>521.0</ele><time>2026-05-01T11:45:30.882Z</time></trkpt><trkpt lat="43.9427332" lon="7.5027194"><ele>521.0</ele><time>2026-05-01T11:45:31.882Z</time></trkpt><trkpt lat="43.9427354" lon="7.5025145"><ele>523.5</ele><time>2026-05-01T11:45:32.882Z</time></trkpt><trkpt lat="43.9427372" lon="7.502324"><ele>526.0</ele><time>2026-05-01T11:45:33.882Z</time></trkpt><trkpt lat="43.9427299" lon="7.5021027"><ele>528.5</ele><time>2026-05-01T11:45:34.882Z</time></trkpt><trkpt lat="43.9427298" lon="7.5018937"><ele>531.0</ele><time>2026-05-01T11:45:35.882Z</time></trkpt><trkpt lat="43.9427409" lon="7.5016815"><ele>531.3333333333334</ele><time>2026-05-01T11:45:36.882Z</time></trkpt><trkpt lat="43.9427638" lon="7.5014727"><ele>531.6666666666667</ele><time>2026-05-01T11:45:37.882Z</time></trkpt><trkpt lat="43.9427678" lon="7.5012512"><ele>532.0</ele><time>2026-05-01T11:45:38.882Z</time></trkpt><trkpt lat="43.9427883" lon="7.5010462"><ele>531.25</ele><time>2026-05-01T11:45:39.882Z</time></trkpt><trkpt lat="43.9428385" lon="7.5008635"><ele>530.5</ele><time>2026-05-01T11:45:40.883Z</time></trkpt><trkpt lat="43.942887" lon="7.5006816"><ele>529.75</ele><time>2026-05-01T11:45:41.882Z</time></trkpt><trkpt lat="43.9429277" lon="7.5004951"><ele>529.0</ele><time>2026-05-01T11:45:42.882Z</time></trkpt><trkpt lat="43.9429511" lon="7.5003105"><ele>529.0</ele><time>2026-05-01T11:45:43.882Z</time></trkpt><trkpt lat="43.9429554" lon="7.5001219"><ele>529.0</ele><time>2026-05-01T11:45:44.882Z</time></trkpt><trkpt lat="43.9429714" lon="7.4999423"><ele>529.0</ele><time>2026-05-01T11:45:45.882Z</time></trkpt><trkpt lat="43.9430185" lon="7.499793"><ele>529.0</ele><time>2026-05-01T11:45:46.882Z</time></trkpt><trkpt lat="43.9430763" lon="7.4996186"><ele>528.75</ele><time>2026-05-01T11:45:47.882Z</time></trkpt><trkpt lat="43.9431279" lon="7.4994531"><ele>528.5</ele><time>2026-05-01T11:45:48.883Z</time></trkpt><trkpt lat="43.9431672" lon="7.4992791"><ele>528.25</ele><time>2026-05-01T11:45:49.882Z</time></trkpt><trkpt lat="43.9432041" lon="7.4990865"><ele>528.0</ele><time>2026-05-01T11:45:50.882Z</time></trkpt><trkpt lat="43.9432248" lon="7.4989077"><ele>528.0</ele><time>2026-05-01T11:45:51.882Z</time></trkpt><trkpt lat="43.9432262" lon="7.4987784"><ele>528.0</ele><time>2026-05-01T11:45:52.882Z</time></trkpt><trkpt lat="43.9431606" lon="7.4986215"><ele>528.0</ele><time>2026-05-01T11:45:53.882Z</time></trkpt><trkpt lat="43.9431039" lon="7.4984388"><ele>528.0</ele><time>2026-05-01T11:45:54.882Z</time></trkpt><trkpt lat="43.9431085" lon="7.4982449"><ele>528.0</ele><time>2026-05-01T11:45:55.882Z</time></trkpt><trkpt lat="43.9431014" lon="7.498061"><ele>528.0</ele><time>2026-05-01T11:45:56.882Z</time></trkpt><trkpt lat="43.9431056" lon="7.4978629"><ele>528.0</ele><time>2026-05-01T11:45:57.883Z</time></trkpt><trkpt lat="43.9431451" lon="7.4976675"><ele>528.0</ele><time>2026-05-01T11:45:58.882Z</time></trkpt><trkpt lat="43.9431701" lon="7.4974737"><ele>528.0</ele><time>2026-05-01T11:45:59.882Z</time></trkpt><trkpt lat="43.9432301" lon="7.4972506"><ele>528.0</ele><time>2026-05-01T11:46:00.882Z</time></trkpt><trkpt lat="43.9432815" lon="7.4970741"><ele>528.0</ele><time>2026-05-01T11:46:01.882Z</time></trkpt><trkpt lat="43.9433378" lon="7.4968924"><ele>535.25</ele><time>2026-05-01T11:46:02.882Z</time></trkpt><trkpt lat="43.9434114" lon="7.4967435"><ele>542.5</ele><time>2026-05-01T11:46:03.882Z</time></trkpt><trkpt lat="43.9435075" lon="7.4966113"><ele>549.75</ele><time>2026-05-01T11:46:04.883Z</time></trkpt><trkpt lat="43.943611" lon="7.4965169"><ele>557.0</ele><time>2026-05-01T11:46:05.882Z</time></trkpt><trkpt lat="43.9437337" lon="7.4964154"><ele>557.0</ele><time>2026-05-01T11:46:06.882Z</time></trkpt><trkpt lat="43.9438363" lon="7.496281"><ele>557.0</ele><time>2026-05-01T11:46:07.882Z</time></trkpt><trkpt lat="43.9439226" lon="7.4961186"><ele>557.0</ele><time>2026-05-01T11:46:08.882Z</time></trkpt><trkpt lat="43.9440066" lon="7.4959454"><ele>557.0</ele><time>2026-05-01T11:46:09.883Z</time></trkpt><trkpt lat="43.9440616" lon="7.4957408"><ele>553.0</ele><time>2026-05-01T11:46:10.882Z</time></trkpt><trkpt lat="43.9440739" lon="7.4955166"><ele>549.0</ele><time>2026-05-01T11:46:11.882Z</time></trkpt><trkpt lat="43.944095" lon="7.495297"><ele>545.0</ele><time>2026-05-01T11:46:12.883Z</time></trkpt><trkpt lat="43.9441111" lon="7.4950712"><ele>545.0</ele><time>2026-05-01T11:46:13.882Z</time></trkpt><trkpt lat="43.9441256" lon="7.4948499"><ele>545.0</ele><time>2026-05-01T11:46:14.882Z</time></trkpt><trkpt lat="43.9441242" lon="7.4946177"><ele>545.0</ele><time>2026-05-01T11:46:15.882Z</time></trkpt><trkpt lat="43.944093" lon="7.4943756"><ele>547.0</ele><time>2026-05-01T11:46:16.882Z</time></trkpt><trkpt lat="43.9440694" lon="7.4941399"><ele>549.0</ele><time>2026-05-01T11:46:17.882Z</time></trkpt><trkpt lat="43.9440483" lon="7.493915"><ele>551.0</ele><time>2026-05-01T11:46:18.882Z</time></trkpt><trkpt lat="43.9440169" lon="7.4936764"><ele>553.0</ele><time>2026-05-01T11:46:19.882Z</time></trkpt><trkpt lat="43.943985" lon="7.4934324"><ele>555.0</ele><time>2026-05-01T11:46:20.882Z</time></trkpt><trkpt lat="43.9439651" lon="7.4931887"><ele>557.0</ele><time>2026-05-01T11:46:21.882Z</time></trkpt><trkpt lat="43.9439421" lon="7.4929506"><ele>560.0</ele><time>2026-05-01T11:46:22.882Z</time></trkpt><trkpt lat="43.9439167" lon="7.492723"><ele>563.0</ele><time>2026-05-01T11:46:23.882Z</time></trkpt><trkpt lat="43.9438925" lon="7.4924913"><ele>566.0</ele><time>2026-05-01T11:46:24.882Z</time></trkpt><trkpt lat="43.9438618" lon="7.4922607"><ele>569.0</ele><time>2026-05-01T11:46:25.882Z</time></trkpt><trkpt lat="43.9438695" lon="7.4920514"><ele>572.0</ele><time>2026-05-01T11:46:26.882Z</time></trkpt><trkpt lat="43.9438762" lon="7.4918508"><ele>575.0</ele><time>2026-05-01T11:46:27.883Z</time></trkpt><trkpt lat="43.9438831" lon="7.4916711"><ele>578.0</ele><time>2026-05-01T11:46:28.882Z</time></trkpt><trkpt lat="43.9438993" lon="7.4915145"><ele>578.0</ele><time>2026-05-01T11:46:29.882Z</time></trkpt><trkpt lat="43.9439046" lon="7.4913819"><ele>578.0</ele><time>2026-05-01T11:46:30.882Z</time></trkpt><trkpt lat="43.9438937" lon="7.4912518"><ele>578.0</ele><time>2026-05-01T11:46:31.883Z</time></trkpt><trkpt lat="43.9438889" lon="7.4911338"><ele>578.0</ele><time>2026-05-01T11:46:32.882Z</time></trkpt><trkpt lat="43.943869" lon="7.4910193"><ele>578.0</ele><time>2026-05-01T11:46:33.883Z</time></trkpt><trkpt lat="43.9438004" lon="7.4909689"><ele>578.0</ele><time>2026-05-01T11:46:34.882Z</time></trkpt><trkpt lat="43.9437533" lon="7.4909016"><ele>579.4</ele><time>2026-05-01T11:46:35.882Z</time></trkpt><trkpt lat="43.9436718" lon="7.490867"><ele>580.8</ele><time>2026-05-01T11:46:36.882Z</time></trkpt><trkpt lat="43.9435761" lon="7.4909465"><ele>582.2</ele><time>2026-05-01T11:46:37.882Z</time></trkpt><trkpt lat="43.9434874" lon="7.490991"><ele>583.6</ele><time>2026-05-01T11:46:38.882Z</time></trkpt><trkpt lat="43.9434231" lon="7.4910516"><ele>585.0</ele><time>2026-05-01T11:46:39.882Z</time></trkpt><trkpt lat="43.9433061" lon="7.4913096"><ele>581.0</ele><time>2026-05-01T11:46:40.882Z</time></trkpt><trkpt lat="43.9432184" lon="7.4914692"><ele>577.0</ele><time>2026-05-01T11:46:41.882Z</time></trkpt><trkpt lat="43.9431316" lon="7.4916358"><ele>573.0</ele><time>2026-05-01T11:46:42.882Z</time></trkpt><trkpt lat="43.9430285" lon="7.4917934"><ele>569.0</ele><time>2026-05-01T11:46:43.882Z</time></trkpt><trkpt lat="43.9429514" lon="7.4919877"><ele>563.25</ele><time>2026-05-01T11:46:44.882Z</time></trkpt><trkpt lat="43.9428687" lon="7.4921399"><ele>557.5</ele><time>2026-05-01T11:46:45.882Z</time></trkpt><trkpt lat="43.9428082" lon="7.4922853"><ele>551.75</ele><time>2026-05-01T11:46:46.882Z</time></trkpt><trkpt lat="43.9427532" lon="7.4924257"><ele>546.0</ele><time>2026-05-01T11:46:47.882Z</time></trkpt><trkpt lat="43.9427237" lon="7.4925334"><ele>546.0</ele><time>2026-05-01T11:46:48.883Z</time></trkpt><trkpt lat="43.9426261" lon="7.4925943"><ele>546.0</ele><time>2026-05-01T11:46:50.882Z</time></trkpt><trkpt lat="43.9425364" lon="7.4925599"><ele>546.0</ele><time>2026-05-01T11:46:51.882Z</time></trkpt><trkpt lat="43.9424404" lon="7.4925309"><ele>546.0</ele><time>2026-05-01T11:46:52.882Z</time></trkpt><trkpt lat="43.942339" lon="7.4924771"><ele>546.0</ele><time>2026-05-01T11:46:53.882Z</time></trkpt><trkpt lat="43.9422037" lon="7.4923869"><ele>551.25</ele><time>2026-05-01T11:46:54.882Z</time></trkpt><trkpt lat="43.9420661" lon="7.4923326"><ele>556.5</ele><time>2026-05-01T11:46:55.882Z</time></trkpt><trkpt lat="43.9419434" lon="7.492279"><ele>561.75</ele><time>2026-05-01T11:46:56.883Z</time></trkpt><trkpt lat="43.9417893" lon="7.4922788"><ele>567.0</ele><time>2026-05-01T11:46:57.882Z</time></trkpt><trkpt lat="43.9416359" lon="7.4922889"><ele>568.0</ele><time>2026-05-01T11:46:58.882Z</time></trkpt><trkpt lat="43.9414897" lon="7.4923364"><ele>569.0</ele><time>2026-05-01T11:46:59.882Z</time></trkpt><trkpt lat="43.9413571" lon="7.4923585"><ele>570.0</ele><time>2026-05-01T11:47:00.882Z</time></trkpt><trkpt lat="43.9412088" lon="7.492356"><ele>571.0</ele><time>2026-05-01T11:47:01.882Z</time></trkpt><trkpt lat="43.9410566" lon="7.4923458"><ele>571.0</ele><time>2026-05-01T11:47:02.882Z</time></trkpt><trkpt lat="43.940906" lon="7.4923219"><ele>571.0</ele><time>2026-05-01T11:47:03.882Z</time></trkpt><trkpt lat="43.9407549" lon="7.4922738"><ele>571.0</ele><time>2026-05-01T11:47:04.882Z</time></trkpt><trkpt lat="43.9406109" lon="7.4922459"><ele>571.75</ele><time>2026-05-01T11:47:05.882Z</time></trkpt><trkpt lat="43.9404853" lon="7.4922189"><ele>572.5</ele><time>2026-05-01T11:47:06.882Z</time></trkpt><trkpt lat="43.9403587" lon="7.4921477"><ele>573.25</ele><time>2026-05-01T11:47:07.882Z</time></trkpt><trkpt lat="43.9402427" lon="7.4920663"><ele>574.0</ele><time>2026-05-01T11:47:08.882Z</time></trkpt><trkpt lat="43.9401531" lon="7.491928"><ele>578.0</ele><time>2026-05-01T11:47:09.882Z</time></trkpt><trkpt lat="43.9400549" lon="7.4917954"><ele>582.0</ele><time>2026-05-01T11:47:10.882Z</time></trkpt><trkpt lat="43.9399746" lon="7.4916602"><ele>586.0</ele><time>2026-05-01T11:47:11.882Z</time></trkpt><trkpt lat="43.9399064" lon="7.4914857"><ele>590.0</ele><time>2026-05-01T11:47:12.882Z</time></trkpt><trkpt lat="43.9398168" lon="7.4912838"><ele>600.3333333333333</ele><time>2026-05-01T11:47:13.882Z</time></trkpt><trkpt lat="43.939695" lon="7.4911289"><ele>610.6666666666666</ele><time>2026-05-01T11:47:14.883Z</time></trkpt><trkpt lat="43.9395792" lon="7.4909635"><ele>621.0</ele><time>2026-05-01T11:47:15.882Z</time></trkpt><trkpt lat="43.9394575" lon="7.4907785"><ele>621.0</ele><time>2026-05-01T11:47:16.883Z</time></trkpt><trkpt lat="43.9393474" lon="7.490598"><ele>621.0</ele><time>2026-05-01T11:47:17.882Z</time></trkpt><trkpt lat="43.9392359" lon="7.4904524"><ele>621.0</ele><time>2026-05-01T11:47:18.882Z</time></trkpt><trkpt lat="43.9391476" lon="7.4902746"><ele>618.0</ele><time>2026-05-01T11:47:19.882Z</time></trkpt><trkpt lat="43.9390377" lon="7.4901155"><ele>615.0</ele><time>2026-05-01T11:47:20.882Z</time></trkpt><trkpt lat="43.9389436" lon="7.4899535"><ele>612.0</ele><time>2026-05-01T11:47:21.882Z</time></trkpt><trkpt lat="43.9388531" lon="7.4897692"><ele>612.0</ele><time>2026-05-01T11:47:22.882Z</time></trkpt><trkpt lat="43.9387756" lon="7.4896083"><ele>612.0</ele><time>2026-05-01T11:47:23.883Z</time></trkpt><trkpt lat="43.9386944" lon="7.489451"><ele>612.0</ele><time>2026-05-01T11:47:24.882Z</time></trkpt><trkpt lat="43.9386454" lon="7.48925"><ele>612.0</ele><time>2026-05-01T11:47:25.882Z</time></trkpt><trkpt lat="43.9385743" lon="7.4890418"><ele>611.5</ele><time>2026-05-01T11:47:26.882Z</time></trkpt><trkpt lat="43.9385126" lon="7.4888687"><ele>611.0</ele><time>2026-05-01T11:47:27.882Z</time></trkpt><trkpt lat="43.9384508" lon="7.4887094"><ele>610.5</ele><time>2026-05-01T11:47:28.883Z</time></trkpt><trkpt lat="43.938394" lon="7.488556"><ele>610.0</ele><time>2026-05-01T11:47:29.882Z</time></trkpt><trkpt lat="43.9383485" lon="7.4884098"><ele>610.0</ele><time>2026-05-01T11:47:30.882Z</time></trkpt><trkpt lat="43.9383353" lon="7.4882339"><ele>610.0</ele><time>2026-05-01T11:47:31.882Z</time></trkpt><trkpt lat="43.9383822" lon="7.4880339"><ele>610.0</ele><time>2026-05-01T11:47:32.882Z</time></trkpt><trkpt lat="43.938412" lon="7.4878451"><ele>610.0</ele><time>2026-05-01T11:47:33.882Z</time></trkpt><trkpt lat="43.938443" lon="7.4876629"><ele>617.0</ele><time>2026-05-01T11:47:34.882Z</time></trkpt><trkpt lat="43.9384616" lon="7.4874881"><ele>624.0</ele><time>2026-05-01T11:47:35.882Z</time></trkpt><trkpt lat="43.9384675" lon="7.4873257"><ele>631.0</ele><time>2026-05-01T11:47:36.882Z</time></trkpt><trkpt lat="43.9384255" lon="7.487178"><ele>638.0</ele><time>2026-05-01T11:47:37.882Z</time></trkpt><trkpt lat="43.9383545" lon="7.4870194"><ele>638.0</ele><time>2026-05-01T11:47:38.882Z</time></trkpt><trkpt lat="43.938271" lon="7.486866"><ele>638.0</ele><time>2026-05-01T11:47:39.882Z</time></trkpt><trkpt lat="43.938161" lon="7.4867001"><ele>638.0</ele><time>2026-05-01T11:47:40.882Z</time></trkpt><trkpt lat="43.938052" lon="7.4865335"><ele>638.0</ele><time>2026-05-01T11:47:41.882Z</time></trkpt><trkpt lat="43.93794" lon="7.4863813"><ele>638.0</ele><time>2026-05-01T11:47:42.882Z</time></trkpt><trkpt lat="43.9378157" lon="7.4862437"><ele>638.0</ele><time>2026-05-01T11:47:43.882Z</time></trkpt><trkpt lat="43.9376966" lon="7.4861177"><ele>637.25</ele><time>2026-05-01T11:47:44.882Z</time></trkpt><trkpt lat="43.9375716" lon="7.4860054"><ele>636.5</ele><time>2026-05-01T11:47:45.882Z</time></trkpt><trkpt lat="43.9374819" lon="7.4859489"><ele>635.75</ele><time>2026-05-01T11:47:46.882Z</time></trkpt><trkpt lat="43.9373803" lon="7.4858771"><ele>635.0</ele><time>2026-05-01T11:47:47.882Z</time></trkpt><trkpt lat="43.9372782" lon="7.4858003"><ele>635.0</ele><time>2026-05-01T11:47:48.882Z</time></trkpt><trkpt lat="43.9372194" lon="7.4856607"><ele>635.0</ele><time>2026-05-01T11:47:49.882Z</time></trkpt><trkpt lat="43.9371691" lon="7.4855281"><ele>635.0</ele><time>2026-05-01T11:47:50.882Z</time></trkpt><trkpt lat="43.9371186" lon="7.4853315"><ele>635.0</ele><time>2026-05-01T11:47:51.882Z</time></trkpt><trkpt lat="43.9370794" lon="7.4851285"><ele>644.0</ele><time>2026-05-01T11:47:52.882Z</time></trkpt><trkpt lat="43.9370503" lon="7.4849343"><ele>653.0</ele><time>2026-05-01T11:47:53.882Z</time></trkpt><trkpt lat="43.9370191" lon="7.4847177"><ele>662.0</ele><time>2026-05-01T11:47:54.882Z</time></trkpt><trkpt lat="43.9369844" lon="7.4844832"><ele>664.25</ele><time>2026-05-01T11:47:55.882Z</time></trkpt><trkpt lat="43.9369504" lon="7.4842635"><ele>666.5</ele><time>2026-05-01T11:47:56.882Z</time></trkpt><trkpt lat="43.9369171" lon="7.484076"><ele>668.75</ele><time>2026-05-01T11:47:57.882Z</time></trkpt><trkpt lat="43.936901" lon="7.4838865"><ele>671.0</ele><time>2026-05-01T11:47:58.882Z</time></trkpt><trkpt lat="43.9368833" lon="7.4837159"><ele>671.5</ele><time>2026-05-01T11:47:59.882Z</time></trkpt><trkpt lat="43.9369105" lon="7.4835129"><ele>672.0</ele><time>2026-05-01T11:48:00.882Z</time></trkpt><trkpt lat="43.9369361" lon="7.4833282"><ele>672.5</ele><time>2026-05-01T11:48:01.883Z</time></trkpt><trkpt lat="43.9369759" lon="7.4831494"><ele>673.0</ele><time>2026-05-01T11:48:02.882Z</time></trkpt><trkpt lat="43.9370635" lon="7.4829979"><ele>669.5</ele><time>2026-05-01T11:48:03.882Z</time></trkpt><trkpt lat="43.937155" lon="7.4828644"><ele>666.0</ele><time>2026-05-01T11:48:04.882Z</time></trkpt><trkpt lat="43.9372441" lon="7.4827221"><ele>662.5</ele><time>2026-05-01T11:48:05.882Z</time></trkpt><trkpt lat="43.9373409" lon="7.4825941"><ele>659.0</ele><time>2026-05-01T11:48:06.882Z</time></trkpt><trkpt lat="43.937431" lon="7.482425"><ele>659.0</ele><time>2026-05-01T11:48:07.882Z</time></trkpt><trkpt lat="43.9374918" lon="7.4822286"><ele>659.0</ele><time>2026-05-01T11:48:08.882Z</time></trkpt><trkpt lat="43.937528" lon="7.4820576"><ele>659.0</ele><time>2026-05-01T11:48:09.882Z</time></trkpt><trkpt lat="43.9375907" lon="7.4818966"><ele>659.0</ele><time>2026-05-01T11:48:10.882Z</time></trkpt><trkpt lat="43.9376744" lon="7.4817561"><ele>661.5</ele><time>2026-05-01T11:48:11.882Z</time></trkpt><trkpt lat="43.9377737" lon="7.4816206"><ele>664.0</ele><time>2026-05-01T11:48:12.882Z</time></trkpt><trkpt lat="43.9378825" lon="7.4814947"><ele>666.5</ele><time>2026-05-01T11:48:13.883Z</time></trkpt><trkpt lat="43.937982" lon="7.4813386"><ele>669.0</ele><time>2026-05-01T11:48:14.882Z</time></trkpt><trkpt lat="43.9380558" lon="7.4811579"><ele>669.0</ele><time>2026-05-01T11:48:15.882Z</time></trkpt><trkpt lat="43.9381269" lon="7.4809773"><ele>669.0</ele><time>2026-05-01T11:48:16.882Z</time></trkpt><trkpt lat="43.9381853" lon="7.4807812"><ele>669.0</ele><time>2026-05-01T11:48:17.882Z</time></trkpt><trkpt lat="43.9382604" lon="7.4805797"><ele>667.0</ele><time>2026-05-01T11:48:18.882Z</time></trkpt><trkpt lat="43.9383376" lon="7.4803822"><ele>665.0</ele><time>2026-05-01T11:48:19.882Z</time></trkpt><trkpt lat="43.9384254" lon="7.4802217"><ele>663.0</ele><time>2026-05-01T11:48:20.882Z</time></trkpt><trkpt lat="43.9384969" lon="7.480036"><ele>672.5999999999999</ele><time>2026-05-01T11:48:21.882Z</time></trkpt><trkpt lat="43.9385629" lon="7.4799258"><ele>682.1999999999999</ele><time>2026-05-01T11:48:22.882Z</time></trkpt><trkpt lat="43.9386242" lon="7.4797995"><ele>691.8</ele><time>2026-05-01T11:48:23.882Z</time></trkpt><trkpt lat="43.9386854" lon="7.4796838"><ele>701.4</ele><time>2026-05-01T11:48:24.882Z</time></trkpt><trkpt lat="43.9387034" lon="7.4795477"><ele>711.0</ele><time>2026-05-01T11:48:25.882Z</time></trkpt><trkpt lat="43.9386956" lon="7.4793879"><ele>713.0</ele><time>2026-05-01T11:48:26.882Z</time></trkpt><trkpt lat="43.9386837" lon="7.4792425"><ele>715.0</ele><time>2026-05-01T11:48:27.882Z</time></trkpt><trkpt lat="43.9386468" lon="7.4790878"><ele>717.0</ele><time>2026-05-01T11:48:28.882Z</time></trkpt><trkpt lat="43.9386183" lon="7.4789429"><ele>719.0</ele><time>2026-05-01T11:48:29.882Z</time></trkpt><trkpt lat="43.9385815" lon="7.4788231"><ele>721.0</ele><time>2026-05-01T11:48:30.882Z</time></trkpt><trkpt lat="43.9384981" lon="7.4786805"><ele>713.5</ele><time>2026-05-01T11:48:31.883Z</time></trkpt><trkpt lat="43.9383495" lon="7.4786025"><ele>706.0</ele><time>2026-05-01T11:48:32.882Z</time></trkpt><trkpt lat="43.9382438" lon="7.478536"><ele>698.5</ele><time>2026-05-01T11:48:33.882Z</time></trkpt><trkpt lat="43.9381424" lon="7.4784671"><ele>691.0</ele><time>2026-05-01T11:48:34.882Z</time></trkpt><trkpt lat="43.9380161" lon="7.4785061"><ele>691.0</ele><time>2026-05-01T11:48:35.882Z</time></trkpt><trkpt lat="43.9378848" lon="7.4785865"><ele>691.0</ele><time>2026-05-01T11:48:36.882Z</time></trkpt><trkpt lat="43.9377896" lon="7.4787016"><ele>691.0</ele><time>2026-05-01T11:48:37.882Z</time></trkpt><trkpt lat="43.9376778" lon="7.4788255"><ele>691.0</ele><time>2026-05-01T11:48:38.882Z</time></trkpt><trkpt lat="43.9375792" lon="7.4789379"><ele>688.6666666666667</ele><time>2026-05-01T11:48:39.882Z</time></trkpt><trkpt lat="43.9374839" lon="7.4790992"><ele>686.3333333333334</ele><time>2026-05-01T11:48:40.882Z</time></trkpt><trkpt lat="43.9374129" lon="7.4792974"><ele>684.0</ele><time>2026-05-01T11:48:41.882Z</time></trkpt><trkpt lat="43.9373049" lon="7.4794692"><ele>684.0</ele><time>2026-05-01T11:48:42.882Z</time></trkpt><trkpt lat="43.9372216" lon="7.4795983"><ele>684.0</ele><time>2026-05-01T11:48:43.882Z</time></trkpt><trkpt lat="43.9371235" lon="7.4796731"><ele>684.0</ele><time>2026-05-01T11:48:44.882Z</time></trkpt><trkpt lat="43.9370171" lon="7.4797353"><ele>684.0</ele><time>2026-05-01T11:48:45.882Z</time></trkpt><trkpt lat="43.9368769" lon="7.4797188"><ele>689.3333333333334</ele><time>2026-05-01T11:48:46.882Z</time></trkpt><trkpt lat="43.936727" lon="7.479678"><ele>694.6666666666667</ele><time>2026-05-01T11:48:47.882Z</time></trkpt><trkpt lat="43.9365688" lon="7.4795997"><ele>700.0</ele><time>2026-05-01T11:48:48.883Z</time></trkpt><trkpt lat="43.936427" lon="7.4795384"><ele>700.0</ele><time>2026-05-01T11:48:49.882Z</time></trkpt><trkpt lat="43.9362937" lon="7.4794876"><ele>700.0</ele><time>2026-05-01T11:48:50.882Z</time></trkpt><trkpt lat="43.9361601" lon="7.4794558"><ele>700.0</ele><time>2026-05-01T11:48:51.882Z</time></trkpt><trkpt lat="43.9360348" lon="7.4793916"><ele>700.0</ele><time>2026-05-01T11:48:52.882Z</time></trkpt><trkpt lat="43.9359807" lon="7.4793208"><ele>700.0</ele><time>2026-05-01T11:48:53.882Z</time></trkpt><trkpt lat="43.9359315" lon="7.4792153"><ele>700.0</ele><time>2026-05-01T11:48:54.882Z</time></trkpt><trkpt lat="43.9358604" lon="7.4790146"><ele>700.0</ele><time>2026-05-01T11:48:55.882Z</time></trkpt><trkpt lat="43.9357989" lon="7.4788498"><ele>700.0</ele><time>2026-05-01T11:48:56.882Z</time></trkpt><trkpt lat="43.9357392" lon="7.4787086"><ele>704.4</ele><time>2026-05-01T11:48:57.882Z</time></trkpt><trkpt lat="43.9356789" lon="7.4785855"><ele>708.8</ele><time>2026-05-01T11:48:58.882Z</time></trkpt><trkpt lat="43.935615" lon="7.47848"><ele>713.2</ele><time>2026-05-01T11:48:59.882Z</time></trkpt><trkpt lat="43.9355515" lon="7.4784454"><ele>717.6</ele><time>2026-05-01T11:49:00.882Z</time></trkpt><trkpt lat="43.935445" lon="7.4784478"><ele>722.0</ele><time>2026-05-01T11:49:01.882Z</time></trkpt><trkpt lat="43.9353638" lon="7.4784598"><ele>722.0</ele><time>2026-05-01T11:49:02.882Z</time></trkpt><trkpt lat="43.9352849" lon="7.4785093"><ele>722.0</ele><time>2026-05-01T11:49:03.882Z</time></trkpt><trkpt lat="43.9351916" lon="7.4787227"><ele>722.0</ele><time>2026-05-01T11:49:04.882Z</time></trkpt><trkpt lat="43.9351429" lon="7.4789141"><ele>722.0</ele><time>2026-05-01T11:49:05.883Z</time></trkpt><trkpt lat="43.9350593" lon="7.4791113"><ele>718.75</ele><time>2026-05-01T11:49:06.882Z</time></trkpt><trkpt lat="43.9350288" lon="7.4793031"><ele>715.5</ele><time>2026-05-01T11:49:07.882Z</time></trkpt><trkpt lat="43.9350076" lon="7.4794799"><ele>712.25</ele><time>2026-05-01T11:49:08.882Z</time></trkpt><trkpt lat="43.9350049" lon="7.4796417"><ele>709.0</ele><time>2026-05-01T11:49:09.882Z</time></trkpt><trkpt lat="43.9350151" lon="7.4797922"><ele>707.2</ele><time>2026-05-01T11:49:10.882Z</time></trkpt><trkpt lat="43.9350088" lon="7.4799269"><ele>705.4000000000001</ele><time>2026-05-01T11:49:11.882Z</time></trkpt><trkpt lat="43.9349732" lon="7.4800008"><ele>703.6</ele><time>2026-05-01T11:49:12.882Z</time></trkpt><trkpt lat="43.9348789" lon="7.4799928"><ele>701.8</ele><time>2026-05-01T11:49:13.882Z</time></trkpt><trkpt lat="43.9347286" lon="7.4799163"><ele>700.0</ele><time>2026-05-01T11:49:15.882Z</time></trkpt><trkpt lat="43.9345946" lon="7.4797881"><ele>700.0</ele><time>2026-05-01T11:49:16.882Z</time></trkpt><trkpt lat="43.934486" lon="7.4796681"><ele>700.0</ele><time>2026-05-01T11:49:17.882Z</time></trkpt><trkpt lat="43.9344205" lon="7.4795013"><ele>700.0</ele><time>2026-05-01T11:49:18.883Z</time></trkpt><trkpt lat="43.9343663" lon="7.4793157"><ele>700.0</ele><time>2026-05-01T11:49:19.882Z</time></trkpt><trkpt lat="43.9343098" lon="7.4791292"><ele>702.25</ele><time>2026-05-01T11:49:20.882Z</time></trkpt><trkpt lat="43.9342535" lon="7.4789573"><ele>704.5</ele><time>2026-05-01T11:49:21.882Z</time></trkpt><trkpt lat="43.9341793" lon="7.4788027"><ele>706.75</ele><time>2026-05-01T11:49:22.882Z</time></trkpt><trkpt lat="43.934095" lon="7.4786614"><ele>709.0</ele><time>2026-05-01T11:49:23.882Z</time></trkpt><trkpt lat="43.9339905" lon="7.4785537"><ele>714.25</ele><time>2026-05-01T11:49:24.882Z</time></trkpt><trkpt lat="43.933839" lon="7.4784974"><ele>719.5</ele><time>2026-05-01T11:49:25.883Z</time></trkpt><trkpt lat="43.9337096" lon="7.4784148"><ele>724.75</ele><time>2026-05-01T11:49:26.882Z</time></trkpt><trkpt lat="43.9335943" lon="7.4783447"><ele>730.0</ele><time>2026-05-01T11:49:27.882Z</time></trkpt><trkpt lat="43.9334809" lon="7.4782822"><ele>730.0</ele><time>2026-05-01T11:49:28.882Z</time></trkpt><trkpt lat="43.9333751" lon="7.4782494"><ele>730.0</ele><time>2026-05-01T11:49:29.882Z</time></trkpt><trkpt lat="43.9332799" lon="7.4782694"><ele>730.0</ele><time>2026-05-01T11:49:30.882Z</time></trkpt><trkpt lat="43.9331947" lon="7.4782717"><ele>730.0</ele><time>2026-05-01T11:49:31.882Z</time></trkpt><trkpt lat="43.9331184" lon="7.4782661"><ele>730.0</ele><time>2026-05-01T11:49:32.882Z</time></trkpt><trkpt lat="43.9330961" lon="7.4781416"><ele>730.0</ele><time>2026-05-01T11:49:35.882Z</time></trkpt><trkpt lat="43.9332012" lon="7.478107"><ele>730.0</ele><time>2026-05-01T11:49:37.882Z</time></trkpt><trkpt lat="43.9333383" lon="7.4781178"><ele>730.0</ele><time>2026-05-01T11:49:38.882Z</time></trkpt><trkpt lat="43.9334395" lon="7.4781349"><ele>730.0</ele><time>2026-05-01T11:49:39.882Z</time></trkpt><trkpt lat="43.9335512" lon="7.4781368"><ele>730.0</ele><time>2026-05-01T11:49:40.882Z</time></trkpt><trkpt lat="43.9336541" lon="7.4781044"><ele>730.0</ele><time>2026-05-01T11:49:41.882Z</time></trkpt><trkpt lat="43.9336815" lon="7.4779959"><ele>730.0</ele><time>2026-05-01T11:49:43.882Z</time></trkpt><trkpt lat="43.9336141" lon="7.4778523"><ele>730.0</ele><time>2026-05-01T11:49:45.882Z</time></trkpt><trkpt lat="43.9335034" lon="7.4778195"><ele>730.0</ele><time>2026-05-01T11:49:46.882Z</time></trkpt><trkpt lat="43.9333958" lon="7.4777822"><ele>734.0</ele><time>2026-05-01T11:49:47.882Z</time></trkpt><trkpt lat="43.9332894" lon="7.4777514"><ele>738.0</ele><time>2026-05-01T11:49:48.882Z</time></trkpt><trkpt lat="43.9332003" lon="7.4777005"><ele>742.0</ele><time>2026-05-01T11:49:49.882Z</time></trkpt><trkpt lat="43.9330378" lon="7.4778051"><ele>746.0</ele><time>2026-05-01T11:49:50.882Z</time></trkpt><trkpt lat="43.9329056" lon="7.4778339"><ele>746.0</ele><time>2026-05-01T11:49:51.882Z</time></trkpt><trkpt lat="43.9327626" lon="7.4779138"><ele>746.0</ele><time>2026-05-01T11:49:52.882Z</time></trkpt><trkpt lat="43.9325983" lon="7.4780879"><ele>746.0</ele><time>2026-05-01T11:49:53.882Z</time></trkpt><trkpt lat="43.9324686" lon="7.4781892"><ele>744.25</ele><time>2026-05-01T11:49:54.882Z</time></trkpt><trkpt lat="43.9323178" lon="7.47824"><ele>742.5</ele><time>2026-05-01T11:49:55.882Z</time></trkpt><trkpt lat="43.932188" lon="7.4782638"><ele>740.75</ele><time>2026-05-01T11:49:56.882Z</time></trkpt><trkpt lat="43.9320789" lon="7.4782853"><ele>739.0</ele><time>2026-05-01T11:49:57.882Z</time></trkpt><trkpt lat="43.9319922" lon="7.4783087"><ele>739.0</ele><time>2026-05-01T11:49:58.882Z</time></trkpt><trkpt lat="43.9318776" lon="7.4783338"><ele>739.0</ele><time>2026-05-01T11:49:59.882Z</time></trkpt><trkpt lat="43.9317691" lon="7.4783314"><ele>739.0</ele><time>2026-05-01T11:50:00.882Z</time></trkpt><trkpt lat="43.9316705" lon="7.4782898"><ele>739.0</ele><time>2026-05-01T11:50:01.882Z</time></trkpt><trkpt lat="43.9315299" lon="7.4781952"><ele>741.0</ele><time>2026-05-01T11:50:02.882Z</time></trkpt><trkpt lat="43.9314008" lon="7.4781069"><ele>743.0</ele><time>2026-05-01T11:50:03.882Z</time></trkpt><trkpt lat="43.931262" lon="7.4780161"><ele>745.0</ele><time>2026-05-01T11:50:04.882Z</time></trkpt><trkpt lat="43.9311364" lon="7.4779398"><ele>747.0</ele><time>2026-05-01T11:50:05.882Z</time></trkpt><trkpt lat="43.9310204" lon="7.4778673"><ele>752.0</ele><time>2026-05-01T11:50:06.882Z</time></trkpt><trkpt lat="43.9308941" lon="7.4778254"><ele>757.0</ele><time>2026-05-01T11:50:07.882Z</time></trkpt><trkpt lat="43.9307714" lon="7.4777704"><ele>762.0</ele><time>2026-05-01T11:50:08.882Z</time></trkpt><trkpt lat="43.9306541" lon="7.4777242"><ele>767.0</ele><time>2026-05-01T11:50:09.882Z</time></trkpt><trkpt lat="43.9305398" lon="7.4776092"><ele>767.0</ele><time>2026-05-01T11:50:10.882Z</time></trkpt><trkpt lat="43.9304275" lon="7.4774926"><ele>767.0</ele><time>2026-05-01T11:50:11.882Z</time></trkpt><trkpt lat="43.9303251" lon="7.4773874"><ele>767.0</ele><time>2026-05-01T11:50:12.882Z</time></trkpt><trkpt lat="43.9302404" lon="7.4772862"><ele>767.0</ele><time>2026-05-01T11:50:13.882Z</time></trkpt><trkpt lat="43.9301662" lon="7.4771437"><ele>767.0</ele><time>2026-05-01T11:50:14.882Z</time></trkpt><trkpt lat="43.930103" lon="7.4769576"><ele>767.0</ele><time>2026-05-01T11:50:15.882Z</time></trkpt><trkpt lat="43.9300344" lon="7.4767924"><ele>767.0</ele><time>2026-05-01T11:50:16.882Z</time></trkpt><trkpt lat="43.9299596" lon="7.476641"><ele>767.0</ele><time>2026-05-01T11:50:17.883Z</time></trkpt><trkpt lat="43.9298611" lon="7.476456"><ele>767.0</ele><time>2026-05-01T11:50:18.882Z</time></trkpt><trkpt lat="43.9297489" lon="7.4762844"><ele>767.0</ele><time>2026-05-01T11:50:19.882Z</time></trkpt><trkpt lat="43.9296236" lon="7.4761293"><ele>767.0</ele><time>2026-05-01T11:50:20.882Z</time></trkpt><trkpt lat="43.9294865" lon="7.4759829"><ele>767.0</ele><time>2026-05-01T11:50:21.882Z</time></trkpt><trkpt lat="43.9293659" lon="7.4758287"><ele>767.0</ele><time>2026-05-01T11:50:22.882Z</time></trkpt><trkpt lat="43.9292452" lon="7.4756635"><ele>767.0</ele><time>2026-05-01T11:50:23.882Z</time></trkpt><trkpt lat="43.9291366" lon="7.4754998"><ele>773.25</ele><time>2026-05-01T11:50:24.882Z</time></trkpt><trkpt lat="43.9290259" lon="7.4753331"><ele>779.5</ele><time>2026-05-01T11:50:25.883Z</time></trkpt><trkpt lat="43.9289387" lon="7.4751944"><ele>785.75</ele><time>2026-05-01T11:50:26.882Z</time></trkpt><trkpt lat="43.9288593" lon="7.4750774"><ele>792.0</ele><time>2026-05-01T11:50:27.882Z</time></trkpt><trkpt lat="43.9287825" lon="7.4749634"><ele>792.0</ele><time>2026-05-01T11:50:28.882Z</time></trkpt><trkpt lat="43.9286753" lon="7.4748803"><ele>792.0</ele><time>2026-05-01T11:50:29.883Z</time></trkpt><trkpt lat="43.9285372" lon="7.4749269"><ele>792.0</ele><time>2026-05-01T11:50:30.882Z</time></trkpt><trkpt lat="43.9284082" lon="7.4749364"><ele>792.0</ele><time>2026-05-01T11:50:31.882Z</time></trkpt><trkpt lat="43.9282765" lon="7.474943"><ele>788.6666666666667</ele><time>2026-05-01T11:50:32.883Z</time></trkpt><trkpt lat="43.9281174" lon="7.4749425"><ele>785.3333333333334</ele><time>2026-05-01T11:50:33.879Z</time></trkpt><trkpt lat="43.9279737" lon="7.4748773"><ele>782.0</ele><time>2026-05-01T11:50:34.881Z</time></trkpt><trkpt lat="43.9278249" lon="7.4748484"><ele>782.0</ele><time>2026-05-01T11:50:35.881Z</time></trkpt><trkpt lat="43.9276668" lon="7.4748448"><ele>782.0</ele><time>2026-05-01T11:50:36.881Z</time></trkpt><trkpt lat="43.9274963" lon="7.4748893"><ele>782.0</ele><time>2026-05-01T11:50:37.881Z</time></trkpt><trkpt lat="43.9273294" lon="7.4748952"><ele>785.0</ele><time>2026-05-01T11:50:38.881Z</time></trkpt><trkpt lat="43.9271619" lon="7.4748901"><ele>788.0</ele><time>2026-05-01T11:50:39.881Z</time></trkpt><trkpt lat="43.9270144" lon="7.4748861"><ele>791.0</ele><time>2026-05-01T11:50:40.881Z</time></trkpt><trkpt lat="43.9268667" lon="7.4749116"><ele>794.6666666666667</ele><time>2026-05-01T11:50:41.881Z</time></trkpt><trkpt lat="43.926719" lon="7.4749763"><ele>798.3333333333333</ele><time>2026-05-01T11:50:42.881Z</time></trkpt><trkpt lat="43.9265681" lon="7.4750154"><ele>802.0</ele><time>2026-05-01T11:50:43.881Z</time></trkpt><trkpt lat="43.9264234" lon="7.4750497"><ele>802.0</ele><time>2026-05-01T11:50:44.881Z</time></trkpt><trkpt lat="43.9263213" lon="7.4751432"><ele>802.0</ele><time>2026-05-01T11:50:45.881Z</time></trkpt><trkpt lat="43.9262006" lon="7.4752768"><ele>802.0</ele><time>2026-05-01T11:50:46.881Z</time></trkpt><trkpt lat="43.9261033" lon="7.4753895"><ele>802.0</ele><time>2026-05-01T11:50:47.881Z</time></trkpt><trkpt lat="43.9260264" lon="7.4754703"><ele>801.9999999999999</ele><time>2026-05-01T11:50:48.881Z</time></trkpt><trkpt lat="43.9259784" lon="7.4755437"><ele>802.0</ele><time>2026-05-01T11:50:49.881Z</time></trkpt><trkpt lat="43.9258939" lon="7.4756223"><ele>802.0</ele><time>2026-05-01T11:50:51.881Z</time></trkpt><trkpt lat="43.9258447" lon="7.4755361"><ele>802.0</ele><time>2026-05-01T11:50:53.881Z</time></trkpt><trkpt lat="43.9258319" lon="7.4754198"><ele>801.9999999999999</ele><time>2026-05-01T11:50:55.881Z</time></trkpt><trkpt lat="43.9258809" lon="7.4753127"><ele>802.0</ele><time>2026-05-01T11:50:56.881Z</time></trkpt><trkpt lat="43.9259217" lon="7.475217"><ele>802.0</ele><time>2026-05-01T11:50:57.881Z</time></trkpt><trkpt lat="43.9260041" lon="7.4750876"><ele>802.0</ele><time>2026-05-01T11:50:58.881Z</time></trkpt><trkpt lat="43.9261426" lon="7.4749657"><ele>802.0</ele><time>2026-05-01T11:50:59.881Z</time></trkpt><trkpt lat="43.9262778" lon="7.4748512"><ele>802.0</ele><time>2026-05-01T11:51:00.881Z</time></trkpt><trkpt lat="43.9263778" lon="7.4747314"><ele>808.6666666666666</ele><time>2026-05-01T11:51:01.881Z</time></trkpt><trkpt lat="43.9264863" lon="7.4746015"><ele>815.3333333333333</ele><time>2026-05-01T11:51:02.882Z</time></trkpt><trkpt lat="43.926646" lon="7.4744801"><ele>822.0</ele><time>2026-05-01T11:51:03.881Z</time></trkpt><trkpt lat="43.9267747" lon="7.4743859"><ele>822.0</ele><time>2026-05-01T11:51:04.881Z</time></trkpt><trkpt lat="43.9269262" lon="7.4743079"><ele>822.0</ele><time>2026-05-01T11:51:05.881Z</time></trkpt><trkpt lat="43.9270827" lon="7.4742571"><ele>822.0</ele><time>2026-05-01T11:51:06.881Z</time></trkpt><trkpt lat="43.9272505" lon="7.4742151"><ele>822.0</ele><time>2026-05-01T11:51:07.881Z</time></trkpt><trkpt lat="43.9274241" lon="7.474153"><ele>822.0</ele><time>2026-05-01T11:51:08.881Z</time></trkpt><trkpt lat="43.927574" lon="7.4741331"><ele>822.0</ele><time>2026-05-01T11:51:09.881Z</time></trkpt><trkpt lat="43.9276582" lon="7.4741389"><ele>822.0</ele><time>2026-05-01T11:51:10.881Z</time></trkpt><trkpt lat="43.9277845" lon="7.4741244"><ele>820.2</ele><time>2026-05-01T11:51:11.881Z</time></trkpt><trkpt lat="43.9278924" lon="7.4741158"><ele>818.4000000000001</ele><time>2026-05-01T11:51:12.881Z</time></trkpt><trkpt lat="43.9279721" lon="7.4741119"><ele>816.5999999999999</ele><time>2026-05-01T11:51:13.881Z</time></trkpt><trkpt lat="43.9280586" lon="7.4740893"><ele>814.8</ele><time>2026-05-01T11:51:14.881Z</time></trkpt><trkpt lat="43.9280974" lon="7.4739502"><ele>813.0</ele><time>2026-05-01T11:51:16.881Z</time></trkpt><trkpt lat="43.9280451" lon="7.4738153"><ele>813.0</ele><time>2026-05-01T11:51:18.881Z</time></trkpt><trkpt lat="43.927939" lon="7.4738546"><ele>813.0</ele><time>2026-05-01T11:51:19.881Z</time></trkpt><trkpt lat="43.927839" lon="7.473843"><ele>813.0</ele><time>2026-05-01T11:51:20.881Z</time></trkpt><trkpt lat="43.9277222" lon="7.4738446"><ele>813.0</ele><time>2026-05-01T11:51:21.881Z</time></trkpt><trkpt lat="43.9275616" lon="7.473821"><ele>815.25</ele><time>2026-05-01T11:51:22.881Z</time></trkpt><trkpt lat="43.9274244" lon="7.4737841"><ele>817.5</ele><time>2026-05-01T11:51:23.881Z</time></trkpt><trkpt lat="43.9273066" lon="7.4736887"><ele>819.75</ele><time>2026-05-01T11:51:24.881Z</time></trkpt><trkpt lat="43.9271808" lon="7.4736097"><ele>822.0</ele><time>2026-05-01T11:51:25.881Z</time></trkpt><trkpt lat="43.9270262" lon="7.4736418"><ele>835.0</ele><time>2026-05-01T11:51:26.881Z</time></trkpt><trkpt lat="43.9268715" lon="7.4736556"><ele>848.0</ele><time>2026-05-01T11:51:27.881Z</time></trkpt><trkpt lat="43.9267351" lon="7.4736477"><ele>861.0</ele><time>2026-05-01T11:51:28.881Z</time></trkpt><trkpt lat="43.9265584" lon="7.4736976"><ele>868.5</ele><time>2026-05-01T11:51:29.881Z</time></trkpt><trkpt lat="43.9264151" lon="7.4737064"><ele>876.0</ele><time>2026-05-01T11:51:30.881Z</time></trkpt><trkpt lat="43.9262597" lon="7.4737285"><ele>883.5</ele><time>2026-05-01T11:51:31.881Z</time></trkpt><trkpt lat="43.9261133" lon="7.4737485"><ele>891.0</ele><time>2026-05-01T11:51:32.881Z</time></trkpt><trkpt lat="43.9259595" lon="7.473727"><ele>893.0</ele><time>2026-05-01T11:51:33.881Z</time></trkpt><trkpt lat="43.9258267" lon="7.4737276"><ele>895.0</ele><time>2026-05-01T11:51:34.881Z</time></trkpt><trkpt lat="43.9256819" lon="7.4737345"><ele>897.0</ele><time>2026-05-01T11:51:35.881Z</time></trkpt><trkpt lat="43.9255942" lon="7.4737767"><ele>899.0</ele><time>2026-05-01T11:51:36.881Z</time></trkpt><trkpt lat="43.9254806" lon="7.4738674"><ele>884.3333333333334</ele><time>2026-05-01T11:51:37.881Z</time></trkpt><trkpt lat="43.9254004" lon="7.4739516"><ele>869.6666666666667</ele><time>2026-05-01T11:51:38.881Z</time></trkpt><trkpt lat="43.9253129" lon="7.4741873"><ele>855.0</ele><time>2026-05-01T11:51:39.881Z</time></trkpt><trkpt lat="43.9252208" lon="7.4744042"><ele>855.0</ele><time>2026-05-01T11:51:40.881Z</time></trkpt><trkpt lat="43.9251338" lon="7.4745905"><ele>855.0</ele><time>2026-05-01T11:51:41.881Z</time></trkpt><trkpt lat="43.9250458" lon="7.4748021"><ele>855.0</ele><time>2026-05-01T11:51:42.881Z</time></trkpt><trkpt lat="43.9249658" lon="7.4750106"><ele>858.6666666666667</ele><time>2026-05-01T11:51:43.881Z</time></trkpt><trkpt lat="43.9249095" lon="7.4752371"><ele>862.3333333333334</ele><time>2026-05-01T11:51:44.881Z</time></trkpt><trkpt lat="43.9248364" lon="7.4754486"><ele>866.0</ele><time>2026-05-01T11:51:45.881Z</time></trkpt><trkpt lat="43.9247796" lon="7.4756372"><ele>866.0</ele><time>2026-05-01T11:51:46.881Z</time></trkpt><trkpt lat="43.9247062" lon="7.4758283"><ele>866.0</ele><time>2026-05-01T11:51:47.881Z</time></trkpt><trkpt lat="43.9246621" lon="7.4760007"><ele>866.0</ele><time>2026-05-01T11:51:48.881Z</time></trkpt><trkpt lat="43.9245996" lon="7.47613"><ele>866.0</ele><time>2026-05-01T11:51:49.881Z</time></trkpt><trkpt lat="43.9245523" lon="7.4762544"><ele>864.3333333333334</ele><time>2026-05-01T11:51:50.881Z</time></trkpt><trkpt lat="43.9245277" lon="7.4763523"><ele>862.6666666666667</ele><time>2026-05-01T11:51:51.881Z</time></trkpt><trkpt lat="43.9244918" lon="7.4764384"><ele>861.0</ele><time>2026-05-01T11:51:52.881Z</time></trkpt><trkpt lat="43.924424" lon="7.4764867"><ele>859.3333333333333</ele><time>2026-05-01T11:51:53.881Z</time></trkpt><trkpt lat="43.9243448" lon="7.4765339"><ele>857.6666666666666</ele><time>2026-05-01T11:51:54.881Z</time></trkpt><trkpt lat="43.9242802" lon="7.4764761"><ele>856.0</ele><time>2026-05-01T11:51:55.881Z</time></trkpt><trkpt lat="43.9242081" lon="7.4763743"><ele>862.5</ele><time>2026-05-01T11:51:56.881Z</time></trkpt><trkpt lat="43.9241483" lon="7.4762302"><ele>869.0</ele><time>2026-05-01T11:51:57.881Z</time></trkpt><trkpt lat="43.9240866" lon="7.4760814"><ele>875.5</ele><time>2026-05-01T11:51:58.881Z</time></trkpt><trkpt lat="43.92402" lon="7.4759489"><ele>882.0</ele><time>2026-05-01T11:51:59.881Z</time></trkpt><trkpt lat="43.9239522" lon="7.475842"><ele>882.0</ele><time>2026-05-01T11:52:00.881Z</time></trkpt><trkpt lat="43.9238902" lon="7.4757255"><ele>882.0</ele><time>2026-05-01T11:52:01.881Z</time></trkpt><trkpt lat="43.9238219" lon="7.475612"><ele>882.0</ele><time>2026-05-01T11:52:02.882Z</time></trkpt><trkpt lat="43.9237685" lon="7.4755216"><ele>882.0</ele><time>2026-05-01T11:52:03.882Z</time></trkpt><trkpt lat="43.9237081" lon="7.4754326"><ele>882.0</ele><time>2026-05-01T11:52:04.881Z</time></trkpt><trkpt lat="43.9236455" lon="7.4753252"><ele>880.5</ele><time>2026-05-01T11:52:05.881Z</time></trkpt><trkpt lat="43.9235719" lon="7.4752207"><ele>879.0</ele><time>2026-05-01T11:52:06.881Z</time></trkpt><trkpt lat="43.9234996" lon="7.4750985"><ele>877.5</ele><time>2026-05-01T11:52:07.881Z</time></trkpt><trkpt lat="43.9234169" lon="7.4749754"><ele>876.0</ele><time>2026-05-01T11:52:08.881Z</time></trkpt><trkpt lat="43.9233449" lon="7.4748434"><ele>876.0</ele><time>2026-05-01T11:52:09.881Z</time></trkpt><trkpt lat="43.9232742" lon="7.4747338"><ele>875.9999999999999</ele><time>2026-05-01T11:52:10.881Z</time></trkpt><trkpt lat="43.9232052" lon="7.4746199"><ele>875.9999999999999</ele><time>2026-05-01T11:52:11.881Z</time></trkpt><trkpt lat="43.9231294" lon="7.4745263"><ele>876.0</ele><time>2026-05-01T11:52:12.881Z</time></trkpt><trkpt lat="43.9230489" lon="7.4744502"><ele>876.0</ele><time>2026-05-01T11:52:13.881Z</time></trkpt><trkpt lat="43.9229697" lon="7.4743946"><ele>878.3333333333334</ele><time>2026-05-01T11:52:14.881Z</time></trkpt><trkpt lat="43.9228866" lon="7.4743517"><ele>880.6666666666667</ele><time>2026-05-01T11:52:15.881Z</time></trkpt><trkpt lat="43.9228084" lon="7.4743197"><ele>883.0</ele><time>2026-05-01T11:52:16.881Z</time></trkpt><trkpt lat="43.9227419" lon="7.4743761"><ele>885.3333333333334</ele><time>2026-05-01T11:52:18.881Z</time></trkpt><trkpt lat="43.9227167" lon="7.4744607"><ele>887.6666666666667</ele><time>2026-05-01T11:52:19.881Z</time></trkpt><trkpt lat="43.9227328" lon="7.4745792"><ele>890.0</ele><time>2026-05-01T11:52:21.881Z</time></trkpt><trkpt lat="43.9228707" lon="7.4746009"><ele>886.5</ele><time>2026-05-01T11:52:22.881Z</time></trkpt><trkpt lat="43.9229516" lon="7.4746441"><ele>883.0</ele><time>2026-05-01T11:52:23.881Z</time></trkpt><trkpt lat="43.9230433" lon="7.4747526"><ele>879.5</ele><time>2026-05-01T11:52:24.881Z</time></trkpt><trkpt lat="43.9231351" lon="7.4748779"><ele>876.0</ele><time>2026-05-01T11:52:25.881Z</time></trkpt><trkpt lat="43.9232175" lon="7.4750268"><ele>876.0</ele><time>2026-05-01T11:52:26.881Z</time></trkpt><trkpt lat="43.9232964" lon="7.47518"><ele>876.0</ele><time>2026-05-01T11:52:27.881Z</time></trkpt><trkpt lat="43.9233747" lon="7.4753243"><ele>876.0</ele><time>2026-05-01T11:52:28.881Z</time></trkpt><trkpt lat="43.9234469" lon="7.4754671"><ele>876.0</ele><time>2026-05-01T11:52:29.881Z</time></trkpt><trkpt lat="43.9235162" lon="7.4756055"><ele>877.0</ele><time>2026-05-01T11:52:30.881Z</time></trkpt><trkpt lat="43.9235598" lon="7.4757442"><ele>877.9999999999999</ele><time>2026-05-01T11:52:31.881Z</time></trkpt><trkpt lat="43.9235912" lon="7.4758868"><ele>878.9999999999999</ele><time>2026-05-01T11:52:32.881Z</time></trkpt><trkpt lat="43.9236215" lon="7.4760266"><ele>880.0</ele><time>2026-05-01T11:52:33.881Z</time></trkpt><trkpt lat="43.9236413" lon="7.4761937"><ele>881.0</ele><time>2026-05-01T11:52:34.881Z</time></trkpt><trkpt lat="43.9236046" lon="7.4762959"><ele>881.0</ele><time>2026-05-01T11:52:35.882Z</time></trkpt><trkpt lat="43.9235734" lon="7.476403"><ele>880.9999999999999</ele><time>2026-05-01T11:52:36.881Z</time></trkpt><trkpt lat="43.9234662" lon="7.4764954"><ele>880.9999999999999</ele><time>2026-05-01T11:52:37.881Z</time></trkpt><trkpt lat="43.9233607" lon="7.4765707"><ele>881.0</ele><time>2026-05-01T11:52:38.881Z</time></trkpt><trkpt lat="43.9232652" lon="7.476642"><ele>881.0</ele><time>2026-05-01T11:52:39.881Z</time></trkpt><trkpt lat="43.92315" lon="7.4766848"><ele>878.0</ele><time>2026-05-01T11:52:40.881Z</time></trkpt><trkpt lat="43.923023" lon="7.4766805"><ele>875.0</ele><time>2026-05-01T11:52:41.881Z</time></trkpt><trkpt lat="43.9229097" lon="7.4766407"><ele>872.0</ele><time>2026-05-01T11:52:42.881Z</time></trkpt><trkpt lat="43.9227964" lon="7.4765928"><ele>869.0</ele><time>2026-05-01T11:52:43.881Z</time></trkpt><trkpt lat="43.9227172" lon="7.4764956"><ele>869.0</ele><time>2026-05-01T11:52:44.881Z</time></trkpt><trkpt lat="43.9226672" lon="7.476372"><ele>869.0000000000001</ele><time>2026-05-01T11:52:45.881Z</time></trkpt><trkpt lat="43.9226593" lon="7.4762324"><ele>869.0000000000001</ele><time>2026-05-01T11:52:46.881Z</time></trkpt><trkpt lat="43.9226605" lon="7.4760905"><ele>869.0</ele><time>2026-05-01T11:52:47.881Z</time></trkpt><trkpt lat="43.9226479" lon="7.47596"><ele>869.0</ele><time>2026-05-01T11:52:48.881Z</time></trkpt><trkpt lat="43.9226393" lon="7.4758238"><ele>868.6</ele><time>2026-05-01T11:52:49.881Z</time></trkpt><trkpt lat="43.9225864" lon="7.4757143"><ele>868.2</ele><time>2026-05-01T11:52:51.881Z</time></trkpt><trkpt lat="43.9224812" lon="7.4757055"><ele>867.8000000000001</ele><time>2026-05-01T11:52:53.881Z</time></trkpt><trkpt lat="43.922426" lon="7.4758934"><ele>867.4000000000001</ele><time>2026-05-01T11:52:55.881Z</time></trkpt><trkpt lat="43.9224209" lon="7.4760135"><ele>867.0</ele><time>2026-05-01T11:52:56.881Z</time></trkpt><trkpt lat="43.9224006" lon="7.4761579"><ele>864.5</ele><time>2026-05-01T11:52:57.881Z</time></trkpt><trkpt lat="43.9223864" lon="7.4762862"><ele>862.0</ele><time>2026-05-01T11:52:58.881Z</time></trkpt><trkpt lat="43.9223857" lon="7.4763908"><ele>859.5</ele><time>2026-05-01T11:52:59.881Z</time></trkpt><trkpt lat="43.9223436" lon="7.4764972"><ele>857.0</ele><time>2026-05-01T11:53:01.881Z</time></trkpt><trkpt lat="43.9222804" lon="7.4764856"><ele>854.5</ele><time>2026-05-01T11:53:02.881Z</time></trkpt><trkpt lat="43.9222352" lon="7.4764142"><ele>852.0</ele><time>2026-05-01T11:53:03.881Z</time></trkpt><trkpt lat="43.922226" lon="7.4761937"><ele>851.5</ele><time>2026-05-01T11:53:05.881Z</time></trkpt><trkpt lat="43.9222115" lon="7.4760543"><ele>851.0</ele><time>2026-05-01T11:53:06.881Z</time></trkpt><trkpt lat="43.9222151" lon="7.4758876"><ele>850.5</ele><time>2026-05-01T11:53:07.881Z</time></trkpt><trkpt lat="43.9222056" lon="7.4757194"><ele>850.0</ele><time>2026-05-01T11:53:08.881Z</time></trkpt><trkpt lat="43.9221742" lon="7.4755458"><ele>851.25</ele><time>2026-05-01T11:53:09.881Z</time></trkpt><trkpt lat="43.9221558" lon="7.4753863"><ele>852.5</ele><time>2026-05-01T11:53:10.881Z</time></trkpt><trkpt lat="43.9221061" lon="7.4752634"><ele>853.75</ele><time>2026-05-01T11:53:11.881Z</time></trkpt><trkpt lat="43.9220189" lon="7.4751269"><ele>855.0</ele><time>2026-05-01T11:53:12.881Z</time></trkpt><trkpt lat="43.9219016" lon="7.4750095"><ele>855.0</ele><time>2026-05-01T11:53:13.881Z</time></trkpt><trkpt lat="43.9218082" lon="7.4748897"><ele>855.0</ele><time>2026-05-01T11:53:14.882Z</time></trkpt><trkpt lat="43.9217291" lon="7.4747834"><ele>855.0</ele><time>2026-05-01T11:53:15.881Z</time></trkpt><trkpt lat="43.9216499" lon="7.4746773"><ele>855.0</ele><time>2026-05-01T11:53:16.881Z</time></trkpt><trkpt lat="43.9216109" lon="7.474516"><ele>850.0</ele><time>2026-05-01T11:53:17.881Z</time></trkpt><trkpt lat="43.9215853" lon="7.4743497"><ele>845.0</ele><time>2026-05-01T11:53:18.881Z</time></trkpt><trkpt lat="43.9215749" lon="7.4742007"><ele>840.0</ele><time>2026-05-01T11:53:19.881Z</time></trkpt><trkpt lat="43.9216065" lon="7.4740318"><ele>835.0</ele><time>2026-05-01T11:53:20.881Z</time></trkpt><trkpt lat="43.9216643" lon="7.4738799"><ele>833.5</ele><time>2026-05-01T11:53:21.881Z</time></trkpt><trkpt lat="43.9217181" lon="7.4737207"><ele>832.0</ele><time>2026-05-01T11:53:22.881Z</time></trkpt><trkpt lat="43.9217608" lon="7.4735609"><ele>830.5</ele><time>2026-05-01T11:53:23.881Z</time></trkpt><trkpt lat="43.9217877" lon="7.4734029"><ele>829.0</ele><time>2026-05-01T11:53:24.881Z</time></trkpt><trkpt lat="43.9218173" lon="7.4732532"><ele>831.0</ele><time>2026-05-01T11:53:25.881Z</time></trkpt><trkpt lat="43.9217944" lon="7.4730894"><ele>833.0</ele><time>2026-05-01T11:53:26.881Z</time></trkpt><trkpt lat="43.9217547" lon="7.4729122"><ele>835.0</ele><time>2026-05-01T11:53:27.881Z</time></trkpt><trkpt lat="43.9217102" lon="7.4727409"><ele>837.0</ele><time>2026-05-01T11:53:28.881Z</time></trkpt><trkpt lat="43.9216094" lon="7.472583"><ele>837.0</ele><time>2026-05-01T11:53:29.881Z</time></trkpt><trkpt lat="43.9215199" lon="7.4724203"><ele>837.0</ele><time>2026-05-01T11:53:30.881Z</time></trkpt><trkpt lat="43.9214461" lon="7.4722654"><ele>837.0</ele><time>2026-05-01T11:53:31.881Z</time></trkpt><trkpt lat="43.9213695" lon="7.4721085"><ele>837.0</ele><time>2026-05-01T11:53:32.881Z</time></trkpt><trkpt lat="43.9213078" lon="7.4719991"><ele>839.2</ele><time>2026-05-01T11:53:33.881Z</time></trkpt><trkpt lat="43.9212367" lon="7.471913"><ele>841.4000000000001</ele><time>2026-05-01T11:53:34.881Z</time></trkpt><trkpt lat="43.9211669" lon="7.4718624"><ele>843.5999999999999</ele><time>2026-05-01T11:53:35.881Z</time></trkpt><trkpt lat="43.9210964" lon="7.4718121"><ele>845.8</ele><time>2026-05-01T11:53:36.881Z</time></trkpt><trkpt lat="43.9210156" lon="7.4719068"><ele>848.0</ele><time>2026-05-01T11:53:37.881Z</time></trkpt><trkpt lat="43.9209431" lon="7.4719929"><ele>849.2</ele><time>2026-05-01T11:53:38.882Z</time></trkpt><trkpt lat="43.9208882" lon="7.4721061"><ele>850.4</ele><time>2026-05-01T11:53:39.881Z</time></trkpt><trkpt lat="43.92088" lon="7.4722638"><ele>851.6000000000001</ele><time>2026-05-01T11:53:40.881Z</time></trkpt><trkpt lat="43.9208645" lon="7.4724039"><ele>852.8000000000001</ele><time>2026-05-01T11:53:41.881Z</time></trkpt><trkpt lat="43.9208984" lon="7.4725737"><ele>854.0</ele><time>2026-05-01T11:53:42.881Z</time></trkpt><trkpt lat="43.9208832" lon="7.4727281"><ele>848.75</ele><time>2026-05-01T11:53:43.881Z</time></trkpt><trkpt lat="43.9208611" lon="7.4728821"><ele>843.5</ele><time>2026-05-01T11:53:44.881Z</time></trkpt><trkpt lat="43.9208395" lon="7.4730269"><ele>838.25</ele><time>2026-05-01T11:53:45.881Z</time></trkpt><trkpt lat="43.9207219" lon="7.4731889"><ele>833.0</ele><time>2026-05-01T11:53:46.881Z</time></trkpt><trkpt lat="43.9206177" lon="7.4733199"><ele>828.5</ele><time>2026-05-01T11:53:47.881Z</time></trkpt><trkpt lat="43.9205066" lon="7.4734524"><ele>824.0</ele><time>2026-05-01T11:53:48.881Z</time></trkpt><trkpt lat="43.9203971" lon="7.473578"><ele>819.5</ele><time>2026-05-01T11:53:49.881Z</time></trkpt><trkpt lat="43.920285" lon="7.4737097"><ele>815.0</ele><time>2026-05-01T11:53:50.881Z</time></trkpt><trkpt lat="43.9201814" lon="7.4738284"><ele>812.3333333333334</ele><time>2026-05-01T11:53:51.881Z</time></trkpt><trkpt lat="43.9199989" lon="7.4739816"><ele>809.6666666666667</ele><time>2026-05-01T11:53:52.882Z</time></trkpt><trkpt lat="43.9198667" lon="7.4741227"><ele>807.0</ele><time>2026-05-01T11:53:53.881Z</time></trkpt><trkpt lat="43.9197526" lon="7.4742553"><ele>807.0</ele><time>2026-05-01T11:53:54.881Z</time></trkpt><trkpt lat="43.9196467" lon="7.4744018"><ele>807.0</ele><time>2026-05-01T11:53:55.881Z</time></trkpt><trkpt lat="43.9195219" lon="7.474539"><ele>807.0</ele><time>2026-05-01T11:53:56.881Z</time></trkpt><trkpt lat="43.9193732" lon="7.4746485"><ele>801.0</ele><time>2026-05-01T11:53:57.881Z</time></trkpt><trkpt lat="43.9192241" lon="7.4747703"><ele>795.0</ele><time>2026-05-01T11:53:58.881Z</time></trkpt><trkpt lat="43.9190805" lon="7.4748758"><ele>789.0</ele><time>2026-05-01T11:53:59.881Z</time></trkpt><trkpt lat="43.918953" lon="7.4749811"><ele>789.0</ele><time>2026-05-01T11:54:00.881Z</time></trkpt><trkpt lat="43.9188326" lon="7.4750412"><ele>789.0</ele><time>2026-05-01T11:54:01.881Z</time></trkpt><trkpt lat="43.9187191" lon="7.4750951"><ele>789.0</ele><time>2026-05-01T11:54:02.881Z</time></trkpt><trkpt lat="43.9185559" lon="7.4751881"><ele>789.0</ele><time>2026-05-01T11:54:03.881Z</time></trkpt><trkpt lat="43.9183442" lon="7.4752815"><ele>793.6666666666667</ele><time>2026-05-01T11:54:04.881Z</time></trkpt><trkpt lat="43.9181795" lon="7.4753665"><ele>798.3333333333334</ele><time>2026-05-01T11:54:05.881Z</time></trkpt><trkpt lat="43.918031" lon="7.4754735"><ele>803.0</ele><time>2026-05-01T11:54:06.881Z</time></trkpt><trkpt lat="43.9178884" lon="7.4756006"><ele>797.0</ele><time>2026-05-01T11:54:07.881Z</time></trkpt><trkpt lat="43.9177448" lon="7.4757616"><ele>791.0</ele><time>2026-05-01T11:54:08.881Z</time></trkpt><trkpt lat="43.9176122" lon="7.4758716"><ele>785.0</ele><time>2026-05-01T11:54:09.881Z</time></trkpt><trkpt lat="43.9174766" lon="7.4759762"><ele>785.0</ele><time>2026-05-01T11:54:10.881Z</time></trkpt><trkpt lat="43.9173266" lon="7.4760632"><ele>785.0</ele><time>2026-05-01T11:54:11.881Z</time></trkpt><trkpt lat="43.9171685" lon="7.4761256"><ele>785.0</ele><time>2026-05-01T11:54:12.881Z</time></trkpt><trkpt lat="43.9170047" lon="7.4761893"><ele>785.0</ele><time>2026-05-01T11:54:13.882Z</time></trkpt><trkpt lat="43.9168441" lon="7.4762599"><ele>785.0</ele><time>2026-05-01T11:54:14.881Z</time></trkpt><trkpt lat="43.9166896" lon="7.4763032"><ele>785.0</ele><time>2026-05-01T11:54:15.881Z</time></trkpt><trkpt lat="43.9165238" lon="7.4763461"><ele>775.6666666666667</ele><time>2026-05-01T11:54:16.881Z</time></trkpt><trkpt lat="43.9163579" lon="7.4763839"><ele>766.3333333333334</ele><time>2026-05-01T11:54:17.881Z</time></trkpt><trkpt lat="43.9161983" lon="7.4764188"><ele>757.0</ele><time>2026-05-01T11:54:18.881Z</time></trkpt><trkpt lat="43.9160116" lon="7.4764481"><ele>760.25</ele><time>2026-05-01T11:54:19.881Z</time></trkpt><trkpt lat="43.9158572" lon="7.476488"><ele>763.5</ele><time>2026-05-01T11:54:20.881Z</time></trkpt><trkpt lat="43.9157373" lon="7.4765186"><ele>766.75</ele><time>2026-05-01T11:54:21.881Z</time></trkpt><trkpt lat="43.9156119" lon="7.4765837"><ele>770.0</ele><time>2026-05-01T11:54:22.881Z</time></trkpt><trkpt lat="43.9154836" lon="7.4767029"><ele>770.0</ele><time>2026-05-01T11:54:23.881Z</time></trkpt><trkpt lat="43.9153819" lon="7.4768673"><ele>770.0</ele><time>2026-05-01T11:54:24.881Z</time></trkpt><trkpt lat="43.9152849" lon="7.477035"><ele>770.0</ele><time>2026-05-01T11:54:25.881Z</time></trkpt><trkpt lat="43.9152043" lon="7.4772507"><ele>773.3333333333334</ele><time>2026-05-01T11:54:26.881Z</time></trkpt><trkpt lat="43.9151235" lon="7.477421"><ele>776.6666666666667</ele><time>2026-05-01T11:54:27.881Z</time></trkpt><trkpt lat="43.9150164" lon="7.4775691"><ele>780.0</ele><time>2026-05-01T11:54:28.881Z</time></trkpt><trkpt lat="43.9149487" lon="7.4777681"><ele>770.3333333333334</ele><time>2026-05-01T11:54:29.881Z</time></trkpt><trkpt lat="43.9148836" lon="7.4779625"><ele>760.6666666666667</ele><time>2026-05-01T11:54:30.882Z</time></trkpt><trkpt lat="43.9148161" lon="7.47817"><ele>751.0</ele><time>2026-05-01T11:54:31.881Z</time></trkpt><trkpt lat="43.9147455" lon="7.4783917"><ele>751.0</ele><time>2026-05-01T11:54:32.881Z</time></trkpt><trkpt lat="43.9146349" lon="7.478568"><ele>751.0</ele><time>2026-05-01T11:54:33.881Z</time></trkpt><trkpt lat="43.914519" lon="7.4787653"><ele>751.0</ele><time>2026-05-01T11:54:34.881Z</time></trkpt><trkpt lat="43.9144068" lon="7.4789517"><ele>745.3333333333334</ele><time>2026-05-01T11:54:35.882Z</time></trkpt><trkpt lat="43.9142946" lon="7.4791499"><ele>739.6666666666666</ele><time>2026-05-01T11:54:36.881Z</time></trkpt><trkpt lat="43.9141966" lon="7.4793567"><ele>734.0</ele><time>2026-05-01T11:54:37.881Z</time></trkpt><trkpt lat="43.9141297" lon="7.4795851"><ele>743.3333333333333</ele><time>2026-05-01T11:54:38.881Z</time></trkpt><trkpt lat="43.9140614" lon="7.4798115"><ele>752.6666666666666</ele><time>2026-05-01T11:54:39.881Z</time></trkpt><trkpt lat="43.9140123" lon="7.4800321"><ele>762.0</ele><time>2026-05-01T11:54:40.881Z</time></trkpt><trkpt lat="43.9139584" lon="7.4802653"><ele>758.3333333333334</ele><time>2026-05-01T11:54:41.881Z</time></trkpt><trkpt lat="43.9139086" lon="7.4804862"><ele>754.6666666666667</ele><time>2026-05-01T11:54:42.881Z</time></trkpt><trkpt lat="43.9138781" lon="7.480714"><ele>751.0</ele><time>2026-05-01T11:54:43.881Z</time></trkpt><trkpt lat="43.9138489" lon="7.4809415"><ele>751.0</ele><time>2026-05-01T11:54:44.881Z</time></trkpt><trkpt lat="43.9138268" lon="7.4811729"><ele>751.0</ele><time>2026-05-01T11:54:45.881Z</time></trkpt><trkpt lat="43.9138165" lon="7.4814073"><ele>751.0</ele><time>2026-05-01T11:54:46.881Z</time></trkpt><trkpt lat="43.9138425" lon="7.4816007"><ele>751.25</ele><time>2026-05-01T11:54:47.881Z</time></trkpt><trkpt lat="43.9138575" lon="7.4817925"><ele>751.5</ele><time>2026-05-01T11:54:48.881Z</time></trkpt><trkpt lat="43.9138686" lon="7.4819808"><ele>751.75</ele><time>2026-05-01T11:54:49.881Z</time></trkpt><trkpt lat="43.9138672" lon="7.4821474"><ele>752.0</ele><time>2026-05-01T11:54:50.881Z</time></trkpt><trkpt lat="43.9138388" lon="7.4822767"><ele>750.5</ele><time>2026-05-01T11:54:51.881Z</time></trkpt><trkpt lat="43.9137895" lon="7.482385"><ele>749.0</ele><time>2026-05-01T11:54:52.881Z</time></trkpt><trkpt lat="43.9136093" lon="7.4824431"><ele>747.5</ele><time>2026-05-01T11:54:53.881Z</time></trkpt><trkpt lat="43.9134846" lon="7.4825066"><ele>746.0</ele><time>2026-05-01T11:54:54.881Z</time></trkpt><trkpt lat="43.913301" lon="7.4825681"><ele>753.0</ele><time>2026-05-01T11:54:55.881Z</time></trkpt><trkpt lat="43.9131489" lon="7.4826235"><ele>760.0</ele><time>2026-05-01T11:54:56.881Z</time></trkpt><trkpt lat="43.9129826" lon="7.4826933"><ele>767.0</ele><time>2026-05-01T11:54:57.881Z</time></trkpt><trkpt lat="43.9128298" lon="7.4827559"><ele>767.0</ele><time>2026-05-01T11:54:58.881Z</time></trkpt><trkpt lat="43.9126814" lon="7.4827933"><ele>767.0</ele><time>2026-05-01T11:54:59.881Z</time></trkpt><trkpt lat="43.9125206" lon="7.4828475"><ele>767.0</ele><time>2026-05-01T11:55:00.881Z</time></trkpt><trkpt lat="43.9123608" lon="7.4828362"><ele>768.0</ele><time>2026-05-01T11:55:01.881Z</time></trkpt><trkpt lat="43.9121989" lon="7.4828266"><ele>769.0</ele><time>2026-05-01T11:55:02.882Z</time></trkpt><trkpt lat="43.9121013" lon="7.482768"><ele>770.0</ele><time>2026-05-01T11:55:03.881Z</time></trkpt><trkpt lat="43.9120118" lon="7.4826566"><ele>771.0</ele><time>2026-05-01T11:55:04.881Z</time></trkpt><trkpt lat="43.9119154" lon="7.482557"><ele>771.0</ele><time>2026-05-01T11:55:05.881Z</time></trkpt><trkpt lat="43.9118555" lon="7.4824111"><ele>771.0</ele><time>2026-05-01T11:55:06.881Z</time></trkpt><trkpt lat="43.9117752" lon="7.4822565"><ele>771.0</ele><time>2026-05-01T11:55:07.881Z</time></trkpt><trkpt lat="43.9116835" lon="7.4821019"><ele>771.0</ele><time>2026-05-01T11:55:08.881Z</time></trkpt><trkpt lat="43.9115953" lon="7.4819516"><ele>767.75</ele><time>2026-05-01T11:55:09.881Z</time></trkpt><trkpt lat="43.9115384" lon="7.4817954"><ele>764.5</ele><time>2026-05-01T11:55:10.881Z</time></trkpt><trkpt lat="43.9114907" lon="7.4816341"><ele>761.25</ele><time>2026-05-01T11:55:11.881Z</time></trkpt><trkpt lat="43.9114501" lon="7.4814789"><ele>758.0</ele><time>2026-05-01T11:55:12.881Z</time></trkpt><trkpt lat="43.9114405" lon="7.4813161"><ele>760.25</ele><time>2026-05-01T11:55:13.882Z</time></trkpt><trkpt lat="43.9114576" lon="7.4811202"><ele>762.5</ele><time>2026-05-01T11:55:14.881Z</time></trkpt><trkpt lat="43.9114314" lon="7.4809441"><ele>764.75</ele><time>2026-05-01T11:55:15.882Z</time></trkpt><trkpt lat="43.9113933" lon="7.4807695"><ele>767.0</ele><time>2026-05-01T11:55:16.881Z</time></trkpt><trkpt lat="43.9113445" lon="7.4806064"><ele>767.0</ele><time>2026-05-01T11:55:17.881Z</time></trkpt><trkpt lat="43.9112781" lon="7.4804481"><ele>767.0</ele><time>2026-05-01T11:55:18.881Z</time></trkpt><trkpt lat="43.9112518" lon="7.4802823"><ele>767.0</ele><time>2026-05-01T11:55:19.881Z</time></trkpt><trkpt lat="43.911227" lon="7.4801055"><ele>767.0</ele><time>2026-05-01T11:55:20.881Z</time></trkpt><trkpt lat="43.9112132" lon="7.4798943"><ele>767.75</ele><time>2026-05-01T11:55:21.881Z</time></trkpt><trkpt lat="43.9112093" lon="7.4796971"><ele>768.5</ele><time>2026-05-01T11:55:22.881Z</time></trkpt><trkpt lat="43.9112252" lon="7.4795045"><ele>769.25</ele><time>2026-05-01T11:55:23.881Z</time></trkpt><trkpt lat="43.9112451" lon="7.4793217"><ele>770.0</ele><time>2026-05-01T11:55:24.881Z</time></trkpt><trkpt lat="43.9112518" lon="7.4791321"><ele>770.5</ele><time>2026-05-01T11:55:25.882Z</time></trkpt><trkpt lat="43.9112457" lon="7.4789415"><ele>771.0</ele><time>2026-05-01T11:55:26.881Z</time></trkpt><trkpt lat="43.9112289" lon="7.4787513"><ele>771.5</ele><time>2026-05-01T11:55:27.881Z</time></trkpt><trkpt lat="43.911219" lon="7.4785733"><ele>772.0</ele><time>2026-05-01T11:55:28.881Z</time></trkpt><trkpt lat="43.9111996" lon="7.4784048"><ele>773.2</ele><time>2026-05-01T11:55:29.881Z</time></trkpt><trkpt lat="43.9111727" lon="7.4782634"><ele>774.4000000000001</ele><time>2026-05-01T11:55:30.881Z</time></trkpt><trkpt lat="43.9111309" lon="7.4781397"><ele>775.5999999999999</ele><time>2026-05-01T11:55:31.881Z</time></trkpt><trkpt lat="43.9110626" lon="7.4780381"><ele>776.8</ele><time>2026-05-01T11:55:32.881Z</time></trkpt><trkpt lat="43.9109923" lon="7.4779604"><ele>778.0</ele><time>2026-05-01T11:55:33.881Z</time></trkpt><trkpt lat="43.910912" lon="7.4779379"><ele>770.0</ele><time>2026-05-01T11:55:34.881Z</time></trkpt><trkpt lat="43.9108227" lon="7.4779437"><ele>762.0</ele><time>2026-05-01T11:55:35.881Z</time></trkpt><trkpt lat="43.9107222" lon="7.4779859"><ele>754.0</ele><time>2026-05-01T11:55:36.881Z</time></trkpt><trkpt lat="43.9106064" lon="7.478038"><ele>746.0</ele><time>2026-05-01T11:55:37.882Z</time></trkpt><trkpt lat="43.9104887" lon="7.4780965"><ele>738.0</ele><time>2026-05-01T11:55:38.881Z</time></trkpt><trkpt lat="43.910376" lon="7.4781234"><ele>738.0</ele><time>2026-05-01T11:55:39.881Z</time></trkpt><trkpt lat="43.9102309" lon="7.4782187"><ele>738.0</ele><time>2026-05-01T11:55:40.881Z</time></trkpt><trkpt lat="43.9100896" lon="7.4782829"><ele>738.0</ele><time>2026-05-01T11:55:41.881Z</time></trkpt><trkpt lat="43.9099677" lon="7.4783338"><ele>738.0</ele><time>2026-05-01T11:55:42.881Z</time></trkpt><trkpt lat="43.9098311" lon="7.4783806"><ele>738.0</ele><time>2026-05-01T11:55:43.881Z</time></trkpt><trkpt lat="43.9096946" lon="7.4784106"><ele>738.0</ele><time>2026-05-01T11:55:44.881Z</time></trkpt><trkpt lat="43.9095383" lon="7.4784293"><ele>738.0</ele><time>2026-05-01T11:55:45.882Z</time></trkpt><trkpt lat="43.9093854" lon="7.4784313"><ele>738.0</ele><time>2026-05-01T11:55:46.881Z</time></trkpt><trkpt lat="43.9092252" lon="7.4784399"><ele>739.6666666666666</ele><time>2026-05-01T11:55:47.881Z</time></trkpt><trkpt lat="43.90907" lon="7.4784443"><ele>741.3333333333333</ele><time>2026-05-01T11:55:48.881Z</time></trkpt><trkpt lat="43.9089209" lon="7.4784478"><ele>743.0</ele><time>2026-05-01T11:55:49.881Z</time></trkpt><trkpt lat="43.9087714" lon="7.4784599"><ele>743.0</ele><time>2026-05-01T11:55:50.881Z</time></trkpt><trkpt lat="43.9086354" lon="7.4784733"><ele>743.0</ele><time>2026-05-01T11:55:51.881Z</time></trkpt><trkpt lat="43.9085178" lon="7.4784755"><ele>743.0</ele><time>2026-05-01T11:55:52.881Z</time></trkpt><trkpt lat="43.908403" lon="7.4784345"><ele>743.0</ele><time>2026-05-01T11:55:53.881Z</time></trkpt><trkpt lat="43.9082941" lon="7.4783705"><ele>738.0</ele><time>2026-05-01T11:55:54.881Z</time></trkpt><trkpt lat="43.9082025" lon="7.478259"><ele>733.0</ele><time>2026-05-01T11:55:55.881Z</time></trkpt><trkpt lat="43.9081056" lon="7.4781224"><ele>728.0</ele><time>2026-05-01T11:55:56.881Z</time></trkpt><trkpt lat="43.9080095" lon="7.4779794"><ele>723.0</ele><time>2026-05-01T11:55:57.881Z</time></trkpt><trkpt lat="43.9078991" lon="7.4778212"><ele>724.6666666666666</ele><time>2026-05-01T11:55:58.881Z</time></trkpt><trkpt lat="43.9077733" lon="7.4776867"><ele>726.3333333333333</ele><time>2026-05-01T11:55:59.881Z</time></trkpt><trkpt lat="43.9076455" lon="7.4775611"><ele>728.0</ele><time>2026-05-01T11:56:00.881Z</time></trkpt><trkpt lat="43.9075067" lon="7.4774502"><ele>728.0</ele><time>2026-05-01T11:56:01.881Z</time></trkpt><trkpt lat="43.9073803" lon="7.4773658"><ele>728.0</ele><time>2026-05-01T11:56:02.881Z</time></trkpt><trkpt lat="43.9072533" lon="7.4772696"><ele>728.0</ele><time>2026-05-01T11:56:03.881Z</time></trkpt><trkpt lat="43.9071411" lon="7.4771697"><ele>728.0</ele><time>2026-05-01T11:56:04.881Z</time></trkpt><trkpt lat="43.9070404" lon="7.4770648"><ele>732.25</ele><time>2026-05-01T11:56:05.881Z</time></trkpt><trkpt lat="43.9069622" lon="7.476936"><ele>736.5</ele><time>2026-05-01T11:56:06.881Z</time></trkpt><trkpt lat="43.9069018" lon="7.4767817"><ele>740.75</ele><time>2026-05-01T11:56:07.881Z</time></trkpt><trkpt lat="43.9068652" lon="7.4766335"><ele>745.0</ele><time>2026-05-01T11:56:08.881Z</time></trkpt><trkpt lat="43.9068511" lon="7.4764472"><ele>742.25</ele><time>2026-05-01T11:56:09.881Z</time></trkpt><trkpt lat="43.9068552" lon="7.4762463"><ele>739.5</ele><time>2026-05-01T11:56:10.881Z</time></trkpt><trkpt lat="43.9069024" lon="7.4760762"><ele>736.75</ele><time>2026-05-01T11:56:11.881Z</time></trkpt><trkpt lat="43.9069561" lon="7.4759273"><ele>734.0</ele><time>2026-05-01T11:56:12.881Z</time></trkpt><trkpt lat="43.9070045" lon="7.4757837"><ele>734.0</ele><time>2026-05-01T11:56:13.881Z</time></trkpt><trkpt lat="43.9071036" lon="7.4756765"><ele>734.0</ele><time>2026-05-01T11:56:14.881Z</time></trkpt><trkpt lat="43.9072137" lon="7.4755167"><ele>734.0</ele><time>2026-05-01T11:56:15.881Z</time></trkpt><trkpt lat="43.9073211" lon="7.4753626"><ele>734.0</ele><time>2026-05-01T11:56:16.881Z</time></trkpt><trkpt lat="43.9074039" lon="7.4751925"><ele>736.0</ele><time>2026-05-01T11:56:17.881Z</time></trkpt><trkpt lat="43.9074871" lon="7.4750331"><ele>738.0</ele><time>2026-05-01T11:56:18.881Z</time></trkpt><trkpt lat="43.9075595" lon="7.4748667"><ele>740.0</ele><time>2026-05-01T11:56:19.881Z</time></trkpt><trkpt lat="43.9076197" lon="7.4747139"><ele>742.0</ele><time>2026-05-01T11:56:20.881Z</time></trkpt><trkpt lat="43.9076765" lon="7.4745614"><ele>742.0</ele><time>2026-05-01T11:56:21.881Z</time></trkpt><trkpt lat="43.9077346" lon="7.4744076"><ele>742.0</ele><time>2026-05-01T11:56:22.881Z</time></trkpt><trkpt lat="43.9077824" lon="7.4742596"><ele>742.0</ele><time>2026-05-01T11:56:23.881Z</time></trkpt><trkpt lat="43.9078202" lon="7.4741114"><ele>742.0</ele><time>2026-05-01T11:56:24.881Z</time></trkpt><trkpt lat="43.9078455" lon="7.4739545"><ele>742.0</ele><time>2026-05-01T11:56:25.881Z</time></trkpt><trkpt lat="43.907852" lon="7.4738438"><ele>742.0</ele><time>2026-05-01T11:56:26.881Z</time></trkpt><trkpt lat="43.907834" lon="7.4737361"><ele>742.0</ele><time>2026-05-01T11:56:27.881Z</time></trkpt><trkpt lat="43.9078017" lon="7.4736453"><ele>742.0</ele><time>2026-05-01T11:56:28.881Z</time></trkpt><trkpt lat="43.9077507" lon="7.4735659"><ele>742.0</ele><time>2026-05-01T11:56:29.881Z</time></trkpt><trkpt lat="43.9075794" lon="7.4735254"><ele>735.3333333333334</ele><time>2026-05-01T11:56:31.881Z</time></trkpt><trkpt lat="43.9074145" lon="7.473594"><ele>728.6666666666666</ele><time>2026-05-01T11:56:32.881Z</time></trkpt><trkpt lat="43.9072258" lon="7.4736888"><ele>722.0</ele><time>2026-05-01T11:56:33.881Z</time></trkpt><trkpt lat="43.9070715" lon="7.4737489"><ele>713.0</ele><time>2026-05-01T11:56:34.881Z</time></trkpt><trkpt lat="43.9069168" lon="7.4738"><ele>704.0</ele><time>2026-05-01T11:56:35.881Z</time></trkpt><trkpt lat="43.9067563" lon="7.473836"><ele>695.0</ele><time>2026-05-01T11:56:36.881Z</time></trkpt><trkpt lat="43.9065865" lon="7.473874"><ele>689.6666666666666</ele><time>2026-05-01T11:56:37.882Z</time></trkpt><trkpt lat="43.9064234" lon="7.4739101"><ele>684.3333333333334</ele><time>2026-05-01T11:56:38.882Z</time></trkpt><trkpt lat="43.9062477" lon="7.4739529"><ele>679.0</ele><time>2026-05-01T11:56:39.881Z</time></trkpt><trkpt lat="43.9060715" lon="7.47402"><ele>680.6666666666667</ele><time>2026-05-01T11:56:40.881Z</time></trkpt><trkpt lat="43.9058953" lon="7.474091"><ele>682.3333333333334</ele><time>2026-05-01T11:56:41.882Z</time></trkpt><trkpt lat="43.9057182" lon="7.4741592"><ele>684.0</ele><time>2026-05-01T11:56:42.882Z</time></trkpt><trkpt lat="43.9055652" lon="7.4742473"><ele>684.0</ele><time>2026-05-01T11:56:43.881Z</time></trkpt><trkpt lat="43.9054053" lon="7.4743321"><ele>684.0</ele><time>2026-05-01T11:56:44.881Z</time></trkpt><trkpt lat="43.9052612" lon="7.4744102"><ele>684.0</ele><time>2026-05-01T11:56:45.881Z</time></trkpt><trkpt lat="43.9051055" lon="7.4744941"><ele>677.6666666666666</ele><time>2026-05-01T11:56:46.881Z</time></trkpt><trkpt lat="43.9049686" lon="7.4745672"><ele>671.3333333333333</ele><time>2026-05-01T11:56:47.881Z</time></trkpt><trkpt lat="43.9048371" lon="7.4746787"><ele>665.0</ele><time>2026-05-01T11:56:48.881Z</time></trkpt><trkpt lat="43.904701" lon="7.4747975"><ele>665.0</ele><time>2026-05-01T11:56:49.882Z</time></trkpt><trkpt lat="43.9045724" lon="7.4749209"><ele>665.0</ele><time>2026-05-01T11:56:50.881Z</time></trkpt><trkpt lat="43.9044716" lon="7.4750552"><ele>665.0</ele><time>2026-05-01T11:56:51.881Z</time></trkpt><trkpt lat="43.9043655" lon="7.4751871"><ele>665.0</ele><time>2026-05-01T11:56:52.881Z</time></trkpt><trkpt lat="43.9042652" lon="7.4753137"><ele>662.8333333333333</ele><time>2026-05-01T11:56:53.881Z</time></trkpt><trkpt lat="43.9041897" lon="7.4754441"><ele>660.6666666666666</ele><time>2026-05-01T11:56:54.881Z</time></trkpt><trkpt lat="43.9041351" lon="7.475517"><ele>658.5</ele><time>2026-05-01T11:56:55.882Z</time></trkpt><trkpt lat="43.9040701" lon="7.4755948"><ele>656.3333333333334</ele><time>2026-05-01T11:56:56.881Z</time></trkpt><trkpt lat="43.9039857" lon="7.4756108"><ele>654.1666666666667</ele><time>2026-05-01T11:56:57.881Z</time></trkpt><trkpt lat="43.903917" lon="7.4756252"><ele>652.0</ele><time>2026-05-01T11:56:58.881Z</time></trkpt><trkpt lat="43.903772" lon="7.4754439"><ele>659.5</ele><time>2026-05-01T11:57:00.881Z</time></trkpt><trkpt lat="43.9036796" lon="7.4752802"><ele>667.0</ele><time>2026-05-01T11:57:01.881Z</time></trkpt><trkpt lat="43.9035964" lon="7.4751281"><ele>674.5</ele><time>2026-05-01T11:57:02.881Z</time></trkpt><trkpt lat="43.90354" lon="7.4749801"><ele>682.0</ele><time>2026-05-01T11:57:03.882Z</time></trkpt><trkpt lat="43.9034796" lon="7.4747953"><ele>682.0</ele><time>2026-05-01T11:57:04.882Z</time></trkpt><trkpt lat="43.9034235" lon="7.4746165"><ele>682.0</ele><time>2026-05-01T11:57:05.881Z</time></trkpt><trkpt lat="43.9033857" lon="7.4744348"><ele>682.0</ele><time>2026-05-01T11:57:06.881Z</time></trkpt><trkpt lat="43.9033463" lon="7.4742575"><ele>682.0</ele><time>2026-05-01T11:57:07.881Z</time></trkpt><trkpt lat="43.9033073" lon="7.4740822"><ele>679.6</ele><time>2026-05-01T11:57:08.881Z</time></trkpt><trkpt lat="43.9032699" lon="7.4739144"><ele>677.2</ele><time>2026-05-01T11:57:09.881Z</time></trkpt><trkpt lat="43.9032374" lon="7.4737603"><ele>674.8</ele><time>2026-05-01T11:57:10.881Z</time></trkpt><trkpt lat="43.9032058" lon="7.4736351"><ele>672.4</ele><time>2026-05-01T11:57:11.881Z</time></trkpt><trkpt lat="43.9031745" lon="7.4735193"><ele>670.0</ele><time>2026-05-01T11:57:12.881Z</time></trkpt><trkpt lat="43.9031225" lon="7.4734169"><ele>670.0</ele><time>2026-05-01T11:57:13.881Z</time></trkpt><trkpt lat="43.9030747" lon="7.4733229"><ele>670.0</ele><time>2026-05-01T11:57:14.881Z</time></trkpt><trkpt lat="43.9030281" lon="7.4732279"><ele>670.0</ele><time>2026-05-01T11:57:15.881Z</time></trkpt><trkpt lat="43.9029298" lon="7.4731689"><ele>670.0</ele><time>2026-05-01T11:57:16.881Z</time></trkpt><trkpt lat="43.9028534" lon="7.4731095"><ele>670.0</ele><time>2026-05-01T11:57:17.881Z</time></trkpt><trkpt lat="43.9027658" lon="7.4730613"><ele>670.0</ele><time>2026-05-01T11:57:18.882Z</time></trkpt><trkpt lat="43.9026704" lon="7.4729969"><ele>670.0</ele><time>2026-05-01T11:57:19.881Z</time></trkpt><trkpt lat="43.9025776" lon="7.4729694"><ele>670.0</ele><time>2026-05-01T11:57:20.881Z</time></trkpt><trkpt lat="43.902498" lon="7.4729224"><ele>670.0</ele><time>2026-05-01T11:57:21.881Z</time></trkpt><trkpt lat="43.9024144" lon="7.4728943"><ele>670.0</ele><time>2026-05-01T11:57:22.897Z</time></trkpt><trkpt lat="43.9022897" lon="7.4729717"><ele>665.0</ele><time>2026-05-01T11:57:23.88Z</time></trkpt><trkpt lat="43.9021917" lon="7.472997"><ele>660.0</ele><time>2026-05-01T11:57:24.88Z</time></trkpt><trkpt lat="43.9020841" lon="7.4730889"><ele>655.0</ele><time>2026-05-01T11:57:25.881Z</time></trkpt><trkpt lat="43.9019624" lon="7.4731855"><ele>650.0</ele><time>2026-05-01T11:57:26.881Z</time></trkpt><trkpt lat="43.9018471" lon="7.4732485"><ele>647.75</ele><time>2026-05-01T11:57:27.882Z</time></trkpt><trkpt lat="43.901723" lon="7.473346"><ele>645.5</ele><time>2026-05-01T11:57:28.881Z</time></trkpt><trkpt lat="43.9016081" lon="7.4734378"><ele>643.25</ele><time>2026-05-01T11:57:29.881Z</time></trkpt><trkpt lat="43.9014807" lon="7.4735213"><ele>641.0</ele><time>2026-05-01T11:57:30.881Z</time></trkpt><trkpt lat="43.901356" lon="7.4735941"><ele>641.0</ele><time>2026-05-01T11:57:31.881Z</time></trkpt><trkpt lat="43.901228" lon="7.4736579"><ele>641.0</ele><time>2026-05-01T11:57:32.881Z</time></trkpt><trkpt lat="43.9011024" lon="7.4737116"><ele>641.0</ele><time>2026-05-01T11:57:33.881Z</time></trkpt><trkpt lat="43.9009704" lon="7.4737482"><ele>641.0</ele><time>2026-05-01T11:57:34.882Z</time></trkpt><trkpt lat="43.9008354" lon="7.4737754"><ele>642.75</ele><time>2026-05-01T11:57:35.881Z</time></trkpt><trkpt lat="43.9007065" lon="7.4738057"><ele>644.5</ele><time>2026-05-01T11:57:36.881Z</time></trkpt><trkpt lat="43.900574" lon="7.47384"><ele>646.25</ele><time>2026-05-01T11:57:37.881Z</time></trkpt><trkpt lat="43.9004421" lon="7.4738695"><ele>648.0</ele><time>2026-05-01T11:57:38.881Z</time></trkpt><trkpt lat="43.9003084" lon="7.4738878"><ele>648.0</ele><time>2026-05-01T11:57:39.881Z</time></trkpt><trkpt lat="43.9001665" lon="7.4738957"><ele>648.0</ele><time>2026-05-01T11:57:40.881Z</time></trkpt><trkpt lat="43.9000341" lon="7.4739163"><ele>648.0</ele><time>2026-05-01T11:57:41.882Z</time></trkpt><trkpt lat="43.8998881" lon="7.4739289"><ele>648.0</ele><time>2026-05-01T11:57:42.881Z</time></trkpt><trkpt lat="43.8997436" lon="7.4739215"><ele>647.5</ele><time>2026-05-01T11:57:43.881Z</time></trkpt><trkpt lat="43.8995963" lon="7.4739034"><ele>647.0</ele><time>2026-05-01T11:57:44.881Z</time></trkpt><trkpt lat="43.8994372" lon="7.4738853"><ele>646.5</ele><time>2026-05-01T11:57:45.881Z</time></trkpt><trkpt lat="43.8993128" lon="7.4737992"><ele>646.0</ele><time>2026-05-01T11:57:46.881Z</time></trkpt><trkpt lat="43.8991778" lon="7.4737178"><ele>639.5</ele><time>2026-05-01T11:57:47.881Z</time></trkpt><trkpt lat="43.899046" lon="7.4736369"><ele>633.0</ele><time>2026-05-01T11:57:48.882Z</time></trkpt><trkpt lat="43.8989391" lon="7.4734943"><ele>626.5</ele><time>2026-05-01T11:57:49.882Z</time></trkpt><trkpt lat="43.8988194" lon="7.4733807"><ele>620.0</ele><time>2026-05-01T11:57:50.882Z</time></trkpt><trkpt lat="43.8986865" lon="7.4732789"><ele>620.0</ele><time>2026-05-01T11:57:51.881Z</time></trkpt><trkpt lat="43.8985483" lon="7.4731785"><ele>620.0</ele><time>2026-05-01T11:57:52.881Z</time></trkpt><trkpt lat="43.8984159" lon="7.4730923"><ele>620.0</ele><time>2026-05-01T11:57:53.881Z</time></trkpt><trkpt lat="43.8982766" lon="7.4730162"><ele>616.0</ele><time>2026-05-01T11:57:54.881Z</time></trkpt><trkpt lat="43.8981527" lon="7.4729457"><ele>612.0</ele><time>2026-05-01T11:57:55.881Z</time></trkpt><trkpt lat="43.8980575" lon="7.4728888"><ele>608.0</ele><time>2026-05-01T11:57:56.881Z</time></trkpt><trkpt lat="43.8979241" lon="7.472847"><ele>604.0</ele><time>2026-05-01T11:57:57.881Z</time></trkpt><trkpt lat="43.8977949" lon="7.4728465"><ele>604.0</ele><time>2026-05-01T11:57:58.881Z</time></trkpt><trkpt lat="43.8976861" lon="7.4728511"><ele>604.0</ele><time>2026-05-01T11:57:59.881Z</time></trkpt><trkpt lat="43.8975658" lon="7.4728695"><ele>604.0</ele><time>2026-05-01T11:58:00.881Z</time></trkpt><trkpt lat="43.8974669" lon="7.472927"><ele>604.0</ele><time>2026-05-01T11:58:02.881Z</time></trkpt><trkpt lat="43.8973678" lon="7.47291"><ele>604.0</ele><time>2026-05-01T11:58:04.881Z</time></trkpt><trkpt lat="43.8974106" lon="7.4728375"><ele>604.0</ele><time>2026-05-01T11:58:06.881Z</time></trkpt><trkpt lat="43.8974861" lon="7.4728033"><ele>604.0</ele><time>2026-05-01T11:58:07.881Z</time></trkpt><trkpt lat="43.8975714" lon="7.472781"><ele>604.0</ele><time>2026-05-01T11:58:08.881Z</time></trkpt><trkpt lat="43.8976514" lon="7.4727426"><ele>604.0</ele><time>2026-05-01T11:58:09.881Z</time></trkpt><trkpt lat="43.8977908" lon="7.4727135"><ele>604.0</ele><time>2026-05-01T11:58:10.881Z</time></trkpt><trkpt lat="43.8979303" lon="7.4727011"><ele>604.0</ele><time>2026-05-01T11:58:11.881Z</time></trkpt><trkpt lat="43.898054" lon="7.4727335"><ele>604.0</ele><time>2026-05-01T11:58:12.881Z</time></trkpt><trkpt lat="43.8981946" lon="7.4727481"><ele>604.0</ele><time>2026-05-01T11:58:13.881Z</time></trkpt><trkpt lat="43.8983447" lon="7.4727567"><ele>604.0</ele><time>2026-05-01T11:58:14.881Z</time></trkpt><trkpt lat="43.8984421" lon="7.4728092"><ele>602.5</ele><time>2026-05-01T11:58:15.881Z</time></trkpt><trkpt lat="43.8985175" lon="7.4728738"><ele>601.0</ele><time>2026-05-01T11:58:16.881Z</time></trkpt><trkpt lat="43.8985816" lon="7.4729375"><ele>599.5</ele><time>2026-05-01T11:58:17.881Z</time></trkpt><trkpt lat="43.8986364" lon="7.4729809"><ele>598.0</ele><time>2026-05-01T11:58:18.881Z</time></trkpt><trkpt lat="43.8987445" lon="7.4729246"><ele>596.5</ele><time>2026-05-01T11:58:20.881Z</time></trkpt><trkpt lat="43.8987606" lon="7.4727851"><ele>595.0</ele><time>2026-05-01T11:58:22.881Z</time></trkpt><trkpt lat="43.8986885" lon="7.4727184"><ele>595.0</ele><time>2026-05-01T11:58:23.881Z</time></trkpt><trkpt lat="43.8986381" lon="7.4726426"><ele>595.0</ele><time>2026-05-01T11:58:24.881Z</time></trkpt><trkpt lat="43.898591" lon="7.4725478"><ele>595.0</ele><time>2026-05-01T11:58:25.881Z</time></trkpt><trkpt lat="43.8985319" lon="7.472463"><ele>595.0</ele><time>2026-05-01T11:58:26.881Z</time></trkpt><trkpt lat="43.8983259" lon="7.4724362"><ele>595.0</ele><time>2026-05-01T11:58:27.881Z</time></trkpt><trkpt lat="43.898163" lon="7.4723944"><ele>598.0</ele><time>2026-05-01T11:58:28.881Z</time></trkpt><trkpt lat="43.8980027" lon="7.4723797"><ele>601.0</ele><time>2026-05-01T11:58:29.881Z</time></trkpt><trkpt lat="43.8978411" lon="7.4723655"><ele>604.0</ele><time>2026-05-01T11:58:30.881Z</time></trkpt><trkpt lat="43.8976931" lon="7.472368"><ele>606.0</ele><time>2026-05-01T11:58:31.881Z</time></trkpt><trkpt lat="43.897543" lon="7.4723515"><ele>608.0</ele><time>2026-05-01T11:58:32.881Z</time></trkpt><trkpt lat="43.8973919" lon="7.4724271"><ele>610.0</ele><time>2026-05-01T11:58:33.881Z</time></trkpt><trkpt lat="43.8972262" lon="7.4724574"><ele>610.0</ele><time>2026-05-01T11:58:34.881Z</time></trkpt><trkpt lat="43.8970729" lon="7.4724799"><ele>610.0</ele><time>2026-05-01T11:58:35.881Z</time></trkpt><trkpt lat="43.8969097" lon="7.4724735"><ele>610.0</ele><time>2026-05-01T11:58:36.881Z</time></trkpt><trkpt lat="43.8967562" lon="7.4724249"><ele>608.6666666666667</ele><time>2026-05-01T11:58:37.881Z</time></trkpt><trkpt lat="43.896579" lon="7.4723888"><ele>607.3333333333334</ele><time>2026-05-01T11:58:38.881Z</time></trkpt><trkpt lat="43.8964207" lon="7.4723446"><ele>606.0</ele><time>2026-05-01T11:58:39.881Z</time></trkpt><trkpt lat="43.8962583" lon="7.4722956"><ele>606.0</ele><time>2026-05-01T11:58:40.881Z</time></trkpt><trkpt lat="43.8960912" lon="7.4722415"><ele>606.0</ele><time>2026-05-01T11:58:41.881Z</time></trkpt><trkpt lat="43.8959497" lon="7.4721915"><ele>606.0</ele><time>2026-05-01T11:58:42.881Z</time></trkpt><trkpt lat="43.895792" lon="7.4721352"><ele>604.75</ele><time>2026-05-01T11:58:43.881Z</time></trkpt><trkpt lat="43.8956429" lon="7.4721334"><ele>603.5</ele><time>2026-05-01T11:58:44.881Z</time></trkpt><trkpt lat="43.8954961" lon="7.4721229"><ele>602.25</ele><time>2026-05-01T11:58:45.881Z</time></trkpt><trkpt lat="43.8953688" lon="7.4721527"><ele>601.0</ele><time>2026-05-01T11:58:46.881Z</time></trkpt><trkpt lat="43.8952087" lon="7.4721898"><ele>599.0</ele><time>2026-05-01T11:58:47.881Z</time></trkpt><trkpt lat="43.8950523" lon="7.4722378"><ele>597.0</ele><time>2026-05-01T11:58:48.881Z</time></trkpt><trkpt lat="43.8948809" lon="7.4722964"><ele>595.0</ele><time>2026-05-01T11:58:49.881Z</time></trkpt><trkpt lat="43.8947376" lon="7.4723238"><ele>595.0</ele><time>2026-05-01T11:58:50.881Z</time></trkpt><trkpt lat="43.8945844" lon="7.472414"><ele>595.0</ele><time>2026-05-01T11:58:51.881Z</time></trkpt><trkpt lat="43.8944348" lon="7.4724735"><ele>595.0</ele><time>2026-05-01T11:58:52.881Z</time></trkpt><trkpt lat="43.8942741" lon="7.4724992"><ele>590.6666666666667</ele><time>2026-05-01T11:58:53.881Z</time></trkpt><trkpt lat="43.8941172" lon="7.4725418"><ele>586.3333333333334</ele><time>2026-05-01T11:58:54.881Z</time></trkpt><trkpt lat="43.8939495" lon="7.4725262"><ele>582.0</ele><time>2026-05-01T11:58:55.881Z</time></trkpt><trkpt lat="43.8937963" lon="7.4725076"><ele>582.0</ele><time>2026-05-01T11:58:56.881Z</time></trkpt><trkpt lat="43.8936513" lon="7.4725055"><ele>582.0</ele><time>2026-05-01T11:58:57.881Z</time></trkpt><trkpt lat="43.8935202" lon="7.4724851"><ele>582.0</ele><time>2026-05-01T11:58:58.881Z</time></trkpt><trkpt lat="43.8933869" lon="7.4724528"><ele>582.0</ele><time>2026-05-01T11:58:59.881Z</time></trkpt><trkpt lat="43.8932537" lon="7.4724433"><ele>580.25</ele><time>2026-05-01T11:59:00.881Z</time></trkpt><trkpt lat="43.8931243" lon="7.4724795"><ele>578.5</ele><time>2026-05-01T11:59:01.881Z</time></trkpt><trkpt lat="43.8930044" lon="7.4725462"><ele>576.75</ele><time>2026-05-01T11:59:02.881Z</time></trkpt><trkpt lat="43.8928791" lon="7.4725876"><ele>575.0</ele><time>2026-05-01T11:59:03.881Z</time></trkpt><trkpt lat="43.8928185" lon="7.4726688"><ele>575.0</ele><time>2026-05-01T11:59:04.881Z</time></trkpt><trkpt lat="43.8927382" lon="7.4727707"><ele>575.0</ele><time>2026-05-01T11:59:05.881Z</time></trkpt><trkpt lat="43.8926777" lon="7.472798"><ele>575.0</ele><time>2026-05-01T11:59:07.882Z</time></trkpt><trkpt lat="43.8926672" lon="7.4727064"><ele>575.0</ele><time>2026-05-01T11:59:09.881Z</time></trkpt><trkpt lat="43.8927178" lon="7.4726438"><ele>575.0</ele><time>2026-05-01T11:59:10.881Z</time></trkpt><trkpt lat="43.8927856" lon="7.4725569"><ele>575.0</ele><time>2026-05-01T11:59:11.881Z</time></trkpt><trkpt lat="43.8928901" lon="7.4724847"><ele>575.0</ele><time>2026-05-01T11:59:12.882Z</time></trkpt><trkpt lat="43.8929781" lon="7.4724044"><ele>575.0</ele><time>2026-05-01T11:59:13.881Z</time></trkpt><trkpt lat="43.8931082" lon="7.4723351"><ele>575.0</ele><time>2026-05-01T11:59:14.881Z</time></trkpt><trkpt lat="43.8932377" lon="7.472278"><ele>575.0</ele><time>2026-05-01T11:59:15.881Z</time></trkpt><trkpt lat="43.8933459" lon="7.4722249"><ele>576.4</ele><time>2026-05-01T11:59:16.882Z</time></trkpt><trkpt lat="43.8934647" lon="7.4722631"><ele>577.8</ele><time>2026-05-01T11:59:17.881Z</time></trkpt><trkpt lat="43.8935436" lon="7.4723018"><ele>579.2</ele><time>2026-05-01T11:59:18.881Z</time></trkpt><trkpt lat="43.8936179" lon="7.4723118"><ele>580.6</ele><time>2026-05-01T11:59:19.881Z</time></trkpt><trkpt lat="43.8937114" lon="7.4722603"><ele>582.0</ele><time>2026-05-01T11:59:21.881Z</time></trkpt><trkpt lat="43.8937202" lon="7.4721525"><ele>573.3333333333334</ele><time>2026-05-01T11:59:23.881Z</time></trkpt><trkpt lat="43.8935388" lon="7.4720906"><ele>564.6666666666667</ele><time>2026-05-01T11:59:25.881Z</time></trkpt><trkpt lat="43.8934064" lon="7.4720663"><ele>556.0</ele><time>2026-05-01T11:59:26.881Z</time></trkpt><trkpt lat="43.8932515" lon="7.4720739"><ele>554.0</ele><time>2026-05-01T11:59:27.881Z</time></trkpt><trkpt lat="43.8931032" lon="7.4720943"><ele>552.0</ele><time>2026-05-01T11:59:28.881Z</time></trkpt><trkpt lat="43.8929606" lon="7.4721553"><ele>550.0</ele><time>2026-05-01T11:59:29.881Z</time></trkpt><trkpt lat="43.8928171" lon="7.4722116"><ele>548.0</ele><time>2026-05-01T11:59:30.881Z</time></trkpt><trkpt lat="43.8926721" lon="7.4722771"><ele>551.25</ele><time>2026-05-01T11:59:31.882Z</time></trkpt><trkpt lat="43.8925311" lon="7.4723588"><ele>554.5</ele><time>2026-05-01T11:59:32.881Z</time></trkpt><trkpt lat="43.8924204" lon="7.4724791"><ele>557.75</ele><time>2026-05-01T11:59:33.881Z</time></trkpt><trkpt lat="43.8922851" lon="7.4725856"><ele>561.0</ele><time>2026-05-01T11:59:34.881Z</time></trkpt><trkpt lat="43.8921682" lon="7.4727016"><ele>561.0</ele><time>2026-05-01T11:59:35.881Z</time></trkpt><trkpt lat="43.8920377" lon="7.4728109"><ele>561.0</ele><time>2026-05-01T11:59:36.882Z</time></trkpt><trkpt lat="43.8919308" lon="7.4729068"><ele>561.0</ele><time>2026-05-01T11:59:37.881Z</time></trkpt><trkpt lat="43.8917952" lon="7.4729974"><ele>561.0</ele><time>2026-05-01T11:59:38.881Z</time></trkpt><trkpt lat="43.8916669" lon="7.473034"><ele>560.5</ele><time>2026-05-01T11:59:39.882Z</time></trkpt><trkpt lat="43.8915395" lon="7.4730609"><ele>560.0</ele><time>2026-05-01T11:59:40.881Z</time></trkpt><trkpt lat="43.8914063" lon="7.4730997"><ele>559.5</ele><time>2026-05-01T11:59:41.881Z</time></trkpt><trkpt lat="43.8913138" lon="7.473126"><ele>559.0</ele><time>2026-05-01T11:59:42.881Z</time></trkpt><trkpt lat="43.8912122" lon="7.4731917"><ele>559.0</ele><time>2026-05-01T11:59:43.881Z</time></trkpt><trkpt lat="43.8911284" lon="7.4732468"><ele>559.0</ele><time>2026-05-01T11:59:44.881Z</time></trkpt><trkpt lat="43.8910524" lon="7.4732875"><ele>559.0</ele><time>2026-05-01T11:59:45.881Z</time></trkpt><trkpt lat="43.8909925" lon="7.4733313"><ele>559.0</ele><time>2026-05-01T11:59:46.881Z</time></trkpt><trkpt lat="43.8909125" lon="7.473371"><ele>559.0</ele><time>2026-05-01T11:59:48.881Z</time></trkpt><trkpt lat="43.8908911" lon="7.4732826"><ele>559.0</ele><time>2026-05-01T11:59:50.881Z</time></trkpt><trkpt lat="43.8909847" lon="7.4731939"><ele>559.0</ele><time>2026-05-01T11:59:52.881Z</time></trkpt><trkpt lat="43.8910764" lon="7.4731231"><ele>559.0</ele><time>2026-05-01T11:59:53.881Z</time></trkpt><trkpt lat="43.891164" lon="7.4730459"><ele>559.0</ele><time>2026-05-01T11:59:54.881Z</time></trkpt><trkpt lat="43.8912686" lon="7.4729655"><ele>559.0</ele><time>2026-05-01T11:59:55.881Z</time></trkpt><trkpt lat="43.8913928" lon="7.4728945"><ele>559.5</ele><time>2026-05-01T11:59:56.881Z</time></trkpt><trkpt lat="43.8915233" lon="7.4728347"><ele>560.0</ele><time>2026-05-01T11:59:57.881Z</time></trkpt><trkpt lat="43.8916282" lon="7.472753"><ele>560.5</ele><time>2026-05-01T11:59:58.881Z</time></trkpt><trkpt lat="43.8917277" lon="7.4726476"><ele>561.0</ele><time>2026-05-01T11:59:59.881Z</time></trkpt><trkpt lat="43.8918317" lon="7.4725561"><ele>561.0</ele><time>2026-05-01T12:00:00.881Z</time></trkpt><trkpt lat="43.8919021" lon="7.472409"><ele>561.0</ele><time>2026-05-01T12:00:01.881Z</time></trkpt><trkpt lat="43.8920003" lon="7.4722916"><ele>561.0</ele><time>2026-05-01T12:00:02.881Z</time></trkpt><trkpt lat="43.8921217" lon="7.4721804"><ele>561.0</ele><time>2026-05-01T12:00:03.881Z</time></trkpt><trkpt lat="43.8922357" lon="7.4720599"><ele>557.75</ele><time>2026-05-01T12:00:04.882Z</time></trkpt><trkpt lat="43.8923436" lon="7.4719535"><ele>554.5</ele><time>2026-05-01T12:00:05.881Z</time></trkpt><trkpt lat="43.8924693" lon="7.4719001"><ele>551.25</ele><time>2026-05-01T12:00:06.881Z</time></trkpt><trkpt lat="43.892596" lon="7.4718307"><ele>548.0</ele><time>2026-05-01T12:00:07.882Z</time></trkpt><trkpt lat="43.8927217" lon="7.4717376"><ele>548.0</ele><time>2026-05-01T12:00:08.881Z</time></trkpt><trkpt lat="43.8928103" lon="7.4716195"><ele>548.0</ele><time>2026-05-01T12:00:09.881Z</time></trkpt><trkpt lat="43.8929131" lon="7.4714892"><ele>548.0</ele><time>2026-05-01T12:00:10.881Z</time></trkpt><trkpt lat="43.8930079" lon="7.471379"><ele>548.0</ele><time>2026-05-01T12:00:11.881Z</time></trkpt><trkpt lat="43.8930976" lon="7.471288"><ele>542.8</ele><time>2026-05-01T12:00:12.881Z</time></trkpt><trkpt lat="43.8931741" lon="7.4712473"><ele>537.5999999999999</ele><time>2026-05-01T12:00:13.881Z</time></trkpt><trkpt lat="43.8932719" lon="7.4712206"><ele>532.4000000000001</ele><time>2026-05-01T12:00:14.881Z</time></trkpt><trkpt lat="43.8933607" lon="7.4711456"><ele>527.2</ele><time>2026-05-01T12:00:16.881Z</time></trkpt><trkpt lat="43.8934014" lon="7.4710748"><ele>522.0</ele><time>2026-05-01T12:00:18.881Z</time></trkpt><trkpt lat="43.8932166" lon="7.4710618"><ele>522.0</ele><time>2026-05-01T12:00:20.881Z</time></trkpt><trkpt lat="43.8930959" lon="7.4711332"><ele>522.0</ele><time>2026-05-01T12:00:21.881Z</time></trkpt><trkpt lat="43.892979" lon="7.4712017"><ele>522.0</ele><time>2026-05-01T12:00:22.881Z</time></trkpt><trkpt lat="43.892853" lon="7.4713067"><ele>522.0</ele><time>2026-05-01T12:00:23.881Z</time></trkpt><trkpt lat="43.8927509" lon="7.4714134"><ele>525.0</ele><time>2026-05-01T12:00:24.881Z</time></trkpt><trkpt lat="43.892634" lon="7.4715019"><ele>528.0</ele><time>2026-05-01T12:00:25.881Z</time></trkpt><trkpt lat="43.8925302" lon="7.4715973"><ele>531.0</ele><time>2026-05-01T12:00:26.881Z</time></trkpt><trkpt lat="43.8924209" lon="7.471611"><ele>534.0</ele><time>2026-05-01T12:00:27.881Z</time></trkpt><trkpt lat="43.8922332" lon="7.4716072"><ele>534.0</ele><time>2026-05-01T12:00:28.881Z</time></trkpt><trkpt lat="43.8921323" lon="7.4716397"><ele>534.0</ele><time>2026-05-01T12:00:29.881Z</time></trkpt><trkpt lat="43.8920144" lon="7.4716976"><ele>534.0</ele><time>2026-05-01T12:00:30.881Z</time></trkpt><trkpt lat="43.8919008" lon="7.4717525"><ele>534.0</ele><time>2026-05-01T12:00:31.881Z</time></trkpt><trkpt lat="43.8917916" lon="7.4717828"><ele>530.0</ele><time>2026-05-01T12:00:32.881Z</time></trkpt><trkpt lat="43.8916739" lon="7.4717625"><ele>526.0</ele><time>2026-05-01T12:00:33.882Z</time></trkpt><trkpt lat="43.8915963" lon="7.4717753"><ele>522.0</ele><time>2026-05-01T12:00:34.881Z</time></trkpt><trkpt lat="43.8914906" lon="7.4717889"><ele>518.0</ele><time>2026-05-01T12:00:35.881Z</time></trkpt><trkpt lat="43.8914401" lon="7.4718701"><ele>514.0</ele><time>2026-05-01T12:00:36.881Z</time></trkpt><trkpt lat="43.8913902" lon="7.4720643"><ele>519.75</ele><time>2026-05-01T12:00:37.881Z</time></trkpt><trkpt lat="43.8913202" lon="7.4721658"><ele>525.5</ele><time>2026-05-01T12:00:38.881Z</time></trkpt><trkpt lat="43.8912451" lon="7.4722749"><ele>531.25</ele><time>2026-05-01T12:00:39.882Z</time></trkpt><trkpt lat="43.8911441" lon="7.4723166"><ele>537.0</ele><time>2026-05-01T12:00:40.881Z</time></trkpt><trkpt lat="43.8910019" lon="7.4723327"><ele>532.5</ele><time>2026-05-01T12:00:41.881Z</time></trkpt><trkpt lat="43.8908817" lon="7.472381"><ele>528.0</ele><time>2026-05-01T12:00:42.881Z</time></trkpt><trkpt lat="43.8907562" lon="7.4724512"><ele>523.5</ele><time>2026-05-01T12:00:43.881Z</time></trkpt><trkpt lat="43.8906298" lon="7.4725064"><ele>519.0</ele><time>2026-05-01T12:00:44.881Z</time></trkpt><trkpt lat="43.8905097" lon="7.4725446"><ele>519.0</ele><time>2026-05-01T12:00:45.881Z</time></trkpt><trkpt lat="43.890385" lon="7.472583"><ele>519.0</ele><time>2026-05-01T12:00:46.881Z</time></trkpt><trkpt lat="43.8902532" lon="7.4726412"><ele>519.0</ele><time>2026-05-01T12:00:47.881Z</time></trkpt><trkpt lat="43.8901418" lon="7.4727282"><ele>519.0</ele><time>2026-05-01T12:00:48.881Z</time></trkpt><trkpt lat="43.8900233" lon="7.4728326"><ele>519.0</ele><time>2026-05-01T12:00:49.881Z</time></trkpt><trkpt lat="43.8898988" lon="7.47294"><ele>519.0</ele><time>2026-05-01T12:00:50.881Z</time></trkpt><trkpt lat="43.8897845" lon="7.4730648"><ele>519.0</ele><time>2026-05-01T12:00:51.881Z</time></trkpt><trkpt lat="43.8896819" lon="7.4731987"><ele>519.0</ele><time>2026-05-01T12:00:52.881Z</time></trkpt><trkpt lat="43.8895865" lon="7.4733253"><ele>519.0</ele><time>2026-05-01T12:00:53.881Z</time></trkpt><trkpt lat="43.8895011" lon="7.4734539"><ele>519.0</ele><time>2026-05-01T12:00:54.881Z</time></trkpt><trkpt lat="43.889431" lon="7.4735913"><ele>519.0</ele><time>2026-05-01T12:00:55.881Z</time></trkpt><trkpt lat="43.8893674" lon="7.4737207"><ele>519.0</ele><time>2026-05-01T12:00:56.881Z</time></trkpt><trkpt lat="43.8892691" lon="7.4738317"><ele>515.25</ele><time>2026-05-01T12:00:57.881Z</time></trkpt><trkpt lat="43.8891626" lon="7.4739253"><ele>511.5</ele><time>2026-05-01T12:00:58.881Z</time></trkpt><trkpt lat="43.8890759" lon="7.4740097"><ele>507.75</ele><time>2026-05-01T12:00:59.881Z</time></trkpt><trkpt lat="43.8889544" lon="7.4740925"><ele>504.0</ele><time>2026-05-01T12:01:00.881Z</time></trkpt><trkpt lat="43.8888392" lon="7.474189"><ele>504.0</ele><time>2026-05-01T12:01:01.881Z</time></trkpt><trkpt lat="43.8887403" lon="7.474291"><ele>504.0</ele><time>2026-05-01T12:01:02.881Z</time></trkpt><trkpt lat="43.888646" lon="7.4744017"><ele>504.0</ele><time>2026-05-01T12:01:03.881Z</time></trkpt><trkpt lat="43.8885551" lon="7.4745664"><ele>504.0</ele><time>2026-05-01T12:01:04.881Z</time></trkpt><trkpt lat="43.8884584" lon="7.4747053"><ele>501.75</ele><time>2026-05-01T12:01:05.881Z</time></trkpt><trkpt lat="43.888364" lon="7.4748387"><ele>499.5</ele><time>2026-05-01T12:01:06.881Z</time></trkpt><trkpt lat="43.8882783" lon="7.474957"><ele>497.25</ele><time>2026-05-01T12:01:07.881Z</time></trkpt><trkpt lat="43.8881943" lon="7.475097"><ele>495.0</ele><time>2026-05-01T12:01:08.881Z</time></trkpt><trkpt lat="43.8881152" lon="7.4752349"><ele>495.0</ele><time>2026-05-01T12:01:09.881Z</time></trkpt><trkpt lat="43.8880491" lon="7.4753507"><ele>495.0</ele><time>2026-05-01T12:01:10.881Z</time></trkpt><trkpt lat="43.8879936" lon="7.4754793"><ele>495.0</ele><time>2026-05-01T12:01:11.881Z</time></trkpt><trkpt lat="43.8879514" lon="7.4756267"><ele>495.0</ele><time>2026-05-01T12:01:12.881Z</time></trkpt><trkpt lat="43.8879341" lon="7.4757667"><ele>495.0</ele><time>2026-05-01T12:01:13.881Z</time></trkpt><trkpt lat="43.8879356" lon="7.4759074"><ele>496.6</ele><time>2026-05-01T12:01:14.881Z</time></trkpt><trkpt lat="43.8879434" lon="7.4760472"><ele>498.2</ele><time>2026-05-01T12:01:15.881Z</time></trkpt><trkpt lat="43.8879972" lon="7.4761614"><ele>499.79999999999995</ele><time>2026-05-01T12:01:16.881Z</time></trkpt><trkpt lat="43.8880488" lon="7.47626"><ele>501.4</ele><time>2026-05-01T12:01:17.881Z</time></trkpt><trkpt lat="43.8880988" lon="7.476351"><ele>503.0</ele><time>2026-05-01T12:01:18.881Z</time></trkpt><trkpt lat="43.8881355" lon="7.4764843"><ele>503.0</ele><time>2026-05-01T12:01:20.881Z</time></trkpt><trkpt lat="43.8880548" lon="7.476407"><ele>502.99999999999994</ele><time>2026-05-01T12:01:23.881Z</time></trkpt><trkpt lat="43.8880036" lon="7.4763027"><ele>502.99999999999994</ele><time>2026-05-01T12:01:24.881Z</time></trkpt><trkpt lat="43.8879551" lon="7.4761853"><ele>503.0</ele><time>2026-05-01T12:01:25.881Z</time></trkpt><trkpt lat="43.8878972" lon="7.4760523"><ele>503.0</ele><time>2026-05-01T12:01:26.881Z</time></trkpt><trkpt lat="43.8878262" lon="7.4759258"><ele>503.0</ele><time>2026-05-01T12:01:27.881Z</time></trkpt><trkpt lat="43.8877819" lon="7.4757814"><ele>502.99999999999994</ele><time>2026-05-01T12:01:28.881Z</time></trkpt><trkpt lat="43.8877528" lon="7.4756531"><ele>502.99999999999994</ele><time>2026-05-01T12:01:29.881Z</time></trkpt><trkpt lat="43.8877467" lon="7.4755463"><ele>503.0</ele><time>2026-05-01T12:01:30.881Z</time></trkpt><trkpt lat="43.8877533" lon="7.4754386"><ele>503.0</ele><time>2026-05-01T12:01:31.881Z</time></trkpt><trkpt lat="43.887828" lon="7.4753693"><ele>503.0</ele><time>2026-05-01T12:01:32.881Z</time></trkpt><trkpt lat="43.8878731" lon="7.475297"><ele>502.99999999999994</ele><time>2026-05-01T12:01:33.881Z</time></trkpt><trkpt lat="43.8879005" lon="7.4752002"><ele>502.99999999999994</ele><time>2026-05-01T12:01:34.881Z</time></trkpt><trkpt lat="43.887754" lon="7.4752592"><ele>503.0</ele><time>2026-05-01T12:01:37.881Z</time></trkpt><trkpt lat="43.8877117" lon="7.4753647"><ele>503.0</ele><time>2026-05-01T12:01:38.881Z</time></trkpt><trkpt lat="43.8876556" lon="7.4754748"><ele>503.0</ele><time>2026-05-01T12:01:39.881Z</time></trkpt><trkpt lat="43.887601" lon="7.4756179"><ele>503.0</ele><time>2026-05-01T12:01:40.881Z</time></trkpt><trkpt lat="43.8876396" lon="7.4757881"><ele>503.0</ele><time>2026-05-01T12:01:41.881Z</time></trkpt><trkpt lat="43.8876602" lon="7.47596"><ele>503.0</ele><time>2026-05-01T12:01:42.881Z</time></trkpt><trkpt lat="43.8877005" lon="7.4761417"><ele>499.0</ele><time>2026-05-01T12:01:43.881Z</time></trkpt><trkpt lat="43.8877287" lon="7.4763155"><ele>494.99999999999994</ele><time>2026-05-01T12:01:44.881Z</time></trkpt><trkpt lat="43.8877986" lon="7.4764512"><ele>490.99999999999994</ele><time>2026-05-01T12:01:45.881Z</time></trkpt><trkpt lat="43.8878531" lon="7.4765618"><ele>487.0</ele><time>2026-05-01T12:01:46.881Z</time></trkpt><trkpt lat="43.8878941" lon="7.4766734"><ele>483.0</ele><time>2026-05-01T12:01:47.881Z</time></trkpt><trkpt lat="43.8879224" lon="7.4767696"><ele>483.0</ele><time>2026-05-01T12:01:48.881Z</time></trkpt><trkpt lat="43.8880087" lon="7.4768324"><ele>483.0</ele><time>2026-05-01T12:01:50.881Z</time></trkpt><trkpt lat="43.8878857" lon="7.4767235"><ele>483.0</ele><time>2026-05-01T12:01:54.881Z</time></trkpt><trkpt lat="43.8878185" lon="7.4766019"><ele>483.0</ele><time>2026-05-01T12:01:55.881Z</time></trkpt><trkpt lat="43.8877395" lon="7.4764966"><ele>483.0</ele><time>2026-05-01T12:01:56.881Z</time></trkpt><trkpt lat="43.887659" lon="7.4763882"><ele>483.0</ele><time>2026-05-01T12:01:57.881Z</time></trkpt><trkpt lat="43.8875761" lon="7.4762444"><ele>483.0</ele><time>2026-05-01T12:01:58.881Z</time></trkpt><trkpt lat="43.8875046" lon="7.4760799"><ele>483.0</ele><time>2026-05-01T12:01:59.881Z</time></trkpt><trkpt lat="43.8874382" lon="7.4759144"><ele>479.59999999999997</ele><time>2026-05-01T12:02:00.882Z</time></trkpt><trkpt lat="43.8873726" lon="7.4757575"><ele>476.19999999999993</ele><time>2026-05-01T12:02:01.881Z</time></trkpt><trkpt lat="43.8873441" lon="7.4756321"><ele>472.8</ele><time>2026-05-01T12:02:02.881Z</time></trkpt><trkpt lat="43.8873171" lon="7.4755134"><ele>469.4</ele><time>2026-05-01T12:02:03.881Z</time></trkpt><trkpt lat="43.8873161" lon="7.4753903"><ele>466.0</ele><time>2026-05-01T12:02:04.881Z</time></trkpt><trkpt lat="43.8873194" lon="7.4752638"><ele>464.75</ele><time>2026-05-01T12:02:05.881Z</time></trkpt><trkpt lat="43.8874059" lon="7.4751699"><ele>463.5</ele><time>2026-05-01T12:02:06.881Z</time></trkpt><trkpt lat="43.887515" lon="7.4750275"><ele>462.25</ele><time>2026-05-01T12:02:07.881Z</time></trkpt><trkpt lat="43.8875944" lon="7.4748868"><ele>461.0</ele><time>2026-05-01T12:02:08.881Z</time></trkpt><trkpt lat="43.8876711" lon="7.4747443"><ele>464.20000000000005</ele><time>2026-05-01T12:02:09.881Z</time></trkpt><trkpt lat="43.8877227" lon="7.4746263"><ele>467.40000000000003</ele><time>2026-05-01T12:02:10.881Z</time></trkpt><trkpt lat="43.8877826" lon="7.474523"><ele>470.6</ele><time>2026-05-01T12:02:11.881Z</time></trkpt><trkpt lat="43.8878442" lon="7.474441"><ele>473.8</ele><time>2026-05-01T12:02:12.882Z</time></trkpt><trkpt lat="43.8879252" lon="7.474287"><ele>477.0</ele><time>2026-05-01T12:02:14.881Z</time></trkpt><trkpt lat="43.8878646" lon="7.4741641"><ele>477.0</ele><time>2026-05-01T12:02:16.881Z</time></trkpt><trkpt lat="43.88777" lon="7.4742155"><ele>477.0</ele><time>2026-05-01T12:02:18.881Z</time></trkpt><trkpt lat="43.8877253" lon="7.4743566"><ele>477.0</ele><time>2026-05-01T12:02:19.881Z</time></trkpt><trkpt lat="43.8876629" lon="7.474499"><ele>477.0</ele><time>2026-05-01T12:02:20.882Z</time></trkpt><trkpt lat="43.8875849" lon="7.4746479"><ele>473.0</ele><time>2026-05-01T12:02:21.881Z</time></trkpt><trkpt lat="43.8875152" lon="7.4747597"><ele>469.0</ele><time>2026-05-01T12:02:22.881Z</time></trkpt><trkpt lat="43.8873896" lon="7.474872"><ele>465.0</ele><time>2026-05-01T12:02:23.881Z</time></trkpt><trkpt lat="43.8872777" lon="7.4749568"><ele>461.0</ele><time>2026-05-01T12:02:24.881Z</time></trkpt><trkpt lat="43.8871776" lon="7.4750567"><ele>461.0</ele><time>2026-05-01T12:02:25.881Z</time></trkpt><trkpt lat="43.8870891" lon="7.4751578"><ele>461.0</ele><time>2026-05-01T12:02:26.881Z</time></trkpt><trkpt lat="43.8870118" lon="7.4752643"><ele>461.0</ele><time>2026-05-01T12:02:27.881Z</time></trkpt><trkpt lat="43.886941" lon="7.4754286"><ele>461.0</ele><time>2026-05-01T12:02:28.881Z</time></trkpt><trkpt lat="43.8869101" lon="7.4755889"><ele>462.0</ele><time>2026-05-01T12:02:29.881Z</time></trkpt><trkpt lat="43.886966" lon="7.4757572"><ele>463.0</ele><time>2026-05-01T12:02:30.881Z</time></trkpt><trkpt lat="43.8870062" lon="7.4759133"><ele>464.0</ele><time>2026-05-01T12:02:31.881Z</time></trkpt><trkpt lat="43.8870413" lon="7.4760538"><ele>465.0</ele><time>2026-05-01T12:02:32.881Z</time></trkpt><trkpt lat="43.8870747" lon="7.4761585"><ele>466.0</ele><time>2026-05-01T12:02:33.881Z</time></trkpt><trkpt lat="43.8871113" lon="7.4762744"><ele>466.0</ele><time>2026-05-01T12:02:34.881Z</time></trkpt><trkpt lat="43.8870304" lon="7.4763159"><ele>466.0</ele><time>2026-05-01T12:02:37.881Z</time></trkpt><trkpt lat="43.8869549" lon="7.476189"><ele>466.0</ele><time>2026-05-01T12:02:39.881Z</time></trkpt><trkpt lat="43.8869048" lon="7.4761069"><ele>466.0</ele><time>2026-05-01T12:02:40.881Z</time></trkpt><trkpt lat="43.8868634" lon="7.4759124"><ele>466.0</ele><time>2026-05-01T12:02:41.881Z</time></trkpt><trkpt lat="43.8868114" lon="7.4757519"><ele>466.0</ele><time>2026-05-01T12:02:42.881Z</time></trkpt><trkpt lat="43.8867616" lon="7.4755888"><ele>466.0</ele><time>2026-05-01T12:02:43.881Z</time></trkpt><trkpt lat="43.886723" lon="7.4754237"><ele>466.0</ele><time>2026-05-01T12:02:44.881Z</time></trkpt><trkpt lat="43.8867141" lon="7.475271"><ele>466.0</ele><time>2026-05-01T12:02:45.882Z</time></trkpt><trkpt lat="43.8867362" lon="7.4751174"><ele>464.75</ele><time>2026-05-01T12:02:46.881Z</time></trkpt><trkpt lat="43.8867564" lon="7.4749741"><ele>463.5</ele><time>2026-05-01T12:02:47.881Z</time></trkpt><trkpt lat="43.8868579" lon="7.4748234"><ele>462.25</ele><time>2026-05-01T12:02:48.881Z</time></trkpt><trkpt lat="43.8869711" lon="7.4746876"><ele>461.0</ele><time>2026-05-01T12:02:49.881Z</time></trkpt><trkpt lat="43.8870752" lon="7.4745534"><ele>457.25</ele><time>2026-05-01T12:02:50.881Z</time></trkpt><trkpt lat="43.8871707" lon="7.474422"><ele>453.5</ele><time>2026-05-01T12:02:51.881Z</time></trkpt><trkpt lat="43.8872669" lon="7.4742535"><ele>449.75</ele><time>2026-05-01T12:02:52.881Z</time></trkpt><trkpt lat="43.8873419" lon="7.4740996"><ele>446.0</ele><time>2026-05-01T12:02:53.881Z</time></trkpt><trkpt lat="43.8873855" lon="7.4739194"><ele>442.25</ele><time>2026-05-01T12:02:54.881Z</time></trkpt><trkpt lat="43.8873918" lon="7.4737157"><ele>438.5</ele><time>2026-05-01T12:02:55.881Z</time></trkpt><trkpt lat="43.8874075" lon="7.4735411"><ele>434.75</ele><time>2026-05-01T12:02:56.881Z</time></trkpt><trkpt lat="43.8874263" lon="7.4733632"><ele>431.0</ele><time>2026-05-01T12:02:57.881Z</time></trkpt><trkpt lat="43.8874772" lon="7.4731735"><ele>431.0</ele><time>2026-05-01T12:02:58.882Z</time></trkpt><trkpt lat="43.8875313" lon="7.4729896"><ele>431.0</ele><time>2026-05-01T12:02:59.881Z</time></trkpt><trkpt lat="43.8875944" lon="7.4728199"><ele>431.0</ele><time>2026-05-01T12:03:00.882Z</time></trkpt><trkpt lat="43.8876619" lon="7.4726307"><ele>431.0</ele><time>2026-05-01T12:03:01.881Z</time></trkpt><trkpt lat="43.8877282" lon="7.472468"><ele>429.25</ele><time>2026-05-01T12:03:02.882Z</time></trkpt><trkpt lat="43.8877981" lon="7.4723126"><ele>427.5</ele><time>2026-05-01T12:03:03.881Z</time></trkpt><trkpt lat="43.8878761" lon="7.4721459"><ele>425.75</ele><time>2026-05-01T12:03:04.881Z</time></trkpt><trkpt lat="43.8879642" lon="7.4719928"><ele>424.0</ele><time>2026-05-01T12:03:05.881Z</time></trkpt><trkpt lat="43.8880548" lon="7.4718254"><ele>424.0</ele><time>2026-05-01T12:03:06.881Z</time></trkpt><trkpt lat="43.888141" lon="7.4716455"><ele>424.0</ele><time>2026-05-01T12:03:07.881Z</time></trkpt><trkpt lat="43.8882387" lon="7.4714578"><ele>424.0</ele><time>2026-05-01T12:03:08.881Z</time></trkpt><trkpt lat="43.8883289" lon="7.4712789"><ele>424.6666666666667</ele><time>2026-05-01T12:03:09.881Z</time></trkpt><trkpt lat="43.8884349" lon="7.4711278"><ele>425.33333333333337</ele><time>2026-05-01T12:03:10.881Z</time></trkpt><trkpt lat="43.8885143" lon="7.4709435"><ele>426.0</ele><time>2026-05-01T12:03:11.881Z</time></trkpt><trkpt lat="43.8885773" lon="7.4707476"><ele>426.0</ele><time>2026-05-01T12:03:12.881Z</time></trkpt><trkpt lat="43.888645" lon="7.4705564"><ele>426.0</ele><time>2026-05-01T12:03:13.882Z</time></trkpt><trkpt lat="43.8887092" lon="7.4703604"><ele>426.0</ele><time>2026-05-01T12:03:14.881Z</time></trkpt><trkpt lat="43.8887698" lon="7.4701722"><ele>422.33333333333337</ele><time>2026-05-01T12:03:15.881Z</time></trkpt><trkpt lat="43.8888377" lon="7.4699864"><ele>418.6666666666667</ele><time>2026-05-01T12:03:16.881Z</time></trkpt><trkpt lat="43.8889292" lon="7.4698067"><ele>415.0</ele><time>2026-05-01T12:03:17.881Z</time></trkpt><trkpt lat="43.8890221" lon="7.469647"><ele>418.0</ele><time>2026-05-01T12:03:18.881Z</time></trkpt><trkpt lat="43.8891196" lon="7.469496"><ele>421.0</ele><time>2026-05-01T12:03:19.881Z</time></trkpt><trkpt lat="43.8892199" lon="7.4693183"><ele>424.0</ele><time>2026-05-01T12:03:20.882Z</time></trkpt><trkpt lat="43.8892629" lon="7.4691517"><ele>427.0</ele><time>2026-05-01T12:03:21.881Z</time></trkpt><trkpt lat="43.8893008" lon="7.4689729"><ele>424.0</ele><time>2026-05-01T12:03:22.881Z</time></trkpt><trkpt lat="43.8893201" lon="7.4687742"><ele>421.0</ele><time>2026-05-01T12:03:23.881Z</time></trkpt><trkpt lat="43.8893352" lon="7.4685679"><ele>418.0</ele><time>2026-05-01T12:03:24.881Z</time></trkpt><trkpt lat="43.8893549" lon="7.4683613"><ele>415.0</ele><time>2026-05-01T12:03:25.882Z</time></trkpt><trkpt lat="43.8893709" lon="7.4681672"><ele>415.0</ele><time>2026-05-01T12:03:26.881Z</time></trkpt><trkpt lat="43.8893807" lon="7.4679833"><ele>415.0</ele><time>2026-05-01T12:03:27.881Z</time></trkpt><trkpt lat="43.8893885" lon="7.4678143"><ele>415.0</ele><time>2026-05-01T12:03:28.881Z</time></trkpt><trkpt lat="43.889402" lon="7.467646"><ele>415.0</ele><time>2026-05-01T12:03:29.881Z</time></trkpt><trkpt lat="43.8894004" lon="7.4674822"><ele>415.8</ele><time>2026-05-01T12:03:30.881Z</time></trkpt><trkpt lat="43.8893721" lon="7.4673872"><ele>416.6</ele><time>2026-05-01T12:03:31.881Z</time></trkpt><trkpt lat="43.8893378" lon="7.4672792"><ele>417.4</ele><time>2026-05-01T12:03:32.881Z</time></trkpt><trkpt lat="43.8891988" lon="7.4671941"><ele>418.2</ele><time>2026-05-01T12:03:33.881Z</time></trkpt><trkpt lat="43.889114" lon="7.4671089"><ele>419.0</ele><time>2026-05-01T12:03:34.881Z</time></trkpt><trkpt lat="43.8890146" lon="7.4670797"><ele>413.5</ele><time>2026-05-01T12:03:35.881Z</time></trkpt><trkpt lat="43.8888809" lon="7.4671452"><ele>408.0</ele><time>2026-05-01T12:03:36.881Z</time></trkpt><trkpt lat="43.8887591" lon="7.4672106"><ele>402.5</ele><time>2026-05-01T12:03:37.881Z</time></trkpt><trkpt lat="43.8886672" lon="7.4673139"><ele>397.0</ele><time>2026-05-01T12:03:38.881Z</time></trkpt><trkpt lat="43.8885938" lon="7.4674776"><ele>397.0</ele><time>2026-05-01T12:03:39.881Z</time></trkpt><trkpt lat="43.8885468" lon="7.4676292"><ele>397.0</ele><time>2026-05-01T12:03:40.881Z</time></trkpt><trkpt lat="43.8885023" lon="7.4677727"><ele>397.0</ele><time>2026-05-01T12:03:41.881Z</time></trkpt><trkpt lat="43.8884617" lon="7.4678944"><ele>397.0</ele><time>2026-05-01T12:03:42.881Z</time></trkpt><trkpt lat="43.8883951" lon="7.4679565"><ele>397.0</ele><time>2026-05-01T12:03:43.881Z</time></trkpt><trkpt lat="43.8883196" lon="7.4680061"><ele>395.25</ele><time>2026-05-01T12:03:44.882Z</time></trkpt><trkpt lat="43.8882068" lon="7.4680626"><ele>393.5</ele><time>2026-05-01T12:03:45.881Z</time></trkpt><trkpt lat="43.8880986" lon="7.4681079"><ele>391.75</ele><time>2026-05-01T12:03:46.881Z</time></trkpt><trkpt lat="43.8879833" lon="7.4681443"><ele>390.0</ele><time>2026-05-01T12:03:47.881Z</time></trkpt><trkpt lat="43.8878305" lon="7.4682147"><ele>390.0</ele><time>2026-05-01T12:03:48.881Z</time></trkpt><trkpt lat="43.887697" lon="7.4682699"><ele>390.0</ele><time>2026-05-01T12:03:49.881Z</time></trkpt><trkpt lat="43.8875656" lon="7.4683462"><ele>390.0</ele><time>2026-05-01T12:03:50.881Z</time></trkpt><trkpt lat="43.887463" lon="7.4684642"><ele>390.0</ele><time>2026-05-01T12:03:51.881Z</time></trkpt><trkpt lat="43.8873775" lon="7.4685943"><ele>389.2</ele><time>2026-05-01T12:03:52.882Z</time></trkpt><trkpt lat="43.8873217" lon="7.4687226"><ele>388.4</ele><time>2026-05-01T12:03:53.882Z</time></trkpt><trkpt lat="43.8872772" lon="7.46884"><ele>387.6</ele><time>2026-05-01T12:03:54.881Z</time></trkpt><trkpt lat="43.8872096" lon="7.4689543"><ele>386.8</ele><time>2026-05-01T12:03:55.881Z</time></trkpt><trkpt lat="43.8871153" lon="7.469049"><ele>386.0</ele><time>2026-05-01T12:03:56.882Z</time></trkpt><trkpt lat="43.8870288" lon="7.4691464"><ele>386.0</ele><time>2026-05-01T12:03:57.881Z</time></trkpt><trkpt lat="43.8868888" lon="7.4691985"><ele>386.0</ele><time>2026-05-01T12:03:58.881Z</time></trkpt><trkpt lat="43.8867624" lon="7.4692457"><ele>386.0</ele><time>2026-05-01T12:03:59.881Z</time></trkpt><trkpt lat="43.8866417" lon="7.4693101"><ele>386.0</ele><time>2026-05-01T12:04:00.881Z</time></trkpt><trkpt lat="43.8865187" lon="7.4694287"><ele>384.75</ele><time>2026-05-01T12:04:01.881Z</time></trkpt><trkpt lat="43.886408" lon="7.469534"><ele>383.5</ele><time>2026-05-01T12:04:02.881Z</time></trkpt><trkpt lat="43.8863171" lon="7.4696717"><ele>382.25</ele><time>2026-05-01T12:04:03.881Z</time></trkpt><trkpt lat="43.8862043" lon="7.46978"><ele>381.0</ele><time>2026-05-01T12:04:04.881Z</time></trkpt><trkpt lat="43.8860846" lon="7.4698934"><ele>381.0</ele><time>2026-05-01T12:04:05.881Z</time></trkpt><trkpt lat="43.8859497" lon="7.4699727"><ele>381.0</ele><time>2026-05-01T12:04:06.882Z</time></trkpt><trkpt lat="43.8858057" lon="7.4700694"><ele>381.0</ele><time>2026-05-01T12:04:07.881Z</time></trkpt><trkpt lat="43.8856564" lon="7.4701336"><ele>381.25</ele><time>2026-05-01T12:04:08.881Z</time></trkpt><trkpt lat="43.8855271" lon="7.4701735"><ele>381.5</ele><time>2026-05-01T12:04:09.882Z</time></trkpt><trkpt lat="43.8853992" lon="7.4702096"><ele>381.75</ele><time>2026-05-01T12:04:10.881Z</time></trkpt><trkpt lat="43.8852718" lon="7.4702557"><ele>382.0</ele><time>2026-05-01T12:04:11.881Z</time></trkpt><trkpt lat="43.8851546" lon="7.4702971"><ele>381.8</ele><time>2026-05-01T12:04:12.881Z</time></trkpt><trkpt lat="43.885039" lon="7.4703391"><ele>381.6</ele><time>2026-05-01T12:04:13.881Z</time></trkpt><trkpt lat="43.8849344" lon="7.470377"><ele>381.40000000000003</ele><time>2026-05-01T12:04:14.881Z</time></trkpt><trkpt lat="43.8848298" lon="7.4703593"><ele>381.20000000000005</ele><time>2026-05-01T12:04:15.881Z</time></trkpt><trkpt lat="43.8847297" lon="7.4703401"><ele>381.0</ele><time>2026-05-01T12:04:16.881Z</time></trkpt><trkpt lat="43.8846586" lon="7.4702411"><ele>381.0</ele><time>2026-05-01T12:04:17.881Z</time></trkpt><trkpt lat="43.8845627" lon="7.4701362"><ele>381.0</ele><time>2026-05-01T12:04:18.881Z</time></trkpt><trkpt lat="43.8844911" lon="7.4700113"><ele>381.0</ele><time>2026-05-01T12:04:19.881Z</time></trkpt><trkpt lat="43.8844002" lon="7.469878"><ele>381.0</ele><time>2026-05-01T12:04:20.881Z</time></trkpt><trkpt lat="43.8843194" lon="7.4697469"><ele>379.5</ele><time>2026-05-01T12:04:21.881Z</time></trkpt><trkpt lat="43.8842555" lon="7.4695834"><ele>378.0</ele><time>2026-05-01T12:04:22.881Z</time></trkpt><trkpt lat="43.8842201" lon="7.4694208"><ele>376.5</ele><time>2026-05-01T12:04:23.881Z</time></trkpt><trkpt lat="43.884182" lon="7.4692531"><ele>375.0</ele><time>2026-05-01T12:04:24.881Z</time></trkpt><trkpt lat="43.884135" lon="7.4690878"><ele>375.0</ele><time>2026-05-01T12:04:25.881Z</time></trkpt><trkpt lat="43.8840814" lon="7.4689367"><ele>375.0</ele><time>2026-05-01T12:04:26.881Z</time></trkpt><trkpt lat="43.8840181" lon="7.4687965"><ele>375.0</ele><time>2026-05-01T12:04:27.881Z</time></trkpt><trkpt lat="43.8839401" lon="7.4686665"><ele>375.0</ele><time>2026-05-01T12:04:28.881Z</time></trkpt><trkpt lat="43.8838483" lon="7.468543"><ele>377.0</ele><time>2026-05-01T12:04:29.881Z</time></trkpt><trkpt lat="43.8837484" lon="7.4684293"><ele>379.0</ele><time>2026-05-01T12:04:30.881Z</time></trkpt><trkpt lat="43.8836571" lon="7.4683343"><ele>381.0</ele><time>2026-05-01T12:04:31.881Z</time></trkpt><trkpt lat="43.8835265" lon="7.4682748"><ele>383.0</ele><time>2026-05-01T12:04:32.882Z</time></trkpt><trkpt lat="43.8834339" lon="7.4682195"><ele>381.0</ele><time>2026-05-01T12:04:33.881Z</time></trkpt><trkpt lat="43.883325" lon="7.4681416"><ele>379.0</ele><time>2026-05-01T12:04:34.881Z</time></trkpt><trkpt lat="43.8832273" lon="7.4680628"><ele>377.0</ele><time>2026-05-01T12:04:35.881Z</time></trkpt><trkpt lat="43.8831832" lon="7.4679237"><ele>375.0</ele><time>2026-05-01T12:04:36.881Z</time></trkpt><trkpt lat="43.883118" lon="7.4677721"><ele>375.0</ele><time>2026-05-01T12:04:37.881Z</time></trkpt><trkpt lat="43.8830425" lon="7.4676181"><ele>375.0</ele><time>2026-05-01T12:04:38.881Z</time></trkpt><trkpt lat="43.8829522" lon="7.4674678"><ele>375.0</ele><time>2026-05-01T12:04:39.881Z</time></trkpt><trkpt lat="43.8828642" lon="7.4673215"><ele>375.0</ele><time>2026-05-01T12:04:40.881Z</time></trkpt><trkpt lat="43.8827469" lon="7.467195"><ele>373.25</ele><time>2026-05-01T12:04:41.881Z</time></trkpt><trkpt lat="43.8826484" lon="7.4670572"><ele>371.5</ele><time>2026-05-01T12:04:42.881Z</time></trkpt><trkpt lat="43.8825502" lon="7.4669039"><ele>369.75</ele><time>2026-05-01T12:04:43.881Z</time></trkpt><trkpt lat="43.8824573" lon="7.4667286"><ele>368.0</ele><time>2026-05-01T12:04:44.881Z</time></trkpt><trkpt lat="43.8823666" lon="7.4665682"><ele>368.0</ele><time>2026-05-01T12:04:45.881Z</time></trkpt><trkpt lat="43.8822855" lon="7.4664281"><ele>368.0</ele><time>2026-05-01T12:04:46.881Z</time></trkpt><trkpt lat="43.8822115" lon="7.4662659"><ele>368.0</ele><time>2026-05-01T12:04:47.881Z</time></trkpt><trkpt lat="43.8821415" lon="7.4661181"><ele>368.0</ele><time>2026-05-01T12:04:48.881Z</time></trkpt><trkpt lat="43.8820931" lon="7.4659707"><ele>370.0</ele><time>2026-05-01T12:04:49.881Z</time></trkpt><trkpt lat="43.8820515" lon="7.4658215"><ele>372.0</ele><time>2026-05-01T12:04:50.881Z</time></trkpt><trkpt lat="43.8820163" lon="7.4656448"><ele>374.0</ele><time>2026-05-01T12:04:51.881Z</time></trkpt><trkpt lat="43.8819928" lon="7.465466"><ele>376.0</ele><time>2026-05-01T12:04:52.881Z</time></trkpt><trkpt lat="43.8819716" lon="7.4652892"><ele>376.6</ele><time>2026-05-01T12:04:53.882Z</time></trkpt><trkpt lat="43.8819562" lon="7.4651281"><ele>377.20000000000005</ele><time>2026-05-01T12:04:54.881Z</time></trkpt><trkpt lat="43.881955" lon="7.4649758"><ele>377.79999999999995</ele><time>2026-05-01T12:04:55.881Z</time></trkpt><trkpt lat="43.8819628" lon="7.4648223"><ele>378.4</ele><time>2026-05-01T12:04:56.881Z</time></trkpt><trkpt lat="43.8819368" lon="7.4646895"><ele>379.0</ele><time>2026-05-01T12:04:57.881Z</time></trkpt><trkpt lat="43.8818952" lon="7.4645652"><ele>381.5</ele><time>2026-05-01T12:04:58.881Z</time></trkpt><trkpt lat="43.8818375" lon="7.4644507"><ele>384.0</ele><time>2026-05-01T12:04:59.881Z</time></trkpt><trkpt lat="43.8817776" lon="7.4643383"><ele>386.5</ele><time>2026-05-01T12:05:00.881Z</time></trkpt><trkpt lat="43.881692" lon="7.4642116"><ele>389.0</ele><time>2026-05-01T12:05:01.881Z</time></trkpt><trkpt lat="43.8815866" lon="7.4640764"><ele>384.5</ele><time>2026-05-01T12:05:02.881Z</time></trkpt><trkpt lat="43.8814927" lon="7.463942"><ele>380.0</ele><time>2026-05-01T12:05:03.881Z</time></trkpt><trkpt lat="43.8814065" lon="7.4637849"><ele>375.5</ele><time>2026-05-01T12:05:04.881Z</time></trkpt><trkpt lat="43.8813222" lon="7.4636394"><ele>371.0</ele><time>2026-05-01T12:05:05.881Z</time></trkpt><trkpt lat="43.8812403" lon="7.463503"><ele>371.0</ele><time>2026-05-01T12:05:06.881Z</time></trkpt><trkpt lat="43.8811671" lon="7.4633643"><ele>371.0</ele><time>2026-05-01T12:05:07.882Z</time></trkpt><trkpt lat="43.8810938" lon="7.4632202"><ele>371.0</ele><time>2026-05-01T12:05:08.881Z</time></trkpt><trkpt lat="43.8810362" lon="7.4630837"><ele>371.0</ele><time>2026-05-01T12:05:09.881Z</time></trkpt><trkpt lat="43.8809697" lon="7.4629517"><ele>368.5</ele><time>2026-05-01T12:05:10.881Z</time></trkpt><trkpt lat="43.8808955" lon="7.4628182"><ele>366.0</ele><time>2026-05-01T12:05:11.882Z</time></trkpt><trkpt lat="43.8807876" lon="7.4626942"><ele>363.5</ele><time>2026-05-01T12:05:12.881Z</time></trkpt><trkpt lat="43.8806923" lon="7.4625777"><ele>361.0</ele><time>2026-05-01T12:05:13.881Z</time></trkpt><trkpt lat="43.8805961" lon="7.4624577"><ele>361.0</ele><time>2026-05-01T12:05:14.881Z</time></trkpt><trkpt lat="43.8804947" lon="7.4623254"><ele>361.0</ele><time>2026-05-01T12:05:15.881Z</time></trkpt><trkpt lat="43.880419" lon="7.4621867"><ele>361.0</ele><time>2026-05-01T12:05:16.881Z</time></trkpt><trkpt lat="43.8803533" lon="7.462037"><ele>361.0</ele><time>2026-05-01T12:05:17.881Z</time></trkpt><trkpt lat="43.8802895" lon="7.4618797"><ele>362.8</ele><time>2026-05-01T12:05:18.881Z</time></trkpt><trkpt lat="43.880281" lon="7.4617453"><ele>364.6</ele><time>2026-05-01T12:05:19.881Z</time></trkpt><trkpt lat="43.8802961" lon="7.4616067"><ele>366.4</ele><time>2026-05-01T12:05:20.881Z</time></trkpt><trkpt lat="43.8803083" lon="7.4614758"><ele>368.2</ele><time>2026-05-01T12:05:21.881Z</time></trkpt><trkpt lat="43.880337" lon="7.4613518"><ele>370.0</ele><time>2026-05-01T12:05:22.881Z</time></trkpt><trkpt lat="43.8803559" lon="7.4612179"><ele>371.2</ele><time>2026-05-01T12:05:23.881Z</time></trkpt><trkpt lat="43.8803492" lon="7.4611116"><ele>372.4</ele><time>2026-05-01T12:05:24.881Z</time></trkpt><trkpt lat="43.8802537" lon="7.4610567"><ele>373.6</ele><time>2026-05-01T12:05:25.881Z</time></trkpt><trkpt lat="43.8801741" lon="7.4609874"><ele>374.8</ele><time>2026-05-01T12:05:26.881Z</time></trkpt><trkpt lat="43.880096" lon="7.4609275"><ele>376.0</ele><time>2026-05-01T12:05:27.882Z</time></trkpt><trkpt lat="43.8800151" lon="7.4608485"><ele>371.6</ele><time>2026-05-01T12:05:28.881Z</time></trkpt><trkpt lat="43.879959" lon="7.4607595"><ele>367.20000000000005</ele><time>2026-05-01T12:05:29.881Z</time></trkpt><trkpt lat="43.8799334" lon="7.4606244"><ele>362.79999999999995</ele><time>2026-05-01T12:05:30.881Z</time></trkpt><trkpt lat="43.8799201" lon="7.4604652"><ele>358.4</ele><time>2026-05-01T12:05:31.881Z</time></trkpt><trkpt lat="43.8799075" lon="7.4603106"><ele>354.0</ele><time>2026-05-01T12:05:32.881Z</time></trkpt><trkpt lat="43.8798874" lon="7.460154"><ele>354.0</ele><time>2026-05-01T12:05:33.881Z</time></trkpt><trkpt lat="43.8798527" lon="7.4599995"><ele>354.0</ele><time>2026-05-01T12:05:34.881Z</time></trkpt><trkpt lat="43.8798114" lon="7.459842"><ele>354.0</ele><time>2026-05-01T12:05:35.881Z</time></trkpt><trkpt lat="43.8797781" lon="7.4596849"><ele>354.0</ele><time>2026-05-01T12:05:36.882Z</time></trkpt><trkpt lat="43.8797457" lon="7.4595437"><ele>355.0</ele><time>2026-05-01T12:05:37.881Z</time></trkpt><trkpt lat="43.8797024" lon="7.4594012"><ele>356.0</ele><time>2026-05-01T12:05:38.881Z</time></trkpt><trkpt lat="43.8796722" lon="7.459258"><ele>357.0</ele><time>2026-05-01T12:05:39.882Z</time></trkpt><trkpt lat="43.8796455" lon="7.4591103"><ele>358.0</ele><time>2026-05-01T12:05:40.881Z</time></trkpt><trkpt lat="43.8796267" lon="7.4589499"><ele>359.0</ele><time>2026-05-01T12:05:41.881Z</time></trkpt><trkpt lat="43.8796033" lon="7.4588009"><ele>359.0</ele><time>2026-05-01T12:05:42.881Z</time></trkpt><trkpt lat="43.8795857" lon="7.4586277"><ele>359.0</ele><time>2026-05-01T12:05:43.881Z</time></trkpt><trkpt lat="43.8795612" lon="7.4584502"><ele>359.0</ele><time>2026-05-01T12:05:44.881Z</time></trkpt><trkpt lat="43.8795483" lon="7.45827"><ele>359.0</ele><time>2026-05-01T12:05:45.881Z</time></trkpt><trkpt lat="43.8795158" lon="7.4580919"><ele>359.25</ele><time>2026-05-01T12:05:46.881Z</time></trkpt><trkpt lat="43.8794967" lon="7.4579171"><ele>359.5</ele><time>2026-05-01T12:05:47.881Z</time></trkpt><trkpt lat="43.8794719" lon="7.4577303"><ele>359.75</ele><time>2026-05-01T12:05:48.881Z</time></trkpt><trkpt lat="43.8794433" lon="7.4575428"><ele>360.0</ele><time>2026-05-01T12:05:49.882Z</time></trkpt><trkpt lat="43.8794079" lon="7.4573503"><ele>360.0</ele><time>2026-05-01T12:05:50.881Z</time></trkpt><trkpt lat="43.8793817" lon="7.4571587"><ele>360.0</ele><time>2026-05-01T12:05:51.881Z</time></trkpt><trkpt lat="43.8793456" lon="7.4569604"><ele>360.0</ele><time>2026-05-01T12:05:52.882Z</time></trkpt><trkpt lat="43.8793149" lon="7.4567872"><ele>360.0</ele><time>2026-05-01T12:05:53.881Z</time></trkpt><trkpt lat="43.8792702" lon="7.4565936"><ele>356.75</ele><time>2026-05-01T12:05:54.881Z</time></trkpt><trkpt lat="43.8792363" lon="7.4563964"><ele>353.5</ele><time>2026-05-01T12:05:55.881Z</time></trkpt><trkpt lat="43.8791956" lon="7.4561959"><ele>350.25</ele><time>2026-05-01T12:05:56.881Z</time></trkpt><trkpt lat="43.8791406" lon="7.456004"><ele>347.0</ele><time>2026-05-01T12:05:57.881Z</time></trkpt><trkpt lat="43.8790838" lon="7.4558258"><ele>347.0</ele><time>2026-05-01T12:05:58.881Z</time></trkpt><trkpt lat="43.8790253" lon="7.4556456"><ele>347.0</ele><time>2026-05-01T12:05:59.881Z</time></trkpt><trkpt lat="43.8789705" lon="7.4554764"><ele>347.0</ele><time>2026-05-01T12:06:00.881Z</time></trkpt><trkpt lat="43.8789409" lon="7.4553231"><ele>347.0</ele><time>2026-05-01T12:06:01.881Z</time></trkpt><trkpt lat="43.878877" lon="7.4551588"><ele>348.40000000000003</ele><time>2026-05-01T12:06:02.881Z</time></trkpt><trkpt lat="43.8788495" lon="7.455045"><ele>349.8</ele><time>2026-05-01T12:06:03.881Z</time></trkpt><trkpt lat="43.8788029" lon="7.4549135"><ele>351.2</ele><time>2026-05-01T12:06:04.881Z</time></trkpt><trkpt lat="43.8787668" lon="7.4547758"><ele>352.6</ele><time>2026-05-01T12:06:05.881Z</time></trkpt><trkpt lat="43.8787279" lon="7.4546238"><ele>354.0</ele><time>2026-05-01T12:06:06.881Z</time></trkpt><trkpt lat="43.8786967" lon="7.4544711"><ele>354.6</ele><time>2026-05-01T12:06:07.881Z</time></trkpt><trkpt lat="43.8786583" lon="7.4543248"><ele>355.2</ele><time>2026-05-01T12:06:08.881Z</time></trkpt><trkpt lat="43.8786219" lon="7.4541725"><ele>355.8</ele><time>2026-05-01T12:06:09.881Z</time></trkpt><trkpt lat="43.8785787" lon="7.4540255"><ele>356.40000000000003</ele><time>2026-05-01T12:06:10.881Z</time></trkpt><trkpt lat="43.8785441" lon="7.4538851"><ele>357.0</ele><time>2026-05-01T12:06:11.881Z</time></trkpt><trkpt lat="43.8785049" lon="7.45374"><ele>357.0</ele><time>2026-05-01T12:06:12.881Z</time></trkpt><trkpt lat="43.8784734" lon="7.4535957"><ele>357.0</ele><time>2026-05-01T12:06:13.881Z</time></trkpt><trkpt lat="43.8784427" lon="7.4534436"><ele>357.0</ele><time>2026-05-01T12:06:14.881Z</time></trkpt><trkpt lat="43.8784146" lon="7.4532862"><ele>357.0</ele><time>2026-05-01T12:06:15.881Z</time></trkpt><trkpt lat="43.8783765" lon="7.4531404"><ele>354.20000000000005</ele><time>2026-05-01T12:06:16.881Z</time></trkpt><trkpt lat="43.8783515" lon="7.4529806"><ele>351.4</ele><time>2026-05-01T12:06:17.881Z</time></trkpt><trkpt lat="43.8783278" lon="7.4528364"><ele>348.6</ele><time>2026-05-01T12:06:18.881Z</time></trkpt><trkpt lat="43.8782903" lon="7.4526896"><ele>345.79999999999995</ele><time>2026-05-01T12:06:19.881Z</time></trkpt><trkpt lat="43.8782616" lon="7.4525407"><ele>343.0</ele><time>2026-05-01T12:06:20.881Z</time></trkpt><trkpt lat="43.8782301" lon="7.452405"><ele>343.0</ele><time>2026-05-01T12:06:21.881Z</time></trkpt><trkpt lat="43.8782108" lon="7.4522698"><ele>343.0</ele><time>2026-05-01T12:06:22.881Z</time></trkpt><trkpt lat="43.8781855" lon="7.4521186"><ele>343.0</ele><time>2026-05-01T12:06:23.882Z</time></trkpt><trkpt lat="43.8781652" lon="7.4520071"><ele>343.0</ele><time>2026-05-01T12:06:24.881Z</time></trkpt><trkpt lat="43.8781424" lon="7.4518697"><ele>343.0</ele><time>2026-05-01T12:06:25.881Z</time></trkpt><trkpt lat="43.8781051" lon="7.4517404"><ele>343.4</ele><time>2026-05-01T12:06:26.881Z</time></trkpt><trkpt lat="43.8780705" lon="7.4516177"><ele>343.79999999999995</ele><time>2026-05-01T12:06:27.881Z</time></trkpt><trkpt lat="43.8780452" lon="7.4514893"><ele>344.2</ele><time>2026-05-01T12:06:28.881Z</time></trkpt><trkpt lat="43.8779993" lon="7.451373"><ele>344.6</ele><time>2026-05-01T12:06:29.881Z</time></trkpt><trkpt lat="43.877938" lon="7.4512745"><ele>345.0</ele><time>2026-05-01T12:06:30.881Z</time></trkpt><trkpt lat="43.8778944" lon="7.4511781"><ele>345.5</ele><time>2026-05-01T12:06:31.881Z</time></trkpt><trkpt lat="43.8778195" lon="7.4511036"><ele>346.0</ele><time>2026-05-01T12:06:32.881Z</time></trkpt><trkpt lat="43.8777523" lon="7.4510378"><ele>346.5</ele><time>2026-05-01T12:06:33.881Z</time></trkpt><trkpt lat="43.8776954" lon="7.4509821"><ele>347.0</ele><time>2026-05-01T12:06:34.881Z</time></trkpt><trkpt lat="43.8776323" lon="7.4509212"><ele>347.5</ele><time>2026-05-01T12:06:35.881Z</time></trkpt><trkpt lat="43.8775779" lon="7.4507709"><ele>348.0</ele><time>2026-05-01T12:06:37.881Z</time></trkpt><trkpt lat="43.8775797" lon="7.450683"><ele>348.0</ele><time>2026-05-01T12:06:38.881Z</time></trkpt><trkpt lat="43.877589" lon="7.4505934"><ele>348.0</ele><time>2026-05-01T12:06:39.881Z</time></trkpt><trkpt lat="43.8775998" lon="7.45047"><ele>348.0</ele><time>2026-05-01T12:06:41.881Z</time></trkpt><trkpt lat="43.8776067" lon="7.4503464"><ele>348.0</ele><time>2026-05-01T12:06:43.881Z</time></trkpt><trkpt lat="43.8776181" lon="7.4502268"><ele>348.0</ele><time>2026-05-01T12:06:45.881Z</time></trkpt><trkpt lat="43.8776175" lon="7.4501121"><ele>348.0</ele><time>2026-05-01T12:06:47.881Z</time></trkpt><trkpt lat="43.8776138" lon="7.4499978"><ele>348.3333333333333</ele><time>2026-05-01T12:06:49.882Z</time></trkpt><trkpt lat="43.8776291" lon="7.4498365"><ele>348.6666666666667</ele><time>2026-05-01T12:06:51.881Z</time></trkpt><trkpt lat="43.8776324" lon="7.4497473"><ele>349.0</ele><time>2026-05-01T12:06:52.881Z</time></trkpt><trkpt lat="43.8776361" lon="7.4496559"><ele>349.33333333333337</ele><time>2026-05-01T12:06:53.881Z</time></trkpt><trkpt lat="43.877655" lon="7.4495667"><ele>349.6666666666667</ele><time>2026-05-01T12:06:54.882Z</time></trkpt><trkpt lat="43.8776767" lon="7.4494686"><ele>350.0</ele><time>2026-05-01T12:06:55.881Z</time></trkpt><trkpt lat="43.8776992" lon="7.4493732"><ele>350.0</ele><time>2026-05-01T12:06:56.881Z</time></trkpt><trkpt lat="43.8777217" lon="7.4492627"><ele>350.0</ele><time>2026-05-01T12:06:57.882Z</time></trkpt><trkpt lat="43.8777471" lon="7.4491077"><ele>350.0</ele><time>2026-05-01T12:06:59.881Z</time></trkpt><trkpt lat="43.8777627" lon="7.4489631"><ele>350.0</ele><time>2026-05-01T12:07:01.881Z</time></trkpt><trkpt lat="43.8777853" lon="7.4488065"><ele>350.0</ele><time>2026-05-01T12:07:03.881Z</time></trkpt><trkpt lat="43.877808" lon="7.4486729"><ele>349.5</ele><time>2026-05-01T12:07:05.881Z</time></trkpt><trkpt lat="43.8778325" lon="7.4485686"><ele>349.0</ele><time>2026-05-01T12:07:07.881Z</time></trkpt><trkpt lat="43.8778324" lon="7.4484658"><ele>348.5</ele><time>2026-05-01T12:07:11.881Z</time></trkpt><trkpt lat="43.8778295" lon="7.4483622"><ele>348.0</ele><time>2026-05-01T12:07:13.881Z</time></trkpt><trkpt lat="43.8778297" lon="7.4482362"><ele>347.5</ele><time>2026-05-01T12:07:15.881Z</time></trkpt><trkpt lat="43.8778467" lon="7.4481179"><ele>347.0</ele><time>2026-05-01T12:07:17.881Z</time></trkpt><trkpt lat="43.8778623" lon="7.4479653"><ele>347.0</ele><time>2026-05-01T12:07:19.881Z</time></trkpt><trkpt lat="43.8778791" lon="7.4478773"><ele>347.0</ele><time>2026-05-01T12:07:20.882Z</time></trkpt><trkpt lat="43.8778768" lon="7.4477793"><ele>347.0</ele><time>2026-05-01T12:07:22.881Z</time></trkpt><trkpt lat="43.8778834" lon="7.4476859"><ele>347.0</ele><time>2026-05-01T12:07:24.881Z</time></trkpt><trkpt lat="43.8778811" lon="7.4475756"><ele>347.0</ele><time>2026-05-01T12:07:27.881Z</time></trkpt><trkpt lat="43.8779054" lon="7.4474823"><ele>347.0</ele><time>2026-05-01T12:07:30.881Z</time></trkpt><trkpt lat="43.8779585" lon="7.4474174"><ele>347.0</ele><time>2026-05-01T12:07:33.881Z</time></trkpt><trkpt lat="43.8780026" lon="7.4473199"><ele>347.0</ele><time>2026-05-01T12:07:38.881Z</time></trkpt><trkpt lat="43.8780019" lon="7.4472236"><ele>347.0</ele><time>2026-05-01T12:07:41.881Z</time></trkpt><trkpt lat="43.8780413" lon="7.4471506"><ele>347.0</ele><time>2026-05-01T12:07:45.881Z</time></trkpt><trkpt lat="43.8780814" lon="7.4470779"><ele>347.0</ele><time>2026-05-01T12:07:49.881Z</time></trkpt><trkpt lat="43.878101" lon="7.4469651"><ele>347.0</ele><time>2026-05-01T12:07:52.881Z</time></trkpt><trkpt lat="43.8781202" lon="7.4468648"><ele>347.0</ele><time>2026-05-01T12:07:54.881Z</time></trkpt><trkpt lat="43.8781335" lon="7.4467518"><ele>347.0</ele><time>2026-05-01T12:07:56.881Z</time></trkpt><trkpt lat="43.8781463" lon="7.4466031"><ele>347.1666666666667</ele><time>2026-05-01T12:07:58.881Z</time></trkpt><trkpt lat="43.8781538" lon="7.4464927"><ele>347.33333333333337</ele><time>2026-05-01T12:08:00.881Z</time></trkpt><trkpt lat="43.8781805" lon="7.4463728"><ele>347.5</ele><time>2026-05-01T12:08:02.881Z</time></trkpt><trkpt lat="43.8781999" lon="7.4462488"><ele>347.6666666666667</ele><time>2026-05-01T12:08:04.881Z</time></trkpt><trkpt lat="43.878198" lon="7.4461425"><ele>347.8333333333333</ele><time>2026-05-01T12:08:06.881Z</time></trkpt><trkpt lat="43.8782343" lon="7.446059"><ele>348.0</ele><time>2026-05-01T12:08:08.881Z</time></trkpt><trkpt lat="43.8782553" lon="7.4459709"><ele>350.0</ele><time>2026-05-01T12:08:11.881Z</time></trkpt><trkpt lat="43.8782153" lon="7.4459007"><ele>350.0</ele><time>2026-05-01T12:08:21.881Z</time></trkpt></trkseg><trkseg><trkpt lat="43.8782507" lon="7.4459793"><ele>350.0</ele><time>2026-05-01T13:17:18.888Z</time></trkpt><trkpt lat="43.8781815" lon="7.446012"><ele>350.0</ele><time>2026-05-01T13:17:21.888Z</time></trkpt><trkpt lat="43.8780933" lon="7.4460685"><ele>350.0</ele><time>2026-05-01T13:17:24.811Z</time></trkpt><trkpt lat="43.8780237" lon="7.4461221"><ele>350.0</ele><time>2026-05-01T13:17:26.888Z</time></trkpt><trkpt lat="43.877949" lon="7.4461626"><ele>350.0</ele><time>2026-05-01T13:17:28.888Z</time></trkpt><trkpt lat="43.8779833" lon="7.4464299"><ele>349.6</ele><time>2026-05-01T13:17:30.888Z</time></trkpt><trkpt lat="43.8780152" lon="7.4465576"><ele>349.2</ele><time>2026-05-01T13:17:31.817Z</time></trkpt><trkpt lat="43.8780707" lon="7.4466971"><ele>348.79999999999995</ele><time>2026-05-01T13:17:32.72Z</time></trkpt><trkpt lat="43.8780874" lon="7.4468345"><ele>348.4</ele><time>2026-05-01T13:17:33.888Z</time></trkpt><trkpt lat="43.8780856" lon="7.4469664"><ele>348.0</ele><time>2026-05-01T13:17:35.888Z</time></trkpt><trkpt lat="43.8780755" lon="7.4470745"><ele>347.8333333333333</ele><time>2026-05-01T13:17:37.888Z</time></trkpt><trkpt lat="43.8780474" lon="7.4471691"><ele>347.6666666666667</ele><time>2026-05-01T13:17:39.888Z</time></trkpt><trkpt lat="43.8779771" lon="7.4472446"><ele>347.5</ele><time>2026-05-01T13:17:42.888Z</time></trkpt><trkpt lat="43.8779638" lon="7.4473371"><ele>347.33333333333337</ele><time>2026-05-01T13:17:44.888Z</time></trkpt><trkpt lat="43.8779254" lon="7.4474348"><ele>347.1666666666667</ele><time>2026-05-01T13:17:47.888Z</time></trkpt><trkpt lat="43.8778804" lon="7.4474976"><ele>347.0</ele><time>2026-05-01T13:17:49.888Z</time></trkpt><trkpt lat="43.8778014" lon="7.447528"><ele>347.0</ele><time>2026-05-01T13:17:51.889Z</time></trkpt><trkpt lat="43.8777695" lon="7.4477046"><ele>347.0</ele><time>2026-05-01T13:17:54.889Z</time></trkpt><trkpt lat="43.8777741" lon="7.4477931"><ele>347.0</ele><time>2026-05-01T13:17:55.888Z</time></trkpt><trkpt lat="43.8777928" lon="7.447988"><ele>347.0</ele><time>2026-05-01T13:17:57.888Z</time></trkpt><trkpt lat="43.877818" lon="7.448198"><ele>347.0</ele><time>2026-05-01T13:17:59.888Z</time></trkpt><trkpt lat="43.8778168" lon="7.4483053"><ele>347.0</ele><time>2026-05-01T13:18:00.888Z</time></trkpt><trkpt lat="43.8778367" lon="7.4484123"><ele>347.0</ele><time>2026-05-01T13:18:01.888Z</time></trkpt><trkpt lat="43.8778116" lon="7.4485146"><ele>347.0</ele><time>2026-05-01T13:18:02.888Z</time></trkpt><trkpt lat="43.8777691" lon="7.4485824"><ele>347.0</ele><time>2026-05-01T13:18:03.888Z</time></trkpt><trkpt lat="43.8777612" lon="7.4486772"><ele>347.0</ele><time>2026-05-01T13:18:04.888Z</time></trkpt><trkpt lat="43.8777451" lon="7.4487826"><ele>347.0</ele><time>2026-05-01T13:18:05.888Z</time></trkpt><trkpt lat="43.8778001" lon="7.4488741"><ele>347.5</ele><time>2026-05-01T13:18:06.888Z</time></trkpt><trkpt lat="43.8777773" lon="7.4489907"><ele>348.0</ele><time>2026-05-01T13:18:07.888Z</time></trkpt><trkpt lat="43.8777655" lon="7.4491035"><ele>348.5</ele><time>2026-05-01T13:18:08.888Z</time></trkpt><trkpt lat="43.8777812" lon="7.4492143"><ele>349.0</ele><time>2026-05-01T13:18:09.888Z</time></trkpt><trkpt lat="43.8777832" lon="7.4493156"><ele>349.5</ele><time>2026-05-01T13:18:10.888Z</time></trkpt><trkpt lat="43.8777863" lon="7.4494054"><ele>350.0</ele><time>2026-05-01T13:18:11.888Z</time></trkpt><trkpt lat="43.8777704" lon="7.4495227"><ele>350.0</ele><time>2026-05-01T13:18:12.888Z</time></trkpt><trkpt lat="43.8777355" lon="7.449628"><ele>350.0</ele><time>2026-05-01T13:18:13.888Z</time></trkpt><trkpt lat="43.8776565" lon="7.4497049"><ele>350.0</ele><time>2026-05-01T13:18:14.888Z</time></trkpt><trkpt lat="43.87761" lon="7.4498257"><ele>350.0</ele><time>2026-05-01T13:18:16.888Z</time></trkpt><trkpt lat="43.8775689" lon="7.4499367"><ele>350.0</ele><time>2026-05-01T13:18:18.888Z</time></trkpt><trkpt lat="43.8774921" lon="7.450013"><ele>350.0</ele><time>2026-05-01T13:18:20.888Z</time></trkpt><trkpt lat="43.8773768" lon="7.4500414"><ele>350.0</ele><time>2026-05-01T13:18:22.888Z</time></trkpt><trkpt lat="43.8772862" lon="7.4500831"><ele>350.0</ele><time>2026-05-01T13:18:24.889Z</time></trkpt><trkpt lat="43.8772028" lon="7.4501177"><ele>350.0</ele><time>2026-05-01T13:18:25.888Z</time></trkpt><trkpt lat="43.8771304" lon="7.450179"><ele>350.0</ele><time>2026-05-01T13:18:26.888Z</time></trkpt><trkpt lat="43.8770692" lon="7.4502237"><ele>350.0</ele><time>2026-05-01T13:18:27.888Z</time></trkpt><trkpt lat="43.8770024" lon="7.4502884"><ele>350.0</ele><time>2026-05-01T13:18:28.888Z</time></trkpt><trkpt lat="43.8769402" lon="7.4503585"><ele>350.0</ele><time>2026-05-01T13:18:29.888Z</time></trkpt><trkpt lat="43.8768317" lon="7.4504207"><ele>350.0</ele><time>2026-05-01T13:18:30.888Z</time></trkpt><trkpt lat="43.8767476" lon="7.4504411"><ele>350.0</ele><time>2026-05-01T13:18:31.888Z</time></trkpt><trkpt lat="43.8766963" lon="7.4505357"><ele>350.25</ele><time>2026-05-01T13:18:32.888Z</time></trkpt><trkpt lat="43.8766142" lon="7.4506333"><ele>350.5</ele><time>2026-05-01T13:18:35.888Z</time></trkpt><trkpt lat="43.8764817" lon="7.4504981"><ele>350.75</ele><time>2026-05-01T13:18:38.888Z</time></trkpt><trkpt lat="43.8764321" lon="7.4503326"><ele>351.0</ele><time>2026-05-01T13:18:40.888Z</time></trkpt><trkpt lat="43.8763998" lon="7.4502301"><ele>351.0</ele><time>2026-05-01T13:18:41.888Z</time></trkpt><trkpt lat="43.8763629" lon="7.4501372"><ele>351.0</ele><time>2026-05-01T13:18:42.888Z</time></trkpt><trkpt lat="43.8763188" lon="7.4500052"><ele>351.0</ele><time>2026-05-01T13:18:43.888Z</time></trkpt><trkpt lat="43.8762572" lon="7.4498895"><ele>351.0</ele><time>2026-05-01T13:18:44.888Z</time></trkpt><trkpt lat="43.8762009" lon="7.4497746"><ele>351.0</ele><time>2026-05-01T13:18:45.888Z</time></trkpt><trkpt lat="43.8761577" lon="7.449685"><ele>351.6</ele><time>2026-05-01T13:18:46.888Z</time></trkpt><trkpt lat="43.876076" lon="7.4495966"><ele>352.20000000000005</ele><time>2026-05-01T13:18:47.888Z</time></trkpt><trkpt lat="43.8759986" lon="7.4495279"><ele>352.79999999999995</ele><time>2026-05-01T13:18:48.888Z</time></trkpt><trkpt lat="43.8759157" lon="7.4494511"><ele>353.4</ele><time>2026-05-01T13:18:49.889Z</time></trkpt><trkpt lat="43.875819" lon="7.4493541"><ele>354.0</ele><time>2026-05-01T13:18:50.888Z</time></trkpt><trkpt lat="43.8757494" lon="7.4492546"><ele>354.0</ele><time>2026-05-01T13:18:51.888Z</time></trkpt><trkpt lat="43.8757098" lon="7.4491297"><ele>354.0</ele><time>2026-05-01T13:18:52.888Z</time></trkpt><trkpt lat="43.8756847" lon="7.4489774"><ele>354.0</ele><time>2026-05-01T13:18:53.888Z</time></trkpt><trkpt lat="43.8756682" lon="7.4488493"><ele>354.0</ele><time>2026-05-01T13:18:54.888Z</time></trkpt><trkpt lat="43.8756483" lon="7.4487091"><ele>354.0</ele><time>2026-05-01T13:18:55.888Z</time></trkpt><trkpt lat="43.8756389" lon="7.4485746"><ele>354.5</ele><time>2026-05-01T13:18:56.888Z</time></trkpt><trkpt lat="43.8756222" lon="7.4484365"><ele>355.0</ele><time>2026-05-01T13:18:57.888Z</time></trkpt><trkpt lat="43.8756073" lon="7.4483093"><ele>355.5</ele><time>2026-05-01T13:18:58.888Z</time></trkpt><trkpt lat="43.8756015" lon="7.4482048"><ele>356.0</ele><time>2026-05-01T13:18:59.888Z</time></trkpt><trkpt lat="43.8755694" lon="7.448104"><ele>356.5</ele><time>2026-05-01T13:19:00.888Z</time></trkpt><trkpt lat="43.8755401" lon="7.4480225"><ele>357.0</ele><time>2026-05-01T13:19:01.888Z</time></trkpt><trkpt lat="43.8754864" lon="7.4479575"><ele>357.5</ele><time>2026-05-01T13:19:02.888Z</time></trkpt><trkpt lat="43.8754104" lon="7.4478856"><ele>358.0</ele><time>2026-05-01T13:19:03.888Z</time></trkpt><trkpt lat="43.8753089" lon="7.4478185"><ele>358.5</ele><time>2026-05-01T13:19:04.888Z</time></trkpt><trkpt lat="43.8751634" lon="7.4477748"><ele>359.0</ele><time>2026-05-01T13:19:05.888Z</time></trkpt><trkpt lat="43.8750061" lon="7.4477223"><ele>359.0</ele><time>2026-05-01T13:19:06.888Z</time></trkpt><trkpt lat="43.8749151" lon="7.4477086"><ele>359.0</ele><time>2026-05-01T13:19:07.888Z</time></trkpt><trkpt lat="43.8747969" lon="7.4477083"><ele>359.0</ele><time>2026-05-01T13:19:08.888Z</time></trkpt><trkpt lat="43.874693" lon="7.447696"><ele>359.0</ele><time>2026-05-01T13:19:09.888Z</time></trkpt><trkpt lat="43.8745957" lon="7.4476901"><ele>359.0</ele><time>2026-05-01T13:19:10.888Z</time></trkpt><trkpt lat="43.8744501" lon="7.4477087"><ele>359.0</ele><time>2026-05-01T13:19:11.888Z</time></trkpt><trkpt lat="43.8743396" lon="7.44769"><ele>359.0</ele><time>2026-05-01T13:19:12.888Z</time></trkpt><trkpt lat="43.8742082" lon="7.4476605"><ele>359.0</ele><time>2026-05-01T13:19:13.888Z</time></trkpt><trkpt lat="43.8741192" lon="7.4476378"><ele>359.0</ele><time>2026-05-01T13:19:14.888Z</time></trkpt><trkpt lat="43.8740512" lon="7.4475801"><ele>359.0</ele><time>2026-05-01T13:19:15.888Z</time></trkpt><trkpt lat="43.8739871" lon="7.447466"><ele>360.0</ele><time>2026-05-01T13:19:16.888Z</time></trkpt><trkpt lat="43.8739377" lon="7.4473959"><ele>361.0</ele><time>2026-05-01T13:19:17.888Z</time></trkpt><trkpt lat="43.8738833" lon="7.4472709"><ele>362.0</ele><time>2026-05-01T13:19:18.888Z</time></trkpt><trkpt lat="43.8738325" lon="7.4470704"><ele>363.0</ele><time>2026-05-01T13:19:19.888Z</time></trkpt><trkpt lat="43.8737903" lon="7.4468691"><ele>364.25</ele><time>2026-05-01T13:19:20.888Z</time></trkpt><trkpt lat="43.8737411" lon="7.4466968"><ele>365.5</ele><time>2026-05-01T13:19:21.888Z</time></trkpt><trkpt lat="43.8736751" lon="7.4465383"><ele>366.75</ele><time>2026-05-01T13:19:22.888Z</time></trkpt><trkpt lat="43.8735884" lon="7.4464182"><ele>368.0</ele><time>2026-05-01T13:19:23.888Z</time></trkpt><trkpt lat="43.8735002" lon="7.4463475"><ele>369.5</ele><time>2026-05-01T13:19:24.888Z</time></trkpt><trkpt lat="43.8733904" lon="7.4462941"><ele>371.0</ele><time>2026-05-01T13:19:25.888Z</time></trkpt><trkpt lat="43.8732826" lon="7.4462886"><ele>372.5</ele><time>2026-05-01T13:19:26.888Z</time></trkpt><trkpt lat="43.8731695" lon="7.4462559"><ele>374.0</ele><time>2026-05-01T13:19:27.888Z</time></trkpt><trkpt lat="43.8730039" lon="7.4462331"><ele>374.0</ele><time>2026-05-01T13:19:28.888Z</time></trkpt><trkpt lat="43.8728339" lon="7.4462126"><ele>374.0</ele><time>2026-05-01T13:19:29.888Z</time></trkpt><trkpt lat="43.8727053" lon="7.4462017"><ele>374.0</ele><time>2026-05-01T13:19:30.888Z</time></trkpt><trkpt lat="43.872579" lon="7.4461856"><ele>374.0</ele><time>2026-05-01T13:19:31.888Z</time></trkpt><trkpt lat="43.87244" lon="7.4461113"><ele>374.25</ele><time>2026-05-01T13:19:32.888Z</time></trkpt><trkpt lat="43.8723049" lon="7.4459925"><ele>374.5</ele><time>2026-05-01T13:19:33.889Z</time></trkpt><trkpt lat="43.8722176" lon="7.44594"><ele>374.75</ele><time>2026-05-01T13:19:34.888Z</time></trkpt><trkpt lat="43.872056" lon="7.4458637"><ele>375.0</ele><time>2026-05-01T13:19:35.888Z</time></trkpt><trkpt lat="43.871948" lon="7.4458365"><ele>375.0</ele><time>2026-05-01T13:19:36.888Z</time></trkpt><trkpt lat="43.8718003" lon="7.4458722"><ele>375.0</ele><time>2026-05-01T13:19:37.888Z</time></trkpt><trkpt lat="43.871643" lon="7.4459535"><ele>375.0</ele><time>2026-05-01T13:19:38.888Z</time></trkpt><trkpt lat="43.8715039" lon="7.4459893"><ele>377.0</ele><time>2026-05-01T13:19:39.888Z</time></trkpt><trkpt lat="43.8713865" lon="7.446022"><ele>379.0</ele><time>2026-05-01T13:19:40.888Z</time></trkpt><trkpt lat="43.8712404" lon="7.4460205"><ele>381.0</ele><time>2026-05-01T13:19:41.888Z</time></trkpt><trkpt lat="43.8710902" lon="7.4459871"><ele>383.0</ele><time>2026-05-01T13:19:42.888Z</time></trkpt><trkpt lat="43.8709825" lon="7.4458831"><ele>386.25</ele><time>2026-05-01T13:19:43.888Z</time></trkpt><trkpt lat="43.870878" lon="7.4457896"><ele>389.5</ele><time>2026-05-01T13:19:44.888Z</time></trkpt><trkpt lat="43.8707471" lon="7.4456999"><ele>392.75</ele><time>2026-05-01T13:19:45.888Z</time></trkpt><trkpt lat="43.8706051" lon="7.4456375"><ele>396.0</ele><time>2026-05-01T13:19:46.888Z</time></trkpt><trkpt lat="43.8704497" lon="7.4455433"><ele>396.0</ele><time>2026-05-01T13:19:47.888Z</time></trkpt><trkpt lat="43.8703796" lon="7.4454884"><ele>396.0</ele><time>2026-05-01T13:19:48.888Z</time></trkpt><trkpt lat="43.8702041" lon="7.4454483"><ele>396.0</ele><time>2026-05-01T13:19:49.888Z</time></trkpt><trkpt lat="43.8700474" lon="7.4454512"><ele>396.0</ele><time>2026-05-01T13:19:50.888Z</time></trkpt><trkpt lat="43.869916" lon="7.4454635"><ele>400.0</ele><time>2026-05-01T13:19:51.888Z</time></trkpt><trkpt lat="43.8697541" lon="7.445476"><ele>404.0</ele><time>2026-05-01T13:19:52.889Z</time></trkpt><trkpt lat="43.8695889" lon="7.4455049"><ele>408.0</ele><time>2026-05-01T13:19:53.889Z</time></trkpt><trkpt lat="43.8694414" lon="7.4454938"><ele>405.25</ele><time>2026-05-01T13:19:54.888Z</time></trkpt><trkpt lat="43.8693021" lon="7.4454597"><ele>402.5</ele><time>2026-05-01T13:19:55.888Z</time></trkpt><trkpt lat="43.8691642" lon="7.4453765"><ele>399.75</ele><time>2026-05-01T13:19:56.888Z</time></trkpt><trkpt lat="43.8690256" lon="7.4452853"><ele>397.0</ele><time>2026-05-01T13:19:57.889Z</time></trkpt><trkpt lat="43.8688761" lon="7.4452302"><ele>397.0</ele><time>2026-05-01T13:19:58.888Z</time></trkpt><trkpt lat="43.8687182" lon="7.4452065"><ele>397.0</ele><time>2026-05-01T13:19:59.888Z</time></trkpt><trkpt lat="43.8686233" lon="7.4451434"><ele>397.0</ele><time>2026-05-01T13:20:00.888Z</time></trkpt><trkpt lat="43.8685043" lon="7.445056"><ele>397.0</ele><time>2026-05-01T13:20:01.888Z</time></trkpt><trkpt lat="43.8682733" lon="7.4448359"><ele>397.33333333333337</ele><time>2026-05-01T13:20:02.888Z</time></trkpt><trkpt lat="43.8680954" lon="7.444699"><ele>397.66666666666663</ele><time>2026-05-01T13:20:03.888Z</time></trkpt><trkpt lat="43.8679382" lon="7.4445884"><ele>398.0</ele><time>2026-05-01T13:20:04.888Z</time></trkpt><trkpt lat="43.8678043" lon="7.444516"><ele>398.0</ele><time>2026-05-01T13:20:05.888Z</time></trkpt><trkpt lat="43.867735" lon="7.4445075"><ele>398.0</ele><time>2026-05-01T13:20:06.888Z</time></trkpt><trkpt lat="43.8676293" lon="7.4445394"><ele>398.0</ele><time>2026-05-01T13:20:07.889Z</time></trkpt><trkpt lat="43.8674653" lon="7.4446567"><ele>398.0</ele><time>2026-05-01T13:20:08.888Z</time></trkpt><trkpt lat="43.8672955" lon="7.4447135"><ele>406.66666666666663</ele><time>2026-05-01T13:20:09.888Z</time></trkpt><trkpt lat="43.8671101" lon="7.4448019"><ele>415.33333333333337</ele><time>2026-05-01T13:20:10.888Z</time></trkpt><trkpt lat="43.8669541" lon="7.444846"><ele>424.0</ele><time>2026-05-01T13:20:11.888Z</time></trkpt><trkpt lat="43.8667862" lon="7.4449144"><ele>423.6666666666667</ele><time>2026-05-01T13:20:12.888Z</time></trkpt><trkpt lat="43.866633" lon="7.4449164"><ele>423.33333333333337</ele><time>2026-05-01T13:20:13.888Z</time></trkpt><trkpt lat="43.8664823" lon="7.4449511"><ele>423.0</ele><time>2026-05-01T13:20:14.888Z</time></trkpt><trkpt lat="43.8663088" lon="7.4449844"><ele>423.0</ele><time>2026-05-01T13:20:15.888Z</time></trkpt><trkpt lat="43.8661483" lon="7.4450018"><ele>423.0</ele><time>2026-05-01T13:20:16.888Z</time></trkpt><trkpt lat="43.8659808" lon="7.4449976"><ele>423.0</ele><time>2026-05-01T13:20:17.888Z</time></trkpt><trkpt lat="43.8658153" lon="7.4450187"><ele>422.0</ele><time>2026-05-01T13:20:18.888Z</time></trkpt><trkpt lat="43.8657122" lon="7.4450941"><ele>421.0</ele><time>2026-05-01T13:20:19.888Z</time></trkpt><trkpt lat="43.8655953" lon="7.4451381"><ele>420.0</ele><time>2026-05-01T13:20:20.889Z</time></trkpt><trkpt lat="43.8654274" lon="7.4452366"><ele>419.0</ele><time>2026-05-01T13:20:21.888Z</time></trkpt><trkpt lat="43.8652422" lon="7.4453123"><ele>417.3333333333333</ele><time>2026-05-01T13:20:22.888Z</time></trkpt><trkpt lat="43.8650757" lon="7.4453921"><ele>415.66666666666663</ele><time>2026-05-01T13:20:23.888Z</time></trkpt><trkpt lat="43.864898" lon="7.4454628"><ele>414.0</ele><time>2026-05-01T13:20:24.888Z</time></trkpt><trkpt lat="43.8647192" lon="7.4455278"><ele>421.33333333333337</ele><time>2026-05-01T13:20:25.888Z</time></trkpt><trkpt lat="43.8645184" lon="7.4455781"><ele>428.6666666666667</ele><time>2026-05-01T13:20:26.888Z</time></trkpt><trkpt lat="43.8643308" lon="7.4456546"><ele>436.0</ele><time>2026-05-01T13:20:27.888Z</time></trkpt><trkpt lat="43.864153" lon="7.445726"><ele>436.0</ele><time>2026-05-01T13:20:28.888Z</time></trkpt><trkpt lat="43.8639622" lon="7.445761"><ele>436.0</ele><time>2026-05-01T13:20:29.888Z</time></trkpt><trkpt lat="43.86377" lon="7.4457734"><ele>436.0</ele><time>2026-05-01T13:20:30.888Z</time></trkpt><trkpt lat="43.8635945" lon="7.4458022"><ele>434.33333333333337</ele><time>2026-05-01T13:20:31.888Z</time></trkpt><trkpt lat="43.8634041" lon="7.4458304"><ele>432.66666666666663</ele><time>2026-05-01T13:20:32.888Z</time></trkpt><trkpt lat="43.8632383" lon="7.4458746"><ele>431.0</ele><time>2026-05-01T13:20:33.888Z</time></trkpt><trkpt lat="43.8630787" lon="7.4458905"><ele>431.0</ele><time>2026-05-01T13:20:34.888Z</time></trkpt><trkpt lat="43.8629314" lon="7.4459433"><ele>431.0</ele><time>2026-05-01T13:20:35.888Z</time></trkpt><trkpt lat="43.8628029" lon="7.4460305"><ele>431.0</ele><time>2026-05-01T13:20:36.888Z</time></trkpt><trkpt lat="43.8626897" lon="7.4461346"><ele>431.0</ele><time>2026-05-01T13:20:37.889Z</time></trkpt><trkpt lat="43.8626267" lon="7.4463009"><ele>435.0</ele><time>2026-05-01T13:20:38.888Z</time></trkpt><trkpt lat="43.8625425" lon="7.4464774"><ele>439.0</ele><time>2026-05-01T13:20:39.888Z</time></trkpt><trkpt lat="43.8624616" lon="7.4466157"><ele>443.0</ele><time>2026-05-01T13:20:40.888Z</time></trkpt><trkpt lat="43.862411" lon="7.446702"><ele>447.0</ele><time>2026-05-01T13:20:41.888Z</time></trkpt><trkpt lat="43.8623433" lon="7.4468111"><ele>447.0</ele><time>2026-05-01T13:20:42.888Z</time></trkpt><trkpt lat="43.8622131" lon="7.4466957"><ele>447.0</ele><time>2026-05-01T13:20:44.888Z</time></trkpt><trkpt lat="43.8620878" lon="7.4466232"><ele>447.0</ele><time>2026-05-01T13:20:45.888Z</time></trkpt><trkpt lat="43.8619528" lon="7.4465902"><ele>447.0</ele><time>2026-05-01T13:20:46.888Z</time></trkpt><trkpt lat="43.8617835" lon="7.4465155"><ele>448.66666666666663</ele><time>2026-05-01T13:20:47.888Z</time></trkpt><trkpt lat="43.8616293" lon="7.4464795"><ele>450.3333333333333</ele><time>2026-05-01T13:20:48.888Z</time></trkpt><trkpt lat="43.8614621" lon="7.4464366"><ele>452.0</ele><time>2026-05-01T13:20:49.888Z</time></trkpt><trkpt lat="43.8612823" lon="7.4464461"><ele>452.0</ele><time>2026-05-01T13:20:50.888Z</time></trkpt><trkpt lat="43.8610696" lon="7.4464725"><ele>452.0</ele><time>2026-05-01T13:20:51.888Z</time></trkpt><trkpt lat="43.8608424" lon="7.446447"><ele>452.0</ele><time>2026-05-01T13:20:52.888Z</time></trkpt><trkpt lat="43.8606503" lon="7.4464644"><ele>451.66666666666663</ele><time>2026-05-01T13:20:53.888Z</time></trkpt><trkpt lat="43.860475" lon="7.4464762"><ele>451.33333333333337</ele><time>2026-05-01T13:20:54.888Z</time></trkpt><trkpt lat="43.8602961" lon="7.4465624"><ele>451.0</ele><time>2026-05-01T13:20:55.888Z</time></trkpt><trkpt lat="43.8600616" lon="7.4466436"><ele>448.33333333333337</ele><time>2026-05-01T13:20:56.888Z</time></trkpt><trkpt lat="43.8599025" lon="7.4467342"><ele>445.66666666666663</ele><time>2026-05-01T13:20:57.888Z</time></trkpt><trkpt lat="43.8597106" lon="7.446818"><ele>443.0</ele><time>2026-05-01T13:20:58.888Z</time></trkpt><trkpt lat="43.8595444" lon="7.4468734"><ele>443.0</ele><time>2026-05-01T13:20:59.889Z</time></trkpt><trkpt lat="43.8593717" lon="7.4469624"><ele>443.0</ele><time>2026-05-01T13:21:00.888Z</time></trkpt><trkpt lat="43.8592221" lon="7.4470665"><ele>443.0</ele><time>2026-05-01T13:21:01.888Z</time></trkpt><trkpt lat="43.8590236" lon="7.4471798"><ele>449.0</ele><time>2026-05-01T13:21:02.888Z</time></trkpt><trkpt lat="43.8588466" lon="7.4472533"><ele>455.0</ele><time>2026-05-01T13:21:03.888Z</time></trkpt><trkpt lat="43.8586905" lon="7.4473969"><ele>461.0</ele><time>2026-05-01T13:21:04.888Z</time></trkpt><trkpt lat="43.8585438" lon="7.4475267"><ele>455.0</ele><time>2026-05-01T13:21:05.888Z</time></trkpt><trkpt lat="43.858366" lon="7.4476547"><ele>449.0</ele><time>2026-05-01T13:21:06.888Z</time></trkpt><trkpt lat="43.8582127" lon="7.4477838"><ele>443.0</ele><time>2026-05-01T13:21:07.888Z</time></trkpt><trkpt lat="43.8580702" lon="7.4479075"><ele>445.66666666666663</ele><time>2026-05-01T13:21:08.889Z</time></trkpt><trkpt lat="43.8579313" lon="7.4480232"><ele>448.33333333333337</ele><time>2026-05-01T13:21:09.888Z</time></trkpt><trkpt lat="43.8577809" lon="7.448119"><ele>451.0</ele><time>2026-05-01T13:21:10.888Z</time></trkpt><trkpt lat="43.8575816" lon="7.4481924"><ele>454.6666666666667</ele><time>2026-05-01T13:21:11.888Z</time></trkpt><trkpt lat="43.8574023" lon="7.4482267"><ele>458.33333333333337</ele><time>2026-05-01T13:21:12.888Z</time></trkpt><trkpt lat="43.8572529" lon="7.4481389"><ele>462.0</ele><time>2026-05-01T13:21:13.888Z</time></trkpt><trkpt lat="43.8570929" lon="7.448048"><ele>462.66666666666663</ele><time>2026-05-01T13:21:14.888Z</time></trkpt><trkpt lat="43.8569581" lon="7.4479568"><ele>463.3333333333333</ele><time>2026-05-01T13:21:15.888Z</time></trkpt><trkpt lat="43.8568245" lon="7.4478773"><ele>464.0</ele><time>2026-05-01T13:21:16.888Z</time></trkpt><trkpt lat="43.8566812" lon="7.447747"><ele>464.0</ele><time>2026-05-01T13:21:17.888Z</time></trkpt><trkpt lat="43.8565683" lon="7.4476413"><ele>464.0</ele><time>2026-05-01T13:21:18.888Z</time></trkpt><trkpt lat="43.8564288" lon="7.4475429"><ele>464.0</ele><time>2026-05-01T13:21:19.888Z</time></trkpt><trkpt lat="43.856265" lon="7.4474539"><ele>464.0</ele><time>2026-05-01T13:21:20.888Z</time></trkpt><trkpt lat="43.8560992" lon="7.447407"><ele>464.0</ele><time>2026-05-01T13:21:21.888Z</time></trkpt><trkpt lat="43.8559627" lon="7.4473968"><ele>464.0</ele><time>2026-05-01T13:21:22.888Z</time></trkpt><trkpt lat="43.8557808" lon="7.4474391"><ele>466.66666666666663</ele><time>2026-05-01T13:21:23.888Z</time></trkpt><trkpt lat="43.8555778" lon="7.447552"><ele>469.33333333333337</ele><time>2026-05-01T13:21:24.888Z</time></trkpt><trkpt lat="43.8554165" lon="7.4475838"><ele>472.0</ele><time>2026-05-01T13:21:25.888Z</time></trkpt><trkpt lat="43.8552303" lon="7.4476297"><ele>471.6666666666667</ele><time>2026-05-01T13:21:26.888Z</time></trkpt><trkpt lat="43.8550304" lon="7.4476841"><ele>471.33333333333337</ele><time>2026-05-01T13:21:27.888Z</time></trkpt><trkpt lat="43.8548428" lon="7.4477183"><ele>471.0</ele><time>2026-05-01T13:21:28.888Z</time></trkpt><trkpt lat="43.8546694" lon="7.4477914"><ele>471.0</ele><time>2026-05-01T13:21:29.888Z</time></trkpt><trkpt lat="43.8544951" lon="7.447849"><ele>471.0</ele><time>2026-05-01T13:21:30.888Z</time></trkpt><trkpt lat="43.8543425" lon="7.4478972"><ele>471.0</ele><time>2026-05-01T13:21:31.888Z</time></trkpt><trkpt lat="43.8541757" lon="7.447954"><ele>474.66666666666663</ele><time>2026-05-01T13:21:32.889Z</time></trkpt><trkpt lat="43.8540315" lon="7.448063"><ele>478.3333333333333</ele><time>2026-05-01T13:21:33.888Z</time></trkpt><trkpt lat="43.8539367" lon="7.4481867"><ele>482.0</ele><time>2026-05-01T13:21:34.888Z</time></trkpt><trkpt lat="43.8538409" lon="7.4483571"><ele>482.0</ele><time>2026-05-01T13:21:35.888Z</time></trkpt><trkpt lat="43.8537247" lon="7.4485718"><ele>482.0</ele><time>2026-05-01T13:21:36.888Z</time></trkpt><trkpt lat="43.8536264" lon="7.4488426"><ele>482.0</ele><time>2026-05-01T13:21:37.888Z</time></trkpt><trkpt lat="43.8535394" lon="7.4490735"><ele>482.0</ele><time>2026-05-01T13:21:38.888Z</time></trkpt><trkpt lat="43.8534677" lon="7.4493052"><ele>482.0</ele><time>2026-05-01T13:21:39.888Z</time></trkpt><trkpt lat="43.8534281" lon="7.4495474"><ele>482.0</ele><time>2026-05-01T13:21:40.888Z</time></trkpt><trkpt lat="43.8533951" lon="7.4498247"><ele>482.0</ele><time>2026-05-01T13:21:41.888Z</time></trkpt><trkpt lat="43.8533615" lon="7.4500797"><ele>482.0</ele><time>2026-05-01T13:21:42.888Z</time></trkpt><trkpt lat="43.8533718" lon="7.4503199"><ele>482.0</ele><time>2026-05-01T13:21:43.889Z</time></trkpt><trkpt lat="43.8533725" lon="7.4505668"><ele>485.0</ele><time>2026-05-01T13:21:44.888Z</time></trkpt><trkpt lat="43.8533362" lon="7.4507936"><ele>488.0</ele><time>2026-05-01T13:21:45.888Z</time></trkpt><trkpt lat="43.8533134" lon="7.4509911"><ele>491.0</ele><time>2026-05-01T13:21:46.888Z</time></trkpt><trkpt lat="43.8532637" lon="7.4511466"><ele>494.0</ele><time>2026-05-01T13:21:47.888Z</time></trkpt><trkpt lat="43.8532024" lon="7.4512879"><ele>497.4</ele><time>2026-05-01T13:21:48.888Z</time></trkpt><trkpt lat="43.8531598" lon="7.4513823"><ele>500.79999999999995</ele><time>2026-05-01T13:21:49.888Z</time></trkpt><trkpt lat="43.8530542" lon="7.4514265"><ele>504.20000000000005</ele><time>2026-05-01T13:21:50.888Z</time></trkpt><trkpt lat="43.8529671" lon="7.4514274"><ele>507.6</ele><time>2026-05-01T13:21:51.888Z</time></trkpt><trkpt lat="43.8528724" lon="7.4514147"><ele>511.0</ele><time>2026-05-01T13:21:52.889Z</time></trkpt><trkpt lat="43.8527367" lon="7.451314"><ele>508.0</ele><time>2026-05-01T13:21:53.888Z</time></trkpt><trkpt lat="43.8525445" lon="7.4511911"><ele>505.0</ele><time>2026-05-01T13:21:54.888Z</time></trkpt><trkpt lat="43.8524025" lon="7.4510944"><ele>502.0</ele><time>2026-05-01T13:21:55.888Z</time></trkpt><trkpt lat="43.8522723" lon="7.4509824"><ele>502.0</ele><time>2026-05-01T13:21:56.888Z</time></trkpt><trkpt lat="43.8521801" lon="7.4509432"><ele>502.0</ele><time>2026-05-01T13:21:57.888Z</time></trkpt><trkpt lat="43.8520536" lon="7.4509029"><ele>502.0</ele><time>2026-05-01T13:21:58.888Z</time></trkpt><trkpt lat="43.8519145" lon="7.4508183"><ele>502.0</ele><time>2026-05-01T13:21:59.888Z</time></trkpt><trkpt lat="43.8517429" lon="7.4507609"><ele>508.33333333333337</ele><time>2026-05-01T13:22:00.888Z</time></trkpt><trkpt lat="43.8515348" lon="7.4507166"><ele>514.6666666666666</ele><time>2026-05-01T13:22:01.888Z</time></trkpt><trkpt lat="43.851435" lon="7.4506503"><ele>521.0</ele><time>2026-05-01T13:22:02.888Z</time></trkpt><trkpt lat="43.8512939" lon="7.4506278"><ele>521.0</ele><time>2026-05-01T13:22:03.888Z</time></trkpt><trkpt lat="43.851156" lon="7.4506552"><ele>521.0</ele><time>2026-05-01T13:22:04.888Z</time></trkpt><trkpt lat="43.851013" lon="7.4507216"><ele>521.0</ele><time>2026-05-01T13:22:05.888Z</time></trkpt><trkpt lat="43.850903" lon="7.4508384"><ele>521.0</ele><time>2026-05-01T13:22:06.888Z</time></trkpt><trkpt lat="43.8507803" lon="7.4509224"><ele>523.3333333333333</ele><time>2026-05-01T13:22:07.888Z</time></trkpt><trkpt lat="43.8506184" lon="7.4510016"><ele>525.6666666666666</ele><time>2026-05-01T13:22:08.888Z</time></trkpt><trkpt lat="43.8504427" lon="7.4510806"><ele>528.0</ele><time>2026-05-01T13:22:09.888Z</time></trkpt><trkpt lat="43.8502558" lon="7.4511484"><ele>524.3333333333334</ele><time>2026-05-01T13:22:10.888Z</time></trkpt><trkpt lat="43.8500671" lon="7.4512023"><ele>520.6666666666667</ele><time>2026-05-01T13:22:11.888Z</time></trkpt><trkpt lat="43.8499185" lon="7.4512357"><ele>517.0</ele><time>2026-05-01T13:22:12.888Z</time></trkpt><trkpt lat="43.8497746" lon="7.4512651"><ele>517.0</ele><time>2026-05-01T13:22:13.888Z</time></trkpt><trkpt lat="43.8496298" lon="7.4512863"><ele>517.0</ele><time>2026-05-01T13:22:14.888Z</time></trkpt><trkpt lat="43.849525" lon="7.4513268"><ele>517.0</ele><time>2026-05-01T13:22:15.888Z</time></trkpt><trkpt lat="43.8493865" lon="7.4513907"><ele>517.0</ele><time>2026-05-01T13:22:16.888Z</time></trkpt><trkpt lat="43.8492948" lon="7.4514822"><ele>520.5</ele><time>2026-05-01T13:22:17.888Z</time></trkpt><trkpt lat="43.8492239" lon="7.4515448"><ele>524.0</ele><time>2026-05-01T13:22:18.888Z</time></trkpt><trkpt lat="43.8491654" lon="7.4517213"><ele>527.5</ele><time>2026-05-01T13:22:19.888Z</time></trkpt><trkpt lat="43.8490805" lon="7.4518366"><ele>531.0</ele><time>2026-05-01T13:22:20.889Z</time></trkpt><trkpt lat="43.8489383" lon="7.4519001"><ele>531.0</ele><time>2026-05-01T13:22:21.888Z</time></trkpt><trkpt lat="43.8488076" lon="7.4519743"><ele>531.0</ele><time>2026-05-01T13:22:22.888Z</time></trkpt><trkpt lat="43.8487061" lon="7.4520843"><ele>531.0</ele><time>2026-05-01T13:22:23.888Z</time></trkpt><trkpt lat="43.8486103" lon="7.4521787"><ele>531.0</ele><time>2026-05-01T13:22:24.888Z</time></trkpt><trkpt lat="43.8485008" lon="7.4522688"><ele>532.5</ele><time>2026-05-01T13:22:25.889Z</time></trkpt><trkpt lat="43.8483643" lon="7.4524097"><ele>534.0</ele><time>2026-05-01T13:22:26.888Z</time></trkpt><trkpt lat="43.8482378" lon="7.4524907"><ele>535.5</ele><time>2026-05-01T13:22:27.888Z</time></trkpt><trkpt lat="43.8481523" lon="7.4526026"><ele>537.0</ele><time>2026-05-01T13:22:28.888Z</time></trkpt><trkpt lat="43.8480319" lon="7.4527155"><ele>537.0</ele><time>2026-05-01T13:22:29.888Z</time></trkpt><trkpt lat="43.8478864" lon="7.452824"><ele>537.0</ele><time>2026-05-01T13:22:30.888Z</time></trkpt><trkpt lat="43.8477511" lon="7.4528697"><ele>537.0</ele><time>2026-05-01T13:22:31.888Z</time></trkpt><trkpt lat="43.847629" lon="7.4529468"><ele>537.0</ele><time>2026-05-01T13:22:32.888Z</time></trkpt><trkpt lat="43.8475176" lon="7.4530594"><ele>537.5</ele><time>2026-05-01T13:22:33.888Z</time></trkpt><trkpt lat="43.8474196" lon="7.4531742"><ele>538.0</ele><time>2026-05-01T13:22:34.888Z</time></trkpt><trkpt lat="43.847319" lon="7.4532817"><ele>538.5</ele><time>2026-05-01T13:22:35.888Z</time></trkpt><trkpt lat="43.847208" lon="7.4534053"><ele>539.0</ele><time>2026-05-01T13:22:36.888Z</time></trkpt><trkpt lat="43.8471177" lon="7.4535444"><ele>539.0</ele><time>2026-05-01T13:22:37.888Z</time></trkpt><trkpt lat="43.8470665" lon="7.4537297"><ele>539.0</ele><time>2026-05-01T13:22:38.888Z</time></trkpt><trkpt lat="43.84704" lon="7.4539186"><ele>539.0</ele><time>2026-05-01T13:22:39.888Z</time></trkpt><trkpt lat="43.8470313" lon="7.4540838"><ele>539.0</ele><time>2026-05-01T13:22:40.888Z</time></trkpt><trkpt lat="43.8470485" lon="7.4542564"><ele>541.25</ele><time>2026-05-01T13:22:41.888Z</time></trkpt><trkpt lat="43.8470507" lon="7.4544487"><ele>543.5</ele><time>2026-05-01T13:22:42.888Z</time></trkpt><trkpt lat="43.8470952" lon="7.4546455"><ele>545.75</ele><time>2026-05-01T13:22:43.888Z</time></trkpt><trkpt lat="43.8471535" lon="7.4548098"><ele>548.0</ele><time>2026-05-01T13:22:44.888Z</time></trkpt><trkpt lat="43.847211" lon="7.4549556"><ele>548.0</ele><time>2026-05-01T13:22:45.888Z</time></trkpt><trkpt lat="43.8472957" lon="7.455099"><ele>548.0</ele><time>2026-05-01T13:22:46.888Z</time></trkpt><trkpt lat="43.8473493" lon="7.4552113"><ele>548.0</ele><time>2026-05-01T13:22:47.888Z</time></trkpt><trkpt lat="43.8473303" lon="7.4553243"><ele>548.0</ele><time>2026-05-01T13:22:48.888Z</time></trkpt><trkpt lat="43.8472901" lon="7.4554677"><ele>548.0</ele><time>2026-05-01T13:22:49.888Z</time></trkpt><trkpt lat="43.8472357" lon="7.4556192"><ele>550.6</ele><time>2026-05-01T13:22:50.888Z</time></trkpt><trkpt lat="43.8471838" lon="7.4556988"><ele>553.1999999999999</ele><time>2026-05-01T13:22:51.888Z</time></trkpt><trkpt lat="43.8471007" lon="7.4558106"><ele>555.8</ele><time>2026-05-01T13:22:52.888Z</time></trkpt><trkpt lat="43.8470149" lon="7.4557992"><ele>558.4</ele><time>2026-05-01T13:22:53.888Z</time></trkpt><trkpt lat="43.8469292" lon="7.4557488"><ele>561.0</ele><time>2026-05-01T13:22:54.888Z</time></trkpt><trkpt lat="43.8467821" lon="7.4556596"><ele>565.0</ele><time>2026-05-01T13:22:55.888Z</time></trkpt><trkpt lat="43.8466532" lon="7.455552"><ele>569.0</ele><time>2026-05-01T13:22:56.888Z</time></trkpt><trkpt lat="43.8465198" lon="7.4554275"><ele>573.0</ele><time>2026-05-01T13:22:57.888Z</time></trkpt><trkpt lat="43.8463619" lon="7.4553659"><ele>567.5</ele><time>2026-05-01T13:22:58.888Z</time></trkpt><trkpt lat="43.8462134" lon="7.4553257"><ele>562.0</ele><time>2026-05-01T13:22:59.888Z</time></trkpt><trkpt lat="43.8460949" lon="7.4552918"><ele>556.5</ele><time>2026-05-01T13:23:00.888Z</time></trkpt><trkpt lat="43.8459611" lon="7.4552909"><ele>551.0</ele><time>2026-05-01T13:23:01.888Z</time></trkpt><trkpt lat="43.84583" lon="7.4552702"><ele>551.0</ele><time>2026-05-01T13:23:02.888Z</time></trkpt><trkpt lat="43.8456844" lon="7.4552701"><ele>551.0</ele><time>2026-05-01T13:23:03.888Z</time></trkpt><trkpt lat="43.8455461" lon="7.4553019"><ele>551.0</ele><time>2026-05-01T13:23:04.888Z</time></trkpt><trkpt lat="43.8454217" lon="7.4553947"><ele>551.0</ele><time>2026-05-01T13:23:05.888Z</time></trkpt><trkpt lat="43.8452875" lon="7.4554783"><ele>560.6666666666666</ele><time>2026-05-01T13:23:06.888Z</time></trkpt><trkpt lat="43.8451376" lon="7.4555259"><ele>570.3333333333334</ele><time>2026-05-01T13:23:07.888Z</time></trkpt><trkpt lat="43.8449817" lon="7.4555862"><ele>580.0</ele><time>2026-05-01T13:23:08.888Z</time></trkpt><trkpt lat="43.8448315" lon="7.4556291"><ele>580.0</ele><time>2026-05-01T13:23:09.888Z</time></trkpt><trkpt lat="43.8446733" lon="7.4556461"><ele>580.0</ele><time>2026-05-01T13:23:10.888Z</time></trkpt><trkpt lat="43.8445493" lon="7.4557473"><ele>580.0</ele><time>2026-05-01T13:23:11.888Z</time></trkpt><trkpt lat="43.8444259" lon="7.4558399"><ele>580.0</ele><time>2026-05-01T13:23:12.888Z</time></trkpt><trkpt lat="43.8442879" lon="7.4559052"><ele>578.0</ele><time>2026-05-01T13:23:13.888Z</time></trkpt><trkpt lat="43.8441443" lon="7.4559525"><ele>576.0</ele><time>2026-05-01T13:23:14.888Z</time></trkpt><trkpt lat="43.8439445" lon="7.4559477"><ele>574.0</ele><time>2026-05-01T13:23:15.888Z</time></trkpt><trkpt lat="43.8437823" lon="7.4559889"><ele>574.0</ele><time>2026-05-01T13:23:16.888Z</time></trkpt><trkpt lat="43.8436171" lon="7.4560328"><ele>574.0</ele><time>2026-05-01T13:23:17.888Z</time></trkpt><trkpt lat="43.8434861" lon="7.4561035"><ele>574.0</ele><time>2026-05-01T13:23:18.888Z</time></trkpt><trkpt lat="43.843323" lon="7.456092"><ele>574.3333333333334</ele><time>2026-05-01T13:23:19.888Z</time></trkpt><trkpt lat="43.8431629" lon="7.4560976"><ele>574.6666666666666</ele><time>2026-05-01T13:23:20.888Z</time></trkpt><trkpt lat="43.8430202" lon="7.4561502"><ele>575.0</ele><time>2026-05-01T13:23:21.888Z</time></trkpt><trkpt lat="43.8428444" lon="7.4561101"><ele>575.0</ele><time>2026-05-01T13:23:22.888Z</time></trkpt><trkpt lat="43.8426785" lon="7.4561109"><ele>575.0</ele><time>2026-05-01T13:23:23.888Z</time></trkpt><trkpt lat="43.8425323" lon="7.456107"><ele>575.0</ele><time>2026-05-01T13:23:24.888Z</time></trkpt><trkpt lat="43.8423829" lon="7.4561654"><ele>575.0</ele><time>2026-05-01T13:23:25.888Z</time></trkpt><trkpt lat="43.8422389" lon="7.4562414"><ele>575.0</ele><time>2026-05-01T13:23:26.888Z</time></trkpt><trkpt lat="43.8420975" lon="7.4563185"><ele>575.0</ele><time>2026-05-01T13:23:27.888Z</time></trkpt><trkpt lat="43.8419776" lon="7.4564126"><ele>575.0</ele><time>2026-05-01T13:23:28.888Z</time></trkpt><trkpt lat="43.8380506" lon="7.4649864"><ele>577.3333333333333</ele><time>2026-05-01T13:24:23.888Z</time></trkpt><trkpt lat="43.8379721" lon="7.4651752"><ele>579.6666666666666</ele><time>2026-05-01T13:24:24.888Z</time></trkpt><trkpt lat="43.8378209" lon="7.465325"><ele>582.0</ele><time>2026-05-01T13:24:25.885Z</time></trkpt><trkpt lat="43.8377419" lon="7.4655619"><ele>578.6666666666666</ele><time>2026-05-01T13:24:26.884Z</time></trkpt><trkpt lat="43.8376374" lon="7.4656942"><ele>575.3333333333333</ele><time>2026-05-01T13:24:27.884Z</time></trkpt><trkpt lat="43.8375471" lon="7.4659019"><ele>572.0</ele><time>2026-05-01T13:24:28.884Z</time></trkpt><trkpt lat="43.8374444" lon="7.4660936"><ele>572.0</ele><time>2026-05-01T13:24:29.885Z</time></trkpt><trkpt lat="43.8373651" lon="7.4662592"><ele>572.0</ele><time>2026-05-01T13:24:30.884Z</time></trkpt><trkpt lat="43.8372613" lon="7.4663526"><ele>572.0</ele><time>2026-05-01T13:24:31.884Z</time></trkpt><trkpt lat="43.8371639" lon="7.4664722"><ele>572.0</ele><time>2026-05-01T13:24:32.884Z</time></trkpt><trkpt lat="43.8370837" lon="7.4666267"><ele>578.25</ele><time>2026-05-01T13:24:33.884Z</time></trkpt><trkpt lat="43.8370283" lon="7.4667688"><ele>584.5</ele><time>2026-05-01T13:24:34.884Z</time></trkpt><trkpt lat="43.8369518" lon="7.4669076"><ele>590.75</ele><time>2026-05-01T13:24:35.884Z</time></trkpt><trkpt lat="43.8368945" lon="7.4670445"><ele>597.0</ele><time>2026-05-01T13:24:36.884Z</time></trkpt><trkpt lat="43.8368307" lon="7.4671772"><ele>595.4</ele><time>2026-05-01T13:24:37.884Z</time></trkpt><trkpt lat="43.8367542" lon="7.4672543"><ele>593.8000000000001</ele><time>2026-05-01T13:24:38.884Z</time></trkpt><trkpt lat="43.8366615" lon="7.4672736"><ele>592.2</ele><time>2026-05-01T13:24:39.884Z</time></trkpt><trkpt lat="43.8365584" lon="7.4673118"><ele>590.6</ele><time>2026-05-01T13:24:40.884Z</time></trkpt><trkpt lat="43.8364453" lon="7.4673408"><ele>589.0</ele><time>2026-05-01T13:24:41.884Z</time></trkpt><trkpt lat="43.8362933" lon="7.4673768"><ele>589.0</ele><time>2026-05-01T13:24:42.884Z</time></trkpt><trkpt lat="43.8361789" lon="7.4674418"><ele>589.0</ele><time>2026-05-01T13:24:43.884Z</time></trkpt><trkpt lat="43.8360799" lon="7.4675129"><ele>589.0</ele><time>2026-05-01T13:24:44.884Z</time></trkpt><trkpt lat="43.8359838" lon="7.4676122"><ele>589.0</ele><time>2026-05-01T13:24:45.884Z</time></trkpt><trkpt lat="43.8358971" lon="7.4677247"><ele>589.75</ele><time>2026-05-01T13:24:46.884Z</time></trkpt><trkpt lat="43.8357951" lon="7.4678408"><ele>590.5</ele><time>2026-05-01T13:24:47.884Z</time></trkpt><trkpt lat="43.8356896" lon="7.4679952"><ele>591.25</ele><time>2026-05-01T13:24:48.884Z</time></trkpt><trkpt lat="43.8355914" lon="7.4681499"><ele>592.0</ele><time>2026-05-01T13:24:49.884Z</time></trkpt><trkpt lat="43.8355084" lon="7.4682992"><ele>592.0</ele><time>2026-05-01T13:24:50.884Z</time></trkpt><trkpt lat="43.8354181" lon="7.4684423"><ele>592.0</ele><time>2026-05-01T13:24:51.884Z</time></trkpt><trkpt lat="43.8353412" lon="7.4685774"><ele>592.0</ele><time>2026-05-01T13:24:52.884Z</time></trkpt><trkpt lat="43.835236" lon="7.4687097"><ele>592.0</ele><time>2026-05-01T13:24:53.884Z</time></trkpt><trkpt lat="43.8351497" lon="7.4688682"><ele>585.5</ele><time>2026-05-01T13:24:54.885Z</time></trkpt><trkpt lat="43.8350719" lon="7.469003"><ele>579.0</ele><time>2026-05-01T13:24:55.884Z</time></trkpt><trkpt lat="43.8349763" lon="7.4691359"><ele>572.5</ele><time>2026-05-01T13:24:56.884Z</time></trkpt><trkpt lat="43.8349297" lon="7.4692157"><ele>566.0</ele><time>2026-05-01T13:24:57.884Z</time></trkpt><trkpt lat="43.8348448" lon="7.4693265"><ele>566.0</ele><time>2026-05-01T13:24:58.884Z</time></trkpt><trkpt lat="43.8347635" lon="7.4694292"><ele>566.0</ele><time>2026-05-01T13:24:59.884Z</time></trkpt><trkpt lat="43.834686" lon="7.469517"><ele>566.0</ele><time>2026-05-01T13:25:00.884Z</time></trkpt><trkpt lat="43.8346336" lon="7.4696938"><ele>566.0</ele><time>2026-05-01T13:25:02.884Z</time></trkpt><trkpt lat="43.8346251" lon="7.4698144"><ele>566.0</ele><time>2026-05-01T13:25:03.884Z</time></trkpt><trkpt lat="43.8346491" lon="7.4699252"><ele>565.5</ele><time>2026-05-01T13:25:04.884Z</time></trkpt><trkpt lat="43.8347336" lon="7.4700396"><ele>565.0</ele><time>2026-05-01T13:25:05.884Z</time></trkpt><trkpt lat="43.8347729" lon="7.4701845"><ele>564.5</ele><time>2026-05-01T13:25:07.884Z</time></trkpt><trkpt lat="43.834838" lon="7.4704463"><ele>564.0</ele><time>2026-05-01T13:25:09.884Z</time></trkpt><trkpt lat="43.83487" lon="7.4705281"><ele>564.0</ele><time>2026-05-01T13:25:10.884Z</time></trkpt><trkpt lat="43.8349041" lon="7.4706227"><ele>564.0</ele><time>2026-05-01T13:25:11.884Z</time></trkpt><trkpt lat="43.834944" lon="7.4707529"><ele>564.0</ele><time>2026-05-01T13:25:12.884Z</time></trkpt><trkpt lat="43.8349899" lon="7.4708432"><ele>564.0</ele><time>2026-05-01T13:25:14.884Z</time></trkpt><trkpt lat="43.8350139" lon="7.4709358"><ele>564.0</ele><time>2026-05-01T13:25:15.884Z</time></trkpt><trkpt lat="43.8350373" lon="7.4710357"><ele>564.0</ele><time>2026-05-01T13:25:17.884Z</time></trkpt><trkpt lat="43.8348588" lon="7.470868"><ele>564.0</ele><time>2026-05-01T13:25:19.884Z</time></trkpt><trkpt lat="43.8347751" lon="7.4708541"><ele>564.0</ele><time>2026-05-01T13:25:20.884Z</time></trkpt><trkpt lat="43.8346548" lon="7.4708452"><ele>564.0</ele><time>2026-05-01T13:25:21.884Z</time></trkpt><trkpt lat="43.8345478" lon="7.4708539"><ele>564.0</ele><time>2026-05-01T13:25:22.884Z</time></trkpt><trkpt lat="43.8344736" lon="7.4708822"><ele>564.0</ele><time>2026-05-01T13:25:23.884Z</time></trkpt><trkpt lat="43.8343775" lon="7.4709754"><ele>559.0</ele><time>2026-05-01T13:25:24.884Z</time></trkpt><trkpt lat="43.8342777" lon="7.4710406"><ele>554.0</ele><time>2026-05-01T13:25:25.884Z</time></trkpt><trkpt lat="43.8341907" lon="7.4710893"><ele>549.0</ele><time>2026-05-01T13:25:26.884Z</time></trkpt><trkpt lat="43.8340756" lon="7.4711708"><ele>544.0</ele><time>2026-05-01T13:25:27.884Z</time></trkpt><trkpt lat="43.8339682" lon="7.4711748"><ele>539.0</ele><time>2026-05-01T13:25:28.884Z</time></trkpt><trkpt lat="43.8338743" lon="7.4712299"><ele>539.0</ele><time>2026-05-01T13:25:29.884Z</time></trkpt><trkpt lat="43.8337536" lon="7.4712881"><ele>539.0</ele><time>2026-05-01T13:25:30.884Z</time></trkpt><trkpt lat="43.8336723" lon="7.4713259"><ele>539.0</ele><time>2026-05-01T13:25:31.884Z</time></trkpt><trkpt lat="43.8336028" lon="7.4713163"><ele>539.0</ele><time>2026-05-01T13:25:32.884Z</time></trkpt><trkpt lat="43.8335233" lon="7.4712538"><ele>539.0</ele><time>2026-05-01T13:25:33.884Z</time></trkpt><trkpt lat="43.8334569" lon="7.4712509"><ele>539.0</ele><time>2026-05-01T13:25:34.884Z</time></trkpt><trkpt lat="43.8333612" lon="7.4712703"><ele>540.4</ele><time>2026-05-01T13:25:35.884Z</time></trkpt><trkpt lat="43.8332661" lon="7.4712875"><ele>541.8</ele><time>2026-05-01T13:25:36.884Z</time></trkpt><trkpt lat="43.8331445" lon="7.4712801"><ele>543.2</ele><time>2026-05-01T13:25:37.884Z</time></trkpt><trkpt lat="43.8330507" lon="7.471298"><ele>544.6</ele><time>2026-05-01T13:25:38.884Z</time></trkpt><trkpt lat="43.8329811" lon="7.4713362"><ele>546.0</ele><time>2026-05-01T13:25:39.885Z</time></trkpt><trkpt lat="43.8329009" lon="7.4713928"><ele>546.0</ele><time>2026-05-01T13:25:40.884Z</time></trkpt><trkpt lat="43.8328145" lon="7.4714585"><ele>546.0</ele><time>2026-05-01T13:25:41.884Z</time></trkpt><trkpt lat="43.8327579" lon="7.4715324"><ele>546.0</ele><time>2026-05-01T13:25:42.884Z</time></trkpt><trkpt lat="43.8327088" lon="7.4715937"><ele>546.0</ele><time>2026-05-01T13:25:43.884Z</time></trkpt><trkpt lat="43.8326739" lon="7.4716691"><ele>546.0</ele><time>2026-05-01T13:25:44.884Z</time></trkpt><trkpt lat="43.8326236" lon="7.4717278"><ele>546.0</ele><time>2026-05-01T13:25:45.884Z</time></trkpt><trkpt lat="43.8327313" lon="7.4715808"><ele>546.0</ele><time>2026-05-01T13:25:51.884Z</time></trkpt><trkpt lat="43.8327966" lon="7.4714702"><ele>546.0</ele><time>2026-05-01T13:25:52.885Z</time></trkpt><trkpt lat="43.8328718" lon="7.4713323"><ele>546.0</ele><time>2026-05-01T13:25:53.884Z</time></trkpt><trkpt lat="43.8329335" lon="7.4712647"><ele>546.0</ele><time>2026-05-01T13:25:54.884Z</time></trkpt><trkpt lat="43.8329875" lon="7.4712039"><ele>546.0</ele><time>2026-05-01T13:25:55.884Z</time></trkpt><trkpt lat="43.833071" lon="7.4711275"><ele>544.25</ele><time>2026-05-01T13:25:56.884Z</time></trkpt><trkpt lat="43.8331866" lon="7.4710064"><ele>542.5</ele><time>2026-05-01T13:25:57.884Z</time></trkpt><trkpt lat="43.8332886" lon="7.4709629"><ele>540.75</ele><time>2026-05-01T13:25:58.884Z</time></trkpt><trkpt lat="43.8333955" lon="7.4709069"><ele>539.0</ele><time>2026-05-01T13:25:59.884Z</time></trkpt><trkpt lat="43.833516" lon="7.4708388"><ele>539.0</ele><time>2026-05-01T13:26:00.884Z</time></trkpt><trkpt lat="43.8336526" lon="7.470823"><ele>539.0</ele><time>2026-05-01T13:26:01.884Z</time></trkpt><trkpt lat="43.8337496" lon="7.470761"><ele>539.0</ele><time>2026-05-01T13:26:02.884Z</time></trkpt><trkpt lat="43.8338706" lon="7.4706748"><ele>539.0</ele><time>2026-05-01T13:26:04.884Z</time></trkpt><trkpt lat="43.8339396" lon="7.4706386"><ele>539.0</ele><time>2026-05-01T13:26:05.884Z</time></trkpt><trkpt lat="43.8340007" lon="7.4705787"><ele>539.0</ele><time>2026-05-01T13:26:06.884Z</time></trkpt><trkpt lat="43.8340893" lon="7.4705287"><ele>539.0</ele><time>2026-05-01T13:26:08.884Z</time></trkpt><trkpt lat="43.8341306" lon="7.4704549"><ele>539.0</ele><time>2026-05-01T13:26:10.884Z</time></trkpt><trkpt lat="43.8337503" lon="7.4705968"><ele>539.0</ele><time>2026-05-01T13:26:17.884Z</time></trkpt><trkpt lat="43.8336374" lon="7.4706127"><ele>539.0</ele><time>2026-05-01T13:26:18.884Z</time></trkpt><trkpt lat="43.833509" lon="7.4706013"><ele>539.0</ele><time>2026-05-01T13:26:19.884Z</time></trkpt><trkpt lat="43.8333631" lon="7.4705863"><ele>539.0</ele><time>2026-05-01T13:26:20.884Z</time></trkpt><trkpt lat="43.8332958" lon="7.4706449"><ele>533.5</ele><time>2026-05-01T13:26:21.884Z</time></trkpt><trkpt lat="43.8331372" lon="7.4706603"><ele>528.0</ele><time>2026-05-01T13:26:22.884Z</time></trkpt><trkpt lat="43.833016" lon="7.4706513"><ele>522.5</ele><time>2026-05-01T13:26:23.884Z</time></trkpt><trkpt lat="43.8329147" lon="7.4707229"><ele>517.0</ele><time>2026-05-01T13:26:24.884Z</time></trkpt><trkpt lat="43.8328354" lon="7.470769"><ele>517.0</ele><time>2026-05-01T13:26:25.884Z</time></trkpt><trkpt lat="43.832706" lon="7.4708627"><ele>517.0</ele><time>2026-05-01T13:26:27.884Z</time></trkpt><trkpt lat="43.8326295" lon="7.4708938"><ele>517.0</ele><time>2026-05-01T13:26:28.884Z</time></trkpt><trkpt lat="43.832572" lon="7.4709404"><ele>517.0</ele><time>2026-05-01T13:26:29.884Z</time></trkpt><trkpt lat="43.8324949" lon="7.4709982"><ele>517.0</ele><time>2026-05-01T13:26:30.884Z</time></trkpt><trkpt lat="43.8324393" lon="7.4710633"><ele>517.6666666666667</ele><time>2026-05-01T13:26:33.885Z</time></trkpt><trkpt lat="43.8325203" lon="7.4710189"><ele>518.3333333333334</ele><time>2026-05-01T13:26:41.884Z</time></trkpt><trkpt lat="43.8324509" lon="7.4710302"><ele>519.0</ele><time>2026-05-01T13:26:45.884Z</time></trkpt><trkpt lat="43.8325113" lon="7.4710793"><ele>519.6666666666666</ele><time>2026-05-01T13:26:48.884Z</time></trkpt><trkpt lat="43.8325608" lon="7.4712223"><ele>520.3333333333333</ele><time>2026-05-01T13:27:02.884Z</time></trkpt><trkpt lat="43.8325003" lon="7.4713168"><ele>521.0</ele><time>2026-05-01T13:27:22.884Z</time></trkpt><trkpt lat="43.8324388" lon="7.4713867"><ele>521.0</ele><time>2026-05-01T13:27:24.885Z</time></trkpt><trkpt lat="43.83228" lon="7.4714642"><ele>521.0</ele><time>2026-05-01T13:27:25.884Z</time></trkpt><trkpt lat="43.8322287" lon="7.4715554"><ele>521.0</ele><time>2026-05-01T13:27:26.884Z</time></trkpt><trkpt lat="43.8321763" lon="7.4716229"><ele>521.0</ele><time>2026-05-01T13:27:27.884Z</time></trkpt><trkpt lat="43.8321148" lon="7.4717456"><ele>521.0</ele><time>2026-05-01T13:27:29.884Z</time></trkpt><trkpt lat="43.8320719" lon="7.4718482"><ele>521.0</ele><time>2026-05-01T13:27:30.884Z</time></trkpt><trkpt lat="43.8320725" lon="7.4720273"><ele>521.0</ele><time>2026-05-01T13:27:32.884Z</time></trkpt><trkpt lat="43.8320882" lon="7.4721121"><ele>521.0</ele><time>2026-05-01T13:27:33.884Z</time></trkpt><trkpt lat="43.8321176" lon="7.4721932"><ele>521.0</ele><time>2026-05-01T13:27:34.884Z</time></trkpt><trkpt lat="43.8321847" lon="7.4723016"><ele>521.0</ele><time>2026-05-01T13:27:35.884Z</time></trkpt><trkpt lat="43.8322164" lon="7.4724241"><ele>520.4</ele><time>2026-05-01T13:27:36.885Z</time></trkpt><trkpt lat="43.8322653" lon="7.4725255"><ele>519.8</ele><time>2026-05-01T13:27:37.884Z</time></trkpt><trkpt lat="43.8322739" lon="7.4726786"><ele>519.1999999999999</ele><time>2026-05-01T13:27:38.884Z</time></trkpt><trkpt lat="43.8322789" lon="7.4728224"><ele>518.6</ele><time>2026-05-01T13:27:39.884Z</time></trkpt><trkpt lat="43.8322653" lon="7.472943"><ele>518.0</ele><time>2026-05-01T13:27:40.884Z</time></trkpt><trkpt lat="43.832243" lon="7.4730785"><ele>519.1999999999999</ele><time>2026-05-01T13:27:41.884Z</time></trkpt><trkpt lat="43.8321908" lon="7.4731965"><ele>520.4</ele><time>2026-05-01T13:27:42.884Z</time></trkpt><trkpt lat="43.8321304" lon="7.4733166"><ele>521.5999999999999</ele><time>2026-05-01T13:27:43.884Z</time></trkpt><trkpt lat="43.8320541" lon="7.4734188"><ele>522.8</ele><time>2026-05-01T13:27:44.884Z</time></trkpt><trkpt lat="43.8319722" lon="7.4735149"><ele>524.0</ele><time>2026-05-01T13:27:45.884Z</time></trkpt><trkpt lat="43.8318838" lon="7.4736116"><ele>524.0</ele><time>2026-05-01T13:27:46.884Z</time></trkpt><trkpt lat="43.8318087" lon="7.4736677"><ele>524.0</ele><time>2026-05-01T13:27:47.884Z</time></trkpt><trkpt lat="43.8317461" lon="7.473734"><ele>524.0</ele><time>2026-05-01T13:27:48.884Z</time></trkpt><trkpt lat="43.8316273" lon="7.4738053"><ele>524.0</ele><time>2026-05-01T13:27:49.884Z</time></trkpt><trkpt lat="43.8314958" lon="7.4738539"><ele>524.0</ele><time>2026-05-01T13:27:50.884Z</time></trkpt><trkpt lat="43.8313941" lon="7.4739312"><ele>523.0</ele><time>2026-05-01T13:27:51.884Z</time></trkpt><trkpt lat="43.8313025" lon="7.4740188"><ele>522.0</ele><time>2026-05-01T13:27:52.884Z</time></trkpt><trkpt lat="43.8311838" lon="7.4741262"><ele>521.0</ele><time>2026-05-01T13:27:53.884Z</time></trkpt><trkpt lat="43.8310893" lon="7.4741601"><ele>520.0</ele><time>2026-05-01T13:27:54.884Z</time></trkpt><trkpt lat="43.8309876" lon="7.4743086"><ele>517.5</ele><time>2026-05-01T13:27:56.884Z</time></trkpt><trkpt lat="43.8309017" lon="7.474462"><ele>515.0</ele><time>2026-05-01T13:27:57.884Z</time></trkpt><trkpt lat="43.8308616" lon="7.4745945"><ele>512.5</ele><time>2026-05-01T13:27:58.884Z</time></trkpt><trkpt lat="43.8308029" lon="7.4747794"><ele>510.0</ele><time>2026-05-01T13:27:59.884Z</time></trkpt><trkpt lat="43.8306915" lon="7.4748883"><ele>510.0</ele><time>2026-05-01T13:28:00.884Z</time></trkpt><trkpt lat="43.8306243" lon="7.4750635"><ele>510.0</ele><time>2026-05-01T13:28:01.884Z</time></trkpt><trkpt lat="43.8305395" lon="7.4752119"><ele>510.0</ele><time>2026-05-01T13:28:02.884Z</time></trkpt><trkpt lat="43.8304672" lon="7.4753637"><ele>510.0</ele><time>2026-05-01T13:28:03.884Z</time></trkpt><trkpt lat="43.8304063" lon="7.4754824"><ele>512.75</ele><time>2026-05-01T13:28:04.884Z</time></trkpt><trkpt lat="43.8303376" lon="7.4756231"><ele>515.5</ele><time>2026-05-01T13:28:05.884Z</time></trkpt><trkpt lat="43.830275" lon="7.4757676"><ele>518.25</ele><time>2026-05-01T13:28:06.884Z</time></trkpt><trkpt lat="43.8302288" lon="7.4758904"><ele>521.0</ele><time>2026-05-01T13:28:07.884Z</time></trkpt><trkpt lat="43.8301878" lon="7.4760639"><ele>521.0</ele><time>2026-05-01T13:28:08.884Z</time></trkpt><trkpt lat="43.8301779" lon="7.4762235"><ele>521.0</ele><time>2026-05-01T13:28:09.884Z</time></trkpt><trkpt lat="43.8301482" lon="7.4764144"><ele>521.0</ele><time>2026-05-01T13:28:10.885Z</time></trkpt><trkpt lat="43.8301194" lon="7.4765873"><ele>521.0</ele><time>2026-05-01T13:28:11.884Z</time></trkpt><trkpt lat="43.8300974" lon="7.4767611"><ele>510.20000000000005</ele><time>2026-05-01T13:28:12.885Z</time></trkpt><trkpt lat="43.8300842" lon="7.4769042"><ele>499.40000000000003</ele><time>2026-05-01T13:28:13.884Z</time></trkpt><trkpt lat="43.8300542" lon="7.4770401"><ele>488.6</ele><time>2026-05-01T13:28:14.884Z</time></trkpt><trkpt lat="43.8300591" lon="7.4772031"><ele>477.8</ele><time>2026-05-01T13:28:15.885Z</time></trkpt><trkpt lat="43.8300829" lon="7.4773638"><ele>467.0</ele><time>2026-05-01T13:28:16.884Z</time></trkpt><trkpt lat="43.8301144" lon="7.4775271"><ele>472.0</ele><time>2026-05-01T13:28:17.884Z</time></trkpt><trkpt lat="43.8301468" lon="7.4776556"><ele>477.00000000000006</ele><time>2026-05-01T13:28:18.884Z</time></trkpt><trkpt lat="43.8302283" lon="7.477771"><ele>482.00000000000006</ele><time>2026-05-01T13:28:19.884Z</time></trkpt><trkpt lat="43.8302908" lon="7.4779004"><ele>487.0</ele><time>2026-05-01T13:28:20.884Z</time></trkpt><trkpt lat="43.8303472" lon="7.4780304"><ele>492.0</ele><time>2026-05-01T13:28:21.884Z</time></trkpt><trkpt lat="43.8303836" lon="7.4781335"><ele>492.0</ele><time>2026-05-01T13:28:22.884Z</time></trkpt><trkpt lat="43.8303283" lon="7.4783159"><ele>492.0</ele><time>2026-05-01T13:28:23.884Z</time></trkpt><trkpt lat="43.8302891" lon="7.4784761"><ele>492.0</ele><time>2026-05-01T13:28:24.884Z</time></trkpt><trkpt lat="43.8302569" lon="7.478611"><ele>492.0</ele><time>2026-05-01T13:28:25.884Z</time></trkpt><trkpt lat="43.8302158" lon="7.4787128"><ele>495.25</ele><time>2026-05-01T13:28:26.884Z</time></trkpt><trkpt lat="43.8301487" lon="7.478813"><ele>498.5</ele><time>2026-05-01T13:28:27.884Z</time></trkpt><trkpt lat="43.8300656" lon="7.478908"><ele>501.75</ele><time>2026-05-01T13:28:28.884Z</time></trkpt><trkpt lat="43.829901" lon="7.4789296"><ele>505.0</ele><time>2026-05-01T13:28:30.884Z</time></trkpt><trkpt lat="43.8297774" lon="7.478966"><ele>499.4</ele><time>2026-05-01T13:28:31.884Z</time></trkpt><trkpt lat="43.8296814" lon="7.4789891"><ele>493.8</ele><time>2026-05-01T13:28:32.884Z</time></trkpt><trkpt lat="43.8296141" lon="7.4791001"><ele>488.20000000000005</ele><time>2026-05-01T13:28:34.884Z</time></trkpt><trkpt lat="43.8295267" lon="7.4791852"><ele>482.6</ele><time>2026-05-01T13:28:35.884Z</time></trkpt><trkpt lat="43.8294721" lon="7.4793371"><ele>477.0</ele><time>2026-05-01T13:28:36.884Z</time></trkpt><trkpt lat="43.8294246" lon="7.4794449"><ele>477.0</ele><time>2026-05-01T13:28:37.884Z</time></trkpt><trkpt lat="43.8294077" lon="7.4795892"><ele>477.0</ele><time>2026-05-01T13:28:38.884Z</time></trkpt><trkpt lat="43.8293898" lon="7.4797653"><ele>477.0</ele><time>2026-05-01T13:28:39.884Z</time></trkpt><trkpt lat="43.8293524" lon="7.4799495"><ele>477.0</ele><time>2026-05-01T13:28:40.885Z</time></trkpt><trkpt lat="43.8293158" lon="7.480144"><ele>473.6</ele><time>2026-05-01T13:28:41.884Z</time></trkpt><trkpt lat="43.8292909" lon="7.4803035"><ele>470.20000000000005</ele><time>2026-05-01T13:28:42.884Z</time></trkpt><trkpt lat="43.8292804" lon="7.4804467"><ele>466.8</ele><time>2026-05-01T13:28:43.884Z</time></trkpt><trkpt lat="43.8292404" lon="7.480596"><ele>463.4</ele><time>2026-05-01T13:28:44.884Z</time></trkpt><trkpt lat="43.8291918" lon="7.4806883"><ele>460.0</ele><time>2026-05-01T13:28:45.885Z</time></trkpt><trkpt lat="43.8290768" lon="7.4808226"><ele>460.0</ele><time>2026-05-01T13:28:47.884Z</time></trkpt><trkpt lat="43.8289846" lon="7.4809682"><ele>460.0</ele><time>2026-05-01T13:28:48.884Z</time></trkpt><trkpt lat="43.8288868" lon="7.4810501"><ele>460.0</ele><time>2026-05-01T13:28:49.884Z</time></trkpt><trkpt lat="43.828807" lon="7.4811242"><ele>460.0</ele><time>2026-05-01T13:28:50.885Z</time></trkpt><trkpt lat="43.82873" lon="7.4811858"><ele>460.0</ele><time>2026-05-01T13:28:51.884Z</time></trkpt><trkpt lat="43.8286553" lon="7.4812661"><ele>460.00000000000006</ele><time>2026-05-01T13:28:52.884Z</time></trkpt><trkpt lat="43.8285946" lon="7.4813552"><ele>460.0</ele><time>2026-05-01T13:28:53.884Z</time></trkpt><trkpt lat="43.8285465" lon="7.4814202"><ele>460.0</ele><time>2026-05-01T13:28:55.884Z</time></trkpt><trkpt lat="43.828483" lon="7.4813488"><ele>460.0</ele><time>2026-05-01T13:28:57.884Z</time></trkpt><trkpt lat="43.8284886" lon="7.4812116"><ele>460.00000000000006</ele><time>2026-05-01T13:28:59.884Z</time></trkpt><trkpt lat="43.8285394" lon="7.4811373"><ele>460.0</ele><time>2026-05-01T13:29:00.884Z</time></trkpt><trkpt lat="43.8285991" lon="7.4810517"><ele>460.0</ele><time>2026-05-01T13:29:01.884Z</time></trkpt><trkpt lat="43.82868" lon="7.4809654"><ele>460.0</ele><time>2026-05-01T13:29:02.884Z</time></trkpt><trkpt lat="43.8287392" lon="7.4808841"><ele>460.0</ele><time>2026-05-01T13:29:03.884Z</time></trkpt><trkpt lat="43.8288005" lon="7.4807821"><ele>460.0</ele><time>2026-05-01T13:29:04.884Z</time></trkpt><trkpt lat="43.8288748" lon="7.4806124"><ele>460.0</ele><time>2026-05-01T13:29:05.884Z</time></trkpt><trkpt lat="43.8289219" lon="7.4804387"><ele>457.0</ele><time>2026-05-01T13:29:06.884Z</time></trkpt><trkpt lat="43.8289514" lon="7.4802661"><ele>454.0</ele><time>2026-05-01T13:29:07.884Z</time></trkpt><trkpt lat="43.8289593" lon="7.4801247"><ele>451.0</ele><time>2026-05-01T13:29:08.884Z</time></trkpt><trkpt lat="43.8289848" lon="7.4798772"><ele>448.0</ele><time>2026-05-01T13:29:09.884Z</time></trkpt><trkpt lat="43.828998" lon="7.4797662"><ele>448.0</ele><time>2026-05-01T13:29:10.884Z</time></trkpt><trkpt lat="43.8290096" lon="7.4796125"><ele>447.99999999999994</ele><time>2026-05-01T13:29:11.884Z</time></trkpt><trkpt lat="43.8290615" lon="7.4794701"><ele>447.99999999999994</ele><time>2026-05-01T13:29:12.884Z</time></trkpt><trkpt lat="43.8291034" lon="7.4793165"><ele>448.0</ele><time>2026-05-01T13:29:13.884Z</time></trkpt><trkpt lat="43.8291276" lon="7.4791866"><ele>448.0</ele><time>2026-05-01T13:29:14.884Z</time></trkpt><trkpt lat="43.8291804" lon="7.4790656"><ele>446.42857142857144</ele><time>2026-05-01T13:29:15.884Z</time></trkpt><trkpt lat="43.8291667" lon="7.4789369"><ele>444.8571428571429</ele><time>2026-05-01T13:29:16.884Z</time></trkpt><trkpt lat="43.8291726" lon="7.4788487"><ele>443.2857142857143</ele><time>2026-05-01T13:29:17.884Z</time></trkpt><trkpt lat="43.829151" lon="7.4787545"><ele>441.7142857142857</ele><time>2026-05-01T13:29:18.884Z</time></trkpt><trkpt lat="43.8291284" lon="7.4786504"><ele>440.14285714285717</ele><time>2026-05-01T13:29:19.884Z</time></trkpt><trkpt lat="43.8291137" lon="7.4785492"><ele>438.57142857142856</ele><time>2026-05-01T13:29:20.884Z</time></trkpt><trkpt lat="43.8291151" lon="7.4784608"><ele>437.0</ele><time>2026-05-01T13:29:21.884Z</time></trkpt><trkpt lat="43.8291592" lon="7.478332"><ele>433.8</ele><time>2026-05-01T13:29:22.884Z</time></trkpt><trkpt lat="43.829211" lon="7.4782342"><ele>430.6</ele><time>2026-05-01T13:29:23.884Z</time></trkpt><trkpt lat="43.8292816" lon="7.4782126"><ele>427.40000000000003</ele><time>2026-05-01T13:29:24.884Z</time></trkpt><trkpt lat="43.8293762" lon="7.4781214"><ele>424.20000000000005</ele><time>2026-05-01T13:29:25.884Z</time></trkpt><trkpt lat="43.8294619" lon="7.4780524"><ele>421.0</ele><time>2026-05-01T13:29:26.884Z</time></trkpt><trkpt lat="43.8295266" lon="7.4779898"><ele>430.20000000000005</ele><time>2026-05-01T13:29:27.884Z</time></trkpt><trkpt lat="43.8296096" lon="7.4778376"><ele>439.40000000000003</ele><time>2026-05-01T13:29:29.884Z</time></trkpt><trkpt lat="43.8296235" lon="7.4776904"><ele>448.6</ele><time>2026-05-01T13:29:30.885Z</time></trkpt><trkpt lat="43.8295944" lon="7.4775154"><ele>457.8</ele><time>2026-05-01T13:29:31.884Z</time></trkpt><trkpt lat="43.8295855" lon="7.4774214"><ele>467.0</ele><time>2026-05-01T13:29:32.884Z</time></trkpt><trkpt lat="43.8295948" lon="7.4772713"><ele>467.0</ele><time>2026-05-01T13:29:33.884Z</time></trkpt><trkpt lat="43.8296269" lon="7.4771011"><ele>467.0</ele><time>2026-05-01T13:29:34.884Z</time></trkpt><trkpt lat="43.8296123" lon="7.4769551"><ele>467.0</ele><time>2026-05-01T13:29:35.884Z</time></trkpt><trkpt lat="43.8295638" lon="7.4767638"><ele>467.0</ele><time>2026-05-01T13:29:36.885Z</time></trkpt><trkpt lat="43.8295487" lon="7.4766169"><ele>467.0</ele><time>2026-05-01T13:29:37.884Z</time></trkpt><trkpt lat="43.8295397" lon="7.4764846"><ele>467.0</ele><time>2026-05-01T13:29:38.884Z</time></trkpt><trkpt lat="43.8295044" lon="7.4763081"><ele>467.0</ele><time>2026-05-01T13:29:39.884Z</time></trkpt><trkpt lat="43.8294593" lon="7.4760868"><ele>467.0</ele><time>2026-05-01T13:29:40.884Z</time></trkpt><trkpt lat="43.8294615" lon="7.4758974"><ele>466.40000000000003</ele><time>2026-05-01T13:29:41.884Z</time></trkpt><trkpt lat="43.829429" lon="7.4757637"><ele>465.80000000000007</ele><time>2026-05-01T13:29:42.884Z</time></trkpt><trkpt lat="43.8294251" lon="7.4756423"><ele>465.2</ele><time>2026-05-01T13:29:43.884Z</time></trkpt><trkpt lat="43.8294048" lon="7.4755166"><ele>464.6</ele><time>2026-05-01T13:29:44.884Z</time></trkpt><trkpt lat="43.829412" lon="7.4753069"><ele>464.0</ele><time>2026-05-01T13:29:45.884Z</time></trkpt><trkpt lat="43.8294155" lon="7.4751113"><ele>460.75</ele><time>2026-05-01T13:29:46.884Z</time></trkpt><trkpt lat="43.8294362" lon="7.4749694"><ele>457.5</ele><time>2026-05-01T13:29:47.884Z</time></trkpt><trkpt lat="43.8294605" lon="7.4748214"><ele>454.25</ele><time>2026-05-01T13:29:48.884Z</time></trkpt><trkpt lat="43.8295025" lon="7.4746327"><ele>451.0</ele><time>2026-05-01T13:29:49.884Z</time></trkpt><trkpt lat="43.8295628" lon="7.4744556"><ele>447.8</ele><time>2026-05-01T13:29:50.884Z</time></trkpt><trkpt lat="43.829611" lon="7.4743155"><ele>444.6</ele><time>2026-05-01T13:29:51.884Z</time></trkpt><trkpt lat="43.829653" lon="7.4741573"><ele>441.4</ele><time>2026-05-01T13:29:52.884Z</time></trkpt><trkpt lat="43.8296965" lon="7.4740316"><ele>438.2</ele><time>2026-05-01T13:29:53.884Z</time></trkpt><trkpt lat="43.8297318" lon="7.4739281"><ele>435.0</ele><time>2026-05-01T13:29:54.884Z</time></trkpt><trkpt lat="43.8297592" lon="7.4738026"><ele>434.4</ele><time>2026-05-01T13:29:55.884Z</time></trkpt><trkpt lat="43.8297506" lon="7.4736109"><ele>433.8</ele><time>2026-05-01T13:29:57.884Z</time></trkpt><trkpt lat="43.8297027" lon="7.4734726"><ele>433.20000000000005</ele><time>2026-05-01T13:29:59.884Z</time></trkpt><trkpt lat="43.8296245" lon="7.4734447"><ele>432.6</ele><time>2026-05-01T13:30:00.884Z</time></trkpt><trkpt lat="43.8295381" lon="7.4734514"><ele>432.0</ele><time>2026-05-01T13:30:02.884Z</time></trkpt><trkpt lat="43.8294662" lon="7.4735573"><ele>432.0</ele><time>2026-05-01T13:30:03.885Z</time></trkpt><trkpt lat="43.8293336" lon="7.4737317"><ele>432.0</ele><time>2026-05-01T13:30:04.884Z</time></trkpt><trkpt lat="43.8291744" lon="7.4738915"><ele>432.0</ele><time>2026-05-01T13:30:05.884Z</time></trkpt><trkpt lat="43.8290987" lon="7.4740174"><ele>430.0</ele><time>2026-05-01T13:30:06.884Z</time></trkpt><trkpt lat="43.8289772" lon="7.4742176"><ele>428.0</ele><time>2026-05-01T13:30:07.884Z</time></trkpt><trkpt lat="43.8288883" lon="7.4744948"><ele>426.0</ele><time>2026-05-01T13:30:08.884Z</time></trkpt><trkpt lat="43.8288286" lon="7.4746982"><ele>423.66666666666663</ele><time>2026-05-01T13:30:09.884Z</time></trkpt><trkpt lat="43.828792" lon="7.4748444"><ele>421.3333333333333</ele><time>2026-05-01T13:30:10.884Z</time></trkpt><trkpt lat="43.8287117" lon="7.4750974"><ele>419.0</ele><time>2026-05-01T13:30:11.885Z</time></trkpt><trkpt lat="43.8286542" lon="7.4753053"><ele>418.75</ele><time>2026-05-01T13:30:12.884Z</time></trkpt><trkpt lat="43.8286412" lon="7.4754696"><ele>418.5</ele><time>2026-05-01T13:30:13.884Z</time></trkpt><trkpt lat="43.8286375" lon="7.475662"><ele>418.25</ele><time>2026-05-01T13:30:14.884Z</time></trkpt><trkpt lat="43.8286558" lon="7.475851"><ele>418.0</ele><time>2026-05-01T13:30:15.885Z</time></trkpt><trkpt lat="43.8286713" lon="7.4760615"><ele>418.0</ele><time>2026-05-01T13:30:16.884Z</time></trkpt><trkpt lat="43.828656" lon="7.4762574"><ele>418.0</ele><time>2026-05-01T13:30:18.884Z</time></trkpt><trkpt lat="43.8286684" lon="7.4764057"><ele>418.0</ele><time>2026-05-01T13:30:19.884Z</time></trkpt><trkpt lat="43.8286449" lon="7.476549"><ele>418.0</ele><time>2026-05-01T13:30:20.884Z</time></trkpt><trkpt lat="43.828557" lon="7.4766596"><ele>417.59999999999997</ele><time>2026-05-01T13:30:21.884Z</time></trkpt><trkpt lat="43.8284979" lon="7.4767328"><ele>417.2</ele><time>2026-05-01T13:30:22.884Z</time></trkpt><trkpt lat="43.8284414" lon="7.476797"><ele>416.8</ele><time>2026-05-01T13:30:23.884Z</time></trkpt><trkpt lat="43.8283935" lon="7.4769022"><ele>416.4</ele><time>2026-05-01T13:30:24.884Z</time></trkpt><trkpt lat="43.8283176" lon="7.4770162"><ele>416.0</ele><time>2026-05-01T13:30:25.884Z</time></trkpt><trkpt lat="43.8282673" lon="7.477186"><ele>410.0</ele><time>2026-05-01T13:30:26.884Z</time></trkpt><trkpt lat="43.828185" lon="7.4773025"><ele>404.0</ele><time>2026-05-01T13:30:27.884Z</time></trkpt><trkpt lat="43.8281171" lon="7.4774632"><ele>398.0</ele><time>2026-05-01T13:30:28.884Z</time></trkpt><trkpt lat="43.8280683" lon="7.4776144"><ele>392.0</ele><time>2026-05-01T13:30:29.884Z</time></trkpt><trkpt lat="43.8279848" lon="7.4777414"><ele>392.0</ele><time>2026-05-01T13:30:30.884Z</time></trkpt><trkpt lat="43.8279099" lon="7.4778721"><ele>392.0</ele><time>2026-05-01T13:30:31.884Z</time></trkpt><trkpt lat="43.8278762" lon="7.4779871"><ele>392.0</ele><time>2026-05-01T13:30:32.884Z</time></trkpt><trkpt lat="43.8278567" lon="7.4780788"><ele>392.0</ele><time>2026-05-01T13:30:33.884Z</time></trkpt><trkpt lat="43.8277707" lon="7.4782014"><ele>392.0</ele><time>2026-05-01T13:30:34.884Z</time></trkpt><trkpt lat="43.8276998" lon="7.4783566"><ele>389.25</ele><time>2026-05-01T13:30:36.884Z</time></trkpt><trkpt lat="43.8276449" lon="7.4783995"><ele>386.5</ele><time>2026-05-01T13:30:37.884Z</time></trkpt><trkpt lat="43.8274977" lon="7.4783831"><ele>383.75</ele><time>2026-05-01T13:30:38.884Z</time></trkpt><trkpt lat="43.8273536" lon="7.4784113"><ele>381.0</ele><time>2026-05-01T13:30:39.884Z</time></trkpt><trkpt lat="43.8272425" lon="7.4784877"><ele>381.0</ele><time>2026-05-01T13:30:40.884Z</time></trkpt><trkpt lat="43.8271168" lon="7.4785254"><ele>381.0</ele><time>2026-05-01T13:30:41.884Z</time></trkpt><trkpt lat="43.8270289" lon="7.478517"><ele>381.0</ele><time>2026-05-01T13:30:42.884Z</time></trkpt><trkpt lat="43.8269388" lon="7.478521"><ele>381.0</ele><time>2026-05-01T13:30:43.884Z</time></trkpt><trkpt lat="43.8268738" lon="7.4784622"><ele>381.0</ele><time>2026-05-01T13:30:44.884Z</time></trkpt><trkpt lat="43.8267988" lon="7.4782004"><ele>381.5</ele><time>2026-05-01T13:30:46.884Z</time></trkpt><trkpt lat="43.8267754" lon="7.4781081"><ele>382.0</ele><time>2026-05-01T13:30:47.884Z</time></trkpt><trkpt lat="43.8267679" lon="7.4780143"><ele>382.5</ele><time>2026-05-01T13:30:48.884Z</time></trkpt><trkpt lat="43.8267374" lon="7.4779196"><ele>383.0</ele><time>2026-05-01T13:30:49.884Z</time></trkpt><trkpt lat="43.8266732" lon="7.4778288"><ele>383.5</ele><time>2026-05-01T13:30:50.884Z</time></trkpt><trkpt lat="43.8266003" lon="7.4777405"><ele>384.0</ele><time>2026-05-01T13:30:51.884Z</time></trkpt><trkpt lat="43.8265325" lon="7.4776786"><ele>384.0</ele><time>2026-05-01T13:30:52.884Z</time></trkpt><trkpt lat="43.8264096" lon="7.4776898"><ele>384.0</ele><time>2026-05-01T13:30:54.884Z</time></trkpt><trkpt lat="43.8263498" lon="7.4776512"><ele>384.0</ele><time>2026-05-01T13:30:55.884Z</time></trkpt><trkpt lat="43.826352" lon="7.4777388"><ele>384.0</ele><time>2026-05-01T13:30:56.884Z</time></trkpt><trkpt lat="43.8262973" lon="7.4778325"><ele>384.0</ele><time>2026-05-01T13:30:57.884Z</time></trkpt><trkpt lat="43.826266" lon="7.4779473"><ele>384.0</ele><time>2026-05-01T13:30:58.884Z</time></trkpt><trkpt lat="43.82615" lon="7.4781574"><ele>384.0</ele><time>2026-05-01T13:30:59.884Z</time></trkpt><trkpt lat="43.8260752" lon="7.4783523"><ele>384.0</ele><time>2026-05-01T13:31:00.884Z</time></trkpt><trkpt lat="43.8259471" lon="7.4786011"><ele>384.0</ele><time>2026-05-01T13:31:01.884Z</time></trkpt><trkpt lat="43.825828" lon="7.4788212"><ele>393.33333333333337</ele><time>2026-05-01T13:31:02.884Z</time></trkpt><trkpt lat="43.8257393" lon="7.4790582"><ele>402.6666666666667</ele><time>2026-05-01T13:31:03.884Z</time></trkpt><trkpt lat="43.8256856" lon="7.4792538"><ele>412.0</ele><time>2026-05-01T13:31:04.884Z</time></trkpt><trkpt lat="43.8258077" lon="7.4793709"><ele>412.0</ele><time>2026-05-01T13:31:05.884Z</time></trkpt><trkpt lat="43.8258573" lon="7.4795489"><ele>412.0</ele><time>2026-05-01T13:31:06.884Z</time></trkpt><trkpt lat="43.8258431" lon="7.4797362"><ele>412.0</ele><time>2026-05-01T13:31:07.884Z</time></trkpt><trkpt lat="43.8258914" lon="7.479883"><ele>412.0</ele><time>2026-05-01T13:31:08.884Z</time></trkpt><trkpt lat="43.8258928" lon="7.4800151"><ele>409.20000000000005</ele><time>2026-05-01T13:31:09.884Z</time></trkpt><trkpt lat="43.8258846" lon="7.480164"><ele>406.4</ele><time>2026-05-01T13:31:10.884Z</time></trkpt><trkpt lat="43.8258564" lon="7.4803082"><ele>403.6</ele><time>2026-05-01T13:31:11.884Z</time></trkpt><trkpt lat="43.8258108" lon="7.480405"><ele>400.79999999999995</ele><time>2026-05-01T13:31:12.884Z</time></trkpt><trkpt lat="43.825779" lon="7.4804978"><ele>398.0</ele><time>2026-05-01T13:31:13.884Z</time></trkpt><trkpt lat="43.8257066" lon="7.4805829"><ele>388.5</ele><time>2026-05-01T13:31:14.885Z</time></trkpt><trkpt lat="43.8256502" lon="7.4806563"><ele>379.0</ele><time>2026-05-01T13:31:15.884Z</time></trkpt><trkpt lat="43.8255445" lon="7.480762"><ele>369.5</ele><time>2026-05-01T13:31:16.884Z</time></trkpt><trkpt lat="43.8254415" lon="7.4808915"><ele>360.0</ele><time>2026-05-01T13:31:17.884Z</time></trkpt><trkpt lat="43.8253319" lon="7.4810223"><ele>360.0</ele><time>2026-05-01T13:31:18.884Z</time></trkpt><trkpt lat="43.8251841" lon="7.4811863"><ele>360.0</ele><time>2026-05-01T13:31:19.884Z</time></trkpt><trkpt lat="43.8250257" lon="7.4813397"><ele>360.0</ele><time>2026-05-01T13:31:20.884Z</time></trkpt><trkpt lat="43.8249554" lon="7.4814431"><ele>358.2</ele><time>2026-05-01T13:31:21.884Z</time></trkpt><trkpt lat="43.8248886" lon="7.4815557"><ele>356.4</ele><time>2026-05-01T13:31:22.884Z</time></trkpt><trkpt lat="43.8247916" lon="7.4816392"><ele>354.6</ele><time>2026-05-01T13:31:23.884Z</time></trkpt><trkpt lat="43.8246713" lon="7.4817112"><ele>352.8</ele><time>2026-05-01T13:31:24.884Z</time></trkpt><trkpt lat="43.8245742" lon="7.4817115"><ele>351.0</ele><time>2026-05-01T13:31:26.884Z</time></trkpt><trkpt lat="43.8244266" lon="7.4816815"><ele>351.0</ele><time>2026-05-01T13:31:27.885Z</time></trkpt><trkpt lat="43.8243159" lon="7.4816809"><ele>351.0</ele><time>2026-05-01T13:31:28.884Z</time></trkpt><trkpt lat="43.8242227" lon="7.4816738"><ele>351.0</ele><time>2026-05-01T13:31:29.884Z</time></trkpt><trkpt lat="43.8240907" lon="7.4817271"><ele>351.0</ele><time>2026-05-01T13:31:31.885Z</time></trkpt><trkpt lat="43.8240171" lon="7.4817929"><ele>351.0</ele><time>2026-05-01T13:31:32.884Z</time></trkpt><trkpt lat="43.8239265" lon="7.481795"><ele>352.4</ele><time>2026-05-01T13:31:33.884Z</time></trkpt><trkpt lat="43.8238152" lon="7.481793"><ele>353.8</ele><time>2026-05-01T13:31:34.884Z</time></trkpt><trkpt lat="43.8237058" lon="7.4817932"><ele>355.2</ele><time>2026-05-01T13:31:35.885Z</time></trkpt><trkpt lat="43.823597" lon="7.4818345"><ele>356.59999999999997</ele><time>2026-05-01T13:31:36.884Z</time></trkpt><trkpt lat="43.8235142" lon="7.4818725"><ele>358.0</ele><time>2026-05-01T13:31:37.884Z</time></trkpt><trkpt lat="43.823468" lon="7.4819602"><ele>354.0</ele><time>2026-05-01T13:31:38.884Z</time></trkpt><trkpt lat="43.8233966" lon="7.4820773"><ele>350.0</ele><time>2026-05-01T13:31:40.884Z</time></trkpt><trkpt lat="43.8233024" lon="7.482203"><ele>346.0</ele><time>2026-05-01T13:31:41.884Z</time></trkpt><trkpt lat="43.8231926" lon="7.4823564"><ele>342.0</ele><time>2026-05-01T13:31:42.884Z</time></trkpt><trkpt lat="43.8231481" lon="7.482551"><ele>342.0</ele><time>2026-05-01T13:31:43.884Z</time></trkpt><trkpt lat="43.8231079" lon="7.4826524"><ele>342.0</ele><time>2026-05-01T13:31:44.884Z</time></trkpt><trkpt lat="43.8230522" lon="7.4827621"><ele>342.0</ele><time>2026-05-01T13:31:45.884Z</time></trkpt><trkpt lat="43.8229742" lon="7.4828384"><ele>342.0</ele><time>2026-05-01T13:31:46.884Z</time></trkpt><trkpt lat="43.8228813" lon="7.4828732"><ele>342.0</ele><time>2026-05-01T13:31:47.884Z</time></trkpt><trkpt lat="43.8227832" lon="7.482868"><ele>342.0</ele><time>2026-05-01T13:31:48.884Z</time></trkpt><trkpt lat="43.8226775" lon="7.48289"><ele>342.0</ele><time>2026-05-01T13:31:49.884Z</time></trkpt><trkpt lat="43.8225561" lon="7.4828775"><ele>342.0</ele><time>2026-05-01T13:31:50.885Z</time></trkpt><trkpt lat="43.8224563" lon="7.482828"><ele>342.0</ele><time>2026-05-01T13:31:51.884Z</time></trkpt><trkpt lat="43.8223622" lon="7.4827821"><ele>342.0</ele><time>2026-05-01T13:31:52.884Z</time></trkpt><trkpt lat="43.8222736" lon="7.4827515"><ele>346.25</ele><time>2026-05-01T13:31:53.884Z</time></trkpt><trkpt lat="43.8221749" lon="7.4827632"><ele>350.5</ele><time>2026-05-01T13:31:54.884Z</time></trkpt><trkpt lat="43.82206" lon="7.4827921"><ele>354.75</ele><time>2026-05-01T13:31:55.884Z</time></trkpt><trkpt lat="43.8219838" lon="7.482878"><ele>359.0</ele><time>2026-05-01T13:31:56.884Z</time></trkpt><trkpt lat="43.8218133" lon="7.4829786"><ele>348.75</ele><time>2026-05-01T13:31:58.884Z</time></trkpt><trkpt lat="43.8216841" lon="7.4830745"><ele>338.5</ele><time>2026-05-01T13:31:59.884Z</time></trkpt><trkpt lat="43.8215672" lon="7.483089"><ele>328.25</ele><time>2026-05-01T13:32:00.884Z</time></trkpt><trkpt lat="43.821454" lon="7.4830947"><ele>318.0</ele><time>2026-05-01T13:32:01.884Z</time></trkpt><trkpt lat="43.8213269" lon="7.4830844"><ele>318.0</ele><time>2026-05-01T13:32:02.884Z</time></trkpt><trkpt lat="43.8212093" lon="7.483086"><ele>318.0</ele><time>2026-05-01T13:32:03.884Z</time></trkpt><trkpt lat="43.8210751" lon="7.4830986"><ele>318.0</ele><time>2026-05-01T13:32:04.885Z</time></trkpt><trkpt lat="43.8209576" lon="7.4831651"><ele>318.0</ele><time>2026-05-01T13:32:05.884Z</time></trkpt><trkpt lat="43.8208704" lon="7.4832294"><ele>322.25</ele><time>2026-05-01T13:32:06.884Z</time></trkpt><trkpt lat="43.8207575" lon="7.483374"><ele>326.5</ele><time>2026-05-01T13:32:08.884Z</time></trkpt><trkpt lat="43.8206739" lon="7.4835501"><ele>330.75</ele><time>2026-05-01T13:32:09.884Z</time></trkpt><trkpt lat="43.8206055" lon="7.4836695"><ele>335.0</ele><time>2026-05-01T13:32:10.884Z</time></trkpt><trkpt lat="43.820549" lon="7.4837378"><ele>335.0</ele><time>2026-05-01T13:32:11.885Z</time></trkpt><trkpt lat="43.8204729" lon="7.483733"><ele>335.0</ele><time>2026-05-01T13:32:12.884Z</time></trkpt><trkpt lat="43.8203755" lon="7.4837373"><ele>335.0</ele><time>2026-05-01T13:32:13.884Z</time></trkpt><trkpt lat="43.8202935" lon="7.4837333"><ele>335.0</ele><time>2026-05-01T13:32:14.884Z</time></trkpt><trkpt lat="43.8202143" lon="7.4837233"><ele>335.0</ele><time>2026-05-01T13:32:15.884Z</time></trkpt><trkpt lat="43.8201371" lon="7.4836462"><ele>335.0</ele><time>2026-05-01T13:32:17.885Z</time></trkpt><trkpt lat="43.8201281" lon="7.4834845"><ele>335.0</ele><time>2026-05-01T13:32:19.884Z</time></trkpt><trkpt lat="43.8201464" lon="7.4833747"><ele>335.0</ele><time>2026-05-01T13:32:20.884Z</time></trkpt><trkpt lat="43.8201772" lon="7.4832287"><ele>335.0</ele><time>2026-05-01T13:32:21.884Z</time></trkpt><trkpt lat="43.8202522" lon="7.483106"><ele>335.0</ele><time>2026-05-01T13:32:22.884Z</time></trkpt><trkpt lat="43.8203053" lon="7.4829422"><ele>335.0</ele><time>2026-05-01T13:32:23.885Z</time></trkpt><trkpt lat="43.8203207" lon="7.4828458"><ele>337.2</ele><time>2026-05-01T13:32:24.884Z</time></trkpt><trkpt lat="43.8203361" lon="7.4827422"><ele>339.4</ele><time>2026-05-01T13:32:26.884Z</time></trkpt><trkpt lat="43.8202693" lon="7.4826475"><ele>341.6</ele><time>2026-05-01T13:32:28.884Z</time></trkpt><trkpt lat="43.8202005" lon="7.482725"><ele>343.8</ele><time>2026-05-01T13:32:29.884Z</time></trkpt><trkpt lat="43.8200797" lon="7.4828055"><ele>346.0</ele><time>2026-05-01T13:32:31.884Z</time></trkpt><trkpt lat="43.8200179" lon="7.482977"><ele>339.0</ele><time>2026-05-01T13:32:33.884Z</time></trkpt><trkpt lat="43.8199475" lon="7.4830906"><ele>332.0</ele><time>2026-05-01T13:32:34.884Z</time></trkpt><trkpt lat="43.8199116" lon="7.4832133"><ele>325.0</ele><time>2026-05-01T13:32:35.884Z</time></trkpt><trkpt lat="43.8198423" lon="7.4833379"><ele>318.0</ele><time>2026-05-01T13:32:36.884Z</time></trkpt><trkpt lat="43.819788" lon="7.4834678"><ele>311.0</ele><time>2026-05-01T13:32:37.884Z</time></trkpt><trkpt lat="43.8197652" lon="7.483587"><ele>311.0</ele><time>2026-05-01T13:32:38.884Z</time></trkpt><trkpt lat="43.8197215" lon="7.4836888"><ele>311.0</ele><time>2026-05-01T13:32:39.884Z</time></trkpt><trkpt lat="43.8197211" lon="7.4838859"><ele>311.0</ele><time>2026-05-01T13:32:40.884Z</time></trkpt><trkpt lat="43.8197212" lon="7.4840492"><ele>311.0</ele><time>2026-05-01T13:32:42.884Z</time></trkpt><trkpt lat="43.8198247" lon="7.484173"><ele>310.0</ele><time>2026-05-01T13:32:44.884Z</time></trkpt><trkpt lat="43.8199025" lon="7.4841898"><ele>309.0</ele><time>2026-05-01T13:32:45.884Z</time></trkpt><trkpt lat="43.8200357" lon="7.4840648"><ele>308.0</ele><time>2026-05-01T13:32:46.884Z</time></trkpt><trkpt lat="43.820147" lon="7.4840496"><ele>307.0</ele><time>2026-05-01T13:32:47.884Z</time></trkpt><trkpt lat="43.8202327" lon="7.4840723"><ele>306.0</ele><time>2026-05-01T13:32:48.884Z</time></trkpt><trkpt lat="43.8203272" lon="7.4841083"><ele>302.75</ele><time>2026-05-01T13:32:49.884Z</time></trkpt><trkpt lat="43.8204424" lon="7.4841509"><ele>299.5</ele><time>2026-05-01T13:32:50.884Z</time></trkpt><trkpt lat="43.8205566" lon="7.4842232"><ele>296.25</ele><time>2026-05-01T13:32:51.884Z</time></trkpt><trkpt lat="43.8206594" lon="7.4842794"><ele>293.0</ele><time>2026-05-01T13:32:52.884Z</time></trkpt><trkpt lat="43.8207721" lon="7.4841916"><ele>293.0</ele><time>2026-05-01T13:32:53.884Z</time></trkpt><trkpt lat="43.8208552" lon="7.484155"><ele>293.0</ele><time>2026-05-01T13:32:54.884Z</time></trkpt><trkpt lat="43.8209529" lon="7.4841067"><ele>293.0</ele><time>2026-05-01T13:32:55.884Z</time></trkpt><trkpt lat="43.8210014" lon="7.4840215"><ele>293.0</ele><time>2026-05-01T13:32:56.884Z</time></trkpt><trkpt lat="43.821103" lon="7.483864"><ele>293.0</ele><time>2026-05-01T13:32:58.885Z</time></trkpt><trkpt lat="43.8211716" lon="7.4838413"><ele>289.4</ele><time>2026-05-01T13:33:00.885Z</time></trkpt><trkpt lat="43.8212798" lon="7.4838344"><ele>285.8</ele><time>2026-05-01T13:33:01.884Z</time></trkpt><trkpt lat="43.8213785" lon="7.4838198"><ele>282.2</ele><time>2026-05-01T13:33:02.884Z</time></trkpt><trkpt lat="43.8214572" lon="7.4837979"><ele>278.6</ele><time>2026-05-01T13:33:03.884Z</time></trkpt><trkpt lat="43.821579" lon="7.4837424"><ele>275.0</ele><time>2026-05-01T13:33:04.884Z</time></trkpt><trkpt lat="43.8217093" lon="7.4837465"><ele>275.0</ele><time>2026-05-01T13:33:05.885Z</time></trkpt><trkpt lat="43.8217956" lon="7.4837754"><ele>275.0</ele><time>2026-05-01T13:33:06.884Z</time></trkpt><trkpt lat="43.8219" lon="7.4837654"><ele>275.0</ele><time>2026-05-01T13:33:07.884Z</time></trkpt><trkpt lat="43.8220347" lon="7.4837548"><ele>275.0</ele><time>2026-05-01T13:33:08.884Z</time></trkpt><trkpt lat="43.8221539" lon="7.4837547"><ele>275.0</ele><time>2026-05-01T13:33:09.884Z</time></trkpt><trkpt lat="43.8222462" lon="7.4837325"><ele>273.5</ele><time>2026-05-01T13:33:10.884Z</time></trkpt><trkpt lat="43.8224122" lon="7.4837326"><ele>272.0</ele><time>2026-05-01T13:33:12.884Z</time></trkpt><trkpt lat="43.8225244" lon="7.4837584"><ele>270.5</ele><time>2026-05-01T13:33:13.884Z</time></trkpt><trkpt lat="43.8226156" lon="7.4837627"><ele>269.0</ele><time>2026-05-01T13:33:14.884Z</time></trkpt><trkpt lat="43.8226938" lon="7.4838024"><ele>269.0</ele><time>2026-05-01T13:33:15.884Z</time></trkpt><trkpt lat="43.8227573" lon="7.4838359"><ele>269.0</ele><time>2026-05-01T13:33:16.884Z</time></trkpt><trkpt lat="43.8228406" lon="7.4838197"><ele>269.0</ele><time>2026-05-01T13:33:17.884Z</time></trkpt><trkpt lat="43.8229401" lon="7.483857"><ele>269.0</ele><time>2026-05-01T13:33:18.884Z</time></trkpt><trkpt lat="43.8230415" lon="7.4838294"><ele>269.0</ele><time>2026-05-01T13:33:19.885Z</time></trkpt><trkpt lat="43.8231349" lon="7.4838205"><ele>269.0</ele><time>2026-05-01T13:33:20.884Z</time></trkpt><trkpt lat="43.823196" lon="7.4837972"><ele>269.0</ele><time>2026-05-01T13:33:21.885Z</time></trkpt><trkpt lat="43.8232697" lon="7.4836301"><ele>269.0</ele><time>2026-05-01T13:33:23.884Z</time></trkpt><trkpt lat="43.8233264" lon="7.4835213"><ele>269.0</ele><time>2026-05-01T13:33:24.884Z</time></trkpt><trkpt lat="43.8233937" lon="7.4834245"><ele>269.0</ele><time>2026-05-01T13:33:25.884Z</time></trkpt><trkpt lat="43.8234502" lon="7.4833351"><ele>272.33333333333337</ele><time>2026-05-01T13:33:26.884Z</time></trkpt><trkpt lat="43.8235089" lon="7.4832449"><ele>275.6666666666667</ele><time>2026-05-01T13:33:27.884Z</time></trkpt><trkpt lat="43.8235647" lon="7.4831538"><ele>279.0</ele><time>2026-05-01T13:33:28.885Z</time></trkpt><trkpt lat="43.8236209" lon="7.4830302"><ele>282.3333333333333</ele><time>2026-05-01T13:33:29.884Z</time></trkpt><trkpt lat="43.8236773" lon="7.4829377"><ele>285.66666666666663</ele><time>2026-05-01T13:33:30.884Z</time></trkpt><trkpt lat="43.8237346" lon="7.4828776"><ele>289.0</ele><time>2026-05-01T13:33:32.884Z</time></trkpt><trkpt lat="43.8236633" lon="7.4832575"><ele>289.0</ele><time>2026-05-01T13:33:40.884Z</time></trkpt><trkpt lat="43.8236043" lon="7.483386"><ele>289.0</ele><time>2026-05-01T13:33:41.884Z</time></trkpt><trkpt lat="43.8235579" lon="7.4835206"><ele>289.0</ele><time>2026-05-01T13:33:42.884Z</time></trkpt><trkpt lat="43.8235561" lon="7.4836523"><ele>289.0</ele><time>2026-05-01T13:33:43.884Z</time></trkpt><trkpt lat="43.8235267" lon="7.4838294"><ele>289.0</ele><time>2026-05-01T13:33:44.884Z</time></trkpt><trkpt lat="43.8234392" lon="7.4839873"><ele>284.0</ele><time>2026-05-01T13:33:45.884Z</time></trkpt><trkpt lat="43.8233516" lon="7.4841153"><ele>279.0</ele><time>2026-05-01T13:33:46.884Z</time></trkpt><trkpt lat="43.8232275" lon="7.484221"><ele>274.0</ele><time>2026-05-01T13:33:47.884Z</time></trkpt><trkpt lat="43.8231321" lon="7.4842121"><ele>269.0</ele><time>2026-05-01T13:33:48.885Z</time></trkpt><trkpt lat="43.8229668" lon="7.4842647"><ele>269.0</ele><time>2026-05-01T13:33:49.884Z</time></trkpt><trkpt lat="43.8228272" lon="7.4842892"><ele>269.0</ele><time>2026-05-01T13:33:50.884Z</time></trkpt><trkpt lat="43.8226704" lon="7.4843174"><ele>269.0</ele><time>2026-05-01T13:33:51.884Z</time></trkpt><trkpt lat="43.8225131" lon="7.4843574"><ele>270.0</ele><time>2026-05-01T13:33:52.884Z</time></trkpt><trkpt lat="43.822429" lon="7.4844033"><ele>271.0</ele><time>2026-05-01T13:33:53.884Z</time></trkpt><trkpt lat="43.8223127" lon="7.4843974"><ele>272.0</ele><time>2026-05-01T13:33:54.884Z</time></trkpt><trkpt lat="43.8221381" lon="7.4844174"><ele>273.0</ele><time>2026-05-01T13:33:55.884Z</time></trkpt><trkpt lat="43.8220037" lon="7.4844394"><ele>273.0</ele><time>2026-05-01T13:33:56.884Z</time></trkpt><trkpt lat="43.8218383" lon="7.4844899"><ele>273.0</ele><time>2026-05-01T13:33:57.884Z</time></trkpt><trkpt lat="43.8216798" lon="7.4845302"><ele>273.0</ele><time>2026-05-01T13:33:58.884Z</time></trkpt><trkpt lat="43.8215389" lon="7.4845754"><ele>273.4</ele><time>2026-05-01T13:33:59.884Z</time></trkpt><trkpt lat="43.8214379" lon="7.4845661"><ele>273.8</ele><time>2026-05-01T13:34:00.884Z</time></trkpt><trkpt lat="43.821326" lon="7.4846036"><ele>274.2</ele><time>2026-05-01T13:34:01.884Z</time></trkpt><trkpt lat="43.8212059" lon="7.4846081"><ele>274.6</ele><time>2026-05-01T13:34:03.884Z</time></trkpt><trkpt lat="43.8211473" lon="7.4846722"><ele>275.0</ele><time>2026-05-01T13:34:04.884Z</time></trkpt><trkpt lat="43.8210854" lon="7.4847321"><ele>270.8</ele><time>2026-05-01T13:34:07.884Z</time></trkpt><trkpt lat="43.8210001" lon="7.4848084"><ele>266.6</ele><time>2026-05-01T13:34:08.884Z</time></trkpt><trkpt lat="43.820895" lon="7.4848695"><ele>262.4</ele><time>2026-05-01T13:34:09.884Z</time></trkpt><trkpt lat="43.8208201" lon="7.4849304"><ele>258.2</ele><time>2026-05-01T13:34:10.884Z</time></trkpt><trkpt lat="43.8207451" lon="7.4849499"><ele>254.0</ele><time>2026-05-01T13:34:11.884Z</time></trkpt><trkpt lat="43.8206444" lon="7.4849489"><ele>254.0</ele><time>2026-05-01T13:34:12.887Z</time></trkpt><trkpt lat="43.8205112" lon="7.4849499"><ele>254.0</ele><time>2026-05-01T13:34:13.882Z</time></trkpt><trkpt lat="43.8203483" lon="7.4849573"><ele>254.0</ele><time>2026-05-01T13:34:14.884Z</time></trkpt><trkpt lat="43.8202406" lon="7.484988"><ele>254.0</ele><time>2026-05-01T13:34:15.882Z</time></trkpt><trkpt lat="43.8201339" lon="7.4850231"><ele>252.0</ele><time>2026-05-01T13:34:16.889Z</time></trkpt><trkpt lat="43.8200441" lon="7.4850804"><ele>249.99999999999997</ele><time>2026-05-01T13:34:17.885Z</time></trkpt><trkpt lat="43.8199584" lon="7.4851612"><ele>247.99999999999997</ele><time>2026-05-01T13:34:18.885Z</time></trkpt><trkpt lat="43.8198835" lon="7.4852262"><ele>246.0</ele><time>2026-05-01T13:34:19.885Z</time></trkpt><trkpt lat="43.8198084" lon="7.4853413"><ele>244.0</ele><time>2026-05-01T13:34:20.885Z</time></trkpt><trkpt lat="43.8197357" lon="7.4854362"><ele>244.0</ele><time>2026-05-01T13:34:21.885Z</time></trkpt><trkpt lat="43.8196608" lon="7.4855481"><ele>243.99999999999997</ele><time>2026-05-01T13:34:22.885Z</time></trkpt><trkpt lat="43.8195804" lon="7.4856786"><ele>243.99999999999997</ele><time>2026-05-01T13:34:23.885Z</time></trkpt><trkpt lat="43.8195247" lon="7.4857368"><ele>244.0</ele><time>2026-05-01T13:34:24.885Z</time></trkpt><trkpt lat="43.8194491" lon="7.4858715"><ele>244.0</ele><time>2026-05-01T13:34:25.885Z</time></trkpt><trkpt lat="43.819387" lon="7.4860001"><ele>240.5</ele><time>2026-05-01T13:34:26.885Z</time></trkpt><trkpt lat="43.8192987" lon="7.4861055"><ele>237.0</ele><time>2026-05-01T13:34:27.885Z</time></trkpt><trkpt lat="43.8192164" lon="7.4862406"><ele>233.5</ele><time>2026-05-01T13:34:28.885Z</time></trkpt><trkpt lat="43.8191498" lon="7.4863386"><ele>230.0</ele><time>2026-05-01T13:34:29.885Z</time></trkpt><trkpt lat="43.8190358" lon="7.4864417"><ele>230.0</ele><time>2026-05-01T13:34:30.885Z</time></trkpt><trkpt lat="43.8189118" lon="7.4865348"><ele>230.0</ele><time>2026-05-01T13:34:31.885Z</time></trkpt><trkpt lat="43.818784" lon="7.4866015"><ele>230.0</ele><time>2026-05-01T13:34:32.886Z</time></trkpt><trkpt lat="43.8186348" lon="7.4866601"><ele>230.0</ele><time>2026-05-01T13:34:33.885Z</time></trkpt><trkpt lat="43.8184601" lon="7.4867558"><ele>233.25</ele><time>2026-05-01T13:34:34.885Z</time></trkpt><trkpt lat="43.8183045" lon="7.486865"><ele>236.5</ele><time>2026-05-01T13:34:35.885Z</time></trkpt><trkpt lat="43.8182048" lon="7.4869085"><ele>239.75</ele><time>2026-05-01T13:34:36.885Z</time></trkpt><trkpt lat="43.8180857" lon="7.4869905"><ele>243.0</ele><time>2026-05-01T13:34:37.885Z</time></trkpt><trkpt lat="43.8179445" lon="7.4870375"><ele>243.0</ele><time>2026-05-01T13:34:38.885Z</time></trkpt><trkpt lat="43.8178579" lon="7.4870499"><ele>243.0</ele><time>2026-05-01T13:34:39.885Z</time></trkpt><trkpt lat="43.8177663" lon="7.4870664"><ele>243.0</ele><time>2026-05-01T13:34:40.885Z</time></trkpt><trkpt lat="43.8176397" lon="7.4870716"><ele>243.0</ele><time>2026-05-01T13:34:41.885Z</time></trkpt><trkpt lat="43.8175253" lon="7.4871027"><ele>243.0</ele><time>2026-05-01T13:34:42.885Z</time></trkpt><trkpt lat="43.8174455" lon="7.4870781"><ele>240.4</ele><time>2026-05-01T13:34:43.885Z</time></trkpt><trkpt lat="43.8173617" lon="7.4870388"><ele>237.8</ele><time>2026-05-01T13:34:44.885Z</time></trkpt><trkpt lat="43.8172447" lon="7.4869173"><ele>235.2</ele><time>2026-05-01T13:34:45.885Z</time></trkpt><trkpt lat="43.8171695" lon="7.4868391"><ele>232.6</ele><time>2026-05-01T13:34:46.885Z</time></trkpt><trkpt lat="43.817112" lon="7.4866998"><ele>230.0</ele><time>2026-05-01T13:34:47.885Z</time></trkpt><trkpt lat="43.8170406" lon="7.4865875"><ele>230.0</ele><time>2026-05-01T13:34:48.886Z</time></trkpt><trkpt lat="43.8169428" lon="7.4864695"><ele>230.0</ele><time>2026-05-01T13:34:49.885Z</time></trkpt><trkpt lat="43.8168825" lon="7.4863186"><ele>230.0</ele><time>2026-05-01T13:34:50.885Z</time></trkpt><trkpt lat="43.8168317" lon="7.4861964"><ele>230.0</ele><time>2026-05-01T13:34:51.886Z</time></trkpt><trkpt lat="43.8168367" lon="7.4860733"><ele>230.0</ele><time>2026-05-01T13:34:52.885Z</time></trkpt><trkpt lat="43.8168517" lon="7.4859788"><ele>230.75</ele><time>2026-05-01T13:34:53.886Z</time></trkpt><trkpt lat="43.8169772" lon="7.4857719"><ele>231.5</ele><time>2026-05-01T13:34:54.885Z</time></trkpt><trkpt lat="43.8170199" lon="7.4856716"><ele>232.25</ele><time>2026-05-01T13:34:55.885Z</time></trkpt><trkpt lat="43.8170696" lon="7.4855699"><ele>233.0</ele><time>2026-05-01T13:34:56.885Z</time></trkpt><trkpt lat="43.8171352" lon="7.485428"><ele>233.0</ele><time>2026-05-01T13:34:57.885Z</time></trkpt><trkpt lat="43.8172012" lon="7.4852955"><ele>233.0</ele><time>2026-05-01T13:34:58.885Z</time></trkpt><trkpt lat="43.8172455" lon="7.485198"><ele>233.0</ele><time>2026-05-01T13:34:59.885Z</time></trkpt><trkpt lat="43.8170207" lon="7.4850121"><ele>234.0</ele><time>2026-05-01T13:35:06.885Z</time></trkpt><trkpt lat="43.816816" lon="7.4850509"><ele>235.0</ele><time>2026-05-01T13:35:07.886Z</time></trkpt><trkpt lat="43.8166576" lon="7.4850645"><ele>236.0</ele><time>2026-05-01T13:35:08.885Z</time></trkpt><trkpt lat="43.8165275" lon="7.4852115"><ele>236.0</ele><time>2026-05-01T13:35:10.885Z</time></trkpt><trkpt lat="43.8164066" lon="7.4852495"><ele>236.0</ele><time>2026-05-01T13:35:11.885Z</time></trkpt><trkpt lat="43.8162996" lon="7.4853002"><ele>236.0</ele><time>2026-05-01T13:35:12.885Z</time></trkpt><trkpt lat="43.8161995" lon="7.4853674"><ele>236.0</ele><time>2026-05-01T13:35:13.885Z</time></trkpt><trkpt lat="43.8160608" lon="7.4853562"><ele>234.4</ele><time>2026-05-01T13:35:14.885Z</time></trkpt><trkpt lat="43.8159527" lon="7.4853478"><ele>232.8</ele><time>2026-05-01T13:35:15.886Z</time></trkpt><trkpt lat="43.8158604" lon="7.4853363"><ele>231.20000000000002</ele><time>2026-05-01T13:35:16.886Z</time></trkpt><trkpt lat="43.8157501" lon="7.4853191"><ele>229.60000000000002</ele><time>2026-05-01T13:35:17.885Z</time></trkpt><trkpt lat="43.8156419" lon="7.4853068"><ele>228.0</ele><time>2026-05-01T13:35:18.885Z</time></trkpt><trkpt lat="43.8154844" lon="7.4852828"><ele>228.0</ele><time>2026-05-01T13:35:19.885Z</time></trkpt><trkpt lat="43.8153631" lon="7.4852882"><ele>228.0</ele><time>2026-05-01T13:35:20.885Z</time></trkpt><trkpt lat="43.8152441" lon="7.4853074"><ele>228.0</ele><time>2026-05-01T13:35:21.885Z</time></trkpt><trkpt lat="43.8151121" lon="7.4853108"><ele>228.0</ele><time>2026-05-01T13:35:22.885Z</time></trkpt><trkpt lat="43.8150222" lon="7.4852843"><ele>228.75</ele><time>2026-05-01T13:35:23.885Z</time></trkpt><trkpt lat="43.8149006" lon="7.4852825"><ele>229.5</ele><time>2026-05-01T13:35:24.885Z</time></trkpt><trkpt lat="43.8147872" lon="7.4852934"><ele>230.25</ele><time>2026-05-01T13:35:25.885Z</time></trkpt><trkpt lat="43.81466" lon="7.4853321"><ele>231.0</ele><time>2026-05-01T13:35:26.885Z</time></trkpt><trkpt lat="43.814522" lon="7.4853233"><ele>231.0</ele><time>2026-05-01T13:35:27.885Z</time></trkpt><trkpt lat="43.8143897" lon="7.4853366"><ele>231.00000000000003</ele><time>2026-05-01T13:35:28.885Z</time></trkpt><trkpt lat="43.814291" lon="7.4853374"><ele>231.00000000000003</ele><time>2026-05-01T13:35:29.885Z</time></trkpt><trkpt lat="43.8142134" lon="7.485309"><ele>231.0</ele><time>2026-05-01T13:35:30.885Z</time></trkpt><trkpt lat="43.814112" lon="7.4852848"><ele>231.0</ele><time>2026-05-01T13:35:31.886Z</time></trkpt><trkpt lat="43.814013" lon="7.4852645"><ele>226.5</ele><time>2026-05-01T13:35:32.885Z</time></trkpt><trkpt lat="43.8138942" lon="7.485268"><ele>222.0</ele><time>2026-05-01T13:35:33.885Z</time></trkpt><trkpt lat="43.8137731" lon="7.4852688"><ele>217.5</ele><time>2026-05-01T13:35:34.886Z</time></trkpt><trkpt lat="43.8136712" lon="7.4853039"><ele>213.0</ele><time>2026-05-01T13:35:35.885Z</time></trkpt><trkpt lat="43.8135439" lon="7.4853441"><ele>208.4</ele><time>2026-05-01T13:35:36.885Z</time></trkpt><trkpt lat="43.8134225" lon="7.4853483"><ele>203.8</ele><time>2026-05-01T13:35:37.885Z</time></trkpt><trkpt lat="43.8133908" lon="7.4852673"><ele>199.2</ele><time>2026-05-01T13:35:38.885Z</time></trkpt><trkpt lat="43.8133261" lon="7.4850841"><ele>194.6</ele><time>2026-05-01T13:35:39.885Z</time></trkpt><trkpt lat="43.8132898" lon="7.4849648"><ele>190.0</ele><time>2026-05-01T13:35:40.885Z</time></trkpt><trkpt lat="43.8132631" lon="7.484817"><ele>190.0</ele><time>2026-05-01T13:35:41.885Z</time></trkpt><trkpt lat="43.8132339" lon="7.4846666"><ele>190.0</ele><time>2026-05-01T13:35:42.885Z</time></trkpt><trkpt lat="43.8132502" lon="7.4845349"><ele>190.0</ele><time>2026-05-01T13:35:43.885Z</time></trkpt><trkpt lat="43.8132477" lon="7.4844043"><ele>190.0</ele><time>2026-05-01T13:35:44.885Z</time></trkpt><trkpt lat="43.8132742" lon="7.484256"><ele>190.0</ele><time>2026-05-01T13:35:45.885Z</time></trkpt><trkpt lat="43.8132817" lon="7.4841126"><ele>192.2</ele><time>2026-05-01T13:35:46.885Z</time></trkpt><trkpt lat="43.8133111" lon="7.4839212"><ele>194.4</ele><time>2026-05-01T13:35:47.885Z</time></trkpt><trkpt lat="43.8133127" lon="7.483786"><ele>196.60000000000002</ele><time>2026-05-01T13:35:48.885Z</time></trkpt><trkpt lat="43.8132774" lon="7.4836974"><ele>198.8</ele><time>2026-05-01T13:35:52.885Z</time></trkpt><trkpt lat="43.8132129" lon="7.483845"><ele>201.0</ele><time>2026-05-01T13:35:53.885Z</time></trkpt><trkpt lat="43.8131133" lon="7.4839831"><ele>201.0</ele><time>2026-05-01T13:35:55.885Z</time></trkpt><trkpt lat="43.8130294" lon="7.4841408"><ele>201.0</ele><time>2026-05-01T13:35:57.885Z</time></trkpt><trkpt lat="43.8128592" lon="7.4843397"><ele>201.0</ele><time>2026-05-01T13:35:58.885Z</time></trkpt><trkpt lat="43.812726" lon="7.4844565"><ele>200.4</ele><time>2026-05-01T13:35:59.885Z</time></trkpt><trkpt lat="43.8126202" lon="7.4845924"><ele>199.8</ele><time>2026-05-01T13:36:00.885Z</time></trkpt><trkpt lat="43.812567" lon="7.4847269"><ele>199.20000000000002</ele><time>2026-05-01T13:36:01.885Z</time></trkpt><trkpt lat="43.8125204" lon="7.4848368"><ele>198.60000000000002</ele><time>2026-05-01T13:36:02.885Z</time></trkpt><trkpt lat="43.8124967" lon="7.4849553"><ele>198.0</ele><time>2026-05-01T13:36:03.885Z</time></trkpt><trkpt lat="43.8124475" lon="7.4851322"><ele>198.0</ele><time>2026-05-01T13:36:04.885Z</time></trkpt><trkpt lat="43.8124312" lon="7.485265"><ele>198.0</ele><time>2026-05-01T13:36:05.885Z</time></trkpt><trkpt lat="43.8124128" lon="7.4853845"><ele>198.0</ele><time>2026-05-01T13:36:06.885Z</time></trkpt><trkpt lat="43.8123546" lon="7.485501"><ele>198.0</ele><time>2026-05-01T13:36:07.885Z</time></trkpt><trkpt lat="43.8123216" lon="7.4855988"><ele>198.0</ele><time>2026-05-01T13:36:08.885Z</time></trkpt><trkpt lat="43.8122595" lon="7.4856688"><ele>198.0</ele><time>2026-05-01T13:36:09.885Z</time></trkpt><trkpt lat="43.8121728" lon="7.4857301"><ele>194.8</ele><time>2026-05-01T13:36:10.885Z</time></trkpt><trkpt lat="43.8120393" lon="7.4857232"><ele>191.60000000000002</ele><time>2026-05-01T13:36:12.885Z</time></trkpt><trkpt lat="43.8119229" lon="7.4857195"><ele>188.39999999999998</ele><time>2026-05-01T13:36:13.885Z</time></trkpt><trkpt lat="43.8118161" lon="7.4857295"><ele>185.2</ele><time>2026-05-01T13:36:14.885Z</time></trkpt><trkpt lat="43.8117274" lon="7.4857262"><ele>182.0</ele><time>2026-05-01T13:36:15.885Z</time></trkpt><trkpt lat="43.8116322" lon="7.4857023"><ele>182.0</ele><time>2026-05-01T13:36:16.885Z</time></trkpt><trkpt lat="43.8115264" lon="7.4856753"><ele>182.0</ele><time>2026-05-01T13:36:17.885Z</time></trkpt><trkpt lat="43.8114212" lon="7.4856632"><ele>182.0</ele><time>2026-05-01T13:36:18.885Z</time></trkpt><trkpt lat="43.8113233" lon="7.4856366"><ele>182.0</ele><time>2026-05-01T13:36:19.885Z</time></trkpt><trkpt lat="43.8112333" lon="7.4856215"><ele>182.0</ele><time>2026-05-01T13:36:20.885Z</time></trkpt><trkpt lat="43.8111258" lon="7.4855655"><ele>182.0</ele><time>2026-05-01T13:36:21.885Z</time></trkpt><trkpt lat="43.8110186" lon="7.4855476"><ele>182.0</ele><time>2026-05-01T13:36:22.885Z</time></trkpt><trkpt lat="43.8109355" lon="7.4854945"><ele>182.0</ele><time>2026-05-01T13:36:23.885Z</time></trkpt><trkpt lat="43.81083" lon="7.4854866"><ele>182.0</ele><time>2026-05-01T13:36:24.886Z</time></trkpt><trkpt lat="43.8106997" lon="7.4854413"><ele>182.0</ele><time>2026-05-01T13:36:25.885Z</time></trkpt><trkpt lat="43.8106199" lon="7.4854179"><ele>187.0</ele><time>2026-05-01T13:36:26.885Z</time></trkpt><trkpt lat="43.8105168" lon="7.4854082"><ele>192.0</ele><time>2026-05-01T13:36:27.885Z</time></trkpt><trkpt lat="43.8104021" lon="7.4853491"><ele>197.0</ele><time>2026-05-01T13:36:28.885Z</time></trkpt><trkpt lat="43.8103085" lon="7.4852748"><ele>202.0</ele><time>2026-05-01T13:36:29.885Z</time></trkpt><trkpt lat="43.8102765" lon="7.4851908"><ele>207.0</ele><time>2026-05-01T13:36:30.885Z</time></trkpt><trkpt lat="43.8102202" lon="7.4851397"><ele>207.0</ele><time>2026-05-01T13:36:31.885Z</time></trkpt><trkpt lat="43.8102086" lon="7.4850044"><ele>207.0</ele><time>2026-05-01T13:36:32.885Z</time></trkpt><trkpt lat="43.8102179" lon="7.4848953"><ele>207.0</ele><time>2026-05-01T13:36:33.885Z</time></trkpt><trkpt lat="43.810238" lon="7.4847231"><ele>207.0</ele><time>2026-05-01T13:36:34.885Z</time></trkpt><trkpt lat="43.810227" lon="7.4846077"><ele>207.0</ele><time>2026-05-01T13:36:35.885Z</time></trkpt><trkpt lat="43.8101877" lon="7.4845064"><ele>206.66666666666666</ele><time>2026-05-01T13:36:36.885Z</time></trkpt><trkpt lat="43.8101471" lon="7.4844146"><ele>206.33333333333331</ele><time>2026-05-01T13:36:37.885Z</time></trkpt><trkpt lat="43.8100546" lon="7.4843668"><ele>206.0</ele><time>2026-05-01T13:36:39.886Z</time></trkpt><trkpt lat="43.80998" lon="7.4843642"><ele>205.66666666666666</ele><time>2026-05-01T13:36:40.886Z</time></trkpt><trkpt lat="43.8098785" lon="7.4843952"><ele>205.33333333333331</ele><time>2026-05-01T13:36:41.886Z</time></trkpt><trkpt lat="43.8098264" lon="7.4844795"><ele>205.0</ele><time>2026-05-01T13:36:42.886Z</time></trkpt><trkpt lat="43.809766" lon="7.4845584"><ele>201.2</ele><time>2026-05-01T13:36:43.885Z</time></trkpt><trkpt lat="43.8097051" lon="7.4846506"><ele>197.4</ele><time>2026-05-01T13:36:44.885Z</time></trkpt><trkpt lat="43.8096322" lon="7.4847265"><ele>193.60000000000002</ele><time>2026-05-01T13:36:45.885Z</time></trkpt><trkpt lat="43.809549" lon="7.4848093"><ele>189.8</ele><time>2026-05-01T13:36:46.886Z</time></trkpt><trkpt lat="43.8094649" lon="7.4848732"><ele>186.0</ele><time>2026-05-01T13:36:47.885Z</time></trkpt><trkpt lat="43.8093784" lon="7.4848881"><ele>187.0</ele><time>2026-05-01T13:36:48.885Z</time></trkpt><trkpt lat="43.809282" lon="7.4849024"><ele>188.0</ele><time>2026-05-01T13:36:49.885Z</time></trkpt><trkpt lat="43.8091778" lon="7.4849437"><ele>189.0</ele><time>2026-05-01T13:36:50.885Z</time></trkpt><trkpt lat="43.8091156" lon="7.4850056"><ele>190.0</ele><time>2026-05-01T13:36:51.885Z</time></trkpt><trkpt lat="43.8090237" lon="7.4850344"><ele>191.0</ele><time>2026-05-01T13:36:52.885Z</time></trkpt><trkpt lat="43.8089461" lon="7.4850672"><ele>191.0</ele><time>2026-05-01T13:36:53.885Z</time></trkpt><trkpt lat="43.808796" lon="7.4850784"><ele>191.0</ele><time>2026-05-01T13:36:55.885Z</time></trkpt><trkpt lat="43.8087142" lon="7.4849838"><ele>191.0</ele><time>2026-05-01T13:36:57.885Z</time></trkpt><trkpt lat="43.8086595" lon="7.4848628"><ele>191.0</ele><time>2026-05-01T13:36:59.885Z</time></trkpt><trkpt lat="43.808623" lon="7.4846984"><ele>193.60000000000002</ele><time>2026-05-01T13:37:00.885Z</time></trkpt><trkpt lat="43.808606" lon="7.4845258"><ele>196.2</ele><time>2026-05-01T13:37:02.885Z</time></trkpt><trkpt lat="43.8086822" lon="7.4843949"><ele>198.8</ele><time>2026-05-01T13:37:03.885Z</time></trkpt><trkpt lat="43.8087451" lon="7.4842858"><ele>201.39999999999998</ele><time>2026-05-01T13:37:04.885Z</time></trkpt><trkpt lat="43.8087884" lon="7.484185"><ele>204.0</ele><time>2026-05-01T13:37:05.885Z</time></trkpt><trkpt lat="43.8088368" lon="7.4840922"><ele>204.0</ele><time>2026-05-01T13:37:06.885Z</time></trkpt><trkpt lat="43.8088649" lon="7.4839828"><ele>204.0</ele><time>2026-05-01T13:37:07.885Z</time></trkpt><trkpt lat="43.8088038" lon="7.4838089"><ele>204.0</ele><time>2026-05-01T13:37:09.885Z</time></trkpt><trkpt lat="43.8087527" lon="7.4837198"><ele>204.0</ele><time>2026-05-01T13:37:10.886Z</time></trkpt><trkpt lat="43.8086735" lon="7.4836642"><ele>204.0</ele><time>2026-05-01T13:37:11.885Z</time></trkpt><trkpt lat="43.8085797" lon="7.4835837"><ele>202.6</ele><time>2026-05-01T13:37:12.885Z</time></trkpt><trkpt lat="43.8084879" lon="7.4835958"><ele>201.2</ele><time>2026-05-01T13:37:13.885Z</time></trkpt><trkpt lat="43.808405" lon="7.4836219"><ele>199.79999999999998</ele><time>2026-05-01T13:37:14.885Z</time></trkpt><trkpt lat="43.8083103" lon="7.4836745"><ele>198.39999999999998</ele><time>2026-05-01T13:37:16.885Z</time></trkpt><trkpt lat="43.8082316" lon="7.4837534"><ele>197.0</ele><time>2026-05-01T13:37:17.885Z</time></trkpt><trkpt lat="43.8081269" lon="7.4838904"><ele>193.5</ele><time>2026-05-01T13:37:18.885Z</time></trkpt><trkpt lat="43.8080541" lon="7.4840755"><ele>190.0</ele><time>2026-05-01T13:37:20.885Z</time></trkpt><trkpt lat="43.8079976" lon="7.4841834"><ele>186.5</ele><time>2026-05-01T13:37:21.885Z</time></trkpt><trkpt lat="43.8079214" lon="7.4843568"><ele>183.0</ele><time>2026-05-01T13:37:22.885Z</time></trkpt><trkpt lat="43.8078498" lon="7.4845258"><ele>181.75</ele><time>2026-05-01T13:37:23.885Z</time></trkpt><trkpt lat="43.8077501" lon="7.4847217"><ele>180.5</ele><time>2026-05-01T13:37:24.885Z</time></trkpt><trkpt lat="43.8076439" lon="7.4848307"><ele>179.25</ele><time>2026-05-01T13:37:25.885Z</time></trkpt><trkpt lat="43.8075766" lon="7.4849337"><ele>178.0</ele><time>2026-05-01T13:37:26.885Z</time></trkpt><trkpt lat="43.8075249" lon="7.485016"><ele>178.0</ele><time>2026-05-01T13:37:27.885Z</time></trkpt><trkpt lat="43.8074273" lon="7.4850961"><ele>178.0</ele><time>2026-05-01T13:37:28.885Z</time></trkpt><trkpt lat="43.8073072" lon="7.4851767"><ele>178.0</ele><time>2026-05-01T13:37:29.885Z</time></trkpt><trkpt lat="43.8072322" lon="7.4852921"><ele>178.0</ele><time>2026-05-01T13:37:30.885Z</time></trkpt><trkpt lat="43.8071258" lon="7.4854096"><ele>174.0</ele><time>2026-05-01T13:37:31.885Z</time></trkpt><trkpt lat="43.8070634" lon="7.4854775"><ele>170.0</ele><time>2026-05-01T13:37:32.886Z</time></trkpt><trkpt lat="43.8069712" lon="7.4856689"><ele>166.0</ele><time>2026-05-01T13:37:34.885Z</time></trkpt><trkpt lat="43.8068981" lon="7.4857376"><ele>162.0</ele><time>2026-05-01T13:37:35.885Z</time></trkpt><trkpt lat="43.8067812" lon="7.485849"><ele>162.0</ele><time>2026-05-01T13:37:36.885Z</time></trkpt><trkpt lat="43.8066997" lon="7.4858687"><ele>162.0</ele><time>2026-05-01T13:37:37.885Z</time></trkpt><trkpt lat="43.8065842" lon="7.4859377"><ele>162.0</ele><time>2026-05-01T13:37:38.885Z</time></trkpt><trkpt lat="43.8064894" lon="7.4859279"><ele>162.0</ele><time>2026-05-01T13:37:39.885Z</time></trkpt><trkpt lat="43.8063557" lon="7.4859187"><ele>162.0</ele><time>2026-05-01T13:37:40.885Z</time></trkpt><trkpt lat="43.8062185" lon="7.4859459"><ele>162.0</ele><time>2026-05-01T13:37:41.885Z</time></trkpt><trkpt lat="43.8061026" lon="7.4859232"><ele>162.0</ele><time>2026-05-01T13:37:42.885Z</time></trkpt><trkpt lat="43.8059673" lon="7.4859231"><ele>162.0</ele><time>2026-05-01T13:37:43.885Z</time></trkpt><trkpt lat="43.8058417" lon="7.4858643"><ele>162.0</ele><time>2026-05-01T13:37:44.885Z</time></trkpt><trkpt lat="43.8057212" lon="7.4858419"><ele>159.0</ele><time>2026-05-01T13:37:45.885Z</time></trkpt><trkpt lat="43.8056304" lon="7.4858103"><ele>156.0</ele><time>2026-05-01T13:37:46.885Z</time></trkpt><trkpt lat="43.8055191" lon="7.4858207"><ele>153.0</ele><time>2026-05-01T13:37:47.885Z</time></trkpt><trkpt lat="43.8054175" lon="7.4858037"><ele>150.0</ele><time>2026-05-01T13:37:48.885Z</time></trkpt><trkpt lat="43.8052642" lon="7.4858291"><ele>148.25</ele><time>2026-05-01T13:37:49.885Z</time></trkpt><trkpt lat="43.8051607" lon="7.4858621"><ele>146.5</ele><time>2026-05-01T13:37:50.885Z</time></trkpt><trkpt lat="43.8050435" lon="7.4858998"><ele>144.75</ele><time>2026-05-01T13:37:51.885Z</time></trkpt><trkpt lat="43.804916" lon="7.485935"><ele>143.0</ele><time>2026-05-01T13:37:52.885Z</time></trkpt><trkpt lat="43.8047901" lon="7.4859561"><ele>143.0</ele><time>2026-05-01T13:37:53.885Z</time></trkpt><trkpt lat="43.804638" lon="7.4859907"><ele>143.0</ele><time>2026-05-01T13:37:54.885Z</time></trkpt><trkpt lat="43.8044946" lon="7.485983"><ele>143.0</ele><time>2026-05-01T13:37:55.885Z</time></trkpt><trkpt lat="43.8043858" lon="7.4860106"><ele>143.0</ele><time>2026-05-01T13:37:56.885Z</time></trkpt><trkpt lat="43.8042899" lon="7.4860115"><ele>142.6</ele><time>2026-05-01T13:37:57.885Z</time></trkpt><trkpt lat="43.8041925" lon="7.4860028"><ele>142.20000000000002</ele><time>2026-05-01T13:37:58.885Z</time></trkpt><trkpt lat="43.8041085" lon="7.4859944"><ele>141.8</ele><time>2026-05-01T13:37:59.885Z</time></trkpt><trkpt lat="43.8040129" lon="7.4859538"><ele>141.4</ele><time>2026-05-01T13:38:00.885Z</time></trkpt><trkpt lat="43.8039061" lon="7.4858954"><ele>141.0</ele><time>2026-05-01T13:38:01.885Z</time></trkpt><trkpt lat="43.8038384" lon="7.4858185"><ele>141.0</ele><time>2026-05-01T13:38:02.885Z</time></trkpt><trkpt lat="43.803771" lon="7.4856757"><ele>141.0</ele><time>2026-05-01T13:38:03.885Z</time></trkpt><trkpt lat="43.8036462" lon="7.4855703"><ele>141.0</ele><time>2026-05-01T13:38:05.885Z</time></trkpt><trkpt lat="43.8035898" lon="7.4855266"><ele>141.0</ele><time>2026-05-01T13:38:06.885Z</time></trkpt><trkpt lat="43.8034936" lon="7.4854941"><ele>141.0</ele><time>2026-05-01T13:38:08.885Z</time></trkpt><trkpt lat="43.8034056" lon="7.4855144"><ele>140.5</ele><time>2026-05-01T13:38:10.885Z</time></trkpt><trkpt lat="43.8033436" lon="7.485577"><ele>140.0</ele><time>2026-05-01T13:38:11.885Z</time></trkpt><trkpt lat="43.8032987" lon="7.4856461"><ele>139.5</ele><time>2026-05-01T13:38:12.885Z</time></trkpt><trkpt lat="43.8032435" lon="7.4857443"><ele>139.0</ele><time>2026-05-01T13:38:13.885Z</time></trkpt><trkpt lat="43.8031854" lon="7.4858399"><ele>138.5</ele><time>2026-05-01T13:38:14.885Z</time></trkpt><trkpt lat="43.8031389" lon="7.4859151"><ele>138.0</ele><time>2026-05-01T13:38:15.885Z</time></trkpt><trkpt lat="43.8030742" lon="7.4859796"><ele>138.0</ele><time>2026-05-01T13:38:16.885Z</time></trkpt><trkpt lat="43.802999" lon="7.4860075"><ele>138.0</ele><time>2026-05-01T13:38:17.885Z</time></trkpt><trkpt lat="43.8029237" lon="7.4860373"><ele>138.0</ele><time>2026-05-01T13:38:18.885Z</time></trkpt><trkpt lat="43.8028468" lon="7.4860729"><ele>138.0</ele><time>2026-05-01T13:38:19.885Z</time></trkpt><trkpt lat="43.8027732" lon="7.4861297"><ele>138.0</ele><time>2026-05-01T13:38:20.886Z</time></trkpt><trkpt lat="43.8026543" lon="7.4861622"><ele>138.0</ele><time>2026-05-01T13:38:22.885Z</time></trkpt><trkpt lat="43.8025275" lon="7.4861737"><ele>139.20000000000002</ele><time>2026-05-01T13:38:24.885Z</time></trkpt><trkpt lat="43.8024623" lon="7.486182"><ele>140.4</ele><time>2026-05-01T13:38:25.885Z</time></trkpt><trkpt lat="43.8023452" lon="7.486183"><ele>141.60000000000002</ele><time>2026-05-01T13:38:27.885Z</time></trkpt><trkpt lat="43.8022776" lon="7.4861736"><ele>142.8</ele><time>2026-05-01T13:38:28.885Z</time></trkpt><trkpt lat="43.8022088" lon="7.4861262"><ele>144.0</ele><time>2026-05-01T13:38:29.885Z</time></trkpt><trkpt lat="43.8020812" lon="7.4860245"><ele>144.0</ele><time>2026-05-01T13:38:31.885Z</time></trkpt><trkpt lat="43.802009" lon="7.4859406"><ele>144.0</ele><time>2026-05-01T13:38:32.885Z</time></trkpt><trkpt lat="43.8019292" lon="7.4858453"><ele>144.0</ele><time>2026-05-01T13:38:34.885Z</time></trkpt><trkpt lat="43.8018752" lon="7.4857761"><ele>144.0</ele><time>2026-05-01T13:38:35.885Z</time></trkpt><trkpt lat="43.8018249" lon="7.4857179"><ele>144.0</ele><time>2026-05-01T13:38:36.885Z</time></trkpt><trkpt lat="43.8017278" lon="7.4856143"><ele>141.5</ele><time>2026-05-01T13:38:37.885Z</time></trkpt><trkpt lat="43.8016676" lon="7.4855607"><ele>139.0</ele><time>2026-05-01T13:38:38.886Z</time></trkpt><trkpt lat="43.8015944" lon="7.485525"><ele>136.5</ele><time>2026-05-01T13:38:39.885Z</time></trkpt><trkpt lat="43.8015053" lon="7.4855108"><ele>134.0</ele><time>2026-05-01T13:38:40.886Z</time></trkpt><trkpt lat="43.8014218" lon="7.4855185"><ele>131.5</ele><time>2026-05-01T13:38:41.885Z</time></trkpt><trkpt lat="43.8013409" lon="7.4855523"><ele>129.0</ele><time>2026-05-01T13:38:42.885Z</time></trkpt><trkpt lat="43.801281" lon="7.4857052"><ele>129.0</ele><time>2026-05-01T13:38:43.885Z</time></trkpt><trkpt lat="43.8012289" lon="7.4857936"><ele>129.0</ele><time>2026-05-01T13:38:44.885Z</time></trkpt><trkpt lat="43.8011442" lon="7.4858743"><ele>129.0</ele><time>2026-05-01T13:38:45.885Z</time></trkpt><trkpt lat="43.8010811" lon="7.48591"><ele>129.0</ele><time>2026-05-01T13:38:46.885Z</time></trkpt><trkpt lat="43.8010119" lon="7.4859799"><ele>129.0</ele><time>2026-05-01T13:38:47.885Z</time></trkpt><trkpt lat="43.8008954" lon="7.486054"><ele>131.57142857142856</ele><time>2026-05-01T13:38:49.885Z</time></trkpt><trkpt lat="43.800823" lon="7.4860675"><ele>134.14285714285714</ele><time>2026-05-01T13:38:50.885Z</time></trkpt><trkpt lat="43.8007571" lon="7.4860922"><ele>136.71428571428572</ele><time>2026-05-01T13:38:51.885Z</time></trkpt><trkpt lat="43.8006878" lon="7.4860985"><ele>139.28571428571428</ele><time>2026-05-01T13:38:52.885Z</time></trkpt><trkpt lat="43.8006182" lon="7.4861099"><ele>141.85714285714286</ele><time>2026-05-01T13:38:53.885Z</time></trkpt><trkpt lat="43.8005517" lon="7.486155"><ele>144.42857142857142</ele><time>2026-05-01T13:38:54.885Z</time></trkpt><trkpt lat="43.8004769" lon="7.48623"><ele>147.0</ele><time>2026-05-01T13:38:55.885Z</time></trkpt><trkpt lat="43.8003814" lon="7.4862734"><ele>138.6</ele><time>2026-05-01T13:38:56.885Z</time></trkpt><trkpt lat="43.8003183" lon="7.4863037"><ele>130.2</ele><time>2026-05-01T13:38:57.885Z</time></trkpt><trkpt lat="43.8002295" lon="7.4864343"><ele>121.8</ele><time>2026-05-01T13:38:59.886Z</time></trkpt><trkpt lat="43.8001617" lon="7.4864968"><ele>113.4</ele><time>2026-05-01T13:39:00.885Z</time></trkpt><trkpt lat="43.8000413" lon="7.4865554"><ele>105.0</ele><time>2026-05-01T13:39:02.885Z</time></trkpt><trkpt lat="43.7999392" lon="7.4866227"><ele>105.0</ele><time>2026-05-01T13:39:04.885Z</time></trkpt><trkpt lat="43.799853" lon="7.4865907"><ele>105.0</ele><time>2026-05-01T13:39:06.885Z</time></trkpt><trkpt lat="43.7997877" lon="7.4864842"><ele>105.0</ele><time>2026-05-01T13:39:07.885Z</time></trkpt><trkpt lat="43.7996995" lon="7.4864276"><ele>105.0</ele><time>2026-05-01T13:39:08.885Z</time></trkpt><trkpt lat="43.7996746" lon="7.486338"><ele>105.0</ele><time>2026-05-01T13:39:10.885Z</time></trkpt><trkpt lat="43.7996496" lon="7.4862547"><ele>105.0</ele><time>2026-05-01T13:39:11.885Z</time></trkpt><trkpt lat="43.7995637" lon="7.4862161"><ele>105.0</ele><time>2026-05-01T13:39:13.885Z</time></trkpt><trkpt lat="43.7994767" lon="7.4861994"><ele>105.0</ele><time>2026-05-01T13:39:16.885Z</time></trkpt><trkpt lat="43.7994087" lon="7.4862848"><ele>105.0</ele><time>2026-05-01T13:39:19.885Z</time></trkpt><trkpt lat="43.7993644" lon="7.4863501"><ele>105.0</ele><time>2026-05-01T13:39:20.885Z</time></trkpt><trkpt lat="43.7992442" lon="7.4865153"><ele>105.0</ele><time>2026-05-01T13:39:21.885Z</time></trkpt><trkpt lat="43.7991115" lon="7.4865558"><ele>106.4</ele><time>2026-05-01T13:39:22.885Z</time></trkpt><trkpt lat="43.7990924" lon="7.4867783"><ele>107.8</ele><time>2026-05-01T13:39:24.886Z</time></trkpt><trkpt lat="43.7990637" lon="7.4868833"><ele>109.19999999999999</ele><time>2026-05-01T13:39:26.885Z</time></trkpt><trkpt lat="43.7990271" lon="7.4869894"><ele>110.6</ele><time>2026-05-01T13:39:28.885Z</time></trkpt><trkpt lat="43.7989794" lon="7.4870615"><ele>112.0</ele><time>2026-05-01T13:39:34.885Z</time></trkpt><trkpt lat="43.7989503" lon="7.4871513"><ele>110.83333333333334</ele><time>2026-05-01T13:39:38.885Z</time></trkpt><trkpt lat="43.7988824" lon="7.487188"><ele>109.66666666666667</ele><time>2026-05-01T13:39:41.885Z</time></trkpt><trkpt lat="43.7988087" lon="7.4871074"><ele>108.5</ele><time>2026-05-01T13:39:48.885Z</time></trkpt><trkpt lat="43.7987279" lon="7.4871118"><ele>107.33333333333334</ele><time>2026-05-01T13:39:50.885Z</time></trkpt><trkpt lat="43.7986609" lon="7.4871361"><ele>106.16666666666667</ele><time>2026-05-01T13:39:52.885Z</time></trkpt><trkpt lat="43.7985327" lon="7.487119"><ele>105.0</ele><time>2026-05-01T13:39:54.885Z</time></trkpt><trkpt lat="43.7984008" lon="7.4870619"><ele>105.0</ele><time>2026-05-01T13:39:55.885Z</time></trkpt><trkpt lat="43.7984151" lon="7.4869765"><ele>105.0</ele><time>2026-05-01T13:39:56.885Z</time></trkpt><trkpt lat="43.7983406" lon="7.486905"><ele>105.0</ele><time>2026-05-01T13:39:57.886Z</time></trkpt><trkpt lat="43.7983006" lon="7.4867916"><ele>105.0</ele><time>2026-05-01T13:39:58.885Z</time></trkpt><trkpt lat="43.798256" lon="7.4867062"><ele>105.0</ele><time>2026-05-01T13:39:59.885Z</time></trkpt><trkpt lat="43.7981887" lon="7.4866777"><ele>105.0</ele><time>2026-05-01T13:40:00.885Z</time></trkpt><trkpt lat="43.7981111" lon="7.4866426"><ele>105.0</ele><time>2026-05-01T13:40:01.885Z</time></trkpt><trkpt lat="43.7979913" lon="7.4866705"><ele>105.0</ele><time>2026-05-01T13:40:03.885Z</time></trkpt><trkpt lat="43.7979932" lon="7.4867936"><ele>105.0</ele><time>2026-05-01T13:40:04.885Z</time></trkpt><trkpt lat="43.7979895" lon="7.4869395"><ele>105.0</ele><time>2026-05-01T13:40:05.885Z</time></trkpt><trkpt lat="43.7979471" lon="7.4871033"><ele>105.0</ele><time>2026-05-01T13:40:07.885Z</time></trkpt><trkpt lat="43.7979687" lon="7.4872084"><ele>103.0</ele><time>2026-05-01T13:40:08.885Z</time></trkpt><trkpt lat="43.7979926" lon="7.487373"><ele>101.0</ele><time>2026-05-01T13:40:10.885Z</time></trkpt><trkpt lat="43.7980327" lon="7.4874825"><ele>99.0</ele><time>2026-05-01T13:40:12.885Z</time></trkpt><trkpt lat="43.7980885" lon="7.487546"><ele>97.0</ele><time>2026-05-01T13:40:14.886Z</time></trkpt><trkpt lat="43.7981963" lon="7.4875581"><ele>95.0</ele><time>2026-05-01T13:40:17.885Z</time></trkpt><trkpt lat="43.7982126" lon="7.4876442"><ele>95.0</ele><time>2026-05-01T13:40:25.885Z</time></trkpt><trkpt lat="43.7982456" lon="7.4877494"><ele>95.0</ele><time>2026-05-01T13:40:27.885Z</time></trkpt><trkpt lat="43.7982664" lon="7.487866"><ele>95.0</ele><time>2026-05-01T13:40:29.885Z</time></trkpt><trkpt lat="43.7982912" lon="7.4879646"><ele>95.0</ele><time>2026-05-01T13:40:31.885Z</time></trkpt><trkpt lat="43.798316" lon="7.4880502"><ele>95.0</ele><time>2026-05-01T13:40:33.885Z</time></trkpt><trkpt lat="43.7983822" lon="7.4881018"><ele>95.0</ele><time>2026-05-01T13:40:36.886Z</time></trkpt><trkpt lat="43.7984414" lon="7.4881533"><ele>95.0</ele><time>2026-05-01T13:40:39.885Z</time></trkpt><trkpt lat="43.7984979" lon="7.4882146"><ele>95.0</ele><time>2026-05-01T13:40:43.885Z</time></trkpt><trkpt lat="43.7985581" lon="7.4881578"><ele>95.0</ele><time>2026-05-01T13:40:52.885Z</time></trkpt><trkpt lat="43.7986179" lon="7.4880868"><ele>95.0</ele><time>2026-05-01T13:40:55.885Z</time></trkpt><trkpt lat="43.7984977" lon="7.4877781"><ele>95.0</ele><time>2026-05-01T13:41:06.135Z</time></trkpt><trkpt lat="43.7985689" lon="7.4876805"><ele>88.0</ele><time>2026-05-01T13:41:12.307Z</time></trkpt><trkpt lat="43.7984638" lon="7.4879056"><ele>95.0</ele><time>2026-05-01T13:41:17.819Z</time></trkpt></trkseg><trkseg><trkpt lat="43.7985104" lon="7.4882652"><ele>77.0</ele><time>2026-05-01T14:08:29.879Z</time></trkpt><trkpt lat="43.7985235" lon="7.4883662"><ele>77.0</ele><time>2026-05-01T14:08:31.879Z</time></trkpt><trkpt lat="43.7984592" lon="7.4884272"><ele>77.0</ele><time>2026-05-01T14:08:35.879Z</time></trkpt><trkpt lat="43.7983962" lon="7.4884273"><ele>77.0</ele><time>2026-05-01T14:08:36.879Z</time></trkpt><trkpt lat="43.7983116" lon="7.4883989"><ele>77.0</ele><time>2026-05-01T14:08:38.879Z</time></trkpt><trkpt lat="43.7982462" lon="7.4883965"><ele>77.0</ele><time>2026-05-01T14:08:40.879Z</time></trkpt><trkpt lat="43.7981614" lon="7.4884151"><ele>78.4</ele><time>2026-05-01T14:08:44.879Z</time></trkpt><trkpt lat="43.7981488" lon="7.4883022"><ele>79.80000000000001</ele><time>2026-05-01T14:08:53.879Z</time></trkpt><trkpt lat="43.798154" lon="7.4881985"><ele>81.2</ele><time>2026-05-01T14:08:54.879Z</time></trkpt><trkpt lat="43.798155" lon="7.4880534"><ele>82.60000000000001</ele><time>2026-05-01T14:08:56.88Z</time></trkpt><trkpt lat="43.798192" lon="7.4878664"><ele>84.0</ele><time>2026-05-01T14:08:58.879Z</time></trkpt><trkpt lat="43.7982368" lon="7.487798"><ele>86.75</ele><time>2026-05-01T14:08:59.879Z</time></trkpt><trkpt lat="43.7981544" lon="7.4876587"><ele>89.5</ele><time>2026-05-01T14:09:01.879Z</time></trkpt><trkpt lat="43.7981451" lon="7.4874731"><ele>92.25</ele><time>2026-05-01T14:09:03.879Z</time></trkpt><trkpt lat="43.7981381" lon="7.4873634"><ele>95.0</ele><time>2026-05-01T14:09:04.879Z</time></trkpt><trkpt lat="43.798117" lon="7.4872185"><ele>95.0</ele><time>2026-05-01T14:09:06.879Z</time></trkpt><trkpt lat="43.7980663" lon="7.48714"><ele>95.0</ele><time>2026-05-01T14:09:07.879Z</time></trkpt><trkpt lat="43.7980424" lon="7.487034"><ele>95.0</ele><time>2026-05-01T14:09:08.879Z</time></trkpt><trkpt lat="43.7980252" lon="7.4868985"><ele>95.0</ele><time>2026-05-01T14:09:10.879Z</time></trkpt><trkpt lat="43.798064" lon="7.4867926"><ele>95.0</ele><time>2026-05-01T14:09:11.879Z</time></trkpt><trkpt lat="43.7981093" lon="7.4867064"><ele>95.0</ele><time>2026-05-01T14:09:13.879Z</time></trkpt><trkpt lat="43.7982986" lon="7.4867829"><ele>93.6</ele><time>2026-05-01T14:09:16.879Z</time></trkpt><trkpt lat="43.7983597" lon="7.48689"><ele>92.2</ele><time>2026-05-01T14:09:17.879Z</time></trkpt><trkpt lat="43.7984249" lon="7.4869487"><ele>90.80000000000001</ele><time>2026-05-01T14:09:18.879Z</time></trkpt><trkpt lat="43.7984827" lon="7.4870811"><ele>89.4</ele><time>2026-05-01T14:09:20.879Z</time></trkpt><trkpt lat="43.7985078" lon="7.4871882"><ele>88.0</ele><time>2026-05-01T14:09:22.879Z</time></trkpt><trkpt lat="43.798611" lon="7.4872399"><ele>88.0</ele><time>2026-05-01T14:09:24.879Z</time></trkpt><trkpt lat="43.798673" lon="7.4872938"><ele>88.0</ele><time>2026-05-01T14:09:26.879Z</time></trkpt><trkpt lat="43.7987776" lon="7.4872536"><ele>88.0</ele><time>2026-05-01T14:09:28.88Z</time></trkpt><trkpt lat="43.7988527" lon="7.4872247"><ele>88.0</ele><time>2026-05-01T14:09:30.879Z</time></trkpt><trkpt lat="43.7987857" lon="7.4870165"><ele>88.0</ele><time>2026-05-01T14:09:34.879Z</time></trkpt><trkpt lat="43.7987213" lon="7.4870409"><ele>88.0</ele><time>2026-05-01T14:09:35.879Z</time></trkpt><trkpt lat="43.798656" lon="7.4870557"><ele>88.0</ele><time>2026-05-01T14:09:36.88Z</time></trkpt><trkpt lat="43.7985729" lon="7.4870991"><ele>88.0</ele><time>2026-05-01T14:09:38.879Z</time></trkpt><trkpt lat="43.7985173" lon="7.4870574"><ele>88.0</ele><time>2026-05-01T14:09:39.879Z</time></trkpt><trkpt lat="43.7984546" lon="7.4870022"><ele>88.0</ele><time>2026-05-01T14:09:40.879Z</time></trkpt><trkpt lat="43.7983858" lon="7.4868771"><ele>88.0</ele><time>2026-05-01T14:09:42.879Z</time></trkpt><trkpt lat="43.7983438" lon="7.486751"><ele>90.83333333333333</ele><time>2026-05-01T14:09:44.879Z</time></trkpt><trkpt lat="43.7982951" lon="7.4866716"><ele>93.66666666666666</ele><time>2026-05-01T14:09:46.879Z</time></trkpt><trkpt lat="43.7982248" lon="7.4865962"><ele>96.5</ele><time>2026-05-01T14:09:48.879Z</time></trkpt><trkpt lat="43.7981364" lon="7.4865439"><ele>99.33333333333333</ele><time>2026-05-01T14:09:51.879Z</time></trkpt><trkpt lat="43.7980594" lon="7.4865769"><ele>102.16666666666667</ele><time>2026-05-01T14:09:53.879Z</time></trkpt><trkpt lat="43.7979942" lon="7.4866763"><ele>105.0</ele><time>2026-05-01T14:09:55.879Z</time></trkpt><trkpt lat="43.7979583" lon="7.4868086"><ele>105.0</ele><time>2026-05-01T14:09:57.879Z</time></trkpt><trkpt lat="43.7979539" lon="7.486919"><ele>105.0</ele><time>2026-05-01T14:09:58.879Z</time></trkpt><trkpt lat="43.797943" lon="7.4870515"><ele>105.0</ele><time>2026-05-01T14:09:59.879Z</time></trkpt><trkpt lat="43.7979894" lon="7.4871359"><ele>105.0</ele><time>2026-05-01T14:10:00.879Z</time></trkpt><trkpt lat="43.7980275" lon="7.4873006"><ele>105.0</ele><time>2026-05-01T14:10:01.879Z</time></trkpt><trkpt lat="43.7980634" lon="7.48741"><ele>103.33333333333333</ele><time>2026-05-01T14:10:02.879Z</time></trkpt><trkpt lat="43.7981008" lon="7.487529"><ele>101.66666666666667</ele><time>2026-05-01T14:10:03.879Z</time></trkpt><trkpt lat="43.7981099" lon="7.4876495"><ele>100.0</ele><time>2026-05-01T14:10:04.879Z</time></trkpt><trkpt lat="43.7981446" lon="7.4877748"><ele>98.33333333333334</ele><time>2026-05-01T14:10:05.879Z</time></trkpt><trkpt lat="43.7981882" lon="7.4878551"><ele>96.66666666666667</ele><time>2026-05-01T14:10:06.88Z</time></trkpt><trkpt lat="43.7981967" lon="7.4879558"><ele>95.0</ele><time>2026-05-01T14:10:07.879Z</time></trkpt><trkpt lat="43.798175" lon="7.4881833"><ele>92.8</ele><time>2026-05-01T14:10:09.879Z</time></trkpt><trkpt lat="43.798117" lon="7.4883732"><ele>90.6</ele><time>2026-05-01T14:10:11.879Z</time></trkpt><trkpt lat="43.7980486" lon="7.488462"><ele>88.4</ele><time>2026-05-01T14:10:12.879Z</time></trkpt><trkpt lat="43.7979771" lon="7.4885271"><ele>86.2</ele><time>2026-05-01T14:10:13.879Z</time></trkpt><trkpt lat="43.7978794" lon="7.4886139"><ele>84.0</ele><time>2026-05-01T14:10:14.879Z</time></trkpt><trkpt lat="43.7977929" lon="7.4886612"><ele>84.0</ele><time>2026-05-01T14:10:15.879Z</time></trkpt><trkpt lat="43.7977189" lon="7.4886611"><ele>84.0</ele><time>2026-05-01T14:10:16.879Z</time></trkpt><trkpt lat="43.7975847" lon="7.4885781"><ele>84.0</ele><time>2026-05-01T14:10:18.879Z</time></trkpt><trkpt lat="43.7975158" lon="7.4885742"><ele>84.0</ele><time>2026-05-01T14:10:19.879Z</time></trkpt><trkpt lat="43.7973832" lon="7.4885756"><ele>84.0</ele><time>2026-05-01T14:10:20.879Z</time></trkpt><trkpt lat="43.797252" lon="7.4885494"><ele>85.6</ele><time>2026-05-01T14:10:21.879Z</time></trkpt><trkpt lat="43.7971385" lon="7.4885579"><ele>87.2</ele><time>2026-05-01T14:10:22.879Z</time></trkpt><trkpt lat="43.7970352" lon="7.488569"><ele>88.8</ele><time>2026-05-01T14:10:23.879Z</time></trkpt><trkpt lat="43.7969238" lon="7.4886081"><ele>90.39999999999999</ele><time>2026-05-01T14:10:24.879Z</time></trkpt><trkpt lat="43.7968433" lon="7.4886231"><ele>92.0</ele><time>2026-05-01T14:10:25.879Z</time></trkpt><trkpt lat="43.7967418" lon="7.4886693"><ele>94.0</ele><time>2026-05-01T14:10:26.879Z</time></trkpt><trkpt lat="43.7966538" lon="7.488737"><ele>96.0</ele><time>2026-05-01T14:10:27.879Z</time></trkpt><trkpt lat="43.7965761" lon="7.4888205"><ele>98.0</ele><time>2026-05-01T14:10:28.879Z</time></trkpt><trkpt lat="43.7964985" lon="7.4889246"><ele>100.0</ele><time>2026-05-01T14:10:29.88Z</time></trkpt><trkpt lat="43.7964238" lon="7.4890183"><ele>102.0</ele><time>2026-05-01T14:10:30.879Z</time></trkpt><trkpt lat="43.796328" lon="7.4891209"><ele>96.75</ele><time>2026-05-01T14:10:31.879Z</time></trkpt><trkpt lat="43.7962456" lon="7.4892491"><ele>91.5</ele><time>2026-05-01T14:10:32.879Z</time></trkpt><trkpt lat="43.7961708" lon="7.4893097"><ele>86.25</ele><time>2026-05-01T14:10:33.879Z</time></trkpt><trkpt lat="43.7960707" lon="7.4894393"><ele>81.0</ele><time>2026-05-01T14:10:34.879Z</time></trkpt><trkpt lat="43.7959558" lon="7.4894742"><ele>81.0</ele><time>2026-05-01T14:10:35.879Z</time></trkpt><trkpt lat="43.7958134" lon="7.4894643"><ele>81.0</ele><time>2026-05-01T14:10:36.879Z</time></trkpt><trkpt lat="43.7957017" lon="7.4894697"><ele>81.0</ele><time>2026-05-01T14:10:37.879Z</time></trkpt><trkpt lat="43.7956335" lon="7.4894557"><ele>81.0</ele><time>2026-05-01T14:10:38.879Z</time></trkpt><trkpt lat="43.7955309" lon="7.489504"><ele>81.0</ele><time>2026-05-01T14:10:39.879Z</time></trkpt><trkpt lat="43.7954225" lon="7.4895584"><ele>77.75</ele><time>2026-05-01T14:10:40.879Z</time></trkpt><trkpt lat="43.795296" lon="7.4896028"><ele>74.5</ele><time>2026-05-01T14:10:41.88Z</time></trkpt><trkpt lat="43.7951971" lon="7.4896792"><ele>71.25</ele><time>2026-05-01T14:10:42.879Z</time></trkpt><trkpt lat="43.795099" lon="7.4897553"><ele>68.0</ele><time>2026-05-01T14:10:43.879Z</time></trkpt><trkpt lat="43.7950281" lon="7.4898649"><ele>68.0</ele><time>2026-05-01T14:10:44.879Z</time></trkpt><trkpt lat="43.794943" lon="7.4899506"><ele>68.0</ele><time>2026-05-01T14:10:45.879Z</time></trkpt><trkpt lat="43.7948717" lon="7.4900037"><ele>68.0</ele><time>2026-05-01T14:10:46.879Z</time></trkpt><trkpt lat="43.7948082" lon="7.4900634"><ele>68.0</ele><time>2026-05-01T14:10:47.879Z</time></trkpt><trkpt lat="43.7947718" lon="7.4901776"><ele>68.0</ele><time>2026-05-01T14:10:49.879Z</time></trkpt><trkpt lat="43.7947186" lon="7.490363"><ele>66.8</ele><time>2026-05-01T14:10:51.879Z</time></trkpt><trkpt lat="43.7947183" lon="7.49047"><ele>65.6</ele><time>2026-05-01T14:10:52.879Z</time></trkpt><trkpt lat="43.7946777" lon="7.4906017"><ele>64.4</ele><time>2026-05-01T14:10:53.879Z</time></trkpt><trkpt lat="43.7946029" lon="7.4907397"><ele>63.2</ele><time>2026-05-01T14:10:55.879Z</time></trkpt><trkpt lat="43.7945642" lon="7.4908386"><ele>62.0</ele><time>2026-05-01T14:10:56.879Z</time></trkpt><trkpt lat="43.7944785" lon="7.490967"><ele>62.0</ele><time>2026-05-01T14:10:57.879Z</time></trkpt><trkpt lat="43.7944189" lon="7.4910316"><ele>62.0</ele><time>2026-05-01T14:10:58.879Z</time></trkpt><trkpt lat="43.7943635" lon="7.491099"><ele>62.0</ele><time>2026-05-01T14:10:59.879Z</time></trkpt><trkpt lat="43.7942745" lon="7.4911922"><ele>62.0</ele><time>2026-05-01T14:11:00.879Z</time></trkpt><trkpt lat="43.7941442" lon="7.4912758"><ele>62.0</ele><time>2026-05-01T14:11:01.879Z</time></trkpt><trkpt lat="43.7940858" lon="7.491338"><ele>63.0</ele><time>2026-05-01T14:11:02.879Z</time></trkpt><trkpt lat="43.7940207" lon="7.4912992"><ele>64.0</ele><time>2026-05-01T14:11:05.879Z</time></trkpt><trkpt lat="43.7939608" lon="7.4913535"><ele>65.0</ele><time>2026-05-01T14:11:07.879Z</time></trkpt><trkpt lat="43.7938938" lon="7.4913844"><ele>66.0</ele><time>2026-05-01T14:11:09.879Z</time></trkpt><trkpt lat="43.7937967" lon="7.4913982"><ele>67.0</ele><time>2026-05-01T14:11:11.879Z</time></trkpt><trkpt lat="43.7937327" lon="7.4914098"><ele>68.0</ele><time>2026-05-01T14:11:12.879Z</time></trkpt><trkpt lat="43.7936687" lon="7.491383"><ele>69.0</ele><time>2026-05-01T14:11:13.879Z</time></trkpt><trkpt lat="43.7935737" lon="7.4913548"><ele>66.60000000000001</ele><time>2026-05-01T14:11:14.879Z</time></trkpt><trkpt lat="43.7934843" lon="7.491364"><ele>64.2</ele><time>2026-05-01T14:11:15.879Z</time></trkpt><trkpt lat="43.7934153" lon="7.4913772"><ele>61.800000000000004</ele><time>2026-05-01T14:11:16.879Z</time></trkpt><trkpt lat="43.7933153" lon="7.4914058"><ele>59.400000000000006</ele><time>2026-05-01T14:11:17.879Z</time></trkpt><trkpt lat="43.7932154" lon="7.4914142"><ele>57.0</ele><time>2026-05-01T14:11:19.879Z</time></trkpt><trkpt lat="43.793146" lon="7.4914986"><ele>57.0</ele><time>2026-05-01T14:11:21.879Z</time></trkpt><trkpt lat="43.7930928" lon="7.4915642"><ele>57.0</ele><time>2026-05-01T14:11:22.879Z</time></trkpt><trkpt lat="43.7929921" lon="7.4916204"><ele>57.0</ele><time>2026-05-01T14:11:24.879Z</time></trkpt><trkpt lat="43.7929077" lon="7.491674"><ele>57.0</ele><time>2026-05-01T14:11:25.879Z</time></trkpt><trkpt lat="43.7927841" lon="7.4917404"><ele>57.0</ele><time>2026-05-01T14:11:27.88Z</time></trkpt><trkpt lat="43.7926803" lon="7.4917919"><ele>56.400000000000006</ele><time>2026-05-01T14:11:28.879Z</time></trkpt><trkpt lat="43.7925965" lon="7.4918122"><ele>55.800000000000004</ele><time>2026-05-01T14:11:29.879Z</time></trkpt><trkpt lat="43.7925004" lon="7.4918679"><ele>55.2</ele><time>2026-05-01T14:11:30.879Z</time></trkpt><trkpt lat="43.7923727" lon="7.4919064"><ele>54.6</ele><time>2026-05-01T14:11:31.879Z</time></trkpt><trkpt lat="43.7922577" lon="7.4919511"><ele>54.0</ele><time>2026-05-01T14:11:32.879Z</time></trkpt><trkpt lat="43.7921551" lon="7.491991"><ele>54.0</ele><time>2026-05-01T14:11:33.879Z</time></trkpt><trkpt lat="43.7920446" lon="7.4920174"><ele>54.0</ele><time>2026-05-01T14:11:34.879Z</time></trkpt><trkpt lat="43.7919763" lon="7.4920325"><ele>54.0</ele><time>2026-05-01T14:11:35.879Z</time></trkpt><trkpt lat="43.7919102" lon="7.4920886"><ele>54.0</ele><time>2026-05-01T14:11:36.879Z</time></trkpt><trkpt lat="43.7918326" lon="7.4920907"><ele>54.0</ele><time>2026-05-01T14:11:37.879Z</time></trkpt><trkpt lat="43.7917612" lon="7.4920777"><ele>54.0</ele><time>2026-05-01T14:11:38.879Z</time></trkpt><trkpt lat="43.7916709" lon="7.4921435"><ele>54.2</ele><time>2026-05-01T14:11:39.88Z</time></trkpt><trkpt lat="43.7915926" lon="7.4921902"><ele>54.400000000000006</ele><time>2026-05-01T14:11:40.879Z</time></trkpt><trkpt lat="43.7914874" lon="7.4922432"><ele>54.6</ele><time>2026-05-01T14:11:42.879Z</time></trkpt><trkpt lat="43.7913909" lon="7.4922558"><ele>54.8</ele><time>2026-05-01T14:11:44.879Z</time></trkpt><trkpt lat="43.7912859" lon="7.4922406"><ele>55.0</ele><time>2026-05-01T14:11:47.879Z</time></trkpt><trkpt lat="43.7912042" lon="7.4922235"><ele>55.0</ele><time>2026-05-01T14:11:48.879Z</time></trkpt><trkpt lat="43.7911352" lon="7.4922211"><ele>55.0</ele><time>2026-05-01T14:11:49.879Z</time></trkpt><trkpt lat="43.7910514" lon="7.4922478"><ele>55.0</ele><time>2026-05-01T14:11:50.879Z</time></trkpt><trkpt lat="43.7909502" lon="7.4922953"><ele>55.0</ele><time>2026-05-01T14:11:52.879Z</time></trkpt><trkpt lat="43.7908356" lon="7.4923202"><ele>55.0</ele><time>2026-05-01T14:11:54.879Z</time></trkpt><trkpt lat="43.7907493" lon="7.4923374"><ele>54.2</ele><time>2026-05-01T14:11:55.879Z</time></trkpt><trkpt lat="43.790656" lon="7.4923527"><ele>53.4</ele><time>2026-05-01T14:11:56.879Z</time></trkpt><trkpt lat="43.7905649" lon="7.4923649"><ele>52.599999999999994</ele><time>2026-05-01T14:11:57.879Z</time></trkpt><trkpt lat="43.7904684" lon="7.4923553"><ele>51.8</ele><time>2026-05-01T14:11:58.879Z</time></trkpt><trkpt lat="43.7903728" lon="7.4923733"><ele>51.0</ele><time>2026-05-01T14:11:59.879Z</time></trkpt><trkpt lat="43.7903024" lon="7.4923978"><ele>51.0</ele><time>2026-05-01T14:12:00.879Z</time></trkpt><trkpt lat="43.7902109" lon="7.4924369"><ele>51.0</ele><time>2026-05-01T14:12:01.879Z</time></trkpt><trkpt lat="43.7900791" lon="7.4924583"><ele>51.0</ele><time>2026-05-01T14:12:02.879Z</time></trkpt><trkpt lat="43.7899626" lon="7.4925475"><ele>51.0</ele><time>2026-05-01T14:12:03.879Z</time></trkpt><trkpt lat="43.7898818" lon="7.4925618"><ele>51.0</ele><time>2026-05-01T14:12:04.879Z</time></trkpt><trkpt lat="43.7897729" lon="7.4925821"><ele>51.0</ele><time>2026-05-01T14:12:05.879Z</time></trkpt><trkpt lat="43.7896838" lon="7.4926146"><ele>51.0</ele><time>2026-05-01T14:12:06.879Z</time></trkpt><trkpt lat="43.7895826" lon="7.4926399"><ele>51.0</ele><time>2026-05-01T14:12:07.879Z</time></trkpt><trkpt lat="43.7894972" lon="7.4926521"><ele>51.0</ele><time>2026-05-01T14:12:08.879Z</time></trkpt><trkpt lat="43.7893926" lon="7.4927279"><ele>51.0</ele><time>2026-05-01T14:12:11.879Z</time></trkpt><trkpt lat="43.7892945" lon="7.4927363"><ele>50.0</ele><time>2026-05-01T14:12:13.879Z</time></trkpt><trkpt lat="43.7892324" lon="7.492787"><ele>49.0</ele><time>2026-05-01T14:12:15.879Z</time></trkpt><trkpt lat="43.7889935" lon="7.492912"><ele>48.0</ele><time>2026-05-01T14:12:28.879Z</time></trkpt><trkpt lat="43.7889259" lon="7.4929076"><ele>47.0</ele><time>2026-05-01T14:12:29.879Z</time></trkpt><trkpt lat="43.7888108" lon="7.4929362"><ele>47.0</ele><time>2026-05-01T14:12:31.879Z</time></trkpt><trkpt lat="43.7887337" lon="7.492925"><ele>47.0</ele><time>2026-05-01T14:12:32.879Z</time></trkpt><trkpt lat="43.7886653" lon="7.4929242"><ele>47.0</ele><time>2026-05-01T14:12:33.879Z</time></trkpt><trkpt lat="43.7885505" lon="7.4929288"><ele>47.0</ele><time>2026-05-01T14:12:34.879Z</time></trkpt><trkpt lat="43.7884439" lon="7.4929458"><ele>47.0</ele><time>2026-05-01T14:12:35.879Z</time></trkpt><trkpt lat="43.7883348" lon="7.4929804"><ele>46.33333333333333</ele><time>2026-05-01T14:12:36.88Z</time></trkpt><trkpt lat="43.7882693" lon="7.4930209"><ele>45.666666666666664</ele><time>2026-05-01T14:12:37.879Z</time></trkpt><trkpt lat="43.7882041" lon="7.4930983"><ele>45.0</ele><time>2026-05-01T14:12:38.88Z</time></trkpt><trkpt lat="43.7881333" lon="7.4931222"><ele>44.333333333333336</ele><time>2026-05-01T14:12:39.879Z</time></trkpt><trkpt lat="43.7880346" lon="7.4931637"><ele>43.66666666666667</ele><time>2026-05-01T14:12:40.879Z</time></trkpt><trkpt lat="43.7879508" lon="7.4932115"><ele>43.0</ele><time>2026-05-01T14:12:41.879Z</time></trkpt><trkpt lat="43.7878862" lon="7.493277"><ele>43.0</ele><time>2026-05-01T14:12:43.879Z</time></trkpt><trkpt lat="43.787742" lon="7.4933859"><ele>43.0</ele><time>2026-05-01T14:12:45.879Z</time></trkpt><trkpt lat="43.7876746" lon="7.4934204"><ele>43.0</ele><time>2026-05-01T14:12:46.879Z</time></trkpt><trkpt lat="43.7875958" lon="7.4934647"><ele>43.0</ele><time>2026-05-01T14:12:47.879Z</time></trkpt><trkpt lat="43.787547" lon="7.4935306"><ele>43.0</ele><time>2026-05-01T14:12:48.88Z</time></trkpt><trkpt lat="43.787443" lon="7.4935718"><ele>42.8</ele><time>2026-05-01T14:12:51.879Z</time></trkpt><trkpt lat="43.7873306" lon="7.4936359"><ele>42.599999999999994</ele><time>2026-05-01T14:12:53.879Z</time></trkpt><trkpt lat="43.7872712" lon="7.49367"><ele>42.400000000000006</ele><time>2026-05-01T14:12:54.879Z</time></trkpt><trkpt lat="43.7872018" lon="7.4937177"><ele>42.2</ele><time>2026-05-01T14:12:55.879Z</time></trkpt><trkpt lat="43.7870937" lon="7.4937929"><ele>42.0</ele><time>2026-05-01T14:12:57.879Z</time></trkpt><trkpt lat="43.787" lon="7.4938896"><ele>42.0</ele><time>2026-05-01T14:12:59.879Z</time></trkpt><trkpt lat="43.7869289" lon="7.4939327"><ele>42.0</ele><time>2026-05-01T14:13:00.879Z</time></trkpt><trkpt lat="43.7868612" lon="7.493958"><ele>42.0</ele><time>2026-05-01T14:13:01.88Z</time></trkpt><trkpt lat="43.7867876" lon="7.4939979"><ele>42.0</ele><time>2026-05-01T14:13:02.879Z</time></trkpt><trkpt lat="43.7867181" lon="7.4940787"><ele>42.0</ele><time>2026-05-01T14:13:03.879Z</time></trkpt><trkpt lat="43.7866271" lon="7.4941258"><ele>42.0</ele><time>2026-05-01T14:13:04.879Z</time></trkpt><trkpt lat="43.7865175" lon="7.4942016"><ele>42.0</ele><time>2026-05-01T14:13:06.879Z</time></trkpt><trkpt lat="43.7864494" lon="7.494248"><ele>42.0</ele><time>2026-05-01T14:13:07.879Z</time></trkpt><trkpt lat="43.7863771" lon="7.4942642"><ele>42.0</ele><time>2026-05-01T14:13:08.879Z</time></trkpt><trkpt lat="43.7863166" lon="7.4943497"><ele>42.0</ele><time>2026-05-01T14:13:10.879Z</time></trkpt><trkpt lat="43.7862381" lon="7.4943973"><ele>42.0</ele><time>2026-05-01T14:13:12.879Z</time></trkpt><trkpt lat="43.786179" lon="7.4944654"><ele>42.0</ele><time>2026-05-01T14:13:15.879Z</time></trkpt><trkpt lat="43.7860618" lon="7.4945409"><ele>41.4</ele><time>2026-05-01T14:13:17.879Z</time></trkpt><trkpt lat="43.7860038" lon="7.4945757"><ele>40.800000000000004</ele><time>2026-05-01T14:13:18.88Z</time></trkpt><trkpt lat="43.7858866" lon="7.494635"><ele>40.2</ele><time>2026-05-01T14:13:20.879Z</time></trkpt><trkpt lat="43.7858321" lon="7.4946989"><ele>39.6</ele><time>2026-05-01T14:13:22.879Z</time></trkpt><trkpt lat="43.7857321" lon="7.4947209"><ele>39.0</ele><time>2026-05-01T14:13:24.879Z</time></trkpt><trkpt lat="43.7856278" lon="7.4947525"><ele>39.5</ele><time>2026-05-01T14:13:25.879Z</time></trkpt><trkpt lat="43.7855302" lon="7.4947717"><ele>40.0</ele><time>2026-05-01T14:13:26.879Z</time></trkpt><trkpt lat="43.7854465" lon="7.4947837"><ele>40.5</ele><time>2026-05-01T14:13:27.879Z</time></trkpt><trkpt lat="43.7853726" lon="7.4947986"><ele>41.0</ele><time>2026-05-01T14:13:28.879Z</time></trkpt><trkpt lat="43.7852886" lon="7.4948233"><ele>41.5</ele><time>2026-05-01T14:13:29.879Z</time></trkpt><trkpt lat="43.7852266" lon="7.4948519"><ele>42.0</ele><time>2026-05-01T14:13:30.879Z</time></trkpt><trkpt lat="43.7851374" lon="7.4948457"><ele>42.0</ele><time>2026-05-01T14:13:32.879Z</time></trkpt><trkpt lat="43.7850791" lon="7.4948028"><ele>42.0</ele><time>2026-05-01T14:13:34.879Z</time></trkpt><trkpt lat="43.7849955" lon="7.4947638"><ele>42.0</ele><time>2026-05-01T14:13:36.879Z</time></trkpt><trkpt lat="43.7849176" lon="7.4947582"><ele>42.0</ele><time>2026-05-01T14:13:38.879Z</time></trkpt><trkpt lat="43.7848094" lon="7.494715"><ele>42.0</ele><time>2026-05-01T14:13:41.879Z</time></trkpt><trkpt lat="43.7847191" lon="7.4947276"><ele>42.0</ele><time>2026-05-01T14:13:44.879Z</time></trkpt><trkpt lat="43.7846418" lon="7.4947255"><ele>42.0</ele><time>2026-05-01T14:13:46.879Z</time></trkpt><trkpt lat="43.7845156" lon="7.4947103"><ele>42.0</ele><time>2026-05-01T14:13:47.879Z</time></trkpt><trkpt lat="43.7843985" lon="7.4947053"><ele>42.0</ele><time>2026-05-01T14:13:48.879Z</time></trkpt><trkpt lat="43.7843261" lon="7.4946899"><ele>42.0</ele><time>2026-05-01T14:13:49.88Z</time></trkpt><trkpt lat="43.784224" lon="7.4946806"><ele>42.0</ele><time>2026-05-01T14:13:50.879Z</time></trkpt><trkpt lat="43.784161" lon="7.4946447"><ele>41.833333333333336</ele><time>2026-05-01T14:13:51.88Z</time></trkpt><trkpt lat="43.7840973" lon="7.494629"><ele>41.666666666666664</ele><time>2026-05-01T14:13:52.879Z</time></trkpt><trkpt lat="43.7840314" lon="7.4945944"><ele>41.5</ele><time>2026-05-01T14:13:53.879Z</time></trkpt><trkpt lat="43.7839523" lon="7.4945902"><ele>41.33333333333333</ele><time>2026-05-01T14:13:54.879Z</time></trkpt><trkpt lat="43.7838726" lon="7.4945814"><ele>41.166666666666664</ele><time>2026-05-01T14:13:55.879Z</time></trkpt><trkpt lat="43.7837889" lon="7.4945655"><ele>41.0</ele><time>2026-05-01T14:13:56.879Z</time></trkpt><trkpt lat="43.7837174" lon="7.4945474"><ele>39.199999999999996</ele><time>2026-05-01T14:13:57.879Z</time></trkpt><trkpt lat="43.7836516" lon="7.4945311"><ele>37.4</ele><time>2026-05-01T14:13:58.879Z</time></trkpt><trkpt lat="43.7835317" lon="7.49447"><ele>35.6</ele><time>2026-05-01T14:14:00.88Z</time></trkpt><trkpt lat="43.7834649" lon="7.4944683"><ele>33.8</ele><time>2026-05-01T14:14:01.879Z</time></trkpt><trkpt lat="43.7833401" lon="7.4944001"><ele>32.0</ele><time>2026-05-01T14:14:03.879Z</time></trkpt><trkpt lat="43.783273" lon="7.4943867"><ele>31.857142857142854</ele><time>2026-05-01T14:14:04.879Z</time></trkpt><trkpt lat="43.7832117" lon="7.4943545"><ele>31.71428571428571</ele><time>2026-05-01T14:14:05.879Z</time></trkpt><trkpt lat="43.7831362" lon="7.4943364"><ele>31.57142857142857</ele><time>2026-05-01T14:14:06.879Z</time></trkpt><trkpt lat="43.7830623" lon="7.4943443"><ele>31.42857142857143</ele><time>2026-05-01T14:14:07.879Z</time></trkpt><trkpt lat="43.7829966" lon="7.4943567"><ele>31.28571428571429</ele><time>2026-05-01T14:14:08.879Z</time></trkpt><trkpt lat="43.7829165" lon="7.4943716"><ele>31.142857142857146</ele><time>2026-05-01T14:14:09.879Z</time></trkpt><trkpt lat="43.7828353" lon="7.494397"><ele>31.0</ele><time>2026-05-01T14:14:10.879Z</time></trkpt><trkpt lat="43.7827671" lon="7.494386"><ele>31.8</ele><time>2026-05-01T14:14:11.879Z</time></trkpt><trkpt lat="43.7826368" lon="7.4943598"><ele>32.6</ele><time>2026-05-01T14:14:13.879Z</time></trkpt><trkpt lat="43.7825309" lon="7.4943159"><ele>33.4</ele><time>2026-05-01T14:14:15.879Z</time></trkpt><trkpt lat="43.7824608" lon="7.4942963"><ele>34.2</ele><time>2026-05-01T14:14:16.879Z</time></trkpt><trkpt lat="43.7823982" lon="7.494279"><ele>35.0</ele><time>2026-05-01T14:14:17.879Z</time></trkpt><trkpt lat="43.7823201" lon="7.4942718"><ele>35.0</ele><time>2026-05-01T14:14:19.879Z</time></trkpt><trkpt lat="43.7822521" lon="7.4942429"><ele>35.0</ele><time>2026-05-01T14:14:20.879Z</time></trkpt><trkpt lat="43.7821819" lon="7.4942371"><ele>35.0</ele><time>2026-05-01T14:14:21.88Z</time></trkpt><trkpt lat="43.7820823" lon="7.4941961"><ele>35.0</ele><time>2026-05-01T14:14:23.879Z</time></trkpt><trkpt lat="43.7819744" lon="7.4941528"><ele>35.0</ele><time>2026-05-01T14:14:25.879Z</time></trkpt><trkpt lat="43.7818806" lon="7.4941205"><ele>34.166666666666664</ele><time>2026-05-01T14:14:26.879Z</time></trkpt><trkpt lat="43.7817985" lon="7.4941141"><ele>33.33333333333333</ele><time>2026-05-01T14:14:27.879Z</time></trkpt><trkpt lat="43.7817287" lon="7.4941"><ele>32.5</ele><time>2026-05-01T14:14:28.879Z</time></trkpt><trkpt lat="43.7816637" lon="7.4940946"><ele>31.666666666666664</ele><time>2026-05-01T14:14:29.879Z</time></trkpt><trkpt lat="43.7815438" lon="7.4940915"><ele>30.833333333333332</ele><time>2026-05-01T14:14:31.879Z</time></trkpt><trkpt lat="43.7814542" lon="7.4940826"><ele>30.0</ele><time>2026-05-01T14:14:32.879Z</time></trkpt><trkpt lat="43.7813344" lon="7.4940738"><ele>30.0</ele><time>2026-05-01T14:14:33.879Z</time></trkpt><trkpt lat="43.7812578" lon="7.494057"><ele>30.0</ele><time>2026-05-01T14:14:35.879Z</time></trkpt><trkpt lat="43.7811761" lon="7.4940596"><ele>30.0</ele><time>2026-05-01T14:14:37.879Z</time></trkpt><trkpt lat="43.7811086" lon="7.4940227"><ele>30.0</ele><time>2026-05-01T14:14:38.879Z</time></trkpt><trkpt lat="43.780995" lon="7.4939666"><ele>30.0</ele><time>2026-05-01T14:14:40.879Z</time></trkpt><trkpt lat="43.7808764" lon="7.4939442"><ele>29.833333333333332</ele><time>2026-05-01T14:14:42.879Z</time></trkpt><trkpt lat="43.780776" lon="7.493937"><ele>29.666666666666664</ele><time>2026-05-01T14:14:44.879Z</time></trkpt><trkpt lat="43.7807102" lon="7.4939402"><ele>29.5</ele><time>2026-05-01T14:14:46.879Z</time></trkpt><trkpt lat="43.7806423" lon="7.4938781"><ele>29.333333333333332</ele><time>2026-05-01T14:14:49.879Z</time></trkpt><trkpt lat="43.7805686" lon="7.4938536"><ele>29.166666666666664</ele><time>2026-05-01T14:14:52.879Z</time></trkpt><trkpt lat="43.7804851" lon="7.4938714"><ele>29.0</ele><time>2026-05-01T14:14:55.879Z</time></trkpt><trkpt lat="43.7804162" lon="7.4939016"><ele>28.999999999999996</ele><time>2026-05-01T14:14:58.879Z</time></trkpt><trkpt lat="43.7803496" lon="7.4939294"><ele>29.0</ele><time>2026-05-01T14:15:02.879Z</time></trkpt><trkpt lat="43.7802585" lon="7.4939361"><ele>29.0</ele><time>2026-05-01T14:15:05.879Z</time></trkpt><trkpt lat="43.7801806" lon="7.4939445"><ele>29.0</ele><time>2026-05-01T14:15:08.879Z</time></trkpt><trkpt lat="43.7801214" lon="7.4938797"><ele>28.999999999999996</ele><time>2026-05-01T14:15:12.879Z</time></trkpt><trkpt lat="43.7800673" lon="7.4938064"><ele>29.0</ele><time>2026-05-01T14:15:15.879Z</time></trkpt><trkpt lat="43.7800149" lon="7.4937548"><ele>30.25</ele><time>2026-05-01T14:15:17.879Z</time></trkpt><trkpt lat="43.7798636" lon="7.4936881"><ele>31.5</ele><time>2026-05-01T14:15:19.879Z</time></trkpt><trkpt lat="43.7797512" lon="7.4936689"><ele>32.75</ele><time>2026-05-01T14:15:20.879Z</time></trkpt><trkpt lat="43.7796683" lon="7.4936668"><ele>34.0</ele><time>2026-05-01T14:15:21.879Z</time></trkpt><trkpt lat="43.7795418" lon="7.4936835"><ele>34.0</ele><time>2026-05-01T14:15:23.879Z</time></trkpt><trkpt lat="43.7794743" lon="7.4936769"><ele>34.0</ele><time>2026-05-01T14:15:24.879Z</time></trkpt><trkpt lat="43.7793692" lon="7.4936869"><ele>34.0</ele><time>2026-05-01T14:15:25.879Z</time></trkpt><trkpt lat="43.7793144" lon="7.4935641"><ele>34.0</ele><time>2026-05-01T14:15:27.879Z</time></trkpt><trkpt lat="43.7792198" lon="7.4935505"><ele>34.0</ele><time>2026-05-01T14:15:28.879Z</time></trkpt><trkpt lat="43.7791539" lon="7.4935291"><ele>34.0</ele><time>2026-05-01T14:15:29.879Z</time></trkpt><trkpt lat="43.7790557" lon="7.4935211"><ele>33.0</ele><time>2026-05-01T14:15:30.879Z</time></trkpt><trkpt lat="43.7789825" lon="7.4935231"><ele>32.0</ele><time>2026-05-01T14:15:31.879Z</time></trkpt><trkpt lat="43.7788479" lon="7.4935322"><ele>31.0</ele><time>2026-05-01T14:15:32.879Z</time></trkpt><trkpt lat="43.7787702" lon="7.4935501"><ele>30.0</ele><time>2026-05-01T14:15:33.879Z</time></trkpt><trkpt lat="43.7786774" lon="7.4935766"><ele>29.0</ele><time>2026-05-01T14:15:34.879Z</time></trkpt><trkpt lat="43.778604" lon="7.4936019"><ele>28.999999999999996</ele><time>2026-05-01T14:15:35.879Z</time></trkpt><trkpt lat="43.7785327" lon="7.4936151"><ele>29.0</ele><time>2026-05-01T14:15:36.88Z</time></trkpt><trkpt lat="43.7784373" lon="7.4936299"><ele>29.0</ele><time>2026-05-01T14:15:38.879Z</time></trkpt><trkpt lat="43.778357" lon="7.4936536"><ele>29.0</ele><time>2026-05-01T14:15:41.879Z</time></trkpt><trkpt lat="43.7782759" lon="7.4936631"><ele>28.999999999999996</ele><time>2026-05-01T14:15:44.879Z</time></trkpt><trkpt lat="43.7781722" lon="7.4936842"><ele>29.0</ele><time>2026-05-01T14:15:48.879Z</time></trkpt><trkpt lat="43.7780515" lon="7.4936883"><ele>29.0</ele><time>2026-05-01T14:15:49.879Z</time></trkpt><trkpt lat="43.777976" lon="7.4937293"><ele>29.0</ele><time>2026-05-01T14:15:50.879Z</time></trkpt><trkpt lat="43.7778984" lon="7.4937689"><ele>29.0</ele><time>2026-05-01T14:15:51.879Z</time></trkpt><trkpt lat="43.7777951" lon="7.4938045"><ele>29.0</ele><time>2026-05-01T14:15:52.879Z</time></trkpt><trkpt lat="43.7776732" lon="7.4938499"><ele>29.0</ele><time>2026-05-01T14:15:53.879Z</time></trkpt><trkpt lat="43.7775414" lon="7.4938973"><ele>28.333333333333332</ele><time>2026-05-01T14:15:55.879Z</time></trkpt><trkpt lat="43.7774668" lon="7.4938958"><ele>27.666666666666664</ele><time>2026-05-01T14:16:05.879Z</time></trkpt><trkpt lat="43.7773932" lon="7.4939322"><ele>27.0</ele><time>2026-05-01T14:16:07.879Z</time></trkpt><trkpt lat="43.7773206" lon="7.4939396"><ele>26.333333333333336</ele><time>2026-05-01T14:16:09.879Z</time></trkpt><trkpt lat="43.7772073" lon="7.4939652"><ele>25.666666666666668</ele><time>2026-05-01T14:16:11.879Z</time></trkpt><trkpt lat="43.7771382" lon="7.4939675"><ele>25.0</ele><time>2026-05-01T14:16:12.879Z</time></trkpt><trkpt lat="43.7770831" lon="7.4939212"><ele>25.000000000000004</ele><time>2026-05-01T14:16:13.879Z</time></trkpt><trkpt lat="43.776979" lon="7.4939687"><ele>25.0</ele><time>2026-05-01T14:16:14.879Z</time></trkpt><trkpt lat="43.7768927" lon="7.493982"><ele>25.0</ele><time>2026-05-01T14:16:15.879Z</time></trkpt><trkpt lat="43.7768189" lon="7.4939974"><ele>25.0</ele><time>2026-05-01T14:16:16.879Z</time></trkpt><trkpt lat="43.7767474" lon="7.4940476"><ele>25.000000000000004</ele><time>2026-05-01T14:16:17.879Z</time></trkpt><trkpt lat="43.7766774" lon="7.4940568"><ele>25.0</ele><time>2026-05-01T14:16:18.879Z</time></trkpt><trkpt lat="43.7765783" lon="7.4940836"><ele>24.0</ele><time>2026-05-01T14:16:20.879Z</time></trkpt><trkpt lat="43.7764883" lon="7.4941688"><ele>23.0</ele><time>2026-05-01T14:16:22.879Z</time></trkpt><trkpt lat="43.7764405" lon="7.4942291"><ele>22.0</ele><time>2026-05-01T14:16:24.879Z</time></trkpt><trkpt lat="43.7763769" lon="7.4942964"><ele>21.0</ele><time>2026-05-01T14:16:25.879Z</time></trkpt><trkpt lat="43.776288" lon="7.4943898"><ele>20.0</ele><time>2026-05-01T14:16:27.879Z</time></trkpt><trkpt lat="43.7761639" lon="7.494482"><ele>20.0</ele><time>2026-05-01T14:16:29.879Z</time></trkpt><trkpt lat="43.7760644" lon="7.4945286"><ele>20.0</ele><time>2026-05-01T14:16:30.879Z</time></trkpt><trkpt lat="43.7760363" lon="7.4946157"><ele>20.0</ele><time>2026-05-01T14:16:33.879Z</time></trkpt><trkpt lat="43.7759711" lon="7.4946408"><ele>20.0</ele><time>2026-05-01T14:16:35.879Z</time></trkpt><trkpt lat="43.7758988" lon="7.4946274"><ele>20.0</ele><time>2026-05-01T14:16:41.879Z</time></trkpt><trkpt lat="43.775833" lon="7.4945958"><ele>20.0</ele><time>2026-05-01T14:16:43.879Z</time></trkpt><trkpt lat="43.7757992" lon="7.4945118"><ele>19.75</ele><time>2026-05-01T14:16:46.879Z</time></trkpt><trkpt lat="43.7757493" lon="7.4943985"><ele>19.5</ele><time>2026-05-01T14:16:48.879Z</time></trkpt><trkpt lat="43.7756424" lon="7.494261"><ele>19.25</ele><time>2026-05-01T14:16:50.879Z</time></trkpt><trkpt lat="43.7755756" lon="7.4941545"><ele>19.0</ele><time>2026-05-01T14:16:51.879Z</time></trkpt><trkpt lat="43.7755299" lon="7.4939856"><ele>19.0</ele><time>2026-05-01T14:16:53.879Z</time></trkpt><trkpt lat="43.7754702" lon="7.4938597"><ele>19.0</ele><time>2026-05-01T14:16:54.88Z</time></trkpt><trkpt lat="43.7754345" lon="7.4937627"><ele>19.0</ele><time>2026-05-01T14:16:55.879Z</time></trkpt><trkpt lat="43.7753493" lon="7.4936639"><ele>19.0</ele><time>2026-05-01T14:16:56.879Z</time></trkpt><trkpt lat="43.7752535" lon="7.4935677"><ele>19.0</ele><time>2026-05-01T14:16:57.879Z</time></trkpt><trkpt lat="43.7752007" lon="7.4935015"><ele>19.0</ele><time>2026-05-01T14:16:58.879Z</time></trkpt><trkpt lat="43.7751415" lon="7.4934082"><ele>19.0</ele><time>2026-05-01T14:16:59.879Z</time></trkpt><trkpt lat="43.7750844" lon="7.4933221"><ele>19.0</ele><time>2026-05-01T14:17:00.879Z</time></trkpt><trkpt lat="43.7750114" lon="7.4932402"><ele>19.0</ele><time>2026-05-01T14:17:01.879Z</time></trkpt><trkpt lat="43.774947" lon="7.4931256"><ele>19.0</ele><time>2026-05-01T14:17:02.879Z</time></trkpt><trkpt lat="43.774879" lon="7.4930421"><ele>19.0</ele><time>2026-05-01T14:17:03.879Z</time></trkpt><trkpt lat="43.7748241" lon="7.4929325"><ele>19.0</ele><time>2026-05-01T14:17:04.879Z</time></trkpt><trkpt lat="43.774761" lon="7.4928541"><ele>19.0</ele><time>2026-05-01T14:17:05.879Z</time></trkpt><trkpt lat="43.7746884" lon="7.4927632"><ele>19.0</ele><time>2026-05-01T14:17:06.879Z</time></trkpt><trkpt lat="43.7746168" lon="7.4927189"><ele>19.0</ele><time>2026-05-01T14:17:07.879Z</time></trkpt><trkpt lat="43.7745105" lon="7.4926644"><ele>19.4</ele><time>2026-05-01T14:17:08.88Z</time></trkpt><trkpt lat="43.7744099" lon="7.4926044"><ele>19.799999999999997</ele><time>2026-05-01T14:17:09.879Z</time></trkpt><trkpt lat="43.7743132" lon="7.4925279"><ele>20.200000000000003</ele><time>2026-05-01T14:17:10.879Z</time></trkpt><trkpt lat="43.7742613" lon="7.4924177"><ele>20.6</ele><time>2026-05-01T14:17:11.879Z</time></trkpt><trkpt lat="43.7741674" lon="7.4923654"><ele>21.0</ele><time>2026-05-01T14:17:12.879Z</time></trkpt><trkpt lat="43.7741025" lon="7.4922979"><ele>21.0</ele><time>2026-05-01T14:17:13.879Z</time></trkpt><trkpt lat="43.7740242" lon="7.492234"><ele>21.0</ele><time>2026-05-01T14:17:14.879Z</time></trkpt><trkpt lat="43.7739817" lon="7.4921308"><ele>21.0</ele><time>2026-05-01T14:17:15.879Z</time></trkpt><trkpt lat="43.7739089" lon="7.4920857"><ele>21.0</ele><time>2026-05-01T14:17:16.879Z</time></trkpt><trkpt lat="43.7738034" lon="7.4920401"><ele>21.0</ele><time>2026-05-01T14:17:17.879Z</time></trkpt><trkpt lat="43.7737239" lon="7.4920027"><ele>20.400000000000002</ele><time>2026-05-01T14:17:18.879Z</time></trkpt><trkpt lat="43.7736528" lon="7.4919652"><ele>19.8</ele><time>2026-05-01T14:17:19.879Z</time></trkpt><trkpt lat="43.7736155" lon="7.4918699"><ele>19.200000000000003</ele><time>2026-05-01T14:17:20.879Z</time></trkpt><trkpt lat="43.7735598" lon="7.4918082"><ele>18.6</ele><time>2026-05-01T14:17:21.879Z</time></trkpt><trkpt lat="43.7734753" lon="7.4917322"><ele>18.0</ele><time>2026-05-01T14:17:22.879Z</time></trkpt><trkpt lat="43.7733582" lon="7.4916296"><ele>18.0</ele><time>2026-05-01T14:17:23.879Z</time></trkpt><trkpt lat="43.7732717" lon="7.4915537"><ele>18.0</ele><time>2026-05-01T14:17:24.879Z</time></trkpt><trkpt lat="43.7731491" lon="7.4914449"><ele>18.0</ele><time>2026-05-01T14:17:26.879Z</time></trkpt><trkpt lat="43.7730728" lon="7.4914208"><ele>18.0</ele><time>2026-05-01T14:17:27.879Z</time></trkpt><trkpt lat="43.7729852" lon="7.4913464"><ele>18.0</ele><time>2026-05-01T14:17:28.879Z</time></trkpt><trkpt lat="43.772922" lon="7.4913179"><ele>18.0</ele><time>2026-05-01T14:17:29.879Z</time></trkpt><trkpt lat="43.7728337" lon="7.4913309"><ele>18.0</ele><time>2026-05-01T14:17:30.88Z</time></trkpt><trkpt lat="43.7727653" lon="7.4913325"><ele>18.0</ele><time>2026-05-01T14:17:31.879Z</time></trkpt><trkpt lat="43.7726599" lon="7.4913111"><ele>18.0</ele><time>2026-05-01T14:17:33.879Z</time></trkpt><trkpt lat="43.7725958" lon="7.4911939"><ele>18.0</ele><time>2026-05-01T14:17:35.879Z</time></trkpt><trkpt lat="43.772498" lon="7.4911446"><ele>17.5</ele><time>2026-05-01T14:17:37.879Z</time></trkpt><trkpt lat="43.7724309" lon="7.4911528"><ele>17.0</ele><time>2026-05-01T14:17:38.879Z</time></trkpt><trkpt lat="43.7723667" lon="7.4911552"><ele>16.5</ele><time>2026-05-01T14:17:39.879Z</time></trkpt><trkpt lat="43.7723014" lon="7.4911932"><ele>16.0</ele><time>2026-05-01T14:17:41.879Z</time></trkpt><trkpt lat="43.7722177" lon="7.4912803"><ele>15.5</ele><time>2026-05-01T14:17:43.879Z</time></trkpt><trkpt lat="43.7721803" lon="7.4913553"><ele>15.0</ele><time>2026-05-01T14:17:44.879Z</time></trkpt><trkpt lat="43.7720172" lon="7.4915501"><ele>14.5</ele><time>2026-05-01T14:17:46.879Z</time></trkpt><trkpt lat="43.7719669" lon="7.4917039"><ele>14.0</ele><time>2026-05-01T14:17:47.879Z</time></trkpt><trkpt lat="43.7719047" lon="7.4918654"><ele>13.5</ele><time>2026-05-01T14:17:48.879Z</time></trkpt><trkpt lat="43.7718406" lon="7.4920063"><ele>13.0</ele><time>2026-05-01T14:17:49.879Z</time></trkpt><trkpt lat="43.7717977" lon="7.4921038"><ele>12.4</ele><time>2026-05-01T14:17:50.879Z</time></trkpt><trkpt lat="43.7717419" lon="7.4922206"><ele>11.8</ele><time>2026-05-01T14:17:51.88Z</time></trkpt><trkpt lat="43.7716751" lon="7.4923502"><ele>11.2</ele><time>2026-05-01T14:17:52.879Z</time></trkpt><trkpt lat="43.7716243" lon="7.4924566"><ele>10.6</ele><time>2026-05-01T14:17:53.879Z</time></trkpt><trkpt lat="43.7715765" lon="7.4925462"><ele>10.0</ele><time>2026-05-01T14:17:54.879Z</time></trkpt><trkpt lat="43.77149" lon="7.4926857"><ele>10.0</ele><time>2026-05-01T14:17:56.879Z</time></trkpt><trkpt lat="43.7714768" lon="7.4928153"><ele>10.0</ele><time>2026-05-01T14:17:57.879Z</time></trkpt><trkpt lat="43.7714376" lon="7.4929896"><ele>10.0</ele><time>2026-05-01T14:17:59.879Z</time></trkpt><trkpt lat="43.7713971" lon="7.4930953"><ele>10.0</ele><time>2026-05-01T14:18:00.879Z</time></trkpt><trkpt lat="43.7713547" lon="7.4931921"><ele>10.0</ele><time>2026-05-01T14:18:01.88Z</time></trkpt><trkpt lat="43.771306" lon="7.4932781"><ele>10.5</ele><time>2026-05-01T14:18:02.879Z</time></trkpt><trkpt lat="43.7712768" lon="7.4933713"><ele>11.0</ele><time>2026-05-01T14:18:03.879Z</time></trkpt><trkpt lat="43.7712352" lon="7.4935012"><ele>11.5</ele><time>2026-05-01T14:18:04.879Z</time></trkpt><trkpt lat="43.7711282" lon="7.4937203"><ele>12.0</ele><time>2026-05-01T14:18:06.879Z</time></trkpt><trkpt lat="43.7710574" lon="7.4938463"><ele>12.5</ele><time>2026-05-01T14:18:08.879Z</time></trkpt><trkpt lat="43.7709622" lon="7.4939679"><ele>13.0</ele><time>2026-05-01T14:18:10.879Z</time></trkpt><trkpt lat="43.7708448" lon="7.4940086"><ele>13.5</ele><time>2026-05-01T14:18:12.879Z</time></trkpt><trkpt lat="43.7708198" lon="7.4941076"><ele>14.0</ele><time>2026-05-01T14:18:16.879Z</time></trkpt><trkpt lat="43.7707215" lon="7.4939645"><ele>14.000000000000002</ele><time>2026-05-01T14:19:20.879Z</time></trkpt><trkpt lat="43.7706523" lon="7.4938746"><ele>14.0</ele><time>2026-05-01T14:19:21.879Z</time></trkpt><trkpt lat="43.7705753" lon="7.4938062"><ele>14.0</ele><time>2026-05-01T14:19:22.879Z</time></trkpt><trkpt lat="43.7705511" lon="7.4936803"><ele>14.0</ele><time>2026-05-01T14:19:23.879Z</time></trkpt><trkpt lat="43.7704788" lon="7.4936165"><ele>14.000000000000002</ele><time>2026-05-01T14:19:24.879Z</time></trkpt><trkpt lat="43.7704725" lon="7.4935272"><ele>14.0</ele><time>2026-05-01T14:19:25.879Z</time></trkpt><trkpt lat="43.7704676" lon="7.493432"><ele>14.0</ele><time>2026-05-01T14:19:26.879Z</time></trkpt><trkpt lat="43.7703123" lon="7.4933179"><ele>14.0</ele><time>2026-05-01T14:19:27.879Z</time></trkpt><trkpt lat="43.7702348" lon="7.4932214"><ele>14.0</ele><time>2026-05-01T14:19:28.879Z</time></trkpt><trkpt lat="43.7701503" lon="7.4931337"><ele>14.0</ele><time>2026-05-01T14:19:29.879Z</time></trkpt><trkpt lat="43.7700793" lon="7.4930521"><ele>14.0</ele><time>2026-05-01T14:19:30.879Z</time></trkpt><trkpt lat="43.7700076" lon="7.4929283"><ele>14.0</ele><time>2026-05-01T14:19:31.88Z</time></trkpt><trkpt lat="43.7699422" lon="7.4928221"><ele>14.0</ele><time>2026-05-01T14:19:32.879Z</time></trkpt><trkpt lat="43.7698426" lon="7.4926868"><ele>14.0</ele><time>2026-05-01T14:19:34.879Z</time></trkpt><trkpt lat="43.7697968" lon="7.4925679"><ele>13.000000000000002</ele><time>2026-05-01T14:19:35.879Z</time></trkpt><trkpt lat="43.769702" lon="7.492471"><ele>12.0</ele><time>2026-05-01T14:19:37.879Z</time></trkpt><trkpt lat="43.769642" lon="7.4924071"><ele>11.0</ele><time>2026-05-01T14:19:38.879Z</time></trkpt><trkpt lat="43.7695899" lon="7.4923405"><ele>10.0</ele><time>2026-05-01T14:19:39.879Z</time></trkpt><trkpt lat="43.7695357" lon="7.4922787"><ele>9.0</ele><time>2026-05-01T14:19:40.879Z</time></trkpt><trkpt lat="43.769497" lon="7.4922023"><ele>8.0</ele><time>2026-05-01T14:19:41.879Z</time></trkpt><trkpt lat="43.7694563" lon="7.4921087"><ele>7.6000000000000005</ele><time>2026-05-01T14:19:42.879Z</time></trkpt><trkpt lat="43.7694029" lon="7.4920268"><ele>7.200000000000001</ele><time>2026-05-01T14:19:43.879Z</time></trkpt><trkpt lat="43.7693434" lon="7.4919299"><ele>6.8</ele><time>2026-05-01T14:19:44.879Z</time></trkpt><trkpt lat="43.7693156" lon="7.491817"><ele>6.4</ele><time>2026-05-01T14:19:46.879Z</time></trkpt><trkpt lat="43.7692257" lon="7.4917535"><ele>6.0</ele><time>2026-05-01T14:19:47.879Z</time></trkpt><trkpt lat="43.7691568" lon="7.4916174"><ele>5.8</ele><time>2026-05-01T14:19:49.879Z</time></trkpt><trkpt lat="43.7691197" lon="7.4915438"><ele>5.6</ele><time>2026-05-01T14:19:50.879Z</time></trkpt><trkpt lat="43.7690461" lon="7.4914474"><ele>5.4</ele><time>2026-05-01T14:19:51.879Z</time></trkpt><trkpt lat="43.7689815" lon="7.4913893"><ele>5.2</ele><time>2026-05-01T14:19:52.879Z</time></trkpt><trkpt lat="43.7689216" lon="7.491274"><ele>5.0</ele><time>2026-05-01T14:19:54.879Z</time></trkpt><trkpt lat="43.768849" lon="7.4911337"><ele>5.8</ele><time>2026-05-01T14:19:56.879Z</time></trkpt><trkpt lat="43.7687902" lon="7.4910695"><ele>6.6</ele><time>2026-05-01T14:19:57.879Z</time></trkpt><trkpt lat="43.7687014" lon="7.4909639"><ele>7.4</ele><time>2026-05-01T14:19:59.879Z</time></trkpt><trkpt lat="43.7686419" lon="7.4908854"><ele>8.2</ele><time>2026-05-01T14:20:00.879Z</time></trkpt><trkpt lat="43.7685514" lon="7.4907787"><ele>9.0</ele><time>2026-05-01T14:20:02.88Z</time></trkpt><trkpt lat="43.7685109" lon="7.4906375"><ele>9.000000000000002</ele><time>2026-05-01T14:20:05.88Z</time></trkpt><trkpt lat="43.7684598" lon="7.4905836"><ele>9.0</ele><time>2026-05-01T14:20:07.879Z</time></trkpt><trkpt lat="43.7683932" lon="7.4905173"><ele>9.0</ele><time>2026-05-01T14:20:10.879Z</time></trkpt><trkpt lat="43.7683374" lon="7.4904608"><ele>9.0</ele><time>2026-05-01T14:20:12.879Z</time></trkpt><trkpt lat="43.7682894" lon="7.4903993"><ele>9.0</ele><time>2026-05-01T14:20:15.879Z</time></trkpt><trkpt lat="43.7682552" lon="7.4903175"><ele>9.000000000000002</ele><time>2026-05-01T14:20:17.879Z</time></trkpt><trkpt lat="43.7681932" lon="7.4902547"><ele>9.0</ele><time>2026-05-01T14:20:18.879Z</time></trkpt><trkpt lat="43.7681312" lon="7.4901894"><ele>8.4</ele><time>2026-05-01T14:20:19.879Z</time></trkpt><trkpt lat="43.7680628" lon="7.4900524"><ele>7.800000000000001</ele><time>2026-05-01T14:20:21.879Z</time></trkpt><trkpt lat="43.7680153" lon="7.4899539"><ele>7.199999999999999</ele><time>2026-05-01T14:20:22.879Z</time></trkpt><trkpt lat="43.7679481" lon="7.4898668"><ele>6.6</ele><time>2026-05-01T14:20:23.879Z</time></trkpt><trkpt lat="43.7678775" lon="7.4897323"><ele>6.0</ele><time>2026-05-01T14:20:25.879Z</time></trkpt><trkpt lat="43.7678104" lon="7.4897073"><ele>6.0</ele><time>2026-05-01T14:20:29.879Z</time></trkpt><trkpt lat="43.7677507" lon="7.4895972"><ele>6.0</ele><time>2026-05-01T14:21:07.879Z</time></trkpt><trkpt lat="43.7677691" lon="7.4894401"><ele>6.0</ele><time>2026-05-01T14:21:09.879Z</time></trkpt><trkpt lat="43.7677808" lon="7.4893534"><ele>6.0</ele><time>2026-05-01T14:21:10.879Z</time></trkpt><trkpt lat="43.7678061" lon="7.4892465"><ele>6.0</ele><time>2026-05-01T14:21:11.879Z</time></trkpt><trkpt lat="43.7678477" lon="7.4891745"><ele>6.0</ele><time>2026-05-01T14:21:12.88Z</time></trkpt><trkpt lat="43.7678907" lon="7.4890714"><ele>6.6</ele><time>2026-05-01T14:21:13.879Z</time></trkpt><trkpt lat="43.7679345" lon="7.4889626"><ele>7.199999999999999</ele><time>2026-05-01T14:21:14.879Z</time></trkpt><trkpt lat="43.7679843" lon="7.4888497"><ele>7.800000000000001</ele><time>2026-05-01T14:21:15.879Z</time></trkpt><trkpt lat="43.768031" lon="7.4887574"><ele>8.4</ele><time>2026-05-01T14:21:16.88Z</time></trkpt><trkpt lat="43.7680562" lon="7.488617"><ele>9.0</ele><time>2026-05-01T14:21:18.879Z</time></trkpt><trkpt lat="43.7680326" lon="7.4884892"><ele>10.4</ele><time>2026-05-01T14:21:19.879Z</time></trkpt><trkpt lat="43.7680284" lon="7.4883635"><ele>11.8</ele><time>2026-05-01T14:21:20.879Z</time></trkpt><trkpt lat="43.7679894" lon="7.4882657"><ele>13.200000000000001</ele><time>2026-05-01T14:21:21.879Z</time></trkpt><trkpt lat="43.7679542" lon="7.4881476"><ele>14.600000000000001</ele><time>2026-05-01T14:21:22.879Z</time></trkpt><trkpt lat="43.7679126" lon="7.4880107"><ele>16.0</ele><time>2026-05-01T14:21:23.879Z</time></trkpt><trkpt lat="43.7678825" lon="7.4878964"><ele>17.833333333333332</ele><time>2026-05-01T14:21:24.879Z</time></trkpt><trkpt lat="43.7678439" lon="7.4877982"><ele>19.666666666666664</ele><time>2026-05-01T14:21:25.879Z</time></trkpt><trkpt lat="43.7678239" lon="7.4876903"><ele>21.5</ele><time>2026-05-01T14:21:26.879Z</time></trkpt><trkpt lat="43.7677748" lon="7.4875737"><ele>23.333333333333332</ele><time>2026-05-01T14:21:27.879Z</time></trkpt><trkpt lat="43.7677537" lon="7.487455"><ele>25.166666666666668</ele><time>2026-05-01T14:21:28.879Z</time></trkpt><trkpt lat="43.7677412" lon="7.4873416"><ele>27.0</ele><time>2026-05-01T14:21:29.879Z</time></trkpt><trkpt lat="43.7677538" lon="7.4871384"><ele>28.0</ele><time>2026-05-01T14:21:31.879Z</time></trkpt><trkpt lat="43.7677242" lon="7.4870324"><ele>29.000000000000004</ele><time>2026-05-01T14:21:32.879Z</time></trkpt><trkpt lat="43.7677252" lon="7.4868251"><ele>30.000000000000004</ele><time>2026-05-01T14:21:34.879Z</time></trkpt><trkpt lat="43.7676896" lon="7.486703"><ele>31.0</ele><time>2026-05-01T14:21:35.879Z</time></trkpt><trkpt lat="43.7676273" lon="7.4865757"><ele>32.0</ele><time>2026-05-01T14:21:36.879Z</time></trkpt><trkpt lat="43.7675779" lon="7.4864531"><ele>29.200000000000003</ele><time>2026-05-01T14:21:37.879Z</time></trkpt><trkpt lat="43.7675502" lon="7.4863418"><ele>26.400000000000002</ele><time>2026-05-01T14:21:38.879Z</time></trkpt><trkpt lat="43.7675008" lon="7.48624"><ele>23.6</ele><time>2026-05-01T14:21:39.879Z</time></trkpt><trkpt lat="43.7674635" lon="7.4861322"><ele>20.8</ele><time>2026-05-01T14:21:40.879Z</time></trkpt><trkpt lat="43.7674121" lon="7.4860318"><ele>18.0</ele><time>2026-05-01T14:21:41.88Z</time></trkpt><trkpt lat="43.7673849" lon="7.4858821"><ele>18.0</ele><time>2026-05-01T14:21:42.879Z</time></trkpt><trkpt lat="43.7673088" lon="7.4857714"><ele>18.0</ele><time>2026-05-01T14:21:43.879Z</time></trkpt><trkpt lat="43.7672479" lon="7.4857159"><ele>18.0</ele><time>2026-05-01T14:21:45.879Z</time></trkpt><trkpt lat="43.7671652" lon="7.4855845"><ele>18.0</ele><time>2026-05-01T14:21:47.879Z</time></trkpt><trkpt lat="43.7670848" lon="7.4855427"><ele>18.0</ele><time>2026-05-01T14:21:48.88Z</time></trkpt><trkpt lat="43.7670288" lon="7.4854926"><ele>18.0</ele><time>2026-05-01T14:21:49.879Z</time></trkpt><trkpt lat="43.7669451" lon="7.4854678"><ele>18.0</ele><time>2026-05-01T14:21:50.879Z</time></trkpt><trkpt lat="43.7668502" lon="7.4854386"><ele>18.0</ele><time>2026-05-01T14:21:53.879Z</time></trkpt><trkpt lat="43.7667785" lon="7.4853857"><ele>18.0</ele><time>2026-05-01T14:21:57.879Z</time></trkpt><trkpt lat="43.7667431" lon="7.4852934"><ele>18.0</ele><time>2026-05-01T14:21:58.879Z</time></trkpt><trkpt lat="43.766706" lon="7.4852196"><ele>18.0</ele><time>2026-05-01T14:21:59.879Z</time></trkpt><trkpt lat="43.7666589" lon="7.4851374"><ele>18.0</ele><time>2026-05-01T14:22:00.879Z</time></trkpt><trkpt lat="43.7666333" lon="7.4850545"><ele>18.0</ele><time>2026-05-01T14:22:01.879Z</time></trkpt><trkpt lat="43.7666043" lon="7.4849655"><ele>18.0</ele><time>2026-05-01T14:22:02.879Z</time></trkpt><trkpt lat="43.7665596" lon="7.4848327"><ele>18.0</ele><time>2026-05-01T14:22:03.879Z</time></trkpt><trkpt lat="43.7665141" lon="7.484734"><ele>18.0</ele><time>2026-05-01T14:22:04.879Z</time></trkpt><trkpt lat="43.766471" lon="7.4846236"><ele>18.0</ele><time>2026-05-01T14:22:05.879Z</time></trkpt><trkpt lat="43.7665003" lon="7.4845116"><ele>18.0</ele><time>2026-05-01T14:22:06.879Z</time></trkpt><trkpt lat="43.7664845" lon="7.4844119"><ele>18.0</ele><time>2026-05-01T14:22:07.879Z</time></trkpt><trkpt lat="43.7664416" lon="7.4843317"><ele>18.0</ele><time>2026-05-01T14:22:08.879Z</time></trkpt><trkpt lat="43.7663932" lon="7.4842596"><ele>18.0</ele><time>2026-05-01T14:22:09.879Z</time></trkpt><trkpt lat="43.7662878" lon="7.4842268"><ele>18.0</ele><time>2026-05-01T14:22:11.88Z</time></trkpt><trkpt lat="43.7662527" lon="7.4841337"><ele>18.0</ele><time>2026-05-01T14:22:13.879Z</time></trkpt><trkpt lat="43.766191" lon="7.4840373"><ele>18.0</ele><time>2026-05-01T14:22:15.879Z</time></trkpt><trkpt lat="43.766141" lon="7.4839272"><ele>18.0</ele><time>2026-05-01T14:22:17.879Z</time></trkpt><trkpt lat="43.766031" lon="7.4838153"><ele>18.0</ele><time>2026-05-01T14:22:19.879Z</time></trkpt><trkpt lat="43.7659419" lon="7.4836865"><ele>18.0</ele><time>2026-05-01T14:22:21.879Z</time></trkpt><trkpt lat="43.7658833" lon="7.4835513"><ele>18.2</ele><time>2026-05-01T14:22:23.879Z</time></trkpt><trkpt lat="43.7658459" lon="7.4834288"><ele>18.4</ele><time>2026-05-01T14:22:25.879Z</time></trkpt><trkpt lat="43.765805" lon="7.4833124"><ele>18.599999999999998</ele><time>2026-05-01T14:22:27.879Z</time></trkpt><trkpt lat="43.765797" lon="7.483195"><ele>18.8</ele><time>2026-05-01T14:22:28.879Z</time></trkpt><trkpt lat="43.7657701" lon="7.4830011"><ele>19.0</ele><time>2026-05-01T14:22:30.879Z</time></trkpt><trkpt lat="43.7657397" lon="7.4829209"><ele>18.5</ele><time>2026-05-01T14:22:31.879Z</time></trkpt><trkpt lat="43.7656997" lon="7.4828429"><ele>18.0</ele><time>2026-05-01T14:22:32.879Z</time></trkpt><trkpt lat="43.7656264" lon="7.4827166"><ele>17.5</ele><time>2026-05-01T14:22:34.879Z</time></trkpt><trkpt lat="43.7655917" lon="7.4826356"><ele>17.0</ele><time>2026-05-01T14:22:35.879Z</time></trkpt><trkpt lat="43.7655536" lon="7.4825595"><ele>16.5</ele><time>2026-05-01T14:22:36.879Z</time></trkpt><trkpt lat="43.7654794" lon="7.4825255"><ele>16.0</ele><time>2026-05-01T14:22:37.879Z</time></trkpt><trkpt lat="43.7654178" lon="7.4824791"><ele>15.999999999999998</ele><time>2026-05-01T14:22:39.879Z</time></trkpt><trkpt lat="43.7653476" lon="7.48246"><ele>16.0</ele><time>2026-05-01T14:22:41.88Z</time></trkpt><trkpt lat="43.7652599" lon="7.4823536"><ele>16.0</ele><time>2026-05-01T14:22:43.879Z</time></trkpt><trkpt lat="43.7651876" lon="7.4822973"><ele>16.0</ele><time>2026-05-01T14:22:44.879Z</time></trkpt><trkpt lat="43.7651357" lon="7.4822373"><ele>15.999999999999998</ele><time>2026-05-01T14:22:45.879Z</time></trkpt><trkpt lat="43.7650683" lon="7.4821917"><ele>16.0</ele><time>2026-05-01T14:22:46.879Z</time></trkpt><trkpt lat="43.7650203" lon="7.4821289"><ele>16.833333333333332</ele><time>2026-05-01T14:22:47.879Z</time></trkpt><trkpt lat="43.7649603" lon="7.4820709"><ele>17.666666666666664</ele><time>2026-05-01T14:22:48.879Z</time></trkpt><trkpt lat="43.76486" lon="7.4820233"><ele>18.5</ele><time>2026-05-01T14:22:49.879Z</time></trkpt><trkpt lat="43.7647747" lon="7.4819936"><ele>19.333333333333332</ele><time>2026-05-01T14:22:50.879Z</time></trkpt><trkpt lat="43.7646947" lon="7.4819532"><ele>20.166666666666668</ele><time>2026-05-01T14:22:51.879Z</time></trkpt><trkpt lat="43.7646247" lon="7.4819201"><ele>21.0</ele><time>2026-05-01T14:22:52.879Z</time></trkpt><trkpt lat="43.7645037" lon="7.4818342"><ele>21.0</ele><time>2026-05-01T14:22:54.879Z</time></trkpt><trkpt lat="43.764455" lon="7.4816669"><ele>21.0</ele><time>2026-05-01T14:22:55.879Z</time></trkpt><trkpt lat="43.7644108" lon="7.4816038"><ele>21.0</ele><time>2026-05-01T14:22:56.879Z</time></trkpt><trkpt lat="43.764362" lon="7.4815223"><ele>21.0</ele><time>2026-05-01T14:22:57.879Z</time></trkpt><trkpt lat="43.7643315" lon="7.4814124"><ele>21.0</ele><time>2026-05-01T14:22:58.879Z</time></trkpt><trkpt lat="43.7642531" lon="7.4813327"><ele>20.833333333333332</ele><time>2026-05-01T14:22:59.879Z</time></trkpt><trkpt lat="43.7641994" lon="7.4812514"><ele>20.666666666666668</ele><time>2026-05-01T14:23:00.879Z</time></trkpt><trkpt lat="43.7641516" lon="7.4811647"><ele>20.5</ele><time>2026-05-01T14:23:01.879Z</time></trkpt><trkpt lat="43.7641003" lon="7.4810841"><ele>20.333333333333336</ele><time>2026-05-01T14:23:02.879Z</time></trkpt><trkpt lat="43.7640612" lon="7.4809863"><ele>20.166666666666668</ele><time>2026-05-01T14:23:03.879Z</time></trkpt><trkpt lat="43.7640099" lon="7.4809088"><ele>20.0</ele><time>2026-05-01T14:23:04.879Z</time></trkpt><trkpt lat="43.7639588" lon="7.4807737"><ele>20.0</ele><time>2026-05-01T14:23:06.879Z</time></trkpt><trkpt lat="43.7638863" lon="7.4806372"><ele>20.0</ele><time>2026-05-01T14:23:08.879Z</time></trkpt><trkpt lat="43.7638377" lon="7.4805457"><ele>20.0</ele><time>2026-05-01T14:23:10.88Z</time></trkpt><trkpt lat="43.7638077" lon="7.4804563"><ele>20.0</ele><time>2026-05-01T14:23:12.879Z</time></trkpt><trkpt lat="43.7637882" lon="7.4803632"><ele>20.0</ele><time>2026-05-01T14:23:14.879Z</time></trkpt><trkpt lat="43.7637321" lon="7.4802399"><ele>20.6</ele><time>2026-05-01T14:23:16.879Z</time></trkpt><trkpt lat="43.7636489" lon="7.4801628"><ele>21.2</ele><time>2026-05-01T14:23:17.879Z</time></trkpt><trkpt lat="43.7635847" lon="7.4800658"><ele>21.799999999999997</ele><time>2026-05-01T14:23:18.879Z</time></trkpt><trkpt lat="43.7635252" lon="7.4799817"><ele>22.4</ele><time>2026-05-01T14:23:19.879Z</time></trkpt><trkpt lat="43.7634765" lon="7.479898"><ele>23.0</ele><time>2026-05-01T14:23:20.879Z</time></trkpt><trkpt lat="43.7634296" lon="7.4797887"><ele>24.2</ele><time>2026-05-01T14:23:21.879Z</time></trkpt><trkpt lat="43.7633408" lon="7.4796892"><ele>25.4</ele><time>2026-05-01T14:23:22.879Z</time></trkpt><trkpt lat="43.7632688" lon="7.4795777"><ele>26.599999999999998</ele><time>2026-05-01T14:23:23.879Z</time></trkpt><trkpt lat="43.7632104" lon="7.4794514"><ele>27.799999999999997</ele><time>2026-05-01T14:23:24.879Z</time></trkpt><trkpt lat="43.7631474" lon="7.4793722"><ele>29.0</ele><time>2026-05-01T14:23:25.879Z</time></trkpt><trkpt lat="43.7630809" lon="7.4792672"><ele>28.999999999999996</ele><time>2026-05-01T14:23:26.879Z</time></trkpt><trkpt lat="43.7630533" lon="7.47917"><ele>29.0</ele><time>2026-05-01T14:23:27.879Z</time></trkpt><trkpt lat="43.7629833" lon="7.4791405"><ele>29.0</ele><time>2026-05-01T14:23:28.879Z</time></trkpt><trkpt lat="43.7629023" lon="7.4790378"><ele>29.0</ele><time>2026-05-01T14:23:29.879Z</time></trkpt><trkpt lat="43.7628177" lon="7.4789795"><ele>28.999999999999996</ele><time>2026-05-01T14:23:30.879Z</time></trkpt><trkpt lat="43.7627725" lon="7.478903"><ele>29.0</ele><time>2026-05-01T14:23:31.879Z</time></trkpt><trkpt lat="43.7627217" lon="7.4788507"><ele>30.6</ele><time>2026-05-01T14:23:32.879Z</time></trkpt><trkpt lat="43.7626328" lon="7.4787804"><ele>32.2</ele><time>2026-05-01T14:23:33.879Z</time></trkpt><trkpt lat="43.7625514" lon="7.4787182"><ele>33.800000000000004</ele><time>2026-05-01T14:23:34.879Z</time></trkpt><trkpt lat="43.7624688" lon="7.4786581"><ele>35.4</ele><time>2026-05-01T14:23:35.879Z</time></trkpt><trkpt lat="43.7623708" lon="7.4786007"><ele>37.0</ele><time>2026-05-01T14:23:36.879Z</time></trkpt><trkpt lat="43.7622703" lon="7.4785493"><ele>37.0</ele><time>2026-05-01T14:23:37.879Z</time></trkpt><trkpt lat="43.7621603" lon="7.4785469"><ele>37.0</ele><time>2026-05-01T14:23:38.879Z</time></trkpt><trkpt lat="43.7620343" lon="7.4785697"><ele>37.0</ele><time>2026-05-01T14:23:39.88Z</time></trkpt><trkpt lat="43.761927" lon="7.4785554"><ele>37.0</ele><time>2026-05-01T14:23:40.879Z</time></trkpt><trkpt lat="43.7618185" lon="7.47855"><ele>37.4</ele><time>2026-05-01T14:23:41.879Z</time></trkpt><trkpt lat="43.7617191" lon="7.4785843"><ele>37.800000000000004</ele><time>2026-05-01T14:23:42.879Z</time></trkpt><trkpt lat="43.7616213" lon="7.4786062"><ele>38.2</ele><time>2026-05-01T14:23:43.88Z</time></trkpt><trkpt lat="43.7615376" lon="7.4786006"><ele>38.6</ele><time>2026-05-01T14:23:44.879Z</time></trkpt><trkpt lat="43.7614334" lon="7.478581"><ele>39.0</ele><time>2026-05-01T14:23:45.879Z</time></trkpt><trkpt lat="43.7613591" lon="7.47856"><ele>39.0</ele><time>2026-05-01T14:23:46.879Z</time></trkpt><trkpt lat="43.761271" lon="7.4785893"><ele>39.0</ele><time>2026-05-01T14:23:47.879Z</time></trkpt><trkpt lat="43.7611317" lon="7.4785291"><ele>39.0</ele><time>2026-05-01T14:23:48.879Z</time></trkpt><trkpt lat="43.7610214" lon="7.4784552"><ele>39.0</ele><time>2026-05-01T14:23:49.879Z</time></trkpt><trkpt lat="43.7609409" lon="7.478361"><ele>39.0</ele><time>2026-05-01T14:23:50.879Z</time></trkpt><trkpt lat="43.7608501" lon="7.4783131"><ele>39.0</ele><time>2026-05-01T14:23:51.879Z</time></trkpt><trkpt lat="43.7607573" lon="7.4782619"><ele>39.0</ele><time>2026-05-01T14:23:52.88Z</time></trkpt><trkpt lat="43.7606726" lon="7.4782009"><ele>39.0</ele><time>2026-05-01T14:23:53.879Z</time></trkpt><trkpt lat="43.7606233" lon="7.4781153"><ele>39.0</ele><time>2026-05-01T14:23:54.879Z</time></trkpt><trkpt lat="43.7605666" lon="7.4780677"><ele>39.0</ele><time>2026-05-01T14:23:55.879Z</time></trkpt><trkpt lat="43.7605067" lon="7.477996"><ele>39.0</ele><time>2026-05-01T14:23:56.879Z</time></trkpt><trkpt lat="43.760436" lon="7.477954"><ele>39.0</ele><time>2026-05-01T14:23:57.879Z</time></trkpt><trkpt lat="43.7603681" lon="7.4778724"><ele>39.0</ele><time>2026-05-01T14:23:58.879Z</time></trkpt><trkpt lat="43.7602879" lon="7.477806"><ele>39.0</ele><time>2026-05-01T14:23:59.879Z</time></trkpt><trkpt lat="43.7602145" lon="7.47775"><ele>39.0</ele><time>2026-05-01T14:24:00.879Z</time></trkpt><trkpt lat="43.7601569" lon="7.4776734"><ele>39.0</ele><time>2026-05-01T14:24:01.879Z</time></trkpt><trkpt lat="43.7600581" lon="7.4776092"><ele>40.5</ele><time>2026-05-01T14:24:02.879Z</time></trkpt><trkpt lat="43.7599887" lon="7.4775753"><ele>42.0</ele><time>2026-05-01T14:24:03.879Z</time></trkpt><trkpt lat="43.7599294" lon="7.4775214"><ele>43.5</ele><time>2026-05-01T14:24:04.879Z</time></trkpt><trkpt lat="43.7598422" lon="7.4774638"><ele>45.0</ele><time>2026-05-01T14:24:05.88Z</time></trkpt><trkpt lat="43.7597943" lon="7.4773688"><ele>46.5</ele><time>2026-05-01T14:24:06.879Z</time></trkpt><trkpt lat="43.7597289" lon="7.477311"><ele>48.0</ele><time>2026-05-01T14:24:07.879Z</time></trkpt><trkpt lat="43.7596775" lon="7.4772165"><ele>48.0</ele><time>2026-05-01T14:24:08.879Z</time></trkpt><trkpt lat="43.7596214" lon="7.4771727"><ele>48.0</ele><time>2026-05-01T14:24:09.879Z</time></trkpt><trkpt lat="43.7596079" lon="7.4770623"><ele>48.0</ele><time>2026-05-01T14:24:10.879Z</time></trkpt><trkpt lat="43.7595664" lon="7.4769569"><ele>48.0</ele><time>2026-05-01T14:24:11.879Z</time></trkpt><trkpt lat="43.7595472" lon="7.4768697"><ele>48.0</ele><time>2026-05-01T14:24:12.879Z</time></trkpt><trkpt lat="43.7595379" lon="7.4767797"><ele>48.0</ele><time>2026-05-01T14:24:13.879Z</time></trkpt><trkpt lat="43.7595794" lon="7.4766751"><ele>50.0</ele><time>2026-05-01T14:24:14.88Z</time></trkpt><trkpt lat="43.7596268" lon="7.4766163"><ele>52.0</ele><time>2026-05-01T14:24:15.879Z</time></trkpt><trkpt lat="43.7597108" lon="7.4765318"><ele>54.0</ele><time>2026-05-01T14:24:16.879Z</time></trkpt><trkpt lat="43.7597775" lon="7.4764818"><ele>56.0</ele><time>2026-05-01T14:24:17.879Z</time></trkpt><trkpt lat="43.7598529" lon="7.4764292"><ele>58.0</ele><time>2026-05-01T14:24:18.879Z</time></trkpt><trkpt lat="43.7599253" lon="7.4763899"><ele>60.0</ele><time>2026-05-01T14:24:19.879Z</time></trkpt><trkpt lat="43.7600385" lon="7.4763202"><ele>57.75</ele><time>2026-05-01T14:24:20.879Z</time></trkpt><trkpt lat="43.760125" lon="7.4762562"><ele>55.5</ele><time>2026-05-01T14:24:21.879Z</time></trkpt><trkpt lat="43.760238" lon="7.4762024"><ele>53.25</ele><time>2026-05-01T14:24:22.879Z</time></trkpt><trkpt lat="43.7603567" lon="7.4761592"><ele>51.0</ele><time>2026-05-01T14:24:23.879Z</time></trkpt><trkpt lat="43.7604555" lon="7.476089"><ele>55.199999999999996</ele><time>2026-05-01T14:24:24.879Z</time></trkpt><trkpt lat="43.7605477" lon="7.4759951"><ele>59.4</ele><time>2026-05-01T14:24:25.879Z</time></trkpt><trkpt lat="43.7606277" lon="7.4758765"><ele>63.6</ele><time>2026-05-01T14:24:26.879Z</time></trkpt><trkpt lat="43.760668" lon="7.4757732"><ele>67.8</ele><time>2026-05-01T14:24:27.879Z</time></trkpt><trkpt lat="43.76071" lon="7.4756759"><ele>72.0</ele><time>2026-05-01T14:24:28.879Z</time></trkpt><trkpt lat="43.7607675" lon="7.4755677"><ele>72.0</ele><time>2026-05-01T14:24:29.879Z</time></trkpt><trkpt lat="43.7608359" lon="7.4754472"><ele>72.0</ele><time>2026-05-01T14:24:30.879Z</time></trkpt><trkpt lat="43.7609192" lon="7.4753061"><ele>72.0</ele><time>2026-05-01T14:24:31.879Z</time></trkpt><trkpt lat="43.7609897" lon="7.4751814"><ele>72.0</ele><time>2026-05-01T14:24:32.879Z</time></trkpt><trkpt lat="43.7610634" lon="7.4751002"><ele>71.6</ele><time>2026-05-01T14:24:33.879Z</time></trkpt><trkpt lat="43.7611489" lon="7.4749702"><ele>71.2</ele><time>2026-05-01T14:24:34.879Z</time></trkpt><trkpt lat="43.7611974" lon="7.4748603"><ele>70.8</ele><time>2026-05-01T14:24:35.879Z</time></trkpt><trkpt lat="43.7612445" lon="7.4747379"><ele>70.4</ele><time>2026-05-01T14:24:36.879Z</time></trkpt><trkpt lat="43.7612906" lon="7.4746481"><ele>70.0</ele><time>2026-05-01T14:24:37.879Z</time></trkpt><trkpt lat="43.7613509" lon="7.4745583"><ele>70.0</ele><time>2026-05-01T14:24:38.879Z</time></trkpt><trkpt lat="43.7614233" lon="7.4744725"><ele>70.0</ele><time>2026-05-01T14:24:39.88Z</time></trkpt><trkpt lat="43.7614964" lon="7.4743778"><ele>70.0</ele><time>2026-05-01T14:24:40.879Z</time></trkpt><trkpt lat="43.7615429" lon="7.4742813"><ele>70.0</ele><time>2026-05-01T14:24:41.879Z</time></trkpt><trkpt lat="43.7615697" lon="7.4740645"><ele>70.0</ele><time>2026-05-01T14:24:43.879Z</time></trkpt><trkpt lat="43.7615895" lon="7.4739292"><ele>70.0</ele><time>2026-05-01T14:24:44.879Z</time></trkpt><trkpt lat="43.7616644" lon="7.4737753"><ele>70.0</ele><time>2026-05-01T14:24:46.879Z</time></trkpt><trkpt lat="43.7616916" lon="7.4736873"><ele>70.0</ele><time>2026-05-01T14:24:47.879Z</time></trkpt><trkpt lat="43.761748" lon="7.4735841"><ele>70.0</ele><time>2026-05-01T14:24:48.879Z</time></trkpt><trkpt lat="43.7618195" lon="7.4735127"><ele>70.0</ele><time>2026-05-01T14:24:49.88Z</time></trkpt><trkpt lat="43.7618978" lon="7.4734633"><ele>74.0</ele><time>2026-05-01T14:24:50.879Z</time></trkpt><trkpt lat="43.7619868" lon="7.4734439"><ele>78.0</ele><time>2026-05-01T14:24:51.879Z</time></trkpt><trkpt lat="43.7620878" lon="7.4733631"><ele>82.0</ele><time>2026-05-01T14:24:53.879Z</time></trkpt><trkpt lat="43.7622239" lon="7.4732324"><ele>86.0</ele><time>2026-05-01T14:24:55.879Z</time></trkpt><trkpt lat="43.7623368" lon="7.4731368"><ele>86.0</ele><time>2026-05-01T14:24:56.879Z</time></trkpt><trkpt lat="43.7624052" lon="7.4730348"><ele>86.0</ele><time>2026-05-01T14:24:57.879Z</time></trkpt><trkpt lat="43.7624606" lon="7.4729252"><ele>86.0</ele><time>2026-05-01T14:24:58.879Z</time></trkpt><trkpt lat="43.7625247" lon="7.4728292"><ele>86.0</ele><time>2026-05-01T14:24:59.88Z</time></trkpt><trkpt lat="43.7625787" lon="7.4727482"><ele>86.0</ele><time>2026-05-01T14:25:00.879Z</time></trkpt><trkpt lat="43.7626145" lon="7.4726272"><ele>85.6</ele><time>2026-05-01T14:25:01.879Z</time></trkpt><trkpt lat="43.7626107" lon="7.472492"><ele>85.19999999999999</ele><time>2026-05-01T14:25:02.879Z</time></trkpt><trkpt lat="43.7626408" lon="7.4723429"><ele>84.80000000000001</ele><time>2026-05-01T14:25:03.879Z</time></trkpt><trkpt lat="43.7626393" lon="7.472192"><ele>84.4</ele><time>2026-05-01T14:25:04.879Z</time></trkpt><trkpt lat="43.7626596" lon="7.4720892"><ele>84.0</ele><time>2026-05-01T14:25:05.879Z</time></trkpt><trkpt lat="43.7626925" lon="7.4720068"><ele>84.0</ele><time>2026-05-01T14:25:06.879Z</time></trkpt><trkpt lat="43.7626797" lon="7.4718727"><ele>84.0</ele><time>2026-05-01T14:25:07.88Z</time></trkpt><trkpt lat="43.7627138" lon="7.4717069"><ele>84.0</ele><time>2026-05-01T14:25:08.88Z</time></trkpt><trkpt lat="43.7627354" lon="7.4715906"><ele>84.0</ele><time>2026-05-01T14:25:09.879Z</time></trkpt><trkpt lat="43.7627423" lon="7.4714379"><ele>84.0</ele><time>2026-05-01T14:25:10.879Z</time></trkpt><trkpt lat="43.7627538" lon="7.4712721"><ele>85.0</ele><time>2026-05-01T14:25:11.879Z</time></trkpt><trkpt lat="43.7627549" lon="7.471147"><ele>86.0</ele><time>2026-05-01T14:25:12.879Z</time></trkpt><trkpt lat="43.7627412" lon="7.4710301"><ele>87.0</ele><time>2026-05-01T14:25:13.879Z</time></trkpt><trkpt lat="43.7626763" lon="7.4709364"><ele>88.0</ele><time>2026-05-01T14:25:14.879Z</time></trkpt><trkpt lat="43.7625927" lon="7.4708484"><ele>89.0</ele><time>2026-05-01T14:25:15.879Z</time></trkpt><trkpt lat="43.7625214" lon="7.4707775"><ele>89.0</ele><time>2026-05-01T14:25:16.879Z</time></trkpt><trkpt lat="43.762417" lon="7.4707412"><ele>89.0</ele><time>2026-05-01T14:25:17.879Z</time></trkpt><trkpt lat="43.7623255" lon="7.4706865"><ele>89.0</ele><time>2026-05-01T14:25:18.88Z</time></trkpt><trkpt lat="43.7622419" lon="7.4706653"><ele>89.0</ele><time>2026-05-01T14:25:19.879Z</time></trkpt><trkpt lat="43.7621143" lon="7.4706615"><ele>89.0</ele><time>2026-05-01T14:25:20.879Z</time></trkpt><trkpt lat="43.7620287" lon="7.4706468"><ele>89.0</ele><time>2026-05-01T14:25:22.879Z</time></trkpt><trkpt lat="43.7619473" lon="7.4706791"><ele>89.0</ele><time>2026-05-01T14:25:23.879Z</time></trkpt><trkpt lat="43.761743" lon="7.4707443"><ele>89.0</ele><time>2026-05-01T14:25:25.879Z</time></trkpt><trkpt lat="43.7616174" lon="7.4708221"><ele>89.0</ele><time>2026-05-01T14:25:26.879Z</time></trkpt><trkpt lat="43.7615396" lon="7.4708755"><ele>89.6</ele><time>2026-05-01T14:25:27.879Z</time></trkpt><trkpt lat="43.76145" lon="7.470885"><ele>90.2</ele><time>2026-05-01T14:25:28.879Z</time></trkpt><trkpt lat="43.7613734" lon="7.4709013"><ele>90.8</ele><time>2026-05-01T14:25:29.879Z</time></trkpt><trkpt lat="43.7612801" lon="7.4708777"><ele>91.39999999999999</ele><time>2026-05-01T14:25:30.879Z</time></trkpt><trkpt lat="43.7611574" lon="7.4708701"><ele>92.0</ele><time>2026-05-01T14:25:31.879Z</time></trkpt><trkpt lat="43.7610712" lon="7.4708171"><ele>93.16666666666667</ele><time>2026-05-01T14:25:32.879Z</time></trkpt><trkpt lat="43.7609922" lon="7.4708153"><ele>94.33333333333334</ele><time>2026-05-01T14:25:33.88Z</time></trkpt><trkpt lat="43.7608955" lon="7.4708441"><ele>95.5</ele><time>2026-05-01T14:25:34.879Z</time></trkpt><trkpt lat="43.7608168" lon="7.470812"><ele>96.66666666666667</ele><time>2026-05-01T14:25:35.879Z</time></trkpt><trkpt lat="43.7607284" lon="7.4707871"><ele>97.83333333333333</ele><time>2026-05-01T14:25:36.879Z</time></trkpt><trkpt lat="43.7606409" lon="7.4707797"><ele>99.0</ele><time>2026-05-01T14:25:37.879Z</time></trkpt><trkpt lat="43.7605326" lon="7.4707926"><ele>99.0</ele><time>2026-05-01T14:25:38.879Z</time></trkpt><trkpt lat="43.7604433" lon="7.4707706"><ele>99.0</ele><time>2026-05-01T14:25:39.88Z</time></trkpt><trkpt lat="43.7603347" lon="7.4707828"><ele>99.0</ele><time>2026-05-01T14:25:40.879Z</time></trkpt><trkpt lat="43.7602643" lon="7.4708042"><ele>99.0</ele><time>2026-05-01T14:25:41.879Z</time></trkpt><trkpt lat="43.7601746" lon="7.470816"><ele>99.0</ele><time>2026-05-01T14:25:42.879Z</time></trkpt><trkpt lat="43.7600719" lon="7.470786"><ele>99.2</ele><time>2026-05-01T14:25:43.879Z</time></trkpt><trkpt lat="43.7599245" lon="7.4707976"><ele>99.4</ele><time>2026-05-01T14:25:44.879Z</time></trkpt><trkpt lat="43.7597896" lon="7.4707911"><ele>99.6</ele><time>2026-05-01T14:25:45.88Z</time></trkpt><trkpt lat="43.7597021" lon="7.4707988"><ele>99.8</ele><time>2026-05-01T14:25:46.879Z</time></trkpt><trkpt lat="43.7596301" lon="7.4707783"><ele>100.0</ele><time>2026-05-01T14:25:47.879Z</time></trkpt><trkpt lat="43.7595502" lon="7.4707698"><ele>100.0</ele><time>2026-05-01T14:25:48.879Z</time></trkpt><trkpt lat="43.7594571" lon="7.4707364"><ele>100.0</ele><time>2026-05-01T14:25:49.879Z</time></trkpt><trkpt lat="43.7593765" lon="7.4706799"><ele>100.0</ele><time>2026-05-01T14:25:50.879Z</time></trkpt><trkpt lat="43.7592723" lon="7.4706404"><ele>100.0</ele><time>2026-05-01T14:25:51.879Z</time></trkpt><trkpt lat="43.7592085" lon="7.4705257"><ele>100.0</ele><time>2026-05-01T14:25:52.879Z</time></trkpt><trkpt lat="43.7591199" lon="7.4704321"><ele>102.6</ele><time>2026-05-01T14:25:53.879Z</time></trkpt><trkpt lat="43.7590274" lon="7.4703737"><ele>105.2</ele><time>2026-05-01T14:25:54.88Z</time></trkpt><trkpt lat="43.7589468" lon="7.4703032"><ele>107.80000000000001</ele><time>2026-05-01T14:25:55.879Z</time></trkpt><trkpt lat="43.7588691" lon="7.4702263"><ele>110.4</ele><time>2026-05-01T14:25:56.879Z</time></trkpt><trkpt lat="43.7587909" lon="7.4701635"><ele>113.0</ele><time>2026-05-01T14:25:57.879Z</time></trkpt><trkpt lat="43.758717" lon="7.4700972"><ele>113.0</ele><time>2026-05-01T14:25:58.88Z</time></trkpt><trkpt lat="43.7586936" lon="7.4699936"><ele>113.00000000000001</ele><time>2026-05-01T14:25:59.879Z</time></trkpt><trkpt lat="43.7586087" lon="7.4698759"><ele>113.00000000000001</ele><time>2026-05-01T14:26:00.879Z</time></trkpt><trkpt lat="43.7585856" lon="7.4697559"><ele>113.0</ele><time>2026-05-01T14:26:01.879Z</time></trkpt><trkpt lat="43.7585518" lon="7.4696346"><ele>113.0</ele><time>2026-05-01T14:26:02.879Z</time></trkpt><trkpt lat="43.7585187" lon="7.4695254"><ele>111.0</ele><time>2026-05-01T14:26:03.879Z</time></trkpt><trkpt lat="43.7584953" lon="7.4693862"><ele>109.00000000000001</ele><time>2026-05-01T14:26:04.879Z</time></trkpt><trkpt lat="43.7584722" lon="7.4692533"><ele>107.0</ele><time>2026-05-01T14:26:05.88Z</time></trkpt><trkpt lat="43.7584454" lon="7.469113"><ele>105.0</ele><time>2026-05-01T14:26:06.879Z</time></trkpt><trkpt lat="43.7584471" lon="7.4689745"><ele>103.0</ele><time>2026-05-01T14:26:07.879Z</time></trkpt><trkpt lat="43.7584668" lon="7.4688684"><ele>100.25</ele><time>2026-05-01T14:26:08.879Z</time></trkpt><trkpt lat="43.7584987" lon="7.4687635"><ele>97.5</ele><time>2026-05-01T14:26:09.879Z</time></trkpt><trkpt lat="43.7585395" lon="7.4686296"><ele>94.75</ele><time>2026-05-01T14:26:10.879Z</time></trkpt><trkpt lat="43.7586067" lon="7.4685011"><ele>92.0</ele><time>2026-05-01T14:26:11.88Z</time></trkpt><trkpt lat="43.7587111" lon="7.4683297"><ele>98.0</ele><time>2026-05-01T14:26:12.879Z</time></trkpt><trkpt lat="43.7588195" lon="7.4681158"><ele>104.0</ele><time>2026-05-01T14:26:13.879Z</time></trkpt><trkpt lat="43.7589641" lon="7.46794"><ele>110.0</ele><time>2026-05-01T14:26:14.879Z</time></trkpt><trkpt lat="43.7590959" lon="7.4677791"><ele>110.0</ele><time>2026-05-01T14:26:15.879Z</time></trkpt><trkpt lat="43.7592243" lon="7.4676174"><ele>110.0</ele><time>2026-05-01T14:26:16.879Z</time></trkpt><trkpt lat="43.7593536" lon="7.467484"><ele>110.0</ele><time>2026-05-01T14:26:17.88Z</time></trkpt><trkpt lat="43.7594802" lon="7.467303"><ele>113.0</ele><time>2026-05-01T14:26:18.879Z</time></trkpt><trkpt lat="43.7596185" lon="7.4671851"><ele>116.0</ele><time>2026-05-01T14:26:19.879Z</time></trkpt><trkpt lat="43.75978" lon="7.4670725"><ele>119.0</ele><time>2026-05-01T14:26:20.879Z</time></trkpt><trkpt lat="43.7598805" lon="7.46696"><ele>119.0</ele><time>2026-05-01T14:26:21.88Z</time></trkpt><trkpt lat="43.7599865" lon="7.4668159"><ele>119.0</ele><time>2026-05-01T14:26:22.879Z</time></trkpt><trkpt lat="43.7600828" lon="7.466679"><ele>119.0</ele><time>2026-05-01T14:26:23.879Z</time></trkpt><trkpt lat="43.760195" lon="7.4665717"><ele>119.0</ele><time>2026-05-01T14:26:24.879Z</time></trkpt><trkpt lat="43.7603301" lon="7.4664321"><ele>121.0</ele><time>2026-05-01T14:26:25.879Z</time></trkpt><trkpt lat="43.7604509" lon="7.4663572"><ele>123.0</ele><time>2026-05-01T14:26:26.879Z</time></trkpt><trkpt lat="43.7605894" lon="7.4662696"><ele>125.0</ele><time>2026-05-01T14:26:27.879Z</time></trkpt><trkpt lat="43.7607269" lon="7.4662009"><ele>127.0</ele><time>2026-05-01T14:26:28.88Z</time></trkpt><trkpt lat="43.7608802" lon="7.4661287"><ele>127.0</ele><time>2026-05-01T14:26:29.879Z</time></trkpt><trkpt lat="43.7609768" lon="7.4660692"><ele>127.0</ele><time>2026-05-01T14:26:30.879Z</time></trkpt><trkpt lat="43.7610857" lon="7.4659356"><ele>127.0</ele><time>2026-05-01T14:26:31.88Z</time></trkpt><trkpt lat="43.7611894" lon="7.4658048"><ele>127.0</ele><time>2026-05-01T14:26:32.879Z</time></trkpt><trkpt lat="43.7613236" lon="7.4657213"><ele>128.75</ele><time>2026-05-01T14:26:33.879Z</time></trkpt><trkpt lat="43.7614366" lon="7.4656332"><ele>130.5</ele><time>2026-05-01T14:26:34.879Z</time></trkpt><trkpt lat="43.7615312" lon="7.4655643"><ele>132.25</ele><time>2026-05-01T14:26:35.879Z</time></trkpt><trkpt lat="43.761642" lon="7.4654718"><ele>134.0</ele><time>2026-05-01T14:26:36.879Z</time></trkpt><trkpt lat="43.761736" lon="7.4653752"><ele>134.0</ele><time>2026-05-01T14:26:37.879Z</time></trkpt><trkpt lat="43.761783" lon="7.4652306"><ele>134.0</ele><time>2026-05-01T14:26:38.879Z</time></trkpt><trkpt lat="43.7618368" lon="7.4651074"><ele>134.0</ele><time>2026-05-01T14:26:39.879Z</time></trkpt><trkpt lat="43.7619104" lon="7.4649491"><ele>134.0</ele><time>2026-05-01T14:26:40.879Z</time></trkpt><trkpt lat="43.7619683" lon="7.4647807"><ele>139.25</ele><time>2026-05-01T14:26:41.879Z</time></trkpt><trkpt lat="43.7620324" lon="7.464636"><ele>144.5</ele><time>2026-05-01T14:26:42.879Z</time></trkpt><trkpt lat="43.7621042" lon="7.4645238"><ele>149.75</ele><time>2026-05-01T14:26:43.879Z</time></trkpt><trkpt lat="43.7622189" lon="7.4644574"><ele>155.0</ele><time>2026-05-01T14:26:44.879Z</time></trkpt><trkpt lat="43.7623307" lon="7.4643689"><ele>155.0</ele><time>2026-05-01T14:26:45.879Z</time></trkpt><trkpt lat="43.7624277" lon="7.4642696"><ele>155.0</ele><time>2026-05-01T14:26:46.879Z</time></trkpt><trkpt lat="43.7625365" lon="7.4641477"><ele>155.0</ele><time>2026-05-01T14:26:47.879Z</time></trkpt><trkpt lat="43.7626246" lon="7.4640324"><ele>155.0</ele><time>2026-05-01T14:26:48.879Z</time></trkpt><trkpt lat="43.7627298" lon="7.4639613"><ele>158.33333333333331</ele><time>2026-05-01T14:26:49.879Z</time></trkpt><trkpt lat="43.7628541" lon="7.4638365"><ele>161.66666666666666</ele><time>2026-05-01T14:26:50.879Z</time></trkpt><trkpt lat="43.7629696" lon="7.4636914"><ele>165.0</ele><time>2026-05-01T14:26:51.879Z</time></trkpt><trkpt lat="43.7631398" lon="7.4636377"><ele>165.0</ele><time>2026-05-01T14:26:52.879Z</time></trkpt><trkpt lat="43.7632335" lon="7.4635048"><ele>165.0</ele><time>2026-05-01T14:26:53.879Z</time></trkpt><trkpt lat="43.763372" lon="7.4634285"><ele>165.0</ele><time>2026-05-01T14:26:54.879Z</time></trkpt><trkpt lat="43.7634931" lon="7.4633006"><ele>165.0</ele><time>2026-05-01T14:26:55.879Z</time></trkpt><trkpt lat="43.7635697" lon="7.4631582"><ele>169.4</ele><time>2026-05-01T14:26:56.879Z</time></trkpt><trkpt lat="43.7636338" lon="7.463029"><ele>173.8</ele><time>2026-05-01T14:26:57.879Z</time></trkpt><trkpt lat="43.7636937" lon="7.4629064"><ele>178.2</ele><time>2026-05-01T14:26:58.879Z</time></trkpt><trkpt lat="43.7637515" lon="7.4628188"><ele>182.6</ele><time>2026-05-01T14:26:59.879Z</time></trkpt><trkpt lat="43.7638396" lon="7.4627054"><ele>187.0</ele><time>2026-05-01T14:27:00.879Z</time></trkpt><trkpt lat="43.7639099" lon="7.4625927"><ele>187.0</ele><time>2026-05-01T14:27:01.879Z</time></trkpt><trkpt lat="43.7639435" lon="7.4624356"><ele>187.0</ele><time>2026-05-01T14:27:02.879Z</time></trkpt><trkpt lat="43.763908" lon="7.4623102"><ele>187.0</ele><time>2026-05-01T14:27:03.879Z</time></trkpt><trkpt lat="43.7638869" lon="7.4621598"><ele>187.0</ele><time>2026-05-01T14:27:04.879Z</time></trkpt><trkpt lat="43.7638848" lon="7.4620559"><ele>187.0</ele><time>2026-05-01T14:27:05.879Z</time></trkpt><trkpt lat="43.7638393" lon="7.4619061"><ele>187.0</ele><time>2026-05-01T14:27:06.879Z</time></trkpt><trkpt lat="43.7638237" lon="7.4617625"><ele>187.0</ele><time>2026-05-01T14:27:07.879Z</time></trkpt><trkpt lat="43.7638107" lon="7.4616442"><ele>187.0</ele><time>2026-05-01T14:27:08.879Z</time></trkpt><trkpt lat="43.7638171" lon="7.4615256"><ele>187.0</ele><time>2026-05-01T14:27:09.879Z</time></trkpt><trkpt lat="43.7638221" lon="7.4614209"><ele>187.0</ele><time>2026-05-01T14:27:10.879Z</time></trkpt><trkpt lat="43.7638878" lon="7.4612796"><ele>187.0</ele><time>2026-05-01T14:27:11.879Z</time></trkpt><trkpt lat="43.7639672" lon="7.4611258"><ele>187.0</ele><time>2026-05-01T14:27:12.879Z</time></trkpt><trkpt lat="43.7640047" lon="7.4610372"><ele>187.0</ele><time>2026-05-01T14:27:13.879Z</time></trkpt><trkpt lat="43.764016" lon="7.4609171"><ele>187.0</ele><time>2026-05-01T14:27:14.879Z</time></trkpt><trkpt lat="43.764021" lon="7.4607698"><ele>187.0</ele><time>2026-05-01T14:27:15.88Z</time></trkpt><trkpt lat="43.7639635" lon="7.4606814"><ele>187.0</ele><time>2026-05-01T14:27:16.879Z</time></trkpt><trkpt lat="43.7639272" lon="7.4605759"><ele>187.0</ele><time>2026-05-01T14:27:17.879Z</time></trkpt><trkpt lat="43.7638204" lon="7.4603753"><ele>187.0</ele><time>2026-05-01T14:27:18.879Z</time></trkpt><trkpt lat="43.7637439" lon="7.4602559"><ele>187.0</ele><time>2026-05-01T14:27:19.879Z</time></trkpt><trkpt lat="43.7636986" lon="7.4601303"><ele>188.0</ele><time>2026-05-01T14:27:20.879Z</time></trkpt><trkpt lat="43.7636728" lon="7.4600115"><ele>189.0</ele><time>2026-05-01T14:27:21.879Z</time></trkpt><trkpt lat="43.7636283" lon="7.4598525"><ele>190.0</ele><time>2026-05-01T14:27:22.879Z</time></trkpt><trkpt lat="43.763627" lon="7.4597591"><ele>191.0</ele><time>2026-05-01T14:27:23.879Z</time></trkpt><trkpt lat="43.7636519" lon="7.4596477"><ele>192.0</ele><time>2026-05-01T14:27:24.88Z</time></trkpt><trkpt lat="43.7636989" lon="7.4595318"><ele>189.5</ele><time>2026-05-01T14:27:25.879Z</time></trkpt><trkpt lat="43.7637833" lon="7.4593537"><ele>187.0</ele><time>2026-05-01T14:27:27.879Z</time></trkpt><trkpt lat="43.763882" lon="7.4592744"><ele>184.5</ele><time>2026-05-01T14:27:28.879Z</time></trkpt><trkpt lat="43.763994" lon="7.4591964"><ele>182.0</ele><time>2026-05-01T14:27:29.879Z</time></trkpt><trkpt lat="43.7640879" lon="7.4591082"><ele>182.0</ele><time>2026-05-01T14:27:30.879Z</time></trkpt><trkpt lat="43.7641665" lon="7.4589612"><ele>182.0</ele><time>2026-05-01T14:27:31.879Z</time></trkpt><trkpt lat="43.7642272" lon="7.4588503"><ele>182.0</ele><time>2026-05-01T14:27:32.879Z</time></trkpt><trkpt lat="43.7642837" lon="7.4587179"><ele>182.0</ele><time>2026-05-01T14:27:33.879Z</time></trkpt><trkpt lat="43.7643206" lon="7.4586047"><ele>182.0</ele><time>2026-05-01T14:27:34.88Z</time></trkpt><trkpt lat="43.764424" lon="7.4584756"><ele>185.75</ele><time>2026-05-01T14:27:35.88Z</time></trkpt><trkpt lat="43.7644917" lon="7.4584197"><ele>189.5</ele><time>2026-05-01T14:27:36.879Z</time></trkpt><trkpt lat="43.7646084" lon="7.4583663"><ele>193.25</ele><time>2026-05-01T14:27:37.879Z</time></trkpt><trkpt lat="43.7647356" lon="7.4583359"><ele>197.0</ele><time>2026-05-01T14:27:38.879Z</time></trkpt><trkpt lat="43.7648613" lon="7.458289"><ele>197.0</ele><time>2026-05-01T14:27:39.879Z</time></trkpt><trkpt lat="43.7649736" lon="7.4582581"><ele>197.0</ele><time>2026-05-01T14:27:41.879Z</time></trkpt><trkpt lat="43.7650273" lon="7.4581475"><ele>197.0</ele><time>2026-05-01T14:27:43.879Z</time></trkpt><trkpt lat="43.7650552" lon="7.4580692"><ele>197.0</ele><time>2026-05-01T14:27:44.879Z</time></trkpt><trkpt lat="43.7650172" lon="7.4579559"><ele>197.0</ele><time>2026-05-01T14:27:45.879Z</time></trkpt><trkpt lat="43.7649353" lon="7.4577803"><ele>200.33333333333334</ele><time>2026-05-01T14:27:46.879Z</time></trkpt><trkpt lat="43.7648066" lon="7.4575122"><ele>203.66666666666669</ele><time>2026-05-01T14:27:47.879Z</time></trkpt><trkpt lat="43.7647031" lon="7.4574033"><ele>207.0</ele><time>2026-05-01T14:27:48.879Z</time></trkpt><trkpt lat="43.7645944" lon="7.4572134"><ele>208.0</ele><time>2026-05-01T14:27:49.879Z</time></trkpt><trkpt lat="43.7645077" lon="7.4570574"><ele>209.0</ele><time>2026-05-01T14:27:50.879Z</time></trkpt><trkpt lat="43.7644223" lon="7.4569242"><ele>210.0</ele><time>2026-05-01T14:27:51.879Z</time></trkpt><trkpt lat="43.7643102" lon="7.4568827"><ele>211.0</ele><time>2026-05-01T14:27:52.879Z</time></trkpt><trkpt lat="43.7641908" lon="7.4568447"><ele>211.0</ele><time>2026-05-01T14:27:53.879Z</time></trkpt><trkpt lat="43.7641144" lon="7.4568273"><ele>211.0</ele><time>2026-05-01T14:27:54.879Z</time></trkpt><trkpt lat="43.7640855" lon="7.4567449"><ele>211.0</ele><time>2026-05-01T14:27:55.88Z</time></trkpt><trkpt lat="43.7644789" lon="7.4566231"><ele>211.0</ele><time>2026-05-01T14:28:04.879Z</time></trkpt><trkpt lat="43.7646495" lon="7.4565607"><ele>211.0</ele><time>2026-05-01T14:28:05.879Z</time></trkpt><trkpt lat="43.7648877" lon="7.4564467"><ele>211.0</ele><time>2026-05-01T14:28:06.879Z</time></trkpt><trkpt lat="43.7650914" lon="7.4563485"><ele>208.66666666666666</ele><time>2026-05-01T14:28:07.879Z</time></trkpt><trkpt lat="43.7652514" lon="7.4562559"><ele>206.33333333333331</ele><time>2026-05-01T14:28:08.879Z</time></trkpt><trkpt lat="43.7653903" lon="7.4561147"><ele>204.0</ele><time>2026-05-01T14:28:09.879Z</time></trkpt><trkpt lat="43.7655383" lon="7.4560407"><ele>204.0</ele><time>2026-05-01T14:28:10.879Z</time></trkpt><trkpt lat="43.7656501" lon="7.4558971"><ele>204.0</ele><time>2026-05-01T14:28:11.879Z</time></trkpt><trkpt lat="43.7657229" lon="7.455735"><ele>204.0</ele><time>2026-05-01T14:28:12.879Z</time></trkpt><trkpt lat="43.7658488" lon="7.45562"><ele>204.0</ele><time>2026-05-01T14:28:13.879Z</time></trkpt><trkpt lat="43.7659555" lon="7.4555253"><ele>207.79999999999998</ele><time>2026-05-01T14:28:14.879Z</time></trkpt><trkpt lat="43.7660406" lon="7.4554663"><ele>211.6</ele><time>2026-05-01T14:28:15.879Z</time></trkpt><trkpt lat="43.7661261" lon="7.4553803"><ele>215.4</ele><time>2026-05-01T14:28:16.88Z</time></trkpt><trkpt lat="43.766233" lon="7.4553298"><ele>219.2</ele><time>2026-05-01T14:28:17.879Z</time></trkpt><trkpt lat="43.7663347" lon="7.455284"><ele>223.0</ele><time>2026-05-01T14:28:18.88Z</time></trkpt><trkpt lat="43.766444" lon="7.4551988"><ele>223.0</ele><time>2026-05-01T14:28:19.88Z</time></trkpt><trkpt lat="43.7665326" lon="7.4551594"><ele>223.0</ele><time>2026-05-01T14:28:20.879Z</time></trkpt><trkpt lat="43.7666135" lon="7.4551046"><ele>223.0</ele><time>2026-05-01T14:28:21.879Z</time></trkpt><trkpt lat="43.7667067" lon="7.4550649"><ele>223.0</ele><time>2026-05-01T14:28:22.879Z</time></trkpt><trkpt lat="43.766765" lon="7.4549846"><ele>223.0</ele><time>2026-05-01T14:28:23.879Z</time></trkpt><trkpt lat="43.7668023" lon="7.4548588"><ele>222.99999999999997</ele><time>2026-05-01T14:28:24.879Z</time></trkpt><trkpt lat="43.7668524" lon="7.4547753"><ele>223.0</ele><time>2026-05-01T14:28:25.879Z</time></trkpt><trkpt lat="43.7668901" lon="7.4546706"><ele>223.0</ele><time>2026-05-01T14:28:26.879Z</time></trkpt><trkpt lat="43.7669364" lon="7.4545821"><ele>223.0</ele><time>2026-05-01T14:28:27.88Z</time></trkpt><trkpt lat="43.767015" lon="7.4545068"><ele>222.99999999999997</ele><time>2026-05-01T14:28:28.879Z</time></trkpt><trkpt lat="43.7671017" lon="7.4544743"><ele>223.0</ele><time>2026-05-01T14:28:29.879Z</time></trkpt><trkpt lat="43.767169" lon="7.4543724"><ele>224.4</ele><time>2026-05-01T14:28:30.879Z</time></trkpt><trkpt lat="43.7672358" lon="7.4542705"><ele>225.8</ele><time>2026-05-01T14:28:31.879Z</time></trkpt><trkpt lat="43.7673252" lon="7.4541825"><ele>227.2</ele><time>2026-05-01T14:28:32.879Z</time></trkpt><trkpt lat="43.7674098" lon="7.4540823"><ele>228.6</ele><time>2026-05-01T14:28:33.879Z</time></trkpt><trkpt lat="43.7674692" lon="7.4539598"><ele>230.0</ele><time>2026-05-01T14:28:34.879Z</time></trkpt><trkpt lat="43.7675837" lon="7.453781"><ele>230.16666666666669</ele><time>2026-05-01T14:28:36.879Z</time></trkpt><trkpt lat="43.7676564" lon="7.4537125"><ele>230.33333333333334</ele><time>2026-05-01T14:28:37.879Z</time></trkpt><trkpt lat="43.7677089" lon="7.4537687"><ele>230.5</ele><time>2026-05-01T14:28:38.879Z</time></trkpt><trkpt lat="43.7678042" lon="7.4537724"><ele>230.66666666666669</ele><time>2026-05-01T14:28:39.879Z</time></trkpt><trkpt lat="43.7678732" lon="7.4537607"><ele>230.83333333333334</ele><time>2026-05-01T14:28:40.879Z</time></trkpt><trkpt lat="43.7679777" lon="7.4536931"><ele>231.0</ele><time>2026-05-01T14:28:41.879Z</time></trkpt><trkpt lat="43.7680737" lon="7.453615"><ele>231.0</ele><time>2026-05-01T14:28:42.879Z</time></trkpt><trkpt lat="43.7681922" lon="7.4534926"><ele>231.0</ele><time>2026-05-01T14:28:43.879Z</time></trkpt><trkpt lat="43.7682865" lon="7.4534319"><ele>231.0</ele><time>2026-05-01T14:28:44.879Z</time></trkpt><trkpt lat="43.7683792" lon="7.4533242"><ele>231.0</ele><time>2026-05-01T14:28:45.879Z</time></trkpt><trkpt lat="43.7684653" lon="7.4532539"><ele>235.25</ele><time>2026-05-01T14:28:46.879Z</time></trkpt><trkpt lat="43.7685311" lon="7.4531545"><ele>239.5</ele><time>2026-05-01T14:28:47.879Z</time></trkpt><trkpt lat="43.768584" lon="7.4530214"><ele>243.75</ele><time>2026-05-01T14:28:48.879Z</time></trkpt><trkpt lat="43.7686381" lon="7.4528718"><ele>248.0</ele><time>2026-05-01T14:28:49.879Z</time></trkpt><trkpt lat="43.7687054" lon="7.4527183"><ele>248.0</ele><time>2026-05-01T14:28:50.879Z</time></trkpt><trkpt lat="43.7687558" lon="7.452593"><ele>248.0</ele><time>2026-05-01T14:28:51.879Z</time></trkpt><trkpt lat="43.7687817" lon="7.4524447"><ele>248.0</ele><time>2026-05-01T14:28:52.879Z</time></trkpt><trkpt lat="43.768835" lon="7.4523041"><ele>248.0</ele><time>2026-05-01T14:28:53.879Z</time></trkpt><trkpt lat="43.7689194" lon="7.4522156"><ele>248.0</ele><time>2026-05-01T14:28:54.879Z</time></trkpt><trkpt lat="43.7689882" lon="7.4521466"><ele>244.8</ele><time>2026-05-01T14:28:55.879Z</time></trkpt><trkpt lat="43.7690593" lon="7.4520488"><ele>241.60000000000002</ele><time>2026-05-01T14:28:56.879Z</time></trkpt><trkpt lat="43.7691616" lon="7.4519477"><ele>238.39999999999998</ele><time>2026-05-01T14:28:58.879Z</time></trkpt><trkpt lat="43.7692116" lon="7.4518466"><ele>235.2</ele><time>2026-05-01T14:28:59.879Z</time></trkpt><trkpt lat="43.769259" lon="7.4517496"><ele>232.0</ele><time>2026-05-01T14:29:00.88Z</time></trkpt><trkpt lat="43.7692674" lon="7.4516359"><ele>232.0</ele><time>2026-05-01T14:29:01.879Z</time></trkpt><trkpt lat="43.7692363" lon="7.4514905"><ele>232.0</ele><time>2026-05-01T14:29:02.879Z</time></trkpt><trkpt lat="43.7691796" lon="7.4513406"><ele>232.0</ele><time>2026-05-01T14:29:03.879Z</time></trkpt><trkpt lat="43.7691397" lon="7.451247"><ele>232.0</ele><time>2026-05-01T14:29:04.88Z</time></trkpt><trkpt lat="43.7690981" lon="7.4511127"><ele>232.0</ele><time>2026-05-01T14:29:05.879Z</time></trkpt><trkpt lat="43.7690497" lon="7.4509935"><ele>234.2</ele><time>2026-05-01T14:29:06.879Z</time></trkpt><trkpt lat="43.7689781" lon="7.4508874"><ele>236.39999999999998</ele><time>2026-05-01T14:29:07.879Z</time></trkpt><trkpt lat="43.768879" lon="7.4507915"><ele>238.60000000000002</ele><time>2026-05-01T14:29:08.879Z</time></trkpt><trkpt lat="43.7688146" lon="7.4507537"><ele>240.8</ele><time>2026-05-01T14:29:09.879Z</time></trkpt><trkpt lat="43.7687054" lon="7.4507473"><ele>243.0</ele><time>2026-05-01T14:29:10.879Z</time></trkpt><trkpt lat="43.7685887" lon="7.4507667"><ele>245.0</ele><time>2026-05-01T14:29:11.88Z</time></trkpt><trkpt lat="43.7684924" lon="7.4507688"><ele>247.0</ele><time>2026-05-01T14:29:12.879Z</time></trkpt><trkpt lat="43.7683247" lon="7.4507178"><ele>249.0</ele><time>2026-05-01T14:29:14.879Z</time></trkpt><trkpt lat="43.768208" lon="7.4507397"><ele>251.0</ele><time>2026-05-01T14:29:15.879Z</time></trkpt><trkpt lat="43.7680866" lon="7.4507716"><ele>251.0</ele><time>2026-05-01T14:29:16.879Z</time></trkpt><trkpt lat="43.7679777" lon="7.4507876"><ele>251.00000000000003</ele><time>2026-05-01T14:29:17.879Z</time></trkpt><trkpt lat="43.7678806" lon="7.4508267"><ele>251.00000000000003</ele><time>2026-05-01T14:29:18.879Z</time></trkpt><trkpt lat="43.7677628" lon="7.4508168"><ele>251.0</ele><time>2026-05-01T14:29:19.879Z</time></trkpt><trkpt lat="43.7676443" lon="7.4508392"><ele>251.0</ele><time>2026-05-01T14:29:20.879Z</time></trkpt><trkpt lat="43.7675806" lon="7.4508048"><ele>253.20000000000002</ele><time>2026-05-01T14:29:21.879Z</time></trkpt><trkpt lat="43.7674861" lon="7.4507725"><ele>255.40000000000003</ele><time>2026-05-01T14:29:22.879Z</time></trkpt><trkpt lat="43.7673748" lon="7.4507577"><ele>257.6</ele><time>2026-05-01T14:29:23.877Z</time></trkpt><trkpt lat="43.7672684" lon="7.4507265"><ele>259.8</ele><time>2026-05-01T14:29:24.878Z</time></trkpt><trkpt lat="43.7671834" lon="7.4507118"><ele>262.0</ele><time>2026-05-01T14:29:25.877Z</time></trkpt><trkpt lat="43.7671221" lon="7.4507435"><ele>262.0</ele><time>2026-05-01T14:29:26.877Z</time></trkpt><trkpt lat="43.7670081" lon="7.4506986"><ele>262.0</ele><time>2026-05-01T14:29:27.879Z</time></trkpt><trkpt lat="43.7669201" lon="7.4506643"><ele>262.0</ele><time>2026-05-01T14:29:28.877Z</time></trkpt><trkpt lat="43.7668612" lon="7.450716"><ele>262.0</ele><time>2026-05-01T14:29:29.877Z</time></trkpt><trkpt lat="43.7667876" lon="7.4507102"><ele>262.0</ele><time>2026-05-01T14:29:30.877Z</time></trkpt><trkpt lat="43.7666678" lon="7.450632"><ele>260.5</ele><time>2026-05-01T14:29:31.877Z</time></trkpt><trkpt lat="43.7665686" lon="7.4506047"><ele>259.0</ele><time>2026-05-01T14:29:32.877Z</time></trkpt><trkpt lat="43.7664263" lon="7.4506373"><ele>257.5</ele><time>2026-05-01T14:29:33.877Z</time></trkpt><trkpt lat="43.7662975" lon="7.4507307"><ele>256.0</ele><time>2026-05-01T14:29:34.878Z</time></trkpt><trkpt lat="43.7661094" lon="7.4508141"><ele>256.75</ele><time>2026-05-01T14:29:35.878Z</time></trkpt><trkpt lat="43.7659591" lon="7.4508913"><ele>257.5</ele><time>2026-05-01T14:29:36.877Z</time></trkpt><trkpt lat="43.7658466" lon="7.4509297"><ele>258.25</ele><time>2026-05-01T14:29:37.877Z</time></trkpt><trkpt lat="43.7656913" lon="7.4510046"><ele>259.0</ele><time>2026-05-01T14:29:38.877Z</time></trkpt><trkpt lat="43.7655528" lon="7.4510834"><ele>259.0</ele><time>2026-05-01T14:29:39.877Z</time></trkpt><trkpt lat="43.7654268" lon="7.4510977"><ele>259.0</ele><time>2026-05-01T14:29:40.877Z</time></trkpt><trkpt lat="43.7653266" lon="7.4511208"><ele>259.0</ele><time>2026-05-01T14:29:41.877Z</time></trkpt><trkpt lat="43.7652125" lon="7.4511351"><ele>259.0</ele><time>2026-05-01T14:29:42.877Z</time></trkpt><trkpt lat="43.7650348" lon="7.451137"><ele>260.59999999999997</ele><time>2026-05-01T14:29:43.877Z</time></trkpt><trkpt lat="43.7649299" lon="7.4511224"><ele>262.2</ele><time>2026-05-01T14:29:44.877Z</time></trkpt><trkpt lat="43.7648395" lon="7.4510985"><ele>263.79999999999995</ele><time>2026-05-01T14:29:45.877Z</time></trkpt><trkpt lat="43.7647213" lon="7.4510505"><ele>265.4</ele><time>2026-05-01T14:29:46.877Z</time></trkpt><trkpt lat="43.7646069" lon="7.4510002"><ele>267.0</ele><time>2026-05-01T14:29:47.877Z</time></trkpt><trkpt lat="43.7645393" lon="7.4508848"><ele>267.0</ele><time>2026-05-01T14:29:48.877Z</time></trkpt><trkpt lat="43.7644614" lon="7.4508031"><ele>267.0</ele><time>2026-05-01T14:29:49.877Z</time></trkpt><trkpt lat="43.7643565" lon="7.4507658"><ele>267.0</ele><time>2026-05-01T14:29:50.877Z</time></trkpt><trkpt lat="43.7642515" lon="7.4507066"><ele>267.0</ele><time>2026-05-01T14:29:51.877Z</time></trkpt><trkpt lat="43.7641215" lon="7.4506201"><ele>263.0</ele><time>2026-05-01T14:29:52.877Z</time></trkpt><trkpt lat="43.7639894" lon="7.4504737"><ele>259.0</ele><time>2026-05-01T14:29:53.877Z</time></trkpt><trkpt lat="43.7638574" lon="7.4503779"><ele>255.0</ele><time>2026-05-01T14:29:54.877Z</time></trkpt><trkpt lat="43.7637014" lon="7.4502848"><ele>257.6666666666667</ele><time>2026-05-01T14:29:55.877Z</time></trkpt><trkpt lat="43.7635466" lon="7.4501883"><ele>260.33333333333337</ele><time>2026-05-01T14:29:56.877Z</time></trkpt><trkpt lat="43.763382" lon="7.4500842"><ele>263.0</ele><time>2026-05-01T14:29:57.877Z</time></trkpt><trkpt lat="43.7632414" lon="7.4499136"><ele>263.0</ele><time>2026-05-01T14:29:58.877Z</time></trkpt><trkpt lat="43.7630747" lon="7.4497614"><ele>263.0</ele><time>2026-05-01T14:29:59.878Z</time></trkpt><trkpt lat="43.762937" lon="7.4496196"><ele>263.0</ele><time>2026-05-01T14:30:00.877Z</time></trkpt><trkpt lat="43.7627974" lon="7.4494771"><ele>264.6666666666667</ele><time>2026-05-01T14:30:01.877Z</time></trkpt><trkpt lat="43.76267" lon="7.4492792"><ele>266.3333333333333</ele><time>2026-05-01T14:30:02.877Z</time></trkpt><trkpt lat="43.7625188" lon="7.4491367"><ele>268.0</ele><time>2026-05-01T14:30:03.877Z</time></trkpt><trkpt lat="43.7624215" lon="7.4489895"><ele>268.0</ele><time>2026-05-01T14:30:04.877Z</time></trkpt><trkpt lat="43.7623006" lon="7.4488436"><ele>268.0</ele><time>2026-05-01T14:30:05.877Z</time></trkpt><trkpt lat="43.76219" lon="7.4487074"><ele>268.0</ele><time>2026-05-01T14:30:06.877Z</time></trkpt><trkpt lat="43.7620385" lon="7.4486211"><ele>271.0</ele><time>2026-05-01T14:30:07.877Z</time></trkpt><trkpt lat="43.7618624" lon="7.4485821"><ele>274.0</ele><time>2026-05-01T14:30:08.877Z</time></trkpt><trkpt lat="43.7617407" lon="7.4484403"><ele>277.0</ele><time>2026-05-01T14:30:09.877Z</time></trkpt><trkpt lat="43.7616777" lon="7.4482419"><ele>277.0</ele><time>2026-05-01T14:30:10.877Z</time></trkpt><trkpt lat="43.7615716" lon="7.4480943"><ele>277.0</ele><time>2026-05-01T14:30:11.877Z</time></trkpt><trkpt lat="43.7614441" lon="7.4479943"><ele>277.0</ele><time>2026-05-01T14:30:12.877Z</time></trkpt><trkpt lat="43.7613286" lon="7.447921"><ele>277.0</ele><time>2026-05-01T14:30:13.877Z</time></trkpt><trkpt lat="43.7611883" lon="7.4478466"><ele>282.25</ele><time>2026-05-01T14:30:14.877Z</time></trkpt><trkpt lat="43.7610371" lon="7.4477969"><ele>287.5</ele><time>2026-05-01T14:30:15.877Z</time></trkpt><trkpt lat="43.7608798" lon="7.4477439"><ele>292.75</ele><time>2026-05-01T14:30:16.877Z</time></trkpt><trkpt lat="43.7607859" lon="7.4476288"><ele>298.0</ele><time>2026-05-01T14:30:17.877Z</time></trkpt><trkpt lat="43.7606491" lon="7.4475566"><ele>298.0</ele><time>2026-05-01T14:30:18.877Z</time></trkpt><trkpt lat="43.7605396" lon="7.4474594"><ele>298.0</ele><time>2026-05-01T14:30:19.878Z</time></trkpt><trkpt lat="43.7604075" lon="7.4473863"><ele>298.0</ele><time>2026-05-01T14:30:20.877Z</time></trkpt><trkpt lat="43.7602699" lon="7.4472677"><ele>298.0</ele><time>2026-05-01T14:30:21.877Z</time></trkpt><trkpt lat="43.7601508" lon="7.4471649"><ele>296.25</ele><time>2026-05-01T14:30:22.877Z</time></trkpt><trkpt lat="43.7600962" lon="7.4470196"><ele>294.5</ele><time>2026-05-01T14:30:23.877Z</time></trkpt><trkpt lat="43.7600457" lon="7.4468874"><ele>292.75</ele><time>2026-05-01T14:30:24.877Z</time></trkpt><trkpt lat="43.7600251" lon="7.4467206"><ele>291.0</ele><time>2026-05-01T14:30:25.877Z</time></trkpt><trkpt lat="43.7599849" lon="7.4465243"><ele>291.0</ele><time>2026-05-01T14:30:26.877Z</time></trkpt><trkpt lat="43.759953" lon="7.4463846"><ele>291.0</ele><time>2026-05-01T14:30:27.877Z</time></trkpt><trkpt lat="43.7599011" lon="7.4461888"><ele>291.0</ele><time>2026-05-01T14:30:28.877Z</time></trkpt><trkpt lat="43.7598474" lon="7.4460677"><ele>291.0</ele><time>2026-05-01T14:30:29.877Z</time></trkpt><trkpt lat="43.7597324" lon="7.4459894"><ele>287.75</ele><time>2026-05-01T14:30:30.877Z</time></trkpt><trkpt lat="43.759644" lon="7.4459097"><ele>284.5</ele><time>2026-05-01T14:30:31.878Z</time></trkpt><trkpt lat="43.7595197" lon="7.4458136"><ele>281.25</ele><time>2026-05-01T14:30:32.877Z</time></trkpt><trkpt lat="43.7593926" lon="7.4456304"><ele>278.0</ele><time>2026-05-01T14:30:33.877Z</time></trkpt><trkpt lat="43.7593001" lon="7.4455146"><ele>283.75</ele><time>2026-05-01T14:30:34.877Z</time></trkpt><trkpt lat="43.7591988" lon="7.4454058"><ele>289.5</ele><time>2026-05-01T14:30:35.877Z</time></trkpt><trkpt lat="43.7591274" lon="7.4452707"><ele>295.25</ele><time>2026-05-01T14:30:36.877Z</time></trkpt><trkpt lat="43.7590844" lon="7.4451229"><ele>301.0</ele><time>2026-05-01T14:30:37.878Z</time></trkpt><trkpt lat="43.7590278" lon="7.4449584"><ele>301.0</ele><time>2026-05-01T14:30:38.877Z</time></trkpt><trkpt lat="43.7590001" lon="7.4447764"><ele>301.0</ele><time>2026-05-01T14:30:39.877Z</time></trkpt><trkpt lat="43.7589398" lon="7.444621"><ele>301.0</ele><time>2026-05-01T14:30:40.877Z</time></trkpt><trkpt lat="43.7588877" lon="7.4445546"><ele>301.0</ele><time>2026-05-01T14:30:41.877Z</time></trkpt><trkpt lat="43.7587562" lon="7.4443894"><ele>303.0</ele><time>2026-05-01T14:30:42.877Z</time></trkpt><trkpt lat="43.7586507" lon="7.4442702"><ele>305.0</ele><time>2026-05-01T14:30:43.877Z</time></trkpt><trkpt lat="43.7585397" lon="7.4441627"><ele>307.0</ele><time>2026-05-01T14:30:44.877Z</time></trkpt><trkpt lat="43.758424" lon="7.4441093"><ele>309.0</ele><time>2026-05-01T14:30:45.877Z</time></trkpt><trkpt lat="43.7583012" lon="7.4440676"><ele>309.0</ele><time>2026-05-01T14:30:46.877Z</time></trkpt><trkpt lat="43.7582004" lon="7.4440189"><ele>309.0</ele><time>2026-05-01T14:30:47.877Z</time></trkpt><trkpt lat="43.7580575" lon="7.4439351"><ele>309.0</ele><time>2026-05-01T14:30:48.877Z</time></trkpt><trkpt lat="43.7579152" lon="7.4438746"><ele>309.0</ele><time>2026-05-01T14:30:49.877Z</time></trkpt><trkpt lat="43.7577716" lon="7.4437883"><ele>310.0</ele><time>2026-05-01T14:30:50.877Z</time></trkpt><trkpt lat="43.7576513" lon="7.4437564"><ele>311.0</ele><time>2026-05-01T14:30:51.878Z</time></trkpt><trkpt lat="43.7575117" lon="7.4437821"><ele>312.0</ele><time>2026-05-01T14:30:52.877Z</time></trkpt><trkpt lat="43.7574129" lon="7.4438153"><ele>313.0</ele><time>2026-05-01T14:30:53.877Z</time></trkpt><trkpt lat="43.7573843" lon="7.4439504"><ele>313.0</ele><time>2026-05-01T14:30:55.877Z</time></trkpt><trkpt lat="43.7573036" lon="7.4441341"><ele>313.0</ele><time>2026-05-01T14:30:57.877Z</time></trkpt><trkpt lat="43.7572271" lon="7.4442343"><ele>313.0</ele><time>2026-05-01T14:30:58.877Z</time></trkpt><trkpt lat="43.757167" lon="7.4441002"><ele>313.0</ele><time>2026-05-01T14:31:04.877Z</time></trkpt><trkpt lat="43.7571188" lon="7.4439852"><ele>313.0</ele><time>2026-05-01T14:31:06.877Z</time></trkpt><trkpt lat="43.7570764" lon="7.4438758"><ele>313.0</ele><time>2026-05-01T14:31:07.877Z</time></trkpt><trkpt lat="43.7570538" lon="7.4437857"><ele>313.0</ele><time>2026-05-01T14:31:08.877Z</time></trkpt><trkpt lat="43.757045" lon="7.4436355"><ele>313.0</ele><time>2026-05-01T14:31:09.877Z</time></trkpt><trkpt lat="43.7570147" lon="7.4435312"><ele>313.0</ele><time>2026-05-01T14:31:10.877Z</time></trkpt><trkpt lat="43.7569824" lon="7.4433854"><ele>312.0</ele><time>2026-05-01T14:31:11.877Z</time></trkpt><trkpt lat="43.7569597" lon="7.4431998"><ele>311.0</ele><time>2026-05-01T14:31:12.877Z</time></trkpt><trkpt lat="43.7569227" lon="7.4430441"><ele>310.0</ele><time>2026-05-01T14:31:13.877Z</time></trkpt><trkpt lat="43.756895" lon="7.4428764"><ele>309.0</ele><time>2026-05-01T14:31:14.877Z</time></trkpt><trkpt lat="43.7568643" lon="7.4427057"><ele>309.0</ele><time>2026-05-01T14:31:15.877Z</time></trkpt><trkpt lat="43.7568783" lon="7.4425539"><ele>309.0</ele><time>2026-05-01T14:31:16.877Z</time></trkpt><trkpt lat="43.7568646" lon="7.4424606"><ele>309.0</ele><time>2026-05-01T14:31:17.877Z</time></trkpt><trkpt lat="43.7569028" lon="7.4422718"><ele>309.0</ele><time>2026-05-01T14:31:18.877Z</time></trkpt><trkpt lat="43.7568894" lon="7.4421429"><ele>309.0</ele><time>2026-05-01T14:31:19.877Z</time></trkpt><trkpt lat="43.7568931" lon="7.441993"><ele>310.5</ele><time>2026-05-01T14:31:20.877Z</time></trkpt><trkpt lat="43.7568704" lon="7.4418657"><ele>312.0</ele><time>2026-05-01T14:31:21.877Z</time></trkpt><trkpt lat="43.7568223" lon="7.4417184"><ele>313.5</ele><time>2026-05-01T14:31:22.877Z</time></trkpt><trkpt lat="43.7567203" lon="7.4415385"><ele>315.0</ele><time>2026-05-01T14:31:23.877Z</time></trkpt><trkpt lat="43.7566718" lon="7.4413759"><ele>316.75</ele><time>2026-05-01T14:31:24.877Z</time></trkpt><trkpt lat="43.7566034" lon="7.4412773"><ele>318.5</ele><time>2026-05-01T14:31:25.877Z</time></trkpt><trkpt lat="43.7565519" lon="7.4411038"><ele>320.25</ele><time>2026-05-01T14:31:26.877Z</time></trkpt><trkpt lat="43.7565322" lon="7.4409225"><ele>322.0</ele><time>2026-05-01T14:31:27.877Z</time></trkpt><trkpt lat="43.7565223" lon="7.4407537"><ele>322.0</ele><time>2026-05-01T14:31:28.877Z</time></trkpt><trkpt lat="43.7565739" lon="7.4405803"><ele>322.0</ele><time>2026-05-01T14:31:29.877Z</time></trkpt><trkpt lat="43.7566082" lon="7.4404259"><ele>322.0</ele><time>2026-05-01T14:31:30.877Z</time></trkpt><trkpt lat="43.756645" lon="7.4402406"><ele>322.0</ele><time>2026-05-01T14:31:31.877Z</time></trkpt><trkpt lat="43.7566718" lon="7.4400873"><ele>321.6</ele><time>2026-05-01T14:31:32.878Z</time></trkpt><trkpt lat="43.7566782" lon="7.4399354"><ele>321.20000000000005</ele><time>2026-05-01T14:31:33.877Z</time></trkpt><trkpt lat="43.756675" lon="7.4397787"><ele>320.8</ele><time>2026-05-01T14:31:34.877Z</time></trkpt><trkpt lat="43.756653" lon="7.4396647"><ele>320.4</ele><time>2026-05-01T14:31:35.877Z</time></trkpt><trkpt lat="43.7565912" lon="7.4395364"><ele>320.0</ele><time>2026-05-01T14:31:36.877Z</time></trkpt><trkpt lat="43.7565607" lon="7.4394079"><ele>319.83333333333337</ele><time>2026-05-01T14:31:37.877Z</time></trkpt><trkpt lat="43.7565465" lon="7.4392918"><ele>319.6666666666667</ele><time>2026-05-01T14:31:38.877Z</time></trkpt><trkpt lat="43.7565396" lon="7.4391573"><ele>319.5</ele><time>2026-05-01T14:31:39.877Z</time></trkpt><trkpt lat="43.7565561" lon="7.439068"><ele>319.3333333333333</ele><time>2026-05-01T14:31:40.877Z</time></trkpt><trkpt lat="43.7565961" lon="7.438971"><ele>319.16666666666663</ele><time>2026-05-01T14:31:41.877Z</time></trkpt><trkpt lat="43.7566594" lon="7.4388772"><ele>319.0</ele><time>2026-05-01T14:31:42.877Z</time></trkpt><trkpt lat="43.756737" lon="7.438861"><ele>319.0</ele><time>2026-05-01T14:31:43.877Z</time></trkpt><trkpt lat="43.7568674" lon="7.4388323"><ele>319.0</ele><time>2026-05-01T14:31:44.877Z</time></trkpt><trkpt lat="43.7570158" lon="7.4387771"><ele>319.0</ele><time>2026-05-01T14:31:45.877Z</time></trkpt><trkpt lat="43.7571754" lon="7.4387418"><ele>319.0</ele><time>2026-05-01T14:31:46.877Z</time></trkpt><trkpt lat="43.7573364" lon="7.4387103"><ele>319.0</ele><time>2026-05-01T14:31:47.877Z</time></trkpt><trkpt lat="43.7574747" lon="7.4386565"><ele>319.0</ele><time>2026-05-01T14:31:48.877Z</time></trkpt><trkpt lat="43.7575555" lon="7.4386813"><ele>319.0</ele><time>2026-05-01T14:31:49.877Z</time></trkpt><trkpt lat="43.7576578" lon="7.4385897"><ele>319.0</ele><time>2026-05-01T14:31:50.877Z</time></trkpt><trkpt lat="43.7577773" lon="7.438521"><ele>323.5</ele><time>2026-05-01T14:31:51.877Z</time></trkpt><trkpt lat="43.7578689" lon="7.4384067"><ele>328.0</ele><time>2026-05-01T14:31:52.877Z</time></trkpt><trkpt lat="43.757973" lon="7.4382614"><ele>332.5</ele><time>2026-05-01T14:31:53.877Z</time></trkpt><trkpt lat="43.7580994" lon="7.4381874"><ele>337.0</ele><time>2026-05-01T14:31:54.877Z</time></trkpt><trkpt lat="43.7581949" lon="7.4381444"><ele>337.0</ele><time>2026-05-01T14:31:55.877Z</time></trkpt><trkpt lat="43.7582893" lon="7.4381337"><ele>337.0</ele><time>2026-05-01T14:31:56.877Z</time></trkpt><trkpt lat="43.7584441" lon="7.4381595"><ele>337.0</ele><time>2026-05-01T14:31:58.877Z</time></trkpt><trkpt lat="43.7585603" lon="7.4381544"><ele>337.0</ele><time>2026-05-01T14:31:59.877Z</time></trkpt><trkpt lat="43.7586445" lon="7.4381164"><ele>345.75</ele><time>2026-05-01T14:32:00.877Z</time></trkpt><trkpt lat="43.7586936" lon="7.4378177"><ele>354.5</ele><time>2026-05-01T14:32:02.877Z</time></trkpt><trkpt lat="43.7587427" lon="7.4376943"><ele>363.25</ele><time>2026-05-01T14:32:03.877Z</time></trkpt><trkpt lat="43.7587717" lon="7.4375413"><ele>372.0</ele><time>2026-05-01T14:32:04.877Z</time></trkpt><trkpt lat="43.7587683" lon="7.4374002"><ele>372.0</ele><time>2026-05-01T14:32:05.877Z</time></trkpt><trkpt lat="43.7586984" lon="7.437231"><ele>372.0</ele><time>2026-05-01T14:32:06.877Z</time></trkpt><trkpt lat="43.7586138" lon="7.4371141"><ele>372.0</ele><time>2026-05-01T14:32:07.877Z</time></trkpt><trkpt lat="43.7584998" lon="7.4369004"><ele>362.0</ele><time>2026-05-01T14:32:08.877Z</time></trkpt><trkpt lat="43.7583551" lon="7.4367956"><ele>352.0</ele><time>2026-05-01T14:32:09.878Z</time></trkpt><trkpt lat="43.7582282" lon="7.4366447"><ele>342.0</ele><time>2026-05-01T14:32:10.877Z</time></trkpt><trkpt lat="43.7581596" lon="7.4364795"><ele>342.0</ele><time>2026-05-01T14:32:11.877Z</time></trkpt><trkpt lat="43.7581466" lon="7.4363308"><ele>342.0</ele><time>2026-05-01T14:32:12.877Z</time></trkpt><trkpt lat="43.7581311" lon="7.4361759"><ele>342.0</ele><time>2026-05-01T14:32:13.877Z</time></trkpt><trkpt lat="43.7580963" lon="7.4360097"><ele>342.0</ele><time>2026-05-01T14:32:14.877Z</time></trkpt><trkpt lat="43.7581146" lon="7.4358866"><ele>342.0</ele><time>2026-05-01T14:32:15.877Z</time></trkpt><trkpt lat="43.7581408" lon="7.4357768"><ele>340.0</ele><time>2026-05-01T14:32:16.877Z</time></trkpt><trkpt lat="43.7582444" lon="7.4356315"><ele>338.0</ele><time>2026-05-01T14:32:17.877Z</time></trkpt><trkpt lat="43.7583048" lon="7.4355164"><ele>336.0</ele><time>2026-05-01T14:32:18.877Z</time></trkpt><trkpt lat="43.7583561" lon="7.4354232"><ele>334.0</ele><time>2026-05-01T14:32:19.877Z</time></trkpt><trkpt lat="43.7583895" lon="7.4352642"><ele>334.0</ele><time>2026-05-01T14:32:20.877Z</time></trkpt><trkpt lat="43.7583999" lon="7.4351071"><ele>334.0</ele><time>2026-05-01T14:32:21.877Z</time></trkpt><trkpt lat="43.7583944" lon="7.4348823"><ele>334.0</ele><time>2026-05-01T14:32:22.877Z</time></trkpt><trkpt lat="43.758379" lon="7.4347147"><ele>334.0</ele><time>2026-05-01T14:32:23.877Z</time></trkpt><trkpt lat="43.7583313" lon="7.4345965"><ele>342.0</ele><time>2026-05-01T14:32:24.877Z</time></trkpt><trkpt lat="43.7582867" lon="7.4344703"><ele>350.0</ele><time>2026-05-01T14:32:25.877Z</time></trkpt><trkpt lat="43.7581763" lon="7.4343284"><ele>358.0</ele><time>2026-05-01T14:32:26.877Z</time></trkpt><trkpt lat="43.7581552" lon="7.4341335"><ele>366.0</ele><time>2026-05-01T14:32:27.877Z</time></trkpt><trkpt lat="43.7580378" lon="7.4339716"><ele>375.75</ele><time>2026-05-01T14:32:28.877Z</time></trkpt><trkpt lat="43.758" lon="7.4337909"><ele>385.5</ele><time>2026-05-01T14:32:29.877Z</time></trkpt><trkpt lat="43.7579231" lon="7.4336415"><ele>395.25</ele><time>2026-05-01T14:32:30.877Z</time></trkpt><trkpt lat="43.7578492" lon="7.4335385"><ele>405.0</ele><time>2026-05-01T14:32:31.877Z</time></trkpt><trkpt lat="43.7577718" lon="7.4334367"><ele>387.6666666666667</ele><time>2026-05-01T14:32:32.877Z</time></trkpt><trkpt lat="43.757576" lon="7.4333667"><ele>370.33333333333337</ele><time>2026-05-01T14:32:33.877Z</time></trkpt><trkpt lat="43.7574477" lon="7.4332726"><ele>353.0</ele><time>2026-05-01T14:32:34.877Z</time></trkpt><trkpt lat="43.757345" lon="7.4331506"><ele>353.0</ele><time>2026-05-01T14:32:35.877Z</time></trkpt><trkpt lat="43.757229" lon="7.4330476"><ele>353.0</ele><time>2026-05-01T14:32:36.878Z</time></trkpt><trkpt lat="43.75709" lon="7.4329511"><ele>353.0</ele><time>2026-05-01T14:32:37.877Z</time></trkpt><trkpt lat="43.7569733" lon="7.4328459"><ele>353.0</ele><time>2026-05-01T14:32:38.877Z</time></trkpt><trkpt lat="43.756877" lon="7.4327069"><ele>348.75</ele><time>2026-05-01T14:32:39.878Z</time></trkpt><trkpt lat="43.7567931" lon="7.4326083"><ele>344.5</ele><time>2026-05-01T14:32:40.877Z</time></trkpt><trkpt lat="43.7567296" lon="7.4324994"><ele>340.25</ele><time>2026-05-01T14:32:41.877Z</time></trkpt><trkpt lat="43.7566929" lon="7.4323503"><ele>336.0</ele><time>2026-05-01T14:32:42.877Z</time></trkpt><trkpt lat="43.7567064" lon="7.4321768"><ele>333.3333333333333</ele><time>2026-05-01T14:32:43.877Z</time></trkpt><trkpt lat="43.7567646" lon="7.4320002"><ele>330.66666666666663</ele><time>2026-05-01T14:32:44.877Z</time></trkpt><trkpt lat="43.7568443" lon="7.4317809"><ele>328.0</ele><time>2026-05-01T14:32:45.877Z</time></trkpt><trkpt lat="43.7569556" lon="7.431545"><ele>337.0</ele><time>2026-05-01T14:32:46.877Z</time></trkpt><trkpt lat="43.7570311" lon="7.4313845"><ele>346.0</ele><time>2026-05-01T14:32:47.877Z</time></trkpt><trkpt lat="43.7571053" lon="7.4312157"><ele>355.0</ele><time>2026-05-01T14:32:48.877Z</time></trkpt><trkpt lat="43.7571464" lon="7.4310394"><ele>364.0</ele><time>2026-05-01T14:32:49.877Z</time></trkpt><trkpt lat="43.757208" lon="7.4308508"><ele>364.0</ele><time>2026-05-01T14:32:50.877Z</time></trkpt><trkpt lat="43.7572863" lon="7.4306167"><ele>364.0</ele><time>2026-05-01T14:32:51.877Z</time></trkpt><trkpt lat="43.757378" lon="7.4303907"><ele>364.0</ele><time>2026-05-01T14:32:52.877Z</time></trkpt><trkpt lat="43.757467" lon="7.4301158"><ele>357.66666666666663</ele><time>2026-05-01T14:32:53.877Z</time></trkpt><trkpt lat="43.7575652" lon="7.4299074"><ele>351.3333333333333</ele><time>2026-05-01T14:32:54.877Z</time></trkpt><trkpt lat="43.7575972" lon="7.42977"><ele>345.0</ele><time>2026-05-01T14:32:55.877Z</time></trkpt><trkpt lat="43.7576035" lon="7.4295182"><ele>345.0</ele><time>2026-05-01T14:32:56.877Z</time></trkpt><trkpt lat="43.757614" lon="7.4293889"><ele>345.0</ele><time>2026-05-01T14:32:57.877Z</time></trkpt><trkpt lat="43.7576098" lon="7.4292478"><ele>345.0</ele><time>2026-05-01T14:32:58.877Z</time></trkpt><trkpt lat="43.7576258" lon="7.4290717"><ele>345.0</ele><time>2026-05-01T14:32:59.877Z</time></trkpt><trkpt lat="43.757631" lon="7.4288637"><ele>352.6</ele><time>2026-05-01T14:33:00.877Z</time></trkpt><trkpt lat="43.7575996" lon="7.4286537"><ele>360.2</ele><time>2026-05-01T14:33:01.877Z</time></trkpt><trkpt lat="43.7575249" lon="7.4286304"><ele>367.79999999999995</ele><time>2026-05-01T14:33:02.877Z</time></trkpt><trkpt lat="43.7574782" lon="7.4285582"><ele>375.4</ele><time>2026-05-01T14:33:03.877Z</time></trkpt><trkpt lat="43.7574098" lon="7.428548"><ele>383.0</ele><time>2026-05-01T14:33:04.877Z</time></trkpt><trkpt lat="43.7573122" lon="7.4285546"><ele>383.0</ele><time>2026-05-01T14:33:05.878Z</time></trkpt><trkpt lat="43.7571741" lon="7.4285326"><ele>383.0</ele><time>2026-05-01T14:33:06.877Z</time></trkpt><trkpt lat="43.7570539" lon="7.4284567"><ele>383.0</ele><time>2026-05-01T14:33:07.877Z</time></trkpt><trkpt lat="43.7569231" lon="7.4284605"><ele>383.0</ele><time>2026-05-01T14:33:08.877Z</time></trkpt><trkpt lat="43.7567989" lon="7.4284473"><ele>387.33333333333337</ele><time>2026-05-01T14:33:09.877Z</time></trkpt><trkpt lat="43.7565597" lon="7.4284389"><ele>391.6666666666667</ele><time>2026-05-01T14:33:10.877Z</time></trkpt><trkpt lat="43.7564152" lon="7.4283333"><ele>396.0</ele><time>2026-05-01T14:33:11.877Z</time></trkpt><trkpt lat="43.7562827" lon="7.428194"><ele>396.0</ele><time>2026-05-01T14:33:12.877Z</time></trkpt><trkpt lat="43.7561346" lon="7.4280877"><ele>396.0</ele><time>2026-05-01T14:33:13.877Z</time></trkpt><trkpt lat="43.7559858" lon="7.4279583"><ele>396.0</ele><time>2026-05-01T14:33:14.877Z</time></trkpt><trkpt lat="43.7558643" lon="7.4278801"><ele>392.0</ele><time>2026-05-01T14:33:15.877Z</time></trkpt><trkpt lat="43.7557199" lon="7.4278258"><ele>388.0</ele><time>2026-05-01T14:33:16.877Z</time></trkpt><trkpt lat="43.7555253" lon="7.4279794"><ele>384.0</ele><time>2026-05-01T14:33:17.877Z</time></trkpt><trkpt lat="43.7553932" lon="7.4279606"><ele>382.0</ele><time>2026-05-01T14:33:18.878Z</time></trkpt><trkpt lat="43.7553041" lon="7.4279354"><ele>380.0</ele><time>2026-05-01T14:33:19.877Z</time></trkpt><trkpt lat="43.7552536" lon="7.4278577"><ele>378.0</ele><time>2026-05-01T14:33:20.877Z</time></trkpt><trkpt lat="43.7551022" lon="7.4279038"><ele>376.0</ele><time>2026-05-01T14:33:21.879Z</time></trkpt><trkpt lat="43.7550389" lon="7.4278182"><ele>374.0</ele><time>2026-05-01T14:33:22.877Z</time></trkpt><trkpt lat="43.7549878" lon="7.4276766"><ele>374.0</ele><time>2026-05-01T14:33:23.876Z</time></trkpt><trkpt lat="43.7549429" lon="7.4275612"><ele>374.0</ele><time>2026-05-01T14:33:24.878Z</time></trkpt><trkpt lat="43.7548709" lon="7.4272671"><ele>374.0</ele><time>2026-05-01T14:33:25.877Z</time></trkpt><trkpt lat="43.7548509" lon="7.427094"><ele>374.0</ele><time>2026-05-01T14:33:26.876Z</time></trkpt><trkpt lat="43.754763" lon="7.4268974"><ele>377.25</ele><time>2026-05-01T14:33:27.876Z</time></trkpt><trkpt lat="43.754698" lon="7.4267169"><ele>380.5</ele><time>2026-05-01T14:33:28.876Z</time></trkpt><trkpt lat="43.7546172" lon="7.4265504"><ele>383.75</ele><time>2026-05-01T14:33:29.876Z</time></trkpt><trkpt lat="43.7545014" lon="7.4264089"><ele>387.0</ele><time>2026-05-01T14:33:30.876Z</time></trkpt><trkpt lat="43.7544042" lon="7.4262076"><ele>377.5</ele><time>2026-05-01T14:33:31.876Z</time></trkpt><trkpt lat="43.7543491" lon="7.4260787"><ele>368.0</ele><time>2026-05-01T14:33:32.876Z</time></trkpt><trkpt lat="43.7542922" lon="7.425933"><ele>358.5</ele><time>2026-05-01T14:33:33.877Z</time></trkpt><trkpt lat="43.7542614" lon="7.4257846"><ele>349.0</ele><time>2026-05-01T14:33:34.876Z</time></trkpt><trkpt lat="43.7543384" lon="7.4256681"><ele>358.75</ele><time>2026-05-01T14:33:35.876Z</time></trkpt><trkpt lat="43.7543958" lon="7.425528"><ele>368.5</ele><time>2026-05-01T14:33:36.876Z</time></trkpt><trkpt lat="43.7544564" lon="7.4253887"><ele>378.25</ele><time>2026-05-01T14:33:37.876Z</time></trkpt><trkpt lat="43.7544918" lon="7.425283"><ele>388.0</ele><time>2026-05-01T14:33:38.876Z</time></trkpt><trkpt lat="43.7545956" lon="7.4250944"><ele>388.0</ele><time>2026-05-01T14:33:39.876Z</time></trkpt><trkpt lat="43.754719" lon="7.4250258"><ele>388.0</ele><time>2026-05-01T14:33:40.876Z</time></trkpt><trkpt lat="43.7548453" lon="7.4249188"><ele>388.0</ele><time>2026-05-01T14:33:41.876Z</time></trkpt><trkpt lat="43.7549838" lon="7.4247977"><ele>388.0</ele><time>2026-05-01T14:33:42.876Z</time></trkpt><trkpt lat="43.7550719" lon="7.4246588"><ele>388.79999999999995</ele><time>2026-05-01T14:33:43.876Z</time></trkpt><trkpt lat="43.7551511" lon="7.4245441"><ele>389.6</ele><time>2026-05-01T14:33:44.876Z</time></trkpt><trkpt lat="43.7552073" lon="7.4244427"><ele>390.4</ele><time>2026-05-01T14:33:45.876Z</time></trkpt><trkpt lat="43.7552808" lon="7.4243494"><ele>391.20000000000005</ele><time>2026-05-01T14:33:46.876Z</time></trkpt><trkpt lat="43.7553741" lon="7.4242673"><ele>392.0</ele><time>2026-05-01T14:33:47.876Z</time></trkpt><trkpt lat="43.7554407" lon="7.4242172"><ele>392.0</ele><time>2026-05-01T14:33:48.876Z</time></trkpt><trkpt lat="43.7555403" lon="7.4241513"><ele>392.0</ele><time>2026-05-01T14:33:49.876Z</time></trkpt><trkpt lat="43.7556704" lon="7.4240797"><ele>392.0</ele><time>2026-05-01T14:33:50.876Z</time></trkpt><trkpt lat="43.7557892" lon="7.4240498"><ele>392.0</ele><time>2026-05-01T14:33:51.876Z</time></trkpt><trkpt lat="43.7559099" lon="7.4240132"><ele>392.0</ele><time>2026-05-01T14:33:52.876Z</time></trkpt><trkpt lat="43.7559941" lon="7.4240017"><ele>392.0</ele><time>2026-05-01T14:33:53.876Z</time></trkpt><trkpt lat="43.7560723" lon="7.4239903"><ele>392.0</ele><time>2026-05-01T14:33:54.876Z</time></trkpt><trkpt lat="43.7561847" lon="7.4239387"><ele>392.0</ele><time>2026-05-01T14:33:55.877Z</time></trkpt><trkpt lat="43.7562781" lon="7.4239667"><ele>392.0</ele><time>2026-05-01T14:33:57.876Z</time></trkpt><trkpt lat="43.7563404" lon="7.4238486"><ele>400.5</ele><time>2026-05-01T14:33:59.876Z</time></trkpt><trkpt lat="43.7563234" lon="7.4236809"><ele>409.0</ele><time>2026-05-01T14:34:01.876Z</time></trkpt><trkpt lat="43.7562935" lon="7.4235571"><ele>417.5</ele><time>2026-05-01T14:34:02.876Z</time></trkpt><trkpt lat="43.7562366" lon="7.4234422"><ele>426.0</ele><time>2026-05-01T14:34:03.876Z</time></trkpt><trkpt lat="43.756068" lon="7.423186"><ele>422.66666666666663</ele><time>2026-05-01T14:34:04.876Z</time></trkpt><trkpt lat="43.7559757" lon="7.4230568"><ele>419.3333333333333</ele><time>2026-05-01T14:34:05.876Z</time></trkpt><trkpt lat="43.7558792" lon="7.422913"><ele>416.0</ele><time>2026-05-01T14:34:06.877Z</time></trkpt><trkpt lat="43.7557481" lon="7.42267"><ele>416.0</ele><time>2026-05-01T14:34:07.876Z</time></trkpt><trkpt lat="43.7556545" lon="7.4225328"><ele>416.0</ele><time>2026-05-01T14:34:08.876Z</time></trkpt><trkpt lat="43.7555166" lon="7.422417"><ele>416.0</ele><time>2026-05-01T14:34:09.876Z</time></trkpt><trkpt lat="43.7554053" lon="7.4223552"><ele>416.0</ele><time>2026-05-01T14:34:10.876Z</time></trkpt><trkpt lat="43.7552879" lon="7.4223003"><ele>417.25</ele><time>2026-05-01T14:34:11.877Z</time></trkpt><trkpt lat="43.7551622" lon="7.4221932"><ele>418.5</ele><time>2026-05-01T14:34:12.876Z</time></trkpt><trkpt lat="43.7550397" lon="7.4221665"><ele>419.75</ele><time>2026-05-01T14:34:13.876Z</time></trkpt><trkpt lat="43.75496" lon="7.4221163"><ele>421.0</ele><time>2026-05-01T14:34:14.876Z</time></trkpt><trkpt lat="43.754878" lon="7.4220513"><ele>421.0</ele><time>2026-05-01T14:34:15.876Z</time></trkpt><trkpt lat="43.7547838" lon="7.4220096"><ele>421.0</ele><time>2026-05-01T14:34:16.876Z</time></trkpt><trkpt lat="43.7546717" lon="7.4219331"><ele>421.0</ele><time>2026-05-01T14:34:17.877Z</time></trkpt><trkpt lat="43.7545454" lon="7.4218856"><ele>421.0</ele><time>2026-05-01T14:34:18.876Z</time></trkpt><trkpt lat="43.7544917" lon="7.4217835"><ele>421.0</ele><time>2026-05-01T14:34:19.876Z</time></trkpt><trkpt lat="43.7543638" lon="7.4217317"><ele>416.8</ele><time>2026-05-01T14:34:20.876Z</time></trkpt><trkpt lat="43.7542732" lon="7.4216917"><ele>412.6</ele><time>2026-05-01T14:34:21.876Z</time></trkpt><trkpt lat="43.7541818" lon="7.4216645"><ele>408.4</ele><time>2026-05-01T14:34:22.876Z</time></trkpt><trkpt lat="43.7540738" lon="7.4216126"><ele>404.2</ele><time>2026-05-01T14:34:23.876Z</time></trkpt><trkpt lat="43.7539949" lon="7.4215376"><ele>400.0</ele><time>2026-05-01T14:34:24.876Z</time></trkpt><trkpt lat="43.7538931" lon="7.4215013"><ele>400.0</ele><time>2026-05-01T14:34:25.876Z</time></trkpt><trkpt lat="43.7538007" lon="7.4214556"><ele>400.0</ele><time>2026-05-01T14:34:26.876Z</time></trkpt><trkpt lat="43.7537261" lon="7.4213703"><ele>400.0</ele><time>2026-05-01T14:34:27.876Z</time></trkpt><trkpt lat="43.753632" lon="7.4212931"><ele>400.0</ele><time>2026-05-01T14:34:28.876Z</time></trkpt><trkpt lat="43.7535718" lon="7.421199"><ele>400.0</ele><time>2026-05-01T14:34:29.876Z</time></trkpt><trkpt lat="43.7534965" lon="7.4211259"><ele>401.2</ele><time>2026-05-01T14:34:30.876Z</time></trkpt><trkpt lat="43.7534201" lon="7.4210134"><ele>402.4</ele><time>2026-05-01T14:34:31.876Z</time></trkpt><trkpt lat="43.7533693" lon="7.4209007"><ele>403.6</ele><time>2026-05-01T14:34:32.876Z</time></trkpt><trkpt lat="43.7533038" lon="7.420822"><ele>404.8</ele><time>2026-05-01T14:34:33.876Z</time></trkpt><trkpt lat="43.7532156" lon="7.4207286"><ele>406.0</ele><time>2026-05-01T14:34:34.876Z</time></trkpt><trkpt lat="43.7531578" lon="7.4205979"><ele>406.0</ele><time>2026-05-01T14:34:35.876Z</time></trkpt><trkpt lat="43.7530609" lon="7.4205199"><ele>406.0</ele><time>2026-05-01T14:34:36.876Z</time></trkpt><trkpt lat="43.7529693" lon="7.4204625"><ele>406.0</ele><time>2026-05-01T14:34:37.876Z</time></trkpt><trkpt lat="43.7528921" lon="7.4203893"><ele>406.0</ele><time>2026-05-01T14:34:38.876Z</time></trkpt><trkpt lat="43.7527756" lon="7.4202996"><ele>406.0</ele><time>2026-05-01T14:34:40.876Z</time></trkpt><trkpt lat="43.7526586" lon="7.4201893"><ele>405.8</ele><time>2026-05-01T14:34:41.876Z</time></trkpt><trkpt lat="43.7525764" lon="7.4201084"><ele>405.6</ele><time>2026-05-01T14:34:42.876Z</time></trkpt><trkpt lat="43.7524962" lon="7.4200085"><ele>405.4</ele><time>2026-05-01T14:34:43.876Z</time></trkpt><trkpt lat="43.7524535" lon="7.4199228"><ele>405.2</ele><time>2026-05-01T14:34:44.876Z</time></trkpt><trkpt lat="43.7524234" lon="7.4197992"><ele>405.0</ele><time>2026-05-01T14:34:45.876Z</time></trkpt><trkpt lat="43.7523959" lon="7.4196411"><ele>405.3333333333333</ele><time>2026-05-01T14:34:46.876Z</time></trkpt><trkpt lat="43.7523832" lon="7.4195434"><ele>405.66666666666663</ele><time>2026-05-01T14:34:47.876Z</time></trkpt><trkpt lat="43.7523644" lon="7.4194375"><ele>406.0</ele><time>2026-05-01T14:34:49.876Z</time></trkpt><trkpt lat="43.7523974" lon="7.4192365"><ele>406.3333333333333</ele><time>2026-05-01T14:34:51.877Z</time></trkpt><trkpt lat="43.7524325" lon="7.4191579"><ele>406.66666666666663</ele><time>2026-05-01T14:34:52.876Z</time></trkpt><trkpt lat="43.7524643" lon="7.4190536"><ele>407.0</ele><time>2026-05-01T14:34:53.876Z</time></trkpt><trkpt lat="43.7525327" lon="7.4189671"><ele>407.0</ele><time>2026-05-01T14:34:54.876Z</time></trkpt><trkpt lat="43.7526395" lon="7.4188192"><ele>407.0</ele><time>2026-05-01T14:34:55.876Z</time></trkpt><trkpt lat="43.7526932" lon="7.4186915"><ele>407.0</ele><time>2026-05-01T14:34:56.876Z</time></trkpt><trkpt lat="43.7527572" lon="7.4185705"><ele>407.0</ele><time>2026-05-01T14:34:57.876Z</time></trkpt><trkpt lat="43.7527909" lon="7.4184236"><ele>408.6</ele><time>2026-05-01T14:34:58.876Z</time></trkpt><trkpt lat="43.7527574" lon="7.4182413"><ele>410.20000000000005</ele><time>2026-05-01T14:34:59.876Z</time></trkpt><trkpt lat="43.7527473" lon="7.4181078"><ele>411.8</ele><time>2026-05-01T14:35:00.876Z</time></trkpt><trkpt lat="43.7527067" lon="7.4179448"><ele>413.4</ele><time>2026-05-01T14:35:01.877Z</time></trkpt><trkpt lat="43.7527059" lon="7.4178297"><ele>415.0</ele><time>2026-05-01T14:35:02.876Z</time></trkpt><trkpt lat="43.7526506" lon="7.4176883"><ele>415.0</ele><time>2026-05-01T14:35:03.876Z</time></trkpt><trkpt lat="43.7525866" lon="7.4175812"><ele>415.0</ele><time>2026-05-01T14:35:04.876Z</time></trkpt><trkpt lat="43.7524913" lon="7.4174717"><ele>415.0</ele><time>2026-05-01T14:35:06.876Z</time></trkpt><trkpt lat="43.7524154" lon="7.4173805"><ele>415.0</ele><time>2026-05-01T14:35:07.876Z</time></trkpt><trkpt lat="43.7523114" lon="7.4172828"><ele>415.0</ele><time>2026-05-01T14:35:08.876Z</time></trkpt><trkpt lat="43.7522516" lon="7.4172065"><ele>415.0</ele><time>2026-05-01T14:35:09.876Z</time></trkpt><trkpt lat="43.7521611" lon="7.4171316"><ele>415.0</ele><time>2026-05-01T14:35:10.877Z</time></trkpt><trkpt lat="43.752066" lon="7.4170212"><ele>415.0</ele><time>2026-05-01T14:35:11.876Z</time></trkpt><trkpt lat="43.751999" lon="7.4169155"><ele>415.0</ele><time>2026-05-01T14:35:12.876Z</time></trkpt><trkpt lat="43.7519311" lon="7.4167647"><ele>414.2</ele><time>2026-05-01T14:35:13.876Z</time></trkpt><trkpt lat="43.7518612" lon="7.4166361"><ele>413.4</ele><time>2026-05-01T14:35:14.876Z</time></trkpt><trkpt lat="43.7518098" lon="7.4165008"><ele>412.6</ele><time>2026-05-01T14:35:15.876Z</time></trkpt><trkpt lat="43.7517585" lon="7.4163818"><ele>411.8</ele><time>2026-05-01T14:35:16.876Z</time></trkpt><trkpt lat="43.7517365" lon="7.4162185"><ele>411.0</ele><time>2026-05-01T14:35:17.876Z</time></trkpt><trkpt lat="43.7517195" lon="7.4160686"><ele>414.75</ele><time>2026-05-01T14:35:18.876Z</time></trkpt><trkpt lat="43.7516879" lon="7.4158907"><ele>418.5</ele><time>2026-05-01T14:35:19.876Z</time></trkpt><trkpt lat="43.7516514" lon="7.4157137"><ele>422.25</ele><time>2026-05-01T14:35:20.876Z</time></trkpt><trkpt lat="43.7516303" lon="7.4155397"><ele>426.0</ele><time>2026-05-01T14:35:21.876Z</time></trkpt><trkpt lat="43.7515989" lon="7.415396"><ele>428.0</ele><time>2026-05-01T14:35:22.876Z</time></trkpt><trkpt lat="43.7515558" lon="7.4152588"><ele>430.0</ele><time>2026-05-01T14:35:23.876Z</time></trkpt><trkpt lat="43.7515064" lon="7.4151543"><ele>432.0</ele><time>2026-05-01T14:35:24.876Z</time></trkpt><trkpt lat="43.751455" lon="7.4150643"><ele>434.0</ele><time>2026-05-01T14:35:25.876Z</time></trkpt><trkpt lat="43.7513959" lon="7.4149401"><ele>436.0</ele><time>2026-05-01T14:35:26.877Z</time></trkpt><trkpt lat="43.751358" lon="7.4148318"><ele>436.0</ele><time>2026-05-01T14:35:27.876Z</time></trkpt><trkpt lat="43.7513035" lon="7.4147303"><ele>436.0</ele><time>2026-05-01T14:35:28.876Z</time></trkpt><trkpt lat="43.7512689" lon="7.4146094"><ele>436.0</ele><time>2026-05-01T14:35:29.876Z</time></trkpt><trkpt lat="43.7512275" lon="7.4144808"><ele>436.0</ele><time>2026-05-01T14:35:30.876Z</time></trkpt><trkpt lat="43.7511532" lon="7.4143366"><ele>436.0</ele><time>2026-05-01T14:35:31.876Z</time></trkpt><trkpt lat="43.7510902" lon="7.4141817"><ele>434.6</ele><time>2026-05-01T14:35:32.877Z</time></trkpt><trkpt lat="43.7510684" lon="7.4140817"><ele>433.20000000000005</ele><time>2026-05-01T14:35:33.877Z</time></trkpt><trkpt lat="43.7510707" lon="7.4139228"><ele>431.79999999999995</ele><time>2026-05-01T14:35:34.876Z</time></trkpt><trkpt lat="43.7510255" lon="7.4137624"><ele>430.4</ele><time>2026-05-01T14:35:35.876Z</time></trkpt><trkpt lat="43.7509888" lon="7.4136568"><ele>429.0</ele><time>2026-05-01T14:35:36.876Z</time></trkpt><trkpt lat="43.7509574" lon="7.4135151"><ele>429.0</ele><time>2026-05-01T14:35:37.876Z</time></trkpt><trkpt lat="43.7509175" lon="7.4134346"><ele>429.0</ele><time>2026-05-01T14:35:38.876Z</time></trkpt><trkpt lat="43.7509122" lon="7.4133229"><ele>429.0</ele><time>2026-05-01T14:35:39.876Z</time></trkpt><trkpt lat="43.7508872" lon="7.4132282"><ele>429.0</ele><time>2026-05-01T14:35:40.876Z</time></trkpt><trkpt lat="43.7509599" lon="7.4130938"><ele>429.0</ele><time>2026-05-01T14:35:42.876Z</time></trkpt><trkpt lat="43.7509591" lon="7.4130057"><ele>429.0</ele><time>2026-05-01T14:35:43.876Z</time></trkpt><trkpt lat="43.7509687" lon="7.4129135"><ele>430.6666666666667</ele><time>2026-05-01T14:35:44.876Z</time></trkpt><trkpt lat="43.7509033" lon="7.4127825"><ele>432.33333333333337</ele><time>2026-05-01T14:35:46.876Z</time></trkpt><trkpt lat="43.7508353" lon="7.4127325"><ele>434.0</ele><time>2026-05-01T14:35:47.876Z</time></trkpt><trkpt lat="43.7507976" lon="7.4126577"><ele>435.6666666666667</ele><time>2026-05-01T14:35:48.876Z</time></trkpt><trkpt lat="43.7507744" lon="7.4125554"><ele>437.33333333333337</ele><time>2026-05-01T14:35:49.876Z</time></trkpt><trkpt lat="43.7506999" lon="7.4124554"><ele>439.0</ele><time>2026-05-01T14:35:51.876Z</time></trkpt><trkpt lat="43.7506565" lon="7.4123836"><ele>439.0</ele><time>2026-05-01T14:35:52.876Z</time></trkpt><trkpt lat="43.7506443" lon="7.4122899"><ele>439.0</ele><time>2026-05-01T14:35:53.876Z</time></trkpt><trkpt lat="43.7506065" lon="7.4121403"><ele>439.0</ele><time>2026-05-01T14:35:55.876Z</time></trkpt><trkpt lat="43.7505639" lon="7.4120327"><ele>439.0</ele><time>2026-05-01T14:35:56.876Z</time></trkpt><trkpt lat="43.7505246" lon="7.4118694"><ele>439.0</ele><time>2026-05-01T14:35:57.876Z</time></trkpt><trkpt lat="43.7504328" lon="7.4116861"><ele>438.0</ele><time>2026-05-01T14:35:58.876Z</time></trkpt><trkpt lat="43.7503887" lon="7.411557"><ele>437.0</ele><time>2026-05-01T14:35:59.876Z</time></trkpt><trkpt lat="43.7502938" lon="7.4114169"><ele>436.0</ele><time>2026-05-01T14:36:00.876Z</time></trkpt><trkpt lat="43.7502227" lon="7.4112674"><ele>435.0</ele><time>2026-05-01T14:36:01.876Z</time></trkpt><trkpt lat="43.7501756" lon="7.411134"><ele>435.0</ele><time>2026-05-01T14:36:02.876Z</time></trkpt><trkpt lat="43.7500975" lon="7.411013"><ele>435.0</ele><time>2026-05-01T14:36:03.876Z</time></trkpt><trkpt lat="43.7500001" lon="7.4109145"><ele>435.0</ele><time>2026-05-01T14:36:04.876Z</time></trkpt><trkpt lat="43.7499545" lon="7.4107712"><ele>435.0</ele><time>2026-05-01T14:36:05.876Z</time></trkpt><trkpt lat="43.7498963" lon="7.4106556"><ele>435.0</ele><time>2026-05-01T14:36:06.876Z</time></trkpt><trkpt lat="43.7498304" lon="7.4105344"><ele>435.0</ele><time>2026-05-01T14:36:07.876Z</time></trkpt><trkpt lat="43.7497994" lon="7.4103657"><ele>435.0</ele><time>2026-05-01T14:36:08.876Z</time></trkpt><trkpt lat="43.7497494" lon="7.4102576"><ele>435.0</ele><time>2026-05-01T14:36:09.876Z</time></trkpt><trkpt lat="43.7497252" lon="7.4101266"><ele>435.0</ele><time>2026-05-01T14:36:10.876Z</time></trkpt><trkpt lat="43.7496926" lon="7.4099658"><ele>436.8</ele><time>2026-05-01T14:36:12.876Z</time></trkpt><trkpt lat="43.7496918" lon="7.4098208"><ele>438.6</ele><time>2026-05-01T14:36:13.876Z</time></trkpt><trkpt lat="43.7496559" lon="7.4097179"><ele>440.4</ele><time>2026-05-01T14:36:14.876Z</time></trkpt><trkpt lat="43.7496555" lon="7.4096012"><ele>442.2</ele><time>2026-05-01T14:36:15.876Z</time></trkpt><trkpt lat="43.7496417" lon="7.4094302"><ele>444.0</ele><time>2026-05-01T14:36:17.876Z</time></trkpt><trkpt lat="43.7496403" lon="7.4093201"><ele>445.25</ele><time>2026-05-01T14:36:18.876Z</time></trkpt><trkpt lat="43.7496427" lon="7.4092065"><ele>446.5</ele><time>2026-05-01T14:36:19.876Z</time></trkpt><trkpt lat="43.7496498" lon="7.4089701"><ele>447.75</ele><time>2026-05-01T14:36:21.876Z</time></trkpt><trkpt lat="43.749634" lon="7.4088067"><ele>449.0</ele><time>2026-05-01T14:36:22.876Z</time></trkpt><trkpt lat="43.7496276" lon="7.4086282"><ele>449.66666666666663</ele><time>2026-05-01T14:36:23.876Z</time></trkpt><trkpt lat="43.7496105" lon="7.4085144"><ele>450.3333333333333</ele><time>2026-05-01T14:36:24.876Z</time></trkpt><trkpt lat="43.7496387" lon="7.4084337"><ele>451.0</ele><time>2026-05-01T14:36:25.876Z</time></trkpt><trkpt lat="43.7496321" lon="7.4082286"><ele>451.66666666666663</ele><time>2026-05-01T14:36:27.876Z</time></trkpt><trkpt lat="43.7496574" lon="7.4081486"><ele>452.3333333333333</ele><time>2026-05-01T14:36:28.876Z</time></trkpt><trkpt lat="43.7496676" lon="7.4080376"><ele>453.0</ele><time>2026-05-01T14:36:29.876Z</time></trkpt><trkpt lat="43.7496557" lon="7.4079395"><ele>453.0</ele><time>2026-05-01T14:36:30.876Z</time></trkpt><trkpt lat="43.7496641" lon="7.4077713"><ele>453.0</ele><time>2026-05-01T14:36:33.876Z</time></trkpt><trkpt lat="43.7497666" lon="7.4074899"><ele>453.0</ele><time>2026-05-01T14:36:35.876Z</time></trkpt><trkpt lat="43.7498139" lon="7.4073561"><ele>453.0</ele><time>2026-05-01T14:36:36.876Z</time></trkpt><trkpt lat="43.7498849" lon="7.4072566"><ele>452.99999999999994</ele><time>2026-05-01T14:36:37.876Z</time></trkpt><trkpt lat="43.7500069" lon="7.4072236"><ele>452.99999999999994</ele><time>2026-05-01T14:36:38.876Z</time></trkpt><trkpt lat="43.7500944" lon="7.4071541"><ele>453.0</ele><time>2026-05-01T14:36:39.876Z</time></trkpt><trkpt lat="43.7501731" lon="7.4071161"><ele>453.0</ele><time>2026-05-01T14:36:40.876Z</time></trkpt><trkpt lat="43.750257" lon="7.4070521"><ele>457.2</ele><time>2026-05-01T14:36:41.876Z</time></trkpt><trkpt lat="43.7503132" lon="7.4069337"><ele>461.4</ele><time>2026-05-01T14:36:42.876Z</time></trkpt><trkpt lat="43.7503785" lon="7.4068238"><ele>465.59999999999997</ele><time>2026-05-01T14:36:43.876Z</time></trkpt><trkpt lat="43.7504158" lon="7.4066732"><ele>469.79999999999995</ele><time>2026-05-01T14:36:44.876Z</time></trkpt><trkpt lat="43.7504383" lon="7.4065462"><ele>474.0</ele><time>2026-05-01T14:36:45.876Z</time></trkpt><trkpt lat="43.7504732" lon="7.4064227"><ele>474.0</ele><time>2026-05-01T14:36:46.876Z</time></trkpt><trkpt lat="43.7505159" lon="7.4063326"><ele>474.0</ele><time>2026-05-01T14:36:47.876Z</time></trkpt><trkpt lat="43.7505603" lon="7.4061753"><ele>474.0</ele><time>2026-05-01T14:36:48.876Z</time></trkpt><trkpt lat="43.7505753" lon="7.4060412"><ele>474.0</ele><time>2026-05-01T14:36:49.876Z</time></trkpt><trkpt lat="43.7506196" lon="7.4058791"><ele>474.0</ele><time>2026-05-01T14:36:50.876Z</time></trkpt><trkpt lat="43.750641" lon="7.4057954"><ele>473.0</ele><time>2026-05-01T14:36:51.876Z</time></trkpt><trkpt lat="43.7506741" lon="7.4056351"><ele>472.0</ele><time>2026-05-01T14:36:52.876Z</time></trkpt><trkpt lat="43.7506865" lon="7.4054811"><ele>471.0</ele><time>2026-05-01T14:36:53.876Z</time></trkpt><trkpt lat="43.7507073" lon="7.4053663"><ele>470.0</ele><time>2026-05-01T14:36:54.876Z</time></trkpt><trkpt lat="43.7507246" lon="7.4052722"><ele>469.0</ele><time>2026-05-01T14:36:55.876Z</time></trkpt><trkpt lat="43.7507855" lon="7.405162"><ele>471.50000000000006</ele><time>2026-05-01T14:36:56.876Z</time></trkpt><trkpt lat="43.7508443" lon="7.4050987"><ele>474.0</ele><time>2026-05-01T14:36:57.876Z</time></trkpt><trkpt lat="43.7509023" lon="7.4050397"><ele>476.5</ele><time>2026-05-01T14:36:58.876Z</time></trkpt><trkpt lat="43.7509772" lon="7.4049779"><ele>479.0</ele><time>2026-05-01T14:36:59.876Z</time></trkpt><trkpt lat="43.7510724" lon="7.404903"><ele>481.50000000000006</ele><time>2026-05-01T14:37:00.876Z</time></trkpt><trkpt lat="43.7511385" lon="7.4048254"><ele>484.0</ele><time>2026-05-01T14:37:01.876Z</time></trkpt><trkpt lat="43.7512008" lon="7.4046743"><ele>484.0</ele><time>2026-05-01T14:37:02.876Z</time></trkpt><trkpt lat="43.7512197" lon="7.4045531"><ele>484.0</ele><time>2026-05-01T14:37:03.876Z</time></trkpt><trkpt lat="43.7512229" lon="7.404408"><ele>484.0</ele><time>2026-05-01T14:37:04.876Z</time></trkpt><trkpt lat="43.7512013" lon="7.4042841"><ele>484.0</ele><time>2026-05-01T14:37:05.876Z</time></trkpt><trkpt lat="43.7511972" lon="7.40419"><ele>484.0</ele><time>2026-05-01T14:37:06.876Z</time></trkpt><trkpt lat="43.7511291" lon="7.4040511"><ele>484.00000000000006</ele><time>2026-05-01T14:37:07.876Z</time></trkpt><trkpt lat="43.7510761" lon="7.4039593"><ele>484.0</ele><time>2026-05-01T14:37:08.876Z</time></trkpt><trkpt lat="43.7510453" lon="7.4038503"><ele>484.0</ele><time>2026-05-01T14:37:09.876Z</time></trkpt><trkpt lat="43.7510074" lon="7.4037589"><ele>484.0</ele><time>2026-05-01T14:37:10.876Z</time></trkpt><trkpt lat="43.7509609" lon="7.4036886"><ele>484.00000000000006</ele><time>2026-05-01T14:37:11.876Z</time></trkpt><trkpt lat="43.7509027" lon="7.4035302"><ele>484.0</ele><time>2026-05-01T14:37:13.876Z</time></trkpt><trkpt lat="43.7508575" lon="7.4034129"><ele>481.0</ele><time>2026-05-01T14:37:14.876Z</time></trkpt><trkpt lat="43.7507967" lon="7.4033226"><ele>478.0</ele><time>2026-05-01T14:37:15.876Z</time></trkpt><trkpt lat="43.7506939" lon="7.4030961"><ele>475.0</ele><time>2026-05-01T14:37:17.876Z</time></trkpt><trkpt lat="43.7506075" lon="7.4029584"><ele>472.0</ele><time>2026-05-01T14:37:18.876Z</time></trkpt><trkpt lat="43.7505134" lon="7.4029327"><ele>474.20000000000005</ele><time>2026-05-01T14:37:19.876Z</time></trkpt><trkpt lat="43.7504621" lon="7.402877"><ele>476.40000000000003</ele><time>2026-05-01T14:37:20.876Z</time></trkpt><trkpt lat="43.7503795" lon="7.402834"><ele>478.59999999999997</ele><time>2026-05-01T14:37:21.876Z</time></trkpt><trkpt lat="43.7502799" lon="7.4028443"><ele>480.79999999999995</ele><time>2026-05-01T14:37:23.876Z</time></trkpt><trkpt lat="43.7501872" lon="7.4028443"><ele>483.0</ele><time>2026-05-01T14:37:24.876Z</time></trkpt><trkpt lat="43.7500562" lon="7.4028864"><ele>483.0</ele><time>2026-05-01T14:37:25.876Z</time></trkpt><trkpt lat="43.7499892" lon="7.4028852"><ele>483.0</ele><time>2026-05-01T14:37:26.876Z</time></trkpt><trkpt lat="43.7499256" lon="7.4029074"><ele>483.0</ele><time>2026-05-01T14:37:27.876Z</time></trkpt><trkpt lat="43.7498144" lon="7.4028703"><ele>483.0</ele><time>2026-05-01T14:37:29.876Z</time></trkpt><trkpt lat="43.7497345" lon="7.402859"><ele>483.0</ele><time>2026-05-01T14:37:30.876Z</time></trkpt><trkpt lat="43.7496659" lon="7.402822"><ele>483.0</ele><time>2026-05-01T14:37:31.876Z</time></trkpt><trkpt lat="43.7495987" lon="7.4028102"><ele>483.0</ele><time>2026-05-01T14:37:32.876Z</time></trkpt><trkpt lat="43.7495393" lon="7.4027662"><ele>482.99999999999994</ele><time>2026-05-01T14:37:33.876Z</time></trkpt><trkpt lat="43.7494398" lon="7.4027479"><ele>482.99999999999994</ele><time>2026-05-01T14:37:34.877Z</time></trkpt><trkpt lat="43.7493481" lon="7.4027122"><ele>483.0</ele><time>2026-05-01T14:37:35.876Z</time></trkpt><trkpt lat="43.7492279" lon="7.402645"><ele>483.0</ele><time>2026-05-01T14:37:36.876Z</time></trkpt><trkpt lat="43.7491383" lon="7.4026631"><ele>481.59999999999997</ele><time>2026-05-01T14:37:37.876Z</time></trkpt><trkpt lat="43.7490324" lon="7.4026815"><ele>480.19999999999993</ele><time>2026-05-01T14:37:38.876Z</time></trkpt><trkpt lat="43.7489652" lon="7.4026608"><ele>478.8</ele><time>2026-05-01T14:37:39.876Z</time></trkpt><trkpt lat="43.7488819" lon="7.4026228"><ele>477.4</ele><time>2026-05-01T14:37:41.877Z</time></trkpt><trkpt lat="43.7487856" lon="7.4026076"><ele>476.0</ele><time>2026-05-01T14:37:43.876Z</time></trkpt><trkpt lat="43.7486406" lon="7.4026078"><ele>476.0</ele><time>2026-05-01T14:37:44.876Z</time></trkpt><trkpt lat="43.7485614" lon="7.4025725"><ele>476.0</ele><time>2026-05-01T14:37:45.876Z</time></trkpt><trkpt lat="43.7485012" lon="7.4025321"><ele>476.0</ele><time>2026-05-01T14:37:46.876Z</time></trkpt><trkpt lat="43.748387" lon="7.4024688"><ele>476.0</ele><time>2026-05-01T14:37:48.876Z</time></trkpt><trkpt lat="43.7482868" lon="7.4023637"><ele>476.0</ele><time>2026-05-01T14:37:50.876Z</time></trkpt><trkpt lat="43.7482001" lon="7.4023057"><ele>475.5</ele><time>2026-05-01T14:37:51.876Z</time></trkpt><trkpt lat="43.7480641" lon="7.4022175"><ele>475.0</ele><time>2026-05-01T14:37:53.876Z</time></trkpt><trkpt lat="43.7479675" lon="7.402108"><ele>474.5</ele><time>2026-05-01T14:37:54.876Z</time></trkpt><trkpt lat="43.7478722" lon="7.4020424"><ele>474.0</ele><time>2026-05-01T14:37:55.876Z</time></trkpt><trkpt lat="43.7478111" lon="7.4019773"><ele>474.6666666666667</ele><time>2026-05-01T14:37:56.876Z</time></trkpt><trkpt lat="43.7477467" lon="7.4019448"><ele>475.33333333333337</ele><time>2026-05-01T14:37:57.876Z</time></trkpt><trkpt lat="43.7476646" lon="7.4018779"><ele>476.0</ele><time>2026-05-01T14:37:58.876Z</time></trkpt><trkpt lat="43.7475645" lon="7.4018106"><ele>476.6666666666667</ele><time>2026-05-01T14:37:59.876Z</time></trkpt><trkpt lat="43.7475031" lon="7.4017628"><ele>477.33333333333337</ele><time>2026-05-01T14:38:00.876Z</time></trkpt><trkpt lat="43.747431" lon="7.4016841"><ele>478.0</ele><time>2026-05-01T14:38:01.877Z</time></trkpt><trkpt lat="43.7473563" lon="7.4016536"><ele>478.00000000000006</ele><time>2026-05-01T14:38:02.876Z</time></trkpt><trkpt lat="43.7472958" lon="7.4015879"><ele>478.0</ele><time>2026-05-01T14:38:03.876Z</time></trkpt><trkpt lat="43.7472311" lon="7.4015373"><ele>478.0</ele><time>2026-05-01T14:38:06.876Z</time></trkpt><trkpt lat="43.7471579" lon="7.4015251"><ele>478.0</ele><time>2026-05-01T14:38:08.876Z</time></trkpt><trkpt lat="43.7470648" lon="7.4015554"><ele>478.00000000000006</ele><time>2026-05-01T14:38:09.876Z</time></trkpt><trkpt lat="43.7469978" lon="7.4015269"><ele>478.0</ele><time>2026-05-01T14:38:10.876Z</time></trkpt><trkpt lat="43.7468492" lon="7.4014437"><ele>479.1666666666667</ele><time>2026-05-01T14:38:12.876Z</time></trkpt><trkpt lat="43.746782" lon="7.4013219"><ele>480.33333333333337</ele><time>2026-05-01T14:38:14.876Z</time></trkpt><trkpt lat="43.7467322" lon="7.4012656"><ele>481.5</ele><time>2026-05-01T14:38:15.876Z</time></trkpt><trkpt lat="43.7466854" lon="7.4011995"><ele>482.66666666666663</ele><time>2026-05-01T14:38:16.876Z</time></trkpt><trkpt lat="43.7465975" lon="7.4010939"><ele>483.8333333333333</ele><time>2026-05-01T14:38:18.876Z</time></trkpt><trkpt lat="43.7465335" lon="7.401045"><ele>485.0</ele><time>2026-05-01T14:38:19.876Z</time></trkpt><trkpt lat="43.7463911" lon="7.4009657"><ele>484.99999999999994</ele><time>2026-05-01T14:38:21.876Z</time></trkpt><trkpt lat="43.746352" lon="7.4008824"><ele>485.0</ele><time>2026-05-01T14:38:23.876Z</time></trkpt><trkpt lat="43.746239" lon="7.4008863"><ele>485.0</ele><time>2026-05-01T14:38:25.876Z</time></trkpt><trkpt lat="43.7461605" lon="7.4008709"><ele>485.0</ele><time>2026-05-01T14:38:26.876Z</time></trkpt><trkpt lat="43.7460983" lon="7.4008316"><ele>484.99999999999994</ele><time>2026-05-01T14:38:28.877Z</time></trkpt><trkpt lat="43.7460358" lon="7.4007827"><ele>485.0</ele><time>2026-05-01T14:38:30.876Z</time></trkpt><trkpt lat="43.7459991" lon="7.400704"><ele>484.57142857142867</ele><time>2026-05-01T14:38:32.876Z</time></trkpt><trkpt lat="43.7459606" lon="7.4006346"><ele>484.14285714285717</ele><time>2026-05-01T14:38:35.876Z</time></trkpt><trkpt lat="43.7458934" lon="7.4006255"><ele>483.7142857142858</ele><time>2026-05-01T14:38:38.876Z</time></trkpt><trkpt lat="43.7458207" lon="7.4006076"><ele>483.28571428571433</ele><time>2026-05-01T14:38:43.876Z</time></trkpt><trkpt lat="43.7457905" lon="7.4005203"><ele>482.8571428571429</ele><time>2026-05-01T14:38:46.876Z</time></trkpt><trkpt lat="43.7457492" lon="7.4004189"><ele>482.42857142857144</ele><time>2026-05-01T14:38:49.876Z</time></trkpt><trkpt lat="43.7456903" lon="7.4003515"><ele>482.0</ele><time>2026-05-01T14:38:53.876Z</time></trkpt><trkpt lat="43.7456165" lon="7.4002917"><ele>483.20000000000005</ele><time>2026-05-01T14:38:56.876Z</time></trkpt><trkpt lat="43.745549" lon="7.4002186"><ele>484.40000000000003</ele><time>2026-05-01T14:38:58.877Z</time></trkpt><trkpt lat="43.7454651" lon="7.4000513"><ele>485.59999999999997</ele><time>2026-05-01T14:39:00.876Z</time></trkpt><trkpt lat="43.7454559" lon="7.3999622"><ele>486.79999999999995</ele><time>2026-05-01T14:39:01.876Z</time></trkpt><trkpt lat="43.7454686" lon="7.3998484"><ele>488.0</ele><time>2026-05-01T14:39:02.876Z</time></trkpt><trkpt lat="43.7454766" lon="7.3996921"><ele>488.16666666666663</ele><time>2026-05-01T14:39:03.876Z</time></trkpt><trkpt lat="43.7454422" lon="7.3995886"><ele>488.3333333333333</ele><time>2026-05-01T14:39:04.876Z</time></trkpt><trkpt lat="43.745433" lon="7.3994448"><ele>488.5</ele><time>2026-05-01T14:39:06.876Z</time></trkpt><trkpt lat="43.7454498" lon="7.3993314"><ele>488.66666666666663</ele><time>2026-05-01T14:39:07.877Z</time></trkpt><trkpt lat="43.7454356" lon="7.3992168"><ele>488.8333333333333</ele><time>2026-05-01T14:39:08.876Z</time></trkpt><trkpt lat="43.7454394" lon="7.3990999"><ele>489.0</ele><time>2026-05-01T14:39:09.876Z</time></trkpt><trkpt lat="43.7454212" lon="7.3990061"><ele>489.0</ele><time>2026-05-01T14:39:10.876Z</time></trkpt><trkpt lat="43.7454203" lon="7.3988669"><ele>489.0</ele><time>2026-05-01T14:39:12.877Z</time></trkpt><trkpt lat="43.7454763" lon="7.3987198"><ele>489.0</ele><time>2026-05-01T14:39:14.876Z</time></trkpt><trkpt lat="43.7455117" lon="7.3986276"><ele>489.0</ele><time>2026-05-01T14:39:15.876Z</time></trkpt><trkpt lat="43.7455444" lon="7.3985213"><ele>489.0</ele><time>2026-05-01T14:39:16.876Z</time></trkpt><trkpt lat="43.745586" lon="7.398403"><ele>487.79999999999995</ele><time>2026-05-01T14:39:17.876Z</time></trkpt><trkpt lat="43.745627" lon="7.3982892"><ele>486.59999999999997</ele><time>2026-05-01T14:39:18.876Z</time></trkpt><trkpt lat="43.7456703" lon="7.3981795"><ele>485.4</ele><time>2026-05-01T14:39:19.876Z</time></trkpt><trkpt lat="43.7457081" lon="7.3980595"><ele>484.2</ele><time>2026-05-01T14:39:20.876Z</time></trkpt><trkpt lat="43.7457503" lon="7.3979493"><ele>483.0</ele><time>2026-05-01T14:39:21.876Z</time></trkpt><trkpt lat="43.7457692" lon="7.3978238"><ele>482.0</ele><time>2026-05-01T14:39:22.876Z</time></trkpt><trkpt lat="43.7457718" lon="7.3977139"><ele>480.99999999999994</ele><time>2026-05-01T14:39:23.876Z</time></trkpt><trkpt lat="43.7458223" lon="7.3975746"><ele>479.99999999999994</ele><time>2026-05-01T14:39:24.877Z</time></trkpt><trkpt lat="43.7458388" lon="7.3974185"><ele>479.0</ele><time>2026-05-01T14:39:25.876Z</time></trkpt><trkpt lat="43.7458326" lon="7.397253"><ele>478.0</ele><time>2026-05-01T14:39:26.876Z</time></trkpt><trkpt lat="43.7457948" lon="7.397058"><ele>477.75</ele><time>2026-05-01T14:39:27.876Z</time></trkpt><trkpt lat="43.7457681" lon="7.3968731"><ele>477.5</ele><time>2026-05-01T14:39:28.877Z</time></trkpt><trkpt lat="43.7457456" lon="7.3966904"><ele>477.25</ele><time>2026-05-01T14:39:29.876Z</time></trkpt><trkpt lat="43.7457092" lon="7.3965368"><ele>477.0</ele><time>2026-05-01T14:39:30.876Z</time></trkpt><trkpt lat="43.7456603" lon="7.3963799"><ele>477.8</ele><time>2026-05-01T14:39:31.876Z</time></trkpt><trkpt lat="43.7456368" lon="7.3961985"><ele>478.6</ele><time>2026-05-01T14:39:32.877Z</time></trkpt><trkpt lat="43.7455805" lon="7.3960686"><ele>479.40000000000003</ele><time>2026-05-01T14:39:33.876Z</time></trkpt><trkpt lat="43.7455592" lon="7.3959329"><ele>480.20000000000005</ele><time>2026-05-01T14:39:34.876Z</time></trkpt><trkpt lat="43.7455691" lon="7.3958048"><ele>481.0</ele><time>2026-05-01T14:39:35.876Z</time></trkpt><trkpt lat="43.745537" lon="7.3956988"><ele>481.0</ele><time>2026-05-01T14:39:36.877Z</time></trkpt><trkpt lat="43.7454713" lon="7.3955836"><ele>481.0</ele><time>2026-05-01T14:39:37.876Z</time></trkpt><trkpt lat="43.7454274" lon="7.3954383"><ele>481.0</ele><time>2026-05-01T14:39:38.876Z</time></trkpt><trkpt lat="43.7453643" lon="7.3953472"><ele>481.0</ele><time>2026-05-01T14:39:39.876Z</time></trkpt><trkpt lat="43.7452798" lon="7.3952322"><ele>481.0</ele><time>2026-05-01T14:39:41.876Z</time></trkpt><trkpt lat="43.7452184" lon="7.3951412"><ele>477.0</ele><time>2026-05-01T14:39:42.876Z</time></trkpt><trkpt lat="43.7451043" lon="7.395037"><ele>473.0</ele><time>2026-05-01T14:39:44.876Z</time></trkpt><trkpt lat="43.7450438" lon="7.3949773"><ele>469.0</ele><time>2026-05-01T14:39:45.876Z</time></trkpt><trkpt lat="43.7450516" lon="7.3948539"><ele>465.0</ele><time>2026-05-01T14:39:46.876Z</time></trkpt><trkpt lat="43.7450073" lon="7.3947738"><ele>461.0</ele><time>2026-05-01T14:39:47.876Z</time></trkpt><trkpt lat="43.7449223" lon="7.394676"><ele>461.16666666666663</ele><time>2026-05-01T14:39:49.876Z</time></trkpt><trkpt lat="43.7448658" lon="7.3945656"><ele>461.3333333333333</ele><time>2026-05-01T14:39:51.877Z</time></trkpt><trkpt lat="43.7448676" lon="7.3944262"><ele>461.5</ele><time>2026-05-01T14:39:53.876Z</time></trkpt><trkpt lat="43.744829" lon="7.3943099"><ele>461.66666666666663</ele><time>2026-05-01T14:39:55.876Z</time></trkpt><trkpt lat="43.7447646" lon="7.3942564"><ele>461.8333333333333</ele><time>2026-05-01T14:39:56.876Z</time></trkpt><trkpt lat="43.7447" lon="7.3942461"><ele>462.0</ele><time>2026-05-01T14:39:57.876Z</time></trkpt><trkpt lat="43.7445991" lon="7.3942771"><ele>462.0</ele><time>2026-05-01T14:39:58.876Z</time></trkpt><trkpt lat="43.7445343" lon="7.3942462"><ele>462.00000000000006</ele><time>2026-05-01T14:39:59.876Z</time></trkpt><trkpt lat="43.744464" lon="7.3941912"><ele>462.00000000000006</ele><time>2026-05-01T14:40:00.876Z</time></trkpt><trkpt lat="43.7443924" lon="7.3941247"><ele>462.0</ele><time>2026-05-01T14:40:01.876Z</time></trkpt><trkpt lat="43.7443173" lon="7.3940494"><ele>462.0</ele><time>2026-05-01T14:40:02.876Z</time></trkpt><trkpt lat="43.7442076" lon="7.3939705"><ele>461.40000000000003</ele><time>2026-05-01T14:40:03.876Z</time></trkpt><trkpt lat="43.7441124" lon="7.3938836"><ele>460.80000000000007</ele><time>2026-05-01T14:40:04.876Z</time></trkpt><trkpt lat="43.7440364" lon="7.3937975"><ele>460.2</ele><time>2026-05-01T14:40:05.876Z</time></trkpt><trkpt lat="43.7439613" lon="7.3937334"><ele>459.6</ele><time>2026-05-01T14:40:06.876Z</time></trkpt><trkpt lat="43.7438958" lon="7.3936532"><ele>459.0</ele><time>2026-05-01T14:40:07.876Z</time></trkpt><trkpt lat="43.7438045" lon="7.3935582"><ele>459.0</ele><time>2026-05-01T14:40:08.876Z</time></trkpt><trkpt lat="43.7437162" lon="7.393455"><ele>459.0</ele><time>2026-05-01T14:40:09.876Z</time></trkpt><trkpt lat="43.7436438" lon="7.3933733"><ele>459.0</ele><time>2026-05-01T14:40:10.876Z</time></trkpt><trkpt lat="43.7435883" lon="7.3932617"><ele>459.0</ele><time>2026-05-01T14:40:11.876Z</time></trkpt><trkpt lat="43.7435171" lon="7.393133"><ele>459.0</ele><time>2026-05-01T14:40:12.876Z</time></trkpt><trkpt lat="43.7434523" lon="7.3929535"><ele>461.25</ele><time>2026-05-01T14:40:13.876Z</time></trkpt><trkpt lat="43.7433714" lon="7.3928277"><ele>463.5</ele><time>2026-05-01T14:40:14.876Z</time></trkpt><trkpt lat="43.7432892" lon="7.3926784"><ele>465.75</ele><time>2026-05-01T14:40:15.876Z</time></trkpt><trkpt lat="43.7432109" lon="7.3925608"><ele>468.0</ele><time>2026-05-01T14:40:16.876Z</time></trkpt><trkpt lat="43.7431372" lon="7.3924208"><ele>468.0</ele><time>2026-05-01T14:40:17.876Z</time></trkpt><trkpt lat="43.7430519" lon="7.392311"><ele>468.0</ele><time>2026-05-01T14:40:18.876Z</time></trkpt><trkpt lat="43.7429808" lon="7.3922009"><ele>468.0</ele><time>2026-05-01T14:40:19.876Z</time></trkpt><trkpt lat="43.7429202" lon="7.3920696"><ele>468.0</ele><time>2026-05-01T14:40:20.877Z</time></trkpt><trkpt lat="43.7428659" lon="7.3919164"><ele>467.25</ele><time>2026-05-01T14:40:21.876Z</time></trkpt><trkpt lat="43.742779" lon="7.3918038"><ele>466.5</ele><time>2026-05-01T14:40:22.876Z</time></trkpt><trkpt lat="43.7427235" lon="7.3916861"><ele>465.75</ele><time>2026-05-01T14:40:23.876Z</time></trkpt><trkpt lat="43.7426455" lon="7.3915397"><ele>465.0</ele><time>2026-05-01T14:40:24.876Z</time></trkpt><trkpt lat="43.7425736" lon="7.3914053"><ele>472.25</ele><time>2026-05-01T14:40:25.876Z</time></trkpt><trkpt lat="43.7424756" lon="7.3913147"><ele>479.5</ele><time>2026-05-01T14:40:26.876Z</time></trkpt><trkpt lat="43.7423315" lon="7.3912139"><ele>486.75</ele><time>2026-05-01T14:40:27.876Z</time></trkpt><trkpt lat="43.7421917" lon="7.391112"><ele>494.0</ele><time>2026-05-01T14:40:28.876Z</time></trkpt><trkpt lat="43.7420543" lon="7.3910567"><ele>494.0</ele><time>2026-05-01T14:40:29.876Z</time></trkpt><trkpt lat="43.7419219" lon="7.3909748"><ele>494.0</ele><time>2026-05-01T14:40:30.876Z</time></trkpt><trkpt lat="43.7417829" lon="7.3908908"><ele>494.0</ele><time>2026-05-01T14:40:31.876Z</time></trkpt><trkpt lat="43.7416502" lon="7.3908845"><ele>494.0</ele><time>2026-05-01T14:40:32.876Z</time></trkpt><trkpt lat="43.7415292" lon="7.3908281"><ele>493.0</ele><time>2026-05-01T14:40:33.876Z</time></trkpt><trkpt lat="43.7414273" lon="7.3907688"><ele>492.0</ele><time>2026-05-01T14:40:34.876Z</time></trkpt><trkpt lat="43.7412735" lon="7.3907836"><ele>491.0</ele><time>2026-05-01T14:40:35.876Z</time></trkpt><trkpt lat="43.741135" lon="7.390741"><ele>490.0</ele><time>2026-05-01T14:40:36.876Z</time></trkpt><trkpt lat="43.7410015" lon="7.390734"><ele>484.6666666666667</ele><time>2026-05-01T14:40:37.876Z</time></trkpt><trkpt lat="43.7408545" lon="7.3907253"><ele>479.33333333333337</ele><time>2026-05-01T14:40:38.876Z</time></trkpt><trkpt lat="43.7406993" lon="7.390679"><ele>474.0</ele><time>2026-05-01T14:40:39.876Z</time></trkpt><trkpt lat="43.7405148" lon="7.3905937"><ele>474.0</ele><time>2026-05-01T14:40:40.877Z</time></trkpt><trkpt lat="43.7403236" lon="7.3905497"><ele>474.0</ele><time>2026-05-01T14:40:41.876Z</time></trkpt><trkpt lat="43.7401612" lon="7.3904842"><ele>474.0</ele><time>2026-05-01T14:40:42.876Z</time></trkpt><trkpt lat="43.7400585" lon="7.3903261"><ele>481.66666666666663</ele><time>2026-05-01T14:40:43.876Z</time></trkpt><trkpt lat="43.7399006" lon="7.3902348"><ele>489.3333333333333</ele><time>2026-05-01T14:40:44.876Z</time></trkpt><trkpt lat="43.7397528" lon="7.3901441"><ele>497.0</ele><time>2026-05-01T14:40:45.876Z</time></trkpt><trkpt lat="43.7395958" lon="7.3900444"><ele>497.0</ele><time>2026-05-01T14:40:46.876Z</time></trkpt><trkpt lat="43.7394346" lon="7.3899458"><ele>497.0</ele><time>2026-05-01T14:40:47.876Z</time></trkpt><trkpt lat="43.7393098" lon="7.3898327"><ele>497.0</ele><time>2026-05-01T14:40:48.876Z</time></trkpt><trkpt lat="43.7391633" lon="7.3897471"><ele>499.3333333333333</ele><time>2026-05-01T14:40:49.876Z</time></trkpt><trkpt lat="43.7390227" lon="7.3896523"><ele>501.66666666666663</ele><time>2026-05-01T14:40:50.876Z</time></trkpt><trkpt lat="43.7388933" lon="7.3895635"><ele>504.0</ele><time>2026-05-01T14:40:51.876Z</time></trkpt><trkpt lat="43.7387445" lon="7.3894192"><ele>504.0</ele><time>2026-05-01T14:40:52.876Z</time></trkpt><trkpt lat="43.7386861" lon="7.3892571"><ele>504.0</ele><time>2026-05-01T14:40:53.876Z</time></trkpt><trkpt lat="43.7386127" lon="7.3891309"><ele>504.0</ele><time>2026-05-01T14:40:54.876Z</time></trkpt><trkpt lat="43.7385463" lon="7.388944"><ele>504.0</ele><time>2026-05-01T14:40:55.876Z</time></trkpt><trkpt lat="43.7385109" lon="7.3887894"><ele>498.75</ele><time>2026-05-01T14:40:56.876Z</time></trkpt><trkpt lat="43.7384838" lon="7.3885889"><ele>493.5</ele><time>2026-05-01T14:40:57.876Z</time></trkpt><trkpt lat="43.7384277" lon="7.3883923"><ele>488.25</ele><time>2026-05-01T14:40:58.876Z</time></trkpt><trkpt lat="43.738424" lon="7.388192"><ele>483.0</ele><time>2026-05-01T14:40:59.877Z</time></trkpt><trkpt lat="43.738421" lon="7.3879106"><ele>483.0</ele><time>2026-05-01T14:41:00.877Z</time></trkpt><trkpt lat="43.738416" lon="7.3876687"><ele>483.0</ele><time>2026-05-01T14:41:01.876Z</time></trkpt><trkpt lat="43.7383972" lon="7.3874141"><ele>483.0</ele><time>2026-05-01T14:41:02.876Z</time></trkpt><trkpt lat="43.7384007" lon="7.3871796"><ele>489.0</ele><time>2026-05-01T14:41:03.876Z</time></trkpt><trkpt lat="43.7383854" lon="7.3869078"><ele>495.0</ele><time>2026-05-01T14:41:04.876Z</time></trkpt><trkpt lat="43.7383294" lon="7.3866746"><ele>501.0</ele><time>2026-05-01T14:41:05.876Z</time></trkpt><trkpt lat="43.7382964" lon="7.3865202"><ele>501.0</ele><time>2026-05-01T14:41:06.877Z</time></trkpt><trkpt lat="43.7382226" lon="7.3863513"><ele>501.0</ele><time>2026-05-01T14:41:07.876Z</time></trkpt><trkpt lat="43.7380977" lon="7.3861414"><ele>501.0</ele><time>2026-05-01T14:41:08.877Z</time></trkpt><trkpt lat="43.7379647" lon="7.3858873"><ele>501.66666666666663</ele><time>2026-05-01T14:41:09.876Z</time></trkpt><trkpt lat="43.7378414" lon="7.3856926"><ele>502.3333333333333</ele><time>2026-05-01T14:41:10.876Z</time></trkpt><trkpt lat="43.7377155" lon="7.3855464"><ele>503.0</ele><time>2026-05-01T14:41:11.876Z</time></trkpt><trkpt lat="43.7375878" lon="7.3853849"><ele>503.0</ele><time>2026-05-01T14:41:12.876Z</time></trkpt><trkpt lat="43.7374578" lon="7.385223"><ele>503.0</ele><time>2026-05-01T14:41:13.876Z</time></trkpt><trkpt lat="43.7373378" lon="7.3850657"><ele>503.0</ele><time>2026-05-01T14:41:14.876Z</time></trkpt><trkpt lat="43.7371877" lon="7.3849052"><ele>503.0</ele><time>2026-05-01T14:41:15.876Z</time></trkpt><trkpt lat="43.7370834" lon="7.3847241"><ele>503.0</ele><time>2026-05-01T14:41:16.876Z</time></trkpt><trkpt lat="43.736972" lon="7.3845685"><ele>503.0</ele><time>2026-05-01T14:41:17.876Z</time></trkpt><trkpt lat="43.73681" lon="7.3843734"><ele>507.66666666666663</ele><time>2026-05-01T14:41:18.876Z</time></trkpt><trkpt lat="43.7366788" lon="7.3841816"><ele>512.3333333333334</ele><time>2026-05-01T14:41:19.876Z</time></trkpt><trkpt lat="43.7365904" lon="7.3839748"><ele>517.0</ele><time>2026-05-01T14:41:20.876Z</time></trkpt><trkpt lat="43.7364984" lon="7.3837611"><ele>517.0</ele><time>2026-05-01T14:41:21.876Z</time></trkpt><trkpt lat="43.7363867" lon="7.3835589"><ele>517.0</ele><time>2026-05-01T14:41:22.876Z</time></trkpt><trkpt lat="43.7363371" lon="7.3833212"><ele>517.0</ele><time>2026-05-01T14:41:23.876Z</time></trkpt><trkpt lat="43.7362671" lon="7.3830901"><ele>523.0</ele><time>2026-05-01T14:41:24.876Z</time></trkpt><trkpt lat="43.7362274" lon="7.3828776"><ele>529.0</ele><time>2026-05-01T14:41:25.876Z</time></trkpt><trkpt lat="43.7361777" lon="7.3826677"><ele>535.0</ele><time>2026-05-01T14:41:26.876Z</time></trkpt><trkpt lat="43.7361334" lon="7.3825064"><ele>541.0</ele><time>2026-05-01T14:41:27.876Z</time></trkpt><trkpt lat="43.7360813" lon="7.3822884"><ele>525.3333333333334</ele><time>2026-05-01T14:41:28.876Z</time></trkpt><trkpt lat="43.7360238" lon="7.3820773"><ele>509.66666666666663</ele><time>2026-05-01T14:41:29.876Z</time></trkpt><trkpt lat="43.735997" lon="7.3818465"><ele>494.0</ele><time>2026-05-01T14:41:30.876Z</time></trkpt><trkpt lat="43.735983" lon="7.3815404"><ele>501.0</ele><time>2026-05-01T14:41:31.876Z</time></trkpt><trkpt lat="43.7359711" lon="7.3812828"><ele>508.0</ele><time>2026-05-01T14:41:32.876Z</time></trkpt><trkpt lat="43.7359316" lon="7.3810264"><ele>515.0</ele><time>2026-05-01T14:41:33.876Z</time></trkpt><trkpt lat="43.7359044" lon="7.3807684"><ele>515.0</ele><time>2026-05-01T14:41:34.876Z</time></trkpt><trkpt lat="43.7358547" lon="7.3806014"><ele>515.0</ele><time>2026-05-01T14:41:35.876Z</time></trkpt><trkpt lat="43.7357746" lon="7.380389"><ele>515.0</ele><time>2026-05-01T14:41:36.876Z</time></trkpt><trkpt lat="43.7356918" lon="7.3801802"><ele>524.6666666666666</ele><time>2026-05-01T14:41:37.876Z</time></trkpt><trkpt lat="43.7356095" lon="7.3799644"><ele>534.3333333333334</ele><time>2026-05-01T14:41:38.876Z</time></trkpt><trkpt lat="43.7355219" lon="7.3797919"><ele>544.0</ele><time>2026-05-01T14:41:39.876Z</time></trkpt><trkpt lat="43.7353925" lon="7.3795999"><ele>532.0</ele><time>2026-05-01T14:41:40.876Z</time></trkpt><trkpt lat="43.7352671" lon="7.3794717"><ele>520.0</ele><time>2026-05-01T14:41:41.876Z</time></trkpt><trkpt lat="43.7351464" lon="7.3793128"><ele>508.0</ele><time>2026-05-01T14:41:42.876Z</time></trkpt><trkpt lat="43.7350472" lon="7.3791672"><ele>508.0</ele><time>2026-05-01T14:41:43.876Z</time></trkpt><trkpt lat="43.7349542" lon="7.3789658"><ele>508.0</ele><time>2026-05-01T14:41:44.876Z</time></trkpt><trkpt lat="43.7348478" lon="7.3788157"><ele>508.0</ele><time>2026-05-01T14:41:45.876Z</time></trkpt><trkpt lat="43.7347849" lon="7.37862"><ele>519.3333333333334</ele><time>2026-05-01T14:41:46.876Z</time></trkpt><trkpt lat="43.7347331" lon="7.3783183"><ele>530.6666666666666</ele><time>2026-05-01T14:41:47.876Z</time></trkpt><trkpt lat="43.7346674" lon="7.3781386"><ele>542.0</ele><time>2026-05-01T14:41:48.876Z</time></trkpt><trkpt lat="43.7346086" lon="7.3779177"><ele>550.6666666666666</ele><time>2026-05-01T14:41:49.876Z</time></trkpt><trkpt lat="43.7345579" lon="7.3776917"><ele>559.3333333333334</ele><time>2026-05-01T14:41:50.876Z</time></trkpt><trkpt lat="43.7345175" lon="7.3774862"><ele>568.0</ele><time>2026-05-01T14:41:51.876Z</time></trkpt><trkpt lat="43.7344796" lon="7.3772632"><ele>570.3333333333334</ele><time>2026-05-01T14:41:52.876Z</time></trkpt><trkpt lat="43.73443" lon="7.377046"><ele>572.6666666666666</ele><time>2026-05-01T14:41:53.877Z</time></trkpt><trkpt lat="43.7343978" lon="7.3768352"><ele>575.0</ele><time>2026-05-01T14:41:54.876Z</time></trkpt><trkpt lat="43.734371" lon="7.3766318"><ele>551.3333333333333</ele><time>2026-05-01T14:41:55.876Z</time></trkpt><trkpt lat="43.7343576" lon="7.376399"><ele>527.6666666666666</ele><time>2026-05-01T14:41:56.876Z</time></trkpt><trkpt lat="43.7343649" lon="7.3761771"><ele>504.0</ele><time>2026-05-01T14:41:57.876Z</time></trkpt><trkpt lat="43.7343719" lon="7.375943"><ele>503.33333333333337</ele><time>2026-05-01T14:41:58.876Z</time></trkpt><trkpt lat="43.7343603" lon="7.3757162"><ele>502.6666666666667</ele><time>2026-05-01T14:41:59.877Z</time></trkpt><trkpt lat="43.7343652" lon="7.3755053"><ele>502.0</ele><time>2026-05-01T14:42:00.876Z</time></trkpt><trkpt lat="43.7343581" lon="7.3752585"><ele>503.6666666666667</ele><time>2026-05-01T14:42:01.877Z</time></trkpt><trkpt lat="43.7343445" lon="7.3750428"><ele>505.33333333333337</ele><time>2026-05-01T14:42:02.876Z</time></trkpt><trkpt lat="43.7343143" lon="7.3748059"><ele>507.0</ele><time>2026-05-01T14:42:03.876Z</time></trkpt><trkpt lat="43.734288" lon="7.3745878"><ele>508.0</ele><time>2026-05-01T14:42:04.876Z</time></trkpt><trkpt lat="43.7342397" lon="7.3743594"><ele>509.0</ele><time>2026-05-01T14:42:05.876Z</time></trkpt><trkpt lat="43.734237" lon="7.3741283"><ele>510.0</ele><time>2026-05-01T14:42:06.876Z</time></trkpt><trkpt lat="43.7341918" lon="7.3739591"><ele>517.0</ele><time>2026-05-01T14:42:07.876Z</time></trkpt><trkpt lat="43.7341111" lon="7.373652"><ele>524.0</ele><time>2026-05-01T14:42:08.877Z</time></trkpt><trkpt lat="43.7340313" lon="7.3734233"><ele>531.0</ele><time>2026-05-01T14:42:09.876Z</time></trkpt><trkpt lat="43.7339303" lon="7.3731941"><ele>539.3333333333334</ele><time>2026-05-01T14:42:10.876Z</time></trkpt><trkpt lat="43.7338471" lon="7.3729608"><ele>547.6666666666667</ele><time>2026-05-01T14:42:11.876Z</time></trkpt><trkpt lat="43.7337664" lon="7.3727046"><ele>556.0</ele><time>2026-05-01T14:42:12.876Z</time></trkpt><trkpt lat="43.7337078" lon="7.3724765"><ele>556.0</ele><time>2026-05-01T14:42:13.877Z</time></trkpt><trkpt lat="43.7336703" lon="7.3722221"><ele>556.0</ele><time>2026-05-01T14:42:14.877Z</time></trkpt><trkpt lat="43.7336164" lon="7.3720044"><ele>556.0</ele><time>2026-05-01T14:42:15.876Z</time></trkpt><trkpt lat="43.7335689" lon="7.3718538"><ele>545.3333333333334</ele><time>2026-05-01T14:42:16.877Z</time></trkpt><trkpt lat="43.7335248" lon="7.3716106"><ele>534.6666666666666</ele><time>2026-05-01T14:42:17.876Z</time></trkpt><trkpt lat="43.7334678" lon="7.3713957"><ele>524.0</ele><time>2026-05-01T14:42:18.876Z</time></trkpt><trkpt lat="43.73343" lon="7.371181"><ele>524.0</ele><time>2026-05-01T14:42:19.877Z</time></trkpt><trkpt lat="43.7333668" lon="7.3709604"><ele>524.0</ele><time>2026-05-01T14:42:20.876Z</time></trkpt><trkpt lat="43.733304" lon="7.3707728"><ele>524.0</ele><time>2026-05-01T14:42:21.876Z</time></trkpt><trkpt lat="43.7332658" lon="7.3705657"><ele>526.6666666666666</ele><time>2026-05-01T14:42:22.876Z</time></trkpt><trkpt lat="43.7332317" lon="7.3702667"><ele>529.3333333333334</ele><time>2026-05-01T14:42:23.876Z</time></trkpt><trkpt lat="43.7332017" lon="7.3700194"><ele>532.0</ele><time>2026-05-01T14:42:24.876Z</time></trkpt><trkpt lat="43.7331879" lon="7.3697393"><ele>530.5</ele><time>2026-05-01T14:42:25.876Z</time></trkpt><trkpt lat="43.7331936" lon="7.3695431"><ele>529.0</ele><time>2026-05-01T14:42:26.876Z</time></trkpt><trkpt lat="43.7332314" lon="7.3693526"><ele>527.5</ele><time>2026-05-01T14:42:27.876Z</time></trkpt><trkpt lat="43.7332949" lon="7.3691812"><ele>526.0</ele><time>2026-05-01T14:42:28.876Z</time></trkpt><trkpt lat="43.733383" lon="7.3690072"><ele>526.0</ele><time>2026-05-01T14:42:29.876Z</time></trkpt><trkpt lat="43.7334714" lon="7.3688862"><ele>526.0</ele><time>2026-05-01T14:42:30.876Z</time></trkpt><trkpt lat="43.7335735" lon="7.3687671"><ele>526.0</ele><time>2026-05-01T14:42:31.876Z</time></trkpt><trkpt lat="43.7337711" lon="7.3686658"><ele>522.3333333333334</ele><time>2026-05-01T14:42:32.876Z</time></trkpt><trkpt lat="43.7340079" lon="7.3686146"><ele>518.6666666666666</ele><time>2026-05-01T14:42:33.876Z</time></trkpt><trkpt lat="43.7341633" lon="7.3686142"><ele>515.0</ele><time>2026-05-01T14:42:34.876Z</time></trkpt><trkpt lat="43.7343054" lon="7.368625"><ele>520.3333333333333</ele><time>2026-05-01T14:42:35.876Z</time></trkpt><trkpt lat="43.734483" lon="7.3685861"><ele>525.6666666666666</ele><time>2026-05-01T14:42:36.876Z</time></trkpt><trkpt lat="43.7346352" lon="7.3685234"><ele>531.0</ele><time>2026-05-01T14:42:37.876Z</time></trkpt><trkpt lat="43.734806" lon="7.3684499"><ele>531.0</ele><time>2026-05-01T14:42:38.876Z</time></trkpt><trkpt lat="43.7349587" lon="7.368322"><ele>531.0</ele><time>2026-05-01T14:42:39.876Z</time></trkpt><trkpt lat="43.73511" lon="7.3682131"><ele>531.0</ele><time>2026-05-01T14:42:40.876Z</time></trkpt><trkpt lat="43.7352526" lon="7.3680703"><ele>536.3333333333334</ele><time>2026-05-01T14:42:41.877Z</time></trkpt><trkpt lat="43.7353837" lon="7.3679168"><ele>541.6666666666667</ele><time>2026-05-01T14:42:42.876Z</time></trkpt><trkpt lat="43.7354947" lon="7.3677527"><ele>547.0</ele><time>2026-05-01T14:42:43.876Z</time></trkpt><trkpt lat="43.7355938" lon="7.3675778"><ele>547.0</ele><time>2026-05-01T14:42:44.876Z</time></trkpt><trkpt lat="43.7356655" lon="7.3673697"><ele>547.0</ele><time>2026-05-01T14:42:45.876Z</time></trkpt><trkpt lat="43.7357594" lon="7.3671826"><ele>547.0</ele><time>2026-05-01T14:42:46.876Z</time></trkpt><trkpt lat="43.7357921" lon="7.3669721"><ele>544.3333333333334</ele><time>2026-05-01T14:42:47.876Z</time></trkpt><trkpt lat="43.7358454" lon="7.3667864"><ele>541.6666666666666</ele><time>2026-05-01T14:42:48.876Z</time></trkpt><trkpt lat="43.735865" lon="7.3665558"><ele>539.0</ele><time>2026-05-01T14:42:49.876Z</time></trkpt><trkpt lat="43.7358911" lon="7.3663603"><ele>539.0</ele><time>2026-05-01T14:42:50.876Z</time></trkpt><trkpt lat="43.7358774" lon="7.3661295"><ele>539.0</ele><time>2026-05-01T14:42:51.876Z</time></trkpt><trkpt lat="43.7358631" lon="7.3658692"><ele>539.0</ele><time>2026-05-01T14:42:52.876Z</time></trkpt><trkpt lat="43.7358123" lon="7.3656313"><ele>539.0</ele><time>2026-05-01T14:42:53.876Z</time></trkpt><trkpt lat="43.7357631" lon="7.3654311"><ele>539.0</ele><time>2026-05-01T14:42:54.876Z</time></trkpt><trkpt lat="43.7357424" lon="7.365221"><ele>539.0</ele><time>2026-05-01T14:42:55.876Z</time></trkpt><trkpt lat="43.7356943" lon="7.3651263"><ele>539.0</ele><time>2026-05-01T14:42:56.876Z</time></trkpt><trkpt lat="43.735669" lon="7.3650151"><ele>539.0</ele><time>2026-05-01T14:42:57.876Z</time></trkpt><trkpt lat="43.7356875" lon="7.3649164"><ele>539.0</ele><time>2026-05-01T14:42:58.876Z</time></trkpt><trkpt lat="43.7357254" lon="7.3648397"><ele>539.0</ele><time>2026-05-01T14:42:59.876Z</time></trkpt><trkpt lat="43.7358307" lon="7.3645196"><ele>539.0</ele><time>2026-05-01T14:43:00.876Z</time></trkpt><trkpt lat="43.7359113" lon="7.3643564"><ele>536.75</ele><time>2026-05-01T14:43:01.876Z</time></trkpt><trkpt lat="43.735984" lon="7.3641912"><ele>534.5</ele><time>2026-05-01T14:43:02.876Z</time></trkpt><trkpt lat="43.7360688" lon="7.364026"><ele>532.25</ele><time>2026-05-01T14:43:03.876Z</time></trkpt><trkpt lat="43.7361641" lon="7.363865"><ele>530.0</ele><time>2026-05-01T14:43:04.876Z</time></trkpt><trkpt lat="43.7362526" lon="7.3636587"><ele>537.0</ele><time>2026-05-01T14:43:05.876Z</time></trkpt><trkpt lat="43.7363397" lon="7.3634282"><ele>544.0</ele><time>2026-05-01T14:43:06.876Z</time></trkpt><trkpt lat="43.7363815" lon="7.3631655"><ele>551.0</ele><time>2026-05-01T14:43:07.876Z</time></trkpt><trkpt lat="43.7364213" lon="7.362933"><ele>551.0</ele><time>2026-05-01T14:43:08.876Z</time></trkpt><trkpt lat="43.7364582" lon="7.3627139"><ele>551.0</ele><time>2026-05-01T14:43:09.876Z</time></trkpt><trkpt lat="43.7364866" lon="7.3624991"><ele>551.0</ele><time>2026-05-01T14:43:10.876Z</time></trkpt><trkpt lat="43.7364992" lon="7.3622853"><ele>551.3333333333333</ele><time>2026-05-01T14:43:11.876Z</time></trkpt><trkpt lat="43.7363997" lon="7.3620998"><ele>551.6666666666666</ele><time>2026-05-01T14:43:12.876Z</time></trkpt><trkpt lat="43.7363531" lon="7.3618333"><ele>552.0</ele><time>2026-05-01T14:43:13.876Z</time></trkpt><trkpt lat="43.7363182" lon="7.3615878"><ele>550.25</ele><time>2026-05-01T14:43:14.876Z</time></trkpt><trkpt lat="43.7362728" lon="7.361364"><ele>548.5</ele><time>2026-05-01T14:43:15.876Z</time></trkpt><trkpt lat="43.7362461" lon="7.3611638"><ele>546.75</ele><time>2026-05-01T14:43:16.876Z</time></trkpt><trkpt lat="43.736247" lon="7.3610183"><ele>545.0</ele><time>2026-05-01T14:43:17.876Z</time></trkpt><trkpt lat="43.7362621" lon="7.360845"><ele>545.0</ele><time>2026-05-01T14:43:18.876Z</time></trkpt><trkpt lat="43.7362797" lon="7.360683"><ele>545.0</ele><time>2026-05-01T14:43:19.876Z</time></trkpt><trkpt lat="43.7363125" lon="7.3605848"><ele>545.0</ele><time>2026-05-01T14:43:20.876Z</time></trkpt><trkpt lat="43.7363677" lon="7.3604281"><ele>545.0</ele><time>2026-05-01T14:43:21.876Z</time></trkpt><trkpt lat="43.7364751" lon="7.3603863"><ele>545.0</ele><time>2026-05-01T14:43:22.876Z</time></trkpt><trkpt lat="43.7365342" lon="7.3602862"><ele>540.6666666666666</ele><time>2026-05-01T14:43:23.876Z</time></trkpt><trkpt lat="43.7366572" lon="7.3601794"><ele>536.3333333333334</ele><time>2026-05-01T14:43:24.876Z</time></trkpt><trkpt lat="43.7368634" lon="7.360061"><ele>532.0</ele><time>2026-05-01T14:43:25.876Z</time></trkpt><trkpt lat="43.7370293" lon="7.3599134"><ele>536.6666666666667</ele><time>2026-05-01T14:43:26.876Z</time></trkpt><trkpt lat="43.73715" lon="7.3597194"><ele>541.3333333333334</ele><time>2026-05-01T14:43:27.876Z</time></trkpt><trkpt lat="43.737266" lon="7.3595273"><ele>546.0</ele><time>2026-05-01T14:43:28.876Z</time></trkpt><trkpt lat="43.7373546" lon="7.3593186"><ele>546.0</ele><time>2026-05-01T14:43:29.876Z</time></trkpt><trkpt lat="43.7374443" lon="7.3590952"><ele>546.0</ele><time>2026-05-01T14:43:30.876Z</time></trkpt><trkpt lat="43.7374904" lon="7.3588951"><ele>546.0</ele><time>2026-05-01T14:43:31.876Z</time></trkpt><trkpt lat="43.7374826" lon="7.3586945"><ele>545.3333333333334</ele><time>2026-05-01T14:43:32.876Z</time></trkpt><trkpt lat="43.7375155" lon="7.3584445"><ele>544.6666666666667</ele><time>2026-05-01T14:43:33.876Z</time></trkpt><trkpt lat="43.7375175" lon="7.358201"><ele>544.0</ele><time>2026-05-01T14:43:34.876Z</time></trkpt><trkpt lat="43.7375073" lon="7.3580034"><ele>546.6666666666667</ele><time>2026-05-01T14:43:35.876Z</time></trkpt><trkpt lat="43.7374721" lon="7.3577787"><ele>549.3333333333334</ele><time>2026-05-01T14:43:36.876Z</time></trkpt><trkpt lat="43.7373867" lon="7.3575308"><ele>552.0</ele><time>2026-05-01T14:43:37.876Z</time></trkpt><trkpt lat="43.73728" lon="7.3573682"><ele>556.3333333333334</ele><time>2026-05-01T14:43:38.876Z</time></trkpt><trkpt lat="43.7371931" lon="7.3571328"><ele>560.6666666666667</ele><time>2026-05-01T14:43:39.876Z</time></trkpt><trkpt lat="43.7371125" lon="7.3569252"><ele>565.0</ele><time>2026-05-01T14:43:40.876Z</time></trkpt><trkpt lat="43.737006" lon="7.3567399"><ele>565.0</ele><time>2026-05-01T14:43:41.876Z</time></trkpt><trkpt lat="43.736907" lon="7.3565491"><ele>565.0</ele><time>2026-05-01T14:43:42.876Z</time></trkpt><trkpt lat="43.7367096" lon="7.356296"><ele>565.0</ele><time>2026-05-01T14:43:43.876Z</time></trkpt><trkpt lat="43.7365425" lon="7.3561667"><ele>558.75</ele><time>2026-05-01T14:43:44.876Z</time></trkpt><trkpt lat="43.7364131" lon="7.3560695"><ele>552.5</ele><time>2026-05-01T14:43:45.876Z</time></trkpt><trkpt lat="43.7363057" lon="7.3559385"><ele>546.25</ele><time>2026-05-01T14:43:46.876Z</time></trkpt><trkpt lat="43.7362643" lon="7.3558108"><ele>540.0</ele><time>2026-05-01T14:43:47.876Z</time></trkpt><trkpt lat="43.7362129" lon="7.355667"><ele>540.0</ele><time>2026-05-01T14:43:49.876Z</time></trkpt><trkpt lat="43.7361946" lon="7.3555609"><ele>540.0</ele><time>2026-05-01T14:43:50.876Z</time></trkpt><trkpt lat="43.736244" lon="7.3552068"><ele>540.0</ele><time>2026-05-01T14:43:51.876Z</time></trkpt><trkpt lat="43.736279" lon="7.3550507"><ele>539.3333333333334</ele><time>2026-05-01T14:43:52.876Z</time></trkpt><trkpt lat="43.736343" lon="7.3548299"><ele>538.6666666666667</ele><time>2026-05-01T14:43:53.876Z</time></trkpt><trkpt lat="43.73635" lon="7.3545793"><ele>538.0</ele><time>2026-05-01T14:43:54.876Z</time></trkpt><trkpt lat="43.7363479" lon="7.3542154"><ele>538.0</ele><time>2026-05-01T14:43:55.876Z</time></trkpt><trkpt lat="43.736392" lon="7.3539762"><ele>538.0</ele><time>2026-05-01T14:43:56.876Z</time></trkpt><trkpt lat="43.7364379" lon="7.3537516"><ele>538.0</ele><time>2026-05-01T14:43:57.876Z</time></trkpt><trkpt lat="43.7364811" lon="7.3535088"><ele>537.0</ele><time>2026-05-01T14:43:58.876Z</time></trkpt><trkpt lat="43.7365319" lon="7.3532751"><ele>536.0</ele><time>2026-05-01T14:43:59.876Z</time></trkpt><trkpt lat="43.7365959" lon="7.3530782"><ele>535.0</ele><time>2026-05-01T14:44:00.876Z</time></trkpt><trkpt lat="43.7366229" lon="7.3527859"><ele>531.75</ele><time>2026-05-01T14:44:01.876Z</time></trkpt><trkpt lat="43.7366657" lon="7.3526258"><ele>528.5</ele><time>2026-05-01T14:44:02.876Z</time></trkpt><trkpt lat="43.7367084" lon="7.3524184"><ele>525.25</ele><time>2026-05-01T14:44:03.876Z</time></trkpt><trkpt lat="43.7367594" lon="7.35227"><ele>522.0</ele><time>2026-05-01T14:44:04.876Z</time></trkpt><trkpt lat="43.7368019" lon="7.3520844"><ele>520.8333333333334</ele><time>2026-05-01T14:44:05.876Z</time></trkpt><trkpt lat="43.7368053" lon="7.351951"><ele>519.6666666666666</ele><time>2026-05-01T14:44:06.876Z</time></trkpt><trkpt lat="43.7368334" lon="7.3518517"><ele>518.5</ele><time>2026-05-01T14:44:07.876Z</time></trkpt><trkpt lat="43.7368488" lon="7.3517474"><ele>517.3333333333333</ele><time>2026-05-01T14:44:08.876Z</time></trkpt><trkpt lat="43.7368738" lon="7.3516545"><ele>516.1666666666666</ele><time>2026-05-01T14:44:09.876Z</time></trkpt><trkpt lat="43.7369245" lon="7.3514935"><ele>515.0</ele><time>2026-05-01T14:44:11.876Z</time></trkpt><trkpt lat="43.7369256" lon="7.3513331"><ele>521.6</ele><time>2026-05-01T14:44:12.876Z</time></trkpt><trkpt lat="43.7369506" lon="7.3512214"><ele>528.2</ele><time>2026-05-01T14:44:13.876Z</time></trkpt><trkpt lat="43.7369536" lon="7.3510618"><ele>534.8</ele><time>2026-05-01T14:44:14.876Z</time></trkpt><trkpt lat="43.7369636" lon="7.3508851"><ele>541.4</ele><time>2026-05-01T14:44:16.876Z</time></trkpt><trkpt lat="43.7369288" lon="7.3507432"><ele>548.0</ele><time>2026-05-01T14:44:17.876Z</time></trkpt><trkpt lat="43.7368971" lon="7.3506626"><ele>544.5</ele><time>2026-05-01T14:44:18.876Z</time></trkpt><trkpt lat="43.7367988" lon="7.3505597"><ele>541.0</ele><time>2026-05-01T14:44:19.876Z</time></trkpt><trkpt lat="43.7366685" lon="7.3505216"><ele>537.5</ele><time>2026-05-01T14:44:20.876Z</time></trkpt><trkpt lat="43.7365282" lon="7.3505194"><ele>534.0</ele><time>2026-05-01T14:44:21.877Z</time></trkpt><trkpt lat="43.736394" lon="7.3504538"><ele>534.0</ele><time>2026-05-01T14:44:22.876Z</time></trkpt><trkpt lat="43.7362957" lon="7.3504003"><ele>534.0</ele><time>2026-05-01T14:44:23.876Z</time></trkpt><trkpt lat="43.7361602" lon="7.3503852"><ele>534.0</ele><time>2026-05-01T14:44:24.876Z</time></trkpt><trkpt lat="43.7360322" lon="7.3503373"><ele>534.0</ele><time>2026-05-01T14:44:25.876Z</time></trkpt><trkpt lat="43.7359355" lon="7.3503276"><ele>531.2</ele><time>2026-05-01T14:44:26.876Z</time></trkpt><trkpt lat="43.7358357" lon="7.3502669"><ele>528.4</ele><time>2026-05-01T14:44:27.876Z</time></trkpt><trkpt lat="43.7357575" lon="7.3502437"><ele>525.6</ele><time>2026-05-01T14:44:28.876Z</time></trkpt><trkpt lat="43.7356925" lon="7.3501441"><ele>522.8</ele><time>2026-05-01T14:44:29.876Z</time></trkpt><trkpt lat="43.735639" lon="7.3499869"><ele>520.0</ele><time>2026-05-01T14:44:30.876Z</time></trkpt><trkpt lat="43.7355643" lon="7.3498604"><ele>520.0</ele><time>2026-05-01T14:44:31.876Z</time></trkpt><trkpt lat="43.7354941" lon="7.3497205"><ele>520.0</ele><time>2026-05-01T14:44:32.876Z</time></trkpt><trkpt lat="43.7353987" lon="7.3496158"><ele>520.0</ele><time>2026-05-01T14:44:33.876Z</time></trkpt><trkpt lat="43.7353297" lon="7.3494895"><ele>520.0</ele><time>2026-05-01T14:44:34.876Z</time></trkpt><trkpt lat="43.7352299" lon="7.3493873"><ele>519.0</ele><time>2026-05-01T14:44:35.876Z</time></trkpt><trkpt lat="43.7351373" lon="7.3493137"><ele>518.0</ele><time>2026-05-01T14:44:36.876Z</time></trkpt><trkpt lat="43.735051" lon="7.34918"><ele>517.0</ele><time>2026-05-01T14:44:37.876Z</time></trkpt><trkpt lat="43.7349683" lon="7.3491189"><ele>516.0</ele><time>2026-05-01T14:44:38.876Z</time></trkpt><trkpt lat="43.7348658" lon="7.3490724"><ele>515.0</ele><time>2026-05-01T14:44:39.876Z</time></trkpt><trkpt lat="43.7347837" lon="7.3489875"><ele>518.8</ele><time>2026-05-01T14:44:40.876Z</time></trkpt><trkpt lat="43.7347324" lon="7.3488614"><ele>522.6</ele><time>2026-05-01T14:44:41.876Z</time></trkpt><trkpt lat="43.7346788" lon="7.3487482"><ele>526.4</ele><time>2026-05-01T14:44:42.876Z</time></trkpt><trkpt lat="43.7346204" lon="7.3485868"><ele>530.2</ele><time>2026-05-01T14:44:43.876Z</time></trkpt><trkpt lat="43.734582" lon="7.3484506"><ele>534.0</ele><time>2026-05-01T14:44:44.876Z</time></trkpt><trkpt lat="43.7345242" lon="7.3483135"><ele>534.0</ele><time>2026-05-01T14:44:45.876Z</time></trkpt><trkpt lat="43.7344395" lon="7.3481387"><ele>534.0</ele><time>2026-05-01T14:44:46.876Z</time></trkpt><trkpt lat="43.7344288" lon="7.3479439"><ele>534.0</ele><time>2026-05-01T14:44:47.876Z</time></trkpt><trkpt lat="43.7343916" lon="7.3477658"><ele>534.0</ele><time>2026-05-01T14:44:48.876Z</time></trkpt><trkpt lat="43.7343343" lon="7.3476177"><ele>528.0</ele><time>2026-05-01T14:44:49.876Z</time></trkpt><trkpt lat="43.734258" lon="7.347445"><ele>522.0</ele><time>2026-05-01T14:44:50.876Z</time></trkpt><trkpt lat="43.7341949" lon="7.3472617"><ele>516.0</ele><time>2026-05-01T14:44:51.876Z</time></trkpt><trkpt lat="43.7341486" lon="7.3471195"><ele>510.0</ele><time>2026-05-01T14:44:52.876Z</time></trkpt><trkpt lat="43.7341141" lon="7.3470088"><ele>510.0</ele><time>2026-05-01T14:44:53.876Z</time></trkpt><trkpt lat="43.7341065" lon="7.3468902"><ele>510.0</ele><time>2026-05-01T14:44:54.876Z</time></trkpt><trkpt lat="43.7341065" lon="7.3467391"><ele>510.0</ele><time>2026-05-01T14:44:55.876Z</time></trkpt><trkpt lat="43.7340429" lon="7.3465688"><ele>510.0</ele><time>2026-05-01T14:44:56.876Z</time></trkpt><trkpt lat="43.7339813" lon="7.3464037"><ele>508.0</ele><time>2026-05-01T14:44:57.876Z</time></trkpt><trkpt lat="43.7339304" lon="7.3462816"><ele>506.0</ele><time>2026-05-01T14:44:58.876Z</time></trkpt><trkpt lat="43.7338839" lon="7.3461596"><ele>504.0</ele><time>2026-05-01T14:44:59.876Z</time></trkpt><trkpt lat="43.7338404" lon="7.3460362"><ele>502.0</ele><time>2026-05-01T14:45:00.876Z</time></trkpt><trkpt lat="43.7338049" lon="7.3459045"><ele>500.0</ele><time>2026-05-01T14:45:01.876Z</time></trkpt><trkpt lat="43.7337416" lon="7.3458065"><ele>500.0</ele><time>2026-05-01T14:45:02.876Z</time></trkpt><trkpt lat="43.7336299" lon="7.3457856"><ele>500.0</ele><time>2026-05-01T14:45:03.876Z</time></trkpt><trkpt lat="43.7335247" lon="7.3457299"><ele>500.0</ele><time>2026-05-01T14:45:04.876Z</time></trkpt><trkpt lat="43.7333977" lon="7.3457412"><ele>500.0</ele><time>2026-05-01T14:45:05.876Z</time></trkpt><trkpt lat="43.7332927" lon="7.3457406"><ele>500.5</ele><time>2026-05-01T14:45:06.876Z</time></trkpt><trkpt lat="43.7331813" lon="7.3458155"><ele>501.0</ele><time>2026-05-01T14:45:07.876Z</time></trkpt><trkpt lat="43.733042" lon="7.3459188"><ele>501.5</ele><time>2026-05-01T14:45:08.876Z</time></trkpt><trkpt lat="43.7329467" lon="7.3460049"><ele>502.0</ele><time>2026-05-01T14:45:09.876Z</time></trkpt><trkpt lat="43.7328194" lon="7.3460891"><ele>501.40000000000003</ele><time>2026-05-01T14:45:10.876Z</time></trkpt><trkpt lat="43.7326819" lon="7.3461523"><ele>500.80000000000007</ele><time>2026-05-01T14:45:11.876Z</time></trkpt><trkpt lat="43.7325908" lon="7.3462088"><ele>500.2</ele><time>2026-05-01T14:45:12.876Z</time></trkpt><trkpt lat="43.7325116" lon="7.3462658"><ele>499.6</ele><time>2026-05-01T14:45:13.876Z</time></trkpt><trkpt lat="43.7324194" lon="7.3462097"><ele>499.0</ele><time>2026-05-01T14:45:14.876Z</time></trkpt><trkpt lat="43.732368" lon="7.3461297"><ele>499.0</ele><time>2026-05-01T14:45:15.876Z</time></trkpt><trkpt lat="43.7323379" lon="7.3460266"><ele>499.0</ele><time>2026-05-01T14:45:16.877Z</time></trkpt><trkpt lat="43.732281" lon="7.3458067"><ele>499.0</ele><time>2026-05-01T14:45:17.877Z</time></trkpt><trkpt lat="43.7322514" lon="7.3455635"><ele>499.0</ele><time>2026-05-01T14:45:18.877Z</time></trkpt><trkpt lat="43.7322113" lon="7.3453793"><ele>496.0</ele><time>2026-05-01T14:45:19.876Z</time></trkpt><trkpt lat="43.7321737" lon="7.3451833"><ele>493.0</ele><time>2026-05-01T14:45:20.876Z</time></trkpt><trkpt lat="43.7321423" lon="7.3450081"><ele>490.0</ele><time>2026-05-01T14:45:21.876Z</time></trkpt><trkpt lat="43.7321198" lon="7.3447579"><ele>488.33333333333337</ele><time>2026-05-01T14:45:22.876Z</time></trkpt><trkpt lat="43.7321431" lon="7.344522"><ele>486.66666666666663</ele><time>2026-05-01T14:45:23.876Z</time></trkpt><trkpt lat="43.7321671" lon="7.3443066"><ele>485.0</ele><time>2026-05-01T14:45:24.876Z</time></trkpt><trkpt lat="43.7322131" lon="7.3440333"><ele>484.75</ele><time>2026-05-01T14:45:25.876Z</time></trkpt><trkpt lat="43.7322014" lon="7.3438484"><ele>484.5</ele><time>2026-05-01T14:45:26.876Z</time></trkpt><trkpt lat="43.7322254" lon="7.3436653"><ele>484.25</ele><time>2026-05-01T14:45:27.877Z</time></trkpt><trkpt lat="43.7322297" lon="7.3435232"><ele>484.0</ele><time>2026-05-01T14:45:28.876Z</time></trkpt><trkpt lat="43.732235" lon="7.3433651"><ele>484.0</ele><time>2026-05-01T14:45:29.876Z</time></trkpt><trkpt lat="43.7322021" lon="7.3432208"><ele>484.0</ele><time>2026-05-01T14:45:30.876Z</time></trkpt><trkpt lat="43.732165" lon="7.3430851"><ele>484.0</ele><time>2026-05-01T14:45:31.876Z</time></trkpt><trkpt lat="43.7321157" lon="7.3429421"><ele>484.0</ele><time>2026-05-01T14:45:32.876Z</time></trkpt><trkpt lat="43.7320746" lon="7.3428282"><ele>484.0</ele><time>2026-05-01T14:45:33.876Z</time></trkpt><trkpt lat="43.7319859" lon="7.3427105"><ele>481.33333333333337</ele><time>2026-05-01T14:45:34.876Z</time></trkpt><trkpt lat="43.7318906" lon="7.3425125"><ele>478.66666666666663</ele><time>2026-05-01T14:45:35.876Z</time></trkpt><trkpt lat="43.731825" lon="7.3423409"><ele>476.0</ele><time>2026-05-01T14:45:36.876Z</time></trkpt><trkpt lat="43.7317334" lon="7.3421751"><ele>480.25</ele><time>2026-05-01T14:45:37.877Z</time></trkpt><trkpt lat="43.7316344" lon="7.3420382"><ele>484.5</ele><time>2026-05-01T14:45:38.876Z</time></trkpt><trkpt lat="43.7315243" lon="7.3418879"><ele>488.75</ele><time>2026-05-01T14:45:39.876Z</time></trkpt><trkpt lat="43.7314075" lon="7.3417849"><ele>493.0</ele><time>2026-05-01T14:45:40.876Z</time></trkpt><trkpt lat="43.7312982" lon="7.3417348"><ele>493.0</ele><time>2026-05-01T14:45:41.876Z</time></trkpt><trkpt lat="43.7311986" lon="7.3416852"><ele>493.0</ele><time>2026-05-01T14:45:42.876Z</time></trkpt><trkpt lat="43.7311039" lon="7.3416426"><ele>493.0</ele><time>2026-05-01T14:45:43.876Z</time></trkpt><trkpt lat="43.7309627" lon="7.34159"><ele>493.0</ele><time>2026-05-01T14:45:44.876Z</time></trkpt><trkpt lat="43.7308532" lon="7.3416022"><ele>494.79999999999995</ele><time>2026-05-01T14:45:45.876Z</time></trkpt><trkpt lat="43.7307422" lon="7.3416153"><ele>496.59999999999997</ele><time>2026-05-01T14:45:46.876Z</time></trkpt><trkpt lat="43.7306546" lon="7.3416723"><ele>498.40000000000003</ele><time>2026-05-01T14:45:47.876Z</time></trkpt><trkpt lat="43.7305693" lon="7.341775"><ele>500.20000000000005</ele><time>2026-05-01T14:45:48.877Z</time></trkpt><trkpt lat="43.730501" lon="7.3419007"><ele>502.0</ele><time>2026-05-01T14:45:49.876Z</time></trkpt><trkpt lat="43.7304589" lon="7.3419738"><ele>502.0</ele><time>2026-05-01T14:45:50.876Z</time></trkpt><trkpt lat="43.7303746" lon="7.342122"><ele>502.0</ele><time>2026-05-01T14:45:51.876Z</time></trkpt><trkpt lat="43.7302917" lon="7.3422585"><ele>502.0</ele><time>2026-05-01T14:45:52.876Z</time></trkpt><trkpt lat="43.7302171" lon="7.3424092"><ele>502.0</ele><time>2026-05-01T14:45:53.876Z</time></trkpt><trkpt lat="43.7301332" lon="7.3425437"><ele>502.25</ele><time>2026-05-01T14:45:54.876Z</time></trkpt><trkpt lat="43.730012" lon="7.3426802"><ele>502.5</ele><time>2026-05-01T14:45:55.876Z</time></trkpt><trkpt lat="43.7299288" lon="7.342758"><ele>502.75</ele><time>2026-05-01T14:45:56.876Z</time></trkpt><trkpt lat="43.7298189" lon="7.3428843"><ele>503.0</ele><time>2026-05-01T14:45:57.876Z</time></trkpt><trkpt lat="43.7296965" lon="7.342923"><ele>503.0</ele><time>2026-05-01T14:45:58.876Z</time></trkpt><trkpt lat="43.7295434" lon="7.3429254"><ele>503.0</ele><time>2026-05-01T14:45:59.876Z</time></trkpt><trkpt lat="43.7293953" lon="7.3429306"><ele>503.0</ele><time>2026-05-01T14:46:00.876Z</time></trkpt><trkpt lat="43.7292559" lon="7.3429386"><ele>503.0</ele><time>2026-05-01T14:46:01.876Z</time></trkpt><trkpt lat="43.7291198" lon="7.3429988"><ele>499.75</ele><time>2026-05-01T14:46:02.876Z</time></trkpt><trkpt lat="43.7290111" lon="7.3430094"><ele>496.5</ele><time>2026-05-01T14:46:03.876Z</time></trkpt><trkpt lat="43.7288866" lon="7.3430921"><ele>493.25</ele><time>2026-05-01T14:46:04.876Z</time></trkpt><trkpt lat="43.7287244" lon="7.3431696"><ele>490.0</ele><time>2026-05-01T14:46:05.877Z</time></trkpt><trkpt lat="43.7285961" lon="7.3432522"><ele>495.33333333333337</ele><time>2026-05-01T14:46:06.876Z</time></trkpt><trkpt lat="43.7284323" lon="7.3433416"><ele>500.66666666666663</ele><time>2026-05-01T14:46:07.877Z</time></trkpt><trkpt lat="43.728286" lon="7.3434398"><ele>506.0</ele><time>2026-05-01T14:46:08.876Z</time></trkpt><trkpt lat="43.7281078" lon="7.3435377"><ele>506.0</ele><time>2026-05-01T14:46:09.876Z</time></trkpt><trkpt lat="43.7279444" lon="7.3436437"><ele>506.0</ele><time>2026-05-01T14:46:10.876Z</time></trkpt><trkpt lat="43.727832" lon="7.3436981"><ele>506.0</ele><time>2026-05-01T14:46:11.876Z</time></trkpt><trkpt lat="43.7277058" lon="7.3437094"><ele>506.0</ele><time>2026-05-01T14:46:12.876Z</time></trkpt><trkpt lat="43.7275814" lon="7.3437418"><ele>509.25</ele><time>2026-05-01T14:46:13.876Z</time></trkpt><trkpt lat="43.7274344" lon="7.343761"><ele>512.5</ele><time>2026-05-01T14:46:14.876Z</time></trkpt><trkpt lat="43.727289" lon="7.3437724"><ele>515.75</ele><time>2026-05-01T14:46:15.876Z</time></trkpt><trkpt lat="43.7271802" lon="7.3437463"><ele>519.0</ele><time>2026-05-01T14:46:16.876Z</time></trkpt><trkpt lat="43.7270461" lon="7.343733"><ele>519.0</ele><time>2026-05-01T14:46:17.876Z</time></trkpt><trkpt lat="43.7269251" lon="7.3437457"><ele>519.0</ele><time>2026-05-01T14:46:18.876Z</time></trkpt><trkpt lat="43.7268398" lon="7.3437545"><ele>519.0</ele><time>2026-05-01T14:46:19.876Z</time></trkpt><trkpt lat="43.7267289" lon="7.3437531"><ele>519.0</ele><time>2026-05-01T14:46:20.876Z</time></trkpt><trkpt lat="43.7266042" lon="7.3437808"><ele>519.0</ele><time>2026-05-01T14:46:21.876Z</time></trkpt><trkpt lat="43.7264927" lon="7.343784"><ele>518.0</ele><time>2026-05-01T14:46:22.876Z</time></trkpt><trkpt lat="43.7264171" lon="7.3437859"><ele>517.0</ele><time>2026-05-01T14:46:23.876Z</time></trkpt><trkpt lat="43.7263407" lon="7.3437901"><ele>516.0</ele><time>2026-05-01T14:46:24.876Z</time></trkpt><trkpt lat="43.7262636" lon="7.3437869"><ele>515.0</ele><time>2026-05-01T14:46:25.876Z</time></trkpt><trkpt lat="43.7261987" lon="7.3437294"><ele>514.0</ele><time>2026-05-01T14:46:26.876Z</time></trkpt><trkpt lat="43.7261663" lon="7.3436173"><ele>513.0</ele><time>2026-05-01T14:46:27.876Z</time></trkpt><trkpt lat="43.7261197" lon="7.3433608"><ele>513.0</ele><time>2026-05-01T14:46:28.876Z</time></trkpt><trkpt lat="43.7260921" lon="7.3432005"><ele>513.0</ele><time>2026-05-01T14:46:29.877Z</time></trkpt><trkpt lat="43.7260877" lon="7.343011"><ele>513.0</ele><time>2026-05-01T14:46:30.877Z</time></trkpt><trkpt lat="43.7260831" lon="7.3428059"><ele>513.0</ele><time>2026-05-01T14:46:31.876Z</time></trkpt><trkpt lat="43.7260896" lon="7.342604"><ele>513.0</ele><time>2026-05-01T14:46:32.876Z</time></trkpt><trkpt lat="43.7261435" lon="7.3423852"><ele>513.0</ele><time>2026-05-01T14:46:33.876Z</time></trkpt><trkpt lat="43.7262082" lon="7.3421986"><ele>513.0</ele><time>2026-05-01T14:46:34.876Z</time></trkpt><trkpt lat="43.7262751" lon="7.341982"><ele>513.0</ele><time>2026-05-01T14:46:35.877Z</time></trkpt><trkpt lat="43.7263587" lon="7.3417192"><ele>513.0</ele><time>2026-05-01T14:46:36.876Z</time></trkpt><trkpt lat="43.7264315" lon="7.3415252"><ele>513.0</ele><time>2026-05-01T14:46:37.876Z</time></trkpt><trkpt lat="43.7265113" lon="7.341288"><ele>509.33333333333337</ele><time>2026-05-01T14:46:38.876Z</time></trkpt><trkpt lat="43.7265981" lon="7.3410173"><ele>505.6666666666667</ele><time>2026-05-01T14:46:39.876Z</time></trkpt><trkpt lat="43.7267027" lon="7.3408078"><ele>502.0</ele><time>2026-05-01T14:46:40.876Z</time></trkpt><trkpt lat="43.7267799" lon="7.3406169"><ele>500.25</ele><time>2026-05-01T14:46:41.876Z</time></trkpt><trkpt lat="43.7268433" lon="7.3404075"><ele>498.5</ele><time>2026-05-01T14:46:42.876Z</time></trkpt><trkpt lat="43.7268851" lon="7.3402413"><ele>496.75</ele><time>2026-05-01T14:46:43.876Z</time></trkpt><trkpt lat="43.7269556" lon="7.3400582"><ele>495.0</ele><time>2026-05-01T14:46:44.876Z</time></trkpt><trkpt lat="43.7269965" lon="7.3399717"><ele>499.4</ele><time>2026-05-01T14:46:45.876Z</time></trkpt><trkpt lat="43.7270479" lon="7.3398411"><ele>503.8</ele><time>2026-05-01T14:46:46.876Z</time></trkpt><trkpt lat="43.7270667" lon="7.3397069"><ele>508.20000000000005</ele><time>2026-05-01T14:46:47.876Z</time></trkpt><trkpt lat="43.7270965" lon="7.3396"><ele>512.6</ele><time>2026-05-01T14:46:48.876Z</time></trkpt><trkpt lat="43.7270793" lon="7.3394819"><ele>517.0</ele><time>2026-05-01T14:46:49.876Z</time></trkpt><trkpt lat="43.7270003" lon="7.3393488"><ele>513.75</ele><time>2026-05-01T14:46:50.876Z</time></trkpt><trkpt lat="43.7268759" lon="7.3392712"><ele>510.5</ele><time>2026-05-01T14:46:51.876Z</time></trkpt><trkpt lat="43.7267139" lon="7.3391719"><ele>507.25</ele><time>2026-05-01T14:46:52.876Z</time></trkpt><trkpt lat="43.726622" lon="7.3390887"><ele>504.0</ele><time>2026-05-01T14:46:53.876Z</time></trkpt><trkpt lat="43.7265421" lon="7.3390067"><ele>507.0</ele><time>2026-05-01T14:46:54.876Z</time></trkpt><trkpt lat="43.7264634" lon="7.338869"><ele>510.0</ele><time>2026-05-01T14:46:55.876Z</time></trkpt><trkpt lat="43.7264112" lon="7.3387515"><ele>513.0</ele><time>2026-05-01T14:46:56.876Z</time></trkpt><trkpt lat="43.726374" lon="7.3385701"><ele>516.0</ele><time>2026-05-01T14:46:57.876Z</time></trkpt><trkpt lat="43.7263431" lon="7.3383999"><ele>516.0</ele><time>2026-05-01T14:46:58.876Z</time></trkpt><trkpt lat="43.7263501" lon="7.3382429"><ele>516.0</ele><time>2026-05-01T14:46:59.876Z</time></trkpt><trkpt lat="43.7262645" lon="7.3380232"><ele>516.0</ele><time>2026-05-01T14:47:00.876Z</time></trkpt><trkpt lat="43.7262025" lon="7.3377476"><ele>518.3333333333334</ele><time>2026-05-01T14:47:01.876Z</time></trkpt><trkpt lat="43.7261294" lon="7.337515"><ele>520.6666666666667</ele><time>2026-05-01T14:47:02.876Z</time></trkpt><trkpt lat="43.7260619" lon="7.3372626"><ele>523.0</ele><time>2026-05-01T14:47:03.876Z</time></trkpt><trkpt lat="43.7260076" lon="7.3370518"><ele>514.6666666666667</ele><time>2026-05-01T14:47:04.876Z</time></trkpt><trkpt lat="43.7259352" lon="7.3368359"><ele>506.33333333333337</ele><time>2026-05-01T14:47:05.876Z</time></trkpt><trkpt lat="43.7258465" lon="7.3366615"><ele>498.0</ele><time>2026-05-01T14:47:06.876Z</time></trkpt><trkpt lat="43.7257669" lon="7.3364629"><ele>501.5</ele><time>2026-05-01T14:47:07.876Z</time></trkpt><trkpt lat="43.7256865" lon="7.3362819"><ele>505.0</ele><time>2026-05-01T14:47:08.876Z</time></trkpt><trkpt lat="43.7256435" lon="7.3361044"><ele>508.5</ele><time>2026-05-01T14:47:09.876Z</time></trkpt><trkpt lat="43.725587" lon="7.3359154"><ele>512.0</ele><time>2026-05-01T14:47:10.876Z</time></trkpt><trkpt lat="43.7254752" lon="7.3357422"><ele>512.0</ele><time>2026-05-01T14:47:11.876Z</time></trkpt><trkpt lat="43.7254007" lon="7.3356844"><ele>512.0</ele><time>2026-05-01T14:47:12.876Z</time></trkpt><trkpt lat="43.7252689" lon="7.3356464"><ele>512.0</ele><time>2026-05-01T14:47:14.876Z</time></trkpt><trkpt lat="43.7252052" lon="7.3356991"><ele>512.0</ele><time>2026-05-01T14:47:15.876Z</time></trkpt><trkpt lat="43.7251053" lon="7.3359006"><ele>510.3333333333333</ele><time>2026-05-01T14:47:16.876Z</time></trkpt><trkpt lat="43.7250453" lon="7.3359832"><ele>508.66666666666663</ele><time>2026-05-01T14:47:17.876Z</time></trkpt><trkpt lat="43.7249633" lon="7.3362348"><ele>507.0</ele><time>2026-05-01T14:47:18.876Z</time></trkpt><trkpt lat="43.7248566" lon="7.3364447"><ele>502.75</ele><time>2026-05-01T14:47:19.876Z</time></trkpt><trkpt lat="43.7247631" lon="7.3365957"><ele>498.5</ele><time>2026-05-01T14:47:20.876Z</time></trkpt><trkpt lat="43.724705" lon="7.3367662"><ele>494.25</ele><time>2026-05-01T14:47:21.876Z</time></trkpt><trkpt lat="43.7245692" lon="7.3368856"><ele>490.0</ele><time>2026-05-01T14:47:22.876Z</time></trkpt><trkpt lat="43.7244333" lon="7.3369575"><ele>491.8</ele><time>2026-05-01T14:47:23.876Z</time></trkpt><trkpt lat="43.7243374" lon="7.3369789"><ele>493.6</ele><time>2026-05-01T14:47:24.877Z</time></trkpt><trkpt lat="43.7242414" lon="7.3369369"><ele>495.4</ele><time>2026-05-01T14:47:25.876Z</time></trkpt><trkpt lat="43.7241533" lon="7.3368873"><ele>497.2</ele><time>2026-05-01T14:47:26.876Z</time></trkpt><trkpt lat="43.7240354" lon="7.3368065"><ele>499.0</ele><time>2026-05-01T14:47:27.876Z</time></trkpt><trkpt lat="43.7238989" lon="7.3366895"><ele>499.0</ele><time>2026-05-01T14:47:28.876Z</time></trkpt><trkpt lat="43.7237364" lon="7.336622"><ele>499.0</ele><time>2026-05-01T14:47:29.876Z</time></trkpt><trkpt lat="43.7236005" lon="7.3365216"><ele>499.0</ele><time>2026-05-01T14:47:30.876Z</time></trkpt><trkpt lat="43.7235014" lon="7.3364315"><ele>499.0</ele><time>2026-05-01T14:47:31.876Z</time></trkpt><trkpt lat="43.7233728" lon="7.3363456"><ele>497.0</ele><time>2026-05-01T14:47:32.876Z</time></trkpt><trkpt lat="43.7232592" lon="7.3362374"><ele>495.0</ele><time>2026-05-01T14:47:33.876Z</time></trkpt><trkpt lat="43.7232076" lon="7.3361352"><ele>493.0</ele><time>2026-05-01T14:47:34.876Z</time></trkpt><trkpt lat="43.7231608" lon="7.3360014"><ele>491.0</ele><time>2026-05-01T14:47:35.876Z</time></trkpt><trkpt lat="43.723069" lon="7.3357229"><ele>493.3333333333333</ele><time>2026-05-01T14:47:36.876Z</time></trkpt><trkpt lat="43.7230085" lon="7.3354703"><ele>495.66666666666663</ele><time>2026-05-01T14:47:37.876Z</time></trkpt><trkpt lat="43.7229627" lon="7.3352464"><ele>498.0</ele><time>2026-05-01T14:47:38.876Z</time></trkpt><trkpt lat="43.7228946" lon="7.3350353"><ele>498.0</ele><time>2026-05-01T14:47:39.876Z</time></trkpt><trkpt lat="43.7228299" lon="7.3347576"><ele>498.0</ele><time>2026-05-01T14:47:40.876Z</time></trkpt><trkpt lat="43.722802" lon="7.3345909"><ele>498.0</ele><time>2026-05-01T14:47:41.876Z</time></trkpt><trkpt lat="43.7227779" lon="7.3344154"><ele>494.59999999999997</ele><time>2026-05-01T14:47:42.876Z</time></trkpt><trkpt lat="43.7227175" lon="7.3342462"><ele>491.19999999999993</ele><time>2026-05-01T14:47:43.876Z</time></trkpt><trkpt lat="43.7226535" lon="7.3341404"><ele>487.8</ele><time>2026-05-01T14:47:44.877Z</time></trkpt><trkpt lat="43.7225788" lon="7.334044"><ele>484.4</ele><time>2026-05-01T14:47:45.876Z</time></trkpt><trkpt lat="43.7224913" lon="7.3339898"><ele>481.0</ele><time>2026-05-01T14:47:46.876Z</time></trkpt><trkpt lat="43.7223959" lon="7.3340064"><ele>481.0</ele><time>2026-05-01T14:47:47.877Z</time></trkpt><trkpt lat="43.7222893" lon="7.3340833"><ele>481.0</ele><time>2026-05-01T14:47:48.876Z</time></trkpt><trkpt lat="43.7221768" lon="7.3342304"><ele>481.0</ele><time>2026-05-01T14:47:49.876Z</time></trkpt><trkpt lat="43.7220717" lon="7.3343344"><ele>481.0</ele><time>2026-05-01T14:47:50.876Z</time></trkpt><trkpt lat="43.7219307" lon="7.3344324"><ele>478.25</ele><time>2026-05-01T14:47:51.876Z</time></trkpt><trkpt lat="43.7218001" lon="7.3345195"><ele>475.5</ele><time>2026-05-01T14:47:52.876Z</time></trkpt><trkpt lat="43.7216972" lon="7.3345672"><ele>472.75</ele><time>2026-05-01T14:47:53.877Z</time></trkpt><trkpt lat="43.7216085" lon="7.3346003"><ele>470.0</ele><time>2026-05-01T14:47:54.876Z</time></trkpt><trkpt lat="43.7214729" lon="7.334488"><ele>470.0</ele><time>2026-05-01T14:47:55.876Z</time></trkpt><trkpt lat="43.7214165" lon="7.3343577"><ele>470.0</ele><time>2026-05-01T14:47:56.876Z</time></trkpt><trkpt lat="43.7213355" lon="7.3341927"><ele>470.0</ele><time>2026-05-01T14:47:57.876Z</time></trkpt><trkpt lat="43.7212562" lon="7.3340217"><ele>470.0</ele><time>2026-05-01T14:47:58.876Z</time></trkpt><trkpt lat="43.7211569" lon="7.3337919"><ele>464.66666666666663</ele><time>2026-05-01T14:47:59.876Z</time></trkpt><trkpt lat="43.7210728" lon="7.3335618"><ele>459.33333333333337</ele><time>2026-05-01T14:48:00.876Z</time></trkpt><trkpt lat="43.7209904" lon="7.3333218"><ele>454.0</ele><time>2026-05-01T14:48:01.876Z</time></trkpt><trkpt lat="43.720861" lon="7.333159"><ele>460.33333333333337</ele><time>2026-05-01T14:48:02.876Z</time></trkpt><trkpt lat="43.7207725" lon="7.3329841"><ele>466.66666666666663</ele><time>2026-05-01T14:48:03.876Z</time></trkpt><trkpt lat="43.7206636" lon="7.3328226"><ele>473.0</ele><time>2026-05-01T14:48:04.876Z</time></trkpt><trkpt lat="43.7205528" lon="7.3326908"><ele>473.0</ele><time>2026-05-01T14:48:05.876Z</time></trkpt><trkpt lat="43.720443" lon="7.3324964"><ele>473.0</ele><time>2026-05-01T14:48:06.876Z</time></trkpt><trkpt lat="43.7203207" lon="7.3323394"><ele>473.0</ele><time>2026-05-01T14:48:07.876Z</time></trkpt><trkpt lat="43.7202283" lon="7.3321753"><ele>464.66666666666663</ele><time>2026-05-01T14:48:08.876Z</time></trkpt><trkpt lat="43.7201046" lon="7.3319682"><ele>456.33333333333337</ele><time>2026-05-01T14:48:09.877Z</time></trkpt><trkpt lat="43.7200262" lon="7.3318044"><ele>448.0</ele><time>2026-05-01T14:48:10.878Z</time></trkpt><trkpt lat="43.7199544" lon="7.331664"><ele>448.0</ele><time>2026-05-01T14:48:11.878Z</time></trkpt><trkpt lat="43.7198554" lon="7.3315512"><ele>448.0</ele><time>2026-05-01T14:48:12.878Z</time></trkpt><trkpt lat="43.7198223" lon="7.3313389"><ele>448.0</ele><time>2026-05-01T14:48:13.875Z</time></trkpt><trkpt lat="43.71978" lon="7.331144"><ele>448.0</ele><time>2026-05-01T14:48:14.877Z</time></trkpt><trkpt lat="43.7197637" lon="7.3309181"><ele>448.5</ele><time>2026-05-01T14:48:15.877Z</time></trkpt><trkpt lat="43.7197458" lon="7.3307511"><ele>449.0</ele><time>2026-05-01T14:48:16.876Z</time></trkpt><trkpt lat="43.7197512" lon="7.3306006"><ele>449.5</ele><time>2026-05-01T14:48:17.876Z</time></trkpt><trkpt lat="43.7198026" lon="7.330423"><ele>450.0</ele><time>2026-05-01T14:48:18.876Z</time></trkpt><trkpt lat="43.7198141" lon="7.3301991"><ele>445.66666666666663</ele><time>2026-05-01T14:48:19.876Z</time></trkpt><trkpt lat="43.7198799" lon="7.3300027"><ele>441.3333333333333</ele><time>2026-05-01T14:48:20.876Z</time></trkpt><trkpt lat="43.7199174" lon="7.3298043"><ele>437.0</ele><time>2026-05-01T14:48:21.876Z</time></trkpt><trkpt lat="43.7199916" lon="7.3295799"><ele>436.6</ele><time>2026-05-01T14:48:22.876Z</time></trkpt><trkpt lat="43.7200772" lon="7.3295129"><ele>436.20000000000005</ele><time>2026-05-01T14:48:23.876Z</time></trkpt><trkpt lat="43.7201366" lon="7.3294157"><ele>435.8</ele><time>2026-05-01T14:48:24.876Z</time></trkpt><trkpt lat="43.7201394" lon="7.329315"><ele>435.4</ele><time>2026-05-01T14:48:25.877Z</time></trkpt><trkpt lat="43.7200632" lon="7.329193"><ele>435.0</ele><time>2026-05-01T14:48:27.876Z</time></trkpt><trkpt lat="43.7199953" lon="7.3290579"><ele>435.0</ele><time>2026-05-01T14:48:28.876Z</time></trkpt><trkpt lat="43.7199288" lon="7.3290034"><ele>435.0</ele><time>2026-05-01T14:48:29.876Z</time></trkpt><trkpt lat="43.7198217" lon="7.3288622"><ele>435.0</ele><time>2026-05-01T14:48:30.876Z</time></trkpt><trkpt lat="43.7196724" lon="7.3287116"><ele>435.0</ele><time>2026-05-01T14:48:31.876Z</time></trkpt><trkpt lat="43.719529" lon="7.3286376"><ele>432.25</ele><time>2026-05-01T14:48:32.876Z</time></trkpt><trkpt lat="43.7194125" lon="7.3285369"><ele>429.5</ele><time>2026-05-01T14:48:33.876Z</time></trkpt><trkpt lat="43.7193233" lon="7.328406"><ele>426.75</ele><time>2026-05-01T14:48:34.876Z</time></trkpt><trkpt lat="43.7192253" lon="7.3282571"><ele>424.0</ele><time>2026-05-01T14:48:35.876Z</time></trkpt><trkpt lat="43.7191736" lon="7.3280602"><ele>425.5</ele><time>2026-05-01T14:48:36.876Z</time></trkpt><trkpt lat="43.7191006" lon="7.3278883"><ele>427.0</ele><time>2026-05-01T14:48:37.877Z</time></trkpt><trkpt lat="43.7190524" lon="7.3276992"><ele>428.5</ele><time>2026-05-01T14:48:38.876Z</time></trkpt><trkpt lat="43.718976" lon="7.3275388"><ele>430.0</ele><time>2026-05-01T14:48:39.876Z</time></trkpt><trkpt lat="43.7189361" lon="7.3273744"><ele>433.25</ele><time>2026-05-01T14:48:40.876Z</time></trkpt><trkpt lat="43.7188784" lon="7.3272067"><ele>436.5</ele><time>2026-05-01T14:48:41.876Z</time></trkpt><trkpt lat="43.7188307" lon="7.3270621"><ele>439.75</ele><time>2026-05-01T14:48:42.876Z</time></trkpt><trkpt lat="43.7187241" lon="7.3269636"><ele>443.0</ele><time>2026-05-01T14:48:43.876Z</time></trkpt><trkpt lat="43.7186129" lon="7.3268268"><ele>440.2</ele><time>2026-05-01T14:48:44.876Z</time></trkpt><trkpt lat="43.7185117" lon="7.3267559"><ele>437.4</ele><time>2026-05-01T14:48:45.876Z</time></trkpt><trkpt lat="43.7184229" lon="7.3266504"><ele>434.59999999999997</ele><time>2026-05-01T14:48:46.876Z</time></trkpt><trkpt lat="43.7183316" lon="7.3265741"><ele>431.79999999999995</ele><time>2026-05-01T14:48:47.876Z</time></trkpt><trkpt lat="43.7182452" lon="7.3264787"><ele>429.0</ele><time>2026-05-01T14:48:48.877Z</time></trkpt><trkpt lat="43.7181799" lon="7.3263801"><ele>429.0</ele><time>2026-05-01T14:48:49.876Z</time></trkpt><trkpt lat="43.7180687" lon="7.3263251"><ele>429.0</ele><time>2026-05-01T14:48:51.876Z</time></trkpt><trkpt lat="43.7180139" lon="7.3262248"><ele>429.0</ele><time>2026-05-01T14:48:53.876Z</time></trkpt><trkpt lat="43.7179488" lon="7.3261625"><ele>429.0</ele><time>2026-05-01T14:48:54.876Z</time></trkpt><trkpt lat="43.7178773" lon="7.3260206"><ele>429.0</ele><time>2026-05-01T14:48:55.876Z</time></trkpt><trkpt lat="43.7177811" lon="7.3258525"><ele>425.75</ele><time>2026-05-01T14:48:56.876Z</time></trkpt><trkpt lat="43.7177059" lon="7.3257232"><ele>422.5</ele><time>2026-05-01T14:48:57.876Z</time></trkpt><trkpt lat="43.7176315" lon="7.325611"><ele>419.25</ele><time>2026-05-01T14:48:58.876Z</time></trkpt><trkpt lat="43.717534" lon="7.3254826"><ele>416.0</ele><time>2026-05-01T14:48:59.876Z</time></trkpt><trkpt lat="43.7174395" lon="7.3253561"><ele>416.0</ele><time>2026-05-01T14:49:00.876Z</time></trkpt><trkpt lat="43.7173641" lon="7.3252589"><ele>416.0</ele><time>2026-05-01T14:49:01.876Z</time></trkpt><trkpt lat="43.7173019" lon="7.3251099"><ele>416.0</ele><time>2026-05-01T14:49:02.876Z</time></trkpt><trkpt lat="43.7172165" lon="7.3249731"><ele>416.0</ele><time>2026-05-01T14:49:03.876Z</time></trkpt><trkpt lat="43.7171399" lon="7.3248392"><ele>417.75</ele><time>2026-05-01T14:49:04.876Z</time></trkpt><trkpt lat="43.717071" lon="7.3246739"><ele>419.5</ele><time>2026-05-01T14:49:05.876Z</time></trkpt><trkpt lat="43.7170157" lon="7.3245473"><ele>421.25</ele><time>2026-05-01T14:49:06.876Z</time></trkpt><trkpt lat="43.7170583" lon="7.324332"><ele>423.0</ele><time>2026-05-01T14:49:07.876Z</time></trkpt><trkpt lat="43.7170205" lon="7.3241638"><ele>423.0</ele><time>2026-05-01T14:49:08.876Z</time></trkpt><trkpt lat="43.71699" lon="7.3239762"><ele>423.0</ele><time>2026-05-01T14:49:09.876Z</time></trkpt><trkpt lat="43.7169653" lon="7.3237931"><ele>423.0</ele><time>2026-05-01T14:49:10.876Z</time></trkpt><trkpt lat="43.7169941" lon="7.3236927"><ele>423.0</ele><time>2026-05-01T14:49:11.876Z</time></trkpt><trkpt lat="43.7169583" lon="7.3235496"><ele>423.0</ele><time>2026-05-01T14:49:12.876Z</time></trkpt><trkpt lat="43.7169134" lon="7.3233925"><ele>423.0</ele><time>2026-05-01T14:49:13.876Z</time></trkpt><trkpt lat="43.7168864" lon="7.3232366"><ele>423.0</ele><time>2026-05-01T14:49:14.876Z</time></trkpt><trkpt lat="43.716854" lon="7.3230839"><ele>423.0</ele><time>2026-05-01T14:49:15.876Z</time></trkpt><trkpt lat="43.7168204" lon="7.322926"><ele>416.0</ele><time>2026-05-01T14:49:16.876Z</time></trkpt><trkpt lat="43.7167815" lon="7.3227246"><ele>409.0</ele><time>2026-05-01T14:49:17.876Z</time></trkpt><trkpt lat="43.7167292" lon="7.3225233"><ele>402.0</ele><time>2026-05-01T14:49:18.876Z</time></trkpt><trkpt lat="43.7167249" lon="7.3223971"><ele>395.0</ele><time>2026-05-01T14:49:19.876Z</time></trkpt><trkpt lat="43.7166842" lon="7.3222706"><ele>394.0</ele><time>2026-05-01T14:49:20.876Z</time></trkpt><trkpt lat="43.7166053" lon="7.3220916"><ele>393.0</ele><time>2026-05-01T14:49:21.876Z</time></trkpt><trkpt lat="43.7165495" lon="7.3219564"><ele>392.0</ele><time>2026-05-01T14:49:22.876Z</time></trkpt><trkpt lat="43.7165139" lon="7.3218169"><ele>391.0</ele><time>2026-05-01T14:49:23.876Z</time></trkpt><trkpt lat="43.7165015" lon="7.3217053"><ele>391.0</ele><time>2026-05-01T14:49:24.876Z</time></trkpt><trkpt lat="43.7164974" lon="7.3215917"><ele>391.0</ele><time>2026-05-01T14:49:25.877Z</time></trkpt><trkpt lat="43.7165226" lon="7.3214382"><ele>391.0</ele><time>2026-05-01T14:49:26.876Z</time></trkpt><trkpt lat="43.7165256" lon="7.3213173"><ele>391.0</ele><time>2026-05-01T14:49:27.876Z</time></trkpt><trkpt lat="43.7165654" lon="7.3211593"><ele>391.0</ele><time>2026-05-01T14:49:28.876Z</time></trkpt><trkpt lat="43.7166735" lon="7.3209455"><ele>388.0</ele><time>2026-05-01T14:49:29.876Z</time></trkpt><trkpt lat="43.7167237" lon="7.3207462"><ele>385.0</ele><time>2026-05-01T14:49:30.876Z</time></trkpt><trkpt lat="43.7167603" lon="7.3205591"><ele>382.0</ele><time>2026-05-01T14:49:31.876Z</time></trkpt><trkpt lat="43.716775" lon="7.3203384"><ele>378.66666666666663</ele><time>2026-05-01T14:49:32.876Z</time></trkpt><trkpt lat="43.7167834" lon="7.3200759"><ele>375.3333333333333</ele><time>2026-05-01T14:49:33.876Z</time></trkpt><trkpt lat="43.7168089" lon="7.3198571"><ele>372.0</ele><time>2026-05-01T14:49:34.876Z</time></trkpt><trkpt lat="43.7168424" lon="7.319602"><ele>371.0</ele><time>2026-05-01T14:49:35.876Z</time></trkpt><trkpt lat="43.7168341" lon="7.3194182"><ele>370.0</ele><time>2026-05-01T14:49:36.876Z</time></trkpt><trkpt lat="43.7168291" lon="7.3192186"><ele>369.0</ele><time>2026-05-01T14:49:37.876Z</time></trkpt><trkpt lat="43.7168215" lon="7.3190184"><ele>368.0</ele><time>2026-05-01T14:49:38.876Z</time></trkpt><trkpt lat="43.7168158" lon="7.3188493"><ele>366.0</ele><time>2026-05-01T14:49:39.876Z</time></trkpt><trkpt lat="43.7168121" lon="7.3186139"><ele>364.0</ele><time>2026-05-01T14:49:40.876Z</time></trkpt><trkpt lat="43.7168318" lon="7.3184859"><ele>362.0</ele><time>2026-05-01T14:49:41.876Z</time></trkpt><trkpt lat="43.7168389" lon="7.3182743"><ele>360.0</ele><time>2026-05-01T14:49:42.876Z</time></trkpt><trkpt lat="43.7168365" lon="7.318051"><ele>357.75</ele><time>2026-05-01T14:49:43.876Z</time></trkpt><trkpt lat="43.7168505" lon="7.3178933"><ele>355.5</ele><time>2026-05-01T14:49:44.876Z</time></trkpt><trkpt lat="43.7168637" lon="7.3177059"><ele>353.25</ele><time>2026-05-01T14:49:45.876Z</time></trkpt><trkpt lat="43.7168671" lon="7.3175308"><ele>351.0</ele><time>2026-05-01T14:49:46.876Z</time></trkpt><trkpt lat="43.7168867" lon="7.3173022"><ele>363.66666666666663</ele><time>2026-05-01T14:49:47.876Z</time></trkpt><trkpt lat="43.7169182" lon="7.3170718"><ele>376.3333333333333</ele><time>2026-05-01T14:49:48.876Z</time></trkpt><trkpt lat="43.7169542" lon="7.316899"><ele>389.0</ele><time>2026-05-01T14:49:49.877Z</time></trkpt><trkpt lat="43.7169575" lon="7.3166424"><ele>386.66666666666663</ele><time>2026-05-01T14:49:50.876Z</time></trkpt><trkpt lat="43.716938" lon="7.3163691"><ele>384.3333333333333</ele><time>2026-05-01T14:49:51.876Z</time></trkpt><trkpt lat="43.7169488" lon="7.3161515"><ele>382.0</ele><time>2026-05-01T14:49:52.876Z</time></trkpt><trkpt lat="43.7169469" lon="7.3159358"><ele>382.0</ele><time>2026-05-01T14:49:53.876Z</time></trkpt><trkpt lat="43.7169375" lon="7.3157199"><ele>382.0</ele><time>2026-05-01T14:49:54.876Z</time></trkpt><trkpt lat="43.7168897" lon="7.3154211"><ele>382.0</ele><time>2026-05-01T14:49:55.876Z</time></trkpt><trkpt lat="43.7168949" lon="7.3152142"><ele>367.0</ele><time>2026-05-01T14:49:56.876Z</time></trkpt><trkpt lat="43.7168612" lon="7.3149777"><ele>352.0</ele><time>2026-05-01T14:49:57.876Z</time></trkpt><trkpt lat="43.7168233" lon="7.314729"><ele>337.0</ele><time>2026-05-01T14:49:58.876Z</time></trkpt><trkpt lat="43.7167562" lon="7.3145287"><ele>337.0</ele><time>2026-05-01T14:49:59.876Z</time></trkpt><trkpt lat="43.7167205" lon="7.3143272"><ele>337.0</ele><time>2026-05-01T14:50:00.876Z</time></trkpt><trkpt lat="43.7166877" lon="7.3141228"><ele>337.0</ele><time>2026-05-01T14:50:01.876Z</time></trkpt><trkpt lat="43.716698" lon="7.3139373"><ele>337.0</ele><time>2026-05-01T14:50:02.876Z</time></trkpt><trkpt lat="43.7167023" lon="7.3137413"><ele>337.0</ele><time>2026-05-01T14:50:03.876Z</time></trkpt><trkpt lat="43.7166905" lon="7.3135206"><ele>337.0</ele><time>2026-05-01T14:50:04.876Z</time></trkpt><trkpt lat="43.7166745" lon="7.3133422"><ele>337.0</ele><time>2026-05-01T14:50:05.877Z</time></trkpt><trkpt lat="43.7166586" lon="7.3131475"><ele>337.0</ele><time>2026-05-01T14:50:06.877Z</time></trkpt><trkpt lat="43.7166701" lon="7.3129388"><ele>337.0</ele><time>2026-05-01T14:50:07.876Z</time></trkpt><trkpt lat="43.7167207" lon="7.3127229"><ele>337.0</ele><time>2026-05-01T14:50:08.876Z</time></trkpt><trkpt lat="43.7167768" lon="7.3125359"><ele>337.0</ele><time>2026-05-01T14:50:09.876Z</time></trkpt><trkpt lat="43.7168022" lon="7.3123295"><ele>338.6</ele><time>2026-05-01T14:50:10.876Z</time></trkpt><trkpt lat="43.7168673" lon="7.3121771"><ele>340.20000000000005</ele><time>2026-05-01T14:50:11.876Z</time></trkpt><trkpt lat="43.7169275" lon="7.3120447"><ele>341.8</ele><time>2026-05-01T14:50:12.877Z</time></trkpt><trkpt lat="43.7169857" lon="7.311961"><ele>343.4</ele><time>2026-05-01T14:50:13.876Z</time></trkpt><trkpt lat="43.7170192" lon="7.3118523"><ele>345.0</ele><time>2026-05-01T14:50:14.876Z</time></trkpt><trkpt lat="43.7170327" lon="7.3117406"><ele>340.8</ele><time>2026-05-01T14:50:15.876Z</time></trkpt><trkpt lat="43.7170607" lon="7.3116"><ele>336.6</ele><time>2026-05-01T14:50:16.876Z</time></trkpt><trkpt lat="43.717079" lon="7.3114671"><ele>332.4</ele><time>2026-05-01T14:50:17.876Z</time></trkpt><trkpt lat="43.7170669" lon="7.3113169"><ele>328.2</ele><time>2026-05-01T14:50:19.877Z</time></trkpt><trkpt lat="43.7170617" lon="7.3112109"><ele>324.0</ele><time>2026-05-01T14:50:20.876Z</time></trkpt><trkpt lat="43.7170918" lon="7.3110438"><ele>324.0</ele><time>2026-05-01T14:50:21.876Z</time></trkpt><trkpt lat="43.717115" lon="7.3109253"><ele>324.0</ele><time>2026-05-01T14:50:22.876Z</time></trkpt><trkpt lat="43.7171295" lon="7.3108067"><ele>324.0</ele><time>2026-05-01T14:50:23.876Z</time></trkpt><trkpt lat="43.7172291" lon="7.3107464"><ele>324.0</ele><time>2026-05-01T14:50:25.876Z</time></trkpt><trkpt lat="43.7173052" lon="7.3107298"><ele>324.0</ele><time>2026-05-01T14:50:26.876Z</time></trkpt><trkpt lat="43.7174404" lon="7.3106187"><ele>324.0</ele><time>2026-05-01T14:50:27.876Z</time></trkpt><trkpt lat="43.7176055" lon="7.3105885"><ele>324.0</ele><time>2026-05-01T14:50:29.876Z</time></trkpt><trkpt lat="43.7176918" lon="7.3105378"><ele>324.0</ele><time>2026-05-01T14:50:30.876Z</time></trkpt><trkpt lat="43.717776" lon="7.3105282"><ele>324.0</ele><time>2026-05-01T14:50:31.876Z</time></trkpt><trkpt lat="43.7178911" lon="7.3104666"><ele>324.4</ele><time>2026-05-01T14:50:32.876Z</time></trkpt><trkpt lat="43.7179554" lon="7.3104447"><ele>324.79999999999995</ele><time>2026-05-01T14:50:35.877Z</time></trkpt><trkpt lat="43.7178787" lon="7.3104062"><ele>325.20000000000005</ele><time>2026-05-01T14:50:47.876Z</time></trkpt><trkpt lat="43.7177913" lon="7.3104119"><ele>325.6</ele><time>2026-05-01T14:50:50.876Z</time></trkpt><trkpt lat="43.7176831" lon="7.3104366"><ele>326.0</ele><time>2026-05-01T14:50:52.876Z</time></trkpt><trkpt lat="43.7175544" lon="7.3104776"><ele>325.6666666666667</ele><time>2026-05-01T14:50:53.876Z</time></trkpt><trkpt lat="43.7174475" lon="7.3104315"><ele>325.33333333333337</ele><time>2026-05-01T14:50:55.876Z</time></trkpt><trkpt lat="43.7173836" lon="7.3104267"><ele>325.0</ele><time>2026-05-01T14:50:56.876Z</time></trkpt><trkpt lat="43.7173205" lon="7.3104626"><ele>324.6666666666667</ele><time>2026-05-01T14:50:57.876Z</time></trkpt><trkpt lat="43.7172484" lon="7.3104865"><ele>324.3333333333333</ele><time>2026-05-01T14:50:58.876Z</time></trkpt><trkpt lat="43.7171487" lon="7.3105708"><ele>324.0</ele><time>2026-05-01T14:50:59.876Z</time></trkpt><trkpt lat="43.7170662" lon="7.3107117"><ele>324.0</ele><time>2026-05-01T14:51:00.876Z</time></trkpt><trkpt lat="43.7170313" lon="7.310877"><ele>324.0</ele><time>2026-05-01T14:51:01.876Z</time></trkpt><trkpt lat="43.7170096" lon="7.3110113"><ele>324.0</ele><time>2026-05-01T14:51:02.876Z</time></trkpt><trkpt lat="43.71701" lon="7.3111787"><ele>324.0</ele><time>2026-05-01T14:51:03.876Z</time></trkpt><trkpt lat="43.7169989" lon="7.3113933"><ele>323.25</ele><time>2026-05-01T14:51:04.876Z</time></trkpt><trkpt lat="43.7169128" lon="7.3115625"><ele>322.5</ele><time>2026-05-01T14:51:05.876Z</time></trkpt><trkpt lat="43.7168694" lon="7.3117126"><ele>321.75</ele><time>2026-05-01T14:51:06.876Z</time></trkpt><trkpt lat="43.7168679" lon="7.3119224"><ele>321.0</ele><time>2026-05-01T14:51:07.876Z</time></trkpt><trkpt lat="43.716842" lon="7.312039"><ele>323.5</ele><time>2026-05-01T14:51:08.876Z</time></trkpt><trkpt lat="43.716815" lon="7.3121482"><ele>326.0</ele><time>2026-05-01T14:51:09.876Z</time></trkpt><trkpt lat="43.7168251" lon="7.3122617"><ele>328.5</ele><time>2026-05-01T14:51:11.876Z</time></trkpt><trkpt lat="43.7168447" lon="7.312385"><ele>331.0</ele><time>2026-05-01T14:51:13.876Z</time></trkpt><trkpt lat="43.716904" lon="7.3124301"><ele>333.5</ele><time>2026-05-01T14:51:15.876Z</time></trkpt><trkpt lat="43.7169739" lon="7.31246"><ele>336.0</ele><time>2026-05-01T14:51:17.876Z</time></trkpt><trkpt lat="43.7172584" lon="7.312259"><ele>333.0</ele><time>2026-05-01T14:51:26.876Z</time></trkpt><trkpt lat="43.7173602" lon="7.3121872"><ele>330.0</ele><time>2026-05-01T14:51:27.876Z</time></trkpt><trkpt lat="43.7174474" lon="7.312108"><ele>327.0</ele><time>2026-05-01T14:51:28.876Z</time></trkpt><trkpt lat="43.7175407" lon="7.3120619"><ele>324.0</ele><time>2026-05-01T14:51:29.876Z</time></trkpt><trkpt lat="43.7176352" lon="7.3120304"><ele>321.0</ele><time>2026-05-01T14:51:30.876Z</time></trkpt><trkpt lat="43.717732" lon="7.3119942"><ele>320.2</ele><time>2026-05-01T14:51:31.876Z</time></trkpt><trkpt lat="43.7178533" lon="7.3119722"><ele>319.40000000000003</ele><time>2026-05-01T14:51:32.876Z</time></trkpt><trkpt lat="43.7179418" lon="7.3119264"><ele>318.6</ele><time>2026-05-01T14:51:33.876Z</time></trkpt><trkpt lat="43.7180293" lon="7.3118496"><ele>317.8</ele><time>2026-05-01T14:51:34.876Z</time></trkpt><trkpt lat="43.7181353" lon="7.3117793"><ele>317.0</ele><time>2026-05-01T14:51:35.876Z</time></trkpt><trkpt lat="43.7182396" lon="7.311729"><ele>317.0</ele><time>2026-05-01T14:51:36.876Z</time></trkpt><trkpt lat="43.7183539" lon="7.3116676"><ele>317.0</ele><time>2026-05-01T14:51:37.876Z</time></trkpt><trkpt lat="43.7184487" lon="7.311612"><ele>317.0</ele><time>2026-05-01T14:51:38.876Z</time></trkpt><trkpt lat="43.7185265" lon="7.3115598"><ele>317.0</ele><time>2026-05-01T14:51:39.876Z</time></trkpt><trkpt lat="43.7186126" lon="7.3115244"><ele>317.0</ele><time>2026-05-01T14:51:40.876Z</time></trkpt><trkpt lat="43.7186851" lon="7.311437"><ele>315.6</ele><time>2026-05-01T14:51:41.876Z</time></trkpt><trkpt lat="43.7187469" lon="7.3113701"><ele>314.2</ele><time>2026-05-01T14:51:42.876Z</time></trkpt><trkpt lat="43.7188399" lon="7.3113092"><ele>312.8</ele><time>2026-05-01T14:51:43.876Z</time></trkpt><trkpt lat="43.7189426" lon="7.3112132"><ele>311.4</ele><time>2026-05-01T14:51:44.876Z</time></trkpt><trkpt lat="43.7190631" lon="7.3111531"><ele>310.0</ele><time>2026-05-01T14:51:45.876Z</time></trkpt><trkpt lat="43.7191867" lon="7.3111224"><ele>310.0</ele><time>2026-05-01T14:51:46.876Z</time></trkpt><trkpt lat="43.7192791" lon="7.3111083"><ele>310.0</ele><time>2026-05-01T14:51:47.876Z</time></trkpt><trkpt lat="43.7193759" lon="7.3110968"><ele>310.0</ele><time>2026-05-01T14:51:48.877Z</time></trkpt><trkpt lat="43.7194951" lon="7.3110681"><ele>310.0</ele><time>2026-05-01T14:51:49.876Z</time></trkpt><trkpt lat="43.7196076" lon="7.3110449"><ele>310.0</ele><time>2026-05-01T14:51:50.876Z</time></trkpt><trkpt lat="43.7197186" lon="7.3110419"><ele>309.8</ele><time>2026-05-01T14:51:51.876Z</time></trkpt><trkpt lat="43.7198002" lon="7.3110154"><ele>309.6</ele><time>2026-05-01T14:51:52.876Z</time></trkpt><trkpt lat="43.719903" lon="7.3109973"><ele>309.4</ele><time>2026-05-01T14:51:53.876Z</time></trkpt><trkpt lat="43.7199974" lon="7.310942"><ele>309.2</ele><time>2026-05-01T14:51:54.876Z</time></trkpt><trkpt lat="43.7201145" lon="7.310866"><ele>309.0</ele><time>2026-05-01T14:51:55.876Z</time></trkpt><trkpt lat="43.7201591" lon="7.3108014"><ele>309.0</ele><time>2026-05-01T14:51:56.876Z</time></trkpt><trkpt lat="43.7202061" lon="7.3107143"><ele>309.0</ele><time>2026-05-01T14:51:57.876Z</time></trkpt><trkpt lat="43.7202321" lon="7.3105717"><ele>309.0</ele><time>2026-05-01T14:51:58.876Z</time></trkpt><trkpt lat="43.7202599" lon="7.3104562"><ele>309.0</ele><time>2026-05-01T14:51:59.876Z</time></trkpt><trkpt lat="43.7202997" lon="7.310338"><ele>309.0</ele><time>2026-05-01T14:52:00.876Z</time></trkpt><trkpt lat="43.7203436" lon="7.3102479"><ele>309.0</ele><time>2026-05-01T14:52:01.876Z</time></trkpt><trkpt lat="43.7203761" lon="7.3101421"><ele>308.59999999999997</ele><time>2026-05-01T14:52:02.876Z</time></trkpt><trkpt lat="43.7204246" lon="7.3100124"><ele>308.2</ele><time>2026-05-01T14:52:03.876Z</time></trkpt><trkpt lat="43.7204477" lon="7.309915"><ele>307.79999999999995</ele><time>2026-05-01T14:52:04.876Z</time></trkpt><trkpt lat="43.7204987" lon="7.3097861"><ele>307.4</ele><time>2026-05-01T14:52:05.876Z</time></trkpt><trkpt lat="43.7205318" lon="7.3096892"><ele>307.0</ele><time>2026-05-01T14:52:06.877Z</time></trkpt><trkpt lat="43.7205956" lon="7.3095397"><ele>305.0</ele><time>2026-05-01T14:52:07.876Z</time></trkpt><trkpt lat="43.720649" lon="7.3094078"><ele>303.0</ele><time>2026-05-01T14:52:08.876Z</time></trkpt><trkpt lat="43.720715" lon="7.3092624"><ele>301.0</ele><time>2026-05-01T14:52:09.876Z</time></trkpt><trkpt lat="43.7208133" lon="7.3091622"><ele>299.0</ele><time>2026-05-01T14:52:10.876Z</time></trkpt><trkpt lat="43.7208976" lon="7.3090518"><ele>299.0</ele><time>2026-05-01T14:52:11.876Z</time></trkpt><trkpt lat="43.7209777" lon="7.3089323"><ele>299.0</ele><time>2026-05-01T14:52:12.876Z</time></trkpt><trkpt lat="43.7210548" lon="7.3087139"><ele>299.0</ele><time>2026-05-01T14:52:13.876Z</time></trkpt><trkpt lat="43.7211459" lon="7.3085724"><ele>299.0</ele><time>2026-05-01T14:52:14.876Z</time></trkpt><trkpt lat="43.7212433" lon="7.3084207"><ele>297.0</ele><time>2026-05-01T14:52:15.876Z</time></trkpt><trkpt lat="43.7213329" lon="7.3083082"><ele>295.0</ele><time>2026-05-01T14:52:16.877Z</time></trkpt><trkpt lat="43.7214225" lon="7.3082303"><ele>293.0</ele><time>2026-05-01T14:52:17.876Z</time></trkpt><trkpt lat="43.7214971" lon="7.3081066"><ele>291.0</ele><time>2026-05-01T14:52:18.876Z</time></trkpt><trkpt lat="43.7215585" lon="7.3079824"><ele>288.8</ele><time>2026-05-01T14:52:19.876Z</time></trkpt><trkpt lat="43.7216064" lon="7.3079207"><ele>286.6</ele><time>2026-05-01T14:52:20.876Z</time></trkpt><trkpt lat="43.7217093" lon="7.3078068"><ele>284.4</ele><time>2026-05-01T14:52:22.876Z</time></trkpt><trkpt lat="43.7217838" lon="7.3077617"><ele>282.2</ele><time>2026-05-01T14:52:23.876Z</time></trkpt><trkpt lat="43.7218442" lon="7.3077086"><ele>280.0</ele><time>2026-05-01T14:52:24.876Z</time></trkpt><trkpt lat="43.7219216" lon="7.3076025"><ele>280.0</ele><time>2026-05-01T14:52:25.876Z</time></trkpt><trkpt lat="43.7220129" lon="7.3075191"><ele>280.0</ele><time>2026-05-01T14:52:26.876Z</time></trkpt><trkpt lat="43.7220619" lon="7.3073839"><ele>280.0</ele><time>2026-05-01T14:52:27.876Z</time></trkpt><trkpt lat="43.7221151" lon="7.3072682"><ele>280.0</ele><time>2026-05-01T14:52:28.876Z</time></trkpt><trkpt lat="43.7221457" lon="7.3071762"><ele>280.0</ele><time>2026-05-01T14:52:29.876Z</time></trkpt><trkpt lat="43.7221698" lon="7.3070861"><ele>276.0</ele><time>2026-05-01T14:52:30.876Z</time></trkpt><trkpt lat="43.7222099" lon="7.3070022"><ele>272.0</ele><time>2026-05-01T14:52:31.877Z</time></trkpt><trkpt lat="43.7223064" lon="7.3069591"><ele>268.0</ele><time>2026-05-01T14:52:33.876Z</time></trkpt><trkpt lat="43.7223789" lon="7.3069278"><ele>264.0</ele><time>2026-05-01T14:52:35.876Z</time></trkpt><trkpt lat="43.7224585" lon="7.3069539"><ele>260.0</ele><time>2026-05-01T14:52:36.876Z</time></trkpt><trkpt lat="43.7225327" lon="7.3070444"><ele>256.0</ele><time>2026-05-01T14:52:37.876Z</time></trkpt><trkpt lat="43.7227033" lon="7.3070636"><ele>254.5</ele><time>2026-05-01T14:52:38.876Z</time></trkpt><trkpt lat="43.7228033" lon="7.3070677"><ele>253.0</ele><time>2026-05-01T14:52:39.876Z</time></trkpt><trkpt lat="43.7229006" lon="7.3070478"><ele>251.5</ele><time>2026-05-01T14:52:40.876Z</time></trkpt><trkpt lat="43.7230146" lon="7.3070214"><ele>250.0</ele><time>2026-05-01T14:52:41.877Z</time></trkpt><trkpt lat="43.723152" lon="7.3070208"><ele>250.0</ele><time>2026-05-01T14:52:43.876Z</time></trkpt><trkpt lat="43.723254" lon="7.3070185"><ele>250.0</ele><time>2026-05-01T14:52:44.876Z</time></trkpt><trkpt lat="43.7233205" lon="7.3070484"><ele>250.0</ele><time>2026-05-01T14:52:45.876Z</time></trkpt><trkpt lat="43.7233977" lon="7.3070962"><ele>250.0</ele><time>2026-05-01T14:52:46.876Z</time></trkpt><trkpt lat="43.723531" lon="7.3071499"><ele>250.0</ele><time>2026-05-01T14:52:47.876Z</time></trkpt><trkpt lat="43.7236437" lon="7.3071854"><ele>250.8</ele><time>2026-05-01T14:52:48.876Z</time></trkpt><trkpt lat="43.7237484" lon="7.3072502"><ele>251.6</ele><time>2026-05-01T14:52:49.876Z</time></trkpt><trkpt lat="43.7238237" lon="7.3072909"><ele>252.39999999999998</ele><time>2026-05-01T14:52:50.876Z</time></trkpt><trkpt lat="43.723886" lon="7.3073664"><ele>253.2</ele><time>2026-05-01T14:52:51.877Z</time></trkpt><trkpt lat="43.7239731" lon="7.3074769"><ele>254.0</ele><time>2026-05-01T14:52:52.876Z</time></trkpt><trkpt lat="43.7240043" lon="7.3075586"><ele>254.0</ele><time>2026-05-01T14:52:53.876Z</time></trkpt><trkpt lat="43.724084" lon="7.3076613"><ele>253.99999999999997</ele><time>2026-05-01T14:52:54.876Z</time></trkpt><trkpt lat="43.7241563" lon="7.307772"><ele>253.99999999999997</ele><time>2026-05-01T14:52:55.876Z</time></trkpt><trkpt lat="43.7242226" lon="7.3079119"><ele>254.0</ele><time>2026-05-01T14:52:56.876Z</time></trkpt><trkpt lat="43.7242566" lon="7.3080382"><ele>254.0</ele><time>2026-05-01T14:52:57.876Z</time></trkpt><trkpt lat="43.7242585" lon="7.3081278"><ele>253.6</ele><time>2026-05-01T14:52:58.876Z</time></trkpt><trkpt lat="43.72426" lon="7.308234"><ele>253.2</ele><time>2026-05-01T14:52:59.876Z</time></trkpt><trkpt lat="43.7241593" lon="7.3082916"><ele>252.79999999999998</ele><time>2026-05-01T14:53:01.876Z</time></trkpt><trkpt lat="43.7240461" lon="7.3083147"><ele>252.39999999999998</ele><time>2026-05-01T14:53:02.876Z</time></trkpt><trkpt lat="43.7239782" lon="7.3083763"><ele>252.0</ele><time>2026-05-01T14:53:03.876Z</time></trkpt><trkpt lat="43.7238927" lon="7.3083956"><ele>252.0</ele><time>2026-05-01T14:53:04.876Z</time></trkpt><trkpt lat="43.7238116" lon="7.3084234"><ele>252.0</ele><time>2026-05-01T14:53:06.876Z</time></trkpt><trkpt lat="43.7237742" lon="7.3085145"><ele>252.0</ele><time>2026-05-01T14:53:07.876Z</time></trkpt><trkpt lat="43.7238135" lon="7.3086516"><ele>252.0</ele><time>2026-05-01T14:53:09.876Z</time></trkpt><trkpt lat="43.7238638" lon="7.3087405"><ele>252.0</ele><time>2026-05-01T14:53:10.876Z</time></trkpt><trkpt lat="43.7239422" lon="7.3088922"><ele>253.25</ele><time>2026-05-01T14:53:11.876Z</time></trkpt><trkpt lat="43.7240195" lon="7.3089715"><ele>254.5</ele><time>2026-05-01T14:53:12.876Z</time></trkpt><trkpt lat="43.7240832" lon="7.3090789"><ele>255.75</ele><time>2026-05-01T14:53:13.876Z</time></trkpt><trkpt lat="43.724182" lon="7.309199"><ele>257.0</ele><time>2026-05-01T14:53:14.876Z</time></trkpt><trkpt lat="43.7243026" lon="7.30934"><ele>257.0</ele><time>2026-05-01T14:53:15.877Z</time></trkpt><trkpt lat="43.7243924" lon="7.3094196"><ele>257.0</ele><time>2026-05-01T14:53:16.876Z</time></trkpt><trkpt lat="43.724501" lon="7.3094665"><ele>257.0</ele><time>2026-05-01T14:53:17.876Z</time></trkpt><trkpt lat="43.7245979" lon="7.3095198"><ele>257.0</ele><time>2026-05-01T14:53:18.876Z</time></trkpt><trkpt lat="43.7246925" lon="7.3095786"><ele>257.0</ele><time>2026-05-01T14:53:19.876Z</time></trkpt><trkpt lat="43.7247664" lon="7.3096406"><ele>249.8</ele><time>2026-05-01T14:53:20.876Z</time></trkpt><trkpt lat="43.7248333" lon="7.3097148"><ele>242.6</ele><time>2026-05-01T14:53:21.876Z</time></trkpt><trkpt lat="43.7248764" lon="7.3097988"><ele>235.40000000000003</ele><time>2026-05-01T14:53:22.876Z</time></trkpt><trkpt lat="43.7248702" lon="7.3099783"><ele>228.20000000000002</ele><time>2026-05-01T14:53:24.876Z</time></trkpt><trkpt lat="43.724837" lon="7.3101509"><ele>221.0</ele><time>2026-05-01T14:53:25.876Z</time></trkpt><trkpt lat="43.7248178" lon="7.3103015"><ele>221.0</ele><time>2026-05-01T14:53:26.876Z</time></trkpt><trkpt lat="43.7247969" lon="7.3104292"><ele>221.00000000000003</ele><time>2026-05-01T14:53:27.876Z</time></trkpt><trkpt lat="43.7247015" lon="7.3105935"><ele>221.00000000000003</ele><time>2026-05-01T14:53:28.876Z</time></trkpt><trkpt lat="43.7246483" lon="7.310715"><ele>221.0</ele><time>2026-05-01T14:53:29.876Z</time></trkpt><trkpt lat="43.724605" lon="7.3108396"><ele>221.0</ele><time>2026-05-01T14:53:30.876Z</time></trkpt><trkpt lat="43.7245654" lon="7.3109767"><ele>225.33333333333334</ele><time>2026-05-01T14:53:31.876Z</time></trkpt><trkpt lat="43.7246027" lon="7.3111413"><ele>229.66666666666669</ele><time>2026-05-01T14:53:33.876Z</time></trkpt><trkpt lat="43.7246308" lon="7.3112784"><ele>234.0</ele><time>2026-05-01T14:53:35.876Z</time></trkpt><trkpt lat="43.7248673" lon="7.311264"><ele>234.0</ele><time>2026-05-01T14:53:38.876Z</time></trkpt><trkpt lat="43.7250405" lon="7.3111477"><ele>234.0</ele><time>2026-05-01T14:53:39.876Z</time></trkpt><trkpt lat="43.7251119" lon="7.3110407"><ele>234.0</ele><time>2026-05-01T14:53:40.877Z</time></trkpt><trkpt lat="43.7251954" lon="7.3109304"><ele>234.0</ele><time>2026-05-01T14:53:41.876Z</time></trkpt><trkpt lat="43.7252634" lon="7.3109081"><ele>230.0</ele><time>2026-05-01T14:53:42.876Z</time></trkpt><trkpt lat="43.7253473" lon="7.3108969"><ele>225.99999999999997</ele><time>2026-05-01T14:53:43.876Z</time></trkpt><trkpt lat="43.7254157" lon="7.310887"><ele>221.99999999999997</ele><time>2026-05-01T14:53:44.876Z</time></trkpt><trkpt lat="43.7255217" lon="7.3108953"><ele>218.0</ele><time>2026-05-01T14:53:45.876Z</time></trkpt><trkpt lat="43.7256384" lon="7.3108832"><ele>214.0</ele><time>2026-05-01T14:53:46.876Z</time></trkpt><trkpt lat="43.7257202" lon="7.310897"><ele>214.0</ele><time>2026-05-01T14:53:47.876Z</time></trkpt><trkpt lat="43.7258394" lon="7.310876"><ele>214.0</ele><time>2026-05-01T14:53:48.876Z</time></trkpt><trkpt lat="43.7260315" lon="7.310858"><ele>214.0</ele><time>2026-05-01T14:53:49.876Z</time></trkpt><trkpt lat="43.7261668" lon="7.310821"><ele>211.5</ele><time>2026-05-01T14:53:50.877Z</time></trkpt><trkpt lat="43.726322" lon="7.3107985"><ele>209.0</ele><time>2026-05-01T14:53:51.876Z</time></trkpt><trkpt lat="43.7264142" lon="7.310742"><ele>206.5</ele><time>2026-05-01T14:53:52.876Z</time></trkpt><trkpt lat="43.7264968" lon="7.3105986"><ele>204.0</ele><time>2026-05-01T14:53:53.876Z</time></trkpt><trkpt lat="43.7265761" lon="7.3105169"><ele>204.0</ele><time>2026-05-01T14:53:54.876Z</time></trkpt><trkpt lat="43.7266442" lon="7.3104423"><ele>204.0</ele><time>2026-05-01T14:53:55.876Z</time></trkpt><trkpt lat="43.7267502" lon="7.310435"><ele>204.0</ele><time>2026-05-01T14:53:57.876Z</time></trkpt><trkpt lat="43.7268068" lon="7.3105582"><ele>204.0</ele><time>2026-05-01T14:53:58.876Z</time></trkpt><trkpt lat="43.7268651" lon="7.3106344"><ele>204.0</ele><time>2026-05-01T14:53:59.876Z</time></trkpt><trkpt lat="43.7269237" lon="7.3107018"><ele>202.85714285714286</ele><time>2026-05-01T14:54:00.876Z</time></trkpt><trkpt lat="43.7269912" lon="7.3107407"><ele>201.71428571428572</ele><time>2026-05-01T14:54:01.876Z</time></trkpt><trkpt lat="43.7270731" lon="7.3107589"><ele>200.57142857142856</ele><time>2026-05-01T14:54:02.877Z</time></trkpt><trkpt lat="43.7271371" lon="7.3107081"><ele>199.42857142857144</ele><time>2026-05-01T14:54:03.876Z</time></trkpt><trkpt lat="43.7271593" lon="7.3106196"><ele>198.28571428571428</ele><time>2026-05-01T14:54:04.876Z</time></trkpt><trkpt lat="43.7271432" lon="7.3105175"><ele>197.14285714285714</ele><time>2026-05-01T14:54:05.876Z</time></trkpt><trkpt lat="43.7271182" lon="7.3104296"><ele>196.0</ele><time>2026-05-01T14:54:06.876Z</time></trkpt><trkpt lat="43.7269711" lon="7.3102861"><ele>194.8</ele><time>2026-05-01T14:54:08.876Z</time></trkpt><trkpt lat="43.7268712" lon="7.310203"><ele>193.60000000000002</ele><time>2026-05-01T14:54:09.876Z</time></trkpt><trkpt lat="43.7268487" lon="7.3101216"><ele>192.4</ele><time>2026-05-01T14:54:10.876Z</time></trkpt><trkpt lat="43.726761" lon="7.3100059"><ele>191.2</ele><time>2026-05-01T14:54:12.876Z</time></trkpt><trkpt lat="43.7266326" lon="7.309916"><ele>190.0</ele><time>2026-05-01T14:54:14.876Z</time></trkpt><trkpt lat="43.7265976" lon="7.3098131"><ele>188.0</ele><time>2026-05-01T14:54:16.876Z</time></trkpt><trkpt lat="43.7266289" lon="7.3097065"><ele>186.0</ele><time>2026-05-01T14:54:18.876Z</time></trkpt><trkpt lat="43.726758" lon="7.3097033"><ele>184.0</ele><time>2026-05-01T14:54:20.876Z</time></trkpt><trkpt lat="43.7268247" lon="7.3097391"><ele>182.0</ele><time>2026-05-01T14:54:21.876Z</time></trkpt><trkpt lat="43.7269853" lon="7.309906"><ele>182.0</ele><time>2026-05-01T14:54:23.876Z</time></trkpt><trkpt lat="43.727059" lon="7.3099758"><ele>182.0</ele><time>2026-05-01T14:54:24.876Z</time></trkpt><trkpt lat="43.7271478" lon="7.3100288"><ele>182.0</ele><time>2026-05-01T14:54:25.876Z</time></trkpt><trkpt lat="43.7272416" lon="7.3100989"><ele>182.0</ele><time>2026-05-01T14:54:26.876Z</time></trkpt><trkpt lat="43.7273405" lon="7.3101048"><ele>182.0</ele><time>2026-05-01T14:54:27.876Z</time></trkpt><trkpt lat="43.7274341" lon="7.3100901"><ele>182.0</ele><time>2026-05-01T14:54:28.877Z</time></trkpt><trkpt lat="43.7275154" lon="7.3100642"><ele>182.0</ele><time>2026-05-01T14:54:29.876Z</time></trkpt><trkpt lat="43.7276046" lon="7.3100034"><ele>182.0</ele><time>2026-05-01T14:54:30.876Z</time></trkpt><trkpt lat="43.7276556" lon="7.3099266"><ele>182.0</ele><time>2026-05-01T14:54:31.876Z</time></trkpt><trkpt lat="43.7277117" lon="7.3098514"><ele>182.0</ele><time>2026-05-01T14:54:32.876Z</time></trkpt><trkpt lat="43.7278564" lon="7.3098531"><ele>179.33333333333331</ele><time>2026-05-01T14:54:34.876Z</time></trkpt><trkpt lat="43.7279449" lon="7.3098844"><ele>176.66666666666666</ele><time>2026-05-01T14:54:35.876Z</time></trkpt><trkpt lat="43.7280215" lon="7.3099663"><ele>174.0</ele><time>2026-05-01T14:54:37.876Z</time></trkpt><trkpt lat="43.7280832" lon="7.3100378"><ele>171.33333333333334</ele><time>2026-05-01T14:54:38.876Z</time></trkpt><trkpt lat="43.7281227" lon="7.3101132"><ele>168.66666666666669</ele><time>2026-05-01T14:54:39.876Z</time></trkpt><trkpt lat="43.728178" lon="7.3102126"><ele>166.0</ele><time>2026-05-01T14:54:40.876Z</time></trkpt><trkpt lat="43.72824" lon="7.310276"><ele>166.0</ele><time>2026-05-01T14:54:41.876Z</time></trkpt><trkpt lat="43.7282901" lon="7.3103605"><ele>166.0</ele><time>2026-05-01T14:54:42.877Z</time></trkpt><trkpt lat="43.7282333" lon="7.3102855"><ele>166.0</ele><time>2026-05-01T14:54:43.876Z</time></trkpt><trkpt lat="43.7282967" lon="7.3101938"><ele>166.0</ele><time>2026-05-01T14:54:45.876Z</time></trkpt><trkpt lat="43.7282966" lon="7.3100482"><ele>166.0</ele><time>2026-05-01T14:54:47.876Z</time></trkpt><trkpt lat="43.7282903" lon="7.3099561"><ele>166.0</ele><time>2026-05-01T14:54:48.876Z</time></trkpt><trkpt lat="43.7282565" lon="7.3098703"><ele>166.0</ele><time>2026-05-01T14:54:49.876Z</time></trkpt><trkpt lat="43.7282166" lon="7.3097624"><ele>166.0</ele><time>2026-05-01T14:54:50.876Z</time></trkpt><trkpt lat="43.7281994" lon="7.3096702"><ele>166.0</ele><time>2026-05-01T14:54:51.876Z</time></trkpt><trkpt lat="43.7281219" lon="7.309599"><ele>166.0</ele><time>2026-05-01T14:54:52.876Z</time></trkpt><trkpt lat="43.7280278" lon="7.3095426"><ele>166.0</ele><time>2026-05-01T14:54:53.876Z</time></trkpt><trkpt lat="43.7279496" lon="7.3094954"><ele>166.0</ele><time>2026-05-01T14:54:55.876Z</time></trkpt><trkpt lat="43.7278735" lon="7.3094086"><ele>162.4</ele><time>2026-05-01T14:54:57.877Z</time></trkpt><trkpt lat="43.7277978" lon="7.3092948"><ele>158.8</ele><time>2026-05-01T14:54:59.876Z</time></trkpt><trkpt lat="43.7278778" lon="7.3093763"><ele>155.20000000000002</ele><time>2026-05-01T14:55:02.876Z</time></trkpt><trkpt lat="43.7279425" lon="7.3093954"><ele>151.60000000000002</ele><time>2026-05-01T14:55:03.876Z</time></trkpt><trkpt lat="43.7280576" lon="7.3094236"><ele>148.0</ele><time>2026-05-01T14:55:04.876Z</time></trkpt><trkpt lat="43.7281746" lon="7.3094467"><ele>148.0</ele><time>2026-05-01T14:55:05.876Z</time></trkpt><trkpt lat="43.728344" lon="7.3094734"><ele>148.0</ele><time>2026-05-01T14:55:07.876Z</time></trkpt><trkpt lat="43.7284205" lon="7.3095524"><ele>148.0</ele><time>2026-05-01T14:55:08.876Z</time></trkpt><trkpt lat="43.7284904" lon="7.3095988"><ele>148.0</ele><time>2026-05-01T14:55:09.876Z</time></trkpt><trkpt lat="43.7285331" lon="7.309716"><ele>148.0</ele><time>2026-05-01T14:55:10.877Z</time></trkpt><trkpt lat="43.7286276" lon="7.3098309"><ele>147.75</ele><time>2026-05-01T14:55:11.876Z</time></trkpt><trkpt lat="43.7286676" lon="7.3100289"><ele>147.5</ele><time>2026-05-01T14:55:12.876Z</time></trkpt><trkpt lat="43.7287263" lon="7.3101372"><ele>147.25</ele><time>2026-05-01T14:55:13.876Z</time></trkpt><trkpt lat="43.728787" lon="7.3102918"><ele>147.0</ele><time>2026-05-01T14:55:14.876Z</time></trkpt><trkpt lat="43.7288302" lon="7.3104214"><ele>147.0</ele><time>2026-05-01T14:55:15.876Z</time></trkpt><trkpt lat="43.7288894" lon="7.3105451"><ele>147.0</ele><time>2026-05-01T14:55:16.876Z</time></trkpt><trkpt lat="43.7289198" lon="7.3106565"><ele>147.0</ele><time>2026-05-01T14:55:17.876Z</time></trkpt><trkpt lat="43.7289826" lon="7.3107728"><ele>147.0</ele><time>2026-05-01T14:55:18.876Z</time></trkpt><trkpt lat="43.7290769" lon="7.3107975"><ele>147.0</ele><time>2026-05-01T14:55:20.876Z</time></trkpt><trkpt lat="43.7291227" lon="7.3106566"><ele>147.0</ele><time>2026-05-01T14:55:22.876Z</time></trkpt><trkpt lat="43.7291858" lon="7.3105469"><ele>147.0</ele><time>2026-05-01T14:55:23.876Z</time></trkpt><trkpt lat="43.7293007" lon="7.3104134"><ele>147.0</ele><time>2026-05-01T14:55:24.876Z</time></trkpt><trkpt lat="43.7293748" lon="7.3102276"><ele>147.0</ele><time>2026-05-01T14:55:25.876Z</time></trkpt><trkpt lat="43.7293667" lon="7.3101369"><ele>147.75</ele><time>2026-05-01T14:55:26.876Z</time></trkpt><trkpt lat="43.7294356" lon="7.3100583"><ele>148.5</ele><time>2026-05-01T14:55:27.876Z</time></trkpt><trkpt lat="43.7295168" lon="7.3099859"><ele>149.25</ele><time>2026-05-01T14:55:28.876Z</time></trkpt><trkpt lat="43.7296055" lon="7.3098083"><ele>150.0</ele><time>2026-05-01T14:55:29.876Z</time></trkpt><trkpt lat="43.729681" lon="7.3096951"><ele>143.8</ele><time>2026-05-01T14:55:30.876Z</time></trkpt><trkpt lat="43.7297273" lon="7.3096195"><ele>137.6</ele><time>2026-05-01T14:55:31.876Z</time></trkpt><trkpt lat="43.729814" lon="7.3095371"><ele>131.4</ele><time>2026-05-01T14:55:32.876Z</time></trkpt><trkpt lat="43.7299047" lon="7.30948"><ele>125.2</ele><time>2026-05-01T14:55:33.877Z</time></trkpt><trkpt lat="43.7299916" lon="7.3094422"><ele>119.0</ele><time>2026-05-01T14:55:34.876Z</time></trkpt><trkpt lat="43.7301224" lon="7.3094048"><ele>119.0</ele><time>2026-05-01T14:55:35.876Z</time></trkpt><trkpt lat="43.7302043" lon="7.3093679"><ele>119.0</ele><time>2026-05-01T14:55:36.876Z</time></trkpt><trkpt lat="43.7303033" lon="7.3093207"><ele>119.0</ele><time>2026-05-01T14:55:37.876Z</time></trkpt><trkpt lat="43.7304224" lon="7.3092969"><ele>119.0</ele><time>2026-05-01T14:55:38.876Z</time></trkpt><trkpt lat="43.7305421" lon="7.3092382"><ele>119.0</ele><time>2026-05-01T14:55:39.876Z</time></trkpt><trkpt lat="43.7306473" lon="7.3093211"><ele>117.25</ele><time>2026-05-01T14:55:40.876Z</time></trkpt><trkpt lat="43.7307431" lon="7.3093289"><ele>115.5</ele><time>2026-05-01T14:55:41.876Z</time></trkpt><trkpt lat="43.7309528" lon="7.3094057"><ele>113.75</ele><time>2026-05-01T14:55:42.876Z</time></trkpt><trkpt lat="43.7310203" lon="7.3094567"><ele>112.0</ele><time>2026-05-01T14:55:43.876Z</time></trkpt><trkpt lat="43.7311147" lon="7.3095263"><ele>110.19999999999999</ele><time>2026-05-01T14:55:44.876Z</time></trkpt><trkpt lat="43.731155" lon="7.3096492"><ele>108.39999999999999</ele><time>2026-05-01T14:55:46.876Z</time></trkpt><trkpt lat="43.7311717" lon="7.3097594"><ele>106.6</ele><time>2026-05-01T14:55:47.876Z</time></trkpt><trkpt lat="43.7312168" lon="7.309907"><ele>104.80000000000001</ele><time>2026-05-01T14:55:48.876Z</time></trkpt><trkpt lat="43.731273" lon="7.3100376"><ele>103.0</ele><time>2026-05-01T14:55:49.876Z</time></trkpt><trkpt lat="43.7313314" lon="7.3101259"><ele>103.00000000000001</ele><time>2026-05-01T14:55:50.876Z</time></trkpt><trkpt lat="43.7314189" lon="7.3101997"><ele>103.0</ele><time>2026-05-01T14:55:53.876Z</time></trkpt><trkpt lat="43.7315137" lon="7.3102445"><ele>103.0</ele><time>2026-05-01T14:55:54.876Z</time></trkpt><trkpt lat="43.7315736" lon="7.310272"><ele>103.0</ele><time>2026-05-01T14:55:55.876Z</time></trkpt><trkpt lat="43.7316252" lon="7.3103509"><ele>103.00000000000001</ele><time>2026-05-01T14:55:56.876Z</time></trkpt><trkpt lat="43.7316747" lon="7.3104401"><ele>103.0</ele><time>2026-05-01T14:55:57.876Z</time></trkpt><trkpt lat="43.7317273" lon="7.3105526"><ele>105.2</ele><time>2026-05-01T14:55:58.876Z</time></trkpt><trkpt lat="43.7317972" lon="7.3106804"><ele>107.4</ele><time>2026-05-01T14:55:59.876Z</time></trkpt><trkpt lat="43.7318206" lon="7.3107681"><ele>109.60000000000001</ele><time>2026-05-01T14:56:00.876Z</time></trkpt><trkpt lat="43.7319131" lon="7.3108906"><ele>111.80000000000001</ele><time>2026-05-01T14:56:02.876Z</time></trkpt><trkpt lat="43.7319762" lon="7.3108523"><ele>114.0</ele><time>2026-05-01T14:56:04.876Z</time></trkpt><trkpt lat="43.7319734" lon="7.3107365"><ele>115.0</ele><time>2026-05-01T14:56:06.876Z</time></trkpt><trkpt lat="43.7320395" lon="7.3106453"><ele>116.0</ele><time>2026-05-01T14:56:07.876Z</time></trkpt><trkpt lat="43.732112" lon="7.3105019"><ele>117.0</ele><time>2026-05-01T14:56:08.876Z</time></trkpt><trkpt lat="43.7321944" lon="7.3103375"><ele>118.0</ele><time>2026-05-01T14:56:10.876Z</time></trkpt><trkpt lat="43.7322588" lon="7.3102464"><ele>116.00000000000001</ele><time>2026-05-01T14:56:11.876Z</time></trkpt><trkpt lat="43.7323323" lon="7.3101694"><ele>114.0</ele><time>2026-05-01T14:56:12.876Z</time></trkpt><trkpt lat="43.7324185" lon="7.3101578"><ele>112.0</ele><time>2026-05-01T14:56:13.876Z</time></trkpt><trkpt lat="43.7324949" lon="7.3101067"><ele>110.0</ele><time>2026-05-01T14:56:14.877Z</time></trkpt><trkpt lat="43.7325678" lon="7.3100803"><ele>108.00000000000001</ele><time>2026-05-01T14:56:15.876Z</time></trkpt><trkpt lat="43.7326301" lon="7.3100637"><ele>106.0</ele><time>2026-05-01T14:56:17.876Z</time></trkpt><trkpt lat="43.7326402" lon="7.3099545"><ele>106.0</ele><time>2026-05-01T14:56:20.876Z</time></trkpt><trkpt lat="43.7325947" lon="7.3098655"><ele>106.0</ele><time>2026-05-01T14:56:21.876Z</time></trkpt><trkpt lat="43.7325262" lon="7.3098154"><ele>106.0</ele><time>2026-05-01T14:56:22.876Z</time></trkpt><trkpt lat="43.7324532" lon="7.3097475"><ele>106.0</ele><time>2026-05-01T14:56:23.876Z</time></trkpt><trkpt lat="43.732371" lon="7.3096424"><ele>106.0</ele><time>2026-05-01T14:56:25.876Z</time></trkpt><trkpt lat="43.7323164" lon="7.3094507"><ele>103.6</ele><time>2026-05-01T14:56:27.877Z</time></trkpt><trkpt lat="43.732283" lon="7.3093321"><ele>101.19999999999999</ele><time>2026-05-01T14:56:28.876Z</time></trkpt><trkpt lat="43.7322579" lon="7.3092048"><ele>98.80000000000001</ele><time>2026-05-01T14:56:29.876Z</time></trkpt><trkpt lat="43.7322351" lon="7.3089965"><ele>96.4</ele><time>2026-05-01T14:56:30.877Z</time></trkpt><trkpt lat="43.7322409" lon="7.3088721"><ele>94.0</ele><time>2026-05-01T14:56:31.876Z</time></trkpt><trkpt lat="43.7321869" lon="7.3087062"><ele>91.0</ele><time>2026-05-01T14:56:32.876Z</time></trkpt><trkpt lat="43.7321533" lon="7.3085814"><ele>88.0</ele><time>2026-05-01T14:56:33.876Z</time></trkpt><trkpt lat="43.7321245" lon="7.30843"><ele>85.0</ele><time>2026-05-01T14:56:34.876Z</time></trkpt><trkpt lat="43.7321111" lon="7.3082538"><ele>82.0</ele><time>2026-05-01T14:56:35.876Z</time></trkpt><trkpt lat="43.732075" lon="7.3080878"><ele>80.0</ele><time>2026-05-01T14:56:36.876Z</time></trkpt><trkpt lat="43.7320782" lon="7.3079213"><ele>78.0</ele><time>2026-05-01T14:56:37.876Z</time></trkpt><trkpt lat="43.7320733" lon="7.3077909"><ele>76.0</ele><time>2026-05-01T14:56:38.876Z</time></trkpt><trkpt lat="43.7320806" lon="7.3076422"><ele>74.0</ele><time>2026-05-01T14:56:39.876Z</time></trkpt><trkpt lat="43.7320525" lon="7.307471"><ele>72.0</ele><time>2026-05-01T14:56:40.876Z</time></trkpt><trkpt lat="43.7320808" lon="7.307282"><ele>72.25</ele><time>2026-05-01T14:56:42.876Z</time></trkpt><trkpt lat="43.7321399" lon="7.3070937"><ele>72.5</ele><time>2026-05-01T14:56:44.877Z</time></trkpt><trkpt lat="43.7322476" lon="7.3070804"><ele>72.75</ele><time>2026-05-01T14:56:46.876Z</time></trkpt><trkpt lat="43.7323667" lon="7.3070268"><ele>73.0</ele><time>2026-05-01T14:56:48.876Z</time></trkpt><trkpt lat="43.7324655" lon="7.3069721"><ele>73.0</ele><time>2026-05-01T14:56:50.876Z</time></trkpt><trkpt lat="43.7326463" lon="7.3070322"><ele>73.0</ele><time>2026-05-01T14:56:52.876Z</time></trkpt><trkpt lat="43.7327653" lon="7.3070645"><ele>73.0</ele><time>2026-05-01T14:56:53.876Z</time></trkpt><trkpt lat="43.7329399" lon="7.3070464"><ele>71.5</ele><time>2026-05-01T14:56:54.876Z</time></trkpt><trkpt lat="43.7330829" lon="7.3070623"><ele>70.0</ele><time>2026-05-01T14:56:55.876Z</time></trkpt><trkpt lat="43.733234" lon="7.3070529"><ele>68.5</ele><time>2026-05-01T14:56:56.877Z</time></trkpt><trkpt lat="43.7333532" lon="7.3070179"><ele>67.0</ele><time>2026-05-01T14:56:57.876Z</time></trkpt><trkpt lat="43.7334717" lon="7.3069745"><ele>66.25</ele><time>2026-05-01T14:56:58.877Z</time></trkpt><trkpt lat="43.7335658" lon="7.3069449"><ele>65.5</ele><time>2026-05-01T14:56:59.876Z</time></trkpt><trkpt lat="43.7336707" lon="7.3068608"><ele>64.75</ele><time>2026-05-01T14:57:00.876Z</time></trkpt><trkpt lat="43.733751" lon="7.3068135"><ele>64.0</ele><time>2026-05-01T14:57:01.876Z</time></trkpt><trkpt lat="43.7338677" lon="7.3066884"><ele>64.0</ele><time>2026-05-01T14:57:02.876Z</time></trkpt><trkpt lat="43.7339665" lon="7.3065474"><ele>64.0</ele><time>2026-05-01T14:57:03.876Z</time></trkpt><trkpt lat="43.7340969" lon="7.306451"><ele>64.0</ele><time>2026-05-01T14:57:04.876Z</time></trkpt><trkpt lat="43.7341593" lon="7.3063552"><ele>64.0</ele><time>2026-05-01T14:57:05.876Z</time></trkpt><trkpt lat="43.734258" lon="7.3062696"><ele>63.0</ele><time>2026-05-01T14:57:06.876Z</time></trkpt><trkpt lat="43.734325" lon="7.3061659"><ele>62.00000000000001</ele><time>2026-05-01T14:57:07.877Z</time></trkpt><trkpt lat="43.734405" lon="7.3060487"><ele>61.00000000000001</ele><time>2026-05-01T14:57:08.876Z</time></trkpt><trkpt lat="43.7344979" lon="7.3059487"><ele>60.0</ele><time>2026-05-01T14:57:09.876Z</time></trkpt><trkpt lat="43.7345779" lon="7.3058736"><ele>59.0</ele><time>2026-05-01T14:57:10.877Z</time></trkpt><trkpt lat="43.7346541" lon="7.3058121"><ele>59.0</ele><time>2026-05-01T14:57:11.876Z</time></trkpt><trkpt lat="43.7347393" lon="7.3057589"><ele>59.00000000000001</ele><time>2026-05-01T14:57:12.876Z</time></trkpt><trkpt lat="43.7348437" lon="7.3057104"><ele>59.00000000000001</ele><time>2026-05-01T14:57:13.876Z</time></trkpt><trkpt lat="43.7349374" lon="7.3056448"><ele>59.0</ele><time>2026-05-01T14:57:15.876Z</time></trkpt><trkpt lat="43.7350113" lon="7.3055888"><ele>59.0</ele><time>2026-05-01T14:57:16.876Z</time></trkpt><trkpt lat="43.7351282" lon="7.3055773"><ele>59.0</ele><time>2026-05-01T14:57:18.877Z</time></trkpt><trkpt lat="43.7350624" lon="7.3055949"><ele>59.0</ele><time>2026-05-01T14:57:19.876Z</time></trkpt><trkpt lat="43.7350529" lon="7.3053136"><ele>59.0</ele><time>2026-05-01T14:57:25.876Z</time></trkpt><trkpt lat="43.7349954" lon="7.305223"><ele>59.0</ele><time>2026-05-01T14:57:26.877Z</time></trkpt><trkpt lat="43.7349408" lon="7.3050226"><ele>59.0</ele><time>2026-05-01T14:57:27.877Z</time></trkpt><trkpt lat="43.7348663" lon="7.3048719"><ele>59.0</ele><time>2026-05-01T14:57:28.876Z</time></trkpt><trkpt lat="43.734817" lon="7.3047253"><ele>59.0</ele><time>2026-05-01T14:57:29.876Z</time></trkpt><trkpt lat="43.7347701" lon="7.3045792"><ele>59.0</ele><time>2026-05-01T14:57:30.876Z</time></trkpt><trkpt lat="43.7346837" lon="7.3043905"><ele>58.66666666666667</ele><time>2026-05-01T14:57:31.876Z</time></trkpt><trkpt lat="43.7346477" lon="7.3042202"><ele>58.33333333333333</ele><time>2026-05-01T14:57:32.876Z</time></trkpt><trkpt lat="43.734593" lon="7.3040144"><ele>58.0</ele><time>2026-05-01T14:57:33.876Z</time></trkpt><trkpt lat="43.7345404" lon="7.3037844"><ele>58.0</ele><time>2026-05-01T14:57:34.876Z</time></trkpt><trkpt lat="43.7344811" lon="7.3035764"><ele>58.0</ele><time>2026-05-01T14:57:35.876Z</time></trkpt><trkpt lat="43.7344252" lon="7.3033835"><ele>58.0</ele><time>2026-05-01T14:57:36.876Z</time></trkpt><trkpt lat="43.7344058" lon="7.3032161"><ele>58.0</ele><time>2026-05-01T14:57:37.876Z</time></trkpt><trkpt lat="43.7343761" lon="7.303034"><ele>57.75</ele><time>2026-05-01T14:57:38.876Z</time></trkpt><trkpt lat="43.7343396" lon="7.3028398"><ele>57.5</ele><time>2026-05-01T14:57:39.876Z</time></trkpt><trkpt lat="43.7343009" lon="7.3026576"><ele>57.25</ele><time>2026-05-01T14:57:40.876Z</time></trkpt><trkpt lat="43.7342396" lon="7.3024604"><ele>57.0</ele><time>2026-05-01T14:57:41.876Z</time></trkpt><trkpt lat="43.7341817" lon="7.3022707"><ele>57.0</ele><time>2026-05-01T14:57:42.876Z</time></trkpt><trkpt lat="43.734169" lon="7.3020927"><ele>57.0</ele><time>2026-05-01T14:57:43.876Z</time></trkpt><trkpt lat="43.7341322" lon="7.3018907"><ele>57.0</ele><time>2026-05-01T14:57:44.876Z</time></trkpt><trkpt lat="43.7341123" lon="7.3017283"><ele>57.0</ele><time>2026-05-01T14:57:45.876Z</time></trkpt><trkpt lat="43.7340939" lon="7.3015382"><ele>57.0</ele><time>2026-05-01T14:57:46.876Z</time></trkpt><trkpt lat="43.7340848" lon="7.3014224"><ele>57.0</ele><time>2026-05-01T14:57:47.876Z</time></trkpt><trkpt lat="43.7340623" lon="7.3012546"><ele>57.0</ele><time>2026-05-01T14:57:48.876Z</time></trkpt><trkpt lat="43.7340399" lon="7.3010858"><ele>57.0</ele><time>2026-05-01T14:57:49.876Z</time></trkpt><trkpt lat="43.7340299" lon="7.3009107"><ele>56.66666666666667</ele><time>2026-05-01T14:57:50.876Z</time></trkpt><trkpt lat="43.7339801" lon="7.3006986"><ele>56.333333333333336</ele><time>2026-05-01T14:57:51.876Z</time></trkpt><trkpt lat="43.7339531" lon="7.300488"><ele>56.0</ele><time>2026-05-01T14:57:52.876Z</time></trkpt><trkpt lat="43.7339347" lon="7.3002877"><ele>55.66666666666667</ele><time>2026-05-01T14:57:53.876Z</time></trkpt><trkpt lat="43.7338951" lon="7.3000852"><ele>55.33333333333333</ele><time>2026-05-01T14:57:54.876Z</time></trkpt><trkpt lat="43.7338552" lon="7.2998318"><ele>55.0</ele><time>2026-05-01T14:57:55.876Z</time></trkpt><trkpt lat="43.7338044" lon="7.2995993"><ele>55.0</ele><time>2026-05-01T14:57:56.876Z</time></trkpt><trkpt lat="43.7337827" lon="7.299364"><ele>55.0</ele><time>2026-05-01T14:57:57.876Z</time></trkpt><trkpt lat="43.7337413" lon="7.2991187"><ele>55.0</ele><time>2026-05-01T14:57:58.876Z</time></trkpt><trkpt lat="43.7337121" lon="7.2988741"><ele>55.0</ele><time>2026-05-01T14:57:59.876Z</time></trkpt><trkpt lat="43.7336642" lon="7.2986262"><ele>55.0</ele><time>2026-05-01T14:58:00.876Z</time></trkpt><trkpt lat="43.7336398" lon="7.2984618"><ele>55.0</ele><time>2026-05-01T14:58:01.876Z</time></trkpt><trkpt lat="43.7336272" lon="7.2982328"><ele>54.0</ele><time>2026-05-01T14:58:02.876Z</time></trkpt><trkpt lat="43.7336038" lon="7.2980228"><ele>53.0</ele><time>2026-05-01T14:58:03.876Z</time></trkpt><trkpt lat="43.7335724" lon="7.2978236"><ele>52.0</ele><time>2026-05-01T14:58:04.876Z</time></trkpt><trkpt lat="43.7335535" lon="7.2976232"><ele>51.0</ele><time>2026-05-01T14:58:05.876Z</time></trkpt><trkpt lat="43.7335195" lon="7.2974342"><ele>56.0</ele><time>2026-05-01T14:58:06.876Z</time></trkpt><trkpt lat="43.7334922" lon="7.297201"><ele>61.0</ele><time>2026-05-01T14:58:07.876Z</time></trkpt><trkpt lat="43.7334555" lon="7.2970029"><ele>66.0</ele><time>2026-05-01T14:58:08.876Z</time></trkpt><trkpt lat="43.733417" lon="7.2968194"><ele>66.0</ele><time>2026-05-01T14:58:09.876Z</time></trkpt><trkpt lat="43.7334064" lon="7.2965911"><ele>66.0</ele><time>2026-05-01T14:58:10.876Z</time></trkpt><trkpt lat="43.7333966" lon="7.2963793"><ele>66.0</ele><time>2026-05-01T14:58:11.876Z</time></trkpt><trkpt lat="43.7333871" lon="7.2961671"><ele>64.5</ele><time>2026-05-01T14:58:12.876Z</time></trkpt><trkpt lat="43.7333634" lon="7.2959607"><ele>63.0</ele><time>2026-05-01T14:58:13.876Z</time></trkpt><trkpt lat="43.7333584" lon="7.2957564"><ele>61.5</ele><time>2026-05-01T14:58:14.876Z</time></trkpt><trkpt lat="43.7333379" lon="7.2955797"><ele>60.0</ele><time>2026-05-01T14:58:15.876Z</time></trkpt><trkpt lat="43.7333339" lon="7.2954117"><ele>58.0</ele><time>2026-05-01T14:58:16.876Z</time></trkpt><trkpt lat="43.7333167" lon="7.2952346"><ele>56.0</ele><time>2026-05-01T14:58:17.876Z</time></trkpt><trkpt lat="43.7332984" lon="7.2950569"><ele>54.0</ele><time>2026-05-01T14:58:18.876Z</time></trkpt><trkpt lat="43.7332593" lon="7.2948616"><ele>52.0</ele><time>2026-05-01T14:58:19.876Z</time></trkpt><trkpt lat="43.7332116" lon="7.2946382"><ele>51.75</ele><time>2026-05-01T14:58:20.876Z</time></trkpt><trkpt lat="43.7331924" lon="7.2944614"><ele>51.5</ele><time>2026-05-01T14:58:21.876Z</time></trkpt><trkpt lat="43.7331619" lon="7.2942588"><ele>51.25</ele><time>2026-05-01T14:58:22.876Z</time></trkpt><trkpt lat="43.7331637" lon="7.2940401"><ele>51.0</ele><time>2026-05-01T14:58:23.876Z</time></trkpt><trkpt lat="43.733156" lon="7.2938425"><ele>51.66666666666667</ele><time>2026-05-01T14:58:24.876Z</time></trkpt><trkpt lat="43.7331307" lon="7.2936365"><ele>52.333333333333336</ele><time>2026-05-01T14:58:25.877Z</time></trkpt><trkpt lat="43.7331266" lon="7.2934217"><ele>53.0</ele><time>2026-05-01T14:58:26.876Z</time></trkpt><trkpt lat="43.7330945" lon="7.2932224"><ele>52.5</ele><time>2026-05-01T14:58:27.876Z</time></trkpt><trkpt lat="43.7330711" lon="7.2930224"><ele>52.0</ele><time>2026-05-01T14:58:28.876Z</time></trkpt><trkpt lat="43.7330572" lon="7.2928519"><ele>51.5</ele><time>2026-05-01T14:58:29.876Z</time></trkpt><trkpt lat="43.733036" lon="7.292664"><ele>51.0</ele><time>2026-05-01T14:58:30.876Z</time></trkpt><trkpt lat="43.7330306" lon="7.2924851"><ele>51.0</ele><time>2026-05-01T14:58:31.876Z</time></trkpt><trkpt lat="43.733017" lon="7.2923267"><ele>51.0</ele><time>2026-05-01T14:58:32.876Z</time></trkpt><trkpt lat="43.7329809" lon="7.2921567"><ele>51.0</ele><time>2026-05-01T14:58:33.876Z</time></trkpt><trkpt lat="43.7329433" lon="7.291973"><ele>51.0</ele><time>2026-05-01T14:58:34.876Z</time></trkpt><trkpt lat="43.7329193" lon="7.2918404"><ele>50.75</ele><time>2026-05-01T14:58:35.877Z</time></trkpt><trkpt lat="43.732876" lon="7.2917429"><ele>50.5</ele><time>2026-05-01T14:58:36.876Z</time></trkpt><trkpt lat="43.7327963" lon="7.2916108"><ele>50.25</ele><time>2026-05-01T14:58:37.876Z</time></trkpt><trkpt lat="43.7327478" lon="7.2914849"><ele>50.0</ele><time>2026-05-01T14:58:38.876Z</time></trkpt><trkpt lat="43.732684" lon="7.2912842"><ele>50.0</ele><time>2026-05-01T14:58:39.877Z</time></trkpt><trkpt lat="43.7325749" lon="7.2911268"><ele>50.0</ele><time>2026-05-01T14:58:40.876Z</time></trkpt><trkpt lat="43.7324753" lon="7.2909638"><ele>50.0</ele><time>2026-05-01T14:58:41.876Z</time></trkpt><trkpt lat="43.7323789" lon="7.2907865"><ele>50.0</ele><time>2026-05-01T14:58:42.876Z</time></trkpt><trkpt lat="43.7322903" lon="7.2906578"><ele>50.0</ele><time>2026-05-01T14:58:43.876Z</time></trkpt><trkpt lat="43.7322029" lon="7.2904723"><ele>50.0</ele><time>2026-05-01T14:58:44.876Z</time></trkpt><trkpt lat="43.7321474" lon="7.290327"><ele>50.0</ele><time>2026-05-01T14:58:45.876Z</time></trkpt><trkpt lat="43.7321189" lon="7.2902263"><ele>50.0</ele><time>2026-05-01T14:58:46.876Z</time></trkpt><trkpt lat="43.7320653" lon="7.2901031"><ele>50.0</ele><time>2026-05-01T14:58:47.876Z</time></trkpt><trkpt lat="43.7320103" lon="7.2899947"><ele>50.0</ele><time>2026-05-01T14:58:48.876Z</time></trkpt><trkpt lat="43.7319133" lon="7.2898851"><ele>50.0</ele><time>2026-05-01T14:58:49.876Z</time></trkpt><trkpt lat="43.7318474" lon="7.2897679"><ele>50.0</ele><time>2026-05-01T14:58:50.876Z</time></trkpt><trkpt lat="43.7317751" lon="7.2896495"><ele>49.4</ele><time>2026-05-01T14:58:51.876Z</time></trkpt><trkpt lat="43.731709" lon="7.289542"><ele>48.8</ele><time>2026-05-01T14:58:52.876Z</time></trkpt><trkpt lat="43.7316531" lon="7.2894368"><ele>48.2</ele><time>2026-05-01T14:58:53.876Z</time></trkpt><trkpt lat="43.7315754" lon="7.2893183"><ele>47.6</ele><time>2026-05-01T14:58:54.876Z</time></trkpt><trkpt lat="43.73149" lon="7.2891779"><ele>47.0</ele><time>2026-05-01T14:58:55.877Z</time></trkpt><trkpt lat="43.7313988" lon="7.2890653"><ele>47.0</ele><time>2026-05-01T14:58:56.876Z</time></trkpt><trkpt lat="43.7313464" lon="7.2889531"><ele>47.0</ele><time>2026-05-01T14:58:57.876Z</time></trkpt><trkpt lat="43.7312918" lon="7.2888623"><ele>47.0</ele><time>2026-05-01T14:58:58.876Z</time></trkpt><trkpt lat="43.7312218" lon="7.2887911"><ele>47.0</ele><time>2026-05-01T14:58:59.876Z</time></trkpt><trkpt lat="43.7311616" lon="7.288701"><ele>47.0</ele><time>2026-05-01T14:59:00.876Z</time></trkpt><trkpt lat="43.7310314" lon="7.2885387"><ele>47.166666666666664</ele><time>2026-05-01T14:59:03.876Z</time></trkpt><trkpt lat="43.731009" lon="7.2884528"><ele>47.33333333333333</ele><time>2026-05-01T14:59:05.876Z</time></trkpt><trkpt lat="43.7309629" lon="7.2883534"><ele>47.5</ele><time>2026-05-01T14:59:06.876Z</time></trkpt><trkpt lat="43.7308909" lon="7.2882153"><ele>47.666666666666664</ele><time>2026-05-01T14:59:08.876Z</time></trkpt><trkpt lat="43.7308346" lon="7.2881529"><ele>47.833333333333336</ele><time>2026-05-01T14:59:09.876Z</time></trkpt><trkpt lat="43.7308317" lon="7.2880607"><ele>48.0</ele><time>2026-05-01T14:59:10.876Z</time></trkpt><trkpt lat="43.730791" lon="7.2879717"><ele>48.0</ele><time>2026-05-01T14:59:11.876Z</time></trkpt><trkpt lat="43.7307826" lon="7.2878264"><ele>48.0</ele><time>2026-05-01T14:59:13.876Z</time></trkpt><trkpt lat="43.7307742" lon="7.2876297"><ele>48.0</ele><time>2026-05-01T14:59:15.876Z</time></trkpt><trkpt lat="43.7307722" lon="7.287524"><ele>48.0</ele><time>2026-05-01T14:59:16.876Z</time></trkpt><trkpt lat="43.7307625" lon="7.2874282"><ele>48.0</ele><time>2026-05-01T14:59:18.876Z</time></trkpt><trkpt lat="43.7307784" lon="7.2873165"><ele>48.14285714285714</ele><time>2026-05-01T14:59:20.876Z</time></trkpt><trkpt lat="43.7307718" lon="7.2872021"><ele>48.285714285714285</ele><time>2026-05-01T14:59:22.876Z</time></trkpt><trkpt lat="43.7307509" lon="7.2871027"><ele>48.42857142857143</ele><time>2026-05-01T14:59:33.876Z</time></trkpt><trkpt lat="43.7307921" lon="7.2870223"><ele>48.57142857142857</ele><time>2026-05-01T14:59:36.876Z</time></trkpt><trkpt lat="43.7308415" lon="7.2869461"><ele>48.714285714285715</ele><time>2026-05-01T14:59:38.877Z</time></trkpt><trkpt lat="43.7308989" lon="7.2868912"><ele>48.857142857142854</ele><time>2026-05-01T14:59:41.876Z</time></trkpt><trkpt lat="43.7309474" lon="7.2868312"><ele>49.0</ele><time>2026-05-01T14:59:46.876Z</time></trkpt><trkpt lat="43.7310294" lon="7.2867839"><ele>47.666666666666664</ele><time>2026-05-01T14:59:51.876Z</time></trkpt><trkpt lat="43.7312736" lon="7.2867579"><ele>46.33333333333333</ele><time>2026-05-01T15:00:16.876Z</time></trkpt><trkpt lat="43.7313956" lon="7.2866656"><ele>45.0</ele><time>2026-05-01T15:00:17.876Z</time></trkpt><trkpt lat="43.7314837" lon="7.2865833"><ele>45.0</ele><time>2026-05-01T15:00:18.876Z</time></trkpt><trkpt lat="43.7315858" lon="7.286514"><ele>45.0</ele><time>2026-05-01T15:00:19.876Z</time></trkpt><trkpt lat="43.7316877" lon="7.286455"><ele>45.0</ele><time>2026-05-01T15:00:20.876Z</time></trkpt><trkpt lat="43.7318016" lon="7.2864024"><ele>45.0</ele><time>2026-05-01T15:00:21.876Z</time></trkpt><trkpt lat="43.7319011" lon="7.2863292"><ele>45.0</ele><time>2026-05-01T15:00:22.876Z</time></trkpt><trkpt lat="43.7320039" lon="7.2862572"><ele>45.0</ele><time>2026-05-01T15:00:23.876Z</time></trkpt><trkpt lat="43.7320693" lon="7.2861977"><ele>45.0</ele><time>2026-05-01T15:00:24.876Z</time></trkpt><trkpt lat="43.7321449" lon="7.2861391"><ele>45.0</ele><time>2026-05-01T15:00:25.876Z</time></trkpt><trkpt lat="43.7322206" lon="7.2860546"><ele>45.0</ele><time>2026-05-01T15:00:26.876Z</time></trkpt><trkpt lat="43.7322776" lon="7.2860056"><ele>45.0</ele><time>2026-05-01T15:00:27.877Z</time></trkpt><trkpt lat="43.7324051" lon="7.2858342"><ele>45.0</ele><time>2026-05-01T15:00:29.876Z</time></trkpt><trkpt lat="43.7324593" lon="7.2857471"><ele>45.0</ele><time>2026-05-01T15:00:30.876Z</time></trkpt><trkpt lat="43.7325263" lon="7.2856438"><ele>45.0</ele><time>2026-05-01T15:00:31.876Z</time></trkpt><trkpt lat="43.7326523" lon="7.2855528"><ele>45.0</ele><time>2026-05-01T15:00:32.876Z</time></trkpt><trkpt lat="43.7327043" lon="7.285488"><ele>45.0</ele><time>2026-05-01T15:00:33.876Z</time></trkpt><trkpt lat="43.7327978" lon="7.285461"><ele>47.5</ele><time>2026-05-01T15:00:34.876Z</time></trkpt><trkpt lat="43.732906" lon="7.2854355"><ele>50.0</ele><time>2026-05-01T15:00:35.876Z</time></trkpt><trkpt lat="43.7330566" lon="7.2854949"><ele>52.5</ele><time>2026-05-01T15:00:36.876Z</time></trkpt><trkpt lat="43.7331731" lon="7.2854864"><ele>55.0</ele><time>2026-05-01T15:00:37.876Z</time></trkpt><trkpt lat="43.7332969" lon="7.2855146"><ele>55.0</ele><time>2026-05-01T15:00:38.876Z</time></trkpt><trkpt lat="43.7334083" lon="7.2855725"><ele>55.0</ele><time>2026-05-01T15:00:39.877Z</time></trkpt><trkpt lat="43.7334838" lon="7.285605"><ele>55.0</ele><time>2026-05-01T15:00:40.876Z</time></trkpt><trkpt lat="43.7336282" lon="7.2857734"><ele>55.0</ele><time>2026-05-01T15:00:41.876Z</time></trkpt><trkpt lat="43.7337546" lon="7.2859393"><ele>54.666666666666664</ele><time>2026-05-01T15:00:42.876Z</time></trkpt><trkpt lat="43.7337951" lon="7.286168"><ele>54.33333333333333</ele><time>2026-05-01T15:00:43.876Z</time></trkpt><trkpt lat="43.7338573" lon="7.286372"><ele>54.0</ele><time>2026-05-01T15:00:44.876Z</time></trkpt><trkpt lat="43.7339201" lon="7.2865603"><ele>53.33333333333333</ele><time>2026-05-01T15:00:45.876Z</time></trkpt><trkpt lat="43.733964" lon="7.2867703"><ele>52.666666666666664</ele><time>2026-05-01T15:00:46.876Z</time></trkpt><trkpt lat="43.7340379" lon="7.2870171"><ele>52.0</ele><time>2026-05-01T15:00:47.876Z</time></trkpt><trkpt lat="43.7340739" lon="7.2872379"><ele>53.33333333333333</ele><time>2026-05-01T15:00:48.876Z</time></trkpt><trkpt lat="43.7341369" lon="7.2874282"><ele>54.66666666666667</ele><time>2026-05-01T15:00:49.876Z</time></trkpt><trkpt lat="43.7341774" lon="7.2876211"><ele>56.0</ele><time>2026-05-01T15:00:50.876Z</time></trkpt><trkpt lat="43.7342527" lon="7.2878188"><ele>56.0</ele><time>2026-05-01T15:00:51.876Z</time></trkpt><trkpt lat="43.7343147" lon="7.2879964"><ele>56.0</ele><time>2026-05-01T15:00:52.876Z</time></trkpt><trkpt lat="43.734344" lon="7.2881648"><ele>56.0</ele><time>2026-05-01T15:00:53.876Z</time></trkpt><trkpt lat="43.7343701" lon="7.2883464"><ele>56.0</ele><time>2026-05-01T15:00:54.876Z</time></trkpt><trkpt lat="43.7343923" lon="7.288546"><ele>56.199999999999996</ele><time>2026-05-01T15:00:55.877Z</time></trkpt><trkpt lat="43.7343778" lon="7.2886678"><ele>56.39999999999999</ele><time>2026-05-01T15:00:56.876Z</time></trkpt><trkpt lat="43.7343554" lon="7.2888021"><ele>56.6</ele><time>2026-05-01T15:00:57.876Z</time></trkpt><trkpt lat="43.7343311" lon="7.2889159"><ele>56.8</ele><time>2026-05-01T15:00:58.876Z</time></trkpt><trkpt lat="43.7342044" lon="7.2890518"><ele>57.0</ele><time>2026-05-01T15:00:59.876Z</time></trkpt><trkpt lat="43.7341124" lon="7.2891202"><ele>57.0</ele><time>2026-05-01T15:01:00.876Z</time></trkpt><trkpt lat="43.7340209" lon="7.289096"><ele>57.0</ele><time>2026-05-01T15:01:01.876Z</time></trkpt><trkpt lat="43.7339205" lon="7.289041"><ele>57.0</ele><time>2026-05-01T15:01:02.876Z</time></trkpt><trkpt lat="43.7338326" lon="7.288915"><ele>57.0</ele><time>2026-05-01T15:01:03.876Z</time></trkpt><trkpt lat="43.7337273" lon="7.2887569"><ele>57.0</ele><time>2026-05-01T15:01:04.876Z</time></trkpt><trkpt lat="43.7336978" lon="7.2885255"><ele>57.0</ele><time>2026-05-01T15:01:05.876Z</time></trkpt><trkpt lat="43.7337042" lon="7.2883026"><ele>57.0</ele><time>2026-05-01T15:01:06.877Z</time></trkpt><trkpt lat="43.7337156" lon="7.2881252"><ele>56.66666666666667</ele><time>2026-05-01T15:01:07.876Z</time></trkpt><trkpt lat="43.7337215" lon="7.2879043"><ele>56.333333333333336</ele><time>2026-05-01T15:01:08.876Z</time></trkpt><trkpt lat="43.7337478" lon="7.2875752"><ele>56.0</ele><time>2026-05-01T15:01:09.876Z</time></trkpt><trkpt lat="43.7337737" lon="7.2873081"><ele>54.66666666666667</ele><time>2026-05-01T15:01:10.876Z</time></trkpt><trkpt lat="43.7338073" lon="7.2870304"><ele>53.33333333333333</ele><time>2026-05-01T15:01:11.876Z</time></trkpt><trkpt lat="43.7338622" lon="7.2867495"><ele>52.0</ele><time>2026-05-01T15:01:12.876Z</time></trkpt><trkpt lat="43.733891" lon="7.2864899"><ele>52.666666666666664</ele><time>2026-05-01T15:01:13.876Z</time></trkpt><trkpt lat="43.7339123" lon="7.2862155"><ele>53.33333333333333</ele><time>2026-05-01T15:01:14.876Z</time></trkpt><trkpt lat="43.7339118" lon="7.2859917"><ele>54.0</ele><time>2026-05-01T15:01:15.876Z</time></trkpt><trkpt lat="43.7339327" lon="7.2857608"><ele>55.33333333333333</ele><time>2026-05-01T15:01:16.876Z</time></trkpt><trkpt lat="43.7338929" lon="7.2855033"><ele>56.666666666666664</ele><time>2026-05-01T15:01:17.876Z</time></trkpt><trkpt lat="43.7338643" lon="7.2852364"><ele>58.0</ele><time>2026-05-01T15:01:18.876Z</time></trkpt><trkpt lat="43.7338448" lon="7.2849602"><ele>63.0</ele><time>2026-05-01T15:01:19.877Z</time></trkpt><trkpt lat="43.7338153" lon="7.2846866"><ele>68.0</ele><time>2026-05-01T15:01:20.876Z</time></trkpt><trkpt lat="43.7337708" lon="7.2843879"><ele>73.0</ele><time>2026-05-01T15:01:21.876Z</time></trkpt><trkpt lat="43.7336917" lon="7.2840588"><ele>93.5</ele><time>2026-05-01T15:01:22.876Z</time></trkpt><trkpt lat="43.7336517" lon="7.2837383"><ele>114.0</ele><time>2026-05-01T15:01:23.876Z</time></trkpt><trkpt lat="43.7336013" lon="7.2834463"><ele>105.5</ele><time>2026-05-01T15:01:24.876Z</time></trkpt><trkpt lat="43.7335484" lon="7.2831911"><ele>97.0</ele><time>2026-05-01T15:01:25.876Z</time></trkpt><trkpt lat="43.7319075" lon="7.2779181"><ele>109.66666666666667</ele><time>2026-05-01T15:01:44.877Z</time></trkpt><trkpt lat="43.7319025" lon="7.2776445"><ele>122.33333333333334</ele><time>2026-05-01T15:01:45.876Z</time></trkpt><trkpt lat="43.7318543" lon="7.2773654"><ele>135.0</ele><time>2026-05-01T15:01:46.876Z</time></trkpt><trkpt lat="43.7318179" lon="7.2770784"><ele>122.0</ele><time>2026-05-01T15:01:47.876Z</time></trkpt><trkpt lat="43.7321184" lon="7.2714128"><ele>122.0</ele><time>2026-05-01T15:02:05.876Z</time></trkpt><trkpt lat="43.7321911" lon="7.2711232"><ele>122.0</ele><time>2026-05-01T15:02:06.876Z</time></trkpt><trkpt lat="43.7322061" lon="7.2708024"><ele>127.66666666666666</ele><time>2026-05-01T15:02:07.876Z</time></trkpt><trkpt lat="43.7322075" lon="7.2705352"><ele>133.33333333333334</ele><time>2026-05-01T15:02:08.876Z</time></trkpt><trkpt lat="43.7321715" lon="7.2702252"><ele>139.0</ele><time>2026-05-01T15:02:09.876Z</time></trkpt><trkpt lat="43.7320952" lon="7.2698724"><ele>141.0</ele><time>2026-05-01T15:02:10.876Z</time></trkpt><trkpt lat="43.7320306" lon="7.2695589"><ele>143.0</ele><time>2026-05-01T15:02:11.876Z</time></trkpt><trkpt lat="43.7319535" lon="7.269219"><ele>139.5</ele><time>2026-05-01T15:02:12.876Z</time></trkpt><trkpt lat="43.7318793" lon="7.2688762"><ele>136.0</ele><time>2026-05-01T15:02:13.876Z</time></trkpt><trkpt lat="43.7317769" lon="7.2685928"><ele>136.0</ele><time>2026-05-01T15:02:14.876Z</time></trkpt><trkpt lat="43.7316531" lon="7.2682923"><ele>136.0</ele><time>2026-05-01T15:02:15.876Z</time></trkpt><trkpt lat="43.7315225" lon="7.2679564"><ele>139.0</ele><time>2026-05-01T15:02:16.876Z</time></trkpt><trkpt lat="43.7314104" lon="7.2677215"><ele>142.0</ele><time>2026-05-01T15:02:17.876Z</time></trkpt><trkpt lat="43.7312311" lon="7.2674794"><ele>144.5</ele><time>2026-05-01T15:02:18.876Z</time></trkpt><trkpt lat="43.7310452" lon="7.2673035"><ele>147.0</ele><time>2026-05-01T15:02:19.876Z</time></trkpt><trkpt lat="43.7308625" lon="7.2670868"><ele>147.0</ele><time>2026-05-01T15:02:20.877Z</time></trkpt><trkpt lat="43.7306796" lon="7.2668907"><ele>147.0</ele><time>2026-05-01T15:02:21.876Z</time></trkpt><trkpt lat="43.7305039" lon="7.266702"><ele>147.0</ele><time>2026-05-01T15:02:22.876Z</time></trkpt><trkpt lat="43.7303167" lon="7.266502"><ele>147.0</ele><time>2026-05-01T15:02:23.876Z</time></trkpt><trkpt lat="43.7301259" lon="7.2662872"><ele>148.5</ele><time>2026-05-01T15:02:24.876Z</time></trkpt><trkpt lat="43.7299404" lon="7.2660799"><ele>150.0</ele><time>2026-05-01T15:02:25.876Z</time></trkpt><trkpt lat="43.7297613" lon="7.2658803"><ele>150.0</ele><time>2026-05-01T15:02:26.876Z</time></trkpt><trkpt lat="43.7296093" lon="7.2656379"><ele>150.0</ele><time>2026-05-01T15:02:27.876Z</time></trkpt><trkpt lat="43.7294861" lon="7.2653824"><ele>142.0</ele><time>2026-05-01T15:02:28.876Z</time></trkpt><trkpt lat="43.7293636" lon="7.2651081"><ele>134.0</ele><time>2026-05-01T15:02:29.876Z</time></trkpt><trkpt lat="43.7292464" lon="7.26481"><ele>138.66666666666666</ele><time>2026-05-01T15:02:30.876Z</time></trkpt><trkpt lat="43.7291904" lon="7.2645304"><ele>143.33333333333334</ele><time>2026-05-01T15:02:31.876Z</time></trkpt><trkpt lat="43.7291171" lon="7.2642387"><ele>148.0</ele><time>2026-05-01T15:02:32.877Z</time></trkpt><trkpt lat="43.7290641" lon="7.2639272"><ele>149.0</ele><time>2026-05-01T15:02:33.876Z</time></trkpt><trkpt lat="43.7290406" lon="7.2636421"><ele>150.0</ele><time>2026-05-01T15:02:34.876Z</time></trkpt><trkpt lat="43.7289807" lon="7.2632707"><ele>149.5</ele><time>2026-05-01T15:02:35.876Z</time></trkpt><trkpt lat="43.7289194" lon="7.2629016"><ele>149.0</ele><time>2026-05-01T15:02:36.876Z</time></trkpt><trkpt lat="43.7288796" lon="7.2625282"><ele>148.5</ele><time>2026-05-01T15:02:37.876Z</time></trkpt><trkpt lat="43.728823" lon="7.2621473"><ele>148.0</ele><time>2026-05-01T15:02:38.876Z</time></trkpt><trkpt lat="43.7287651" lon="7.2617928"><ele>148.0</ele><time>2026-05-01T15:02:39.876Z</time></trkpt><trkpt lat="43.7287357" lon="7.2614489"><ele>148.0</ele><time>2026-05-01T15:02:40.876Z</time></trkpt><trkpt lat="43.7286919" lon="7.2610911"><ele>145.0</ele><time>2026-05-01T15:02:41.876Z</time></trkpt><trkpt lat="43.7286834" lon="7.2607256"><ele>142.0</ele><time>2026-05-01T15:02:42.876Z</time></trkpt><trkpt lat="43.7286678" lon="7.2603857"><ele>137.5</ele><time>2026-05-01T15:02:43.877Z</time></trkpt><trkpt lat="43.7286546" lon="7.2600212"><ele>133.0</ele><time>2026-05-01T15:02:44.877Z</time></trkpt><trkpt lat="43.7286858" lon="7.259682"><ele>125.5</ele><time>2026-05-01T15:02:45.876Z</time></trkpt><trkpt lat="43.7287409" lon="7.2593066"><ele>118.0</ele><time>2026-05-01T15:02:46.876Z</time></trkpt><trkpt lat="43.7288662" lon="7.2589953"><ele>116.0</ele><time>2026-05-01T15:02:47.876Z</time></trkpt><trkpt lat="43.728933" lon="7.2586395"><ele>114.0</ele><time>2026-05-01T15:02:48.876Z</time></trkpt><trkpt lat="43.7290242" lon="7.2583354"><ele>110.5</ele><time>2026-05-01T15:02:49.876Z</time></trkpt><trkpt lat="43.7291906" lon="7.2580713"><ele>107.0</ele><time>2026-05-01T15:02:50.876Z</time></trkpt><trkpt lat="43.7293487" lon="7.2577933"><ele>108.5</ele><time>2026-05-01T15:02:51.876Z</time></trkpt><trkpt lat="43.7294897" lon="7.2575046"><ele>110.0</ele><time>2026-05-01T15:02:52.876Z</time></trkpt><trkpt lat="43.7296667" lon="7.2572197"><ele>110.0</ele><time>2026-05-01T15:02:53.876Z</time></trkpt><trkpt lat="43.7298282" lon="7.2569542"><ele>110.0</ele><time>2026-05-01T15:02:54.876Z</time></trkpt><trkpt lat="43.7300288" lon="7.2567477"><ele>109.0</ele><time>2026-05-01T15:02:55.876Z</time></trkpt><trkpt lat="43.7302335" lon="7.2565654"><ele>108.0</ele><time>2026-05-01T15:02:56.876Z</time></trkpt><trkpt lat="43.7304179" lon="7.2564056"><ele>108.0</ele><time>2026-05-01T15:02:57.876Z</time></trkpt><trkpt lat="43.730629" lon="7.2563022"><ele>108.0</ele><time>2026-05-01T15:02:58.876Z</time></trkpt><trkpt lat="43.7308446" lon="7.2561775"><ele>108.0</ele><time>2026-05-01T15:02:59.876Z</time></trkpt><trkpt lat="43.7310539" lon="7.2560624"><ele>108.0</ele><time>2026-05-01T15:03:00.877Z</time></trkpt><trkpt lat="43.7312817" lon="7.2559728"><ele>115.0</ele><time>2026-05-01T15:03:01.876Z</time></trkpt><trkpt lat="43.731544" lon="7.2559553"><ele>122.0</ele><time>2026-05-01T15:03:02.876Z</time></trkpt><trkpt lat="43.7317971" lon="7.2558821"><ele>138.0</ele><time>2026-05-01T15:03:03.876Z</time></trkpt><trkpt lat="43.7320339" lon="7.2558095"><ele>154.0</ele><time>2026-05-01T15:03:04.876Z</time></trkpt><trkpt lat="43.7322701" lon="7.2557336"><ele>170.0</ele><time>2026-05-01T15:03:05.876Z</time></trkpt><trkpt lat="43.7344364" lon="7.242162"><ele>166.0</ele><time>2026-05-01T15:03:55.876Z</time></trkpt><trkpt lat="43.7342565" lon="7.241814"><ele>162.0</ele><time>2026-05-01T15:03:56.876Z</time></trkpt><trkpt lat="43.7341293" lon="7.2415039"><ele>169.5</ele><time>2026-05-01T15:03:57.876Z</time></trkpt><trkpt lat="43.7339795" lon="7.2411623"><ele>177.0</ele><time>2026-05-01T15:03:58.876Z</time></trkpt><trkpt lat="43.7338539" lon="7.2408574"><ele>186.33333333333331</ele><time>2026-05-01T15:03:59.876Z</time></trkpt><trkpt lat="43.733733" lon="7.2405874"><ele>195.66666666666666</ele><time>2026-05-01T15:04:00.876Z</time></trkpt><trkpt lat="43.7336473" lon="7.2403533"><ele>205.0</ele><time>2026-05-01T15:04:01.876Z</time></trkpt><trkpt lat="43.7335205" lon="7.2400848"><ele>231.0</ele><time>2026-05-01T15:04:02.876Z</time></trkpt><trkpt lat="43.7287355" lon="7.2343423"><ele>218.0</ele><time>2026-05-01T15:04:30.876Z</time></trkpt><trkpt lat="43.7282984" lon="7.2339438"><ele>218.0</ele><time>2026-05-01T15:04:32.876Z</time></trkpt><trkpt lat="43.7280785" lon="7.2337622"><ele>218.0</ele><time>2026-05-01T15:04:33.876Z</time></trkpt><trkpt lat="43.7278863" lon="7.2335828"><ele>218.0</ele><time>2026-05-01T15:04:34.876Z</time></trkpt><trkpt lat="43.7277325" lon="7.2333903"><ele>218.0</ele><time>2026-05-01T15:04:35.876Z</time></trkpt><trkpt lat="43.7275677" lon="7.2331942"><ele>218.0</ele><time>2026-05-01T15:04:36.876Z</time></trkpt><trkpt lat="43.7274009" lon="7.2329958"><ele>219.0</ele><time>2026-05-01T15:04:37.876Z</time></trkpt><trkpt lat="43.7272477" lon="7.2327791"><ele>220.0</ele><time>2026-05-01T15:04:38.876Z</time></trkpt><trkpt lat="43.7270963" lon="7.2325714"><ele>221.0</ele><time>2026-05-01T15:04:39.877Z</time></trkpt><trkpt lat="43.7269491" lon="7.2323597"><ele>216.0</ele><time>2026-05-01T15:04:40.876Z</time></trkpt><trkpt lat="43.7251581" lon="7.2300098"><ele>216.0</ele><time>2026-05-01T15:04:50.876Z</time></trkpt><trkpt lat="43.7249783" lon="7.2298357"><ele>216.0</ele><time>2026-05-01T15:04:51.876Z</time></trkpt><trkpt lat="43.7248189" lon="7.2296856"><ele>216.0</ele><time>2026-05-01T15:04:52.876Z</time></trkpt><trkpt lat="43.724627" lon="7.2294826"><ele>215.33333333333331</ele><time>2026-05-01T15:04:53.876Z</time></trkpt><trkpt lat="43.7244545" lon="7.2293194"><ele>214.66666666666666</ele><time>2026-05-01T15:04:54.876Z</time></trkpt><trkpt lat="43.724273" lon="7.229141"><ele>214.0</ele><time>2026-05-01T15:04:55.876Z</time></trkpt><trkpt lat="43.7240985" lon="7.2289597"><ele>216.66666666666666</ele><time>2026-05-01T15:04:56.876Z</time></trkpt><trkpt lat="43.7239331" lon="7.2287622"><ele>219.33333333333331</ele><time>2026-05-01T15:04:57.876Z</time></trkpt><trkpt lat="43.7237996" lon="7.2285604"><ele>222.0</ele><time>2026-05-01T15:04:58.876Z</time></trkpt><trkpt lat="43.7236435" lon="7.2283342"><ele>219.5</ele><time>2026-05-01T15:04:59.876Z</time></trkpt><trkpt lat="43.7234987" lon="7.2280896"><ele>217.0</ele><time>2026-05-01T15:05:00.876Z</time></trkpt><trkpt lat="43.7233689" lon="7.2278298"><ele>217.0</ele><time>2026-05-01T15:05:01.876Z</time></trkpt><trkpt lat="43.7232605" lon="7.2275853"><ele>217.0</ele><time>2026-05-01T15:05:02.876Z</time></trkpt><trkpt lat="43.7231539" lon="7.227338"><ele>217.0</ele><time>2026-05-01T15:05:03.876Z</time></trkpt><trkpt lat="43.7230632" lon="7.2270946"><ele>208.5</ele><time>2026-05-01T15:05:04.876Z</time></trkpt><trkpt lat="43.7229986" lon="7.2267753"><ele>200.0</ele><time>2026-05-01T15:05:05.876Z</time></trkpt><trkpt lat="43.7229381" lon="7.2264745"><ele>190.5</ele><time>2026-05-01T15:05:06.876Z</time></trkpt><trkpt lat="43.7229201" lon="7.2261594"><ele>181.0</ele><time>2026-05-01T15:05:07.876Z</time></trkpt><trkpt lat="43.7228676" lon="7.2258214"><ele>172.5</ele><time>2026-05-01T15:05:08.877Z</time></trkpt><trkpt lat="43.7228065" lon="7.2254781"><ele>164.0</ele><time>2026-05-01T15:05:09.876Z</time></trkpt><trkpt lat="43.7227713" lon="7.2251486"><ele>152.5</ele><time>2026-05-01T15:05:10.876Z</time></trkpt><trkpt lat="43.7227528" lon="7.224801"><ele>141.0</ele><time>2026-05-01T15:05:11.876Z</time></trkpt><trkpt lat="43.7227319" lon="7.2244744"><ele>146.0</ele><time>2026-05-01T15:05:12.876Z</time></trkpt><trkpt lat="43.7227023" lon="7.2241402"><ele>151.0</ele><time>2026-05-01T15:05:13.876Z</time></trkpt><trkpt lat="43.7226671" lon="7.2237953"><ele>129.5</ele><time>2026-05-01T15:05:14.877Z</time></trkpt><trkpt lat="43.7226243" lon="7.2234752"><ele>108.0</ele><time>2026-05-01T15:05:15.876Z</time></trkpt><trkpt lat="43.7226093" lon="7.2231632"><ele>99.5</ele><time>2026-05-01T15:05:16.876Z</time></trkpt><trkpt lat="43.722562" lon="7.2227959"><ele>91.0</ele><time>2026-05-01T15:05:17.876Z</time></trkpt><trkpt lat="43.7225264" lon="7.2224896"><ele>97.0</ele><time>2026-05-01T15:05:18.876Z</time></trkpt><trkpt lat="43.7224742" lon="7.2222024"><ele>103.0</ele><time>2026-05-01T15:05:19.876Z</time></trkpt><trkpt lat="43.7224183" lon="7.2219125"><ele>109.0</ele><time>2026-05-01T15:05:20.876Z</time></trkpt><trkpt lat="43.7223842" lon="7.2216254"><ele>129.5</ele><time>2026-05-01T15:05:21.876Z</time></trkpt><trkpt lat="43.7223539" lon="7.2213141"><ele>150.0</ele><time>2026-05-01T15:05:22.876Z</time></trkpt><trkpt lat="43.7223158" lon="7.2209974"><ele>150.0</ele><time>2026-05-01T15:05:23.876Z</time></trkpt><trkpt lat="43.7222489" lon="7.2206989"><ele>150.0</ele><time>2026-05-01T15:05:24.876Z</time></trkpt><trkpt lat="43.722225" lon="7.2203954"><ele>150.0</ele><time>2026-05-01T15:05:25.876Z</time></trkpt><trkpt lat="43.722211" lon="7.2201464"><ele>160.33333333333334</ele><time>2026-05-01T15:05:26.876Z</time></trkpt><trkpt lat="43.7221697" lon="7.2198626"><ele>170.66666666666669</ele><time>2026-05-01T15:05:27.876Z</time></trkpt><trkpt lat="43.7221481" lon="7.2195889"><ele>181.0</ele><time>2026-05-01T15:05:28.876Z</time></trkpt><trkpt lat="43.7221367" lon="7.2193197"><ele>188.66666666666669</ele><time>2026-05-01T15:05:29.876Z</time></trkpt><trkpt lat="43.7221111" lon="7.2190483"><ele>196.33333333333334</ele><time>2026-05-01T15:05:30.876Z</time></trkpt><trkpt lat="43.7220456" lon="7.2187521"><ele>204.0</ele><time>2026-05-01T15:05:31.876Z</time></trkpt><trkpt lat="43.7219958" lon="7.2185103"><ele>208.0</ele><time>2026-05-01T15:05:32.876Z</time></trkpt><trkpt lat="43.7219395" lon="7.2182543"><ele>212.0</ele><time>2026-05-01T15:05:33.876Z</time></trkpt><trkpt lat="43.7218557" lon="7.2180285"><ele>216.0</ele><time>2026-05-01T15:05:34.876Z</time></trkpt><trkpt lat="43.7217703" lon="7.2177935"><ele>217.0</ele><time>2026-05-01T15:05:35.876Z</time></trkpt><trkpt lat="43.7216783" lon="7.2175745"><ele>218.0</ele><time>2026-05-01T15:05:36.876Z</time></trkpt><trkpt lat="43.7159765" lon="7.2132939"><ele>198.33333333333334</ele><time>2026-05-01T15:06:07.876Z</time></trkpt><trkpt lat="43.7157551" lon="7.2132809"><ele>178.66666666666669</ele><time>2026-05-01T15:06:08.876Z</time></trkpt><trkpt lat="43.715573" lon="7.2133551"><ele>159.0</ele><time>2026-05-01T15:06:09.876Z</time></trkpt><trkpt lat="43.7154396" lon="7.213428"><ele>159.0</ele><time>2026-05-01T15:06:10.876Z</time></trkpt><trkpt lat="43.7152849" lon="7.2134951"><ele>159.0</ele><time>2026-05-01T15:06:11.876Z</time></trkpt><trkpt lat="43.7151135" lon="7.2135526"><ele>159.0</ele><time>2026-05-01T15:06:12.876Z</time></trkpt><trkpt lat="43.7149188" lon="7.2135879"><ele>157.0</ele><time>2026-05-01T15:06:13.876Z</time></trkpt><trkpt lat="43.7147113" lon="7.2136156"><ele>155.0</ele><time>2026-05-01T15:06:14.876Z</time></trkpt><trkpt lat="43.7144767" lon="7.2136499"><ele>153.0</ele><time>2026-05-01T15:06:15.877Z</time></trkpt><trkpt lat="43.7142295" lon="7.2136549"><ele>147.5</ele><time>2026-05-01T15:06:16.876Z</time></trkpt><trkpt lat="43.7139468" lon="7.2135802"><ele>142.0</ele><time>2026-05-01T15:06:17.876Z</time></trkpt><trkpt lat="43.7136713" lon="7.213555"><ele>144.66666666666669</ele><time>2026-05-01T15:06:18.876Z</time></trkpt><trkpt lat="43.7134967" lon="7.2135935"><ele>147.33333333333334</ele><time>2026-05-01T15:06:19.876Z</time></trkpt><trkpt lat="43.7132719" lon="7.2135755"><ele>150.0</ele><time>2026-05-01T15:06:20.876Z</time></trkpt><trkpt lat="43.7130848" lon="7.213512"><ele>150.0</ele><time>2026-05-01T15:06:21.876Z</time></trkpt><trkpt lat="43.7128769" lon="7.2134398"><ele>150.0</ele><time>2026-05-01T15:06:22.876Z</time></trkpt><trkpt lat="43.7126371" lon="7.2133463"><ele>149.5</ele><time>2026-05-01T15:06:23.876Z</time></trkpt><trkpt lat="43.7124123" lon="7.2132509"><ele>149.0</ele><time>2026-05-01T15:06:24.876Z</time></trkpt><trkpt lat="43.7121708" lon="7.2130885"><ele>140.0</ele><time>2026-05-01T15:06:25.876Z</time></trkpt><trkpt lat="43.7119516" lon="7.2129091"><ele>131.0</ele><time>2026-05-01T15:06:26.876Z</time></trkpt><trkpt lat="43.711742" lon="7.2127644"><ele>131.0</ele><time>2026-05-01T15:06:27.876Z</time></trkpt><trkpt lat="43.7116074" lon="7.2126437"><ele>131.0</ele><time>2026-05-01T15:06:28.876Z</time></trkpt><trkpt lat="43.711471" lon="7.2124822"><ele>131.0</ele><time>2026-05-01T15:06:29.876Z</time></trkpt><trkpt lat="43.7113051" lon="7.2123126"><ele>129.0</ele><time>2026-05-01T15:06:30.876Z</time></trkpt><trkpt lat="43.7111482" lon="7.2121317"><ele>127.0</ele><time>2026-05-01T15:06:31.876Z</time></trkpt><trkpt lat="43.7109843" lon="7.2119557"><ele>125.0</ele><time>2026-05-01T15:06:32.876Z</time></trkpt><trkpt lat="43.7108158" lon="7.2117496"><ele>125.0</ele><time>2026-05-01T15:06:33.876Z</time></trkpt><trkpt lat="43.7106356" lon="7.2115264"><ele>125.0</ele><time>2026-05-01T15:06:34.876Z</time></trkpt><trkpt lat="43.710474" lon="7.2112977"><ele>129.0</ele><time>2026-05-01T15:06:35.876Z</time></trkpt><trkpt lat="43.7103353" lon="7.2110725"><ele>133.0</ele><time>2026-05-01T15:06:36.876Z</time></trkpt><trkpt lat="43.7101759" lon="7.210831"><ele>125.5</ele><time>2026-05-01T15:06:37.876Z</time></trkpt><trkpt lat="43.7100209" lon="7.2105719"><ele>118.0</ele><time>2026-05-01T15:06:38.876Z</time></trkpt><trkpt lat="43.7098889" lon="7.2102807"><ele>118.0</ele><time>2026-05-01T15:06:39.876Z</time></trkpt><trkpt lat="43.7097608" lon="7.2099811"><ele>118.0</ele><time>2026-05-01T15:06:40.876Z</time></trkpt><trkpt lat="43.7096725" lon="7.2096963"><ele>109.0</ele><time>2026-05-01T15:06:41.877Z</time></trkpt><trkpt lat="43.709604" lon="7.2094423"><ele>100.0</ele><time>2026-05-01T15:06:42.876Z</time></trkpt><trkpt lat="43.7095022" lon="7.2090844"><ele>96.5</ele><time>2026-05-01T15:06:43.876Z</time></trkpt><trkpt lat="43.7094372" lon="7.2087799"><ele>93.0</ele><time>2026-05-01T15:06:44.876Z</time></trkpt><trkpt lat="43.7093738" lon="7.2084722"><ele>103.0</ele><time>2026-05-01T15:06:45.877Z</time></trkpt><trkpt lat="43.7093368" lon="7.208168"><ele>113.0</ele><time>2026-05-01T15:06:46.876Z</time></trkpt><trkpt lat="43.7093359" lon="7.2078713"><ele>123.0</ele><time>2026-05-01T15:06:47.876Z</time></trkpt><trkpt lat="43.7093175" lon="7.2075449"><ele>123.0</ele><time>2026-05-01T15:06:48.876Z</time></trkpt><trkpt lat="43.7092961" lon="7.2072099"><ele>123.0</ele><time>2026-05-01T15:06:49.876Z</time></trkpt><trkpt lat="43.7092782" lon="7.2069012"><ele>123.0</ele><time>2026-05-01T15:06:50.876Z</time></trkpt><trkpt lat="43.7092695" lon="7.2065888"><ele>123.0</ele><time>2026-05-01T15:06:51.876Z</time></trkpt><trkpt lat="43.7093033" lon="7.2062884"><ele>123.0</ele><time>2026-05-01T15:06:52.876Z</time></trkpt><trkpt lat="43.7093693" lon="7.2060383"><ele>113.33333333333333</ele><time>2026-05-01T15:06:53.876Z</time></trkpt><trkpt lat="43.7094828" lon="7.2057684"><ele>103.66666666666666</ele><time>2026-05-01T15:06:54.876Z</time></trkpt><trkpt lat="43.7095649" lon="7.205486"><ele>94.0</ele><time>2026-05-01T15:06:55.876Z</time></trkpt><trkpt lat="43.70967" lon="7.2052369"><ele>94.0</ele><time>2026-05-01T15:06:56.876Z</time></trkpt><trkpt lat="43.7097925" lon="7.204963"><ele>94.0</ele><time>2026-05-01T15:06:57.876Z</time></trkpt><trkpt lat="43.7098767" lon="7.2047283"><ele>94.0</ele><time>2026-05-01T15:06:58.876Z</time></trkpt><trkpt lat="43.7099335" lon="7.2044572"><ele>97.66666666666666</ele><time>2026-05-01T15:06:59.876Z</time></trkpt><trkpt lat="43.7100143" lon="7.2042032"><ele>101.33333333333333</ele><time>2026-05-01T15:07:00.877Z</time></trkpt><trkpt lat="43.7101251" lon="7.2039331"><ele>105.0</ele><time>2026-05-01T15:07:01.876Z</time></trkpt><trkpt lat="43.7101994" lon="7.2036182"><ele>94.33333333333333</ele><time>2026-05-01T15:07:02.876Z</time></trkpt><trkpt lat="43.7102699" lon="7.2033471"><ele>83.66666666666666</ele><time>2026-05-01T15:07:03.876Z</time></trkpt><trkpt lat="43.7103275" lon="7.2030393"><ele>73.0</ele><time>2026-05-01T15:07:04.876Z</time></trkpt><trkpt lat="43.7103804" lon="7.2027483"><ele>73.0</ele><time>2026-05-01T15:07:05.876Z</time></trkpt><trkpt lat="43.7104532" lon="7.2024811"><ele>73.0</ele><time>2026-05-01T15:07:06.877Z</time></trkpt><trkpt lat="43.7104656" lon="7.202175"><ele>73.0</ele><time>2026-05-01T15:07:07.876Z</time></trkpt><trkpt lat="43.7105034" lon="7.2019051"><ele>71.66666666666666</ele><time>2026-05-01T15:07:08.876Z</time></trkpt><trkpt lat="43.7105361" lon="7.2016263"><ele>70.33333333333333</ele><time>2026-05-01T15:07:09.876Z</time></trkpt><trkpt lat="43.7105332" lon="7.2013296"><ele>69.0</ele><time>2026-05-01T15:07:10.876Z</time></trkpt><trkpt lat="43.7105463" lon="7.201016"><ele>69.0</ele><time>2026-05-01T15:07:11.876Z</time></trkpt><trkpt lat="43.7105313" lon="7.2007263"><ele>69.0</ele><time>2026-05-01T15:07:12.876Z</time></trkpt><trkpt lat="43.7105426" lon="7.2004338"><ele>69.0</ele><time>2026-05-01T15:07:13.876Z</time></trkpt><trkpt lat="43.7105679" lon="7.2001381"><ele>68.33333333333333</ele><time>2026-05-01T15:07:14.876Z</time></trkpt><trkpt lat="43.7105549" lon="7.1998476"><ele>67.66666666666666</ele><time>2026-05-01T15:07:15.876Z</time></trkpt><trkpt lat="43.7105669" lon="7.1995454"><ele>67.0</ele><time>2026-05-01T15:07:16.876Z</time></trkpt><trkpt lat="43.7105065" lon="7.1992297"><ele>60.33333333333333</ele><time>2026-05-01T15:07:17.876Z</time></trkpt><trkpt lat="43.7104523" lon="7.198975"><ele>53.666666666666664</ele><time>2026-05-01T15:07:18.876Z</time></trkpt><trkpt lat="43.7103895" lon="7.1986631"><ele>47.0</ele><time>2026-05-01T15:07:19.876Z</time></trkpt><trkpt lat="43.710298" lon="7.1983887"><ele>48.666666666666664</ele><time>2026-05-01T15:07:20.876Z</time></trkpt><trkpt lat="43.710219" lon="7.1981237"><ele>50.33333333333333</ele><time>2026-05-01T15:07:21.876Z</time></trkpt><trkpt lat="43.7101232" lon="7.1978463"><ele>52.0</ele><time>2026-05-01T15:07:22.876Z</time></trkpt><trkpt lat="43.7100001" lon="7.1975102"><ele>44.5</ele><time>2026-05-01T15:07:23.876Z</time></trkpt><trkpt lat="43.7098713" lon="7.197199"><ele>37.0</ele><time>2026-05-01T15:07:24.876Z</time></trkpt><trkpt lat="43.7097551" lon="7.1968719"><ele>37.0</ele><time>2026-05-01T15:07:25.876Z</time></trkpt><trkpt lat="43.7096479" lon="7.1965542"><ele>37.0</ele><time>2026-05-01T15:07:26.876Z</time></trkpt><trkpt lat="43.7095366" lon="7.1962252"><ele>35.0</ele><time>2026-05-01T15:07:27.877Z</time></trkpt><trkpt lat="43.7094184" lon="7.1958888"><ele>33.0</ele><time>2026-05-01T15:07:28.876Z</time></trkpt><trkpt lat="43.7093155" lon="7.1955589"><ele>33.0</ele><time>2026-05-01T15:07:29.876Z</time></trkpt><trkpt lat="43.709189" lon="7.195217"><ele>33.0</ele><time>2026-05-01T15:07:30.876Z</time></trkpt><trkpt lat="43.7090798" lon="7.194899"><ele>33.0</ele><time>2026-05-01T15:07:31.876Z</time></trkpt><trkpt lat="43.7089825" lon="7.1946101"><ele>33.0</ele><time>2026-05-01T15:07:32.876Z</time></trkpt><trkpt lat="43.7088816" lon="7.1943102"><ele>32.0</ele><time>2026-05-01T15:07:33.876Z</time></trkpt><trkpt lat="43.7087636" lon="7.1939714"><ele>31.0</ele><time>2026-05-01T15:07:34.876Z</time></trkpt><trkpt lat="43.7086404" lon="7.1936419"><ele>30.5</ele><time>2026-05-01T15:07:35.876Z</time></trkpt><trkpt lat="43.7085276" lon="7.1933223"><ele>30.0</ele><time>2026-05-01T15:07:36.876Z</time></trkpt><trkpt lat="43.7084358" lon="7.1930311"><ele>30.0</ele><time>2026-05-01T15:07:37.876Z</time></trkpt><trkpt lat="43.7083087" lon="7.1926898"><ele>30.0</ele><time>2026-05-01T15:07:38.876Z</time></trkpt><trkpt lat="43.7082116" lon="7.1923412"><ele>30.0</ele><time>2026-05-01T15:07:39.876Z</time></trkpt><trkpt lat="43.7081259" lon="7.1920555"><ele>30.0</ele><time>2026-05-01T15:07:40.876Z</time></trkpt><trkpt lat="43.7080207" lon="7.1917563"><ele>30.5</ele><time>2026-05-01T15:07:41.876Z</time></trkpt><trkpt lat="43.7078949" lon="7.191483"><ele>31.0</ele><time>2026-05-01T15:07:42.876Z</time></trkpt><trkpt lat="43.7077597" lon="7.1912236"><ele>31.0</ele><time>2026-05-01T15:07:43.876Z</time></trkpt><trkpt lat="43.7076288" lon="7.1909706"><ele>31.0</ele><time>2026-05-01T15:07:44.876Z</time></trkpt><trkpt lat="43.7074674" lon="7.1907241"><ele>30.5</ele><time>2026-05-01T15:07:45.876Z</time></trkpt><trkpt lat="43.7072792" lon="7.1905035"><ele>30.0</ele><time>2026-05-01T15:07:46.876Z</time></trkpt><trkpt lat="43.7071017" lon="7.1902997"><ele>30.0</ele><time>2026-05-01T15:07:47.876Z</time></trkpt><trkpt lat="43.7069133" lon="7.1900899"><ele>30.0</ele><time>2026-05-01T15:07:48.876Z</time></trkpt><trkpt lat="43.706709" lon="7.1898998"><ele>29.5</ele><time>2026-05-01T15:07:49.876Z</time></trkpt><trkpt lat="43.7064989" lon="7.1897142"><ele>29.0</ele><time>2026-05-01T15:07:50.876Z</time></trkpt><trkpt lat="43.7063032" lon="7.1894998"><ele>29.0</ele><time>2026-05-01T15:07:51.876Z</time></trkpt><trkpt lat="43.7061378" lon="7.1893175"><ele>29.0</ele><time>2026-05-01T15:07:52.876Z</time></trkpt><trkpt lat="43.70596" lon="7.1891333"><ele>29.0</ele><time>2026-05-01T15:07:53.876Z</time></trkpt><trkpt lat="43.7057882" lon="7.1889707"><ele>27.0</ele><time>2026-05-01T15:07:54.876Z</time></trkpt><trkpt lat="43.7055947" lon="7.1888"><ele>25.0</ele><time>2026-05-01T15:07:55.876Z</time></trkpt><trkpt lat="43.7053896" lon="7.1886715"><ele>25.0</ele><time>2026-05-01T15:07:56.876Z</time></trkpt><trkpt lat="43.7051675" lon="7.1885499"><ele>25.0</ele><time>2026-05-01T15:07:57.876Z</time></trkpt><trkpt lat="43.704974" lon="7.1884551"><ele>25.0</ele><time>2026-05-01T15:07:58.876Z</time></trkpt><trkpt lat="43.704744" lon="7.188374"><ele>25.0</ele><time>2026-05-01T15:07:59.876Z</time></trkpt><trkpt lat="43.704524" lon="7.1882824"><ele>25.0</ele><time>2026-05-01T15:08:00.877Z</time></trkpt><trkpt lat="43.7043249" lon="7.1882296"><ele>25.0</ele><time>2026-05-01T15:08:01.876Z</time></trkpt><trkpt lat="43.7041363" lon="7.1881863"><ele>23.666666666666668</ele><time>2026-05-01T15:08:02.876Z</time></trkpt><trkpt lat="43.7039632" lon="7.1881479"><ele>22.333333333333336</ele><time>2026-05-01T15:08:03.876Z</time></trkpt><trkpt lat="43.7037683" lon="7.1881356"><ele>21.0</ele><time>2026-05-01T15:08:04.877Z</time></trkpt><trkpt lat="43.7035652" lon="7.1881497"><ele>21.0</ele><time>2026-05-01T15:08:05.876Z</time></trkpt><trkpt lat="43.7033893" lon="7.1881505"><ele>21.0</ele><time>2026-05-01T15:08:06.877Z</time></trkpt><trkpt lat="43.7031996" lon="7.1881479"><ele>21.0</ele><time>2026-05-01T15:08:07.876Z</time></trkpt><trkpt lat="43.7030348" lon="7.188173"><ele>22.0</ele><time>2026-05-01T15:08:08.876Z</time></trkpt><trkpt lat="43.7028437" lon="7.1881842"><ele>23.0</ele><time>2026-05-01T15:08:09.876Z</time></trkpt><trkpt lat="43.7027084" lon="7.188196"><ele>24.0</ele><time>2026-05-01T15:08:10.876Z</time></trkpt><trkpt lat="43.7025611" lon="7.1882192"><ele>24.25</ele><time>2026-05-01T15:08:11.876Z</time></trkpt><trkpt lat="43.7024135" lon="7.1882408"><ele>24.5</ele><time>2026-05-01T15:08:12.876Z</time></trkpt><trkpt lat="43.7022768" lon="7.1882534"><ele>24.75</ele><time>2026-05-01T15:08:13.876Z</time></trkpt><trkpt lat="43.7021476" lon="7.188269"><ele>25.0</ele><time>2026-05-01T15:08:14.876Z</time></trkpt><trkpt lat="43.7020179" lon="7.1882509"><ele>24.6</ele><time>2026-05-01T15:08:15.876Z</time></trkpt><trkpt lat="43.7019027" lon="7.1882533"><ele>24.2</ele><time>2026-05-01T15:08:16.877Z</time></trkpt><trkpt lat="43.7017939" lon="7.188231"><ele>23.799999999999997</ele><time>2026-05-01T15:08:17.876Z</time></trkpt><trkpt lat="43.7016861" lon="7.1882338"><ele>23.4</ele><time>2026-05-01T15:08:18.876Z</time></trkpt><trkpt lat="43.7016169" lon="7.1882476"><ele>23.0</ele><time>2026-05-01T15:08:19.877Z</time></trkpt><trkpt lat="43.7015026" lon="7.1882802"><ele>23.0</ele><time>2026-05-01T15:08:21.876Z</time></trkpt><trkpt lat="43.7014344" lon="7.1882601"><ele>23.0</ele><time>2026-05-01T15:08:22.876Z</time></trkpt><trkpt lat="43.7013621" lon="7.1882415"><ele>23.0</ele><time>2026-05-01T15:08:25.876Z</time></trkpt><trkpt lat="43.7012853" lon="7.1882432"><ele>23.0</ele><time>2026-05-01T15:08:27.876Z</time></trkpt><trkpt lat="43.7012219" lon="7.1882364"><ele>23.0</ele><time>2026-05-01T15:08:28.876Z</time></trkpt><trkpt lat="43.701152" lon="7.1882348"><ele>23.0</ele><time>2026-05-01T15:08:29.876Z</time></trkpt><trkpt lat="43.7010869" lon="7.188254"><ele>23.0</ele><time>2026-05-01T15:08:32.876Z</time></trkpt><trkpt lat="43.7010042" lon="7.1882401"><ele>23.142857142857142</ele><time>2026-05-01T15:08:35.876Z</time></trkpt><trkpt lat="43.7009282" lon="7.1882346"><ele>23.285714285714285</ele><time>2026-05-01T15:08:38.876Z</time></trkpt><trkpt lat="43.7008495" lon="7.188228"><ele>23.428571428571427</ele><time>2026-05-01T15:08:46.876Z</time></trkpt><trkpt lat="43.7007734" lon="7.1882372"><ele>23.57142857142857</ele><time>2026-05-01T15:09:22.876Z</time></trkpt><trkpt lat="43.7007152" lon="7.1882769"><ele>23.714285714285715</ele><time>2026-05-01T15:09:37.876Z</time></trkpt><trkpt lat="43.7006331" lon="7.1882952"><ele>23.857142857142854</ele><time>2026-05-01T15:09:45.876Z</time></trkpt><trkpt lat="43.7005702" lon="7.1883014"><ele>24.0</ele><time>2026-05-01T15:09:47.876Z</time></trkpt><trkpt lat="43.700504" lon="7.1883122"><ele>23.999999999999996</ele><time>2026-05-01T15:09:52.876Z</time></trkpt><trkpt lat="43.7004444" lon="7.1882693"><ele>24.0</ele><time>2026-05-01T15:10:04.876Z</time></trkpt><trkpt lat="43.7003796" lon="7.188286"><ele>24.0</ele><time>2026-05-01T15:10:08.876Z</time></trkpt><trkpt lat="43.7003193" lon="7.1883219"><ele>24.0</ele><time>2026-05-01T15:10:29.876Z</time></trkpt><trkpt lat="43.7002561" lon="7.1883664"><ele>24.0</ele><time>2026-05-01T15:10:32.876Z</time></trkpt><trkpt lat="43.7001918" lon="7.1883914"><ele>23.999999999999996</ele><time>2026-05-01T15:10:34.876Z</time></trkpt><trkpt lat="43.700113" lon="7.1884174"><ele>24.0</ele><time>2026-05-01T15:10:36.877Z</time></trkpt><trkpt lat="43.7000347" lon="7.1884148"><ele>24.0</ele><time>2026-05-01T15:10:55.877Z</time></trkpt><trkpt lat="43.6999695" lon="7.1883826"><ele>24.0</ele><time>2026-05-01T15:11:02.876Z</time></trkpt><trkpt lat="43.6999072" lon="7.1883665"><ele>24.0</ele><time>2026-05-01T15:11:05.876Z</time></trkpt><trkpt lat="43.6998512" lon="7.1883238"><ele>24.0</ele><time>2026-05-01T15:11:16.876Z</time></trkpt><trkpt lat="43.6998276" lon="7.1884191"><ele>24.0</ele><time>2026-05-01T15:12:03.876Z</time></trkpt><trkpt lat="43.6997557" lon="7.1884193"><ele>24.0</ele><time>2026-05-01T15:12:10.876Z</time></trkpt><trkpt lat="43.699623" lon="7.1883833"><ele>24.0</ele><time>2026-05-01T15:12:19.876Z</time></trkpt><trkpt lat="43.6995352" lon="7.188422"><ele>24.0</ele><time>2026-05-01T15:12:20.876Z</time></trkpt><trkpt lat="43.6994138" lon="7.1884462"><ele>24.0</ele><time>2026-05-01T15:12:21.876Z</time></trkpt><trkpt lat="43.6993034" lon="7.1884571"><ele>24.0</ele><time>2026-05-01T15:12:22.876Z</time></trkpt><trkpt lat="43.6992028" lon="7.1884003"><ele>24.0</ele><time>2026-05-01T15:12:23.876Z</time></trkpt><trkpt lat="43.6990806" lon="7.1884054"><ele>24.0</ele><time>2026-05-01T15:12:24.876Z</time></trkpt><trkpt lat="43.698958" lon="7.1884191"><ele>24.0</ele><time>2026-05-01T15:12:25.876Z</time></trkpt><trkpt lat="43.6988076" lon="7.1884271"><ele>24.0</ele><time>2026-05-01T15:12:26.876Z</time></trkpt><trkpt lat="43.6986629" lon="7.1884295"><ele>24.0</ele><time>2026-05-01T15:12:27.876Z</time></trkpt><trkpt lat="43.6985102" lon="7.1884271"><ele>24.0</ele><time>2026-05-01T15:12:28.876Z</time></trkpt><trkpt lat="43.6983749" lon="7.1884569"><ele>24.0</ele><time>2026-05-01T15:12:29.876Z</time></trkpt><trkpt lat="43.6982414" lon="7.1884882"><ele>24.0</ele><time>2026-05-01T15:12:30.876Z</time></trkpt><trkpt lat="43.6981109" lon="7.1884797"><ele>24.0</ele><time>2026-05-01T15:12:31.876Z</time></trkpt><trkpt lat="43.6979571" lon="7.1884928"><ele>24.0</ele><time>2026-05-01T15:12:32.876Z</time></trkpt><trkpt lat="43.6978038" lon="7.1885076"><ele>24.0</ele><time>2026-05-01T15:12:33.876Z</time></trkpt><trkpt lat="43.6976441" lon="7.1885109"><ele>24.0</ele><time>2026-05-01T15:12:34.876Z</time></trkpt><trkpt lat="43.6974579" lon="7.188497"><ele>22.666666666666668</ele><time>2026-05-01T15:12:35.876Z</time></trkpt><trkpt lat="43.6972712" lon="7.1884998"><ele>21.333333333333336</ele><time>2026-05-01T15:12:36.876Z</time></trkpt><trkpt lat="43.6970523" lon="7.1885068"><ele>20.0</ele><time>2026-05-01T15:12:37.876Z</time></trkpt><trkpt lat="43.6968205" lon="7.1885247"><ele>19.5</ele><time>2026-05-01T15:12:38.876Z</time></trkpt><trkpt lat="43.6965826" lon="7.1885624"><ele>19.0</ele><time>2026-05-01T15:12:39.876Z</time></trkpt><trkpt lat="43.6963662" lon="7.1885912"><ele>19.0</ele><time>2026-05-01T15:12:40.876Z</time></trkpt><trkpt lat="43.6961227" lon="7.188655"><ele>19.0</ele><time>2026-05-01T15:12:41.876Z</time></trkpt><trkpt lat="43.6959121" lon="7.1887018"><ele>20.0</ele><time>2026-05-01T15:12:42.876Z</time></trkpt><trkpt lat="43.6956625" lon="7.1887536"><ele>21.0</ele><time>2026-05-01T15:12:43.876Z</time></trkpt><trkpt lat="43.6954395" lon="7.1888111"><ele>20.0</ele><time>2026-05-01T15:12:44.876Z</time></trkpt><trkpt lat="43.6952128" lon="7.188887"><ele>19.0</ele><time>2026-05-01T15:12:45.876Z</time></trkpt><trkpt lat="43.6949784" lon="7.1889573"><ele>19.5</ele><time>2026-05-01T15:12:46.876Z</time></trkpt><trkpt lat="43.6947593" lon="7.1890217"><ele>20.0</ele><time>2026-05-01T15:12:47.877Z</time></trkpt><trkpt lat="43.6945338" lon="7.1890743"><ele>20.0</ele><time>2026-05-01T15:12:48.876Z</time></trkpt><trkpt lat="43.6942912" lon="7.1891421"><ele>20.0</ele><time>2026-05-01T15:12:49.876Z</time></trkpt><trkpt lat="43.6940594" lon="7.1892301"><ele>20.0</ele><time>2026-05-01T15:12:50.876Z</time></trkpt><trkpt lat="43.6938166" lon="7.1892716"><ele>20.0</ele><time>2026-05-01T15:12:51.876Z</time></trkpt><trkpt lat="43.6935762" lon="7.1893234"><ele>18.5</ele><time>2026-05-01T15:12:52.876Z</time></trkpt><trkpt lat="43.6933569" lon="7.1893684"><ele>17.0</ele><time>2026-05-01T15:12:53.876Z</time></trkpt><trkpt lat="43.6931157" lon="7.1894156"><ele>17.0</ele><time>2026-05-01T15:12:54.876Z</time></trkpt><trkpt lat="43.6928736" lon="7.1894392"><ele>17.0</ele><time>2026-05-01T15:12:55.877Z</time></trkpt><trkpt lat="43.6926334" lon="7.1894777"><ele>16.0</ele><time>2026-05-01T15:12:56.876Z</time></trkpt><trkpt lat="43.6923796" lon="7.1895247"><ele>15.0</ele><time>2026-05-01T15:12:57.876Z</time></trkpt><trkpt lat="43.6921349" lon="7.1895728"><ele>15.0</ele><time>2026-05-01T15:12:58.876Z</time></trkpt><trkpt lat="43.6918583" lon="7.1896349"><ele>15.0</ele><time>2026-05-01T15:12:59.876Z</time></trkpt><trkpt lat="43.691599" lon="7.189668"><ele>15.0</ele><time>2026-05-01T15:13:00.876Z</time></trkpt><trkpt lat="43.6913396" lon="7.1897029"><ele>15.0</ele><time>2026-05-01T15:13:01.876Z</time></trkpt><trkpt lat="43.6910676" lon="7.1897377"><ele>14.5</ele><time>2026-05-01T15:13:02.876Z</time></trkpt><trkpt lat="43.690793" lon="7.1897966"><ele>14.0</ele><time>2026-05-01T15:13:03.876Z</time></trkpt><trkpt lat="43.690524" lon="7.1898486"><ele>15.0</ele><time>2026-05-01T15:13:04.876Z</time></trkpt><trkpt lat="43.6902424" lon="7.1899112"><ele>16.0</ele><time>2026-05-01T15:13:05.877Z</time></trkpt><trkpt lat="43.6899667" lon="7.1899589"><ele>16.0</ele><time>2026-05-01T15:13:06.876Z</time></trkpt><trkpt lat="43.6896929" lon="7.1900002"><ele>16.0</ele><time>2026-05-01T15:13:07.876Z</time></trkpt><trkpt lat="43.6894113" lon="7.1900497"><ele>16.0</ele><time>2026-05-01T15:13:08.876Z</time></trkpt><trkpt lat="43.6891339" lon="7.1900896"><ele>16.0</ele><time>2026-05-01T15:13:09.876Z</time></trkpt><trkpt lat="43.6888688" lon="7.1901708"><ele>16.0</ele><time>2026-05-01T15:13:10.876Z</time></trkpt><trkpt lat="43.6886096" lon="7.1902476"><ele>16.0</ele><time>2026-05-01T15:13:11.876Z</time></trkpt><trkpt lat="43.6883404" lon="7.1903118"><ele>16.0</ele><time>2026-05-01T15:13:12.876Z</time></trkpt><trkpt lat="43.688075" lon="7.1903855"><ele>16.0</ele><time>2026-05-01T15:13:13.876Z</time></trkpt><trkpt lat="43.6878011" lon="7.1904515"><ele>14.5</ele><time>2026-05-01T15:13:14.876Z</time></trkpt><trkpt lat="43.6875381" lon="7.1905201"><ele>13.0</ele><time>2026-05-01T15:13:15.876Z</time></trkpt><trkpt lat="43.6872746" lon="7.19061"><ele>14.5</ele><time>2026-05-01T15:13:16.876Z</time></trkpt><trkpt lat="43.6870163" lon="7.190687"><ele>16.0</ele><time>2026-05-01T15:13:17.876Z</time></trkpt><trkpt lat="43.6867527" lon="7.1907717"><ele>16.0</ele><time>2026-05-01T15:13:18.876Z</time></trkpt><trkpt lat="43.6864989" lon="7.1908426"><ele>16.0</ele><time>2026-05-01T15:13:19.876Z</time></trkpt><trkpt lat="43.6862538" lon="7.1909451"><ele>15.0</ele><time>2026-05-01T15:13:20.876Z</time></trkpt><trkpt lat="43.6859921" lon="7.1910338"><ele>14.0</ele><time>2026-05-01T15:13:21.876Z</time></trkpt><trkpt lat="43.6857387" lon="7.1911623"><ele>14.0</ele><time>2026-05-01T15:13:22.876Z</time></trkpt><trkpt lat="43.6854689" lon="7.1912535"><ele>14.0</ele><time>2026-05-01T15:13:23.876Z</time></trkpt><trkpt lat="43.6852368" lon="7.1913257"><ele>14.0</ele><time>2026-05-01T15:13:24.876Z</time></trkpt><trkpt lat="43.6849726" lon="7.1914198"><ele>14.0</ele><time>2026-05-01T15:13:25.876Z</time></trkpt><trkpt lat="43.6846855" lon="7.1915467"><ele>14.0</ele><time>2026-05-01T15:13:26.876Z</time></trkpt><trkpt lat="43.6844381" lon="7.1916368"><ele>14.0</ele><time>2026-05-01T15:13:27.876Z</time></trkpt><trkpt lat="43.6841846" lon="7.1917486"><ele>14.0</ele><time>2026-05-01T15:13:28.876Z</time></trkpt><trkpt lat="43.6839129" lon="7.1918503"><ele>14.0</ele><time>2026-05-01T15:13:29.876Z</time></trkpt><trkpt lat="43.6836545" lon="7.1919368"><ele>13.0</ele><time>2026-05-01T15:13:30.876Z</time></trkpt><trkpt lat="43.6833778" lon="7.1920402"><ele>12.0</ele><time>2026-05-01T15:13:31.876Z</time></trkpt><trkpt lat="43.6830945" lon="7.1921771"><ele>12.0</ele><time>2026-05-01T15:13:32.876Z</time></trkpt><trkpt lat="43.6828302" lon="7.1922667"><ele>12.0</ele><time>2026-05-01T15:13:33.876Z</time></trkpt><trkpt lat="43.682558" lon="7.1923787"><ele>14.0</ele><time>2026-05-01T15:13:34.876Z</time></trkpt><trkpt lat="43.6822746" lon="7.1924684"><ele>16.0</ele><time>2026-05-01T15:13:35.876Z</time></trkpt><trkpt lat="43.6820357" lon="7.1925815"><ele>15.0</ele><time>2026-05-01T15:13:36.876Z</time></trkpt><trkpt lat="43.6817583" lon="7.1926916"><ele>14.0</ele><time>2026-05-01T15:13:37.876Z</time></trkpt><trkpt lat="43.6814825" lon="7.1928017"><ele>14.0</ele><time>2026-05-01T15:13:38.876Z</time></trkpt><trkpt lat="43.6812293" lon="7.1929327"><ele>14.0</ele><time>2026-05-01T15:13:39.876Z</time></trkpt><trkpt lat="43.6809484" lon="7.1930377"><ele>13.0</ele><time>2026-05-01T15:13:40.876Z</time></trkpt><trkpt lat="43.6806787" lon="7.1931342"><ele>12.0</ele><time>2026-05-01T15:13:41.876Z</time></trkpt><trkpt lat="43.6804352" lon="7.1932288"><ele>12.5</ele><time>2026-05-01T15:13:42.876Z</time></trkpt><trkpt lat="43.6801792" lon="7.1933437"><ele>13.0</ele><time>2026-05-01T15:13:43.876Z</time></trkpt><trkpt lat="43.6799389" lon="7.1934584"><ele>13.0</ele><time>2026-05-01T15:13:44.876Z</time></trkpt><trkpt lat="43.6796633" lon="7.1935805"><ele>13.0</ele><time>2026-05-01T15:13:45.876Z</time></trkpt><trkpt lat="43.6793882" lon="7.1936907"><ele>12.5</ele><time>2026-05-01T15:13:46.876Z</time></trkpt><trkpt lat="43.6791466" lon="7.1938162"><ele>12.0</ele><time>2026-05-01T15:13:47.876Z</time></trkpt><trkpt lat="43.6788969" lon="7.193931"><ele>12.5</ele><time>2026-05-01T15:13:48.876Z</time></trkpt><trkpt lat="43.6786646" lon="7.1940405"><ele>13.0</ele><time>2026-05-01T15:13:49.876Z</time></trkpt><trkpt lat="43.6784331" lon="7.1941673"><ele>12.0</ele><time>2026-05-01T15:13:50.876Z</time></trkpt><trkpt lat="43.6782045" lon="7.1943027"><ele>11.0</ele><time>2026-05-01T15:13:51.876Z</time></trkpt><trkpt lat="43.6779905" lon="7.1944058"><ele>11.0</ele><time>2026-05-01T15:13:52.876Z</time></trkpt><trkpt lat="43.6777739" lon="7.1945247"><ele>11.0</ele><time>2026-05-01T15:13:53.876Z</time></trkpt><trkpt lat="43.6775591" lon="7.1946559"><ele>11.0</ele><time>2026-05-01T15:13:54.876Z</time></trkpt><trkpt lat="43.677358" lon="7.1947828"><ele>11.0</ele><time>2026-05-01T15:13:55.876Z</time></trkpt><trkpt lat="43.6771476" lon="7.194932"><ele>11.0</ele><time>2026-05-01T15:13:56.876Z</time></trkpt><trkpt lat="43.6769407" lon="7.1950806"><ele>11.0</ele><time>2026-05-01T15:13:57.876Z</time></trkpt><trkpt lat="43.6767537" lon="7.1952442"><ele>11.0</ele><time>2026-05-01T15:13:58.876Z</time></trkpt><trkpt lat="43.6765705" lon="7.1954075"><ele>11.0</ele><time>2026-05-01T15:13:59.876Z</time></trkpt><trkpt lat="43.6763758" lon="7.1955788"><ele>11.0</ele><time>2026-05-01T15:14:00.876Z</time></trkpt><trkpt lat="43.6761645" lon="7.195764"><ele>11.0</ele><time>2026-05-01T15:14:01.877Z</time></trkpt><trkpt lat="43.6759618" lon="7.1959426"><ele>11.0</ele><time>2026-05-01T15:14:02.876Z</time></trkpt><trkpt lat="43.6757908" lon="7.1961341"><ele>11.0</ele><time>2026-05-01T15:14:03.876Z</time></trkpt><trkpt lat="43.6756285" lon="7.1963111"><ele>11.0</ele><time>2026-05-01T15:14:04.876Z</time></trkpt><trkpt lat="43.67547" lon="7.196491"><ele>11.0</ele><time>2026-05-01T15:14:05.877Z</time></trkpt><trkpt lat="43.6752998" lon="7.196709"><ele>11.5</ele><time>2026-05-01T15:14:06.876Z</time></trkpt><trkpt lat="43.6751321" lon="7.1969144"><ele>12.0</ele><time>2026-05-01T15:14:07.876Z</time></trkpt><trkpt lat="43.6749637" lon="7.1971396"><ele>12.0</ele><time>2026-05-01T15:14:08.876Z</time></trkpt><trkpt lat="43.6748151" lon="7.19736"><ele>12.0</ele><time>2026-05-01T15:14:09.876Z</time></trkpt><trkpt lat="43.674653" lon="7.1975798"><ele>12.0</ele><time>2026-05-01T15:14:10.876Z</time></trkpt><trkpt lat="43.6744442" lon="7.197844"><ele>11.5</ele><time>2026-05-01T15:14:11.876Z</time></trkpt><trkpt lat="43.6742814" lon="7.1980915"><ele>11.0</ele><time>2026-05-01T15:14:12.876Z</time></trkpt><trkpt lat="43.674101" lon="7.1983359"><ele>11.0</ele><time>2026-05-01T15:14:13.876Z</time></trkpt><trkpt lat="43.673907" lon="7.1985782"><ele>11.0</ele><time>2026-05-01T15:14:14.876Z</time></trkpt><trkpt lat="43.6737267" lon="7.1988144"><ele>11.0</ele><time>2026-05-01T15:14:15.876Z</time></trkpt><trkpt lat="43.6735801" lon="7.1990391"><ele>11.0</ele><time>2026-05-01T15:14:16.876Z</time></trkpt><trkpt lat="43.673412" lon="7.1992919"><ele>11.0</ele><time>2026-05-01T15:14:17.876Z</time></trkpt><trkpt lat="43.6732525" lon="7.1995016"><ele>11.0</ele><time>2026-05-01T15:14:18.876Z</time></trkpt><trkpt lat="43.6730745" lon="7.1997575"><ele>11.0</ele><time>2026-05-01T15:14:19.876Z</time></trkpt><trkpt lat="43.6729153" lon="7.1999781"><ele>11.0</ele><time>2026-05-01T15:14:20.876Z</time></trkpt><trkpt lat="43.6727653" lon="7.2002166"><ele>11.333333333333332</ele><time>2026-05-01T15:14:21.877Z</time></trkpt><trkpt lat="43.6726459" lon="7.200444"><ele>11.666666666666666</ele><time>2026-05-01T15:14:22.876Z</time></trkpt><trkpt lat="43.6725148" lon="7.2006488"><ele>12.0</ele><time>2026-05-01T15:14:23.876Z</time></trkpt><trkpt lat="43.6723946" lon="7.2008315"><ele>12.0</ele><time>2026-05-01T15:14:24.876Z</time></trkpt><trkpt lat="43.6722518" lon="7.2010068"><ele>12.0</ele><time>2026-05-01T15:14:25.876Z</time></trkpt><trkpt lat="43.6720947" lon="7.2011604"><ele>12.0</ele><time>2026-05-01T15:14:26.877Z</time></trkpt><trkpt lat="43.6719313" lon="7.2013274"><ele>11.5</ele><time>2026-05-01T15:14:27.876Z</time></trkpt><trkpt lat="43.671733" lon="7.2014697"><ele>11.0</ele><time>2026-05-01T15:14:28.876Z</time></trkpt><trkpt lat="43.6714975" lon="7.2015577"><ele>10.666666666666666</ele><time>2026-05-01T15:14:29.876Z</time></trkpt><trkpt lat="43.6713129" lon="7.2016455"><ele>10.333333333333334</ele><time>2026-05-01T15:14:30.876Z</time></trkpt><trkpt lat="43.6711001" lon="7.2016471"><ele>10.0</ele><time>2026-05-01T15:14:31.876Z</time></trkpt><trkpt lat="43.67091" lon="7.2016659"><ele>10.333333333333334</ele><time>2026-05-01T15:14:32.876Z</time></trkpt><trkpt lat="43.6707043" lon="7.2016328"><ele>10.666666666666666</ele><time>2026-05-01T15:14:33.876Z</time></trkpt><trkpt lat="43.6704896" lon="7.2015878"><ele>11.0</ele><time>2026-05-01T15:14:34.876Z</time></trkpt><trkpt lat="43.6702695" lon="7.2014915"><ele>11.0</ele><time>2026-05-01T15:14:35.876Z</time></trkpt><trkpt lat="43.6700838" lon="7.2014029"><ele>11.0</ele><time>2026-05-01T15:14:36.876Z</time></trkpt><trkpt lat="43.6699245" lon="7.2012677"><ele>11.0</ele><time>2026-05-01T15:14:37.876Z</time></trkpt><trkpt lat="43.6697358" lon="7.2010908"><ele>11.0</ele><time>2026-05-01T15:14:38.876Z</time></trkpt><trkpt lat="43.6695624" lon="7.2009091"><ele>11.0</ele><time>2026-05-01T15:14:39.876Z</time></trkpt><trkpt lat="43.6694384" lon="7.200718"><ele>11.0</ele><time>2026-05-01T15:14:40.876Z</time></trkpt><trkpt lat="43.6693037" lon="7.2005184"><ele>10.5</ele><time>2026-05-01T15:14:41.876Z</time></trkpt><trkpt lat="43.6691626" lon="7.2002519"><ele>10.0</ele><time>2026-05-01T15:14:42.876Z</time></trkpt><trkpt lat="43.6690412" lon="7.1999841"><ele>10.666666666666668</ele><time>2026-05-01T15:14:43.876Z</time></trkpt><trkpt lat="43.6689368" lon="7.1997198"><ele>11.333333333333334</ele><time>2026-05-01T15:14:44.877Z</time></trkpt><trkpt lat="43.6688621" lon="7.1994739"><ele>12.0</ele><time>2026-05-01T15:14:45.877Z</time></trkpt><trkpt lat="43.6687789" lon="7.1992132"><ele>12.0</ele><time>2026-05-01T15:14:46.876Z</time></trkpt><trkpt lat="43.6686903" lon="7.1989173"><ele>12.0</ele><time>2026-05-01T15:14:47.876Z</time></trkpt><trkpt lat="43.6686012" lon="7.1986166"><ele>12.0</ele><time>2026-05-01T15:14:48.876Z</time></trkpt><trkpt lat="43.6685246" lon="7.198326"><ele>12.0</ele><time>2026-05-01T15:14:49.876Z</time></trkpt><trkpt lat="43.6684353" lon="7.1980304"><ele>11.0</ele><time>2026-05-01T15:14:50.876Z</time></trkpt><trkpt lat="43.6683306" lon="7.1977093"><ele>10.0</ele><time>2026-05-01T15:14:51.876Z</time></trkpt><trkpt lat="43.6682219" lon="7.1973687"><ele>10.0</ele><time>2026-05-01T15:14:52.876Z</time></trkpt><trkpt lat="43.6681321" lon="7.1970761"><ele>10.0</ele><time>2026-05-01T15:14:53.876Z</time></trkpt><trkpt lat="43.6680521" lon="7.1967837"><ele>9.5</ele><time>2026-05-01T15:14:54.876Z</time></trkpt><trkpt lat="43.6679505" lon="7.1964879"><ele>9.0</ele><time>2026-05-01T15:14:55.876Z</time></trkpt><trkpt lat="43.6678474" lon="7.1961887"><ele>12.0</ele><time>2026-05-01T15:14:56.876Z</time></trkpt><trkpt lat="43.6677524" lon="7.1958753"><ele>15.0</ele><time>2026-05-01T15:14:57.876Z</time></trkpt><trkpt lat="43.6676558" lon="7.1955831"><ele>16.5</ele><time>2026-05-01T15:14:58.876Z</time></trkpt><trkpt lat="43.6675634" lon="7.1952951"><ele>18.0</ele><time>2026-05-01T15:14:59.876Z</time></trkpt><trkpt lat="43.6674593" lon="7.1950135"><ele>19.0</ele><time>2026-05-01T15:15:00.876Z</time></trkpt><trkpt lat="43.66739" lon="7.1947414"><ele>20.0</ele><time>2026-05-01T15:15:01.876Z</time></trkpt><trkpt lat="43.6672972" lon="7.1944513"><ele>21.0</ele><time>2026-05-01T15:15:02.876Z</time></trkpt><trkpt lat="43.6671967" lon="7.194155"><ele>21.5</ele><time>2026-05-01T15:15:03.876Z</time></trkpt><trkpt lat="43.6671314" lon="7.1938529"><ele>22.0</ele><time>2026-05-01T15:15:04.876Z</time></trkpt><trkpt lat="43.6670542" lon="7.1935594"><ele>22.0</ele><time>2026-05-01T15:15:05.876Z</time></trkpt><trkpt lat="43.6669747" lon="7.1932435"><ele>22.0</ele><time>2026-05-01T15:15:06.876Z</time></trkpt><trkpt lat="43.6669162" lon="7.1929276"><ele>22.0</ele><time>2026-05-01T15:15:07.876Z</time></trkpt><trkpt lat="43.6668548" lon="7.192608"><ele>22.0</ele><time>2026-05-01T15:15:08.876Z</time></trkpt><trkpt lat="43.6667908" lon="7.1922877"><ele>22.0</ele><time>2026-05-01T15:15:09.876Z</time></trkpt><trkpt lat="43.6667453" lon="7.1919689"><ele>22.0</ele><time>2026-05-01T15:15:10.876Z</time></trkpt><trkpt lat="43.6666871" lon="7.1916718"><ele>22.5</ele><time>2026-05-01T15:15:11.876Z</time></trkpt><trkpt lat="43.6666551" lon="7.1913219"><ele>23.0</ele><time>2026-05-01T15:15:12.877Z</time></trkpt><trkpt lat="43.6666444" lon="7.1910114"><ele>23.0</ele><time>2026-05-01T15:15:13.876Z</time></trkpt><trkpt lat="43.6666068" lon="7.1906857"><ele>23.0</ele><time>2026-05-01T15:15:14.876Z</time></trkpt><trkpt lat="43.666563" lon="7.1903675"><ele>26.0</ele><time>2026-05-01T15:15:15.877Z</time></trkpt><trkpt lat="43.666531" lon="7.1900401"><ele>29.0</ele><time>2026-05-01T15:15:16.876Z</time></trkpt><trkpt lat="43.6664992" lon="7.1897026"><ele>31.5</ele><time>2026-05-01T15:15:17.876Z</time></trkpt><trkpt lat="43.666475" lon="7.1893628"><ele>34.0</ele><time>2026-05-01T15:15:18.876Z</time></trkpt><trkpt lat="43.6664008" lon="7.1890179"><ele>35.5</ele><time>2026-05-01T15:15:19.876Z</time></trkpt><trkpt lat="43.666366" lon="7.1886902"><ele>37.0</ele><time>2026-05-01T15:15:20.876Z</time></trkpt><trkpt lat="43.6663099" lon="7.1883644"><ele>37.0</ele><time>2026-05-01T15:15:21.876Z</time></trkpt><trkpt lat="43.6662505" lon="7.1880452"><ele>37.0</ele><time>2026-05-01T15:15:22.876Z</time></trkpt><trkpt lat="43.6661792" lon="7.1877048"><ele>36.0</ele><time>2026-05-01T15:15:23.876Z</time></trkpt><trkpt lat="43.6660908" lon="7.1873608"><ele>35.0</ele><time>2026-05-01T15:15:24.876Z</time></trkpt><trkpt lat="43.6659835" lon="7.1870217"><ele>34.5</ele><time>2026-05-01T15:15:25.876Z</time></trkpt><trkpt lat="43.6658937" lon="7.1866749"><ele>34.0</ele><time>2026-05-01T15:15:26.876Z</time></trkpt><trkpt lat="43.6657303" lon="7.1863599"><ele>35.0</ele><time>2026-05-01T15:15:27.876Z</time></trkpt><trkpt lat="43.6655991" lon="7.1860146"><ele>36.0</ele><time>2026-05-01T15:15:28.876Z</time></trkpt><trkpt lat="43.6655099" lon="7.1856514"><ele>36.0</ele><time>2026-05-01T15:15:29.876Z</time></trkpt><trkpt lat="43.6653913" lon="7.1853175"><ele>36.0</ele><time>2026-05-01T15:15:30.876Z</time></trkpt><trkpt lat="43.6652997" lon="7.1849926"><ele>33.5</ele><time>2026-05-01T15:15:31.876Z</time></trkpt><trkpt lat="43.6651964" lon="7.1846535"><ele>31.0</ele><time>2026-05-01T15:15:32.876Z</time></trkpt><trkpt lat="43.6651078" lon="7.1843362"><ele>30.5</ele><time>2026-05-01T15:15:33.876Z</time></trkpt><trkpt lat="43.6650198" lon="7.1840087"><ele>30.0</ele><time>2026-05-01T15:15:34.877Z</time></trkpt><trkpt lat="43.664967" lon="7.1836804"><ele>30.0</ele><time>2026-05-01T15:15:35.876Z</time></trkpt><trkpt lat="43.6648898" lon="7.1833582"><ele>30.0</ele><time>2026-05-01T15:15:36.876Z</time></trkpt><trkpt lat="43.6648034" lon="7.1830252"><ele>28.5</ele><time>2026-05-01T15:15:37.876Z</time></trkpt><trkpt lat="43.6647388" lon="7.182699"><ele>27.0</ele><time>2026-05-01T15:15:38.876Z</time></trkpt><trkpt lat="43.6646775" lon="7.1823571"><ele>27.5</ele><time>2026-05-01T15:15:39.876Z</time></trkpt><trkpt lat="43.6646066" lon="7.1820124"><ele>28.0</ele><time>2026-05-01T15:15:40.876Z</time></trkpt><trkpt lat="43.6645389" lon="7.1816764"><ele>29.0</ele><time>2026-05-01T15:15:41.876Z</time></trkpt><trkpt lat="43.6644724" lon="7.1813307"><ele>30.0</ele><time>2026-05-01T15:15:42.877Z</time></trkpt><trkpt lat="43.6644144" lon="7.180991"><ele>27.5</ele><time>2026-05-01T15:15:43.876Z</time></trkpt><trkpt lat="43.664351" lon="7.1806461"><ele>25.0</ele><time>2026-05-01T15:15:44.876Z</time></trkpt><trkpt lat="43.6642954" lon="7.1803131"><ele>25.0</ele><time>2026-05-01T15:15:45.876Z</time></trkpt><trkpt lat="43.6642349" lon="7.1799806"><ele>25.0</ele><time>2026-05-01T15:15:46.876Z</time></trkpt><trkpt lat="43.6641743" lon="7.1796466"><ele>24.5</ele><time>2026-05-01T15:15:47.876Z</time></trkpt><trkpt lat="43.6641165" lon="7.1793207"><ele>24.0</ele><time>2026-05-01T15:15:48.876Z</time></trkpt><trkpt lat="43.6640446" lon="7.17897"><ele>24.0</ele><time>2026-05-01T15:15:49.876Z</time></trkpt><trkpt lat="43.6639862" lon="7.1786289"><ele>24.0</ele><time>2026-05-01T15:15:50.876Z</time></trkpt><trkpt lat="43.6639121" lon="7.1782798"><ele>25.0</ele><time>2026-05-01T15:15:51.876Z</time></trkpt><trkpt lat="43.6638451" lon="7.1779429"><ele>26.0</ele><time>2026-05-01T15:15:52.876Z</time></trkpt><trkpt lat="43.6637955" lon="7.1775962"><ele>26.5</ele><time>2026-05-01T15:15:53.876Z</time></trkpt><trkpt lat="43.6637678" lon="7.1772708"><ele>27.0</ele><time>2026-05-01T15:15:54.876Z</time></trkpt><trkpt lat="43.6637251" lon="7.1769501"><ele>27.0</ele><time>2026-05-01T15:15:55.876Z</time></trkpt><trkpt lat="43.6636836" lon="7.176611"><ele>27.0</ele><time>2026-05-01T15:15:56.876Z</time></trkpt><trkpt lat="43.6636206" lon="7.1762891"><ele>23.0</ele><time>2026-05-01T15:15:57.876Z</time></trkpt><trkpt lat="43.663545" lon="7.175947"><ele>19.0</ele><time>2026-05-01T15:15:58.876Z</time></trkpt><trkpt lat="43.6634783" lon="7.1755949"><ele>19.0</ele><time>2026-05-01T15:15:59.876Z</time></trkpt><trkpt lat="43.6634427" lon="7.1752679"><ele>19.0</ele><time>2026-05-01T15:16:00.876Z</time></trkpt><trkpt lat="43.6634054" lon="7.1749766"><ele>19.0</ele><time>2026-05-01T15:16:01.876Z</time></trkpt><trkpt lat="43.663362" lon="7.1746681"><ele>19.0</ele><time>2026-05-01T15:16:02.876Z</time></trkpt><trkpt lat="43.663304" lon="7.1742988"><ele>18.5</ele><time>2026-05-01T15:16:03.876Z</time></trkpt><trkpt lat="43.6632653" lon="7.1739938"><ele>18.0</ele><time>2026-05-01T15:16:04.876Z</time></trkpt><trkpt lat="43.663215" lon="7.1736836"><ele>18.0</ele><time>2026-05-01T15:16:05.876Z</time></trkpt><trkpt lat="43.6631484" lon="7.1733718"><ele>18.0</ele><time>2026-05-01T15:16:06.876Z</time></trkpt><trkpt lat="43.6630827" lon="7.1730514"><ele>16.0</ele><time>2026-05-01T15:16:07.876Z</time></trkpt><trkpt lat="43.6630278" lon="7.1727045"><ele>14.0</ele><time>2026-05-01T15:16:08.876Z</time></trkpt><trkpt lat="43.6629533" lon="7.1724129"><ele>14.5</ele><time>2026-05-01T15:16:09.876Z</time></trkpt><trkpt lat="43.6628682" lon="7.1720685"><ele>15.0</ele><time>2026-05-01T15:16:10.876Z</time></trkpt><trkpt lat="43.6627796" lon="7.1717876"><ele>15.5</ele><time>2026-05-01T15:16:11.876Z</time></trkpt><trkpt lat="43.6626874" lon="7.1714821"><ele>16.0</ele><time>2026-05-01T15:16:12.876Z</time></trkpt><trkpt lat="43.6626017" lon="7.1711968"><ele>16.0</ele><time>2026-05-01T15:16:13.877Z</time></trkpt><trkpt lat="43.6625196" lon="7.1708942"><ele>16.0</ele><time>2026-05-01T15:16:14.876Z</time></trkpt><trkpt lat="43.662389" lon="7.1706229"><ele>19.0</ele><time>2026-05-01T15:16:15.876Z</time></trkpt><trkpt lat="43.6622861" lon="7.1703692"><ele>22.0</ele><time>2026-05-01T15:16:16.876Z</time></trkpt><trkpt lat="43.6621612" lon="7.1700842"><ele>21.5</ele><time>2026-05-01T15:16:17.876Z</time></trkpt><trkpt lat="43.6620328" lon="7.1697926"><ele>21.0</ele><time>2026-05-01T15:16:18.876Z</time></trkpt><trkpt lat="43.6619244" lon="7.1695189"><ele>21.0</ele><time>2026-05-01T15:16:19.876Z</time></trkpt><trkpt lat="43.661812" lon="7.1692571"><ele>21.0</ele><time>2026-05-01T15:16:20.876Z</time></trkpt><trkpt lat="43.6616882" lon="7.1689888"><ele>21.0</ele><time>2026-05-01T15:16:21.876Z</time></trkpt><trkpt lat="43.6615397" lon="7.1687004"><ele>21.0</ele><time>2026-05-01T15:16:22.876Z</time></trkpt><trkpt lat="43.6614351" lon="7.1684272"><ele>21.0</ele><time>2026-05-01T15:16:23.876Z</time></trkpt><trkpt lat="43.6612824" lon="7.1681422"><ele>21.0</ele><time>2026-05-01T15:16:24.876Z</time></trkpt><trkpt lat="43.6611167" lon="7.1678204"><ele>21.333333333333332</ele><time>2026-05-01T15:16:25.876Z</time></trkpt><trkpt lat="43.6610587" lon="7.1676193"><ele>21.666666666666664</ele><time>2026-05-01T15:16:26.876Z</time></trkpt><trkpt lat="43.6609733" lon="7.1673348"><ele>22.0</ele><time>2026-05-01T15:16:27.876Z</time></trkpt><trkpt lat="43.6608384" lon="7.1670205"><ele>22.0</ele><time>2026-05-01T15:16:28.876Z</time></trkpt><trkpt lat="43.6607646" lon="7.1667441"><ele>22.0</ele><time>2026-05-01T15:16:29.876Z</time></trkpt><trkpt lat="43.6606661" lon="7.1664852"><ele>22.0</ele><time>2026-05-01T15:16:30.876Z</time></trkpt><trkpt lat="43.6605609" lon="7.166189"><ele>22.0</ele><time>2026-05-01T15:16:31.876Z</time></trkpt><trkpt lat="43.6604999" lon="7.1658702"><ele>22.0</ele><time>2026-05-01T15:16:32.876Z</time></trkpt><trkpt lat="43.6604342" lon="7.1655454"><ele>22.0</ele><time>2026-05-01T15:16:33.876Z</time></trkpt><trkpt lat="43.6603852" lon="7.1652259"><ele>22.0</ele><time>2026-05-01T15:16:34.876Z</time></trkpt><trkpt lat="43.6603497" lon="7.1649401"><ele>22.0</ele><time>2026-05-01T15:16:35.876Z</time></trkpt><trkpt lat="43.6603355" lon="7.1646333"><ele>21.666666666666664</ele><time>2026-05-01T15:16:36.876Z</time></trkpt><trkpt lat="43.6603048" lon="7.1643274"><ele>21.333333333333332</ele><time>2026-05-01T15:16:37.876Z</time></trkpt><trkpt lat="43.6603119" lon="7.1640294"><ele>21.0</ele><time>2026-05-01T15:16:38.877Z</time></trkpt><trkpt lat="43.6602906" lon="7.1637145"><ele>20.666666666666668</ele><time>2026-05-01T15:16:39.876Z</time></trkpt><trkpt lat="43.6603125" lon="7.16342"><ele>20.333333333333336</ele><time>2026-05-01T15:16:40.876Z</time></trkpt><trkpt lat="43.6603147" lon="7.1631078"><ele>20.0</ele><time>2026-05-01T15:16:41.876Z</time></trkpt><trkpt lat="43.6603211" lon="7.1628158"><ele>19.666666666666668</ele><time>2026-05-01T15:16:42.876Z</time></trkpt><trkpt lat="43.6603219" lon="7.1625094"><ele>19.333333333333332</ele><time>2026-05-01T15:16:43.876Z</time></trkpt><trkpt lat="43.6603358" lon="7.1622"><ele>19.0</ele><time>2026-05-01T15:16:44.876Z</time></trkpt><trkpt lat="43.6603593" lon="7.161878"><ele>18.0</ele><time>2026-05-01T15:16:45.876Z</time></trkpt><trkpt lat="43.6603662" lon="7.1615597"><ele>17.0</ele><time>2026-05-01T15:16:46.876Z</time></trkpt><trkpt lat="43.6604076" lon="7.1612422"><ele>17.0</ele><time>2026-05-01T15:16:47.876Z</time></trkpt><trkpt lat="43.6604271" lon="7.1608833"><ele>17.0</ele><time>2026-05-01T15:16:48.876Z</time></trkpt><trkpt lat="43.6604671" lon="7.160598"><ele>17.0</ele><time>2026-05-01T15:16:49.876Z</time></trkpt><trkpt lat="43.6605007" lon="7.1603133"><ele>17.0</ele><time>2026-05-01T15:16:50.876Z</time></trkpt><trkpt lat="43.6605364" lon="7.1600027"><ele>17.0</ele><time>2026-05-01T15:16:51.876Z</time></trkpt><trkpt lat="43.6605621" lon="7.1597083"><ele>17.0</ele><time>2026-05-01T15:16:52.876Z</time></trkpt><trkpt lat="43.6606037" lon="7.1594496"><ele>17.0</ele><time>2026-05-01T15:16:53.876Z</time></trkpt><trkpt lat="43.6606351" lon="7.1591654"><ele>17.0</ele><time>2026-05-01T15:16:54.876Z</time></trkpt><trkpt lat="43.6606724" lon="7.158887"><ele>19.0</ele><time>2026-05-01T15:16:55.876Z</time></trkpt><trkpt lat="43.6607005" lon="7.1586002"><ele>21.0</ele><time>2026-05-01T15:16:56.876Z</time></trkpt><trkpt lat="43.6607323" lon="7.1582976"><ele>23.0</ele><time>2026-05-01T15:16:57.876Z</time></trkpt><trkpt lat="43.6607578" lon="7.1580117"><ele>23.0</ele><time>2026-05-01T15:16:58.876Z</time></trkpt><trkpt lat="43.6607967" lon="7.1577145"><ele>23.0</ele><time>2026-05-01T15:16:59.876Z</time></trkpt><trkpt lat="43.660824" lon="7.1574407"><ele>23.0</ele><time>2026-05-01T15:17:00.876Z</time></trkpt><trkpt lat="43.6608571" lon="7.1571233"><ele>23.0</ele><time>2026-05-01T15:17:01.876Z</time></trkpt><trkpt lat="43.660866" lon="7.1568242"><ele>23.0</ele><time>2026-05-01T15:17:02.877Z</time></trkpt><trkpt lat="43.6608954" lon="7.1565854"><ele>23.0</ele><time>2026-05-01T15:17:03.876Z</time></trkpt><trkpt lat="43.6609198" lon="7.1562815"><ele>22.333333333333336</ele><time>2026-05-01T15:17:04.876Z</time></trkpt><trkpt lat="43.6609454" lon="7.1559981"><ele>21.666666666666668</ele><time>2026-05-01T15:17:05.876Z</time></trkpt><trkpt lat="43.6609444" lon="7.1556911"><ele>21.0</ele><time>2026-05-01T15:17:06.876Z</time></trkpt><trkpt lat="43.6609437" lon="7.1554007"><ele>20.0</ele><time>2026-05-01T15:17:07.876Z</time></trkpt><trkpt lat="43.6609304" lon="7.1551258"><ele>19.0</ele><time>2026-05-01T15:17:08.876Z</time></trkpt><trkpt lat="43.6609209" lon="7.1548522"><ele>18.0</ele><time>2026-05-01T15:17:09.876Z</time></trkpt><trkpt lat="43.6608846" lon="7.154564"><ele>16.333333333333332</ele><time>2026-05-01T15:17:10.876Z</time></trkpt><trkpt lat="43.6608539" lon="7.1543054"><ele>14.666666666666666</ele><time>2026-05-01T15:17:11.877Z</time></trkpt><trkpt lat="43.660809" lon="7.1540201"><ele>13.0</ele><time>2026-05-01T15:17:12.876Z</time></trkpt><trkpt lat="43.6608024" lon="7.1537513"><ele>11.666666666666666</ele><time>2026-05-01T15:17:13.876Z</time></trkpt><trkpt lat="43.6607762" lon="7.1535162"><ele>10.333333333333332</ele><time>2026-05-01T15:17:14.876Z</time></trkpt><trkpt lat="43.6607343" lon="7.1532874"><ele>9.0</ele><time>2026-05-01T15:17:15.876Z</time></trkpt><trkpt lat="43.6606827" lon="7.1530359"><ele>9.0</ele><time>2026-05-01T15:17:16.876Z</time></trkpt><trkpt lat="43.6606118" lon="7.1527983"><ele>9.0</ele><time>2026-05-01T15:17:17.876Z</time></trkpt><trkpt lat="43.6605563" lon="7.1525684"><ele>9.0</ele><time>2026-05-01T15:17:18.876Z</time></trkpt><trkpt lat="43.6604985" lon="7.1523356"><ele>9.0</ele><time>2026-05-01T15:17:19.876Z</time></trkpt><trkpt lat="43.6604431" lon="7.1521149"><ele>9.0</ele><time>2026-05-01T15:17:20.877Z</time></trkpt><trkpt lat="43.6603709" lon="7.1519074"><ele>9.0</ele><time>2026-05-01T15:17:21.877Z</time></trkpt><trkpt lat="43.6603327" lon="7.1516825"><ele>9.75</ele><time>2026-05-01T15:17:22.876Z</time></trkpt><trkpt lat="43.6602682" lon="7.151463"><ele>10.5</ele><time>2026-05-01T15:17:23.876Z</time></trkpt><trkpt lat="43.6602177" lon="7.1512679"><ele>11.25</ele><time>2026-05-01T15:17:24.876Z</time></trkpt><trkpt lat="43.6602014" lon="7.1511091"><ele>12.0</ele><time>2026-05-01T15:17:25.876Z</time></trkpt><trkpt lat="43.6601606" lon="7.1509506"><ele>12.0</ele><time>2026-05-01T15:17:26.876Z</time></trkpt><trkpt lat="43.6600883" lon="7.1507704"><ele>12.0</ele><time>2026-05-01T15:17:27.876Z</time></trkpt><trkpt lat="43.6600454" lon="7.1505964"><ele>12.0</ele><time>2026-05-01T15:17:28.876Z</time></trkpt><trkpt lat="43.6599882" lon="7.150433"><ele>12.0</ele><time>2026-05-01T15:17:29.877Z</time></trkpt><trkpt lat="43.6599377" lon="7.1502847"><ele>12.5</ele><time>2026-05-01T15:17:30.876Z</time></trkpt><trkpt lat="43.6598619" lon="7.1501345"><ele>13.0</ele><time>2026-05-01T15:17:31.876Z</time></trkpt><trkpt lat="43.6598001" lon="7.1499925"><ele>13.5</ele><time>2026-05-01T15:17:32.876Z</time></trkpt><trkpt lat="43.6597298" lon="7.1498773"><ele>14.0</ele><time>2026-05-01T15:17:33.876Z</time></trkpt><trkpt lat="43.6596565" lon="7.1497259"><ele>14.0</ele><time>2026-05-01T15:17:34.876Z</time></trkpt><trkpt lat="43.6595993" lon="7.1495998"><ele>13.999999999999998</ele><time>2026-05-01T15:17:35.876Z</time></trkpt><trkpt lat="43.6595399" lon="7.1495036"><ele>13.999999999999998</ele><time>2026-05-01T15:17:36.876Z</time></trkpt><trkpt lat="43.6594812" lon="7.149413"><ele>14.0</ele><time>2026-05-01T15:17:37.876Z</time></trkpt><trkpt lat="43.6594406" lon="7.1493412"><ele>14.0</ele><time>2026-05-01T15:17:38.876Z</time></trkpt><trkpt lat="43.6593802" lon="7.1491809"><ele>14.166666666666668</ele><time>2026-05-01T15:17:40.876Z</time></trkpt><trkpt lat="43.6593868" lon="7.1490597"><ele>14.333333333333334</ele><time>2026-05-01T15:17:42.876Z</time></trkpt><trkpt lat="43.6593783" lon="7.1489659"><ele>14.5</ele><time>2026-05-01T15:17:43.876Z</time></trkpt><trkpt lat="43.6594039" lon="7.148838"><ele>14.666666666666668</ele><time>2026-05-01T15:17:45.877Z</time></trkpt><trkpt lat="43.6594524" lon="7.1487309"><ele>14.833333333333334</ele><time>2026-05-01T15:17:47.876Z</time></trkpt><trkpt lat="43.6593836" lon="7.1486859"><ele>15.0</ele><time>2026-05-01T15:18:01.876Z</time></trkpt><trkpt lat="43.6593181" lon="7.1486405"><ele>15.0</ele><time>2026-05-01T15:18:04.876Z</time></trkpt><trkpt lat="43.6594094" lon="7.1486758"><ele>15.0</ele><time>2026-05-01T15:18:18.876Z</time></trkpt><trkpt lat="43.659437" lon="7.1485918"><ele>15.0</ele><time>2026-05-01T15:18:30.876Z</time></trkpt><trkpt lat="43.6594636" lon="7.1483357"><ele>15.0</ele><time>2026-05-01T15:19:07.876Z</time></trkpt><trkpt lat="43.6594528" lon="7.1482474"><ele>15.0</ele><time>2026-05-01T15:19:08.876Z</time></trkpt><trkpt lat="43.6594352" lon="7.1481377"><ele>15.0</ele><time>2026-05-01T15:19:09.876Z</time></trkpt><trkpt lat="43.6594502" lon="7.1480466"><ele>15.0</ele><time>2026-05-01T15:19:10.876Z</time></trkpt><trkpt lat="43.6594423" lon="7.1478802"><ele>15.0</ele><time>2026-05-01T15:19:12.876Z</time></trkpt><trkpt lat="43.6594638" lon="7.1477096"><ele>15.0</ele><time>2026-05-01T15:19:13.876Z</time></trkpt><trkpt lat="43.6594767" lon="7.1475332"><ele>15.0</ele><time>2026-05-01T15:19:14.876Z</time></trkpt><trkpt lat="43.6595064" lon="7.1473491"><ele>14.5</ele><time>2026-05-01T15:19:15.876Z</time></trkpt><trkpt lat="43.6595484" lon="7.1471822"><ele>14.0</ele><time>2026-05-01T15:19:16.876Z</time></trkpt><trkpt lat="43.6595903" lon="7.1470163"><ele>13.5</ele><time>2026-05-01T15:19:17.876Z</time></trkpt><trkpt lat="43.6596493" lon="7.1468308"><ele>13.0</ele><time>2026-05-01T15:19:18.876Z</time></trkpt><trkpt lat="43.6597056" lon="7.1466502"><ele>13.0</ele><time>2026-05-01T15:19:19.876Z</time></trkpt><trkpt lat="43.6597343" lon="7.146479"><ele>13.0</ele><time>2026-05-01T15:19:20.876Z</time></trkpt><trkpt lat="43.6597802" lon="7.1462993"><ele>13.0</ele><time>2026-05-01T15:19:21.876Z</time></trkpt><trkpt lat="43.659834" lon="7.1461346"><ele>13.0</ele><time>2026-05-01T15:19:22.876Z</time></trkpt><trkpt lat="43.659872" lon="7.1459812"><ele>13.0</ele><time>2026-05-01T15:19:23.876Z</time></trkpt><trkpt lat="43.6599064" lon="7.1458315"><ele>13.0</ele><time>2026-05-01T15:19:24.876Z</time></trkpt><trkpt lat="43.659943" lon="7.1456844"><ele>13.0</ele><time>2026-05-01T15:19:25.876Z</time></trkpt><trkpt lat="43.6599844" lon="7.1455395"><ele>13.0</ele><time>2026-05-01T15:19:26.876Z</time></trkpt><trkpt lat="43.6600446" lon="7.1454275"><ele>13.0</ele><time>2026-05-01T15:19:27.876Z</time></trkpt><trkpt lat="43.6600925" lon="7.1452853"><ele>12.8</ele><time>2026-05-01T15:19:28.876Z</time></trkpt><trkpt lat="43.6601208" lon="7.1451387"><ele>12.600000000000001</ele><time>2026-05-01T15:19:29.876Z</time></trkpt><trkpt lat="43.6601488" lon="7.1450194"><ele>12.399999999999999</ele><time>2026-05-01T15:19:30.876Z</time></trkpt><trkpt lat="43.6601951" lon="7.1448791"><ele>12.2</ele><time>2026-05-01T15:19:31.876Z</time></trkpt><trkpt lat="43.6602169" lon="7.1447544"><ele>12.0</ele><time>2026-05-01T15:19:32.876Z</time></trkpt><trkpt lat="43.6602434" lon="7.1446657"><ele>12.0</ele><time>2026-05-01T15:19:33.876Z</time></trkpt><trkpt lat="43.6602644" lon="7.1445694"><ele>12.0</ele><time>2026-05-01T15:19:34.876Z</time></trkpt><trkpt lat="43.6602766" lon="7.1444828"><ele>12.0</ele><time>2026-05-01T15:19:35.876Z</time></trkpt><trkpt lat="43.6602624" lon="7.144389"><ele>12.0</ele><time>2026-05-01T15:19:36.876Z</time></trkpt><trkpt lat="43.6603012" lon="7.1443055"><ele>12.0</ele><time>2026-05-01T15:19:37.877Z</time></trkpt><trkpt lat="43.6603883" lon="7.1441912"><ele>12.0</ele><time>2026-05-01T15:19:39.876Z</time></trkpt><trkpt lat="43.6604572" lon="7.1440554"><ele>13.0</ele><time>2026-05-01T15:19:41.876Z</time></trkpt><trkpt lat="43.6604975" lon="7.1439486"><ele>14.0</ele><time>2026-05-01T15:19:42.876Z</time></trkpt><trkpt lat="43.6604992" lon="7.1438244"><ele>15.0</ele><time>2026-05-01T15:19:43.876Z</time></trkpt><trkpt lat="43.6605075" lon="7.1437236"><ele>16.0</ele><time>2026-05-01T15:19:44.876Z</time></trkpt><trkpt lat="43.6605076" lon="7.1436273"><ele>17.0</ele><time>2026-05-01T15:19:45.876Z</time></trkpt><trkpt lat="43.6604801" lon="7.1435256"><ele>18.0</ele><time>2026-05-01T15:19:46.876Z</time></trkpt><trkpt lat="43.6604995" lon="7.1434316"><ele>18.0</ele><time>2026-05-01T15:19:47.876Z</time></trkpt><trkpt lat="43.6605156" lon="7.1433247"><ele>18.0</ele><time>2026-05-01T15:19:48.876Z</time></trkpt><trkpt lat="43.6605035" lon="7.143183"><ele>18.0</ele><time>2026-05-01T15:19:49.876Z</time></trkpt><trkpt lat="43.6604863" lon="7.142999"><ele>18.0</ele><time>2026-05-01T15:19:50.876Z</time></trkpt><trkpt lat="43.6604703" lon="7.1428231"><ele>18.0</ele><time>2026-05-01T15:19:51.876Z</time></trkpt><trkpt lat="43.6604613" lon="7.1426897"><ele>17.6</ele><time>2026-05-01T15:19:52.877Z</time></trkpt><trkpt lat="43.6604524" lon="7.142558"><ele>17.200000000000003</ele><time>2026-05-01T15:19:53.876Z</time></trkpt><trkpt lat="43.6604506" lon="7.1424381"><ele>16.8</ele><time>2026-05-01T15:19:54.876Z</time></trkpt><trkpt lat="43.6604438" lon="7.142285"><ele>16.400000000000002</ele><time>2026-05-01T15:19:56.876Z</time></trkpt><trkpt lat="43.6604054" lon="7.1421268"><ele>16.0</ele><time>2026-05-01T15:19:58.876Z</time></trkpt><trkpt lat="43.6603842" lon="7.1419639"><ele>15.833333333333332</ele><time>2026-05-01T15:20:00.876Z</time></trkpt><trkpt lat="43.660365" lon="7.1418476"><ele>15.666666666666666</ele><time>2026-05-01T15:20:01.876Z</time></trkpt><trkpt lat="43.6603657" lon="7.14176"><ele>15.5</ele><time>2026-05-01T15:20:02.876Z</time></trkpt><trkpt lat="43.6603466" lon="7.1416047"><ele>15.333333333333332</ele><time>2026-05-01T15:20:03.876Z</time></trkpt><trkpt lat="43.6603349" lon="7.1415027"><ele>15.166666666666666</ele><time>2026-05-01T15:20:04.876Z</time></trkpt><trkpt lat="43.6603022" lon="7.1413761"><ele>15.0</ele><time>2026-05-01T15:20:05.876Z</time></trkpt><trkpt lat="43.6602763" lon="7.1412569"><ele>15.0</ele><time>2026-05-01T15:20:06.876Z</time></trkpt><trkpt lat="43.6602571" lon="7.1411414"><ele>15.0</ele><time>2026-05-01T15:20:07.876Z</time></trkpt><trkpt lat="43.6602564" lon="7.1410232"><ele>15.0</ele><time>2026-05-01T15:20:08.876Z</time></trkpt><trkpt lat="43.6602552" lon="7.1408994"><ele>15.0</ele><time>2026-05-01T15:20:09.876Z</time></trkpt><trkpt lat="43.6602239" lon="7.1406989"><ele>15.0</ele><time>2026-05-01T15:20:11.876Z</time></trkpt><trkpt lat="43.6602072" lon="7.1405945"><ele>15.0</ele><time>2026-05-01T15:20:12.876Z</time></trkpt><trkpt lat="43.660191" lon="7.1405069"><ele>15.0</ele><time>2026-05-01T15:20:13.876Z</time></trkpt><trkpt lat="43.6601711" lon="7.1403938"><ele>15.0</ele><time>2026-05-01T15:20:14.876Z</time></trkpt><trkpt lat="43.6601458" lon="7.1402357"><ele>15.0</ele><time>2026-05-01T15:20:15.876Z</time></trkpt><trkpt lat="43.660128" lon="7.1401238"><ele>15.0</ele><time>2026-05-01T15:20:16.876Z</time></trkpt><trkpt lat="43.6601119" lon="7.1399886"><ele>15.0</ele><time>2026-05-01T15:20:17.876Z</time></trkpt><trkpt lat="43.6600819" lon="7.1398512"><ele>15.166666666666666</ele><time>2026-05-01T15:20:18.876Z</time></trkpt><trkpt lat="43.6600748" lon="7.1397402"><ele>15.333333333333332</ele><time>2026-05-01T15:20:19.876Z</time></trkpt><trkpt lat="43.6600833" lon="7.1396285"><ele>15.5</ele><time>2026-05-01T15:20:20.876Z</time></trkpt><trkpt lat="43.6600672" lon="7.1395061"><ele>15.666666666666666</ele><time>2026-05-01T15:20:21.876Z</time></trkpt><trkpt lat="43.6600749" lon="7.1393961"><ele>15.833333333333332</ele><time>2026-05-01T15:20:22.876Z</time></trkpt><trkpt lat="43.6600801" lon="7.1392853"><ele>16.0</ele><time>2026-05-01T15:20:23.876Z</time></trkpt><trkpt lat="43.6600902" lon="7.1391826"><ele>16.0</ele><time>2026-05-01T15:20:24.876Z</time></trkpt><trkpt lat="43.6601039" lon="7.1390645"><ele>16.0</ele><time>2026-05-01T15:20:25.876Z</time></trkpt><trkpt lat="43.6601151" lon="7.138944"><ele>16.0</ele><time>2026-05-01T15:20:26.876Z</time></trkpt><trkpt lat="43.6601045" lon="7.1388474"><ele>16.0</ele><time>2026-05-01T15:20:27.876Z</time></trkpt><trkpt lat="43.6601" lon="7.1386559"><ele>16.0</ele><time>2026-05-01T15:20:29.876Z</time></trkpt><trkpt lat="43.6600727" lon="7.1385307"><ele>16.0</ele><time>2026-05-01T15:20:31.876Z</time></trkpt><trkpt lat="43.6600159" lon="7.1384924"><ele>16.0</ele><time>2026-05-01T15:20:34.876Z</time></trkpt><trkpt lat="43.6599729" lon="7.1384225"><ele>16.0</ele><time>2026-05-01T15:20:53.876Z</time></trkpt><trkpt lat="43.6600096" lon="7.1383279"><ele>16.0</ele><time>2026-05-01T15:21:02.876Z</time></trkpt><trkpt lat="43.6600495" lon="7.1380845"><ele>16.0</ele><time>2026-05-01T15:21:04.876Z</time></trkpt><trkpt lat="43.6600874" lon="7.1379749"><ele>16.2</ele><time>2026-05-01T15:21:05.876Z</time></trkpt><trkpt lat="43.6601105" lon="7.1378603"><ele>16.400000000000002</ele><time>2026-05-01T15:21:06.876Z</time></trkpt><trkpt lat="43.6601185" lon="7.137739"><ele>16.6</ele><time>2026-05-01T15:21:07.876Z</time></trkpt><trkpt lat="43.6601311" lon="7.1376295"><ele>16.8</ele><time>2026-05-01T15:21:08.876Z</time></trkpt><trkpt lat="43.660147" lon="7.1374664"><ele>17.0</ele><time>2026-05-01T15:21:09.876Z</time></trkpt><trkpt lat="43.660158" lon="7.1373167"><ele>17.0</ele><time>2026-05-01T15:21:10.876Z</time></trkpt><trkpt lat="43.6602156" lon="7.1371526"><ele>17.0</ele><time>2026-05-01T15:21:11.876Z</time></trkpt><trkpt lat="43.6602569" lon="7.1369969"><ele>17.0</ele><time>2026-05-01T15:21:12.876Z</time></trkpt><trkpt lat="43.6602793" lon="7.1367903"><ele>17.0</ele><time>2026-05-01T15:21:13.876Z</time></trkpt><trkpt lat="43.6603289" lon="7.1366703"><ele>18.75</ele><time>2026-05-01T15:21:14.876Z</time></trkpt><trkpt lat="43.6603704" lon="7.1364949"><ele>20.5</ele><time>2026-05-01T15:21:15.876Z</time></trkpt><trkpt lat="43.6604117" lon="7.136339"><ele>22.25</ele><time>2026-05-01T15:21:16.877Z</time></trkpt><trkpt lat="43.6604328" lon="7.1362"><ele>24.0</ele><time>2026-05-01T15:21:17.876Z</time></trkpt><trkpt lat="43.6604463" lon="7.1360122"><ele>24.0</ele><time>2026-05-01T15:21:18.876Z</time></trkpt><trkpt lat="43.66051" lon="7.1358332"><ele>24.0</ele><time>2026-05-01T15:21:19.876Z</time></trkpt><trkpt lat="43.6605492" lon="7.1356716"><ele>24.0</ele><time>2026-05-01T15:21:20.877Z</time></trkpt><trkpt lat="43.6605898" lon="7.1354926"><ele>24.0</ele><time>2026-05-01T15:21:21.876Z</time></trkpt><trkpt lat="43.6606492" lon="7.1353604"><ele>23.799999999999997</ele><time>2026-05-01T15:21:22.876Z</time></trkpt><trkpt lat="43.6606997" lon="7.1352164"><ele>23.599999999999998</ele><time>2026-05-01T15:21:23.876Z</time></trkpt><trkpt lat="43.6607464" lon="7.1350861"><ele>23.4</ele><time>2026-05-01T15:21:24.876Z</time></trkpt><trkpt lat="43.6608029" lon="7.1349332"><ele>23.2</ele><time>2026-05-01T15:21:25.876Z</time></trkpt><trkpt lat="43.660848" lon="7.1348268"><ele>23.0</ele><time>2026-05-01T15:21:26.876Z</time></trkpt><trkpt lat="43.6608979" lon="7.1347086"><ele>22.4</ele><time>2026-05-01T15:21:27.876Z</time></trkpt><trkpt lat="43.6609438" lon="7.1345921"><ele>21.799999999999997</ele><time>2026-05-01T15:21:28.876Z</time></trkpt><trkpt lat="43.6610435" lon="7.1344652"><ele>21.2</ele><time>2026-05-01T15:21:30.876Z</time></trkpt><trkpt lat="43.6611064" lon="7.134374"><ele>20.6</ele><time>2026-05-01T15:21:31.876Z</time></trkpt><trkpt lat="43.6611527" lon="7.1342878"><ele>20.0</ele><time>2026-05-01T15:21:32.876Z</time></trkpt><trkpt lat="43.6612211" lon="7.1341682"><ele>20.6</ele><time>2026-05-01T15:21:33.876Z</time></trkpt><trkpt lat="43.6612816" lon="7.1340761"><ele>21.2</ele><time>2026-05-01T15:21:34.877Z</time></trkpt><trkpt lat="43.6613447" lon="7.1339697"><ele>21.799999999999997</ele><time>2026-05-01T15:21:35.876Z</time></trkpt><trkpt lat="43.6614108" lon="7.1338591"><ele>22.4</ele><time>2026-05-01T15:21:36.876Z</time></trkpt><trkpt lat="43.661505" lon="7.1337292"><ele>23.0</ele><time>2026-05-01T15:21:37.876Z</time></trkpt><trkpt lat="43.6616449" lon="7.133577"><ele>23.0</ele><time>2026-05-01T15:21:38.876Z</time></trkpt><trkpt lat="43.6617174" lon="7.1334953"><ele>23.0</ele><time>2026-05-01T15:21:39.876Z</time></trkpt><trkpt lat="43.6617828" lon="7.1333965"><ele>23.0</ele><time>2026-05-01T15:21:40.876Z</time></trkpt><trkpt lat="43.6618463" lon="7.1332932"><ele>23.0</ele><time>2026-05-01T15:21:41.876Z</time></trkpt><trkpt lat="43.6619186" lon="7.1332065"><ele>23.0</ele><time>2026-05-01T15:21:42.877Z</time></trkpt><trkpt lat="43.6619422" lon="7.1330999"><ele>23.0</ele><time>2026-05-01T15:21:43.876Z</time></trkpt><trkpt lat="43.6619981" lon="7.1330275"><ele>23.0</ele><time>2026-05-01T15:21:44.876Z</time></trkpt><trkpt lat="43.6620481" lon="7.1329618"><ele>23.0</ele><time>2026-05-01T15:21:45.876Z</time></trkpt><trkpt lat="43.6621296" lon="7.1328436"><ele>23.0</ele><time>2026-05-01T15:21:47.876Z</time></trkpt><trkpt lat="43.6622194" lon="7.1327084"><ele>23.0</ele><time>2026-05-01T15:21:49.876Z</time></trkpt><trkpt lat="43.6622797" lon="7.1326226"><ele>23.0</ele><time>2026-05-01T15:21:51.876Z</time></trkpt><trkpt lat="43.6623234" lon="7.1325348"><ele>23.0</ele><time>2026-05-01T15:21:55.876Z</time></trkpt><trkpt lat="43.6624501" lon="7.1324455"><ele>23.0</ele><time>2026-05-01T15:21:58.876Z</time></trkpt><trkpt lat="43.6625413" lon="7.1324152"><ele>23.0</ele><time>2026-05-01T15:21:59.876Z</time></trkpt><trkpt lat="43.6626567" lon="7.1324407"><ele>23.0</ele><time>2026-05-01T15:22:01.876Z</time></trkpt><trkpt lat="43.6627343" lon="7.1324228"><ele>23.0</ele><time>2026-05-01T15:22:02.876Z</time></trkpt><trkpt lat="43.66286" lon="7.1323592"><ele>23.0</ele><time>2026-05-01T15:22:04.876Z</time></trkpt><trkpt lat="43.6629649" lon="7.1323674"><ele>23.0</ele><time>2026-05-01T15:22:06.876Z</time></trkpt><trkpt lat="43.6630307" lon="7.1324168"><ele>23.0</ele><time>2026-05-01T15:22:08.876Z</time></trkpt><trkpt lat="43.6630657" lon="7.1325543"><ele>23.0</ele><time>2026-05-01T15:22:11.876Z</time></trkpt><trkpt lat="43.663074" lon="7.132662"><ele>22.833333333333336</ele><time>2026-05-01T15:22:14.877Z</time></trkpt><trkpt lat="43.6631771" lon="7.1326974"><ele>22.666666666666668</ele><time>2026-05-01T15:22:20.877Z</time></trkpt><trkpt lat="43.663287" lon="7.1327182"><ele>22.5</ele><time>2026-05-01T15:22:23.876Z</time></trkpt><trkpt lat="43.663363" lon="7.1326827"><ele>22.333333333333332</ele><time>2026-05-01T15:22:26.876Z</time></trkpt><trkpt lat="43.6633663" lon="7.1325908"><ele>22.166666666666664</ele><time>2026-05-01T15:22:28.876Z</time></trkpt><trkpt lat="43.6634229" lon="7.1325212"><ele>22.0</ele><time>2026-05-01T15:22:30.876Z</time></trkpt><trkpt lat="43.6631276" lon="7.1314738"><ele>22.0</ele><time>2026-05-01T15:22:50.876Z</time></trkpt><trkpt lat="43.6631582" lon="7.1313838"><ele>22.0</ele><time>2026-05-01T15:23:03.876Z</time></trkpt><trkpt lat="43.6632284" lon="7.1312931"><ele>22.0</ele><time>2026-05-01T15:23:06.876Z</time></trkpt><trkpt lat="43.6632733" lon="7.131229"><ele>22.0</ele><time>2026-05-01T15:23:07.876Z</time></trkpt><trkpt lat="43.6633404" lon="7.1310932"><ele>22.0</ele><time>2026-05-01T15:23:09.876Z</time></trkpt><trkpt lat="43.6634223" lon="7.1309709"><ele>22.0</ele><time>2026-05-01T15:23:11.876Z</time></trkpt><trkpt lat="43.6634755" lon="7.1308969"><ele>22.0</ele><time>2026-05-01T15:23:12.876Z</time></trkpt><trkpt lat="43.6635581" lon="7.1308183"><ele>22.0</ele><time>2026-05-01T15:23:13.876Z</time></trkpt><trkpt lat="43.663617" lon="7.1307461"><ele>22.0</ele><time>2026-05-01T15:23:14.876Z</time></trkpt><trkpt lat="43.6636763" lon="7.1306807"><ele>22.0</ele><time>2026-05-01T15:23:15.876Z</time></trkpt><trkpt lat="43.6637525" lon="7.1305976"><ele>22.0</ele><time>2026-05-01T15:23:16.876Z</time></trkpt><trkpt lat="43.6637971" lon="7.130484"><ele>22.5</ele><time>2026-05-01T15:23:17.876Z</time></trkpt><trkpt lat="43.6638824" lon="7.1303541"><ele>23.0</ele><time>2026-05-01T15:23:18.876Z</time></trkpt><trkpt lat="43.6639669" lon="7.1302466"><ele>23.5</ele><time>2026-05-01T15:23:19.876Z</time></trkpt><trkpt lat="43.6640452" lon="7.1301266"><ele>24.0</ele><time>2026-05-01T15:23:20.876Z</time></trkpt><trkpt lat="43.6641529" lon="7.1300147"><ele>24.0</ele><time>2026-05-01T15:23:21.876Z</time></trkpt><trkpt lat="43.6642805" lon="7.1298773"><ele>24.0</ele><time>2026-05-01T15:23:22.876Z</time></trkpt><trkpt lat="43.664381" lon="7.1297386"><ele>24.0</ele><time>2026-05-01T15:23:23.876Z</time></trkpt><trkpt lat="43.6644811" lon="7.1296014"><ele>24.0</ele><time>2026-05-01T15:23:24.876Z</time></trkpt><trkpt lat="43.6646202" lon="7.1294535"><ele>24.5</ele><time>2026-05-01T15:23:25.876Z</time></trkpt><trkpt lat="43.6647052" lon="7.1292761"><ele>25.0</ele><time>2026-05-01T15:23:26.876Z</time></trkpt><trkpt lat="43.6647984" lon="7.1291733"><ele>25.5</ele><time>2026-05-01T15:23:27.876Z</time></trkpt><trkpt lat="43.6649009" lon="7.1291004"><ele>26.0</ele><time>2026-05-01T15:23:28.876Z</time></trkpt><trkpt lat="43.6649832" lon="7.1290521"><ele>26.0</ele><time>2026-05-01T15:23:29.876Z</time></trkpt><trkpt lat="43.6650504" lon="7.128968"><ele>26.0</ele><time>2026-05-01T15:23:30.876Z</time></trkpt><trkpt lat="43.6651335" lon="7.1289026"><ele>26.0</ele><time>2026-05-01T15:23:31.876Z</time></trkpt><trkpt lat="43.6652285" lon="7.128831"><ele>26.0</ele><time>2026-05-01T15:23:32.876Z</time></trkpt><trkpt lat="43.6652959" lon="7.1287483"><ele>26.0</ele><time>2026-05-01T15:23:33.876Z</time></trkpt><trkpt lat="43.66539" lon="7.1286728"><ele>27.5</ele><time>2026-05-01T15:23:34.876Z</time></trkpt><trkpt lat="43.6654768" lon="7.1285593"><ele>29.0</ele><time>2026-05-01T15:23:35.876Z</time></trkpt><trkpt lat="43.6655704" lon="7.1284799"><ele>30.5</ele><time>2026-05-01T15:23:36.876Z</time></trkpt><trkpt lat="43.6656867" lon="7.1284119"><ele>32.0</ele><time>2026-05-01T15:23:37.876Z</time></trkpt><trkpt lat="43.6658197" lon="7.1283424"><ele>32.0</ele><time>2026-05-01T15:23:38.876Z</time></trkpt><trkpt lat="43.665929" lon="7.1282645"><ele>32.0</ele><time>2026-05-01T15:23:39.876Z</time></trkpt><trkpt lat="43.6660562" lon="7.1281749"><ele>32.0</ele><time>2026-05-01T15:23:40.876Z</time></trkpt><trkpt lat="43.6661957" lon="7.128049"><ele>32.0</ele><time>2026-05-01T15:23:41.876Z</time></trkpt><trkpt lat="43.6663199" lon="7.1279456"><ele>32.5</ele><time>2026-05-01T15:23:42.876Z</time></trkpt><trkpt lat="43.6664325" lon="7.1278512"><ele>33.0</ele><time>2026-05-01T15:23:43.876Z</time></trkpt><trkpt lat="43.666574" lon="7.127697"><ele>33.5</ele><time>2026-05-01T15:23:44.876Z</time></trkpt><trkpt lat="43.6666848" lon="7.1276321"><ele>34.0</ele><time>2026-05-01T15:23:45.877Z</time></trkpt><trkpt lat="43.6668429" lon="7.1275617"><ele>35.25</ele><time>2026-05-01T15:23:46.876Z</time></trkpt><trkpt lat="43.6669725" lon="7.1275108"><ele>36.5</ele><time>2026-05-01T15:23:47.876Z</time></trkpt><trkpt lat="43.6670976" lon="7.1274752"><ele>37.75</ele><time>2026-05-01T15:23:48.876Z</time></trkpt><trkpt lat="43.6672239" lon="7.1273677"><ele>39.0</ele><time>2026-05-01T15:23:49.876Z</time></trkpt><trkpt lat="43.6673398" lon="7.1272903"><ele>37.5</ele><time>2026-05-01T15:23:50.876Z</time></trkpt><trkpt lat="43.6674723" lon="7.1271847"><ele>36.0</ele><time>2026-05-01T15:23:51.876Z</time></trkpt><trkpt lat="43.6675987" lon="7.127087"><ele>34.5</ele><time>2026-05-01T15:23:52.876Z</time></trkpt><trkpt lat="43.6677357" lon="7.1270336"><ele>33.0</ele><time>2026-05-01T15:23:53.876Z</time></trkpt><trkpt lat="43.6678854" lon="7.1269249"><ele>33.0</ele><time>2026-05-01T15:23:54.876Z</time></trkpt><trkpt lat="43.6680181" lon="7.1267962"><ele>33.0</ele><time>2026-05-01T15:23:55.876Z</time></trkpt><trkpt lat="43.6681659" lon="7.1266824"><ele>33.0</ele><time>2026-05-01T15:23:56.876Z</time></trkpt><trkpt lat="43.6683045" lon="7.1265794"><ele>33.0</ele><time>2026-05-01T15:23:57.876Z</time></trkpt><trkpt lat="43.668434" lon="7.1264904"><ele>33.0</ele><time>2026-05-01T15:23:58.876Z</time></trkpt><trkpt lat="43.6685512" lon="7.1263958"><ele>33.0</ele><time>2026-05-01T15:23:59.876Z</time></trkpt><trkpt lat="43.6686791" lon="7.1263053"><ele>33.0</ele><time>2026-05-01T15:24:00.876Z</time></trkpt><trkpt lat="43.6687974" lon="7.1262128"><ele>33.0</ele><time>2026-05-01T15:24:01.876Z</time></trkpt><trkpt lat="43.6689237" lon="7.1261255"><ele>33.0</ele><time>2026-05-01T15:24:02.876Z</time></trkpt><trkpt lat="43.6690583" lon="7.1260433"><ele>33.0</ele><time>2026-05-01T15:24:03.877Z</time></trkpt><trkpt lat="43.6692007" lon="7.1259451"><ele>33.0</ele><time>2026-05-01T15:24:04.876Z</time></trkpt><trkpt lat="43.6693482" lon="7.1258518"><ele>33.25</ele><time>2026-05-01T15:24:05.876Z</time></trkpt><trkpt lat="43.6694697" lon="7.1257599"><ele>33.5</ele><time>2026-05-01T15:24:06.876Z</time></trkpt><trkpt lat="43.669587" lon="7.1256615"><ele>33.75</ele><time>2026-05-01T15:24:07.876Z</time></trkpt><trkpt lat="43.6696859" lon="7.1255579"><ele>34.0</ele><time>2026-05-01T15:24:08.876Z</time></trkpt><trkpt lat="43.6698073" lon="7.1254826"><ele>34.0</ele><time>2026-05-01T15:24:09.876Z</time></trkpt><trkpt lat="43.6698968" lon="7.1254383"><ele>34.0</ele><time>2026-05-01T15:24:10.876Z</time></trkpt><trkpt lat="43.669994" lon="7.1253941"><ele>34.0</ele><time>2026-05-01T15:24:11.876Z</time></trkpt><trkpt lat="43.6700907" lon="7.1253509"><ele>34.0</ele><time>2026-05-01T15:24:13.876Z</time></trkpt><trkpt lat="43.6702357" lon="7.125704"><ele>34.2</ele><time>2026-05-01T15:24:16.876Z</time></trkpt><trkpt lat="43.6703555" lon="7.1256442"><ele>34.4</ele><time>2026-05-01T15:24:18.876Z</time></trkpt><trkpt lat="43.6703994" lon="7.1255572"><ele>34.6</ele><time>2026-05-01T15:24:19.876Z</time></trkpt><trkpt lat="43.6704446" lon="7.1254589"><ele>34.8</ele><time>2026-05-01T15:24:20.876Z</time></trkpt><trkpt lat="43.6704434" lon="7.1253482"><ele>35.0</ele><time>2026-05-01T15:24:21.876Z</time></trkpt><trkpt lat="43.6704352" lon="7.1251937"><ele>35.0</ele><time>2026-05-01T15:24:22.876Z</time></trkpt><trkpt lat="43.6704786" lon="7.1250596"><ele>35.0</ele><time>2026-05-01T15:24:23.876Z</time></trkpt><trkpt lat="43.6705128" lon="7.1249623"><ele>35.0</ele><time>2026-05-01T15:24:24.876Z</time></trkpt><trkpt lat="43.6706021" lon="7.1248736"><ele>35.0</ele><time>2026-05-01T15:24:25.876Z</time></trkpt><trkpt lat="43.6707739" lon="7.1248247"><ele>34.75</ele><time>2026-05-01T15:24:26.876Z</time></trkpt><trkpt lat="43.6708847" lon="7.124741"><ele>34.5</ele><time>2026-05-01T15:24:27.876Z</time></trkpt><trkpt lat="43.6709965" lon="7.1246564"><ele>34.25</ele><time>2026-05-01T15:24:28.876Z</time></trkpt><trkpt lat="43.6711015" lon="7.1245974"><ele>34.0</ele><time>2026-05-01T15:24:29.876Z</time></trkpt><trkpt lat="43.6712154" lon="7.1245474"><ele>34.0</ele><time>2026-05-01T15:24:30.876Z</time></trkpt><trkpt lat="43.6713633" lon="7.1244568"><ele>34.0</ele><time>2026-05-01T15:24:31.876Z</time></trkpt><trkpt lat="43.6714862" lon="7.124396"><ele>34.0</ele><time>2026-05-01T15:24:32.876Z</time></trkpt><trkpt lat="43.6716035" lon="7.1243737"><ele>34.0</ele><time>2026-05-01T15:24:33.876Z</time></trkpt><trkpt lat="43.6717286" lon="7.1243076"><ele>34.0</ele><time>2026-05-01T15:24:34.876Z</time></trkpt><trkpt lat="43.6718297" lon="7.1242658"><ele>34.0</ele><time>2026-05-01T15:24:35.876Z</time></trkpt><trkpt lat="43.6719427" lon="7.1242135"><ele>34.0</ele><time>2026-05-01T15:24:36.877Z</time></trkpt><trkpt lat="43.6720147" lon="7.1241602"><ele>34.0</ele><time>2026-05-01T15:24:37.876Z</time></trkpt><trkpt lat="43.6721167" lon="7.1241171"><ele>34.0</ele><time>2026-05-01T15:24:38.876Z</time></trkpt><trkpt lat="43.6722088" lon="7.1240938"><ele>34.4</ele><time>2026-05-01T15:24:39.876Z</time></trkpt><trkpt lat="43.6722952" lon="7.1240559"><ele>34.8</ele><time>2026-05-01T15:24:40.876Z</time></trkpt><trkpt lat="43.6723787" lon="7.1240152"><ele>35.2</ele><time>2026-05-01T15:24:41.876Z</time></trkpt><trkpt lat="43.6725002" lon="7.1239879"><ele>35.6</ele><time>2026-05-01T15:24:43.876Z</time></trkpt><trkpt lat="43.6725736" lon="7.1239745"><ele>36.0</ele><time>2026-05-01T15:24:44.876Z</time></trkpt><trkpt lat="43.6727036" lon="7.1239726"><ele>36.0</ele><time>2026-05-01T15:24:46.876Z</time></trkpt><trkpt lat="43.6727813" lon="7.1239823"><ele>36.0</ele><time>2026-05-01T15:24:47.876Z</time></trkpt><trkpt lat="43.6728711" lon="7.1239777"><ele>36.0</ele><time>2026-05-01T15:24:48.876Z</time></trkpt><trkpt lat="43.672934" lon="7.1240214"><ele>36.0</ele><time>2026-05-01T15:24:49.876Z</time></trkpt><trkpt lat="43.6730121" lon="7.1240739"><ele>36.0</ele><time>2026-05-01T15:24:50.876Z</time></trkpt><trkpt lat="43.6730805" lon="7.1241128"><ele>36.0</ele><time>2026-05-01T15:24:52.876Z</time></trkpt><trkpt lat="43.6731437" lon="7.1240677"><ele>36.0</ele><time>2026-05-01T15:24:53.876Z</time></trkpt><trkpt lat="43.6731934" lon="7.1240101"><ele>36.0</ele><time>2026-05-01T15:24:54.876Z</time></trkpt><trkpt lat="43.6732886" lon="7.1238144"><ele>36.0</ele><time>2026-05-01T15:24:55.876Z</time></trkpt><trkpt lat="43.6733474" lon="7.1237099"><ele>36.0</ele><time>2026-05-01T15:24:56.876Z</time></trkpt><trkpt lat="43.6734054" lon="7.1236454"><ele>36.0</ele><time>2026-05-01T15:24:57.876Z</time></trkpt><trkpt lat="43.6734997" lon="7.123572"><ele>36.25</ele><time>2026-05-01T15:24:58.876Z</time></trkpt><trkpt lat="43.6736232" lon="7.1234818"><ele>36.5</ele><time>2026-05-01T15:24:59.876Z</time></trkpt><trkpt lat="43.6737446" lon="7.1234105"><ele>36.75</ele><time>2026-05-01T15:25:00.876Z</time></trkpt><trkpt lat="43.6738659" lon="7.1233558"><ele>37.0</ele><time>2026-05-01T15:25:01.876Z</time></trkpt><trkpt lat="43.6740058" lon="7.1232903"><ele>37.0</ele><time>2026-05-01T15:25:02.876Z</time></trkpt><trkpt lat="43.6741657" lon="7.1232325"><ele>37.0</ele><time>2026-05-01T15:25:03.876Z</time></trkpt><trkpt lat="43.6743094" lon="7.123184"><ele>37.0</ele><time>2026-05-01T15:25:04.876Z</time></trkpt><trkpt lat="43.6744386" lon="7.1231149"><ele>37.5</ele><time>2026-05-01T15:25:05.876Z</time></trkpt><trkpt lat="43.6745772" lon="7.1230336"><ele>38.0</ele><time>2026-05-01T15:25:06.876Z</time></trkpt><trkpt lat="43.6747019" lon="7.1229772"><ele>38.5</ele><time>2026-05-01T15:25:07.876Z</time></trkpt><trkpt lat="43.6748269" lon="7.1229187"><ele>39.0</ele><time>2026-05-01T15:25:08.876Z</time></trkpt><trkpt lat="43.6749462" lon="7.122871"><ele>39.0</ele><time>2026-05-01T15:25:09.876Z</time></trkpt><trkpt lat="43.6750784" lon="7.1228383"><ele>39.0</ele><time>2026-05-01T15:25:10.876Z</time></trkpt><trkpt lat="43.6752147" lon="7.1228019"><ele>39.0</ele><time>2026-05-01T15:25:11.876Z</time></trkpt><trkpt lat="43.6753602" lon="7.1227504"><ele>39.0</ele><time>2026-05-01T15:25:12.876Z</time></trkpt><trkpt lat="43.675469" lon="7.122666"><ele>39.25</ele><time>2026-05-01T15:25:13.876Z</time></trkpt><trkpt lat="43.6755872" lon="7.1225924"><ele>39.5</ele><time>2026-05-01T15:25:14.876Z</time></trkpt><trkpt lat="43.6757025" lon="7.122547"><ele>39.75</ele><time>2026-05-01T15:25:15.876Z</time></trkpt><trkpt lat="43.6758085" lon="7.1224783"><ele>40.0</ele><time>2026-05-01T15:25:16.876Z</time></trkpt><trkpt lat="43.6759292" lon="7.1224029"><ele>40.25</ele><time>2026-05-01T15:25:17.876Z</time></trkpt><trkpt lat="43.6760448" lon="7.1223441"><ele>40.5</ele><time>2026-05-01T15:25:18.876Z</time></trkpt><trkpt lat="43.6761737" lon="7.1222553"><ele>40.75</ele><time>2026-05-01T15:25:19.876Z</time></trkpt><trkpt lat="43.6762983" lon="7.1221542"><ele>41.0</ele><time>2026-05-01T15:25:20.876Z</time></trkpt><trkpt lat="43.6764196" lon="7.1220572"><ele>41.0</ele><time>2026-05-01T15:25:21.876Z</time></trkpt><trkpt lat="43.6765353" lon="7.1220047"><ele>41.0</ele><time>2026-05-01T15:25:22.876Z</time></trkpt><trkpt lat="43.6766537" lon="7.1219311"><ele>41.0</ele><time>2026-05-01T15:25:23.876Z</time></trkpt><trkpt lat="43.6768034" lon="7.1218501"><ele>41.0</ele><time>2026-05-01T15:25:24.876Z</time></trkpt><trkpt lat="43.6769276" lon="7.1217527"><ele>41.0</ele><time>2026-05-01T15:25:25.876Z</time></trkpt><trkpt lat="43.6770404" lon="7.1216608"><ele>41.0</ele><time>2026-05-01T15:25:26.876Z</time></trkpt><trkpt lat="43.6771416" lon="7.1215655"><ele>41.0</ele><time>2026-05-01T15:25:27.876Z</time></trkpt><trkpt lat="43.6772373" lon="7.1214568"><ele>41.0</ele><time>2026-05-01T15:25:28.876Z</time></trkpt><trkpt lat="43.677339" lon="7.121358"><ele>41.5</ele><time>2026-05-01T15:25:29.876Z</time></trkpt><trkpt lat="43.6774717" lon="7.1212531"><ele>42.0</ele><time>2026-05-01T15:25:30.876Z</time></trkpt><trkpt lat="43.6775815" lon="7.1211645"><ele>42.5</ele><time>2026-05-01T15:25:31.876Z</time></trkpt><trkpt lat="43.6777033" lon="7.1210651"><ele>43.0</ele><time>2026-05-01T15:25:32.876Z</time></trkpt><trkpt lat="43.6778179" lon="7.1209841"><ele>43.0</ele><time>2026-05-01T15:25:33.876Z</time></trkpt><trkpt lat="43.6779465" lon="7.1208651"><ele>43.0</ele><time>2026-05-01T15:25:34.876Z</time></trkpt><trkpt lat="43.6780557" lon="7.1207988"><ele>43.0</ele><time>2026-05-01T15:25:35.876Z</time></trkpt><trkpt lat="43.6781481" lon="7.1207214"><ele>43.0</ele><time>2026-05-01T15:25:36.876Z</time></trkpt><trkpt lat="43.6782712" lon="7.1206464"><ele>43.25</ele><time>2026-05-01T15:25:37.876Z</time></trkpt><trkpt lat="43.678395" lon="7.1205457"><ele>43.5</ele><time>2026-05-01T15:25:38.876Z</time></trkpt><trkpt lat="43.678501" lon="7.1204533"><ele>43.75</ele><time>2026-05-01T15:25:39.876Z</time></trkpt><trkpt lat="43.6786345" lon="7.1203513"><ele>44.0</ele><time>2026-05-01T15:25:40.876Z</time></trkpt><trkpt lat="43.678746" lon="7.1202717"><ele>44.0</ele><time>2026-05-01T15:25:41.876Z</time></trkpt><trkpt lat="43.678868" lon="7.1201648"><ele>44.0</ele><time>2026-05-01T15:25:42.876Z</time></trkpt><trkpt lat="43.6789873" lon="7.120098"><ele>44.0</ele><time>2026-05-01T15:25:43.876Z</time></trkpt><trkpt lat="43.6791255" lon="7.1199997"><ele>44.0</ele><time>2026-05-01T15:25:44.876Z</time></trkpt><trkpt lat="43.6792291" lon="7.1199066"><ele>45.0</ele><time>2026-05-01T15:25:45.876Z</time></trkpt><trkpt lat="43.6793576" lon="7.119806"><ele>46.0</ele><time>2026-05-01T15:25:46.876Z</time></trkpt><trkpt lat="43.6795015" lon="7.119708"><ele>47.0</ele><time>2026-05-01T15:25:47.876Z</time></trkpt><trkpt lat="43.6796303" lon="7.1196093"><ele>47.0</ele><time>2026-05-01T15:25:48.877Z</time></trkpt><trkpt lat="43.6797205" lon="7.119542"><ele>47.0</ele><time>2026-05-01T15:25:49.876Z</time></trkpt><trkpt lat="43.6798372" lon="7.1194642"><ele>47.0</ele><time>2026-05-01T15:25:50.876Z</time></trkpt><trkpt lat="43.6799485" lon="7.119364"><ele>47.0</ele><time>2026-05-01T15:25:51.876Z</time></trkpt><trkpt lat="43.6800569" lon="7.1192787"><ele>47.0</ele><time>2026-05-01T15:25:52.877Z</time></trkpt><trkpt lat="43.6801475" lon="7.1191933"><ele>47.0</ele><time>2026-05-01T15:25:53.876Z</time></trkpt><trkpt lat="43.6802615" lon="7.1190971"><ele>47.0</ele><time>2026-05-01T15:25:54.876Z</time></trkpt><trkpt lat="43.6803935" lon="7.1190212"><ele>47.0</ele><time>2026-05-01T15:25:55.876Z</time></trkpt><trkpt lat="43.6804875" lon="7.1189437"><ele>47.400000000000006</ele><time>2026-05-01T15:25:56.876Z</time></trkpt><trkpt lat="43.680605" lon="7.1188712"><ele>47.800000000000004</ele><time>2026-05-01T15:25:57.877Z</time></trkpt><trkpt lat="43.6806972" lon="7.118793"><ele>48.2</ele><time>2026-05-01T15:25:58.876Z</time></trkpt><trkpt lat="43.6808054" lon="7.1186966"><ele>48.6</ele><time>2026-05-01T15:25:59.876Z</time></trkpt><trkpt lat="43.6808697" lon="7.1186897"><ele>49.0</ele><time>2026-05-01T15:26:00.876Z</time></trkpt><trkpt lat="43.6809616" lon="7.1186437"><ele>48.99999999999999</ele><time>2026-05-01T15:26:01.876Z</time></trkpt><trkpt lat="43.6810281" lon="7.1186201"><ele>49.0</ele><time>2026-05-01T15:26:02.876Z</time></trkpt><trkpt lat="43.6810998" lon="7.1185794"><ele>49.0</ele><time>2026-05-01T15:26:03.877Z</time></trkpt><trkpt lat="43.6811579" lon="7.1185015"><ele>49.0</ele><time>2026-05-01T15:26:04.876Z</time></trkpt><trkpt lat="43.6812202" lon="7.1184313"><ele>48.99999999999999</ele><time>2026-05-01T15:26:05.876Z</time></trkpt><trkpt lat="43.6812771" lon="7.1183641"><ele>49.0</ele><time>2026-05-01T15:26:06.876Z</time></trkpt><trkpt lat="43.681366" lon="7.1182521"><ele>49.800000000000004</ele><time>2026-05-01T15:26:07.876Z</time></trkpt><trkpt lat="43.6814456" lon="7.1181518"><ele>50.6</ele><time>2026-05-01T15:26:08.876Z</time></trkpt><trkpt lat="43.6815351" lon="7.1180576"><ele>51.4</ele><time>2026-05-01T15:26:09.876Z</time></trkpt><trkpt lat="43.6816251" lon="7.1179524"><ele>52.2</ele><time>2026-05-01T15:26:10.876Z</time></trkpt><trkpt lat="43.6817155" lon="7.1178677"><ele>53.0</ele><time>2026-05-01T15:26:11.876Z</time></trkpt><trkpt lat="43.6818251" lon="7.1177808"><ele>53.0</ele><time>2026-05-01T15:26:12.876Z</time></trkpt><trkpt lat="43.6819215" lon="7.1177005"><ele>53.0</ele><time>2026-05-01T15:26:13.876Z</time></trkpt><trkpt lat="43.6820191" lon="7.1175988"><ele>53.0</ele><time>2026-05-01T15:26:14.876Z</time></trkpt><trkpt lat="43.6821035" lon="7.1174979"><ele>53.0</ele><time>2026-05-01T15:26:15.876Z</time></trkpt><trkpt lat="43.6821616" lon="7.1173999"><ele>53.0</ele><time>2026-05-01T15:26:16.876Z</time></trkpt><trkpt lat="43.6822753" lon="7.117299"><ele>53.333333333333336</ele><time>2026-05-01T15:26:18.876Z</time></trkpt><trkpt lat="43.6823285" lon="7.1172236"><ele>53.66666666666667</ele><time>2026-05-01T15:26:19.876Z</time></trkpt><trkpt lat="43.6823911" lon="7.1171537"><ele>54.0</ele><time>2026-05-01T15:26:20.876Z</time></trkpt><trkpt lat="43.6824588" lon="7.1170746"><ele>54.33333333333333</ele><time>2026-05-01T15:26:21.876Z</time></trkpt><trkpt lat="43.6825226" lon="7.1169903"><ele>54.666666666666664</ele><time>2026-05-01T15:26:22.877Z</time></trkpt><trkpt lat="43.6825928" lon="7.1169195"><ele>55.0</ele><time>2026-05-01T15:26:23.876Z</time></trkpt><trkpt lat="43.6826656" lon="7.1168282"><ele>55.0</ele><time>2026-05-01T15:26:24.876Z</time></trkpt><trkpt lat="43.6827563" lon="7.1167441"><ele>55.0</ele><time>2026-05-01T15:26:25.876Z</time></trkpt><trkpt lat="43.6828324" lon="7.1166422"><ele>55.0</ele><time>2026-05-01T15:26:26.876Z</time></trkpt><trkpt lat="43.6829167" lon="7.1165237"><ele>55.0</ele><time>2026-05-01T15:26:27.876Z</time></trkpt><trkpt lat="43.6829875" lon="7.1164156"><ele>55.0</ele><time>2026-05-01T15:26:28.876Z</time></trkpt><trkpt lat="43.6830414" lon="7.1162382"><ele>55.25</ele><time>2026-05-01T15:26:29.876Z</time></trkpt><trkpt lat="43.6831235" lon="7.1161273"><ele>55.5</ele><time>2026-05-01T15:26:30.876Z</time></trkpt><trkpt lat="43.6831821" lon="7.1160025"><ele>55.75</ele><time>2026-05-01T15:26:31.876Z</time></trkpt><trkpt lat="43.6832644" lon="7.1158947"><ele>56.0</ele><time>2026-05-01T15:26:32.876Z</time></trkpt><trkpt lat="43.6833452" lon="7.1157572"><ele>55.4</ele><time>2026-05-01T15:26:33.876Z</time></trkpt><trkpt lat="43.6834211" lon="7.1156193"><ele>54.8</ele><time>2026-05-01T15:26:34.876Z</time></trkpt><trkpt lat="43.6834918" lon="7.1155115"><ele>54.199999999999996</ele><time>2026-05-01T15:26:35.876Z</time></trkpt><trkpt lat="43.6835531" lon="7.1154398"><ele>53.599999999999994</ele><time>2026-05-01T15:26:36.876Z</time></trkpt><trkpt lat="43.6836094" lon="7.1153848"><ele>53.0</ele><time>2026-05-01T15:26:37.876Z</time></trkpt><trkpt lat="43.6837207" lon="7.1153049"><ele>53.00000000000001</ele><time>2026-05-01T15:26:39.877Z</time></trkpt><trkpt lat="43.6837703" lon="7.11525"><ele>53.0</ele><time>2026-05-01T15:26:40.876Z</time></trkpt><trkpt lat="43.6838262" lon="7.1151111"><ele>53.0</ele><time>2026-05-01T15:26:42.876Z</time></trkpt><trkpt lat="43.6838446" lon="7.1150113"><ele>53.0</ele><time>2026-05-01T15:26:43.876Z</time></trkpt><trkpt lat="43.6838675" lon="7.1148921"><ele>53.00000000000001</ele><time>2026-05-01T15:26:44.876Z</time></trkpt><trkpt lat="43.6838738" lon="7.1147973"><ele>53.0</ele><time>2026-05-01T15:26:45.876Z</time></trkpt><trkpt lat="43.6838923" lon="7.114678"><ele>55.75</ele><time>2026-05-01T15:26:46.876Z</time></trkpt><trkpt lat="43.6839215" lon="7.1145575"><ele>58.5</ele><time>2026-05-01T15:26:47.876Z</time></trkpt><trkpt lat="43.6839248" lon="7.1143285"><ele>61.25</ele><time>2026-05-01T15:26:48.876Z</time></trkpt><trkpt lat="43.6839437" lon="7.1141541"><ele>64.0</ele><time>2026-05-01T15:26:49.876Z</time></trkpt><trkpt lat="43.6839702" lon="7.1139532"><ele>65.5</ele><time>2026-05-01T15:26:50.876Z</time></trkpt><trkpt lat="43.6839902" lon="7.1137703"><ele>67.0</ele><time>2026-05-01T15:26:51.876Z</time></trkpt><trkpt lat="43.6840257" lon="7.1135899"><ele>68.5</ele><time>2026-05-01T15:26:52.876Z</time></trkpt><trkpt lat="43.6840621" lon="7.1133942"><ele>70.0</ele><time>2026-05-01T15:26:53.876Z</time></trkpt><trkpt lat="43.684074" lon="7.1131599"><ele>72.33333333333333</ele><time>2026-05-01T15:26:54.876Z</time></trkpt><trkpt lat="43.6840805" lon="7.1129185"><ele>74.66666666666667</ele><time>2026-05-01T15:26:55.876Z</time></trkpt><trkpt lat="43.6840816" lon="7.1126762"><ele>77.0</ele><time>2026-05-01T15:26:56.876Z</time></trkpt><trkpt lat="43.6840537" lon="7.1124422"><ele>79.0</ele><time>2026-05-01T15:26:57.876Z</time></trkpt><trkpt lat="43.6840876" lon="7.1122638"><ele>81.0</ele><time>2026-05-01T15:26:58.876Z</time></trkpt><trkpt lat="43.6841028" lon="7.1120903"><ele>83.0</ele><time>2026-05-01T15:26:59.876Z</time></trkpt><trkpt lat="43.6841211" lon="7.1119449"><ele>85.0</ele><time>2026-05-01T15:27:00.876Z</time></trkpt><trkpt lat="43.6841328" lon="7.1117648"><ele>85.0</ele><time>2026-05-01T15:27:01.876Z</time></trkpt><trkpt lat="43.6841259" lon="7.1116103"><ele>85.0</ele><time>2026-05-01T15:27:02.877Z</time></trkpt><trkpt lat="43.6840787" lon="7.1114635"><ele>85.0</ele><time>2026-05-01T15:27:03.876Z</time></trkpt><trkpt lat="43.6840217" lon="7.1113362"><ele>85.0</ele><time>2026-05-01T15:27:04.876Z</time></trkpt><trkpt lat="43.6839674" lon="7.1111864"><ele>86.5</ele><time>2026-05-01T15:27:05.876Z</time></trkpt><trkpt lat="43.6838926" lon="7.1111031"><ele>88.0</ele><time>2026-05-01T15:27:06.876Z</time></trkpt><trkpt lat="43.6838021" lon="7.1110001"><ele>89.5</ele><time>2026-05-01T15:27:08.876Z</time></trkpt><trkpt lat="43.6837803" lon="7.1108819"><ele>91.0</ele><time>2026-05-01T15:27:10.876Z</time></trkpt><trkpt lat="43.6838245" lon="7.1106822"><ele>91.25</ele><time>2026-05-01T15:27:12.876Z</time></trkpt><trkpt lat="43.6839185" lon="7.1105347"><ele>91.5</ele><time>2026-05-01T15:27:13.876Z</time></trkpt><trkpt lat="43.6840152" lon="7.1104141"><ele>91.75</ele><time>2026-05-01T15:27:14.876Z</time></trkpt><trkpt lat="43.684102" lon="7.1103006"><ele>92.0</ele><time>2026-05-01T15:27:15.876Z</time></trkpt><trkpt lat="43.6841831" lon="7.1101891"><ele>92.0</ele><time>2026-05-01T15:27:16.876Z</time></trkpt><trkpt lat="43.6842436" lon="7.1100642"><ele>92.0</ele><time>2026-05-01T15:27:17.876Z</time></trkpt><trkpt lat="43.684277" lon="7.1099473"><ele>92.0</ele><time>2026-05-01T15:27:18.876Z</time></trkpt><trkpt lat="43.6843264" lon="7.1098459"><ele>92.0</ele><time>2026-05-01T15:27:19.876Z</time></trkpt><trkpt lat="43.6843648" lon="7.1097044"><ele>92.0</ele><time>2026-05-01T15:27:20.876Z</time></trkpt><trkpt lat="43.6843984" lon="7.109617"><ele>91.8</ele><time>2026-05-01T15:27:21.876Z</time></trkpt><trkpt lat="43.6844212" lon="7.1095278"><ele>91.6</ele><time>2026-05-01T15:27:22.877Z</time></trkpt><trkpt lat="43.6844594" lon="7.1094525"><ele>91.39999999999999</ele><time>2026-05-01T15:27:24.876Z</time></trkpt><trkpt lat="43.6845116" lon="7.1093371"><ele>91.19999999999999</ele><time>2026-05-01T15:27:26.876Z</time></trkpt><trkpt lat="43.6845228" lon="7.1092377"><ele>91.0</ele><time>2026-05-01T15:27:27.876Z</time></trkpt><trkpt lat="43.6845795" lon="7.1090239"><ele>90.6</ele><time>2026-05-01T15:27:29.876Z</time></trkpt><trkpt lat="43.6845992" lon="7.108921"><ele>90.19999999999999</ele><time>2026-05-01T15:27:30.876Z</time></trkpt><trkpt lat="43.6846336" lon="7.1088217"><ele>89.80000000000001</ele><time>2026-05-01T15:27:31.876Z</time></trkpt><trkpt lat="43.6847031" lon="7.1086294"><ele>89.4</ele><time>2026-05-01T15:27:32.876Z</time></trkpt><trkpt lat="43.6847548" lon="7.1085058"><ele>89.0</ele><time>2026-05-01T15:27:33.876Z</time></trkpt><trkpt lat="43.6848187" lon="7.1083152"><ele>89.0</ele><time>2026-05-01T15:27:34.876Z</time></trkpt><trkpt lat="43.6848359" lon="7.1081234"><ele>89.0</ele><time>2026-05-01T15:27:35.876Z</time></trkpt><trkpt lat="43.6848771" lon="7.1079401"><ele>89.0</ele><time>2026-05-01T15:27:36.876Z</time></trkpt><trkpt lat="43.6849177" lon="7.1077615"><ele>89.0</ele><time>2026-05-01T15:27:37.876Z</time></trkpt><trkpt lat="43.6849773" lon="7.1076162"><ele>89.0</ele><time>2026-05-01T15:27:38.876Z</time></trkpt><trkpt lat="43.6850392" lon="7.1074619"><ele>89.0</ele><time>2026-05-01T15:27:39.876Z</time></trkpt><trkpt lat="43.6850774" lon="7.1072583"><ele>89.0</ele><time>2026-05-01T15:27:40.876Z</time></trkpt><trkpt lat="43.6851345" lon="7.1070679"><ele>89.0</ele><time>2026-05-01T15:27:41.876Z</time></trkpt><trkpt lat="43.6851619" lon="7.1068944"><ele>88.0</ele><time>2026-05-01T15:27:42.876Z</time></trkpt><trkpt lat="43.685204" lon="7.1067003"><ele>87.0</ele><time>2026-05-01T15:27:43.876Z</time></trkpt><trkpt lat="43.6852995" lon="7.1065424"><ele>86.0</ele><time>2026-05-01T15:27:44.876Z</time></trkpt><trkpt lat="43.6853842" lon="7.1063893"><ele>85.0</ele><time>2026-05-01T15:27:45.876Z</time></trkpt><trkpt lat="43.6854405" lon="7.1062496"><ele>85.0</ele><time>2026-05-01T15:27:46.876Z</time></trkpt><trkpt lat="43.6855001" lon="7.1061245"><ele>85.0</ele><time>2026-05-01T15:27:47.876Z</time></trkpt><trkpt lat="43.6855606" lon="7.105989"><ele>85.0</ele><time>2026-05-01T15:27:48.876Z</time></trkpt><trkpt lat="43.6856334" lon="7.1057873"><ele>85.0</ele><time>2026-05-01T15:27:49.876Z</time></trkpt><trkpt lat="43.6856848" lon="7.1056053"><ele>83.25</ele><time>2026-05-01T15:27:50.876Z</time></trkpt><trkpt lat="43.6858156" lon="7.1054632"><ele>81.5</ele><time>2026-05-01T15:27:51.876Z</time></trkpt><trkpt lat="43.6858761" lon="7.1052904"><ele>79.75</ele><time>2026-05-01T15:27:52.876Z</time></trkpt><trkpt lat="43.6859323" lon="7.1051135"><ele>78.0</ele><time>2026-05-01T15:27:53.876Z</time></trkpt><trkpt lat="43.6859945" lon="7.1049737"><ele>77.6</ele><time>2026-05-01T15:27:54.876Z</time></trkpt><trkpt lat="43.6860435" lon="7.1048372"><ele>77.19999999999999</ele><time>2026-05-01T15:27:55.877Z</time></trkpt><trkpt lat="43.6860851" lon="7.1046944"><ele>76.8</ele><time>2026-05-01T15:27:56.876Z</time></trkpt><trkpt lat="43.6861292" lon="7.1045538"><ele>76.39999999999999</ele><time>2026-05-01T15:27:57.876Z</time></trkpt><trkpt lat="43.6861791" lon="7.1044358"><ele>76.0</ele><time>2026-05-01T15:27:58.876Z</time></trkpt><trkpt lat="43.6862292" lon="7.1043014"><ele>79.0</ele><time>2026-05-01T15:27:59.876Z</time></trkpt><trkpt lat="43.6862592" lon="7.1041395"><ele>82.0</ele><time>2026-05-01T15:28:00.876Z</time></trkpt><trkpt lat="43.6862716" lon="7.1039897"><ele>85.0</ele><time>2026-05-01T15:28:01.876Z</time></trkpt><trkpt lat="43.6863012" lon="7.103846"><ele>88.0</ele><time>2026-05-01T15:28:02.876Z</time></trkpt><trkpt lat="43.6863115" lon="7.1036866"><ele>88.2</ele><time>2026-05-01T15:28:03.876Z</time></trkpt><trkpt lat="43.6863031" lon="7.1035114"><ele>88.4</ele><time>2026-05-01T15:28:04.876Z</time></trkpt><trkpt lat="43.6863063" lon="7.1033633"><ele>88.60000000000001</ele><time>2026-05-01T15:28:05.876Z</time></trkpt><trkpt lat="43.6862912" lon="7.1032141"><ele>88.80000000000001</ele><time>2026-05-01T15:28:06.876Z</time></trkpt><trkpt lat="43.6862735" lon="7.1030761"><ele>89.0</ele><time>2026-05-01T15:28:07.876Z</time></trkpt><trkpt lat="43.6862513" lon="7.1029555"><ele>89.0</ele><time>2026-05-01T15:28:08.876Z</time></trkpt><trkpt lat="43.6862138" lon="7.1028336"><ele>89.0</ele><time>2026-05-01T15:28:09.876Z</time></trkpt><trkpt lat="43.6861988" lon="7.1027117"><ele>89.0</ele><time>2026-05-01T15:28:10.876Z</time></trkpt><trkpt lat="43.6861723" lon="7.1025678"><ele>89.0</ele><time>2026-05-01T15:28:11.876Z</time></trkpt><trkpt lat="43.6861671" lon="7.1024223"><ele>89.0</ele><time>2026-05-01T15:28:12.876Z</time></trkpt><trkpt lat="43.6861421" lon="7.1022691"><ele>88.75</ele><time>2026-05-01T15:28:13.876Z</time></trkpt><trkpt lat="43.6861259" lon="7.1021383"><ele>88.5</ele><time>2026-05-01T15:28:14.876Z</time></trkpt><trkpt lat="43.6861117" lon="7.1019804"><ele>88.25</ele><time>2026-05-01T15:28:15.877Z</time></trkpt><trkpt lat="43.6860914" lon="7.1018407"><ele>88.0</ele><time>2026-05-01T15:28:16.876Z</time></trkpt><trkpt lat="43.6860508" lon="7.1016135"><ele>85.5</ele><time>2026-05-01T15:28:17.876Z</time></trkpt><trkpt lat="43.6860356" lon="7.1014643"><ele>83.0</ele><time>2026-05-01T15:28:18.876Z</time></trkpt><trkpt lat="43.6860039" lon="7.1013077"><ele>80.5</ele><time>2026-05-01T15:28:19.876Z</time></trkpt><trkpt lat="43.6859747" lon="7.1011268"><ele>78.0</ele><time>2026-05-01T15:28:20.876Z</time></trkpt><trkpt lat="43.6859175" lon="7.1009552"><ele>78.0</ele><time>2026-05-01T15:28:21.876Z</time></trkpt><trkpt lat="43.6858949" lon="7.1008198"><ele>78.0</ele><time>2026-05-01T15:28:22.876Z</time></trkpt><trkpt lat="43.6858656" lon="7.1006575"><ele>78.0</ele><time>2026-05-01T15:28:23.876Z</time></trkpt><trkpt lat="43.6858463" lon="7.1005225"><ele>78.0</ele><time>2026-05-01T15:28:24.876Z</time></trkpt><trkpt lat="43.6858511" lon="7.1003819"><ele>78.0</ele><time>2026-05-01T15:28:25.876Z</time></trkpt><trkpt lat="43.6858286" lon="7.1002464"><ele>78.0</ele><time>2026-05-01T15:28:26.876Z</time></trkpt><trkpt lat="43.6857922" lon="7.1000663"><ele>78.0</ele><time>2026-05-01T15:28:27.876Z</time></trkpt><trkpt lat="43.6857664" lon="7.0998897"><ele>78.0</ele><time>2026-05-01T15:28:28.876Z</time></trkpt><trkpt lat="43.6857506" lon="7.0997244"><ele>78.0</ele><time>2026-05-01T15:28:29.877Z</time></trkpt><trkpt lat="43.685731" lon="7.099542"><ele>78.2</ele><time>2026-05-01T15:28:30.876Z</time></trkpt><trkpt lat="43.6857221" lon="7.0994007"><ele>78.4</ele><time>2026-05-01T15:28:31.876Z</time></trkpt><trkpt lat="43.6856839" lon="7.0992793"><ele>78.60000000000001</ele><time>2026-05-01T15:28:32.876Z</time></trkpt><trkpt lat="43.6856904" lon="7.0991498"><ele>78.8</ele><time>2026-05-01T15:28:33.876Z</time></trkpt><trkpt lat="43.6856582" lon="7.0990244"><ele>79.0</ele><time>2026-05-01T15:28:34.876Z</time></trkpt><trkpt lat="43.6856352" lon="7.0988957"><ele>79.0</ele><time>2026-05-01T15:28:35.876Z</time></trkpt><trkpt lat="43.6856295" lon="7.09872"><ele>79.0</ele><time>2026-05-01T15:28:36.876Z</time></trkpt><trkpt lat="43.6855997" lon="7.0985404"><ele>79.0</ele><time>2026-05-01T15:28:37.876Z</time></trkpt><trkpt lat="43.6855855" lon="7.0983979"><ele>79.0</ele><time>2026-05-01T15:28:38.876Z</time></trkpt><trkpt lat="43.6855794" lon="7.0982906"><ele>79.0</ele><time>2026-05-01T15:28:39.876Z</time></trkpt><trkpt lat="43.6855512" lon="7.0981566"><ele>79.75</ele><time>2026-05-01T15:28:40.876Z</time></trkpt><trkpt lat="43.6854809" lon="7.097947"><ele>80.5</ele><time>2026-05-01T15:28:41.876Z</time></trkpt><trkpt lat="43.6854746" lon="7.0977529"><ele>81.25</ele><time>2026-05-01T15:28:42.876Z</time></trkpt><trkpt lat="43.6854551" lon="7.0975688"><ele>82.0</ele><time>2026-05-01T15:28:43.876Z</time></trkpt><trkpt lat="43.6854666" lon="7.0974361"><ele>82.5</ele><time>2026-05-01T15:28:44.877Z</time></trkpt><trkpt lat="43.685426" lon="7.0972988"><ele>83.0</ele><time>2026-05-01T15:28:45.876Z</time></trkpt><trkpt lat="43.6853718" lon="7.0971271"><ele>83.5</ele><time>2026-05-01T15:28:46.876Z</time></trkpt><trkpt lat="43.6853008" lon="7.0969312"><ele>84.0</ele><time>2026-05-01T15:28:47.877Z</time></trkpt><trkpt lat="43.6852325" lon="7.0967528"><ele>80.5</ele><time>2026-05-01T15:28:48.877Z</time></trkpt><trkpt lat="43.6852017" lon="7.0965805"><ele>77.0</ele><time>2026-05-01T15:28:49.876Z</time></trkpt><trkpt lat="43.6851837" lon="7.0964248"><ele>73.5</ele><time>2026-05-01T15:28:50.876Z</time></trkpt><trkpt lat="43.6850921" lon="7.0962851"><ele>70.0</ele><time>2026-05-01T15:28:51.876Z</time></trkpt><trkpt lat="43.6850113" lon="7.096155"><ele>70.0</ele><time>2026-05-01T15:28:52.876Z</time></trkpt><trkpt lat="43.6849218" lon="7.096036"><ele>70.0</ele><time>2026-05-01T15:28:53.876Z</time></trkpt><trkpt lat="43.6848695" lon="7.0959512"><ele>70.0</ele><time>2026-05-01T15:28:54.876Z</time></trkpt><trkpt lat="43.6848" lon="7.095847"><ele>70.0</ele><time>2026-05-01T15:28:55.876Z</time></trkpt><trkpt lat="43.6846804" lon="7.0956785"><ele>70.0</ele><time>2026-05-01T15:28:56.876Z</time></trkpt><trkpt lat="43.6846018" lon="7.0955722"><ele>70.0</ele><time>2026-05-01T15:28:57.876Z</time></trkpt><trkpt lat="43.684549" lon="7.0954756"><ele>70.0</ele><time>2026-05-01T15:28:58.876Z</time></trkpt><trkpt lat="43.6844732" lon="7.095345"><ele>70.0</ele><time>2026-05-01T15:28:59.876Z</time></trkpt><trkpt lat="43.6843895" lon="7.095228"><ele>70.0</ele><time>2026-05-01T15:29:00.876Z</time></trkpt><trkpt lat="43.6843208" lon="7.0950821"><ele>65.75</ele><time>2026-05-01T15:29:01.876Z</time></trkpt><trkpt lat="43.6842449" lon="7.0948705"><ele>61.5</ele><time>2026-05-01T15:29:02.876Z</time></trkpt><trkpt lat="43.6842208" lon="7.0946817"><ele>57.25</ele><time>2026-05-01T15:29:03.877Z</time></trkpt><trkpt lat="43.6842449" lon="7.0945237"><ele>53.0</ele><time>2026-05-01T15:29:04.876Z</time></trkpt><trkpt lat="43.6842412" lon="7.0943241"><ele>53.0</ele><time>2026-05-01T15:29:05.876Z</time></trkpt><trkpt lat="43.6842406" lon="7.0941265"><ele>53.0</ele><time>2026-05-01T15:29:06.876Z</time></trkpt><trkpt lat="43.6841992" lon="7.0939257"><ele>53.0</ele><time>2026-05-01T15:29:07.876Z</time></trkpt><trkpt lat="43.6841613" lon="7.0937901"><ele>53.0</ele><time>2026-05-01T15:29:08.876Z</time></trkpt><trkpt lat="43.6840418" lon="7.0936384"><ele>52.75</ele><time>2026-05-01T15:29:09.876Z</time></trkpt><trkpt lat="43.6839738" lon="7.0935176"><ele>52.5</ele><time>2026-05-01T15:29:10.876Z</time></trkpt><trkpt lat="43.6839108" lon="7.0934166"><ele>52.25</ele><time>2026-05-01T15:29:11.876Z</time></trkpt><trkpt lat="43.6838465" lon="7.0932945"><ele>52.0</ele><time>2026-05-01T15:29:12.876Z</time></trkpt><trkpt lat="43.6837463" lon="7.0931575"><ele>52.0</ele><time>2026-05-01T15:29:13.876Z</time></trkpt><trkpt lat="43.6837005" lon="7.0930085"><ele>52.0</ele><time>2026-05-01T15:29:14.876Z</time></trkpt><trkpt lat="43.6836675" lon="7.0929229"><ele>52.0</ele><time>2026-05-01T15:29:15.877Z</time></trkpt><trkpt lat="43.6835867" lon="7.0927639"><ele>52.0</ele><time>2026-05-01T15:29:16.876Z</time></trkpt><trkpt lat="43.6835361" lon="7.0926089"><ele>50.33333333333333</ele><time>2026-05-01T15:29:17.876Z</time></trkpt><trkpt lat="43.6834383" lon="7.0923722"><ele>48.666666666666664</ele><time>2026-05-01T15:29:18.876Z</time></trkpt><trkpt lat="43.6833766" lon="7.092175"><ele>47.0</ele><time>2026-05-01T15:29:19.876Z</time></trkpt><trkpt lat="43.6832727" lon="7.092001"><ele>47.0</ele><time>2026-05-01T15:29:20.876Z</time></trkpt><trkpt lat="43.6831968" lon="7.0918459"><ele>47.0</ele><time>2026-05-01T15:29:21.876Z</time></trkpt><trkpt lat="43.6831557" lon="7.0917079"><ele>47.0</ele><time>2026-05-01T15:29:22.876Z</time></trkpt><trkpt lat="43.6830521" lon="7.0915324"><ele>47.0</ele><time>2026-05-01T15:29:23.876Z</time></trkpt><trkpt lat="43.6830177" lon="7.0914349"><ele>46.6</ele><time>2026-05-01T15:29:24.876Z</time></trkpt><trkpt lat="43.6829611" lon="7.0913021"><ele>46.2</ele><time>2026-05-01T15:29:26.876Z</time></trkpt><trkpt lat="43.6828868" lon="7.0912087"><ele>45.8</ele><time>2026-05-01T15:29:27.876Z</time></trkpt><trkpt lat="43.682811" lon="7.0911321"><ele>45.4</ele><time>2026-05-01T15:29:29.876Z</time></trkpt><trkpt lat="43.6827389" lon="7.0910811"><ele>45.0</ele><time>2026-05-01T15:29:32.876Z</time></trkpt><trkpt lat="43.6827547" lon="7.0909903"><ele>46.25</ele><time>2026-05-01T15:29:40.876Z</time></trkpt><trkpt lat="43.6827108" lon="7.0907923"><ele>47.5</ele><time>2026-05-01T15:29:41.876Z</time></trkpt><trkpt lat="43.6826793" lon="7.0906935"><ele>48.75</ele><time>2026-05-01T15:29:43.876Z</time></trkpt><trkpt lat="43.6826415" lon="7.0904818"><ele>50.0</ele><time>2026-05-01T15:29:44.876Z</time></trkpt><trkpt lat="43.6824995" lon="7.0902866"><ele>46.0</ele><time>2026-05-01T15:29:45.876Z</time></trkpt><trkpt lat="43.6823831" lon="7.0900202"><ele>42.0</ele><time>2026-05-01T15:29:46.876Z</time></trkpt><trkpt lat="43.6823836" lon="7.0898094"><ele>38.0</ele><time>2026-05-01T15:29:47.876Z</time></trkpt><trkpt lat="43.6824085" lon="7.089651"><ele>36.75</ele><time>2026-05-01T15:29:48.876Z</time></trkpt><trkpt lat="43.6825179" lon="7.0895544"><ele>35.5</ele><time>2026-05-01T15:29:49.876Z</time></trkpt><trkpt lat="43.6825621" lon="7.0893909"><ele>34.25</ele><time>2026-05-01T15:29:50.876Z</time></trkpt><trkpt lat="43.6825246" lon="7.0891783"><ele>33.0</ele><time>2026-05-01T15:29:51.876Z</time></trkpt><trkpt lat="43.6825735" lon="7.0889876"><ele>33.0</ele><time>2026-05-01T15:29:52.876Z</time></trkpt><trkpt lat="43.6826202" lon="7.0888403"><ele>33.0</ele><time>2026-05-01T15:29:53.876Z</time></trkpt><trkpt lat="43.6827159" lon="7.0887335"><ele>33.0</ele><time>2026-05-01T15:29:54.876Z</time></trkpt><trkpt lat="43.6828394" lon="7.0885886"><ele>33.0</ele><time>2026-05-01T15:29:55.876Z</time></trkpt><trkpt lat="43.6829418" lon="7.0884567"><ele>36.25</ele><time>2026-05-01T15:29:56.876Z</time></trkpt><trkpt lat="43.6830163" lon="7.0883386"><ele>39.5</ele><time>2026-05-01T15:29:57.876Z</time></trkpt><trkpt lat="43.6830463" lon="7.0881562"><ele>42.75</ele><time>2026-05-01T15:29:58.877Z</time></trkpt><trkpt lat="43.6830821" lon="7.0879997"><ele>46.0</ele><time>2026-05-01T15:29:59.876Z</time></trkpt><trkpt lat="43.6831206" lon="7.0878319"><ele>46.0</ele><time>2026-05-01T15:30:00.876Z</time></trkpt><trkpt lat="43.6831207" lon="7.0876783"><ele>46.0</ele><time>2026-05-01T15:30:01.876Z</time></trkpt><trkpt lat="43.683072" lon="7.0875126"><ele>46.0</ele><time>2026-05-01T15:30:02.876Z</time></trkpt><trkpt lat="43.6830582" lon="7.0873596"><ele>46.0</ele><time>2026-05-01T15:30:04.876Z</time></trkpt><trkpt lat="43.6830311" lon="7.0872119"><ele>45.75</ele><time>2026-05-01T15:30:05.876Z</time></trkpt><trkpt lat="43.6830045" lon="7.087086"><ele>45.5</ele><time>2026-05-01T15:30:06.876Z</time></trkpt><trkpt lat="43.6829492" lon="7.0869793"><ele>45.25</ele><time>2026-05-01T15:30:07.877Z</time></trkpt><trkpt lat="43.6828914" lon="7.0868607"><ele>45.0</ele><time>2026-05-01T15:30:08.876Z</time></trkpt><trkpt lat="43.6827761" lon="7.0867029"><ele>43.0</ele><time>2026-05-01T15:30:09.872Z</time></trkpt><trkpt lat="43.6827153" lon="7.086611"><ele>41.0</ele><time>2026-05-01T15:30:10.871Z</time></trkpt><trkpt lat="43.6825868" lon="7.0864132"><ele>39.0</ele><time>2026-05-01T15:30:11.871Z</time></trkpt><trkpt lat="43.6824958" lon="7.0862881"><ele>37.0</ele><time>2026-05-01T15:30:12.871Z</time></trkpt><trkpt lat="43.6824463" lon="7.0862023"><ele>37.0</ele><time>2026-05-01T15:30:13.87Z</time></trkpt><trkpt lat="43.682396" lon="7.0861251"><ele>37.0</ele><time>2026-05-01T15:30:14.873Z</time></trkpt><trkpt lat="43.6822907" lon="7.0859753"><ele>37.0</ele><time>2026-05-01T15:30:15.873Z</time></trkpt><trkpt lat="43.6822597" lon="7.0857821"><ele>37.0</ele><time>2026-05-01T15:30:17.873Z</time></trkpt><trkpt lat="43.6822555" lon="7.0856173"><ele>37.75</ele><time>2026-05-01T15:30:18.873Z</time></trkpt><trkpt lat="43.6822688" lon="7.085471"><ele>38.5</ele><time>2026-05-01T15:30:19.873Z</time></trkpt><trkpt lat="43.6822894" lon="7.0852655"><ele>39.25</ele><time>2026-05-01T15:30:20.873Z</time></trkpt><trkpt lat="43.6823279" lon="7.0851028"><ele>40.0</ele><time>2026-05-01T15:30:21.873Z</time></trkpt><trkpt lat="43.6823439" lon="7.0849183"><ele>41.5</ele><time>2026-05-01T15:30:22.873Z</time></trkpt><trkpt lat="43.6823277" lon="7.0847038"><ele>43.0</ele><time>2026-05-01T15:30:23.873Z</time></trkpt><trkpt lat="43.6822916" lon="7.0845541"><ele>44.5</ele><time>2026-05-01T15:30:24.874Z</time></trkpt><trkpt lat="43.6822063" lon="7.0843737"><ele>46.0</ele><time>2026-05-01T15:30:25.873Z</time></trkpt><trkpt lat="43.6821617" lon="7.0842183"><ele>47.0</ele><time>2026-05-01T15:30:26.873Z</time></trkpt><trkpt lat="43.6821126" lon="7.0840739"><ele>48.0</ele><time>2026-05-01T15:30:27.873Z</time></trkpt><trkpt lat="43.6820529" lon="7.0839324"><ele>49.0</ele><time>2026-05-01T15:30:28.873Z</time></trkpt><trkpt lat="43.6819548" lon="7.0837603"><ele>50.0</ele><time>2026-05-01T15:30:29.874Z</time></trkpt><trkpt lat="43.6818649" lon="7.0835999"><ele>52.0</ele><time>2026-05-01T15:30:30.873Z</time></trkpt><trkpt lat="43.6817974" lon="7.0834703"><ele>54.0</ele><time>2026-05-01T15:30:31.873Z</time></trkpt><trkpt lat="43.6816608" lon="7.0832855"><ele>56.0</ele><time>2026-05-01T15:30:32.873Z</time></trkpt><trkpt lat="43.6815319" lon="7.0831725"><ele>56.0</ele><time>2026-05-01T15:30:34.873Z</time></trkpt><trkpt lat="43.681422" lon="7.083084"><ele>56.0</ele><time>2026-05-01T15:30:35.873Z</time></trkpt><trkpt lat="43.681239" lon="7.0830184"><ele>56.0</ele><time>2026-05-01T15:30:36.873Z</time></trkpt><trkpt lat="43.6811114" lon="7.0829737"><ele>56.0</ele><time>2026-05-01T15:30:37.873Z</time></trkpt><trkpt lat="43.6810007" lon="7.082931"><ele>53.25</ele><time>2026-05-01T15:30:38.873Z</time></trkpt><trkpt lat="43.6808412" lon="7.0828506"><ele>50.5</ele><time>2026-05-01T15:30:39.873Z</time></trkpt><trkpt lat="43.680729" lon="7.082799"><ele>47.75</ele><time>2026-05-01T15:30:40.873Z</time></trkpt><trkpt lat="43.6806389" lon="7.082713"><ele>45.0</ele><time>2026-05-01T15:30:41.873Z</time></trkpt><trkpt lat="43.6805273" lon="7.0826553"><ele>45.0</ele><time>2026-05-01T15:30:42.873Z</time></trkpt><trkpt lat="43.6804653" lon="7.0824951"><ele>45.0</ele><time>2026-05-01T15:30:43.873Z</time></trkpt><trkpt lat="43.68038" lon="7.0823967"><ele>45.0</ele><time>2026-05-01T15:30:44.873Z</time></trkpt><trkpt lat="43.6802859" lon="7.0822522"><ele>45.0</ele><time>2026-05-01T15:30:45.873Z</time></trkpt><trkpt lat="43.6802239" lon="7.0821328"><ele>45.2</ele><time>2026-05-01T15:30:46.873Z</time></trkpt><trkpt lat="43.6801855" lon="7.0819621"><ele>45.4</ele><time>2026-05-01T15:30:47.873Z</time></trkpt><trkpt lat="43.680168" lon="7.0818169"><ele>45.599999999999994</ele><time>2026-05-01T15:30:48.873Z</time></trkpt><trkpt lat="43.680189" lon="7.0816998"><ele>45.8</ele><time>2026-05-01T15:30:49.873Z</time></trkpt><trkpt lat="43.6802091" lon="7.0815431"><ele>46.0</ele><time>2026-05-01T15:30:50.873Z</time></trkpt><trkpt lat="43.6802357" lon="7.0813812"><ele>46.0</ele><time>2026-05-01T15:30:51.873Z</time></trkpt><trkpt lat="43.6802305" lon="7.0812205"><ele>46.0</ele><time>2026-05-01T15:30:52.873Z</time></trkpt><trkpt lat="43.6802377" lon="7.0810213"><ele>46.0</ele><time>2026-05-01T15:30:53.873Z</time></trkpt><trkpt lat="43.6802221" lon="7.0808034"><ele>46.0</ele><time>2026-05-01T15:30:54.873Z</time></trkpt><trkpt lat="43.6802228" lon="7.080631"><ele>47.25</ele><time>2026-05-01T15:30:55.873Z</time></trkpt><trkpt lat="43.6802363" lon="7.0804835"><ele>48.5</ele><time>2026-05-01T15:30:56.873Z</time></trkpt><trkpt lat="43.6802086" lon="7.0802735"><ele>49.75</ele><time>2026-05-01T15:30:57.873Z</time></trkpt><trkpt lat="43.6802083" lon="7.0801062"><ele>51.0</ele><time>2026-05-01T15:30:58.874Z</time></trkpt><trkpt lat="43.6801972" lon="7.0799467"><ele>50.75</ele><time>2026-05-01T15:30:59.873Z</time></trkpt><trkpt lat="43.6801751" lon="7.0797209"><ele>50.5</ele><time>2026-05-01T15:31:00.873Z</time></trkpt><trkpt lat="43.6801599" lon="7.0795478"><ele>50.25</ele><time>2026-05-01T15:31:01.873Z</time></trkpt><trkpt lat="43.6801697" lon="7.0793813"><ele>50.0</ele><time>2026-05-01T15:31:02.873Z</time></trkpt><trkpt lat="43.680233" lon="7.0792259"><ele>47.66666666666667</ele><time>2026-05-01T15:31:03.873Z</time></trkpt><trkpt lat="43.6803332" lon="7.079124"><ele>45.333333333333336</ele><time>2026-05-01T15:31:04.873Z</time></trkpt><trkpt lat="43.6803885" lon="7.0789242"><ele>43.0</ele><time>2026-05-01T15:31:05.873Z</time></trkpt><trkpt lat="43.6804867" lon="7.0786755"><ele>42.66666666666667</ele><time>2026-05-01T15:31:06.873Z</time></trkpt><trkpt lat="43.6805557" lon="7.0785154"><ele>42.333333333333336</ele><time>2026-05-01T15:31:07.873Z</time></trkpt><trkpt lat="43.6806334" lon="7.0783363"><ele>42.0</ele><time>2026-05-01T15:31:08.873Z</time></trkpt><trkpt lat="43.6807047" lon="7.0781147"><ele>50.33333333333333</ele><time>2026-05-01T15:31:09.873Z</time></trkpt><trkpt lat="43.6807732" lon="7.077921"><ele>58.666666666666664</ele><time>2026-05-01T15:31:10.873Z</time></trkpt><trkpt lat="43.6808351" lon="7.0777134"><ele>67.0</ele><time>2026-05-01T15:31:11.873Z</time></trkpt><trkpt lat="43.6809534" lon="7.0775432"><ele>64.0</ele><time>2026-05-01T15:31:12.874Z</time></trkpt><trkpt lat="43.6810454" lon="7.0774009"><ele>61.0</ele><time>2026-05-01T15:31:13.873Z</time></trkpt><trkpt lat="43.6811311" lon="7.0772412"><ele>58.0</ele><time>2026-05-01T15:31:14.873Z</time></trkpt><trkpt lat="43.6812364" lon="7.0771045"><ele>55.0</ele><time>2026-05-01T15:31:15.873Z</time></trkpt><trkpt lat="43.6813253" lon="7.0769468"><ele>55.0</ele><time>2026-05-01T15:31:16.873Z</time></trkpt><trkpt lat="43.6814439" lon="7.0768352"><ele>55.0</ele><time>2026-05-01T15:31:17.873Z</time></trkpt><trkpt lat="43.6815016" lon="7.07668"><ele>55.0</ele><time>2026-05-01T15:31:18.873Z</time></trkpt><trkpt lat="43.6815905" lon="7.0765071"><ele>55.0</ele><time>2026-05-01T15:31:19.873Z</time></trkpt><trkpt lat="43.6816801" lon="7.076341"><ele>66.33333333333333</ele><time>2026-05-01T15:31:20.874Z</time></trkpt><trkpt lat="43.6817536" lon="7.0761624"><ele>77.66666666666667</ele><time>2026-05-01T15:31:21.873Z</time></trkpt><trkpt lat="43.6818624" lon="7.0759777"><ele>89.0</ele><time>2026-05-01T15:31:22.873Z</time></trkpt><trkpt lat="43.681915" lon="7.0757942"><ele>84.5</ele><time>2026-05-01T15:31:23.873Z</time></trkpt><trkpt lat="43.6820125" lon="7.0756319"><ele>80.0</ele><time>2026-05-01T15:31:24.873Z</time></trkpt><trkpt lat="43.6821155" lon="7.0754847"><ele>75.5</ele><time>2026-05-01T15:31:25.874Z</time></trkpt><trkpt lat="43.6821805" lon="7.075316"><ele>71.0</ele><time>2026-05-01T15:31:26.873Z</time></trkpt><trkpt lat="43.6822994" lon="7.0751714"><ele>71.0</ele><time>2026-05-01T15:31:27.873Z</time></trkpt><trkpt lat="43.6823589" lon="7.0749734"><ele>71.0</ele><time>2026-05-01T15:31:28.873Z</time></trkpt><trkpt lat="43.682438" lon="7.0748223"><ele>71.0</ele><time>2026-05-01T15:31:29.873Z</time></trkpt><trkpt lat="43.6824888" lon="7.0746561"><ele>71.0</ele><time>2026-05-01T15:31:30.873Z</time></trkpt><trkpt lat="43.6826918" lon="7.0745783"><ele>68.5</ele><time>2026-05-01T15:31:31.873Z</time></trkpt><trkpt lat="43.6827823" lon="7.0744082"><ele>66.0</ele><time>2026-05-01T15:31:32.873Z</time></trkpt><trkpt lat="43.6828529" lon="7.0742718"><ele>63.5</ele><time>2026-05-01T15:31:33.873Z</time></trkpt><trkpt lat="43.6829598" lon="7.0741659"><ele>61.0</ele><time>2026-05-01T15:31:34.873Z</time></trkpt><trkpt lat="43.6830371" lon="7.0740454"><ele>61.0</ele><time>2026-05-01T15:31:35.873Z</time></trkpt><trkpt lat="43.6831726" lon="7.0740418"><ele>60.99999999999999</ele><time>2026-05-01T15:31:36.873Z</time></trkpt><trkpt lat="43.6832072" lon="7.0739143"><ele>60.99999999999999</ele><time>2026-05-01T15:31:37.873Z</time></trkpt><trkpt lat="43.6832266" lon="7.0737982"><ele>61.0</ele><time>2026-05-01T15:31:38.873Z</time></trkpt><trkpt lat="43.6832731" lon="7.0736839"><ele>61.0</ele><time>2026-05-01T15:31:39.873Z</time></trkpt><trkpt lat="43.6833864" lon="7.0736534"><ele>61.0</ele><time>2026-05-01T15:31:40.873Z</time></trkpt><trkpt lat="43.6835479" lon="7.0736423"><ele>61.0</ele><time>2026-05-01T15:31:41.873Z</time></trkpt><trkpt lat="43.683631" lon="7.0735912"><ele>61.0</ele><time>2026-05-01T15:31:42.873Z</time></trkpt><trkpt lat="43.6837513" lon="7.0735461"><ele>61.0</ele><time>2026-05-01T15:31:43.873Z</time></trkpt><trkpt lat="43.6839184" lon="7.073525"><ele>62.0</ele><time>2026-05-01T15:31:44.873Z</time></trkpt><trkpt lat="43.6840721" lon="7.0734509"><ele>63.0</ele><time>2026-05-01T15:31:45.873Z</time></trkpt><trkpt lat="43.6841701" lon="7.0733872"><ele>64.0</ele><time>2026-05-01T15:31:46.873Z</time></trkpt><trkpt lat="43.6842667" lon="7.0732237"><ele>65.0</ele><time>2026-05-01T15:31:47.873Z</time></trkpt><trkpt lat="43.6843899" lon="7.0731284"><ele>61.0</ele><time>2026-05-01T15:31:48.873Z</time></trkpt><trkpt lat="43.6844971" lon="7.0730204"><ele>57.0</ele><time>2026-05-01T15:31:49.873Z</time></trkpt><trkpt lat="43.6845798" lon="7.0728226"><ele>53.0</ele><time>2026-05-01T15:31:50.873Z</time></trkpt><trkpt lat="43.6846882" lon="7.0727028"><ele>49.0</ele><time>2026-05-01T15:31:51.873Z</time></trkpt><trkpt lat="43.684785" lon="7.0725728"><ele>49.0</ele><time>2026-05-01T15:31:52.873Z</time></trkpt><trkpt lat="43.6848906" lon="7.072467"><ele>49.0</ele><time>2026-05-01T15:31:53.873Z</time></trkpt><trkpt lat="43.685032" lon="7.0723709"><ele>49.0</ele><time>2026-05-01T15:31:54.873Z</time></trkpt><trkpt lat="43.6851715" lon="7.0722942"><ele>49.0</ele><time>2026-05-01T15:31:55.873Z</time></trkpt><trkpt lat="43.6853031" lon="7.0721799"><ele>51.0</ele><time>2026-05-01T15:31:56.873Z</time></trkpt><trkpt lat="43.6854421" lon="7.0720678"><ele>53.0</ele><time>2026-05-01T15:31:57.874Z</time></trkpt><trkpt lat="43.685557" lon="7.0719804"><ele>55.0</ele><time>2026-05-01T15:31:58.873Z</time></trkpt><trkpt lat="43.6856963" lon="7.0719363"><ele>57.0</ele><time>2026-05-01T15:31:59.873Z</time></trkpt><trkpt lat="43.6858032" lon="7.0719111"><ele>57.0</ele><time>2026-05-01T15:32:00.873Z</time></trkpt><trkpt lat="43.6859618" lon="7.0719636"><ele>57.0</ele><time>2026-05-01T15:32:01.873Z</time></trkpt><trkpt lat="43.6860904" lon="7.0719683"><ele>57.0</ele><time>2026-05-01T15:32:02.873Z</time></trkpt><trkpt lat="43.686186" lon="7.0720011"><ele>57.0</ele><time>2026-05-01T15:32:03.873Z</time></trkpt><trkpt lat="43.6863164" lon="7.0720602"><ele>46.0</ele><time>2026-05-01T15:32:04.873Z</time></trkpt><trkpt lat="43.686408" lon="7.0720862"><ele>46.0</ele><time>2026-05-01T15:32:05.873Z</time></trkpt><trkpt lat="43.6864545" lon="7.0721682"><ele>46.0</ele><time>2026-05-01T15:32:07.873Z</time></trkpt></trkseg><trkseg><trkpt lat="43.6894876" lon="7.0729972"><ele>82.0</ele><time>2026-05-01T15:36:42.869Z</time></trkpt><trkpt lat="43.6894726" lon="7.0729039"><ele>82.0</ele><time>2026-05-01T15:36:52.87Z</time></trkpt><trkpt lat="43.6895232" lon="7.0727865"><ele>82.0</ele><time>2026-05-01T15:36:54.869Z</time></trkpt><trkpt lat="43.6895668" lon="7.0726619"><ele>82.0</ele><time>2026-05-01T15:36:56.869Z</time></trkpt><trkpt lat="43.6896289" lon="7.0725665"><ele>82.0</ele><time>2026-05-01T15:36:57.869Z</time></trkpt><trkpt lat="43.6896245" lon="7.0724498"><ele>82.0</ele><time>2026-05-01T15:36:58.869Z</time></trkpt><trkpt lat="43.689636" lon="7.0723317"><ele>81.0</ele><time>2026-05-01T15:36:59.869Z</time></trkpt><trkpt lat="43.6896401" lon="7.0721593"><ele>80.0</ele><time>2026-05-01T15:37:00.869Z</time></trkpt><trkpt lat="43.6896418" lon="7.071871"><ele>79.0</ele><time>2026-05-01T15:37:01.869Z</time></trkpt><trkpt lat="43.6896522" lon="7.0716373"><ele>78.66666666666666</ele><time>2026-05-01T15:37:02.869Z</time></trkpt><trkpt lat="43.6896753" lon="7.0713806"><ele>78.33333333333333</ele><time>2026-05-01T15:37:03.869Z</time></trkpt><trkpt lat="43.6896417" lon="7.0711366"><ele>78.0</ele><time>2026-05-01T15:37:04.869Z</time></trkpt><trkpt lat="43.689632" lon="7.0709286"><ele>79.33333333333333</ele><time>2026-05-01T15:37:05.869Z</time></trkpt><trkpt lat="43.6896022" lon="7.0707212"><ele>80.66666666666666</ele><time>2026-05-01T15:37:06.869Z</time></trkpt><trkpt lat="43.6895654" lon="7.0704576"><ele>82.0</ele><time>2026-05-01T15:37:07.869Z</time></trkpt><trkpt lat="43.6895139" lon="7.0701848"><ele>82.0</ele><time>2026-05-01T15:37:08.869Z</time></trkpt><trkpt lat="43.6895025" lon="7.0699766"><ele>82.0</ele><time>2026-05-01T15:37:09.869Z</time></trkpt><trkpt lat="43.6894783" lon="7.0697873"><ele>82.0</ele><time>2026-05-01T15:37:10.87Z</time></trkpt><trkpt lat="43.689452" lon="7.069565"><ele>81.25</ele><time>2026-05-01T15:37:11.869Z</time></trkpt><trkpt lat="43.6894558" lon="7.069391"><ele>80.5</ele><time>2026-05-01T15:37:12.869Z</time></trkpt><trkpt lat="43.6894834" lon="7.0692293"><ele>79.75</ele><time>2026-05-01T15:37:13.87Z</time></trkpt><trkpt lat="43.6895406" lon="7.0690549"><ele>79.0</ele><time>2026-05-01T15:37:14.87Z</time></trkpt><trkpt lat="43.6895819" lon="7.0689117"><ele>79.0</ele><time>2026-05-01T15:37:15.869Z</time></trkpt><trkpt lat="43.6896413" lon="7.0687204"><ele>79.0</ele><time>2026-05-01T15:37:16.869Z</time></trkpt><trkpt lat="43.6897485" lon="7.0686036"><ele>79.0</ele><time>2026-05-01T15:37:17.869Z</time></trkpt><trkpt lat="43.6898081" lon="7.0684326"><ele>79.0</ele><time>2026-05-01T15:37:18.869Z</time></trkpt><trkpt lat="43.689882" lon="7.0682885"><ele>77.0</ele><time>2026-05-01T15:37:19.869Z</time></trkpt><trkpt lat="43.6899291" lon="7.0681367"><ele>75.0</ele><time>2026-05-01T15:37:20.869Z</time></trkpt><trkpt lat="43.6899923" lon="7.0679544"><ele>73.0</ele><time>2026-05-01T15:37:21.869Z</time></trkpt><trkpt lat="43.6900362" lon="7.0677835"><ele>71.0</ele><time>2026-05-01T15:37:22.869Z</time></trkpt><trkpt lat="43.6900268" lon="7.0676145"><ele>71.0</ele><time>2026-05-01T15:37:23.869Z</time></trkpt><trkpt lat="43.6900266" lon="7.0674904"><ele>71.0</ele><time>2026-05-01T15:37:24.869Z</time></trkpt><trkpt lat="43.6899557" lon="7.0673712"><ele>71.0</ele><time>2026-05-01T15:37:25.869Z</time></trkpt><trkpt lat="43.6898934" lon="7.0672595"><ele>71.0</ele><time>2026-05-01T15:37:26.869Z</time></trkpt><trkpt lat="43.6898412" lon="7.0671864"><ele>71.0</ele><time>2026-05-01T15:37:27.869Z</time></trkpt><trkpt lat="43.6897936" lon="7.0670474"><ele>68.83333333333334</ele><time>2026-05-01T15:37:28.869Z</time></trkpt><trkpt lat="43.6897637" lon="7.0669664"><ele>66.66666666666667</ele><time>2026-05-01T15:37:29.87Z</time></trkpt><trkpt lat="43.6898128" lon="7.0668441"><ele>64.5</ele><time>2026-05-01T15:37:31.869Z</time></trkpt><trkpt lat="43.6899003" lon="7.0668071"><ele>62.33333333333333</ele><time>2026-05-01T15:37:32.869Z</time></trkpt><trkpt lat="43.6900023" lon="7.0667769"><ele>60.166666666666664</ele><time>2026-05-01T15:37:33.869Z</time></trkpt><trkpt lat="43.6900698" lon="7.0668008"><ele>58.0</ele><time>2026-05-01T15:37:34.869Z</time></trkpt><trkpt lat="43.6901501" lon="7.0668235"><ele>58.0</ele><time>2026-05-01T15:37:35.869Z</time></trkpt><trkpt lat="43.6902272" lon="7.0668172"><ele>58.0</ele><time>2026-05-01T15:37:36.869Z</time></trkpt><trkpt lat="43.6904674" lon="7.06681"><ele>58.0</ele><time>2026-05-01T15:37:38.869Z</time></trkpt><trkpt lat="43.69069" lon="7.0667845"><ele>62.33333333333333</ele><time>2026-05-01T15:37:39.869Z</time></trkpt><trkpt lat="43.6908505" lon="7.0667353"><ele>66.66666666666667</ele><time>2026-05-01T15:37:40.869Z</time></trkpt><trkpt lat="43.6910449" lon="7.0666836"><ele>71.0</ele><time>2026-05-01T15:37:41.87Z</time></trkpt><trkpt lat="43.6912611" lon="7.0666401"><ele>69.66666666666667</ele><time>2026-05-01T15:37:42.869Z</time></trkpt><trkpt lat="43.6914654" lon="7.0666317"><ele>68.33333333333333</ele><time>2026-05-01T15:37:43.869Z</time></trkpt><trkpt lat="43.6916602" lon="7.0665725"><ele>67.0</ele><time>2026-05-01T15:37:44.869Z</time></trkpt><trkpt lat="43.6919199" lon="7.0665334"><ele>67.0</ele><time>2026-05-01T15:37:45.869Z</time></trkpt><trkpt lat="43.6921028" lon="7.0664986"><ele>67.0</ele><time>2026-05-01T15:37:46.87Z</time></trkpt><trkpt lat="43.6923033" lon="7.0666087"><ele>67.0</ele><time>2026-05-01T15:37:47.869Z</time></trkpt><trkpt lat="43.6924678" lon="7.0666131"><ele>67.0</ele><time>2026-05-01T15:37:48.869Z</time></trkpt><trkpt lat="43.6926063" lon="7.0665429"><ele>67.0</ele><time>2026-05-01T15:37:49.869Z</time></trkpt><trkpt lat="43.6927745" lon="7.0665216"><ele>67.0</ele><time>2026-05-01T15:37:50.87Z</time></trkpt><trkpt lat="43.6928842" lon="7.0665236"><ele>67.0</ele><time>2026-05-01T15:37:51.869Z</time></trkpt><trkpt lat="43.6930085" lon="7.0665702"><ele>66.25</ele><time>2026-05-01T15:37:52.869Z</time></trkpt><trkpt lat="43.6931112" lon="7.0665563"><ele>65.5</ele><time>2026-05-01T15:37:53.869Z</time></trkpt><trkpt lat="43.6932035" lon="7.0665787"><ele>64.75</ele><time>2026-05-01T15:37:54.869Z</time></trkpt><trkpt lat="43.6933259" lon="7.0665404"><ele>64.0</ele><time>2026-05-01T15:37:55.869Z</time></trkpt><trkpt lat="43.6934594" lon="7.0664809"><ele>64.0</ele><time>2026-05-01T15:37:56.869Z</time></trkpt><trkpt lat="43.6935821" lon="7.0664554"><ele>64.0</ele><time>2026-05-01T15:37:57.869Z</time></trkpt><trkpt lat="43.6937208" lon="7.0664058"><ele>64.0</ele><time>2026-05-01T15:37:58.869Z</time></trkpt><trkpt lat="43.6937972" lon="7.0663433"><ele>64.0</ele><time>2026-05-01T15:37:59.869Z</time></trkpt><trkpt lat="43.6938927" lon="7.0662691"><ele>69.5</ele><time>2026-05-01T15:38:00.869Z</time></trkpt><trkpt lat="43.6939675" lon="7.0660963"><ele>75.0</ele><time>2026-05-01T15:38:01.869Z</time></trkpt><trkpt lat="43.6940479" lon="7.0659295"><ele>80.5</ele><time>2026-05-01T15:38:02.869Z</time></trkpt><trkpt lat="43.694126" lon="7.0658094"><ele>86.0</ele><time>2026-05-01T15:38:03.869Z</time></trkpt><trkpt lat="43.6941915" lon="7.0656185"><ele>86.0</ele><time>2026-05-01T15:38:04.869Z</time></trkpt><trkpt lat="43.694247" lon="7.0654552"><ele>86.0</ele><time>2026-05-01T15:38:05.869Z</time></trkpt><trkpt lat="43.6942703" lon="7.0651643"><ele>86.0</ele><time>2026-05-01T15:38:06.869Z</time></trkpt><trkpt lat="43.6942776" lon="7.0648477"><ele>85.0</ele><time>2026-05-01T15:38:07.869Z</time></trkpt><trkpt lat="43.6942437" lon="7.0646029"><ele>84.0</ele><time>2026-05-01T15:38:08.869Z</time></trkpt><trkpt lat="43.6942413" lon="7.0643503"><ele>83.0</ele><time>2026-05-01T15:38:09.869Z</time></trkpt><trkpt lat="43.6941769" lon="7.064044"><ele>82.33333333333334</ele><time>2026-05-01T15:38:10.869Z</time></trkpt><trkpt lat="43.6941734" lon="7.0638293"><ele>81.66666666666667</ele><time>2026-05-01T15:38:11.869Z</time></trkpt><trkpt lat="43.6941528" lon="7.0636037"><ele>81.0</ele><time>2026-05-01T15:38:12.869Z</time></trkpt><trkpt lat="43.694132" lon="7.0633631"><ele>78.66666666666667</ele><time>2026-05-01T15:38:13.87Z</time></trkpt><trkpt lat="43.6941036" lon="7.0631547"><ele>76.33333333333334</ele><time>2026-05-01T15:38:14.869Z</time></trkpt><trkpt lat="43.6941004" lon="7.0629611"><ele>74.0</ele><time>2026-05-01T15:38:15.869Z</time></trkpt><trkpt lat="43.6940755" lon="7.0627289"><ele>74.0</ele><time>2026-05-01T15:38:16.869Z</time></trkpt><trkpt lat="43.6941014" lon="7.0625434"><ele>74.0</ele><time>2026-05-01T15:38:17.869Z</time></trkpt><trkpt lat="43.6941322" lon="7.06234"><ele>74.0</ele><time>2026-05-01T15:38:18.869Z</time></trkpt><trkpt lat="43.694158" lon="7.0621744"><ele>74.0</ele><time>2026-05-01T15:38:19.869Z</time></trkpt><trkpt lat="43.6941824" lon="7.0620823"><ele>74.33333333333334</ele><time>2026-05-01T15:38:20.869Z</time></trkpt><trkpt lat="43.6941831" lon="7.0619456"><ele>74.66666666666667</ele><time>2026-05-01T15:38:21.869Z</time></trkpt><trkpt lat="43.6942379" lon="7.0618294"><ele>75.0</ele><time>2026-05-01T15:38:22.869Z</time></trkpt><trkpt lat="43.6942978" lon="7.0617702"><ele>75.33333333333333</ele><time>2026-05-01T15:38:23.869Z</time></trkpt><trkpt lat="43.6943692" lon="7.0617449"><ele>75.66666666666666</ele><time>2026-05-01T15:38:24.869Z</time></trkpt><trkpt lat="43.6944304" lon="7.0617848"><ele>76.0</ele><time>2026-05-01T15:38:26.869Z</time></trkpt><trkpt lat="43.694485" lon="7.0619625"><ele>76.0</ele><time>2026-05-01T15:38:28.869Z</time></trkpt><trkpt lat="43.6945171" lon="7.0621112"><ele>76.0</ele><time>2026-05-01T15:38:29.869Z</time></trkpt><trkpt lat="43.6945602" lon="7.0622398"><ele>76.0</ele><time>2026-05-01T15:38:30.869Z</time></trkpt><trkpt lat="43.6946086" lon="7.0624743"><ele>76.0</ele><time>2026-05-01T15:38:31.87Z</time></trkpt><trkpt lat="43.6947528" lon="7.0628418"><ele>75.75</ele><time>2026-05-01T15:38:32.869Z</time></trkpt><trkpt lat="43.6948231" lon="7.0630101"><ele>75.5</ele><time>2026-05-01T15:38:33.869Z</time></trkpt><trkpt lat="43.6949125" lon="7.0631681"><ele>75.25</ele><time>2026-05-01T15:38:34.869Z</time></trkpt><trkpt lat="43.6949682" lon="7.0632274"><ele>75.0</ele><time>2026-05-01T15:38:35.869Z</time></trkpt><trkpt lat="43.6951016" lon="7.0633107"><ele>75.75</ele><time>2026-05-01T15:38:36.869Z</time></trkpt><trkpt lat="43.6952507" lon="7.0633787"><ele>76.5</ele><time>2026-05-01T15:38:37.869Z</time></trkpt><trkpt lat="43.6953642" lon="7.0633983"><ele>77.25</ele><time>2026-05-01T15:38:38.869Z</time></trkpt><trkpt lat="43.6955157" lon="7.0634315"><ele>78.0</ele><time>2026-05-01T15:38:39.87Z</time></trkpt><trkpt lat="43.695677" lon="7.0634702"><ele>78.0</ele><time>2026-05-01T15:38:40.869Z</time></trkpt><trkpt lat="43.6958311" lon="7.0635064"><ele>78.0</ele><time>2026-05-01T15:38:41.869Z</time></trkpt><trkpt lat="43.6959961" lon="7.0635463"><ele>78.0</ele><time>2026-05-01T15:38:42.869Z</time></trkpt><trkpt lat="43.6961893" lon="7.0635267"><ele>79.0</ele><time>2026-05-01T15:38:43.869Z</time></trkpt><trkpt lat="43.696354" lon="7.0634906"><ele>80.0</ele><time>2026-05-01T15:38:44.869Z</time></trkpt><trkpt lat="43.6965316" lon="7.0634805"><ele>81.0</ele><time>2026-05-01T15:38:45.869Z</time></trkpt><trkpt lat="43.696709" lon="7.0634682"><ele>81.0</ele><time>2026-05-01T15:38:46.869Z</time></trkpt><trkpt lat="43.6968858" lon="7.0634391"><ele>81.0</ele><time>2026-05-01T15:38:47.869Z</time></trkpt><trkpt lat="43.6969858" lon="7.0634225"><ele>81.0</ele><time>2026-05-01T15:38:48.869Z</time></trkpt><trkpt lat="43.6970836" lon="7.0633122"><ele>81.0</ele><time>2026-05-01T15:38:49.869Z</time></trkpt><trkpt lat="43.6971831" lon="7.0631617"><ele>81.66666666666667</ele><time>2026-05-01T15:38:50.869Z</time></trkpt><trkpt lat="43.6973264" lon="7.0630236"><ele>82.33333333333334</ele><time>2026-05-01T15:38:51.869Z</time></trkpt><trkpt lat="43.6974386" lon="7.0628811"><ele>83.0</ele><time>2026-05-01T15:38:52.869Z</time></trkpt><trkpt lat="43.6975359" lon="7.0627033"><ele>83.0</ele><time>2026-05-01T15:38:53.869Z</time></trkpt><trkpt lat="43.6976228" lon="7.0625607"><ele>83.0</ele><time>2026-05-01T15:38:54.869Z</time></trkpt><trkpt lat="43.6976964" lon="7.0623727"><ele>83.0</ele><time>2026-05-01T15:38:55.869Z</time></trkpt><trkpt lat="43.6977827" lon="7.0621866"><ele>83.0</ele><time>2026-05-01T15:38:56.869Z</time></trkpt><trkpt lat="43.697834" lon="7.0619914"><ele>98.33333333333334</ele><time>2026-05-01T15:38:57.869Z</time></trkpt><trkpt lat="43.6978662" lon="7.0617631"><ele>113.66666666666667</ele><time>2026-05-01T15:38:58.869Z</time></trkpt><trkpt lat="43.6978476" lon="7.0615214"><ele>129.0</ele><time>2026-05-01T15:38:59.869Z</time></trkpt><trkpt lat="43.6978204" lon="7.0612831"><ele>133.0</ele><time>2026-05-01T15:39:00.869Z</time></trkpt><trkpt lat="43.6977909" lon="7.0610228"><ele>137.0</ele><time>2026-05-01T15:39:01.869Z</time></trkpt><trkpt lat="43.6977365" lon="7.0608305"><ele>141.0</ele><time>2026-05-01T15:39:02.87Z</time></trkpt><trkpt lat="43.697684" lon="7.0606504"><ele>130.66666666666666</ele><time>2026-05-01T15:39:03.87Z</time></trkpt><trkpt lat="43.6976087" lon="7.0605109"><ele>120.33333333333333</ele><time>2026-05-01T15:39:04.869Z</time></trkpt><trkpt lat="43.6974914" lon="7.0603326"><ele>110.0</ele><time>2026-05-01T15:39:05.869Z</time></trkpt><trkpt lat="43.6973538" lon="7.0601667"><ele>110.0</ele><time>2026-05-01T15:39:06.869Z</time></trkpt><trkpt lat="43.6972009" lon="7.060004"><ele>110.0</ele><time>2026-05-01T15:39:07.869Z</time></trkpt><trkpt lat="43.6971049" lon="7.0599121"><ele>110.0</ele><time>2026-05-01T15:39:08.869Z</time></trkpt><trkpt lat="43.6969768" lon="7.0597932"><ele>108.0</ele><time>2026-05-01T15:39:09.869Z</time></trkpt><trkpt lat="43.696873" lon="7.0596844"><ele>106.0</ele><time>2026-05-01T15:39:10.87Z</time></trkpt><trkpt lat="43.696833" lon="7.0595946"><ele>104.0</ele><time>2026-05-01T15:39:13.869Z</time></trkpt><trkpt lat="43.6968542" lon="7.0594977"><ele>102.0</ele><time>2026-05-01T15:39:14.869Z</time></trkpt><trkpt lat="43.6968969" lon="7.0592914"><ele>100.0</ele><time>2026-05-01T15:39:15.869Z</time></trkpt><trkpt lat="43.6969626" lon="7.059072"><ele>100.0</ele><time>2026-05-01T15:39:16.869Z</time></trkpt><trkpt lat="43.6969963" lon="7.0588332"><ele>100.0</ele><time>2026-05-01T15:39:17.869Z</time></trkpt><trkpt lat="43.6970773" lon="7.0586177"><ele>100.0</ele><time>2026-05-01T15:39:18.869Z</time></trkpt><trkpt lat="43.6971601" lon="7.058443"><ele>96.33333333333334</ele><time>2026-05-01T15:39:19.869Z</time></trkpt><trkpt lat="43.6972616" lon="7.05821"><ele>92.66666666666667</ele><time>2026-05-01T15:39:20.869Z</time></trkpt><trkpt lat="43.6973865" lon="7.0579659"><ele>89.0</ele><time>2026-05-01T15:39:21.869Z</time></trkpt><trkpt lat="43.6974832" lon="7.0577569"><ele>89.0</ele><time>2026-05-01T15:39:22.869Z</time></trkpt><trkpt lat="43.6976157" lon="7.057598"><ele>89.0</ele><time>2026-05-01T15:39:23.869Z</time></trkpt><trkpt lat="43.6977182" lon="7.0574332"><ele>89.0</ele><time>2026-05-01T15:39:24.869Z</time></trkpt><trkpt lat="43.6977693" lon="7.0572587"><ele>103.0</ele><time>2026-05-01T15:39:25.869Z</time></trkpt><trkpt lat="43.6977802" lon="7.0570204"><ele>117.0</ele><time>2026-05-01T15:39:26.869Z</time></trkpt><trkpt lat="43.6978012" lon="7.0568646"><ele>131.0</ele><time>2026-05-01T15:39:27.869Z</time></trkpt><trkpt lat="43.6977989" lon="7.0566848"><ele>145.0</ele><time>2026-05-01T15:39:28.869Z</time></trkpt><trkpt lat="43.6977842" lon="7.0564425"><ele>128.66666666666669</ele><time>2026-05-01T15:39:29.869Z</time></trkpt><trkpt lat="43.6977461" lon="7.0562041"><ele>112.33333333333334</ele><time>2026-05-01T15:39:30.869Z</time></trkpt><trkpt lat="43.6976885" lon="7.0560017"><ele>96.0</ele><time>2026-05-01T15:39:31.869Z</time></trkpt><trkpt lat="43.697627" lon="7.0558318"><ele>102.0</ele><time>2026-05-01T15:39:32.869Z</time></trkpt><trkpt lat="43.6975192" lon="7.0555731"><ele>108.0</ele><time>2026-05-01T15:39:33.869Z</time></trkpt><trkpt lat="43.6974007" lon="7.0553372"><ele>114.0</ele><time>2026-05-01T15:39:34.869Z</time></trkpt><trkpt lat="43.6973044" lon="7.0551197"><ele>118.33333333333334</ele><time>2026-05-01T15:39:35.869Z</time></trkpt><trkpt lat="43.6972522" lon="7.0549207"><ele>122.66666666666667</ele><time>2026-05-01T15:39:36.869Z</time></trkpt><trkpt lat="43.6971893" lon="7.0547297"><ele>127.0</ele><time>2026-05-01T15:39:37.87Z</time></trkpt><trkpt lat="43.6971163" lon="7.0544965"><ele>127.0</ele><time>2026-05-01T15:39:38.87Z</time></trkpt><trkpt lat="43.6970239" lon="7.0543275"><ele>127.0</ele><time>2026-05-01T15:39:39.869Z</time></trkpt><trkpt lat="43.6969433" lon="7.0541543"><ele>127.0</ele><time>2026-05-01T15:39:40.869Z</time></trkpt><trkpt lat="43.6968493" lon="7.0539763"><ele>113.0</ele><time>2026-05-01T15:39:41.869Z</time></trkpt><trkpt lat="43.6967262" lon="7.0537969"><ele>99.0</ele><time>2026-05-01T15:39:42.869Z</time></trkpt><trkpt lat="43.6966351" lon="7.0536269"><ele>85.0</ele><time>2026-05-01T15:39:43.869Z</time></trkpt><trkpt lat="43.6965331" lon="7.0535159"><ele>85.0</ele><time>2026-05-01T15:39:44.869Z</time></trkpt><trkpt lat="43.6964939" lon="7.0533716"><ele>85.0</ele><time>2026-05-01T15:39:46.869Z</time></trkpt><trkpt lat="43.6965183" lon="7.0532332"><ele>85.0</ele><time>2026-05-01T15:39:48.869Z</time></trkpt><trkpt lat="43.6966733" lon="7.053223"><ele>85.0</ele><time>2026-05-01T15:39:51.869Z</time></trkpt><trkpt lat="43.6967437" lon="7.0532234"><ele>85.0</ele><time>2026-05-01T15:39:52.869Z</time></trkpt><trkpt lat="43.6968736" lon="7.0532152"><ele>84.33333333333333</ele><time>2026-05-01T15:39:53.869Z</time></trkpt><trkpt lat="43.6970014" lon="7.0532067"><ele>83.66666666666667</ele><time>2026-05-01T15:39:54.869Z</time></trkpt><trkpt lat="43.697156" lon="7.0531235"><ele>83.0</ele><time>2026-05-01T15:39:55.869Z</time></trkpt><trkpt lat="43.6973685" lon="7.0530756"><ele>83.0</ele><time>2026-05-01T15:39:56.869Z</time></trkpt><trkpt lat="43.6974941" lon="7.0530511"><ele>83.0</ele><time>2026-05-01T15:39:57.869Z</time></trkpt><trkpt lat="43.6976186" lon="7.0529761"><ele>83.0</ele><time>2026-05-01T15:39:58.869Z</time></trkpt><trkpt lat="43.6977389" lon="7.0528707"><ele>83.0</ele><time>2026-05-01T15:39:59.869Z</time></trkpt><trkpt lat="43.6978829" lon="7.0527099"><ele>90.5</ele><time>2026-05-01T15:40:00.869Z</time></trkpt><trkpt lat="43.6980371" lon="7.0525682"><ele>98.0</ele><time>2026-05-01T15:40:01.869Z</time></trkpt><trkpt lat="43.6981046" lon="7.0524431"><ele>105.5</ele><time>2026-05-01T15:40:02.869Z</time></trkpt><trkpt lat="43.6981518" lon="7.0522487"><ele>113.0</ele><time>2026-05-01T15:40:03.869Z</time></trkpt><trkpt lat="43.6981976" lon="7.0520835"><ele>113.80000000000001</ele><time>2026-05-01T15:40:04.869Z</time></trkpt><trkpt lat="43.6982365" lon="7.051897"><ele>114.60000000000001</ele><time>2026-05-01T15:40:05.869Z</time></trkpt><trkpt lat="43.6982306" lon="7.0517626"><ele>115.39999999999999</ele><time>2026-05-01T15:40:06.869Z</time></trkpt><trkpt lat="43.6981968" lon="7.0516434"><ele>116.19999999999999</ele><time>2026-05-01T15:40:07.869Z</time></trkpt><trkpt lat="43.6981292" lon="7.0515133"><ele>117.0</ele><time>2026-05-01T15:40:08.869Z</time></trkpt><trkpt lat="43.6980252" lon="7.0512848"><ele>110.33333333333334</ele><time>2026-05-01T15:40:09.869Z</time></trkpt><trkpt lat="43.6978992" lon="7.0510957"><ele>103.66666666666667</ele><time>2026-05-01T15:40:10.869Z</time></trkpt><trkpt lat="43.6977983" lon="7.050987"><ele>97.0</ele><time>2026-05-01T15:40:11.869Z</time></trkpt><trkpt lat="43.697686" lon="7.0508574"><ele>96.75</ele><time>2026-05-01T15:40:12.869Z</time></trkpt><trkpt lat="43.6975289" lon="7.0507765"><ele>96.5</ele><time>2026-05-01T15:40:13.869Z</time></trkpt><trkpt lat="43.6974001" lon="7.050773"><ele>96.25</ele><time>2026-05-01T15:40:14.869Z</time></trkpt><trkpt lat="43.6973315" lon="7.0507219"><ele>96.0</ele><time>2026-05-01T15:40:15.869Z</time></trkpt><trkpt lat="43.6972443" lon="7.0505631"><ele>96.0</ele><time>2026-05-01T15:40:17.869Z</time></trkpt><trkpt lat="43.6972154" lon="7.0504815"><ele>96.0</ele><time>2026-05-01T15:40:18.869Z</time></trkpt><trkpt lat="43.6973746" lon="7.0502438"><ele>96.0</ele><time>2026-05-01T15:40:19.869Z</time></trkpt><trkpt lat="43.6974798" lon="7.0501081"><ele>96.0</ele><time>2026-05-01T15:40:20.869Z</time></trkpt><trkpt lat="43.6975812" lon="7.0499684"><ele>96.66666666666666</ele><time>2026-05-01T15:40:21.869Z</time></trkpt><trkpt lat="43.6976833" lon="7.0497918"><ele>97.33333333333333</ele><time>2026-05-01T15:40:22.869Z</time></trkpt><trkpt lat="43.6977815" lon="7.049602"><ele>98.0</ele><time>2026-05-01T15:40:23.869Z</time></trkpt><trkpt lat="43.6978778" lon="7.0494216"><ele>101.66666666666666</ele><time>2026-05-01T15:40:24.869Z</time></trkpt><trkpt lat="43.6979488" lon="7.0492167"><ele>105.33333333333334</ele><time>2026-05-01T15:40:25.869Z</time></trkpt><trkpt lat="43.6979921" lon="7.0490377"><ele>109.0</ele><time>2026-05-01T15:40:26.869Z</time></trkpt><trkpt lat="43.6980196" lon="7.0488135"><ele>109.0</ele><time>2026-05-01T15:40:27.869Z</time></trkpt><trkpt lat="43.6980097" lon="7.0485418"><ele>109.0</ele><time>2026-05-01T15:40:28.869Z</time></trkpt><trkpt lat="43.698009" lon="7.0483109"><ele>109.0</ele><time>2026-05-01T15:40:29.869Z</time></trkpt><trkpt lat="43.6979869" lon="7.0479928"><ele>108.33333333333334</ele><time>2026-05-01T15:40:30.869Z</time></trkpt><trkpt lat="43.6980007" lon="7.0477436"><ele>107.66666666666666</ele><time>2026-05-01T15:40:31.869Z</time></trkpt><trkpt lat="43.6980712" lon="7.0475428"><ele>107.0</ele><time>2026-05-01T15:40:32.87Z</time></trkpt><trkpt lat="43.6981364" lon="7.0473147"><ele>104.0</ele><time>2026-05-01T15:40:33.869Z</time></trkpt><trkpt lat="43.6982093" lon="7.047089"><ele>101.0</ele><time>2026-05-01T15:40:34.869Z</time></trkpt><trkpt lat="43.6983105" lon="7.0469161"><ele>98.0</ele><time>2026-05-01T15:40:35.869Z</time></trkpt><trkpt lat="43.6984093" lon="7.0467054"><ele>98.33333333333333</ele><time>2026-05-01T15:40:36.869Z</time></trkpt><trkpt lat="43.6985066" lon="7.0464903"><ele>98.66666666666666</ele><time>2026-05-01T15:40:37.87Z</time></trkpt><trkpt lat="43.6986021" lon="7.0462876"><ele>99.0</ele><time>2026-05-01T15:40:38.869Z</time></trkpt><trkpt lat="43.6987008" lon="7.046088"><ele>98.0</ele><time>2026-05-01T15:40:39.869Z</time></trkpt><trkpt lat="43.6987565" lon="7.0458819"><ele>97.0</ele><time>2026-05-01T15:40:40.869Z</time></trkpt><trkpt lat="43.6988265" lon="7.0456695"><ele>96.0</ele><time>2026-05-01T15:40:41.869Z</time></trkpt><trkpt lat="43.6988794" lon="7.0454678"><ele>96.0</ele><time>2026-05-01T15:40:42.869Z</time></trkpt><trkpt lat="43.6989628" lon="7.0453452"><ele>96.0</ele><time>2026-05-01T15:40:43.869Z</time></trkpt><trkpt lat="43.6990576" lon="7.0452324"><ele>96.0</ele><time>2026-05-01T15:40:44.869Z</time></trkpt><trkpt lat="43.6992061" lon="7.0450164"><ele>97.33333333333334</ele><time>2026-05-01T15:40:45.869Z</time></trkpt><trkpt lat="43.6993255" lon="7.0448674"><ele>98.66666666666667</ele><time>2026-05-01T15:40:46.869Z</time></trkpt><trkpt lat="43.6994251" lon="7.0446836"><ele>100.0</ele><time>2026-05-01T15:40:47.869Z</time></trkpt><trkpt lat="43.6995521" lon="7.0445318"><ele>106.0</ele><time>2026-05-01T15:40:48.869Z</time></trkpt><trkpt lat="43.6996727" lon="7.0443802"><ele>112.0</ele><time>2026-05-01T15:40:49.869Z</time></trkpt><trkpt lat="43.6997631" lon="7.0441998"><ele>118.0</ele><time>2026-05-01T15:40:50.869Z</time></trkpt><trkpt lat="43.6998001" lon="7.0439808"><ele>119.33333333333334</ele><time>2026-05-01T15:40:51.869Z</time></trkpt><trkpt lat="43.6998382" lon="7.0437884"><ele>120.66666666666666</ele><time>2026-05-01T15:40:52.869Z</time></trkpt><trkpt lat="43.6998928" lon="7.0435442"><ele>122.0</ele><time>2026-05-01T15:40:53.869Z</time></trkpt><trkpt lat="43.699951" lon="7.043278"><ele>122.0</ele><time>2026-05-01T15:40:54.869Z</time></trkpt><trkpt lat="43.699987" lon="7.0430161"><ele>122.0</ele><time>2026-05-01T15:40:55.869Z</time></trkpt><trkpt lat="43.7000248" lon="7.0427268"><ele>122.0</ele><time>2026-05-01T15:40:56.869Z</time></trkpt><trkpt lat="43.7000352" lon="7.0424851"><ele>121.25</ele><time>2026-05-01T15:40:57.869Z</time></trkpt><trkpt lat="43.7000259" lon="7.0423168"><ele>120.5</ele><time>2026-05-01T15:40:58.869Z</time></trkpt><trkpt lat="43.6999988" lon="7.0421326"><ele>119.75</ele><time>2026-05-01T15:40:59.869Z</time></trkpt><trkpt lat="43.6999854" lon="7.0419599"><ele>119.0</ele><time>2026-05-01T15:41:00.869Z</time></trkpt><trkpt lat="43.69992" lon="7.0417418"><ele>117.66666666666666</ele><time>2026-05-01T15:41:01.869Z</time></trkpt><trkpt lat="43.6998442" lon="7.0415256"><ele>116.33333333333334</ele><time>2026-05-01T15:41:02.869Z</time></trkpt><trkpt lat="43.6997964" lon="7.0413019"><ele>115.0</ele><time>2026-05-01T15:41:03.869Z</time></trkpt><trkpt lat="43.699796" lon="7.0411086"><ele>115.0</ele><time>2026-05-01T15:41:04.869Z</time></trkpt><trkpt lat="43.6997889" lon="7.0409276"><ele>115.0</ele><time>2026-05-01T15:41:05.869Z</time></trkpt><trkpt lat="43.6998124" lon="7.0408252"><ele>115.0</ele><time>2026-05-01T15:41:06.869Z</time></trkpt><trkpt lat="43.6998797" lon="7.0406671"><ele>115.0</ele><time>2026-05-01T15:41:07.869Z</time></trkpt><trkpt lat="43.6999477" lon="7.0405441"><ele>111.66666666666667</ele><time>2026-05-01T15:41:08.869Z</time></trkpt><trkpt lat="43.7000601" lon="7.0403349"><ele>108.33333333333334</ele><time>2026-05-01T15:41:09.869Z</time></trkpt><trkpt lat="43.7001786" lon="7.040161"><ele>105.0</ele><time>2026-05-01T15:41:10.869Z</time></trkpt><trkpt lat="43.7002494" lon="7.0399857"><ele>108.33333333333334</ele><time>2026-05-01T15:41:11.869Z</time></trkpt><trkpt lat="43.7003342" lon="7.0398352"><ele>111.66666666666667</ele><time>2026-05-01T15:41:12.869Z</time></trkpt><trkpt lat="43.7004244" lon="7.0396505"><ele>115.0</ele><time>2026-05-01T15:41:13.869Z</time></trkpt><trkpt lat="43.7005164" lon="7.039375"><ele>115.0</ele><time>2026-05-01T15:41:14.869Z</time></trkpt><trkpt lat="43.7005933" lon="7.0391381"><ele>115.0</ele><time>2026-05-01T15:41:15.869Z</time></trkpt><trkpt lat="43.7006659" lon="7.0388951"><ele>115.0</ele><time>2026-05-01T15:41:16.869Z</time></trkpt><trkpt lat="43.7007106" lon="7.0386478"><ele>115.33333333333334</ele><time>2026-05-01T15:41:17.869Z</time></trkpt><trkpt lat="43.7007273" lon="7.0383773"><ele>115.66666666666666</ele><time>2026-05-01T15:41:18.87Z</time></trkpt><trkpt lat="43.7007767" lon="7.0381405"><ele>116.0</ele><time>2026-05-01T15:41:19.87Z</time></trkpt><trkpt lat="43.7007808" lon="7.037907"><ele>118.0</ele><time>2026-05-01T15:41:20.869Z</time></trkpt><trkpt lat="43.7008169" lon="7.0376855"><ele>120.0</ele><time>2026-05-01T15:41:21.869Z</time></trkpt><trkpt lat="43.7008726" lon="7.037464"><ele>122.0</ele><time>2026-05-01T15:41:22.869Z</time></trkpt><trkpt lat="43.7008842" lon="7.0372562"><ele>122.0</ele><time>2026-05-01T15:41:23.869Z</time></trkpt><trkpt lat="43.7008892" lon="7.0371212"><ele>122.0</ele><time>2026-05-01T15:41:24.869Z</time></trkpt><trkpt lat="43.7008721" lon="7.0369099"><ele>122.0</ele><time>2026-05-01T15:41:25.869Z</time></trkpt><trkpt lat="43.700821" lon="7.0366552"><ele>122.0</ele><time>2026-05-01T15:41:26.87Z</time></trkpt><trkpt lat="43.7007428" lon="7.0364656"><ele>120.5</ele><time>2026-05-01T15:41:27.869Z</time></trkpt><trkpt lat="43.7007137" lon="7.0363009"><ele>119.0</ele><time>2026-05-01T15:41:28.869Z</time></trkpt><trkpt lat="43.7006858" lon="7.0361478"><ele>117.5</ele><time>2026-05-01T15:41:29.869Z</time></trkpt><trkpt lat="43.7006981" lon="7.0360041"><ele>116.0</ele><time>2026-05-01T15:41:30.869Z</time></trkpt><trkpt lat="43.7007559" lon="7.0358418"><ele>117.0</ele><time>2026-05-01T15:41:31.869Z</time></trkpt><trkpt lat="43.7007927" lon="7.0356999"><ele>118.0</ele><time>2026-05-01T15:41:32.87Z</time></trkpt><trkpt lat="43.7008732" lon="7.0355187"><ele>119.0</ele><time>2026-05-01T15:41:33.869Z</time></trkpt><trkpt lat="43.7009772" lon="7.0352639"><ele>119.0</ele><time>2026-05-01T15:41:34.869Z</time></trkpt><trkpt lat="43.7010732" lon="7.0350609"><ele>119.0</ele><time>2026-05-01T15:41:35.869Z</time></trkpt><trkpt lat="43.7010951" lon="7.0348102"><ele>119.0</ele><time>2026-05-01T15:41:36.869Z</time></trkpt><trkpt lat="43.7011126" lon="7.0345466"><ele>120.33333333333333</ele><time>2026-05-01T15:41:37.869Z</time></trkpt><trkpt lat="43.7011154" lon="7.0343282"><ele>121.66666666666666</ele><time>2026-05-01T15:41:38.869Z</time></trkpt><trkpt lat="43.7010802" lon="7.0340931"><ele>123.0</ele><time>2026-05-01T15:41:39.869Z</time></trkpt><trkpt lat="43.7010706" lon="7.0338481"><ele>123.0</ele><time>2026-05-01T15:41:40.869Z</time></trkpt><trkpt lat="43.700988" lon="7.0335412"><ele>123.0</ele><time>2026-05-01T15:41:41.869Z</time></trkpt><trkpt lat="43.7009532" lon="7.0333269"><ele>123.0</ele><time>2026-05-01T15:41:42.869Z</time></trkpt><trkpt lat="43.7009123" lon="7.0330755"><ele>123.0</ele><time>2026-05-01T15:41:43.869Z</time></trkpt><trkpt lat="43.7008489" lon="7.0328152"><ele>123.0</ele><time>2026-05-01T15:41:44.869Z</time></trkpt><trkpt lat="43.7007832" lon="7.0324942"><ele>123.0</ele><time>2026-05-01T15:41:45.869Z</time></trkpt><trkpt lat="43.7007106" lon="7.0322621"><ele>123.66666666666666</ele><time>2026-05-01T15:41:46.869Z</time></trkpt><trkpt lat="43.7007108" lon="7.0320329"><ele>124.33333333333333</ele><time>2026-05-01T15:41:47.869Z</time></trkpt><trkpt lat="43.7006367" lon="7.0317881"><ele>125.0</ele><time>2026-05-01T15:41:48.869Z</time></trkpt><trkpt lat="43.7006262" lon="7.0315599"><ele>126.66666666666666</ele><time>2026-05-01T15:41:49.869Z</time></trkpt><trkpt lat="43.7005705" lon="7.0312947"><ele>128.33333333333334</ele><time>2026-05-01T15:41:50.869Z</time></trkpt><trkpt lat="43.7005354" lon="7.0309831"><ele>130.0</ele><time>2026-05-01T15:41:51.869Z</time></trkpt><trkpt lat="43.7004772" lon="7.0306791"><ele>131.66666666666669</ele><time>2026-05-01T15:41:52.869Z</time></trkpt><trkpt lat="43.7004012" lon="7.0304295"><ele>133.33333333333334</ele><time>2026-05-01T15:41:53.869Z</time></trkpt><trkpt lat="43.7003442" lon="7.0302385"><ele>135.0</ele><time>2026-05-01T15:41:54.869Z</time></trkpt><trkpt lat="43.7002944" lon="7.0300705"><ele>135.75</ele><time>2026-05-01T15:41:55.869Z</time></trkpt><trkpt lat="43.7002946" lon="7.0299321"><ele>136.5</ele><time>2026-05-01T15:41:56.869Z</time></trkpt><trkpt lat="43.7002728" lon="7.0297725"><ele>137.25</ele><time>2026-05-01T15:41:57.869Z</time></trkpt><trkpt lat="43.7002555" lon="7.0296113"><ele>138.0</ele><time>2026-05-01T15:41:58.869Z</time></trkpt><trkpt lat="43.7002543" lon="7.0294046"><ele>139.25</ele><time>2026-05-01T15:42:00.869Z</time></trkpt><trkpt lat="43.7002377" lon="7.0292543"><ele>140.5</ele><time>2026-05-01T15:42:01.869Z</time></trkpt><trkpt lat="43.7002702" lon="7.0291064"><ele>141.75</ele><time>2026-05-01T15:42:02.869Z</time></trkpt><trkpt lat="43.7003039" lon="7.0289598"><ele>143.0</ele><time>2026-05-01T15:42:03.869Z</time></trkpt><trkpt lat="43.7003524" lon="7.0288094"><ele>143.0</ele><time>2026-05-01T15:42:04.869Z</time></trkpt><trkpt lat="43.7003776" lon="7.0286676"><ele>143.0</ele><time>2026-05-01T15:42:05.869Z</time></trkpt><trkpt lat="43.7003823" lon="7.0285169"><ele>143.0</ele><time>2026-05-01T15:42:06.869Z</time></trkpt><trkpt lat="43.7003787" lon="7.0283625"><ele>143.0</ele><time>2026-05-01T15:42:07.869Z</time></trkpt><trkpt lat="43.7003529" lon="7.0282139"><ele>143.0</ele><time>2026-05-01T15:42:08.87Z</time></trkpt><trkpt lat="43.7003168" lon="7.0280943"><ele>144.5</ele><time>2026-05-01T15:42:09.869Z</time></trkpt><trkpt lat="43.7002699" lon="7.0279753"><ele>146.0</ele><time>2026-05-01T15:42:10.869Z</time></trkpt><trkpt lat="43.7002182" lon="7.0278359"><ele>147.5</ele><time>2026-05-01T15:42:11.869Z</time></trkpt><trkpt lat="43.7001355" lon="7.0277123"><ele>149.0</ele><time>2026-05-01T15:42:12.87Z</time></trkpt><trkpt lat="43.7000099" lon="7.0275445"><ele>148.33333333333331</ele><time>2026-05-01T15:42:13.869Z</time></trkpt><trkpt lat="43.6999055" lon="7.0273953"><ele>147.66666666666666</ele><time>2026-05-01T15:42:14.869Z</time></trkpt><trkpt lat="43.6997525" lon="7.0271991"><ele>147.0</ele><time>2026-05-01T15:42:15.87Z</time></trkpt><trkpt lat="43.6996471" lon="7.0270782"><ele>147.0</ele><time>2026-05-01T15:42:16.869Z</time></trkpt><trkpt lat="43.6995024" lon="7.0269393"><ele>147.0</ele><time>2026-05-01T15:42:17.869Z</time></trkpt><trkpt lat="43.6993512" lon="7.0267634"><ele>147.0</ele><time>2026-05-01T15:42:18.869Z</time></trkpt><trkpt lat="43.6992119" lon="7.0265411"><ele>143.33333333333334</ele><time>2026-05-01T15:42:19.869Z</time></trkpt><trkpt lat="43.699078" lon="7.0263347"><ele>139.66666666666669</ele><time>2026-05-01T15:42:20.869Z</time></trkpt><trkpt lat="43.698949" lon="7.0261101"><ele>136.0</ele><time>2026-05-01T15:42:21.869Z</time></trkpt><trkpt lat="43.698807" lon="7.0259008"><ele>132.0</ele><time>2026-05-01T15:42:22.869Z</time></trkpt><trkpt lat="43.6986874" lon="7.0256882"><ele>128.0</ele><time>2026-05-01T15:42:23.869Z</time></trkpt><trkpt lat="43.6986023" lon="7.0255034"><ele>124.0</ele><time>2026-05-01T15:42:24.869Z</time></trkpt><trkpt lat="43.6985287" lon="7.0252901"><ele>124.0</ele><time>2026-05-01T15:42:25.869Z</time></trkpt><trkpt lat="43.6984582" lon="7.0250702"><ele>124.0</ele><time>2026-05-01T15:42:26.869Z</time></trkpt><trkpt lat="43.6983789" lon="7.024836"><ele>124.0</ele><time>2026-05-01T15:42:27.869Z</time></trkpt><trkpt lat="43.6983082" lon="7.0246205"><ele>126.33333333333334</ele><time>2026-05-01T15:42:28.869Z</time></trkpt><trkpt lat="43.6982212" lon="7.0244066"><ele>128.66666666666666</ele><time>2026-05-01T15:42:29.869Z</time></trkpt><trkpt lat="43.6981392" lon="7.024153"><ele>131.0</ele><time>2026-05-01T15:42:30.869Z</time></trkpt><trkpt lat="43.6980683" lon="7.0239459"><ele>131.0</ele><time>2026-05-01T15:42:31.869Z</time></trkpt><trkpt lat="43.6980106" lon="7.0237009"><ele>131.0</ele><time>2026-05-01T15:42:32.869Z</time></trkpt><trkpt lat="43.6979567" lon="7.0234705"><ele>131.0</ele><time>2026-05-01T15:42:33.869Z</time></trkpt><trkpt lat="43.6979526" lon="7.0232558"><ele>130.33333333333331</ele><time>2026-05-01T15:42:34.869Z</time></trkpt><trkpt lat="43.6979583" lon="7.0230252"><ele>129.66666666666666</ele><time>2026-05-01T15:42:35.869Z</time></trkpt><trkpt lat="43.6980028" lon="7.0227811"><ele>129.0</ele><time>2026-05-01T15:42:36.869Z</time></trkpt><trkpt lat="43.6980318" lon="7.0225472"><ele>131.33333333333334</ele><time>2026-05-01T15:42:37.869Z</time></trkpt><trkpt lat="43.6980899" lon="7.0223254"><ele>133.66666666666669</ele><time>2026-05-01T15:42:38.869Z</time></trkpt><trkpt lat="43.6981271" lon="7.0220994"><ele>136.0</ele><time>2026-05-01T15:42:39.869Z</time></trkpt><trkpt lat="43.6981534" lon="7.0218559"><ele>138.33333333333334</ele><time>2026-05-01T15:42:40.869Z</time></trkpt><trkpt lat="43.6981565" lon="7.0216076"><ele>140.66666666666666</ele><time>2026-05-01T15:42:41.869Z</time></trkpt><trkpt lat="43.6981171" lon="7.0213638"><ele>143.0</ele><time>2026-05-01T15:42:42.869Z</time></trkpt><trkpt lat="43.6981088" lon="7.0211393"><ele>143.0</ele><time>2026-05-01T15:42:43.87Z</time></trkpt><trkpt lat="43.6980646" lon="7.0209027"><ele>143.0</ele><time>2026-05-01T15:42:44.869Z</time></trkpt><trkpt lat="43.6980302" lon="7.0206383"><ele>143.0</ele><time>2026-05-01T15:42:45.869Z</time></trkpt><trkpt lat="43.6979438" lon="7.0204395"><ele>145.0</ele><time>2026-05-01T15:42:46.869Z</time></trkpt><trkpt lat="43.6979089" lon="7.0201971"><ele>147.0</ele><time>2026-05-01T15:42:47.869Z</time></trkpt><trkpt lat="43.6979105" lon="7.019959"><ele>149.0</ele><time>2026-05-01T15:42:48.869Z</time></trkpt><trkpt lat="43.6978844" lon="7.0196884"><ele>149.0</ele><time>2026-05-01T15:42:49.869Z</time></trkpt><trkpt lat="43.6978427" lon="7.0194459"><ele>149.0</ele><time>2026-05-01T15:42:50.869Z</time></trkpt><trkpt lat="43.6978013" lon="7.0191536"><ele>149.0</ele><time>2026-05-01T15:42:51.869Z</time></trkpt><trkpt lat="43.6977813" lon="7.0189386"><ele>149.66666666666666</ele><time>2026-05-01T15:42:52.869Z</time></trkpt><trkpt lat="43.6977564" lon="7.0187089"><ele>150.33333333333334</ele><time>2026-05-01T15:42:53.869Z</time></trkpt><trkpt lat="43.6977622" lon="7.0185088"><ele>151.0</ele><time>2026-05-01T15:42:54.869Z</time></trkpt><trkpt lat="43.697728" lon="7.0182599"><ele>150.0</ele><time>2026-05-01T15:42:55.869Z</time></trkpt><trkpt lat="43.6977388" lon="7.0180441"><ele>149.0</ele><time>2026-05-01T15:42:56.869Z</time></trkpt><trkpt lat="43.697779" lon="7.0178453"><ele>148.0</ele><time>2026-05-01T15:42:57.869Z</time></trkpt><trkpt lat="43.6978125" lon="7.0176585"><ele>147.0</ele><time>2026-05-01T15:42:58.869Z</time></trkpt><trkpt lat="43.6978462" lon="7.017497"><ele>145.0</ele><time>2026-05-01T15:42:59.869Z</time></trkpt><trkpt lat="43.6979323" lon="7.0173021"><ele>143.0</ele><time>2026-05-01T15:43:00.869Z</time></trkpt><trkpt lat="43.6980491" lon="7.0170894"><ele>141.0</ele><time>2026-05-01T15:43:01.869Z</time></trkpt><trkpt lat="43.6981491" lon="7.0169227"><ele>141.0</ele><time>2026-05-01T15:43:02.869Z</time></trkpt><trkpt lat="43.6982165" lon="7.0167839"><ele>141.0</ele><time>2026-05-01T15:43:03.869Z</time></trkpt><trkpt lat="43.6982926" lon="7.0165898"><ele>141.0</ele><time>2026-05-01T15:43:04.869Z</time></trkpt><trkpt lat="43.6983567" lon="7.0164092"><ele>141.0</ele><time>2026-05-01T15:43:05.869Z</time></trkpt><trkpt lat="43.6983963" lon="7.0161835"><ele>141.0</ele><time>2026-05-01T15:43:06.869Z</time></trkpt><trkpt lat="43.6983791" lon="7.0158968"><ele>141.0</ele><time>2026-05-01T15:43:07.869Z</time></trkpt><trkpt lat="43.698383" lon="7.0156603"><ele>141.0</ele><time>2026-05-01T15:43:08.869Z</time></trkpt><trkpt lat="43.6984205" lon="7.0154085"><ele>141.0</ele><time>2026-05-01T15:43:09.869Z</time></trkpt><trkpt lat="43.6984176" lon="7.015188"><ele>141.0</ele><time>2026-05-01T15:43:10.869Z</time></trkpt><trkpt lat="43.6984363" lon="7.0149543"><ele>141.0</ele><time>2026-05-01T15:43:11.869Z</time></trkpt><trkpt lat="43.6984289" lon="7.0147144"><ele>141.0</ele><time>2026-05-01T15:43:12.869Z</time></trkpt><trkpt lat="43.6984581" lon="7.0145041"><ele>141.0</ele><time>2026-05-01T15:43:13.869Z</time></trkpt><trkpt lat="43.6984745" lon="7.0142905"><ele>141.0</ele><time>2026-05-01T15:43:14.869Z</time></trkpt><trkpt lat="43.6984971" lon="7.0140898"><ele>141.0</ele><time>2026-05-01T15:43:15.869Z</time></trkpt><trkpt lat="43.698506" lon="7.0138851"><ele>141.0</ele><time>2026-05-01T15:43:16.869Z</time></trkpt><trkpt lat="43.6985222" lon="7.013615"><ele>141.0</ele><time>2026-05-01T15:43:17.869Z</time></trkpt><trkpt lat="43.6985248" lon="7.0134149"><ele>140.5</ele><time>2026-05-01T15:43:18.869Z</time></trkpt><trkpt lat="43.6985327" lon="7.0132397"><ele>140.0</ele><time>2026-05-01T15:43:19.869Z</time></trkpt><trkpt lat="43.6985406" lon="7.0130019"><ele>139.5</ele><time>2026-05-01T15:43:20.869Z</time></trkpt><trkpt lat="43.6985916" lon="7.0128265"><ele>139.0</ele><time>2026-05-01T15:43:21.869Z</time></trkpt><trkpt lat="43.6986239" lon="7.0125996"><ele>147.0</ele><time>2026-05-01T15:43:22.869Z</time></trkpt><trkpt lat="43.6986774" lon="7.0122716"><ele>155.0</ele><time>2026-05-01T15:43:23.869Z</time></trkpt><trkpt lat="43.6987388" lon="7.0120227"><ele>163.0</ele><time>2026-05-01T15:43:24.869Z</time></trkpt><trkpt lat="43.6987936" lon="7.0117842"><ele>161.66666666666669</ele><time>2026-05-01T15:43:25.869Z</time></trkpt><trkpt lat="43.6988442" lon="7.0115692"><ele>160.33333333333334</ele><time>2026-05-01T15:43:26.869Z</time></trkpt><trkpt lat="43.6989055" lon="7.0113565"><ele>159.0</ele><time>2026-05-01T15:43:27.869Z</time></trkpt><trkpt lat="43.6989426" lon="7.0111342"><ele>159.0</ele><time>2026-05-01T15:43:28.866Z</time></trkpt><trkpt lat="43.6989875" lon="7.0109184"><ele>159.0</ele><time>2026-05-01T15:43:29.869Z</time></trkpt><trkpt lat="43.6990304" lon="7.0107255"><ele>159.0</ele><time>2026-05-01T15:43:30.869Z</time></trkpt><trkpt lat="43.6990252" lon="7.0104982"><ele>157.66666666666666</ele><time>2026-05-01T15:43:31.869Z</time></trkpt><trkpt lat="43.6990175" lon="7.0103107"><ele>156.33333333333331</ele><time>2026-05-01T15:43:32.869Z</time></trkpt><trkpt lat="43.6989658" lon="7.010082"><ele>155.0</ele><time>2026-05-01T15:43:33.869Z</time></trkpt><trkpt lat="43.6989331" lon="7.0098505"><ele>154.5</ele><time>2026-05-01T15:43:34.869Z</time></trkpt><trkpt lat="43.698913" lon="7.0096381"><ele>154.0</ele><time>2026-05-01T15:43:35.869Z</time></trkpt><trkpt lat="43.6988948" lon="7.0094383"><ele>153.5</ele><time>2026-05-01T15:43:36.869Z</time></trkpt><trkpt lat="43.6989023" lon="7.0092407"><ele>153.0</ele><time>2026-05-01T15:43:37.869Z</time></trkpt><trkpt lat="43.6989572" lon="7.0090258"><ele>151.0</ele><time>2026-05-01T15:43:38.869Z</time></trkpt><trkpt lat="43.6990323" lon="7.0088526"><ele>149.0</ele><time>2026-05-01T15:43:39.869Z</time></trkpt><trkpt lat="43.6991336" lon="7.008666"><ele>147.0</ele><time>2026-05-01T15:43:40.869Z</time></trkpt><trkpt lat="43.6992143" lon="7.008463"><ele>145.25</ele><time>2026-05-01T15:43:41.869Z</time></trkpt><trkpt lat="43.6992799" lon="7.0082828"><ele>143.5</ele><time>2026-05-01T15:43:42.869Z</time></trkpt><trkpt lat="43.6993635" lon="7.0080963"><ele>141.75</ele><time>2026-05-01T15:43:43.87Z</time></trkpt><trkpt lat="43.6994788" lon="7.0079962"><ele>140.0</ele><time>2026-05-01T15:43:44.869Z</time></trkpt><trkpt lat="43.6995962" lon="7.007888"><ele>144.66666666666666</ele><time>2026-05-01T15:43:45.869Z</time></trkpt><trkpt lat="43.6997286" lon="7.0077592"><ele>149.33333333333334</ele><time>2026-05-01T15:43:46.869Z</time></trkpt><trkpt lat="43.6998566" lon="7.0076501"><ele>154.0</ele><time>2026-05-01T15:43:47.869Z</time></trkpt><trkpt lat="43.6999731" lon="7.0075121"><ele>151.66666666666669</ele><time>2026-05-01T15:43:48.869Z</time></trkpt><trkpt lat="43.7000992" lon="7.0073583"><ele>149.33333333333334</ele><time>2026-05-01T15:43:49.869Z</time></trkpt><trkpt lat="43.7001822" lon="7.0071811"><ele>147.0</ele><time>2026-05-01T15:43:50.869Z</time></trkpt><trkpt lat="43.7002844" lon="7.0070037"><ele>150.66666666666666</ele><time>2026-05-01T15:43:51.869Z</time></trkpt><trkpt lat="43.7003886" lon="7.0068138"><ele>154.33333333333331</ele><time>2026-05-01T15:43:52.869Z</time></trkpt><trkpt lat="43.7004724" lon="7.006636"><ele>158.0</ele><time>2026-05-01T15:43:53.87Z</time></trkpt><trkpt lat="43.7005598" lon="7.0064278"><ele>158.0</ele><time>2026-05-01T15:43:54.869Z</time></trkpt><trkpt lat="43.700664" lon="7.0062524"><ele>158.0</ele><time>2026-05-01T15:43:55.869Z</time></trkpt><trkpt lat="43.7007821" lon="7.0060668"><ele>158.0</ele><time>2026-05-01T15:43:56.869Z</time></trkpt><trkpt lat="43.7008897" lon="7.0059056"><ele>159.66666666666666</ele><time>2026-05-01T15:43:57.87Z</time></trkpt><trkpt lat="43.7010179" lon="7.0056981"><ele>161.33333333333334</ele><time>2026-05-01T15:43:58.869Z</time></trkpt><trkpt lat="43.7011273" lon="7.0055104"><ele>163.0</ele><time>2026-05-01T15:43:59.87Z</time></trkpt><trkpt lat="43.7012517" lon="7.0053278"><ele>163.0</ele><time>2026-05-01T15:44:00.869Z</time></trkpt><trkpt lat="43.7013507" lon="7.0051171"><ele>163.0</ele><time>2026-05-01T15:44:01.869Z</time></trkpt><trkpt lat="43.7014469" lon="7.0049467"><ele>163.0</ele><time>2026-05-01T15:44:02.869Z</time></trkpt><trkpt lat="43.7015487" lon="7.0047426"><ele>159.33333333333334</ele><time>2026-05-01T15:44:03.869Z</time></trkpt><trkpt lat="43.7016659" lon="7.0045474"><ele>155.66666666666666</ele><time>2026-05-01T15:44:04.869Z</time></trkpt><trkpt lat="43.7017869" lon="7.0043568"><ele>152.0</ele><time>2026-05-01T15:44:05.87Z</time></trkpt><trkpt lat="43.701884" lon="7.0041394"><ele>154.66666666666666</ele><time>2026-05-01T15:44:06.869Z</time></trkpt><trkpt lat="43.7019915" lon="7.0039477"><ele>157.33333333333334</ele><time>2026-05-01T15:44:07.869Z</time></trkpt><trkpt lat="43.702083" lon="7.0037476"><ele>160.0</ele><time>2026-05-01T15:44:08.869Z</time></trkpt><trkpt lat="43.7021629" lon="7.003568"><ele>160.0</ele><time>2026-05-01T15:44:09.869Z</time></trkpt><trkpt lat="43.7022535" lon="7.0034073"><ele>160.0</ele><time>2026-05-01T15:44:10.869Z</time></trkpt><trkpt lat="43.7023497" lon="7.0032646"><ele>160.0</ele><time>2026-05-01T15:44:11.869Z</time></trkpt><trkpt lat="43.7024487" lon="7.0030954"><ele>160.0</ele><time>2026-05-01T15:44:12.869Z</time></trkpt><trkpt lat="43.7025382" lon="7.0029544"><ele>161.25</ele><time>2026-05-01T15:44:13.869Z</time></trkpt><trkpt lat="43.7026308" lon="7.0028142"><ele>162.5</ele><time>2026-05-01T15:44:14.869Z</time></trkpt><trkpt lat="43.70275" lon="7.0026859"><ele>163.75</ele><time>2026-05-01T15:44:15.869Z</time></trkpt><trkpt lat="43.7028685" lon="7.0026071"><ele>165.0</ele><time>2026-05-01T15:44:16.869Z</time></trkpt><trkpt lat="43.7029932" lon="7.0025392"><ele>162.5</ele><time>2026-05-01T15:44:17.869Z</time></trkpt><trkpt lat="43.7031377" lon="7.00246"><ele>160.0</ele><time>2026-05-01T15:44:18.869Z</time></trkpt><trkpt lat="43.7032172" lon="7.0023183"><ele>157.5</ele><time>2026-05-01T15:44:19.869Z</time></trkpt><trkpt lat="43.7033015" lon="7.0022448"><ele>155.0</ele><time>2026-05-01T15:44:20.869Z</time></trkpt><trkpt lat="43.7033735" lon="7.0021133"><ele>155.0</ele><time>2026-05-01T15:44:21.869Z</time></trkpt><trkpt lat="43.7034384" lon="7.0019812"><ele>155.0</ele><time>2026-05-01T15:44:22.869Z</time></trkpt><trkpt lat="43.70351" lon="7.0017443"><ele>155.0</ele><time>2026-05-01T15:44:23.869Z</time></trkpt><trkpt lat="43.7035696" lon="7.0015666"><ele>155.0</ele><time>2026-05-01T15:44:24.869Z</time></trkpt><trkpt lat="43.7036433" lon="7.0014034"><ele>155.25</ele><time>2026-05-01T15:44:25.869Z</time></trkpt><trkpt lat="43.7037041" lon="7.0012936"><ele>155.5</ele><time>2026-05-01T15:44:26.869Z</time></trkpt><trkpt lat="43.703802" lon="7.0011688"><ele>155.75</ele><time>2026-05-01T15:44:27.869Z</time></trkpt><trkpt lat="43.703903" lon="7.0010231"><ele>156.0</ele><time>2026-05-01T15:44:28.869Z</time></trkpt><trkpt lat="43.7040476" lon="7.0009474"><ele>156.0</ele><time>2026-05-01T15:44:29.869Z</time></trkpt><trkpt lat="43.7041624" lon="7.0008924"><ele>156.0</ele><time>2026-05-01T15:44:30.869Z</time></trkpt><trkpt lat="43.7042966" lon="7.0008512"><ele>156.0</ele><time>2026-05-01T15:44:31.869Z</time></trkpt><trkpt lat="43.7044256" lon="7.0008768"><ele>156.0</ele><time>2026-05-01T15:44:32.869Z</time></trkpt><trkpt lat="43.7045568" lon="7.0009127"><ele>157.33333333333334</ele><time>2026-05-01T15:44:33.869Z</time></trkpt><trkpt lat="43.7047334" lon="7.0009725"><ele>158.66666666666669</ele><time>2026-05-01T15:44:34.869Z</time></trkpt><trkpt lat="43.7049095" lon="7.0010019"><ele>160.0</ele><time>2026-05-01T15:44:35.869Z</time></trkpt><trkpt lat="43.7050505" lon="7.0010911"><ele>160.0</ele><time>2026-05-01T15:44:36.869Z</time></trkpt><trkpt lat="43.7051883" lon="7.00105"><ele>160.0</ele><time>2026-05-01T15:44:37.869Z</time></trkpt><trkpt lat="43.7053159" lon="7.0010045"><ele>160.0</ele><time>2026-05-01T15:44:38.869Z</time></trkpt><trkpt lat="43.7054062" lon="7.000855"><ele>160.0</ele><time>2026-05-01T15:44:39.869Z</time></trkpt><trkpt lat="43.7055" lon="7.0006657"><ele>160.0</ele><time>2026-05-01T15:44:40.869Z</time></trkpt><trkpt lat="43.7055984" lon="7.000532"><ele>160.0</ele><time>2026-05-01T15:44:41.869Z</time></trkpt><trkpt lat="43.7056899" lon="7.0004099"><ele>160.0</ele><time>2026-05-01T15:44:42.869Z</time></trkpt><trkpt lat="43.7057945" lon="7.0003187"><ele>160.0</ele><time>2026-05-01T15:44:43.869Z</time></trkpt><trkpt lat="43.7059034" lon="7.0002714"><ele>160.0</ele><time>2026-05-01T15:44:44.869Z</time></trkpt><trkpt lat="43.7060369" lon="7.0002005"><ele>160.0</ele><time>2026-05-01T15:44:45.869Z</time></trkpt><trkpt lat="43.7061955" lon="7.0001332"><ele>160.0</ele><time>2026-05-01T15:44:46.869Z</time></trkpt><trkpt lat="43.7063387" lon="7.0000645"><ele>165.33333333333334</ele><time>2026-05-01T15:44:47.869Z</time></trkpt><trkpt lat="43.7064819" lon="6.9999636"><ele>170.66666666666666</ele><time>2026-05-01T15:44:48.869Z</time></trkpt><trkpt lat="43.7066373" lon="6.99982"><ele>176.0</ele><time>2026-05-01T15:44:49.869Z</time></trkpt><trkpt lat="43.7067711" lon="6.9996645"><ele>176.0</ele><time>2026-05-01T15:44:50.869Z</time></trkpt><trkpt lat="43.7069078" lon="6.9995383"><ele>176.0</ele><time>2026-05-01T15:44:51.869Z</time></trkpt><trkpt lat="43.7070334" lon="6.9993851"><ele>176.0</ele><time>2026-05-01T15:44:52.869Z</time></trkpt><trkpt lat="43.7071319" lon="6.9991792"><ele>178.0</ele><time>2026-05-01T15:44:53.869Z</time></trkpt><trkpt lat="43.7071986" lon="6.9989852"><ele>180.0</ele><time>2026-05-01T15:44:54.869Z</time></trkpt><trkpt lat="43.707237" lon="6.9987756"><ele>182.0</ele><time>2026-05-01T15:44:55.869Z</time></trkpt><trkpt lat="43.70725" lon="6.9985498"><ele>180.0</ele><time>2026-05-01T15:44:56.869Z</time></trkpt><trkpt lat="43.7072601" lon="6.9983165"><ele>178.0</ele><time>2026-05-01T15:44:57.869Z</time></trkpt><trkpt lat="43.7073061" lon="6.9981324"><ele>176.0</ele><time>2026-05-01T15:44:58.87Z</time></trkpt><trkpt lat="43.7073705" lon="6.9979401"><ele>176.0</ele><time>2026-05-01T15:44:59.869Z</time></trkpt><trkpt lat="43.7074435" lon="6.9977234"><ele>176.0</ele><time>2026-05-01T15:45:00.869Z</time></trkpt><trkpt lat="43.7075106" lon="6.9975929"><ele>176.0</ele><time>2026-05-01T15:45:01.869Z</time></trkpt><trkpt lat="43.7075556" lon="6.9974361"><ele>176.0</ele><time>2026-05-01T15:45:02.869Z</time></trkpt><trkpt lat="43.7076168" lon="6.9973523"><ele>173.75</ele><time>2026-05-01T15:45:03.869Z</time></trkpt><trkpt lat="43.7077089" lon="6.9972424"><ele>171.5</ele><time>2026-05-01T15:45:04.869Z</time></trkpt><trkpt lat="43.7078336" lon="6.9970377"><ele>169.25</ele><time>2026-05-01T15:45:05.869Z</time></trkpt><trkpt lat="43.7079501" lon="6.9969637"><ele>167.0</ele><time>2026-05-01T15:45:06.869Z</time></trkpt><trkpt lat="43.708063" lon="6.9968342"><ele>167.33333333333331</ele><time>2026-05-01T15:45:07.869Z</time></trkpt><trkpt lat="43.7082002" lon="6.9967255"><ele>167.66666666666666</ele><time>2026-05-01T15:45:08.869Z</time></trkpt><trkpt lat="43.708371" lon="6.9966246"><ele>168.0</ele><time>2026-05-01T15:45:09.869Z</time></trkpt><trkpt lat="43.7084851" lon="6.9964704"><ele>174.33333333333334</ele><time>2026-05-01T15:45:10.869Z</time></trkpt><trkpt lat="43.7086032" lon="6.9963362"><ele>180.66666666666669</ele><time>2026-05-01T15:45:11.869Z</time></trkpt><trkpt lat="43.7087289" lon="6.996173"><ele>187.0</ele><time>2026-05-01T15:45:12.869Z</time></trkpt><trkpt lat="43.70882" lon="6.9960334"><ele>187.0</ele><time>2026-05-01T15:45:13.869Z</time></trkpt><trkpt lat="43.708919" lon="6.9958569"><ele>187.0</ele><time>2026-05-01T15:45:14.87Z</time></trkpt><trkpt lat="43.7089995" lon="6.9956943"><ele>187.0</ele><time>2026-05-01T15:45:15.869Z</time></trkpt><trkpt lat="43.7090942" lon="6.9956028"><ele>187.0</ele><time>2026-05-01T15:45:16.869Z</time></trkpt><trkpt lat="43.7091967" lon="6.9954768"><ele>186.0</ele><time>2026-05-01T15:45:17.869Z</time></trkpt><trkpt lat="43.7093032" lon="6.9953681"><ele>185.0</ele><time>2026-05-01T15:45:18.869Z</time></trkpt><trkpt lat="43.709361" lon="6.9952816"><ele>184.0</ele><time>2026-05-01T15:45:19.869Z</time></trkpt><trkpt lat="43.7094216" lon="6.9950879"><ele>183.0</ele><time>2026-05-01T15:45:20.869Z</time></trkpt><trkpt lat="43.7094686" lon="6.9949475"><ele>183.0</ele><time>2026-05-01T15:45:21.869Z</time></trkpt><trkpt lat="43.7095209" lon="6.9947938"><ele>183.0</ele><time>2026-05-01T15:45:22.869Z</time></trkpt><trkpt lat="43.709597" lon="6.994642"><ele>183.0</ele><time>2026-05-01T15:45:23.87Z</time></trkpt><trkpt lat="43.7096734" lon="6.9945233"><ele>183.0</ele><time>2026-05-01T15:45:24.869Z</time></trkpt><trkpt lat="43.709783" lon="6.9943907"><ele>183.0</ele><time>2026-05-01T15:45:25.87Z</time></trkpt><trkpt lat="43.7099045" lon="6.9942132"><ele>183.0</ele><time>2026-05-01T15:45:26.869Z</time></trkpt><trkpt lat="43.7100223" lon="6.9940924"><ele>183.0</ele><time>2026-05-01T15:45:27.87Z</time></trkpt><trkpt lat="43.7101361" lon="6.9940542"><ele>183.0</ele><time>2026-05-01T15:45:28.869Z</time></trkpt><trkpt lat="43.7102603" lon="6.9939529"><ele>181.75</ele><time>2026-05-01T15:45:29.869Z</time></trkpt><trkpt lat="43.7103886" lon="6.9939074"><ele>180.5</ele><time>2026-05-01T15:45:30.869Z</time></trkpt><trkpt lat="43.7105139" lon="6.9938793"><ele>179.25</ele><time>2026-05-01T15:45:31.869Z</time></trkpt><trkpt lat="43.7106462" lon="6.9938202"><ele>178.0</ele><time>2026-05-01T15:45:32.869Z</time></trkpt><trkpt lat="43.7107915" lon="6.9938286"><ele>178.0</ele><time>2026-05-01T15:45:33.869Z</time></trkpt><trkpt lat="43.7109465" lon="6.99386"><ele>178.0</ele><time>2026-05-01T15:45:34.869Z</time></trkpt><trkpt lat="43.7111334" lon="6.9938736"><ele>178.0</ele><time>2026-05-01T15:45:35.869Z</time></trkpt><trkpt lat="43.7112828" lon="6.9938276"><ele>182.0</ele><time>2026-05-01T15:45:36.869Z</time></trkpt><trkpt lat="43.7114102" lon="6.9938329"><ele>186.0</ele><time>2026-05-01T15:45:37.869Z</time></trkpt><trkpt lat="43.7115897" lon="6.9938983"><ele>190.0</ele><time>2026-05-01T15:45:38.869Z</time></trkpt><trkpt lat="43.7117565" lon="6.9938949"><ele>190.0</ele><time>2026-05-01T15:45:39.869Z</time></trkpt><trkpt lat="43.7119016" lon="6.993884"><ele>190.0</ele><time>2026-05-01T15:45:40.869Z</time></trkpt><trkpt lat="43.7120516" lon="6.9938728"><ele>190.0</ele><time>2026-05-01T15:45:41.869Z</time></trkpt><trkpt lat="43.7121818" lon="6.9938939"><ele>190.0</ele><time>2026-05-01T15:45:42.869Z</time></trkpt><trkpt lat="43.712329" lon="6.9938441"><ele>194.33333333333334</ele><time>2026-05-01T15:45:43.869Z</time></trkpt><trkpt lat="43.7124742" lon="6.9937949"><ele>198.66666666666669</ele><time>2026-05-01T15:45:44.869Z</time></trkpt><trkpt lat="43.712597" lon="6.9936752"><ele>203.0</ele><time>2026-05-01T15:45:45.869Z</time></trkpt><trkpt lat="43.7127479" lon="6.9935843"><ele>200.75</ele><time>2026-05-01T15:45:46.869Z</time></trkpt><trkpt lat="43.7128662" lon="6.9935178"><ele>198.5</ele><time>2026-05-01T15:45:47.869Z</time></trkpt><trkpt lat="43.712983" lon="6.9934778"><ele>196.25</ele><time>2026-05-01T15:45:48.869Z</time></trkpt><trkpt lat="43.7131059" lon="6.993423"><ele>194.0</ele><time>2026-05-01T15:45:49.869Z</time></trkpt><trkpt lat="43.7132399" lon="6.993334"><ele>194.0</ele><time>2026-05-01T15:45:50.869Z</time></trkpt><trkpt lat="43.713363" lon="6.9932535"><ele>194.0</ele><time>2026-05-01T15:45:51.869Z</time></trkpt><trkpt lat="43.7135107" lon="6.993182"><ele>194.0</ele><time>2026-05-01T15:45:52.87Z</time></trkpt><trkpt lat="43.7136312" lon="6.9931164"><ele>194.0</ele><time>2026-05-01T15:45:53.869Z</time></trkpt><trkpt lat="43.7137469" lon="6.9930207"><ele>194.75</ele><time>2026-05-01T15:45:54.869Z</time></trkpt><trkpt lat="43.7138183" lon="6.992871"><ele>195.5</ele><time>2026-05-01T15:45:55.869Z</time></trkpt><trkpt lat="43.7139105" lon="6.9927477"><ele>196.25</ele><time>2026-05-01T15:45:56.869Z</time></trkpt><trkpt lat="43.7139921" lon="6.99261"><ele>197.0</ele><time>2026-05-01T15:45:57.869Z</time></trkpt><trkpt lat="43.7140778" lon="6.9924591"><ele>197.0</ele><time>2026-05-01T15:45:58.869Z</time></trkpt><trkpt lat="43.7141604" lon="6.9922841"><ele>197.0</ele><time>2026-05-01T15:45:59.869Z</time></trkpt><trkpt lat="43.7142231" lon="6.9921356"><ele>197.0</ele><time>2026-05-01T15:46:00.869Z</time></trkpt><trkpt lat="43.7143022" lon="6.9920074"><ele>197.0</ele><time>2026-05-01T15:46:01.869Z</time></trkpt><trkpt lat="43.7143974" lon="6.9918884"><ele>198.6</ele><time>2026-05-01T15:46:02.869Z</time></trkpt><trkpt lat="43.7144783" lon="6.9918342"><ele>200.2</ele><time>2026-05-01T15:46:03.869Z</time></trkpt><trkpt lat="43.7145555" lon="6.9918292"><ele>201.8</ele><time>2026-05-01T15:46:04.869Z</time></trkpt><trkpt lat="43.7146593" lon="6.9918305"><ele>203.4</ele><time>2026-05-01T15:46:05.869Z</time></trkpt><trkpt lat="43.7147553" lon="6.9918636"><ele>205.0</ele><time>2026-05-01T15:46:06.869Z</time></trkpt><trkpt lat="43.7148691" lon="6.9919565"><ele>205.0</ele><time>2026-05-01T15:46:07.869Z</time></trkpt><trkpt lat="43.7149595" lon="6.9920563"><ele>205.0</ele><time>2026-05-01T15:46:08.869Z</time></trkpt><trkpt lat="43.7150438" lon="6.9921063"><ele>205.0</ele><time>2026-05-01T15:46:09.869Z</time></trkpt><trkpt lat="43.7151653" lon="6.9921709"><ele>205.0</ele><time>2026-05-01T15:46:10.869Z</time></trkpt><trkpt lat="43.7152968" lon="6.9921918"><ele>203.75</ele><time>2026-05-01T15:46:11.869Z</time></trkpt><trkpt lat="43.7154143" lon="6.9922282"><ele>202.5</ele><time>2026-05-01T15:46:12.869Z</time></trkpt><trkpt lat="43.7155278" lon="6.9922376"><ele>201.25</ele><time>2026-05-01T15:46:13.869Z</time></trkpt><trkpt lat="43.7156608" lon="6.9922259"><ele>200.0</ele><time>2026-05-01T15:46:14.869Z</time></trkpt><trkpt lat="43.7157678" lon="6.9922653"><ele>200.0</ele><time>2026-05-01T15:46:15.869Z</time></trkpt><trkpt lat="43.7159265" lon="6.9923246"><ele>200.0</ele><time>2026-05-01T15:46:16.869Z</time></trkpt><trkpt lat="43.7160646" lon="6.9923821"><ele>200.0</ele><time>2026-05-01T15:46:17.869Z</time></trkpt><trkpt lat="43.7162065" lon="6.9924098"><ele>200.0</ele><time>2026-05-01T15:46:18.869Z</time></trkpt><trkpt lat="43.7163748" lon="6.9924466"><ele>200.0</ele><time>2026-05-01T15:46:19.869Z</time></trkpt><trkpt lat="43.7165144" lon="6.992436"><ele>200.0</ele><time>2026-05-01T15:46:20.869Z</time></trkpt><trkpt lat="43.7166237" lon="6.9923956"><ele>200.0</ele><time>2026-05-01T15:46:21.869Z</time></trkpt><trkpt lat="43.716728" lon="6.9922783"><ele>200.0</ele><time>2026-05-01T15:46:22.869Z</time></trkpt><trkpt lat="43.7168294" lon="6.9922049"><ele>200.0</ele><time>2026-05-01T15:46:23.869Z</time></trkpt><trkpt lat="43.7169464" lon="6.9920736"><ele>200.0</ele><time>2026-05-01T15:46:24.869Z</time></trkpt><trkpt lat="43.7170021" lon="6.9920308"><ele>200.0</ele><time>2026-05-01T15:46:25.869Z</time></trkpt><trkpt lat="43.7170568" lon="6.9919529"><ele>200.0</ele><time>2026-05-01T15:46:26.869Z</time></trkpt><trkpt lat="43.7171961" lon="6.991911"><ele>201.00000000000003</ele><time>2026-05-01T15:46:28.869Z</time></trkpt><trkpt lat="43.7172643" lon="6.9919067"><ele>202.0</ele><time>2026-05-01T15:46:29.869Z</time></trkpt><trkpt lat="43.7173287" lon="6.9919142"><ele>203.0</ele><time>2026-05-01T15:46:30.869Z</time></trkpt><trkpt lat="43.7174343" lon="6.9919558"><ele>204.0</ele><time>2026-05-01T15:46:32.869Z</time></trkpt><trkpt lat="43.7175022" lon="6.9919968"><ele>205.00000000000003</ele><time>2026-05-01T15:46:38.869Z</time></trkpt><trkpt lat="43.7175509" lon="6.9921247"><ele>206.0</ele><time>2026-05-01T15:46:41.869Z</time></trkpt><trkpt lat="43.7176135" lon="6.9922577"><ele>206.0</ele><time>2026-05-01T15:46:43.869Z</time></trkpt><trkpt lat="43.7176781" lon="6.9923703"><ele>206.0</ele><time>2026-05-01T15:46:44.869Z</time></trkpt><trkpt lat="43.7177421" lon="6.9924049"><ele>206.0</ele><time>2026-05-01T15:46:45.869Z</time></trkpt><trkpt lat="43.7178222" lon="6.9924378"><ele>206.0</ele><time>2026-05-01T15:46:46.869Z</time></trkpt><trkpt lat="43.7179441" lon="6.9924602"><ele>206.0</ele><time>2026-05-01T15:46:47.87Z</time></trkpt><trkpt lat="43.7180188" lon="6.9925573"><ele>207.66666666666669</ele><time>2026-05-01T15:46:48.869Z</time></trkpt><trkpt lat="43.7180913" lon="6.9926337"><ele>209.33333333333334</ele><time>2026-05-01T15:46:49.869Z</time></trkpt><trkpt lat="43.7181511" lon="6.9927106"><ele>211.0</ele><time>2026-05-01T15:46:50.869Z</time></trkpt><trkpt lat="43.7182274" lon="6.9927828"><ele>212.66666666666669</ele><time>2026-05-01T15:46:51.869Z</time></trkpt><trkpt lat="43.7182869" lon="6.9928431"><ele>214.33333333333334</ele><time>2026-05-01T15:46:52.869Z</time></trkpt><trkpt lat="43.7183517" lon="6.992926"><ele>216.0</ele><time>2026-05-01T15:46:53.869Z</time></trkpt><trkpt lat="43.7184133" lon="6.9929964"><ele>216.0</ele><time>2026-05-01T15:46:54.869Z</time></trkpt><trkpt lat="43.7184992" lon="6.993101"><ele>216.0</ele><time>2026-05-01T15:46:55.869Z</time></trkpt><trkpt lat="43.7186445" lon="6.9931735"><ele>216.0</ele><time>2026-05-01T15:46:56.869Z</time></trkpt><trkpt lat="43.7187525" lon="6.9932315"><ele>216.0</ele><time>2026-05-01T15:46:57.869Z</time></trkpt><trkpt lat="43.7188945" lon="6.9932946"><ele>221.5</ele><time>2026-05-01T15:46:58.869Z</time></trkpt><trkpt lat="43.719026" lon="6.9933489"><ele>227.0</ele><time>2026-05-01T15:46:59.869Z</time></trkpt><trkpt lat="43.7191539" lon="6.9933446"><ele>232.5</ele><time>2026-05-01T15:47:00.869Z</time></trkpt><trkpt lat="43.7193148" lon="6.9933609"><ele>238.0</ele><time>2026-05-01T15:47:01.869Z</time></trkpt><trkpt lat="43.7194442" lon="6.993394"><ele>238.0</ele><time>2026-05-01T15:47:02.869Z</time></trkpt><trkpt lat="43.7195612" lon="6.9934469"><ele>238.0</ele><time>2026-05-01T15:47:03.869Z</time></trkpt><trkpt lat="43.719694" lon="6.9934657"><ele>238.0</ele><time>2026-05-01T15:47:05.869Z</time></trkpt><trkpt lat="43.7197891" lon="6.9934967"><ele>238.0</ele><time>2026-05-01T15:47:06.869Z</time></trkpt><trkpt lat="43.7198786" lon="6.9934699"><ele>238.0</ele><time>2026-05-01T15:47:07.869Z</time></trkpt><trkpt lat="43.7199682" lon="6.9934453"><ele>237.99999999999997</ele><time>2026-05-01T15:47:08.869Z</time></trkpt><trkpt lat="43.7200845" lon="6.9934552"><ele>238.0</ele><time>2026-05-01T15:47:09.869Z</time></trkpt><trkpt lat="43.7201429" lon="6.9934218"><ele>238.0</ele><time>2026-05-01T15:47:10.869Z</time></trkpt><trkpt lat="43.7202001" lon="6.9934603"><ele>238.0</ele><time>2026-05-01T15:47:11.869Z</time></trkpt><trkpt lat="43.720242" lon="6.9935275"><ele>237.99999999999997</ele><time>2026-05-01T15:47:13.869Z</time></trkpt><trkpt lat="43.7201994" lon="6.9936952"><ele>238.0</ele><time>2026-05-01T15:47:15.869Z</time></trkpt><trkpt lat="43.7201934" lon="6.9937883"><ele>238.0</ele><time>2026-05-01T15:47:16.869Z</time></trkpt><trkpt lat="43.720159" lon="6.993958"><ele>238.0</ele><time>2026-05-01T15:47:17.87Z</time></trkpt><trkpt lat="43.720158" lon="6.9941386"><ele>238.0</ele><time>2026-05-01T15:47:18.869Z</time></trkpt><trkpt lat="43.7201663" lon="6.9943211"><ele>238.0</ele><time>2026-05-01T15:47:19.869Z</time></trkpt><trkpt lat="43.7201905" lon="6.9944715"><ele>244.75</ele><time>2026-05-01T15:47:20.869Z</time></trkpt><trkpt lat="43.7202614" lon="6.9946049"><ele>251.5</ele><time>2026-05-01T15:47:22.869Z</time></trkpt><trkpt lat="43.7203546" lon="6.9945941"><ele>258.25</ele><time>2026-05-01T15:47:23.869Z</time></trkpt><trkpt lat="43.7204653" lon="6.9945273"><ele>265.0</ele><time>2026-05-01T15:47:24.869Z</time></trkpt><trkpt lat="43.720602" lon="6.9944533"><ele>265.0</ele><time>2026-05-01T15:47:25.869Z</time></trkpt><trkpt lat="43.7207428" lon="6.9944151"><ele>265.0</ele><time>2026-05-01T15:47:26.869Z</time></trkpt><trkpt lat="43.7208651" lon="6.9943381"><ele>265.0</ele><time>2026-05-01T15:47:27.869Z</time></trkpt><trkpt lat="43.720951" lon="6.9942472"><ele>265.0</ele><time>2026-05-01T15:47:28.869Z</time></trkpt><trkpt lat="43.7210418" lon="6.9941411"><ele>262.25</ele><time>2026-05-01T15:47:29.869Z</time></trkpt><trkpt lat="43.7211148" lon="6.994049"><ele>259.5</ele><time>2026-05-01T15:47:30.869Z</time></trkpt><trkpt lat="43.7212096" lon="6.9938952"><ele>256.75</ele><time>2026-05-01T15:47:31.869Z</time></trkpt><trkpt lat="43.7213081" lon="6.9937527"><ele>254.0</ele><time>2026-05-01T15:47:32.869Z</time></trkpt><trkpt lat="43.7213947" lon="6.9935917"><ele>254.0</ele><time>2026-05-01T15:47:33.869Z</time></trkpt><trkpt lat="43.721544" lon="6.9935638"><ele>254.0</ele><time>2026-05-01T15:47:35.869Z</time></trkpt><trkpt lat="43.7216621" lon="6.9936595"><ele>254.0</ele><time>2026-05-01T15:47:36.869Z</time></trkpt><trkpt lat="43.7217574" lon="6.9937052"><ele>254.0</ele><time>2026-05-01T15:47:37.869Z</time></trkpt><trkpt lat="43.7218959" lon="6.9937811"><ele>250.75</ele><time>2026-05-01T15:47:38.869Z</time></trkpt><trkpt lat="43.7220348" lon="6.9938569"><ele>247.5</ele><time>2026-05-01T15:47:39.869Z</time></trkpt><trkpt lat="43.7221694" lon="6.9939229"><ele>244.25</ele><time>2026-05-01T15:47:40.869Z</time></trkpt><trkpt lat="43.7223023" lon="6.9940168"><ele>241.0</ele><time>2026-05-01T15:47:41.869Z</time></trkpt><trkpt lat="43.7224256" lon="6.994088"><ele>248.66666666666666</ele><time>2026-05-01T15:47:42.869Z</time></trkpt><trkpt lat="43.7226152" lon="6.994303"><ele>256.3333333333333</ele><time>2026-05-01T15:47:43.868Z</time></trkpt><trkpt lat="43.7227598" lon="6.994416"><ele>264.0</ele><time>2026-05-01T15:47:44.87Z</time></trkpt><trkpt lat="43.7229324" lon="6.9945425"><ele>264.0</ele><time>2026-05-01T15:47:45.87Z</time></trkpt><trkpt lat="43.7230881" lon="6.99468"><ele>264.0</ele><time>2026-05-01T15:47:46.869Z</time></trkpt><trkpt lat="43.7232374" lon="6.9947324"><ele>264.0</ele><time>2026-05-01T15:47:47.868Z</time></trkpt><trkpt lat="43.7233267" lon="6.9947317"><ele>264.0</ele><time>2026-05-01T15:47:48.869Z</time></trkpt><trkpt lat="43.7234057" lon="6.9947097"><ele>261.6666666666667</ele><time>2026-05-01T15:47:49.868Z</time></trkpt><trkpt lat="43.7235826" lon="6.9947486"><ele>259.33333333333337</ele><time>2026-05-01T15:47:50.868Z</time></trkpt><trkpt lat="43.7237178" lon="6.9947637"><ele>257.0</ele><time>2026-05-01T15:47:51.868Z</time></trkpt><trkpt lat="43.7238567" lon="6.9947804"><ele>257.0</ele><time>2026-05-01T15:47:52.868Z</time></trkpt><trkpt lat="43.7239616" lon="6.9948324"><ele>257.0</ele><time>2026-05-01T15:47:53.868Z</time></trkpt><trkpt lat="43.7240831" lon="6.9948967"><ele>257.0</ele><time>2026-05-01T15:47:54.868Z</time></trkpt><trkpt lat="43.7241696" lon="6.9949079"><ele>257.0</ele><time>2026-05-01T15:47:55.868Z</time></trkpt><trkpt lat="43.724262" lon="6.99502"><ele>257.75</ele><time>2026-05-01T15:47:56.868Z</time></trkpt><trkpt lat="43.7243576" lon="6.9951102"><ele>258.5</ele><time>2026-05-01T15:47:57.868Z</time></trkpt><trkpt lat="43.7244494" lon="6.9952076"><ele>259.25</ele><time>2026-05-01T15:47:58.868Z</time></trkpt><trkpt lat="43.7245413" lon="6.9952942"><ele>260.0</ele><time>2026-05-01T15:47:59.868Z</time></trkpt><trkpt lat="43.7246622" lon="6.9953696"><ele>260.0</ele><time>2026-05-01T15:48:00.868Z</time></trkpt><trkpt lat="43.7247842" lon="6.9954536"><ele>260.0</ele><time>2026-05-01T15:48:01.868Z</time></trkpt><trkpt lat="43.724915" lon="6.9955401"><ele>260.0</ele><time>2026-05-01T15:48:02.868Z</time></trkpt><trkpt lat="43.725061" lon="6.9956755"><ele>260.0</ele><time>2026-05-01T15:48:03.868Z</time></trkpt><trkpt lat="43.7252" lon="6.9957998"><ele>260.0</ele><time>2026-05-01T15:48:04.869Z</time></trkpt><trkpt lat="43.7253352" lon="6.9959937"><ele>260.0</ele><time>2026-05-01T15:48:05.868Z</time></trkpt><trkpt lat="43.725412" lon="6.9961444"><ele>261.0</ele><time>2026-05-01T15:48:06.868Z</time></trkpt><trkpt lat="43.7254912" lon="6.9962911"><ele>262.0</ele><time>2026-05-01T15:48:07.868Z</time></trkpt><trkpt lat="43.725607" lon="6.9964348"><ele>263.0</ele><time>2026-05-01T15:48:08.868Z</time></trkpt><trkpt lat="43.7257024" lon="6.9965681"><ele>264.0</ele><time>2026-05-01T15:48:09.868Z</time></trkpt><trkpt lat="43.72582" lon="6.9967404"><ele>271.25</ele><time>2026-05-01T15:48:10.868Z</time></trkpt><trkpt lat="43.725966" lon="6.9968379"><ele>278.5</ele><time>2026-05-01T15:48:11.868Z</time></trkpt><trkpt lat="43.7261021" lon="6.9969042"><ele>285.75</ele><time>2026-05-01T15:48:12.868Z</time></trkpt><trkpt lat="43.7262161" lon="6.996959"><ele>293.0</ele><time>2026-05-01T15:48:13.868Z</time></trkpt><trkpt lat="43.7263298" lon="6.9970267"><ele>293.0</ele><time>2026-05-01T15:48:14.868Z</time></trkpt><trkpt lat="43.7264841" lon="6.9970686"><ele>293.0</ele><time>2026-05-01T15:48:15.868Z</time></trkpt><trkpt lat="43.7266273" lon="6.9970809"><ele>293.0</ele><time>2026-05-01T15:48:16.868Z</time></trkpt><trkpt lat="43.7267522" lon="6.9971001"><ele>293.0</ele><time>2026-05-01T15:48:17.868Z</time></trkpt><trkpt lat="43.7268344" lon="6.9971355"><ele>296.2</ele><time>2026-05-01T15:48:18.868Z</time></trkpt><trkpt lat="43.7269081" lon="6.9972163"><ele>299.4</ele><time>2026-05-01T15:48:19.868Z</time></trkpt><trkpt lat="43.7270087" lon="6.9973215"><ele>302.59999999999997</ele><time>2026-05-01T15:48:20.869Z</time></trkpt><trkpt lat="43.7270755" lon="6.9973591"><ele>305.8</ele><time>2026-05-01T15:48:21.868Z</time></trkpt><trkpt lat="43.7271991" lon="6.9974009"><ele>309.0</ele><time>2026-05-01T15:48:22.868Z</time></trkpt><trkpt lat="43.7273301" lon="6.9973636"><ele>309.0</ele><time>2026-05-01T15:48:23.868Z</time></trkpt><trkpt lat="43.7274196" lon="6.9973251"><ele>309.0</ele><time>2026-05-01T15:48:24.868Z</time></trkpt><trkpt lat="43.7274982" lon="6.9972353"><ele>309.0</ele><time>2026-05-01T15:48:25.868Z</time></trkpt><trkpt lat="43.7275922" lon="6.9971957"><ele>309.0</ele><time>2026-05-01T15:48:26.868Z</time></trkpt><trkpt lat="43.7277013" lon="6.9971688"><ele>309.0</ele><time>2026-05-01T15:48:27.868Z</time></trkpt><trkpt lat="43.7278026" lon="6.9971681"><ele>314.0</ele><time>2026-05-01T15:48:28.868Z</time></trkpt><trkpt lat="43.7279397" lon="6.9971375"><ele>319.0</ele><time>2026-05-01T15:48:29.868Z</time></trkpt><trkpt lat="43.7280798" lon="6.9972176"><ele>324.0</ele><time>2026-05-01T15:48:30.868Z</time></trkpt><trkpt lat="43.7282097" lon="6.9972264"><ele>329.0</ele><time>2026-05-01T15:48:31.868Z</time></trkpt><trkpt lat="43.7283451" lon="6.9972981"><ele>329.0</ele><time>2026-05-01T15:48:32.868Z</time></trkpt><trkpt lat="43.7284995" lon="6.9973084"><ele>329.0</ele><time>2026-05-01T15:48:33.868Z</time></trkpt><trkpt lat="43.7286657" lon="6.9973021"><ele>329.0</ele><time>2026-05-01T15:48:34.868Z</time></trkpt><trkpt lat="43.7288256" lon="6.9973662"><ele>320.6666666666667</ele><time>2026-05-01T15:48:35.868Z</time></trkpt><trkpt lat="43.7289785" lon="6.9974326"><ele>312.3333333333333</ele><time>2026-05-01T15:48:36.868Z</time></trkpt><trkpt lat="43.7291599" lon="6.9974877"><ele>304.0</ele><time>2026-05-01T15:48:37.868Z</time></trkpt><trkpt lat="43.7293175" lon="6.9975623"><ele>314.3333333333333</ele><time>2026-05-01T15:48:38.868Z</time></trkpt><trkpt lat="43.7294696" lon="6.9976153"><ele>324.6666666666667</ele><time>2026-05-01T15:48:39.868Z</time></trkpt><trkpt lat="43.7296318" lon="6.9976803"><ele>335.0</ele><time>2026-05-01T15:48:40.868Z</time></trkpt><trkpt lat="43.7297933" lon="6.9977339"><ele>335.0</ele><time>2026-05-01T15:48:41.868Z</time></trkpt><trkpt lat="43.7299583" lon="6.9977821"><ele>335.0</ele><time>2026-05-01T15:48:42.868Z</time></trkpt><trkpt lat="43.7301082" lon="6.9978315"><ele>335.0</ele><time>2026-05-01T15:48:43.868Z</time></trkpt><trkpt lat="43.7302797" lon="6.997875"><ele>329.0</ele><time>2026-05-01T15:48:44.868Z</time></trkpt><trkpt lat="43.7304283" lon="6.9978773"><ele>323.0</ele><time>2026-05-01T15:48:45.868Z</time></trkpt><trkpt lat="43.7305375" lon="6.9979196"><ele>317.0</ele><time>2026-05-01T15:48:46.868Z</time></trkpt><trkpt lat="43.730663" lon="6.9979964"><ele>311.0</ele><time>2026-05-01T15:48:47.868Z</time></trkpt><trkpt lat="43.7307717" lon="6.9980716"><ele>311.0</ele><time>2026-05-01T15:48:48.868Z</time></trkpt><trkpt lat="43.7308998" lon="6.9981664"><ele>311.0</ele><time>2026-05-01T15:48:49.868Z</time></trkpt><trkpt lat="43.7310457" lon="6.998255"><ele>311.0</ele><time>2026-05-01T15:48:50.868Z</time></trkpt><trkpt lat="43.73117" lon="6.9983104"><ele>311.0</ele><time>2026-05-01T15:48:51.868Z</time></trkpt><trkpt lat="43.7313129" lon="6.9984369"><ele>319.25</ele><time>2026-05-01T15:48:52.868Z</time></trkpt><trkpt lat="43.7314551" lon="6.9985311"><ele>327.5</ele><time>2026-05-01T15:48:53.868Z</time></trkpt><trkpt lat="43.7315752" lon="6.9985758"><ele>335.75</ele><time>2026-05-01T15:48:54.868Z</time></trkpt><trkpt lat="43.7316987" lon="6.9985971"><ele>344.0</ele><time>2026-05-01T15:48:55.868Z</time></trkpt><trkpt lat="43.7318114" lon="6.9986179"><ele>342.5</ele><time>2026-05-01T15:48:56.868Z</time></trkpt><trkpt lat="43.7319413" lon="6.998653"><ele>341.0</ele><time>2026-05-01T15:48:57.868Z</time></trkpt><trkpt lat="43.7320713" lon="6.9986731"><ele>339.5</ele><time>2026-05-01T15:48:58.868Z</time></trkpt><trkpt lat="43.7321967" lon="6.998732"><ele>338.0</ele><time>2026-05-01T15:48:59.868Z</time></trkpt><trkpt lat="43.7323046" lon="6.9987817"><ele>338.0</ele><time>2026-05-01T15:49:00.868Z</time></trkpt><trkpt lat="43.7324834" lon="6.9989124"><ele>338.0</ele><time>2026-05-01T15:49:01.868Z</time></trkpt><trkpt lat="43.7326367" lon="6.9989753"><ele>338.0</ele><time>2026-05-01T15:49:02.868Z</time></trkpt><trkpt lat="43.7328031" lon="6.9990399"><ele>343.33333333333337</ele><time>2026-05-01T15:49:03.868Z</time></trkpt><trkpt lat="43.7329855" lon="6.9991005"><ele>348.6666666666667</ele><time>2026-05-01T15:49:04.868Z</time></trkpt><trkpt lat="43.7331743" lon="6.999223"><ele>354.0</ele><time>2026-05-01T15:49:05.868Z</time></trkpt><trkpt lat="43.733339" lon="6.9992819"><ele>368.0</ele><time>2026-05-01T15:49:06.868Z</time></trkpt><trkpt lat="43.7334739" lon="6.9993088"><ele>382.0</ele><time>2026-05-01T15:49:07.868Z</time></trkpt><trkpt lat="43.7336233" lon="6.999317"><ele>396.0</ele><time>2026-05-01T15:49:08.868Z</time></trkpt><trkpt lat="43.7337365" lon="6.9992324"><ele>410.0</ele><time>2026-05-01T15:49:09.868Z</time></trkpt><trkpt lat="43.733862" lon="6.9991684"><ele>410.0</ele><time>2026-05-01T15:49:10.868Z</time></trkpt><trkpt lat="43.7339733" lon="6.9991308"><ele>410.0</ele><time>2026-05-01T15:49:11.868Z</time></trkpt><trkpt lat="43.7340613" lon="6.9990867"><ele>410.0</ele><time>2026-05-01T15:49:12.868Z</time></trkpt><trkpt lat="43.7341822" lon="6.9990588"><ele>410.0</ele><time>2026-05-01T15:49:13.868Z</time></trkpt><trkpt lat="43.7344206" lon="6.9990695"><ele>419.3333333333333</ele><time>2026-05-01T15:49:15.868Z</time></trkpt><trkpt lat="43.7345686" lon="6.9991488"><ele>428.66666666666663</ele><time>2026-05-01T15:49:16.868Z</time></trkpt><trkpt lat="43.7347197" lon="6.999169"><ele>438.0</ele><time>2026-05-01T15:49:17.868Z</time></trkpt><trkpt lat="43.7348632" lon="6.9991633"><ele>438.0</ele><time>2026-05-01T15:49:18.868Z</time></trkpt><trkpt lat="43.7350158" lon="6.9991573"><ele>438.0</ele><time>2026-05-01T15:49:19.869Z</time></trkpt><trkpt lat="43.7351306" lon="6.9990649"><ele>438.0</ele><time>2026-05-01T15:49:20.869Z</time></trkpt><trkpt lat="43.7352486" lon="6.9990091"><ele>438.0</ele><time>2026-05-01T15:49:21.868Z</time></trkpt><trkpt lat="43.7354013" lon="6.9989368"><ele>438.0</ele><time>2026-05-01T15:49:22.868Z</time></trkpt><trkpt lat="43.735566" lon="6.9988874"><ele>438.0</ele><time>2026-05-01T15:49:23.868Z</time></trkpt><trkpt lat="43.735674" lon="6.9989048"><ele>438.0</ele><time>2026-05-01T15:49:24.868Z</time></trkpt><trkpt lat="43.7358212" lon="6.998954"><ele>438.0</ele><time>2026-05-01T15:49:26.868Z</time></trkpt><trkpt lat="43.7358768" lon="6.9990836"><ele>484.0</ele><time>2026-05-01T15:49:28.868Z</time></trkpt><trkpt lat="43.7407402" lon="7.0008539"><ele>484.0</ele><time>2026-05-01T15:50:01.868Z</time></trkpt><trkpt lat="43.7408892" lon="7.0008923"><ele>484.0</ele><time>2026-05-01T15:50:02.868Z</time></trkpt><trkpt lat="43.741093" lon="7.0008887"><ele>484.0</ele><time>2026-05-01T15:50:04.868Z</time></trkpt><trkpt lat="43.741174" lon="7.0008716"><ele>484.0</ele><time>2026-05-01T15:50:05.868Z</time></trkpt><trkpt lat="43.7412931" lon="7.000882"><ele>477.5</ele><time>2026-05-01T15:50:06.868Z</time></trkpt><trkpt lat="43.7414065" lon="7.0009213"><ele>471.0</ele><time>2026-05-01T15:50:07.868Z</time></trkpt><trkpt lat="43.7415183" lon="7.0008845"><ele>464.5</ele><time>2026-05-01T15:50:08.868Z</time></trkpt><trkpt lat="43.7416396" lon="7.0008556"><ele>458.0</ele><time>2026-05-01T15:50:09.868Z</time></trkpt><trkpt lat="43.7417422" lon="7.000792"><ele>452.0</ele><time>2026-05-01T15:50:10.871Z</time></trkpt><trkpt lat="43.7418608" lon="7.0006788"><ele>445.99999999999994</ele><time>2026-05-01T15:50:11.869Z</time></trkpt><trkpt lat="43.7419082" lon="7.0006089"><ele>439.99999999999994</ele><time>2026-05-01T15:50:12.869Z</time></trkpt><trkpt lat="43.7419728" lon="7.0005454"><ele>434.0</ele><time>2026-05-01T15:50:13.869Z</time></trkpt><trkpt lat="43.7420882" lon="7.0004377"><ele>428.0</ele><time>2026-05-01T15:50:14.869Z</time></trkpt><trkpt lat="43.7421999" lon="7.0003199"><ele>428.0</ele><time>2026-05-01T15:50:16.868Z</time></trkpt><trkpt lat="43.7422943" lon="7.0001749"><ele>428.0</ele><time>2026-05-01T15:50:17.868Z</time></trkpt><trkpt lat="43.7424037" lon="6.9999363"><ele>428.0</ele><time>2026-05-01T15:50:18.868Z</time></trkpt><trkpt lat="43.7425259" lon="6.9998919"><ele>428.0</ele><time>2026-05-01T15:50:19.868Z</time></trkpt><trkpt lat="43.7426366" lon="6.9997496"><ele>428.0</ele><time>2026-05-01T15:50:20.868Z</time></trkpt><trkpt lat="43.7427285" lon="6.9995976"><ele>428.0</ele><time>2026-05-01T15:50:21.868Z</time></trkpt><trkpt lat="43.7427978" lon="6.9994533"><ele>428.0</ele><time>2026-05-01T15:50:22.869Z</time></trkpt><trkpt lat="43.7428536" lon="6.9993754"><ele>429.5</ele><time>2026-05-01T15:50:23.868Z</time></trkpt><trkpt lat="43.7429177" lon="6.9993166"><ele>431.0</ele><time>2026-05-01T15:50:24.868Z</time></trkpt><trkpt lat="43.7430005" lon="6.9992472"><ele>432.5</ele><time>2026-05-01T15:50:25.868Z</time></trkpt><trkpt lat="43.7430901" lon="6.999206"><ele>434.0</ele><time>2026-05-01T15:50:26.868Z</time></trkpt><trkpt lat="43.7432909" lon="6.9992272"><ele>428.3333333333333</ele><time>2026-05-01T15:50:28.868Z</time></trkpt><trkpt lat="43.7435749" lon="6.999163"><ele>422.66666666666663</ele><time>2026-05-01T15:50:30.868Z</time></trkpt><trkpt lat="43.7436669" lon="6.9991805"><ele>417.0</ele><time>2026-05-01T15:50:31.868Z</time></trkpt><trkpt lat="43.7437352" lon="6.9992302"><ele>427.25</ele><time>2026-05-01T15:50:32.868Z</time></trkpt><trkpt lat="43.7438248" lon="6.9992755"><ele>437.5</ele><time>2026-05-01T15:50:33.869Z</time></trkpt><trkpt lat="43.7440024" lon="6.9993042"><ele>447.75</ele><time>2026-05-01T15:50:34.868Z</time></trkpt><trkpt lat="43.7441274" lon="6.9993503"><ele>458.0</ele><time>2026-05-01T15:50:35.868Z</time></trkpt><trkpt lat="43.7442555" lon="6.9992948"><ele>457.3333333333333</ele><time>2026-05-01T15:50:36.868Z</time></trkpt><trkpt lat="43.7443925" lon="6.9992715"><ele>456.66666666666663</ele><time>2026-05-01T15:50:37.869Z</time></trkpt><trkpt lat="43.7445513" lon="6.9992628"><ele>456.0</ele><time>2026-05-01T15:50:38.868Z</time></trkpt><trkpt lat="43.7447199" lon="6.9992171"><ele>456.0</ele><time>2026-05-01T15:50:39.868Z</time></trkpt><trkpt lat="43.7448688" lon="6.999198"><ele>456.0</ele><time>2026-05-01T15:50:40.868Z</time></trkpt><trkpt lat="43.7450446" lon="6.999131"><ele>456.0</ele><time>2026-05-01T15:50:41.868Z</time></trkpt><trkpt lat="43.7451687" lon="6.9990584"><ele>443.33333333333337</ele><time>2026-05-01T15:50:42.868Z</time></trkpt><trkpt lat="43.7453147" lon="6.9989951"><ele>430.6666666666667</ele><time>2026-05-01T15:50:43.868Z</time></trkpt><trkpt lat="43.7454954" lon="6.998941"><ele>418.0</ele><time>2026-05-01T15:50:44.868Z</time></trkpt><trkpt lat="43.7456529" lon="6.9988809"><ele>418.0</ele><time>2026-05-01T15:50:45.868Z</time></trkpt><trkpt lat="43.7457838" lon="6.9988119"><ele>418.0</ele><time>2026-05-01T15:50:46.869Z</time></trkpt><trkpt lat="43.7459639" lon="6.9988217"><ele>418.0</ele><time>2026-05-01T15:50:47.868Z</time></trkpt><trkpt lat="43.7461245" lon="6.9987598"><ele>417.75</ele><time>2026-05-01T15:50:48.868Z</time></trkpt><trkpt lat="43.7462174" lon="6.9986616"><ele>417.5</ele><time>2026-05-01T15:50:49.868Z</time></trkpt><trkpt lat="43.7463272" lon="6.998531"><ele>417.25</ele><time>2026-05-01T15:50:50.868Z</time></trkpt><trkpt lat="43.7464469" lon="6.9984516"><ele>417.0</ele><time>2026-05-01T15:50:51.868Z</time></trkpt><trkpt lat="43.746566" lon="6.9983547"><ele>417.5</ele><time>2026-05-01T15:50:52.868Z</time></trkpt><trkpt lat="43.7466902" lon="6.9982522"><ele>418.0</ele><time>2026-05-01T15:50:53.868Z</time></trkpt><trkpt lat="43.7467918" lon="6.9981391"><ele>418.5</ele><time>2026-05-01T15:50:54.868Z</time></trkpt><trkpt lat="43.7469138" lon="6.998025"><ele>419.0</ele><time>2026-05-01T15:50:55.868Z</time></trkpt><trkpt lat="43.7470329" lon="6.9979082"><ele>418.5</ele><time>2026-05-01T15:50:56.868Z</time></trkpt><trkpt lat="43.747152" lon="6.9977944"><ele>418.0</ele><time>2026-05-01T15:50:57.868Z</time></trkpt><trkpt lat="43.74776" lon="6.9975154"><ele>416.75</ele><time>2026-05-01T15:51:04.868Z</time></trkpt><trkpt lat="43.7478629" lon="6.9974254"><ele>415.5</ele><time>2026-05-01T15:51:05.868Z</time></trkpt><trkpt lat="43.7479233" lon="6.9973657"><ele>414.25</ele><time>2026-05-01T15:51:06.868Z</time></trkpt><trkpt lat="43.7479697" lon="6.9972071"><ele>413.0</ele><time>2026-05-01T15:51:07.868Z</time></trkpt><trkpt lat="43.7480164" lon="6.9970343"><ele>413.0</ele><time>2026-05-01T15:51:08.868Z</time></trkpt><trkpt lat="43.748058" lon="6.9968995"><ele>413.0</ele><time>2026-05-01T15:51:09.868Z</time></trkpt><trkpt lat="43.7481149" lon="6.9967524"><ele>413.0</ele><time>2026-05-01T15:51:10.868Z</time></trkpt><trkpt lat="43.7481669" lon="6.9966488"><ele>413.0</ele><time>2026-05-01T15:51:11.868Z</time></trkpt><trkpt lat="43.7482412" lon="6.9965584"><ele>413.0</ele><time>2026-05-01T15:51:12.868Z</time></trkpt><trkpt lat="43.7483548" lon="6.9964804"><ele>415.25</ele><time>2026-05-01T15:51:13.868Z</time></trkpt><trkpt lat="43.7484458" lon="6.9963992"><ele>417.5</ele><time>2026-05-01T15:51:14.868Z</time></trkpt><trkpt lat="43.7485373" lon="6.9963864"><ele>419.75</ele><time>2026-05-01T15:51:15.868Z</time></trkpt><trkpt lat="43.7486398" lon="6.996395"><ele>422.0</ele><time>2026-05-01T15:51:16.868Z</time></trkpt><trkpt lat="43.7488632" lon="6.9963871"><ele>422.5</ele><time>2026-05-01T15:51:17.868Z</time></trkpt><trkpt lat="43.7490126" lon="6.9964368"><ele>423.0</ele><time>2026-05-01T15:51:18.869Z</time></trkpt><trkpt lat="43.7491604" lon="6.9964651"><ele>423.5</ele><time>2026-05-01T15:51:19.868Z</time></trkpt><trkpt lat="43.7492814" lon="6.9964956"><ele>424.0</ele><time>2026-05-01T15:51:20.868Z</time></trkpt><trkpt lat="43.7494219" lon="6.9965352"><ele>425.0</ele><time>2026-05-01T15:51:21.868Z</time></trkpt><trkpt lat="43.7495638" lon="6.9965146"><ele>426.0</ele><time>2026-05-01T15:51:22.868Z</time></trkpt><trkpt lat="43.7497311" lon="6.9964918"><ele>427.0</ele><time>2026-05-01T15:51:23.868Z</time></trkpt><trkpt lat="43.7498569" lon="6.9964298"><ele>428.0</ele><time>2026-05-01T15:51:24.868Z</time></trkpt><trkpt lat="43.7499926" lon="6.9963926"><ele>428.0</ele><time>2026-05-01T15:51:25.868Z</time></trkpt><trkpt lat="43.7501395" lon="6.9963673"><ele>428.0</ele><time>2026-05-01T15:51:26.868Z</time></trkpt><trkpt lat="43.7502995" lon="6.9963375"><ele>428.0</ele><time>2026-05-01T15:51:27.868Z</time></trkpt><trkpt lat="43.750394" lon="6.9963191"><ele>428.0</ele><time>2026-05-01T15:51:28.868Z</time></trkpt><trkpt lat="43.7505139" lon="6.9962772"><ele>429.59999999999997</ele><time>2026-05-01T15:51:29.868Z</time></trkpt><trkpt lat="43.7505943" lon="6.9962232"><ele>431.19999999999993</ele><time>2026-05-01T15:51:30.868Z</time></trkpt><trkpt lat="43.7506517" lon="6.9961725"><ele>432.8</ele><time>2026-05-01T15:51:31.869Z</time></trkpt><trkpt lat="43.7507373" lon="6.9961002"><ele>434.4</ele><time>2026-05-01T15:51:32.868Z</time></trkpt><trkpt lat="43.7507754" lon="6.9959621"><ele>436.0</ele><time>2026-05-01T15:51:33.868Z</time></trkpt><trkpt lat="43.7507917" lon="6.9958347"><ele>437.75</ele><time>2026-05-01T15:51:34.868Z</time></trkpt><trkpt lat="43.7508083" lon="6.9957114"><ele>439.5</ele><time>2026-05-01T15:51:35.868Z</time></trkpt><trkpt lat="43.7507778" lon="6.9954708"><ele>441.25</ele><time>2026-05-01T15:51:37.868Z</time></trkpt><trkpt lat="43.750769" lon="6.9953692"><ele>443.0</ele><time>2026-05-01T15:51:38.868Z</time></trkpt><trkpt lat="43.7507149" lon="6.9951735"><ele>443.0</ele><time>2026-05-01T15:51:39.869Z</time></trkpt><trkpt lat="43.7506927" lon="6.9950394"><ele>443.0</ele><time>2026-05-01T15:51:40.868Z</time></trkpt><trkpt lat="43.750679" lon="6.9948813"><ele>443.0</ele><time>2026-05-01T15:51:41.868Z</time></trkpt><trkpt lat="43.7506814" lon="6.9946828"><ele>443.0</ele><time>2026-05-01T15:51:42.868Z</time></trkpt><trkpt lat="43.750698" lon="6.994529"><ele>445.0</ele><time>2026-05-01T15:51:43.868Z</time></trkpt><trkpt lat="43.7506998" lon="6.9942988"><ele>447.0</ele><time>2026-05-01T15:51:44.868Z</time></trkpt><trkpt lat="43.7507147" lon="6.9940752"><ele>449.0</ele><time>2026-05-01T15:51:45.869Z</time></trkpt><trkpt lat="43.7507462" lon="6.9938901"><ele>449.0</ele><time>2026-05-01T15:51:46.868Z</time></trkpt><trkpt lat="43.7507827" lon="6.9936949"><ele>449.0</ele><time>2026-05-01T15:51:47.868Z</time></trkpt><trkpt lat="43.7508424" lon="6.9935788"><ele>449.0</ele><time>2026-05-01T15:51:48.868Z</time></trkpt><trkpt lat="43.7509293" lon="6.993509"><ele>449.0</ele><time>2026-05-01T15:51:49.868Z</time></trkpt><trkpt lat="43.7510188" lon="6.9934473"><ele>449.0</ele><time>2026-05-01T15:51:50.868Z</time></trkpt><trkpt lat="43.7511356" lon="6.9934057"><ele>450.5</ele><time>2026-05-01T15:51:51.868Z</time></trkpt><trkpt lat="43.7512661" lon="6.9934159"><ele>452.0</ele><time>2026-05-01T15:51:52.868Z</time></trkpt><trkpt lat="43.7513827" lon="6.9933876"><ele>453.5</ele><time>2026-05-01T15:51:53.868Z</time></trkpt><trkpt lat="43.7514756" lon="6.9933364"><ele>455.0</ele><time>2026-05-01T15:51:54.868Z</time></trkpt><trkpt lat="43.7516183" lon="6.9933203"><ele>455.0</ele><time>2026-05-01T15:51:55.868Z</time></trkpt><trkpt lat="43.7517304" lon="6.9933343"><ele>455.0</ele><time>2026-05-01T15:51:56.868Z</time></trkpt><trkpt lat="43.7518385" lon="6.993351"><ele>455.0</ele><time>2026-05-01T15:51:57.868Z</time></trkpt><trkpt lat="43.7519303" lon="6.9933791"><ele>455.0</ele><time>2026-05-01T15:51:58.869Z</time></trkpt><trkpt lat="43.7520157" lon="6.9933599"><ele>455.0</ele><time>2026-05-01T15:51:59.868Z</time></trkpt><trkpt lat="43.7521049" lon="6.9932952"><ele>455.25</ele><time>2026-05-01T15:52:00.868Z</time></trkpt><trkpt lat="43.7521706" lon="6.9931773"><ele>455.5</ele><time>2026-05-01T15:52:01.868Z</time></trkpt><trkpt lat="43.7522235" lon="6.9930405"><ele>455.75</ele><time>2026-05-01T15:52:02.868Z</time></trkpt><trkpt lat="43.7522943" lon="6.9928659"><ele>456.0</ele><time>2026-05-01T15:52:03.868Z</time></trkpt><trkpt lat="43.7524119" lon="6.9926655"><ele>456.0</ele><time>2026-05-01T15:52:04.868Z</time></trkpt><trkpt lat="43.7525113" lon="6.9925094"><ele>456.0</ele><time>2026-05-01T15:52:05.868Z</time></trkpt><trkpt lat="43.7526008" lon="6.9923343"><ele>456.0</ele><time>2026-05-01T15:52:06.868Z</time></trkpt><trkpt lat="43.752697" lon="6.9921931"><ele>456.0</ele><time>2026-05-01T15:52:07.868Z</time></trkpt><trkpt lat="43.7527904" lon="6.9920602"><ele>455.25</ele><time>2026-05-01T15:52:08.869Z</time></trkpt><trkpt lat="43.752871" lon="6.9919093"><ele>454.5</ele><time>2026-05-01T15:52:09.868Z</time></trkpt><trkpt lat="43.7529562" lon="6.9917699"><ele>453.75</ele><time>2026-05-01T15:52:10.868Z</time></trkpt><trkpt lat="43.7530927" lon="6.9916328"><ele>453.0</ele><time>2026-05-01T15:52:11.868Z</time></trkpt><trkpt lat="43.7532051" lon="6.9914981"><ele>455.0</ele><time>2026-05-01T15:52:12.868Z</time></trkpt><trkpt lat="43.7534054" lon="6.9914415"><ele>457.0</ele><time>2026-05-01T15:52:13.868Z</time></trkpt><trkpt lat="43.7535512" lon="6.9913175"><ele>459.0</ele><time>2026-05-01T15:52:14.868Z</time></trkpt><trkpt lat="43.7536658" lon="6.9912276"><ele>459.0</ele><time>2026-05-01T15:52:15.868Z</time></trkpt><trkpt lat="43.7537807" lon="6.9911231"><ele>459.0</ele><time>2026-05-01T15:52:16.869Z</time></trkpt><trkpt lat="43.7538959" lon="6.9910146"><ele>459.0</ele><time>2026-05-01T15:52:17.868Z</time></trkpt><trkpt lat="43.7540395" lon="6.9909058"><ele>459.0</ele><time>2026-05-01T15:52:18.868Z</time></trkpt><trkpt lat="43.7541548" lon="6.9908559"><ele>461.25</ele><time>2026-05-01T15:52:19.868Z</time></trkpt><trkpt lat="43.7542456" lon="6.9908048"><ele>463.5</ele><time>2026-05-01T15:52:20.868Z</time></trkpt><trkpt lat="43.7543833" lon="6.9907642"><ele>465.75</ele><time>2026-05-01T15:52:21.868Z</time></trkpt><trkpt lat="43.7545285" lon="6.9907569"><ele>468.0</ele><time>2026-05-01T15:52:22.868Z</time></trkpt><trkpt lat="43.7547259" lon="6.9907343"><ele>468.0</ele><time>2026-05-01T15:52:23.868Z</time></trkpt><trkpt lat="43.7548855" lon="6.9907672"><ele>468.0</ele><time>2026-05-01T15:52:24.869Z</time></trkpt><trkpt lat="43.755038" lon="6.9907092"><ele>468.0</ele><time>2026-05-01T15:52:25.868Z</time></trkpt><trkpt lat="43.755154" lon="6.9906471"><ele>468.0</ele><time>2026-05-01T15:52:26.868Z</time></trkpt><trkpt lat="43.7552305" lon="6.9905864"><ele>467.0</ele><time>2026-05-01T15:52:27.868Z</time></trkpt><trkpt lat="43.7553237" lon="6.9904761"><ele>466.0</ele><time>2026-05-01T15:52:28.869Z</time></trkpt><trkpt lat="43.7554248" lon="6.9904055"><ele>465.0</ele><time>2026-05-01T15:52:29.868Z</time></trkpt><trkpt lat="43.7555414" lon="6.9902912"><ele>464.0</ele><time>2026-05-01T15:52:30.868Z</time></trkpt><trkpt lat="43.7556925" lon="6.9902262"><ele>464.0</ele><time>2026-05-01T15:52:31.868Z</time></trkpt><trkpt lat="43.7558323" lon="6.9901514"><ele>464.0</ele><time>2026-05-01T15:52:32.868Z</time></trkpt><trkpt lat="43.7559679" lon="6.9901233"><ele>464.0</ele><time>2026-05-01T15:52:33.868Z</time></trkpt><trkpt lat="43.7561477" lon="6.9900617"><ele>468.0</ele><time>2026-05-01T15:52:34.868Z</time></trkpt><trkpt lat="43.7563097" lon="6.9900053"><ele>472.0</ele><time>2026-05-01T15:52:35.868Z</time></trkpt><trkpt lat="43.7564728" lon="6.9899505"><ele>476.0</ele><time>2026-05-01T15:52:36.868Z</time></trkpt><trkpt lat="43.7566227" lon="6.9899161"><ele>476.0</ele><time>2026-05-01T15:52:37.868Z</time></trkpt><trkpt lat="43.7567837" lon="6.9899493"><ele>476.0</ele><time>2026-05-01T15:52:38.868Z</time></trkpt><trkpt lat="43.7569444" lon="6.9899526"><ele>476.0</ele><time>2026-05-01T15:52:39.868Z</time></trkpt><trkpt lat="43.7570743" lon="6.9899724"><ele>478.66666666666663</ele><time>2026-05-01T15:52:40.868Z</time></trkpt><trkpt lat="43.7572384" lon="6.9899585"><ele>481.33333333333337</ele><time>2026-05-01T15:52:41.868Z</time></trkpt><trkpt lat="43.7573851" lon="6.9899401"><ele>484.0</ele><time>2026-05-01T15:52:42.868Z</time></trkpt><trkpt lat="43.7575488" lon="6.9899863"><ele>478.6666666666667</ele><time>2026-05-01T15:52:43.868Z</time></trkpt><trkpt lat="43.7577622" lon="6.9900347"><ele>473.33333333333337</ele><time>2026-05-01T15:52:44.868Z</time></trkpt><trkpt lat="43.757948" lon="6.9901085"><ele>468.0</ele><time>2026-05-01T15:52:45.868Z</time></trkpt><trkpt lat="43.7581182" lon="6.9901142"><ele>468.0</ele><time>2026-05-01T15:52:46.868Z</time></trkpt><trkpt lat="43.7582967" lon="6.9901292"><ele>468.0</ele><time>2026-05-01T15:52:47.868Z</time></trkpt><trkpt lat="43.758472" lon="6.9901319"><ele>468.0</ele><time>2026-05-01T15:52:48.868Z</time></trkpt><trkpt lat="43.7586826" lon="6.9901383"><ele>467.0</ele><time>2026-05-01T15:52:49.869Z</time></trkpt><trkpt lat="43.7588703" lon="6.9901503"><ele>466.0</ele><time>2026-05-01T15:52:50.868Z</time></trkpt><trkpt lat="43.759083" lon="6.9901692"><ele>465.0</ele><time>2026-05-01T15:52:51.868Z</time></trkpt><trkpt lat="43.7592253" lon="6.9902294"><ele>465.0</ele><time>2026-05-01T15:52:52.868Z</time></trkpt><trkpt lat="43.7593964" lon="6.9902669"><ele>465.0</ele><time>2026-05-01T15:52:53.868Z</time></trkpt><trkpt lat="43.7595703" lon="6.9902571"><ele>465.0</ele><time>2026-05-01T15:52:54.868Z</time></trkpt><trkpt lat="43.7597129" lon="6.9902438"><ele>465.0</ele><time>2026-05-01T15:52:55.868Z</time></trkpt><trkpt lat="43.7598009" lon="6.9902377"><ele>465.0</ele><time>2026-05-01T15:52:56.868Z</time></trkpt><trkpt lat="43.7599092" lon="6.9901974"><ele>465.0</ele><time>2026-05-01T15:52:57.868Z</time></trkpt><trkpt lat="43.760021" lon="6.9901805"><ele>465.0</ele><time>2026-05-01T15:52:58.868Z</time></trkpt><trkpt lat="43.7601191" lon="6.9901191"><ele>465.0</ele><time>2026-05-01T15:52:59.868Z</time></trkpt><trkpt lat="43.7602309" lon="6.9900731"><ele>466.0</ele><time>2026-05-01T15:53:00.868Z</time></trkpt><trkpt lat="43.7603868" lon="6.9899848"><ele>467.0</ele><time>2026-05-01T15:53:01.868Z</time></trkpt><trkpt lat="43.7604991" lon="6.9899217"><ele>468.0</ele><time>2026-05-01T15:53:02.868Z</time></trkpt><trkpt lat="43.7605828" lon="6.9898202"><ele>469.0</ele><time>2026-05-01T15:53:03.868Z</time></trkpt><trkpt lat="43.7607015" lon="6.9897255"><ele>469.0</ele><time>2026-05-01T15:53:04.868Z</time></trkpt><trkpt lat="43.7607909" lon="6.9896102"><ele>469.0</ele><time>2026-05-01T15:53:05.868Z</time></trkpt><trkpt lat="43.7608546" lon="6.989526"><ele>469.0</ele><time>2026-05-01T15:53:06.868Z</time></trkpt><trkpt lat="43.7608722" lon="6.9894109"><ele>469.0</ele><time>2026-05-01T15:53:07.868Z</time></trkpt><trkpt lat="43.7609187" lon="6.9893002"><ele>469.0</ele><time>2026-05-01T15:53:08.868Z</time></trkpt><trkpt lat="43.760948" lon="6.9891825"><ele>470.6666666666667</ele><time>2026-05-01T15:53:09.868Z</time></trkpt><trkpt lat="43.761001" lon="6.9890988"><ele>472.33333333333337</ele><time>2026-05-01T15:53:10.868Z</time></trkpt><trkpt lat="43.7610816" lon="6.989036"><ele>474.0</ele><time>2026-05-01T15:53:11.868Z</time></trkpt><trkpt lat="43.761123" lon="6.9889663"><ele>475.66666666666663</ele><time>2026-05-01T15:53:13.868Z</time></trkpt><trkpt lat="43.7612109" lon="6.9889562"><ele>477.3333333333333</ele><time>2026-05-01T15:53:15.868Z</time></trkpt><trkpt lat="43.7613068" lon="6.9889784"><ele>479.0</ele><time>2026-05-01T15:53:17.868Z</time></trkpt><trkpt lat="43.761428" lon="6.9889843"><ele>479.0</ele><time>2026-05-01T15:53:19.868Z</time></trkpt><trkpt lat="43.7615862" lon="6.9889074"><ele>479.0</ele><time>2026-05-01T15:53:21.868Z</time></trkpt><trkpt lat="43.7616741" lon="6.9888459"><ele>479.0</ele><time>2026-05-01T15:53:22.868Z</time></trkpt><trkpt lat="43.7617976" lon="6.9887693"><ele>479.0</ele><time>2026-05-01T15:53:23.868Z</time></trkpt><trkpt lat="43.7619543" lon="6.9886552"><ele>481.5</ele><time>2026-05-01T15:53:24.868Z</time></trkpt><trkpt lat="43.7621053" lon="6.9885655"><ele>484.0</ele><time>2026-05-01T15:53:25.868Z</time></trkpt><trkpt lat="43.7622184" lon="6.9884493"><ele>486.5</ele><time>2026-05-01T15:53:26.868Z</time></trkpt><trkpt lat="43.7622907" lon="6.988323"><ele>489.0</ele><time>2026-05-01T15:53:27.868Z</time></trkpt><trkpt lat="43.7623749" lon="6.988247"><ele>489.0</ele><time>2026-05-01T15:53:28.868Z</time></trkpt><trkpt lat="43.762459" lon="6.9881495"><ele>489.0</ele><time>2026-05-01T15:53:29.868Z</time></trkpt><trkpt lat="43.762551" lon="6.9881014"><ele>489.0</ele><time>2026-05-01T15:53:30.868Z</time></trkpt><trkpt lat="43.7626593" lon="6.9879314"><ele>489.0</ele><time>2026-05-01T15:53:31.869Z</time></trkpt><trkpt lat="43.7627727" lon="6.987809"><ele>490.79999999999995</ele><time>2026-05-01T15:53:32.868Z</time></trkpt><trkpt lat="43.7628483" lon="6.9877207"><ele>492.59999999999997</ele><time>2026-05-01T15:53:33.868Z</time></trkpt><trkpt lat="43.7629609" lon="6.9876562"><ele>494.4</ele><time>2026-05-01T15:53:34.868Z</time></trkpt><trkpt lat="43.7630701" lon="6.9876187"><ele>496.2</ele><time>2026-05-01T15:53:35.868Z</time></trkpt><trkpt lat="43.7631746" lon="6.9876246"><ele>498.0</ele><time>2026-05-01T15:53:36.868Z</time></trkpt><trkpt lat="43.7632975" lon="6.9876546"><ele>498.0</ele><time>2026-05-01T15:53:37.868Z</time></trkpt><trkpt lat="43.7634329" lon="6.9877347"><ele>498.0</ele><time>2026-05-01T15:53:38.868Z</time></trkpt><trkpt lat="43.7635644" lon="6.9877976"><ele>498.0</ele><time>2026-05-01T15:53:39.868Z</time></trkpt><trkpt lat="43.763697" lon="6.9878351"><ele>498.0</ele><time>2026-05-01T15:53:40.868Z</time></trkpt><trkpt lat="43.7638173" lon="6.9878536"><ele>499.75</ele><time>2026-05-01T15:53:41.868Z</time></trkpt><trkpt lat="43.7639175" lon="6.9878526"><ele>501.5</ele><time>2026-05-01T15:53:42.868Z</time></trkpt><trkpt lat="43.7640587" lon="6.9878094"><ele>503.25</ele><time>2026-05-01T15:53:43.868Z</time></trkpt><trkpt lat="43.7641396" lon="6.9877461"><ele>505.0</ele><time>2026-05-01T15:53:44.868Z</time></trkpt><trkpt lat="43.7642577" lon="6.9876584"><ele>503.0</ele><time>2026-05-01T15:53:45.868Z</time></trkpt><trkpt lat="43.7643654" lon="6.987526"><ele>501.0</ele><time>2026-05-01T15:53:46.868Z</time></trkpt><trkpt lat="43.7644628" lon="6.987401"><ele>499.0</ele><time>2026-05-01T15:53:47.868Z</time></trkpt><trkpt lat="43.764585" lon="6.9872708"><ele>497.0</ele><time>2026-05-01T15:53:48.868Z</time></trkpt><trkpt lat="43.7646986" lon="6.9871615"><ele>497.0</ele><time>2026-05-01T15:53:49.868Z</time></trkpt><trkpt lat="43.7648231" lon="6.9870561"><ele>497.0</ele><time>2026-05-01T15:53:50.868Z</time></trkpt><trkpt lat="43.7649473" lon="6.9869989"><ele>497.0</ele><time>2026-05-01T15:53:51.868Z</time></trkpt><trkpt lat="43.7651065" lon="6.9869327"><ele>497.0</ele><time>2026-05-01T15:53:52.868Z</time></trkpt><trkpt lat="43.7652384" lon="6.9869118"><ele>500.66666666666663</ele><time>2026-05-01T15:53:53.868Z</time></trkpt><trkpt lat="43.7653931" lon="6.986987"><ele>504.33333333333337</ele><time>2026-05-01T15:53:54.868Z</time></trkpt><trkpt lat="43.7655391" lon="6.9869937"><ele>508.0</ele><time>2026-05-01T15:53:55.868Z</time></trkpt><trkpt lat="43.7657044" lon="6.9870219"><ele>508.0</ele><time>2026-05-01T15:53:56.869Z</time></trkpt><trkpt lat="43.7658503" lon="6.9870598"><ele>508.0</ele><time>2026-05-01T15:53:57.868Z</time></trkpt><trkpt lat="43.7659962" lon="6.9870795"><ele>508.0</ele><time>2026-05-01T15:53:58.868Z</time></trkpt><trkpt lat="43.7661637" lon="6.9870738"><ele>509.75</ele><time>2026-05-01T15:53:59.868Z</time></trkpt><trkpt lat="43.7663155" lon="6.9870451"><ele>511.5</ele><time>2026-05-01T15:54:00.868Z</time></trkpt><trkpt lat="43.7664938" lon="6.9870665"><ele>513.25</ele><time>2026-05-01T15:54:01.868Z</time></trkpt><trkpt lat="43.7665898" lon="6.9870119"><ele>515.0</ele><time>2026-05-01T15:54:02.868Z</time></trkpt><trkpt lat="43.7666968" lon="6.9870014"><ele>515.0</ele><time>2026-05-01T15:54:03.868Z</time></trkpt><trkpt lat="43.7668172" lon="6.9869362"><ele>515.0</ele><time>2026-05-01T15:54:04.868Z</time></trkpt><trkpt lat="43.7669148" lon="6.9868923"><ele>515.0</ele><time>2026-05-01T15:54:05.868Z</time></trkpt><trkpt lat="43.7669808" lon="6.9868149"><ele>515.0</ele><time>2026-05-01T15:54:06.868Z</time></trkpt><trkpt lat="43.7670796" lon="6.9866712"><ele>514.25</ele><time>2026-05-01T15:54:07.868Z</time></trkpt><trkpt lat="43.7672006" lon="6.9864976"><ele>513.5</ele><time>2026-05-01T15:54:08.869Z</time></trkpt><trkpt lat="43.7672704" lon="6.9864105"><ele>512.75</ele><time>2026-05-01T15:54:09.868Z</time></trkpt><trkpt lat="43.7674063" lon="6.9862524"><ele>512.0</ele><time>2026-05-01T15:54:10.868Z</time></trkpt><trkpt lat="43.7675292" lon="6.9861598"><ele>512.0</ele><time>2026-05-01T15:54:11.868Z</time></trkpt><trkpt lat="43.7676567" lon="6.9860481"><ele>512.0</ele><time>2026-05-01T15:54:12.868Z</time></trkpt><trkpt lat="43.7677968" lon="6.9859783"><ele>512.0</ele><time>2026-05-01T15:54:13.868Z</time></trkpt><trkpt lat="43.7679089" lon="6.9858925"><ele>512.0</ele><time>2026-05-01T15:54:14.868Z</time></trkpt><trkpt lat="43.7680186" lon="6.9857537"><ele>512.0</ele><time>2026-05-01T15:54:15.868Z</time></trkpt><trkpt lat="43.7681121" lon="6.9855866"><ele>512.0</ele><time>2026-05-01T15:54:16.868Z</time></trkpt><trkpt lat="43.768197" lon="6.9854497"><ele>512.0</ele><time>2026-05-01T15:54:17.868Z</time></trkpt><trkpt lat="43.7682885" lon="6.9853185"><ele>512.0</ele><time>2026-05-01T15:54:18.868Z</time></trkpt><trkpt lat="43.7683653" lon="6.9852508"><ele>511.0</ele><time>2026-05-01T15:54:19.868Z</time></trkpt><trkpt lat="43.7685299" lon="6.9852149"><ele>510.0</ele><time>2026-05-01T15:54:20.868Z</time></trkpt><trkpt lat="43.768643" lon="6.9851228"><ele>509.0</ele><time>2026-05-01T15:54:21.868Z</time></trkpt><trkpt lat="43.7687711" lon="6.9849934"><ele>509.0</ele><time>2026-05-01T15:54:22.868Z</time></trkpt><trkpt lat="43.7688882" lon="6.9848839"><ele>509.0</ele><time>2026-05-01T15:54:23.868Z</time></trkpt><trkpt lat="43.7690306" lon="6.9848014"><ele>509.0</ele><time>2026-05-01T15:54:24.868Z</time></trkpt><trkpt lat="43.7691695" lon="6.9847634"><ele>509.0</ele><time>2026-05-01T15:54:25.868Z</time></trkpt><trkpt lat="43.7693035" lon="6.9847454"><ele>511.0</ele><time>2026-05-01T15:54:26.868Z</time></trkpt><trkpt lat="43.7694282" lon="6.9847622"><ele>513.0</ele><time>2026-05-01T15:54:27.868Z</time></trkpt><trkpt lat="43.7695814" lon="6.9847807"><ele>515.0</ele><time>2026-05-01T15:54:28.868Z</time></trkpt><trkpt lat="43.7697756" lon="6.9847377"><ele>515.0</ele><time>2026-05-01T15:54:29.868Z</time></trkpt><trkpt lat="43.7699208" lon="6.9847643"><ele>515.0</ele><time>2026-05-01T15:54:30.868Z</time></trkpt><trkpt lat="43.7700461" lon="6.9848497"><ele>515.0</ele><time>2026-05-01T15:54:31.868Z</time></trkpt><trkpt lat="43.7701457" lon="6.9849264"><ele>515.0</ele><time>2026-05-01T15:54:32.868Z</time></trkpt><trkpt lat="43.7702795" lon="6.9849916"><ele>514.8</ele><time>2026-05-01T15:54:33.868Z</time></trkpt><trkpt lat="43.7704096" lon="6.9850399"><ele>514.6</ele><time>2026-05-01T15:54:34.868Z</time></trkpt><trkpt lat="43.7705256" lon="6.9850557"><ele>514.4</ele><time>2026-05-01T15:54:35.869Z</time></trkpt><trkpt lat="43.7706174" lon="6.9849848"><ele>514.2</ele><time>2026-05-01T15:54:36.868Z</time></trkpt><trkpt lat="43.7706955" lon="6.9849775"><ele>514.0</ele><time>2026-05-01T15:54:37.869Z</time></trkpt><trkpt lat="43.7707988" lon="6.9849198"><ele>514.0</ele><time>2026-05-01T15:54:38.868Z</time></trkpt><trkpt lat="43.7708967" lon="6.9848658"><ele>514.0</ele><time>2026-05-01T15:54:39.868Z</time></trkpt><trkpt lat="43.7710066" lon="6.9848422"><ele>514.0</ele><time>2026-05-01T15:54:40.868Z</time></trkpt><trkpt lat="43.7710948" lon="6.984881"><ele>514.0</ele><time>2026-05-01T15:54:41.868Z</time></trkpt><trkpt lat="43.7712124" lon="6.9850153"><ele>519.0</ele><time>2026-05-01T15:54:42.868Z</time></trkpt><trkpt lat="43.7713492" lon="6.9851359"><ele>524.0</ele><time>2026-05-01T15:54:43.868Z</time></trkpt><trkpt lat="43.7714857" lon="6.985247"><ele>529.0</ele><time>2026-05-01T15:54:44.868Z</time></trkpt><trkpt lat="43.7715894" lon="6.985372"><ele>529.0</ele><time>2026-05-01T15:54:45.868Z</time></trkpt><trkpt lat="43.771699" lon="6.985471"><ele>529.0</ele><time>2026-05-01T15:54:46.868Z</time></trkpt><trkpt lat="43.7717929" lon="6.985562"><ele>529.0</ele><time>2026-05-01T15:54:47.868Z</time></trkpt><trkpt lat="43.7719082" lon="6.9856312"><ele>529.0</ele><time>2026-05-01T15:54:48.868Z</time></trkpt><trkpt lat="43.7720354" lon="6.985678"><ele>530.25</ele><time>2026-05-01T15:54:49.868Z</time></trkpt><trkpt lat="43.7721735" lon="6.9857348"><ele>531.5</ele><time>2026-05-01T15:54:50.868Z</time></trkpt><trkpt lat="43.7723114" lon="6.9857735"><ele>532.75</ele><time>2026-05-01T15:54:51.868Z</time></trkpt><trkpt lat="43.772462" lon="6.9857568"><ele>534.0</ele><time>2026-05-01T15:54:52.868Z</time></trkpt><trkpt lat="43.7725862" lon="6.9857192"><ele>539.3333333333334</ele><time>2026-05-01T15:54:53.868Z</time></trkpt><trkpt lat="43.7727415" lon="6.9856898"><ele>544.6666666666667</ele><time>2026-05-01T15:54:54.868Z</time></trkpt><trkpt lat="43.7728999" lon="6.9855405"><ele>550.0</ele><time>2026-05-01T15:54:55.868Z</time></trkpt><trkpt lat="43.7730431" lon="6.9854394"><ele>550.0</ele><time>2026-05-01T15:54:56.868Z</time></trkpt><trkpt lat="43.7731675" lon="6.9852745"><ele>550.0</ele><time>2026-05-01T15:54:57.868Z</time></trkpt><trkpt lat="43.7732948" lon="6.985071"><ele>550.0</ele><time>2026-05-01T15:54:58.868Z</time></trkpt><trkpt lat="43.7734198" lon="6.9848749"><ele>550.0</ele><time>2026-05-01T15:54:59.868Z</time></trkpt><trkpt lat="43.7735363" lon="6.984706"><ele>550.0</ele><time>2026-05-01T15:55:00.868Z</time></trkpt><trkpt lat="43.7736612" lon="6.9845487"><ele>550.0</ele><time>2026-05-01T15:55:01.868Z</time></trkpt><trkpt lat="43.7737968" lon="6.9843828"><ele>550.0</ele><time>2026-05-01T15:55:02.868Z</time></trkpt><trkpt lat="43.7738845" lon="6.9842076"><ele>550.0</ele><time>2026-05-01T15:55:03.868Z</time></trkpt><trkpt lat="43.7739756" lon="6.9840843"><ele>550.0</ele><time>2026-05-01T15:55:04.868Z</time></trkpt><trkpt lat="43.7740659" lon="6.9839231"><ele>550.0</ele><time>2026-05-01T15:55:05.868Z</time></trkpt><trkpt lat="43.7741748" lon="6.983796"><ele>549.5</ele><time>2026-05-01T15:55:06.868Z</time></trkpt><trkpt lat="43.7742864" lon="6.9837018"><ele>549.0</ele><time>2026-05-01T15:55:07.868Z</time></trkpt><trkpt lat="43.7744036" lon="6.9835674"><ele>548.5</ele><time>2026-05-01T15:55:08.868Z</time></trkpt><trkpt lat="43.7744977" lon="6.9834112"><ele>548.0</ele><time>2026-05-01T15:55:09.868Z</time></trkpt><trkpt lat="43.7745941" lon="6.9832121"><ele>548.0</ele><time>2026-05-01T15:55:10.868Z</time></trkpt><trkpt lat="43.7746766" lon="6.9830098"><ele>548.0</ele><time>2026-05-01T15:55:11.868Z</time></trkpt><trkpt lat="43.7747629" lon="6.9828383"><ele>548.0</ele><time>2026-05-01T15:55:12.868Z</time></trkpt><trkpt lat="43.7748956" lon="6.9827073"><ele>548.0</ele><time>2026-05-01T15:55:13.868Z</time></trkpt><trkpt lat="43.7750013" lon="6.9825437"><ele>548.0</ele><time>2026-05-01T15:55:14.868Z</time></trkpt><trkpt lat="43.7751096" lon="6.9823931"><ele>548.0</ele><time>2026-05-01T15:55:15.868Z</time></trkpt><trkpt lat="43.7752215" lon="6.9822317"><ele>547.3333333333333</ele><time>2026-05-01T15:55:16.869Z</time></trkpt><trkpt lat="43.7753412" lon="6.9820279"><ele>546.6666666666666</ele><time>2026-05-01T15:55:17.868Z</time></trkpt><trkpt lat="43.7754365" lon="6.9818203"><ele>546.0</ele><time>2026-05-01T15:55:18.868Z</time></trkpt><trkpt lat="43.7755088" lon="6.9816262"><ele>546.0</ele><time>2026-05-01T15:55:19.868Z</time></trkpt><trkpt lat="43.7755982" lon="6.9813842"><ele>546.0</ele><time>2026-05-01T15:55:20.868Z</time></trkpt><trkpt lat="43.7756925" lon="6.9811602"><ele>546.0</ele><time>2026-05-01T15:55:21.868Z</time></trkpt><trkpt lat="43.7757826" lon="6.9809725"><ele>549.0</ele><time>2026-05-01T15:55:22.868Z</time></trkpt><trkpt lat="43.7758912" lon="6.9808267"><ele>552.0</ele><time>2026-05-01T15:55:23.868Z</time></trkpt><trkpt lat="43.7759968" lon="6.9806337"><ele>555.0</ele><time>2026-05-01T15:55:24.868Z</time></trkpt><trkpt lat="43.7760904" lon="6.980495"><ele>555.0</ele><time>2026-05-01T15:55:25.868Z</time></trkpt><trkpt lat="43.7762212" lon="6.9803496"><ele>555.0</ele><time>2026-05-01T15:55:26.868Z</time></trkpt><trkpt lat="43.7763846" lon="6.9802145"><ele>555.0</ele><time>2026-05-01T15:55:27.868Z</time></trkpt><trkpt lat="43.7765682" lon="6.9801056"><ele>555.0</ele><time>2026-05-01T15:55:28.868Z</time></trkpt><trkpt lat="43.7767066" lon="6.9800201"><ele>555.0</ele><time>2026-05-01T15:55:29.868Z</time></trkpt><trkpt lat="43.7768858" lon="6.9799126"><ele>555.0</ele><time>2026-05-01T15:55:30.868Z</time></trkpt><trkpt lat="43.777048" lon="6.9798358"><ele>558.0</ele><time>2026-05-01T15:55:31.868Z</time></trkpt><trkpt lat="43.777207" lon="6.9796779"><ele>561.0</ele><time>2026-05-01T15:55:32.868Z</time></trkpt><trkpt lat="43.7773363" lon="6.9795345"><ele>564.0</ele><time>2026-05-01T15:55:33.869Z</time></trkpt><trkpt lat="43.7774917" lon="6.9794033"><ele>564.0</ele><time>2026-05-01T15:55:34.868Z</time></trkpt><trkpt lat="43.7776009" lon="6.9792397"><ele>564.0</ele><time>2026-05-01T15:55:35.868Z</time></trkpt><trkpt lat="43.7776933" lon="6.9790722"><ele>564.0</ele><time>2026-05-01T15:55:36.868Z</time></trkpt><trkpt lat="43.7777871" lon="6.9789285"><ele>563.75</ele><time>2026-05-01T15:55:37.868Z</time></trkpt><trkpt lat="43.7778798" lon="6.9788058"><ele>563.5</ele><time>2026-05-01T15:55:38.868Z</time></trkpt><trkpt lat="43.7779966" lon="6.978734"><ele>563.25</ele><time>2026-05-01T15:55:39.868Z</time></trkpt><trkpt lat="43.7781314" lon="6.97863"><ele>563.0</ele><time>2026-05-01T15:55:40.868Z</time></trkpt><trkpt lat="43.778244" lon="6.9785391"><ele>563.0</ele><time>2026-05-01T15:55:41.868Z</time></trkpt><trkpt lat="43.7783505" lon="6.9784253"><ele>563.0</ele><time>2026-05-01T15:55:42.868Z</time></trkpt><trkpt lat="43.7785065" lon="6.9782518"><ele>563.0</ele><time>2026-05-01T15:55:43.868Z</time></trkpt><trkpt lat="43.7786481" lon="6.9781134"><ele>562.3333333333333</ele><time>2026-05-01T15:55:44.869Z</time></trkpt><trkpt lat="43.7787782" lon="6.9779795"><ele>561.6666666666666</ele><time>2026-05-01T15:55:45.868Z</time></trkpt><trkpt lat="43.778914" lon="6.9778551"><ele>561.0</ele><time>2026-05-01T15:55:46.868Z</time></trkpt><trkpt lat="43.7790428" lon="6.9777701"><ele>561.0</ele><time>2026-05-01T15:55:47.868Z</time></trkpt><trkpt lat="43.7791712" lon="6.9777459"><ele>561.0</ele><time>2026-05-01T15:55:48.868Z</time></trkpt><trkpt lat="43.7793085" lon="6.9777465"><ele>561.0</ele><time>2026-05-01T15:55:49.868Z</time></trkpt><trkpt lat="43.7794729" lon="6.9777889"><ele>561.0</ele><time>2026-05-01T15:55:50.868Z</time></trkpt><trkpt lat="43.7796157" lon="6.9778119"><ele>562.5</ele><time>2026-05-01T15:55:51.868Z</time></trkpt><trkpt lat="43.7797896" lon="6.9778408"><ele>564.0</ele><time>2026-05-01T15:55:52.868Z</time></trkpt><trkpt lat="43.7798919" lon="6.9778247"><ele>565.5</ele><time>2026-05-01T15:55:53.868Z</time></trkpt><trkpt lat="43.7800348" lon="6.9777188"><ele>567.0</ele><time>2026-05-01T15:55:54.868Z</time></trkpt><trkpt lat="43.7801685" lon="6.9776183"><ele>563.3333333333334</ele><time>2026-05-01T15:55:55.868Z</time></trkpt><trkpt lat="43.7803063" lon="6.9775494"><ele>559.6666666666667</ele><time>2026-05-01T15:55:56.868Z</time></trkpt><trkpt lat="43.7804359" lon="6.9774322"><ele>556.0</ele><time>2026-05-01T15:55:57.868Z</time></trkpt><trkpt lat="43.7805884" lon="6.9773577"><ele>556.0</ele><time>2026-05-01T15:55:58.868Z</time></trkpt><trkpt lat="43.7807528" lon="6.9773047"><ele>556.0</ele><time>2026-05-01T15:55:59.868Z</time></trkpt><trkpt lat="43.7809265" lon="6.9772863"><ele>556.0</ele><time>2026-05-01T15:56:00.868Z</time></trkpt><trkpt lat="43.7810864" lon="6.9773144"><ele>560.0</ele><time>2026-05-01T15:56:01.868Z</time></trkpt><trkpt lat="43.7812796" lon="6.9773485"><ele>564.0</ele><time>2026-05-01T15:56:02.868Z</time></trkpt><trkpt lat="43.781481" lon="6.9773538"><ele>568.0</ele><time>2026-05-01T15:56:03.868Z</time></trkpt><trkpt lat="43.7816544" lon="6.9773764"><ele>568.0</ele><time>2026-05-01T15:56:04.868Z</time></trkpt><trkpt lat="43.781798" lon="6.9773403"><ele>568.0</ele><time>2026-05-01T15:56:05.869Z</time></trkpt><trkpt lat="43.7819228" lon="6.9772572"><ele>568.0</ele><time>2026-05-01T15:56:06.868Z</time></trkpt><trkpt lat="43.7820514" lon="6.977106"><ele>566.0</ele><time>2026-05-01T15:56:07.868Z</time></trkpt><trkpt lat="43.7821909" lon="6.9768697"><ele>564.0</ele><time>2026-05-01T15:56:08.868Z</time></trkpt><trkpt lat="43.7823278" lon="6.9767345"><ele>562.0</ele><time>2026-05-01T15:56:09.868Z</time></trkpt><trkpt lat="43.7825045" lon="6.9765779"><ele>562.0</ele><time>2026-05-01T15:56:10.868Z</time></trkpt><trkpt lat="43.7826404" lon="6.9764717"><ele>562.0</ele><time>2026-05-01T15:56:11.868Z</time></trkpt><trkpt lat="43.782786" lon="6.9763158"><ele>562.0</ele><time>2026-05-01T15:56:12.868Z</time></trkpt><trkpt lat="43.7829179" lon="6.9761376"><ele>560.75</ele><time>2026-05-01T15:56:13.868Z</time></trkpt><trkpt lat="43.7830301" lon="6.9760583"><ele>559.5</ele><time>2026-05-01T15:56:14.868Z</time></trkpt><trkpt lat="43.7831511" lon="6.9759649"><ele>558.25</ele><time>2026-05-01T15:56:15.868Z</time></trkpt><trkpt lat="43.7832929" lon="6.9758784"><ele>557.0</ele><time>2026-05-01T15:56:16.868Z</time></trkpt><trkpt lat="43.7834217" lon="6.9758097"><ele>563.3333333333333</ele><time>2026-05-01T15:56:17.868Z</time></trkpt><trkpt lat="43.7835919" lon="6.9757472"><ele>569.6666666666666</ele><time>2026-05-01T15:56:18.868Z</time></trkpt><trkpt lat="43.7837641" lon="6.9756939"><ele>576.0</ele><time>2026-05-01T15:56:19.868Z</time></trkpt><trkpt lat="43.7839322" lon="6.9756287"><ele>576.0</ele><time>2026-05-01T15:56:20.868Z</time></trkpt><trkpt lat="43.7841072" lon="6.9755225"><ele>576.0</ele><time>2026-05-01T15:56:21.868Z</time></trkpt><trkpt lat="43.7843051" lon="6.9754435"><ele>576.0</ele><time>2026-05-01T15:56:22.868Z</time></trkpt><trkpt lat="43.7844875" lon="6.9753557"><ele>580.3333333333334</ele><time>2026-05-01T15:56:23.868Z</time></trkpt><trkpt lat="43.7846592" lon="6.975283"><ele>584.6666666666667</ele><time>2026-05-01T15:56:24.868Z</time></trkpt><trkpt lat="43.7848566" lon="6.9751854"><ele>589.0</ele><time>2026-05-01T15:56:25.868Z</time></trkpt><trkpt lat="43.7850427" lon="6.9750954"><ele>587.6666666666667</ele><time>2026-05-01T15:56:26.868Z</time></trkpt><trkpt lat="43.7851972" lon="6.9749453"><ele>586.3333333333334</ele><time>2026-05-01T15:56:27.868Z</time></trkpt><trkpt lat="43.7853562" lon="6.9747899"><ele>585.0</ele><time>2026-05-01T15:56:28.868Z</time></trkpt><trkpt lat="43.7855242" lon="6.9746568"><ele>585.0</ele><time>2026-05-01T15:56:29.868Z</time></trkpt><trkpt lat="43.7856757" lon="6.9745227"><ele>585.0</ele><time>2026-05-01T15:56:30.868Z</time></trkpt><trkpt lat="43.7858183" lon="6.9744516"><ele>585.0</ele><time>2026-05-01T15:56:31.868Z</time></trkpt><trkpt lat="43.7859833" lon="6.9744194"><ele>593.3333333333334</ele><time>2026-05-01T15:56:32.868Z</time></trkpt><trkpt lat="43.7861597" lon="6.9743854"><ele>601.6666666666667</ele><time>2026-05-01T15:56:33.868Z</time></trkpt><trkpt lat="43.7863296" lon="6.9742961"><ele>610.0</ele><time>2026-05-01T15:56:34.868Z</time></trkpt><trkpt lat="43.7864624" lon="6.9741946"><ele>606.6666666666667</ele><time>2026-05-01T15:56:35.868Z</time></trkpt><trkpt lat="43.7866164" lon="6.9741345"><ele>603.3333333333334</ele><time>2026-05-01T15:56:36.868Z</time></trkpt><trkpt lat="43.7867645" lon="6.974038"><ele>600.0</ele><time>2026-05-01T15:56:37.868Z</time></trkpt><trkpt lat="43.7869281" lon="6.9739963"><ele>600.0</ele><time>2026-05-01T15:56:38.868Z</time></trkpt><trkpt lat="43.7871026" lon="6.9739024"><ele>600.0</ele><time>2026-05-01T15:56:39.868Z</time></trkpt><trkpt lat="43.7872683" lon="6.9737802"><ele>600.0</ele><time>2026-05-01T15:56:40.868Z</time></trkpt><trkpt lat="43.787432" lon="6.9736663"><ele>600.0</ele><time>2026-05-01T15:56:41.868Z</time></trkpt><trkpt lat="43.7875846" lon="6.9735724"><ele>600.0</ele><time>2026-05-01T15:56:42.868Z</time></trkpt><trkpt lat="43.7877332" lon="6.9734819"><ele>600.0</ele><time>2026-05-01T15:56:43.868Z</time></trkpt><trkpt lat="43.7879025" lon="6.9733203"><ele>602.3333333333334</ele><time>2026-05-01T15:56:44.868Z</time></trkpt><trkpt lat="43.7880502" lon="6.9732176"><ele>604.6666666666667</ele><time>2026-05-01T15:56:45.868Z</time></trkpt><trkpt lat="43.7881705" lon="6.9730857"><ele>607.0</ele><time>2026-05-01T15:56:46.868Z</time></trkpt><trkpt lat="43.788294" lon="6.9729393"><ele>607.0</ele><time>2026-05-01T15:56:47.868Z</time></trkpt><trkpt lat="43.7883966" lon="6.9727862"><ele>607.0</ele><time>2026-05-01T15:56:48.868Z</time></trkpt><trkpt lat="43.7884841" lon="6.9725988"><ele>607.0</ele><time>2026-05-01T15:56:49.868Z</time></trkpt><trkpt lat="43.7885782" lon="6.9723756"><ele>609.6666666666667</ele><time>2026-05-01T15:56:50.868Z</time></trkpt><trkpt lat="43.788652" lon="6.9721627"><ele>612.3333333333334</ele><time>2026-05-01T15:56:51.868Z</time></trkpt><trkpt lat="43.7887094" lon="6.9719115"><ele>615.0</ele><time>2026-05-01T15:56:52.868Z</time></trkpt><trkpt lat="43.7887617" lon="6.9716452"><ele>615.0</ele><time>2026-05-01T15:56:53.869Z</time></trkpt><trkpt lat="43.788799" lon="6.9714488"><ele>615.0</ele><time>2026-05-01T15:56:54.868Z</time></trkpt><trkpt lat="43.7888426" lon="6.9712263"><ele>615.0</ele><time>2026-05-01T15:56:55.868Z</time></trkpt><trkpt lat="43.7888862" lon="6.9710512"><ele>615.0</ele><time>2026-05-01T15:56:56.868Z</time></trkpt><trkpt lat="43.7889527" lon="6.9709182"><ele>613.0</ele><time>2026-05-01T15:56:57.868Z</time></trkpt><trkpt lat="43.7890255" lon="6.9708032"><ele>611.0</ele><time>2026-05-01T15:56:58.868Z</time></trkpt><trkpt lat="43.7891359" lon="6.9707154"><ele>609.0</ele><time>2026-05-01T15:56:59.868Z</time></trkpt><trkpt lat="43.7892468" lon="6.9706287"><ele>607.0</ele><time>2026-05-01T15:57:00.868Z</time></trkpt><trkpt lat="43.7893732" lon="6.9706121"><ele>607.0</ele><time>2026-05-01T15:57:01.868Z</time></trkpt><trkpt lat="43.7894806" lon="6.9706303"><ele>607.0</ele><time>2026-05-01T15:57:02.868Z</time></trkpt><trkpt lat="43.7896266" lon="6.970659"><ele>607.0</ele><time>2026-05-01T15:57:03.869Z</time></trkpt><trkpt lat="43.7897419" lon="6.9706665"><ele>607.0</ele><time>2026-05-01T15:57:04.868Z</time></trkpt><trkpt lat="43.789859" lon="6.970702"><ele>607.0</ele><time>2026-05-01T15:57:05.868Z</time></trkpt><trkpt lat="43.7899781" lon="6.970629"><ele>607.0</ele><time>2026-05-01T15:57:06.868Z</time></trkpt><trkpt lat="43.7900823" lon="6.970599"><ele>607.0</ele><time>2026-05-01T15:57:07.868Z</time></trkpt><trkpt lat="43.7901747" lon="6.9705223"><ele>607.0</ele><time>2026-05-01T15:57:08.868Z</time></trkpt><trkpt lat="43.7902979" lon="6.9704124"><ele>606.6</ele><time>2026-05-01T15:57:09.868Z</time></trkpt><trkpt lat="43.7903657" lon="6.9702652"><ele>606.2</ele><time>2026-05-01T15:57:10.868Z</time></trkpt><trkpt lat="43.790444" lon="6.9701488"><ele>605.8</ele><time>2026-05-01T15:57:11.868Z</time></trkpt><trkpt lat="43.7905197" lon="6.9701109"><ele>605.4</ele><time>2026-05-01T15:57:12.869Z</time></trkpt><trkpt lat="43.790609" lon="6.9700412"><ele>605.0</ele><time>2026-05-01T15:57:14.868Z</time></trkpt><trkpt lat="43.7905922" lon="6.9701814"><ele>605.0</ele><time>2026-05-01T15:57:16.868Z</time></trkpt><trkpt lat="43.7905396" lon="6.970314"><ele>605.0</ele><time>2026-05-01T15:57:17.868Z</time></trkpt><trkpt lat="43.7905175" lon="6.9704315"><ele>605.0</ele><time>2026-05-01T15:57:18.868Z</time></trkpt><trkpt lat="43.7904652" lon="6.9705844"><ele>605.0</ele><time>2026-05-01T15:57:19.868Z</time></trkpt><trkpt lat="43.7904296" lon="6.9708946"><ele>608.25</ele><time>2026-05-01T15:57:20.868Z</time></trkpt><trkpt lat="43.7904354" lon="6.9711343"><ele>611.5</ele><time>2026-05-01T15:57:21.868Z</time></trkpt><trkpt lat="43.7904803" lon="6.9713328"><ele>614.75</ele><time>2026-05-01T15:57:22.868Z</time></trkpt><trkpt lat="43.7905477" lon="6.9714586"><ele>618.0</ele><time>2026-05-01T15:57:23.868Z</time></trkpt><trkpt lat="43.7906681" lon="6.9716597"><ele>619.6666666666666</ele><time>2026-05-01T15:57:24.868Z</time></trkpt><trkpt lat="43.7908151" lon="6.9718132"><ele>621.3333333333333</ele><time>2026-05-01T15:57:25.868Z</time></trkpt><trkpt lat="43.7909712" lon="6.971925"><ele>623.0</ele><time>2026-05-01T15:57:26.868Z</time></trkpt><trkpt lat="43.7911272" lon="6.9720036"><ele>623.0</ele><time>2026-05-01T15:57:27.868Z</time></trkpt><trkpt lat="43.7912565" lon="6.9720879"><ele>623.0</ele><time>2026-05-01T15:57:28.868Z</time></trkpt><trkpt lat="43.7913205" lon="6.9722359"><ele>623.0</ele><time>2026-05-01T15:57:29.868Z</time></trkpt><trkpt lat="43.7913482" lon="6.9723306"><ele>623.0</ele><time>2026-05-01T15:57:30.868Z</time></trkpt><trkpt lat="43.7913656" lon="6.9724562"><ele>623.0</ele><time>2026-05-01T15:57:31.868Z</time></trkpt><trkpt lat="43.7914193" lon="6.9725836"><ele>627.75</ele><time>2026-05-01T15:57:32.868Z</time></trkpt><trkpt lat="43.7914857" lon="6.9727176"><ele>632.5</ele><time>2026-05-01T15:57:33.869Z</time></trkpt><trkpt lat="43.7915624" lon="6.9728426"><ele>637.25</ele><time>2026-05-01T15:57:34.868Z</time></trkpt><trkpt lat="43.7916397" lon="6.9729114"><ele>642.0</ele><time>2026-05-01T15:57:35.868Z</time></trkpt><trkpt lat="43.7917469" lon="6.9730106"><ele>642.5</ele><time>2026-05-01T15:57:36.868Z</time></trkpt><trkpt lat="43.7918612" lon="6.9731385"><ele>643.0</ele><time>2026-05-01T15:57:37.869Z</time></trkpt><trkpt lat="43.7919582" lon="6.9732376"><ele>643.5</ele><time>2026-05-01T15:57:38.868Z</time></trkpt><trkpt lat="43.7920205" lon="6.9734337"><ele>644.0</ele><time>2026-05-01T15:57:39.868Z</time></trkpt><trkpt lat="43.7921116" lon="6.9735711"><ele>644.0</ele><time>2026-05-01T15:57:40.868Z</time></trkpt><trkpt lat="43.7921979" lon="6.9737359"><ele>644.0</ele><time>2026-05-01T15:57:41.868Z</time></trkpt><trkpt lat="43.7922971" lon="6.9738914"><ele>644.0</ele><time>2026-05-01T15:57:42.868Z</time></trkpt><trkpt lat="43.7924389" lon="6.9740336"><ele>644.0</ele><time>2026-05-01T15:57:43.868Z</time></trkpt><trkpt lat="43.7925795" lon="6.9740994"><ele>644.0</ele><time>2026-05-01T15:57:44.868Z</time></trkpt><trkpt lat="43.792704" lon="6.9742175"><ele>644.0</ele><time>2026-05-01T15:57:45.868Z</time></trkpt><trkpt lat="43.7928385" lon="6.9743102"><ele>645.75</ele><time>2026-05-01T15:57:46.868Z</time></trkpt><trkpt lat="43.792978" lon="6.974414"><ele>647.5</ele><time>2026-05-01T15:57:47.868Z</time></trkpt><trkpt lat="43.7930822" lon="6.9744923"><ele>649.25</ele><time>2026-05-01T15:57:48.868Z</time></trkpt><trkpt lat="43.7932014" lon="6.9745517"><ele>651.0</ele><time>2026-05-01T15:57:49.868Z</time></trkpt><trkpt lat="43.7933229" lon="6.9745813"><ele>651.0</ele><time>2026-05-01T15:57:50.868Z</time></trkpt><trkpt lat="43.7934572" lon="6.9746287"><ele>651.0</ele><time>2026-05-01T15:57:51.868Z</time></trkpt><trkpt lat="43.7935687" lon="6.9746546"><ele>651.0</ele><time>2026-05-01T15:57:52.868Z</time></trkpt><trkpt lat="43.7936933" lon="6.9747032"><ele>651.0</ele><time>2026-05-01T15:57:53.868Z</time></trkpt><trkpt lat="43.7938256" lon="6.9746894"><ele>650.5</ele><time>2026-05-01T15:57:54.868Z</time></trkpt><trkpt lat="43.7939339" lon="6.9746146"><ele>650.0</ele><time>2026-05-01T15:57:55.868Z</time></trkpt><trkpt lat="43.7940049" lon="6.9745724"><ele>649.5</ele><time>2026-05-01T15:57:56.868Z</time></trkpt><trkpt lat="43.7940711" lon="6.9743746"><ele>649.0</ele><time>2026-05-01T15:57:57.868Z</time></trkpt><trkpt lat="43.7941299" lon="6.9742298"><ele>649.4000000000001</ele><time>2026-05-01T15:57:58.868Z</time></trkpt><trkpt lat="43.7941738" lon="6.9741013"><ele>649.8</ele><time>2026-05-01T15:57:59.868Z</time></trkpt><trkpt lat="43.794218" lon="6.9739562"><ele>650.2</ele><time>2026-05-01T15:58:00.868Z</time></trkpt><trkpt lat="43.7942235" lon="6.9737961"><ele>650.5999999999999</ele><time>2026-05-01T15:58:01.868Z</time></trkpt><trkpt lat="43.7941613" lon="6.9736678"><ele>651.0</ele><time>2026-05-01T15:58:02.868Z</time></trkpt><trkpt lat="43.7941685" lon="6.973529"><ele>652.0</ele><time>2026-05-01T15:58:03.868Z</time></trkpt><trkpt lat="43.794155" lon="6.9732959"><ele>653.0</ele><time>2026-05-01T15:58:04.868Z</time></trkpt><trkpt lat="43.7941889" lon="6.9731103"><ele>654.0</ele><time>2026-05-01T15:58:05.868Z</time></trkpt><trkpt lat="43.794211" lon="6.9728857"><ele>654.0</ele><time>2026-05-01T15:58:06.868Z</time></trkpt><trkpt lat="43.7942313" lon="6.9726912"><ele>654.0</ele><time>2026-05-01T15:58:07.868Z</time></trkpt><trkpt lat="43.7942749" lon="6.9724541"><ele>654.0</ele><time>2026-05-01T15:58:08.868Z</time></trkpt><trkpt lat="43.7943099" lon="6.9722478"><ele>653.6666666666666</ele><time>2026-05-01T15:58:09.868Z</time></trkpt><trkpt lat="43.794347" lon="6.972003"><ele>653.3333333333333</ele><time>2026-05-01T15:58:10.868Z</time></trkpt><trkpt lat="43.7943249" lon="6.9717768"><ele>653.0</ele><time>2026-05-01T15:58:11.868Z</time></trkpt><trkpt lat="43.794352" lon="6.9715744"><ele>656.4</ele><time>2026-05-01T15:58:12.868Z</time></trkpt><trkpt lat="43.7943789" lon="6.9714907"><ele>659.8</ele><time>2026-05-01T15:58:13.868Z</time></trkpt><trkpt lat="43.7944286" lon="6.9713997"><ele>663.2</ele><time>2026-05-01T15:58:14.868Z</time></trkpt><trkpt lat="43.7944806" lon="6.9712634"><ele>666.6</ele><time>2026-05-01T15:58:15.868Z</time></trkpt><trkpt lat="43.794523" lon="6.971154"><ele>670.0</ele><time>2026-05-01T15:58:16.868Z</time></trkpt><trkpt lat="43.7945346" lon="6.9709848"><ele>670.4</ele><time>2026-05-01T15:58:17.868Z</time></trkpt><trkpt lat="43.7945108" lon="6.9708408"><ele>670.8</ele><time>2026-05-01T15:58:18.868Z</time></trkpt><trkpt lat="43.7945162" lon="6.9707076"><ele>671.2</ele><time>2026-05-01T15:58:19.868Z</time></trkpt><trkpt lat="43.7945589" lon="6.9705546"><ele>671.6</ele><time>2026-05-01T15:58:20.868Z</time></trkpt><trkpt lat="43.7945771" lon="6.9703872"><ele>672.0</ele><time>2026-05-01T15:58:21.868Z</time></trkpt><trkpt lat="43.7946242" lon="6.9702346"><ele>672.0</ele><time>2026-05-01T15:58:22.868Z</time></trkpt><trkpt lat="43.7946657" lon="6.9700963"><ele>672.0</ele><time>2026-05-01T15:58:23.868Z</time></trkpt><trkpt lat="43.7947311" lon="6.9699305"><ele>672.0</ele><time>2026-05-01T15:58:24.868Z</time></trkpt><trkpt lat="43.7947906" lon="6.9697984"><ele>672.0</ele><time>2026-05-01T15:58:25.869Z</time></trkpt><trkpt lat="43.7948483" lon="6.9696594"><ele>671.6</ele><time>2026-05-01T15:58:26.868Z</time></trkpt><trkpt lat="43.7947914" lon="6.9695215"><ele>671.2</ele><time>2026-05-01T15:58:27.868Z</time></trkpt><trkpt lat="43.7947747" lon="6.9694278"><ele>670.8</ele><time>2026-05-01T15:58:28.869Z</time></trkpt><trkpt lat="43.7947447" lon="6.9693192"><ele>670.4</ele><time>2026-05-01T15:58:29.868Z</time></trkpt><trkpt lat="43.7946741" lon="6.9692484"><ele>670.0</ele><time>2026-05-01T15:58:30.868Z</time></trkpt><trkpt lat="43.7945814" lon="6.9691337"><ele>668.6</ele><time>2026-05-01T15:58:31.868Z</time></trkpt><trkpt lat="43.7944997" lon="6.9690774"><ele>667.2</ele><time>2026-05-01T15:58:32.868Z</time></trkpt><trkpt lat="43.794421" lon="6.9690468"><ele>665.8</ele><time>2026-05-01T15:58:33.868Z</time></trkpt><trkpt lat="43.794332" lon="6.9689959"><ele>664.4</ele><time>2026-05-01T15:58:34.868Z</time></trkpt><trkpt lat="43.7942679" lon="6.9688825"><ele>663.0</ele><time>2026-05-01T15:58:35.868Z</time></trkpt><trkpt lat="43.7942438" lon="6.9687607"><ele>663.0</ele><time>2026-05-01T15:58:36.868Z</time></trkpt><trkpt lat="43.7941989" lon="6.9686628"><ele>663.0</ele><time>2026-05-01T15:58:37.868Z</time></trkpt><trkpt lat="43.7942254" lon="6.9685762"><ele>663.0</ele><time>2026-05-01T15:58:39.868Z</time></trkpt><trkpt lat="43.7942602" lon="6.9684402"><ele>663.0</ele><time>2026-05-01T15:58:41.868Z</time></trkpt><trkpt lat="43.794256" lon="6.9683166"><ele>663.0</ele><time>2026-05-01T15:58:42.868Z</time></trkpt><trkpt lat="43.7942536" lon="6.9681396"><ele>665.25</ele><time>2026-05-01T15:58:43.868Z</time></trkpt><trkpt lat="43.7942549" lon="6.9679797"><ele>667.5</ele><time>2026-05-01T15:58:44.868Z</time></trkpt><trkpt lat="43.7942366" lon="6.9677785"><ele>669.75</ele><time>2026-05-01T15:58:45.868Z</time></trkpt><trkpt lat="43.7942148" lon="6.9675711"><ele>672.0</ele><time>2026-05-01T15:58:46.868Z</time></trkpt><trkpt lat="43.7942008" lon="6.9673773"><ele>673.0</ele><time>2026-05-01T15:58:47.868Z</time></trkpt><trkpt lat="43.7941866" lon="6.9671822"><ele>674.0</ele><time>2026-05-01T15:58:48.868Z</time></trkpt><trkpt lat="43.7941683" lon="6.9669738"><ele>675.0</ele><time>2026-05-01T15:58:49.868Z</time></trkpt><trkpt lat="43.7941464" lon="6.9667804"><ele>676.0</ele><time>2026-05-01T15:58:50.868Z</time></trkpt><trkpt lat="43.7941452" lon="6.9665892"><ele>677.5</ele><time>2026-05-01T15:58:51.868Z</time></trkpt><trkpt lat="43.7942067" lon="6.9664136"><ele>679.0</ele><time>2026-05-01T15:58:52.868Z</time></trkpt><trkpt lat="43.7942195" lon="6.9662325"><ele>680.5</ele><time>2026-05-01T15:58:53.868Z</time></trkpt><trkpt lat="43.7942427" lon="6.9660404"><ele>682.0</ele><time>2026-05-01T15:58:54.868Z</time></trkpt><trkpt lat="43.7942766" lon="6.9658012"><ele>682.0</ele><time>2026-05-01T15:58:55.868Z</time></trkpt><trkpt lat="43.7943219" lon="6.9655791"><ele>682.0</ele><time>2026-05-01T15:58:56.868Z</time></trkpt><trkpt lat="43.7944135" lon="6.9653511"><ele>682.0</ele><time>2026-05-01T15:58:57.868Z</time></trkpt><trkpt lat="43.7944699" lon="6.9651402"><ele>691.5</ele><time>2026-05-01T15:58:58.868Z</time></trkpt><trkpt lat="43.7945201" lon="6.9649346"><ele>701.0</ele><time>2026-05-01T15:58:59.868Z</time></trkpt><trkpt lat="43.7945605" lon="6.9647828"><ele>710.5</ele><time>2026-05-01T15:59:00.868Z</time></trkpt><trkpt lat="43.7945826" lon="6.9646217"><ele>720.0</ele><time>2026-05-01T15:59:01.869Z</time></trkpt><trkpt lat="43.7945721" lon="6.9644798"><ele>720.0</ele><time>2026-05-01T15:59:02.868Z</time></trkpt><trkpt lat="43.7945443" lon="6.9643602"><ele>720.0</ele><time>2026-05-01T15:59:03.868Z</time></trkpt><trkpt lat="43.794457" lon="6.9641375"><ele>720.0</ele><time>2026-05-01T15:59:04.868Z</time></trkpt><trkpt lat="43.7944288" lon="6.9639456"><ele>720.0</ele><time>2026-05-01T15:59:05.868Z</time></trkpt><trkpt lat="43.7944172" lon="6.9638048"><ele>720.75</ele><time>2026-05-01T15:59:06.868Z</time></trkpt><trkpt lat="43.7944247" lon="6.9636646"><ele>721.5</ele><time>2026-05-01T15:59:07.868Z</time></trkpt><trkpt lat="43.7944247" lon="6.9635488"><ele>722.25</ele><time>2026-05-01T15:59:08.868Z</time></trkpt><trkpt lat="43.7945406" lon="6.9633787"><ele>723.0</ele><time>2026-05-01T15:59:09.868Z</time></trkpt><trkpt lat="43.7946423" lon="6.9631622"><ele>723.0</ele><time>2026-05-01T15:59:10.868Z</time></trkpt><trkpt lat="43.7947601" lon="6.9629378"><ele>723.0</ele><time>2026-05-01T15:59:11.868Z</time></trkpt><trkpt lat="43.7948332" lon="6.9626612"><ele>723.0</ele><time>2026-05-01T15:59:12.868Z</time></trkpt><trkpt lat="43.7948476" lon="6.9624677"><ele>722.3333333333334</ele><time>2026-05-01T15:59:13.868Z</time></trkpt><trkpt lat="43.7948845" lon="6.962253"><ele>721.6666666666667</ele><time>2026-05-01T15:59:14.868Z</time></trkpt><trkpt lat="43.7949169" lon="6.9620391"><ele>721.0</ele><time>2026-05-01T15:59:15.868Z</time></trkpt><trkpt lat="43.7949352" lon="6.9618329"><ele>721.0</ele><time>2026-05-01T15:59:16.868Z</time></trkpt><trkpt lat="43.7949444" lon="6.9616146"><ele>721.0</ele><time>2026-05-01T15:59:17.868Z</time></trkpt><trkpt lat="43.7949553" lon="6.9614302"><ele>721.0</ele><time>2026-05-01T15:59:18.868Z</time></trkpt><trkpt lat="43.7949201" lon="6.9612607"><ele>721.0</ele><time>2026-05-01T15:59:19.868Z</time></trkpt><trkpt lat="43.7948927" lon="6.9610892"><ele>721.0</ele><time>2026-05-01T15:59:20.868Z</time></trkpt><trkpt lat="43.7948437" lon="6.9609104"><ele>721.0</ele><time>2026-05-01T15:59:21.868Z</time></trkpt><trkpt lat="43.7948745" lon="6.9607719"><ele>721.0</ele><time>2026-05-01T15:59:22.868Z</time></trkpt><trkpt lat="43.7949681" lon="6.9606875"><ele>721.0</ele><time>2026-05-01T15:59:23.868Z</time></trkpt><trkpt lat="43.795044" lon="6.9605864"><ele>721.25</ele><time>2026-05-01T15:59:24.869Z</time></trkpt><trkpt lat="43.7951257" lon="6.9604656"><ele>721.5</ele><time>2026-05-01T15:59:25.868Z</time></trkpt><trkpt lat="43.7952362" lon="6.9603117"><ele>721.75</ele><time>2026-05-01T15:59:26.869Z</time></trkpt><trkpt lat="43.7953091" lon="6.9601611"><ele>722.0</ele><time>2026-05-01T15:59:27.868Z</time></trkpt><trkpt lat="43.7953784" lon="6.9600242"><ele>730.5</ele><time>2026-05-01T15:59:28.868Z</time></trkpt><trkpt lat="43.7954337" lon="6.9598213"><ele>739.0</ele><time>2026-05-01T15:59:29.868Z</time></trkpt><trkpt lat="43.7954267" lon="6.9596361"><ele>747.5</ele><time>2026-05-01T15:59:30.868Z</time></trkpt><trkpt lat="43.7954559" lon="6.9594739"><ele>756.0</ele><time>2026-05-01T15:59:31.868Z</time></trkpt><trkpt lat="43.7955157" lon="6.9593093"><ele>753.0</ele><time>2026-05-01T15:59:32.868Z</time></trkpt><trkpt lat="43.7955753" lon="6.9591451"><ele>750.0</ele><time>2026-05-01T15:59:33.868Z</time></trkpt><trkpt lat="43.7956709" lon="6.9589752"><ele>747.0</ele><time>2026-05-01T15:59:34.869Z</time></trkpt><trkpt lat="43.7957602" lon="6.9588552"><ele>744.0</ele><time>2026-05-01T15:59:35.868Z</time></trkpt><trkpt lat="43.7958674" lon="6.958699"><ele>744.0</ele><time>2026-05-01T15:59:36.868Z</time></trkpt><trkpt lat="43.7960019" lon="6.958535"><ele>744.0</ele><time>2026-05-01T15:59:37.868Z</time></trkpt><trkpt lat="43.7961418" lon="6.9583501"><ele>744.0</ele><time>2026-05-01T15:59:38.868Z</time></trkpt><trkpt lat="43.7962545" lon="6.9581727"><ele>756.3333333333333</ele><time>2026-05-01T15:59:39.868Z</time></trkpt><trkpt lat="43.7963463" lon="6.9580158"><ele>768.6666666666666</ele><time>2026-05-01T15:59:40.868Z</time></trkpt><trkpt lat="43.7963899" lon="6.9578276"><ele>781.0</ele><time>2026-05-01T15:59:41.868Z</time></trkpt><trkpt lat="43.7964333" lon="6.9576021"><ele>776.6666666666666</ele><time>2026-05-01T15:59:42.868Z</time></trkpt><trkpt lat="43.7964669" lon="6.9573581"><ele>772.3333333333333</ele><time>2026-05-01T15:59:43.868Z</time></trkpt><trkpt lat="43.7965152" lon="6.9571101"><ele>768.0</ele><time>2026-05-01T15:59:44.868Z</time></trkpt><trkpt lat="43.7965659" lon="6.9569209"><ele>768.0</ele><time>2026-05-01T15:59:45.868Z</time></trkpt><trkpt lat="43.7966358" lon="6.9567196"><ele>768.0</ele><time>2026-05-01T15:59:46.868Z</time></trkpt><trkpt lat="43.796713" lon="6.9564706"><ele>768.0</ele><time>2026-05-01T15:59:47.868Z</time></trkpt><trkpt lat="43.7967892" lon="6.956205"><ele>764.0</ele><time>2026-05-01T15:59:48.868Z</time></trkpt><trkpt lat="43.7968216" lon="6.9560123"><ele>760.0</ele><time>2026-05-01T15:59:49.868Z</time></trkpt><trkpt lat="43.7968454" lon="6.9558052"><ele>756.0</ele><time>2026-05-01T15:59:50.868Z</time></trkpt><trkpt lat="43.7968435" lon="6.9555835"><ele>755.3333333333334</ele><time>2026-05-01T15:59:51.868Z</time></trkpt><trkpt lat="43.7968198" lon="6.9553889"><ele>754.6666666666667</ele><time>2026-05-01T15:59:52.868Z</time></trkpt><trkpt lat="43.7967511" lon="6.9551744"><ele>754.0</ele><time>2026-05-01T15:59:53.868Z</time></trkpt><trkpt lat="43.7966937" lon="6.9549254"><ele>757.0</ele><time>2026-05-01T15:59:54.868Z</time></trkpt><trkpt lat="43.7966091" lon="6.9546527"><ele>760.0</ele><time>2026-05-01T15:59:55.868Z</time></trkpt><trkpt lat="43.7965444" lon="6.9544634"><ele>763.0</ele><time>2026-05-01T15:59:56.868Z</time></trkpt><trkpt lat="43.7964384" lon="6.9542455"><ele>769.3333333333334</ele><time>2026-05-01T15:59:57.868Z</time></trkpt><trkpt lat="43.7963204" lon="6.9540468"><ele>775.6666666666667</ele><time>2026-05-01T15:59:58.868Z</time></trkpt><trkpt lat="43.796241" lon="6.9538356"><ele>782.0</ele><time>2026-05-01T15:59:59.868Z</time></trkpt><trkpt lat="43.796161" lon="6.9536789"><ele>782.0</ele><time>2026-05-01T16:00:00.868Z</time></trkpt><trkpt lat="43.7960905" lon="6.9534867"><ele>782.0</ele><time>2026-05-01T16:00:01.868Z</time></trkpt><trkpt lat="43.7960224" lon="6.9532454"><ele>782.0</ele><time>2026-05-01T16:00:02.868Z</time></trkpt><trkpt lat="43.7959409" lon="6.9530399"><ele>778.25</ele><time>2026-05-01T16:00:03.868Z</time></trkpt><trkpt lat="43.7958578" lon="6.9528309"><ele>774.5</ele><time>2026-05-01T16:00:04.868Z</time></trkpt><trkpt lat="43.7957785" lon="6.9526791"><ele>770.75</ele><time>2026-05-01T16:00:05.868Z</time></trkpt><trkpt lat="43.7957516" lon="6.9525916"><ele>767.0</ele><time>2026-05-01T16:00:06.868Z</time></trkpt><trkpt lat="43.7956903" lon="6.952452"><ele>767.0</ele><time>2026-05-01T16:00:08.868Z</time></trkpt><trkpt lat="43.7956447" lon="6.9523659"><ele>767.0</ele><time>2026-05-01T16:00:09.868Z</time></trkpt><trkpt lat="43.7956345" lon="6.9522759"><ele>767.0</ele><time>2026-05-01T16:00:11.868Z</time></trkpt><trkpt lat="43.7957068" lon="6.9522764"><ele>767.0</ele><time>2026-05-01T16:00:13.868Z</time></trkpt><trkpt lat="43.7957739" lon="6.9523212"><ele>767.0</ele><time>2026-05-01T16:00:14.868Z</time></trkpt><trkpt lat="43.7958702" lon="6.9524381"><ele>767.0</ele><time>2026-05-01T16:00:15.868Z</time></trkpt><trkpt lat="43.795942" lon="6.9525284"><ele>778.3333333333333</ele><time>2026-05-01T16:00:16.868Z</time></trkpt><trkpt lat="43.7960705" lon="6.9527201"><ele>789.6666666666666</ele><time>2026-05-01T16:00:17.869Z</time></trkpt><trkpt lat="43.7962245" lon="6.9528818"><ele>801.0</ele><time>2026-05-01T16:00:18.868Z</time></trkpt><trkpt lat="43.7963313" lon="6.9530297"><ele>801.0</ele><time>2026-05-01T16:00:19.868Z</time></trkpt><trkpt lat="43.7964378" lon="6.9531897"><ele>801.0</ele><time>2026-05-01T16:00:20.868Z</time></trkpt><trkpt lat="43.7965527" lon="6.9533689"><ele>801.0</ele><time>2026-05-01T16:00:21.868Z</time></trkpt><trkpt lat="43.7966656" lon="6.953532"><ele>794.6666666666667</ele><time>2026-05-01T16:00:22.868Z</time></trkpt><trkpt lat="43.7966769" lon="6.9537123"><ele>788.3333333333334</ele><time>2026-05-01T16:00:23.868Z</time></trkpt><trkpt lat="43.7968037" lon="6.9539936"><ele>782.0</ele><time>2026-05-01T16:00:24.868Z</time></trkpt><trkpt lat="43.7969571" lon="6.954201"><ele>797.0</ele><time>2026-05-01T16:00:25.868Z</time></trkpt><trkpt lat="43.7970746" lon="6.9543959"><ele>812.0</ele><time>2026-05-01T16:00:26.868Z</time></trkpt><trkpt lat="43.7971677" lon="6.9545205"><ele>827.0</ele><time>2026-05-01T16:00:27.868Z</time></trkpt><trkpt lat="43.7972535" lon="6.9546965"><ele>827.0000000000001</ele><time>2026-05-01T16:00:28.868Z</time></trkpt><trkpt lat="43.7972276" lon="6.9548342"><ele>827.0</ele><time>2026-05-01T16:00:29.868Z</time></trkpt><trkpt lat="43.797266" lon="6.9549191"><ele>827.0</ele><time>2026-05-01T16:00:31.868Z</time></trkpt><trkpt lat="43.7972991" lon="6.9548004"><ele>827.0</ele><time>2026-05-01T16:00:34.868Z</time></trkpt><trkpt lat="43.7972772" lon="6.9546969"><ele>827.0000000000001</ele><time>2026-05-01T16:00:35.868Z</time></trkpt><trkpt lat="43.7972659" lon="6.9545698"><ele>827.0</ele><time>2026-05-01T16:00:36.868Z</time></trkpt><trkpt lat="43.7972336" lon="6.9543999"><ele>827.0</ele><time>2026-05-01T16:00:37.868Z</time></trkpt><trkpt lat="43.7972056" lon="6.9543175"><ele>827.0</ele><time>2026-05-01T16:00:38.868Z</time></trkpt><trkpt lat="43.7971838" lon="6.9542015"><ele>827.0</ele><time>2026-05-01T16:00:39.868Z</time></trkpt><trkpt lat="43.7971586" lon="6.953953"><ele>827.0</ele><time>2026-05-01T16:00:40.868Z</time></trkpt><trkpt lat="43.7971297" lon="6.9537038"><ele>831.75</ele><time>2026-05-01T16:00:41.868Z</time></trkpt><trkpt lat="43.7971527" lon="6.9535193"><ele>836.5</ele><time>2026-05-01T16:00:42.868Z</time></trkpt><trkpt lat="43.7971728" lon="6.9532964"><ele>841.25</ele><time>2026-05-01T16:00:43.868Z</time></trkpt><trkpt lat="43.797123" lon="6.9531327"><ele>846.0</ele><time>2026-05-01T16:00:44.868Z</time></trkpt><trkpt lat="43.7970797" lon="6.9530081"><ele>849.0</ele><time>2026-05-01T16:00:45.868Z</time></trkpt><trkpt lat="43.7969747" lon="6.9527546"><ele>852.0</ele><time>2026-05-01T16:00:46.868Z</time></trkpt><trkpt lat="43.7969705" lon="6.9525407"><ele>855.0</ele><time>2026-05-01T16:00:47.868Z</time></trkpt><trkpt lat="43.7969406" lon="6.9523335"><ele>855.0</ele><time>2026-05-01T16:00:48.868Z</time></trkpt><trkpt lat="43.7969338" lon="6.9521256"><ele>855.0</ele><time>2026-05-01T16:00:49.868Z</time></trkpt><trkpt lat="43.7969036" lon="6.9518926"><ele>855.0</ele><time>2026-05-01T16:00:50.868Z</time></trkpt><trkpt lat="43.7968849" lon="6.9516705"><ele>852.25</ele><time>2026-05-01T16:00:51.868Z</time></trkpt><trkpt lat="43.7968841" lon="6.9514929"><ele>849.5</ele><time>2026-05-01T16:00:52.869Z</time></trkpt><trkpt lat="43.7968606" lon="6.951297"><ele>846.75</ele><time>2026-05-01T16:00:53.868Z</time></trkpt><trkpt lat="43.7967756" lon="6.9510984"><ele>844.0</ele><time>2026-05-01T16:00:54.868Z</time></trkpt><trkpt lat="43.7967062" lon="6.9508947"><ele>833.0</ele><time>2026-05-01T16:00:55.868Z</time></trkpt><trkpt lat="43.7966537" lon="6.9506828"><ele>822.0</ele><time>2026-05-01T16:00:56.868Z</time></trkpt><trkpt lat="43.7966424" lon="6.9504786"><ele>811.0</ele><time>2026-05-01T16:00:57.868Z</time></trkpt><trkpt lat="43.7966462" lon="6.9503098"><ele>800.0</ele><time>2026-05-01T16:00:58.868Z</time></trkpt><trkpt lat="43.796666" lon="6.9500962"><ele>801.25</ele><time>2026-05-01T16:00:59.868Z</time></trkpt><trkpt lat="43.7967232" lon="6.9499119"><ele>802.5</ele><time>2026-05-01T16:01:00.868Z</time></trkpt><trkpt lat="43.7967589" lon="6.9497393"><ele>803.75</ele><time>2026-05-01T16:01:01.868Z</time></trkpt><trkpt lat="43.796792" lon="6.9495579"><ele>805.0</ele><time>2026-05-01T16:01:02.868Z</time></trkpt><trkpt lat="43.7967971" lon="6.9493872"><ele>806.25</ele><time>2026-05-01T16:01:03.868Z</time></trkpt><trkpt lat="43.7968148" lon="6.949206"><ele>807.5</ele><time>2026-05-01T16:01:04.868Z</time></trkpt><trkpt lat="43.7968523" lon="6.9490093"><ele>808.75</ele><time>2026-05-01T16:01:05.868Z</time></trkpt><trkpt lat="43.7968414" lon="6.9488217"><ele>810.0</ele><time>2026-05-01T16:01:06.868Z</time></trkpt><trkpt lat="43.7968411" lon="6.9486201"><ele>810.0</ele><time>2026-05-01T16:01:07.868Z</time></trkpt><trkpt lat="43.7968071" lon="6.9484584"><ele>810.0</ele><time>2026-05-01T16:01:08.868Z</time></trkpt><trkpt lat="43.7967799" lon="6.9482904"><ele>810.0</ele><time>2026-05-01T16:01:09.869Z</time></trkpt><trkpt lat="43.7967809" lon="6.9481263"><ele>810.0</ele><time>2026-05-01T16:01:10.868Z</time></trkpt><trkpt lat="43.7967533" lon="6.9479624"><ele>811.25</ele><time>2026-05-01T16:01:11.868Z</time></trkpt><trkpt lat="43.7967349" lon="6.9477648"><ele>812.5</ele><time>2026-05-01T16:01:12.868Z</time></trkpt><trkpt lat="43.7967233" lon="6.947608"><ele>813.75</ele><time>2026-05-01T16:01:13.868Z</time></trkpt><trkpt lat="43.7966955" lon="6.9474469"><ele>815.0</ele><time>2026-05-01T16:01:14.868Z</time></trkpt><trkpt lat="43.7966345" lon="6.947227"><ele>817.0</ele><time>2026-05-01T16:01:15.869Z</time></trkpt><trkpt lat="43.7966133" lon="6.9470168"><ele>819.0</ele><time>2026-05-01T16:01:16.868Z</time></trkpt><trkpt lat="43.796585" lon="6.9468436"><ele>821.0</ele><time>2026-05-01T16:01:17.868Z</time></trkpt><trkpt lat="43.7965265" lon="6.9466296"><ele>823.0</ele><time>2026-05-01T16:01:18.868Z</time></trkpt><trkpt lat="43.7965035" lon="6.9464648"><ele>826.25</ele><time>2026-05-01T16:01:19.868Z</time></trkpt><trkpt lat="43.7964481" lon="6.9462837"><ele>829.5</ele><time>2026-05-01T16:01:20.868Z</time></trkpt><trkpt lat="43.7963933" lon="6.9461459"><ele>832.75</ele><time>2026-05-01T16:01:21.868Z</time></trkpt><trkpt lat="43.7963587" lon="6.9460159"><ele>836.0</ele><time>2026-05-01T16:01:22.869Z</time></trkpt><trkpt lat="43.796296" lon="6.9459022"><ele>837.8333333333334</ele><time>2026-05-01T16:01:23.868Z</time></trkpt><trkpt lat="43.7962586" lon="6.9457596"><ele>839.6666666666667</ele><time>2026-05-01T16:01:24.868Z</time></trkpt><trkpt lat="43.7962146" lon="6.9456827"><ele>841.5</ele><time>2026-05-01T16:01:25.868Z</time></trkpt><trkpt lat="43.796167" lon="6.9455782"><ele>843.3333333333333</ele><time>2026-05-01T16:01:26.868Z</time></trkpt><trkpt lat="43.7961464" lon="6.9454717"><ele>845.1666666666666</ele><time>2026-05-01T16:01:27.868Z</time></trkpt><trkpt lat="43.7961233" lon="6.945362"><ele>847.0</ele><time>2026-05-01T16:01:28.868Z</time></trkpt><trkpt lat="43.7960992" lon="6.9452679"><ele>847.0</ele><time>2026-05-01T16:01:29.868Z</time></trkpt><trkpt lat="43.7961047" lon="6.945133"><ele>847.0</ele><time>2026-05-01T16:01:30.868Z</time></trkpt><trkpt lat="43.7960892" lon="6.9450072"><ele>847.0</ele><time>2026-05-01T16:01:31.868Z</time></trkpt><trkpt lat="43.7961109" lon="6.9448593"><ele>847.0</ele><time>2026-05-01T16:01:32.867Z</time></trkpt><trkpt lat="43.7961298" lon="6.9446908"><ele>847.0</ele><time>2026-05-01T16:01:33.868Z</time></trkpt><trkpt lat="43.7961644" lon="6.9445428"><ele>849.2</ele><time>2026-05-01T16:01:34.869Z</time></trkpt><trkpt lat="43.7961788" lon="6.9443928"><ele>851.4000000000001</ele><time>2026-05-01T16:01:35.868Z</time></trkpt><trkpt lat="43.7962036" lon="6.9442396"><ele>853.5999999999999</ele><time>2026-05-01T16:01:36.868Z</time></trkpt><trkpt lat="43.7962148" lon="6.9441127"><ele>855.8</ele><time>2026-05-01T16:01:37.868Z</time></trkpt><trkpt lat="43.7962487" lon="6.9439752"><ele>858.0</ele><time>2026-05-01T16:01:38.868Z</time></trkpt><trkpt lat="43.7962828" lon="6.9438611"><ele>858.0</ele><time>2026-05-01T16:01:39.868Z</time></trkpt><trkpt lat="43.7963064" lon="6.9437201"><ele>858.0</ele><time>2026-05-01T16:01:40.868Z</time></trkpt><trkpt lat="43.7963166" lon="6.943546"><ele>858.0</ele><time>2026-05-01T16:01:41.868Z</time></trkpt><trkpt lat="43.7963572" lon="6.9434079"><ele>858.0</ele><time>2026-05-01T16:01:42.868Z</time></trkpt><trkpt lat="43.7964023" lon="6.9432563"><ele>857.25</ele><time>2026-05-01T16:01:43.868Z</time></trkpt><trkpt lat="43.7964508" lon="6.9430853"><ele>856.5</ele><time>2026-05-01T16:01:44.868Z</time></trkpt><trkpt lat="43.796502" lon="6.9429272"><ele>855.75</ele><time>2026-05-01T16:01:45.868Z</time></trkpt><trkpt lat="43.7965685" lon="6.9427582"><ele>855.0</ele><time>2026-05-01T16:01:46.868Z</time></trkpt><trkpt lat="43.7966068" lon="6.9426193"><ele>853.75</ele><time>2026-05-01T16:01:47.868Z</time></trkpt><trkpt lat="43.7966457" lon="6.9424122"><ele>852.5</ele><time>2026-05-01T16:01:48.868Z</time></trkpt><trkpt lat="43.7966701" lon="6.9422535"><ele>851.25</ele><time>2026-05-01T16:01:49.868Z</time></trkpt><trkpt lat="43.7966714" lon="6.942081"><ele>850.0</ele><time>2026-05-01T16:01:50.868Z</time></trkpt><trkpt lat="43.796714" lon="6.9419304"><ele>850.0</ele><time>2026-05-01T16:01:52.868Z</time></trkpt><trkpt lat="43.7967575" lon="6.9418207"><ele>850.0</ele><time>2026-05-01T16:01:53.868Z</time></trkpt><trkpt lat="43.7967962" lon="6.9417162"><ele>850.0</ele><time>2026-05-01T16:01:54.868Z</time></trkpt><trkpt lat="43.7968518" lon="6.9416012"><ele>850.0</ele><time>2026-05-01T16:01:55.868Z</time></trkpt><trkpt lat="43.7969239" lon="6.9414746"><ele>850.0</ele><time>2026-05-01T16:01:56.868Z</time></trkpt><trkpt lat="43.7969585" lon="6.9413525"><ele>854.75</ele><time>2026-05-01T16:01:57.868Z</time></trkpt><trkpt lat="43.7969987" lon="6.9412053"><ele>859.5</ele><time>2026-05-01T16:01:58.868Z</time></trkpt><trkpt lat="43.7970438" lon="6.9410361"><ele>864.25</ele><time>2026-05-01T16:01:59.868Z</time></trkpt><trkpt lat="43.7970908" lon="6.9408237"><ele>869.0</ele><time>2026-05-01T16:02:00.868Z</time></trkpt><trkpt lat="43.7971204" lon="6.9406469"><ele>869.0</ele><time>2026-05-01T16:02:01.868Z</time></trkpt><trkpt lat="43.7971411" lon="6.9404941"><ele>869.0000000000001</ele><time>2026-05-01T16:02:02.868Z</time></trkpt><trkpt lat="43.7971501" lon="6.9403844"><ele>869.0000000000001</ele><time>2026-05-01T16:02:03.869Z</time></trkpt><trkpt lat="43.7971267" lon="6.9402755"><ele>869.0</ele><time>2026-05-01T16:02:04.868Z</time></trkpt><trkpt lat="43.7971512" lon="6.9401057"><ele>869.0</ele><time>2026-05-01T16:02:06.869Z</time></trkpt><trkpt lat="43.7971426" lon="6.9399504"><ele>867.5</ele><time>2026-05-01T16:02:07.868Z</time></trkpt><trkpt lat="43.7971292" lon="6.9397697"><ele>866.0</ele><time>2026-05-01T16:02:08.868Z</time></trkpt><trkpt lat="43.7971198" lon="6.9395561"><ele>864.5</ele><time>2026-05-01T16:02:09.868Z</time></trkpt><trkpt lat="43.7971037" lon="6.9393727"><ele>863.0</ele><time>2026-05-01T16:02:10.868Z</time></trkpt><trkpt lat="43.7970921" lon="6.9391808"><ele>863.0</ele><time>2026-05-01T16:02:11.868Z</time></trkpt><trkpt lat="43.7970753" lon="6.9390579"><ele>863.0</ele><time>2026-05-01T16:02:12.868Z</time></trkpt><trkpt lat="43.7970962" lon="6.9389174"><ele>863.0</ele><time>2026-05-01T16:02:13.868Z</time></trkpt><trkpt lat="43.7971178" lon="6.9387447"><ele>863.0</ele><time>2026-05-01T16:02:14.868Z</time></trkpt><trkpt lat="43.7972195" lon="6.9386661"><ele>863.0</ele><time>2026-05-01T16:02:15.868Z</time></trkpt><trkpt lat="43.7972844" lon="6.938585"><ele>863.0000000000001</ele><time>2026-05-01T16:02:16.869Z</time></trkpt><trkpt lat="43.7973477" lon="6.9385183"><ele>863.0</ele><time>2026-05-01T16:02:17.868Z</time></trkpt><trkpt lat="43.7974463" lon="6.9385064"><ele>863.0</ele><time>2026-05-01T16:02:18.868Z</time></trkpt><trkpt lat="43.7975121" lon="6.9384898"><ele>863.0</ele><time>2026-05-01T16:02:19.868Z</time></trkpt><trkpt lat="43.7975715" lon="6.9385257"><ele>863.0000000000001</ele><time>2026-05-01T16:02:20.868Z</time></trkpt><trkpt lat="43.7976319" lon="6.9386088"><ele>863.0</ele><time>2026-05-01T16:02:21.868Z</time></trkpt><trkpt lat="43.7976662" lon="6.9387203"><ele>868.5</ele><time>2026-05-01T16:02:22.868Z</time></trkpt><trkpt lat="43.7976963" lon="6.9388861"><ele>874.0</ele><time>2026-05-01T16:02:23.868Z</time></trkpt><trkpt lat="43.797744" lon="6.9390803"><ele>879.5</ele><time>2026-05-01T16:02:24.869Z</time></trkpt><trkpt lat="43.7977715" lon="6.9392618"><ele>885.0</ele><time>2026-05-01T16:02:25.868Z</time></trkpt><trkpt lat="43.7977656" lon="6.9394221"><ele>886.25</ele><time>2026-05-01T16:02:26.868Z</time></trkpt><trkpt lat="43.7977576" lon="6.9395755"><ele>887.5</ele><time>2026-05-01T16:02:27.868Z</time></trkpt><trkpt lat="43.7977289" lon="6.9397498"><ele>888.75</ele><time>2026-05-01T16:02:28.868Z</time></trkpt><trkpt lat="43.7977156" lon="6.9399151"><ele>890.0</ele><time>2026-05-01T16:02:29.868Z</time></trkpt><trkpt lat="43.7976712" lon="6.9400984"><ele>884.75</ele><time>2026-05-01T16:02:30.868Z</time></trkpt><trkpt lat="43.7976121" lon="6.9402377"><ele>879.5</ele><time>2026-05-01T16:02:31.868Z</time></trkpt><trkpt lat="43.7975596" lon="6.9403943"><ele>874.25</ele><time>2026-05-01T16:02:32.868Z</time></trkpt><trkpt lat="43.7975139" lon="6.9405569"><ele>869.0</ele><time>2026-05-01T16:02:33.868Z</time></trkpt><trkpt lat="43.7975115" lon="6.9407259"><ele>870.5</ele><time>2026-05-01T16:02:34.868Z</time></trkpt><trkpt lat="43.7975043" lon="6.9409022"><ele>872.0</ele><time>2026-05-01T16:02:35.868Z</time></trkpt><trkpt lat="43.7974959" lon="6.9410836"><ele>873.5</ele><time>2026-05-01T16:02:36.868Z</time></trkpt><trkpt lat="43.7974675" lon="6.9412597"><ele>875.0</ele><time>2026-05-01T16:02:37.868Z</time></trkpt><trkpt lat="43.7974473" lon="6.9414341"><ele>875.0</ele><time>2026-05-01T16:02:38.868Z</time></trkpt><trkpt lat="43.797422" lon="6.941616"><ele>875.0</ele><time>2026-05-01T16:02:39.868Z</time></trkpt><trkpt lat="43.7973928" lon="6.9418327"><ele>875.0</ele><time>2026-05-01T16:02:40.868Z</time></trkpt><trkpt lat="43.7973671" lon="6.9420064"><ele>875.0</ele><time>2026-05-01T16:02:41.868Z</time></trkpt><trkpt lat="43.7973456" lon="6.9421913"><ele>876.5</ele><time>2026-05-01T16:02:42.868Z</time></trkpt><trkpt lat="43.7973433" lon="6.9423714"><ele>878.0</ele><time>2026-05-01T16:02:43.868Z</time></trkpt><trkpt lat="43.7973233" lon="6.9425462"><ele>879.5</ele><time>2026-05-01T16:02:44.868Z</time></trkpt><trkpt lat="43.7973468" lon="6.9427695"><ele>881.0</ele><time>2026-05-01T16:02:45.868Z</time></trkpt><trkpt lat="43.7973528" lon="6.9429298"><ele>881.75</ele><time>2026-05-01T16:02:46.868Z</time></trkpt><trkpt lat="43.7973693" lon="6.9431309"><ele>882.5</ele><time>2026-05-01T16:02:47.868Z</time></trkpt><trkpt lat="43.7973982" lon="6.9432867"><ele>883.25</ele><time>2026-05-01T16:02:48.868Z</time></trkpt><trkpt lat="43.7973983" lon="6.9434335"><ele>884.0</ele><time>2026-05-01T16:02:49.868Z</time></trkpt><trkpt lat="43.7974017" lon="6.9435728"><ele>884.1666666666667</ele><time>2026-05-01T16:02:50.868Z</time></trkpt><trkpt lat="43.7974137" lon="6.9437334"><ele>884.3333333333334</ele><time>2026-05-01T16:02:51.868Z</time></trkpt><trkpt lat="43.797404" lon="6.9438392"><ele>884.5</ele><time>2026-05-01T16:02:52.868Z</time></trkpt><trkpt lat="43.7973986" lon="6.9439415"><ele>884.6666666666667</ele><time>2026-05-01T16:02:53.868Z</time></trkpt><trkpt lat="43.7974513" lon="6.9440251"><ele>884.8333333333334</ele><time>2026-05-01T16:02:54.868Z</time></trkpt><trkpt lat="43.7974996" lon="6.9441133"><ele>885.0</ele><time>2026-05-01T16:02:55.868Z</time></trkpt><trkpt lat="43.7975727" lon="6.9441161"><ele>885.0</ele><time>2026-05-01T16:02:57.868Z</time></trkpt><trkpt lat="43.7976369" lon="6.9439634"><ele>885.0</ele><time>2026-05-01T16:02:59.868Z</time></trkpt><trkpt lat="43.7977" lon="6.9437974"><ele>885.0</ele><time>2026-05-01T16:03:00.869Z</time></trkpt><trkpt lat="43.7978066" lon="6.943608"><ele>885.0</ele><time>2026-05-01T16:03:01.868Z</time></trkpt><trkpt lat="43.7978187" lon="6.943358"><ele>893.6666666666667</ele><time>2026-05-01T16:03:02.868Z</time></trkpt><trkpt lat="43.7978714" lon="6.94314"><ele>902.3333333333334</ele><time>2026-05-01T16:03:03.869Z</time></trkpt><trkpt lat="43.7978318" lon="6.9429339"><ele>911.0</ele><time>2026-05-01T16:03:04.868Z</time></trkpt><trkpt lat="43.7977941" lon="6.942747"><ele>911.0</ele><time>2026-05-01T16:03:05.868Z</time></trkpt><trkpt lat="43.797767" lon="6.9425661"><ele>911.0</ele><time>2026-05-01T16:03:06.868Z</time></trkpt><trkpt lat="43.797755" lon="6.9423857"><ele>911.0</ele><time>2026-05-01T16:03:07.868Z</time></trkpt><trkpt lat="43.797773" lon="6.9422453"><ele>911.0</ele><time>2026-05-01T16:03:08.868Z</time></trkpt><trkpt lat="43.7978901" lon="6.9421857"><ele>910.0</ele><time>2026-05-01T16:03:09.868Z</time></trkpt><trkpt lat="43.7979693" lon="6.9420866"><ele>909.0</ele><time>2026-05-01T16:03:10.868Z</time></trkpt><trkpt lat="43.7980742" lon="6.9419974"><ele>908.0</ele><time>2026-05-01T16:03:11.868Z</time></trkpt><trkpt lat="43.7981562" lon="6.9418628"><ele>907.0</ele><time>2026-05-01T16:03:12.868Z</time></trkpt><trkpt lat="43.7982382" lon="6.9416849"><ele>906.3333333333333</ele><time>2026-05-01T16:03:13.869Z</time></trkpt><trkpt lat="43.7983043" lon="6.9414976"><ele>905.6666666666667</ele><time>2026-05-01T16:03:14.868Z</time></trkpt><trkpt lat="43.7983591" lon="6.9412784"><ele>905.0</ele><time>2026-05-01T16:03:15.868Z</time></trkpt><trkpt lat="43.7984246" lon="6.9410875"><ele>915.3333333333334</ele><time>2026-05-01T16:03:16.868Z</time></trkpt><trkpt lat="43.7985041" lon="6.9409085"><ele>925.6666666666667</ele><time>2026-05-01T16:03:17.868Z</time></trkpt><trkpt lat="43.798615" lon="6.9406664"><ele>936.0</ele><time>2026-05-01T16:03:18.869Z</time></trkpt><trkpt lat="43.7987037" lon="6.9404692"><ele>936.3333333333333</ele><time>2026-05-01T16:03:19.868Z</time></trkpt><trkpt lat="43.7987997" lon="6.940249"><ele>936.6666666666666</ele><time>2026-05-01T16:03:20.868Z</time></trkpt><trkpt lat="43.7988755" lon="6.940046"><ele>937.0</ele><time>2026-05-01T16:03:21.868Z</time></trkpt><trkpt lat="43.7989494" lon="6.939853"><ele>934.75</ele><time>2026-05-01T16:03:22.868Z</time></trkpt><trkpt lat="43.7990238" lon="6.9396852"><ele>932.5</ele><time>2026-05-01T16:03:23.868Z</time></trkpt><trkpt lat="43.7990956" lon="6.9395021"><ele>930.25</ele><time>2026-05-01T16:03:24.868Z</time></trkpt><trkpt lat="43.7991485" lon="6.939317"><ele>928.0</ele><time>2026-05-01T16:03:25.868Z</time></trkpt><trkpt lat="43.7991687" lon="6.9391372"><ele>928.0</ele><time>2026-05-01T16:03:26.868Z</time></trkpt><trkpt lat="43.7991503" lon="6.9389669"><ele>928.0</ele><time>2026-05-01T16:03:27.868Z</time></trkpt><trkpt lat="43.7991081" lon="6.9387971"><ele>928.0</ele><time>2026-05-01T16:03:28.868Z</time></trkpt><trkpt lat="43.7990414" lon="6.9386102"><ele>928.0</ele><time>2026-05-01T16:03:29.868Z</time></trkpt><trkpt lat="43.7989157" lon="6.9383437"><ele>931.0</ele><time>2026-05-01T16:03:30.868Z</time></trkpt><trkpt lat="43.7988416" lon="6.9381347"><ele>934.0</ele><time>2026-05-01T16:03:31.868Z</time></trkpt><trkpt lat="43.7987672" lon="6.9379034"><ele>937.0</ele><time>2026-05-01T16:03:32.868Z</time></trkpt><trkpt lat="43.7986921" lon="6.937693"><ele>941.6666666666666</ele><time>2026-05-01T16:03:33.868Z</time></trkpt><trkpt lat="43.7986333" lon="6.9374939"><ele>946.3333333333333</ele><time>2026-05-01T16:03:34.868Z</time></trkpt><trkpt lat="43.7985991" lon="6.9372625"><ele>951.0</ele><time>2026-05-01T16:03:35.868Z</time></trkpt><trkpt lat="43.7985574" lon="6.9370264"><ele>951.0</ele><time>2026-05-01T16:03:36.868Z</time></trkpt><trkpt lat="43.7985315" lon="6.9367869"><ele>951.0</ele><time>2026-05-01T16:03:37.868Z</time></trkpt><trkpt lat="43.7985078" lon="6.9365427"><ele>951.0</ele><time>2026-05-01T16:03:38.868Z</time></trkpt><trkpt lat="43.7984734" lon="6.9363157"><ele>943.0</ele><time>2026-05-01T16:03:39.868Z</time></trkpt><trkpt lat="43.7984382" lon="6.9360793"><ele>935.0</ele><time>2026-05-01T16:03:40.868Z</time></trkpt><trkpt lat="43.7983964" lon="6.9358671"><ele>927.0</ele><time>2026-05-01T16:03:41.868Z</time></trkpt><trkpt lat="43.7983866" lon="6.9356213"><ele>927.0</ele><time>2026-05-01T16:03:42.868Z</time></trkpt><trkpt lat="43.7983605" lon="6.9353596"><ele>927.0</ele><time>2026-05-01T16:03:43.868Z</time></trkpt><trkpt lat="43.7983736" lon="6.9351325"><ele>927.0</ele><time>2026-05-01T16:03:44.868Z</time></trkpt><trkpt lat="43.7983843" lon="6.9348854"><ele>928.5</ele><time>2026-05-01T16:03:45.868Z</time></trkpt><trkpt lat="43.7983729" lon="6.9346884"><ele>930.0</ele><time>2026-05-01T16:03:46.868Z</time></trkpt><trkpt lat="43.7983645" lon="6.934485"><ele>931.5</ele><time>2026-05-01T16:03:47.869Z</time></trkpt><trkpt lat="43.7983254" lon="6.9342971"><ele>933.0</ele><time>2026-05-01T16:03:48.868Z</time></trkpt><trkpt lat="43.7982601" lon="6.934057"><ele>940.0</ele><time>2026-05-01T16:03:49.868Z</time></trkpt><trkpt lat="43.7981979" lon="6.9338071"><ele>947.0</ele><time>2026-05-01T16:03:50.868Z</time></trkpt><trkpt lat="43.7981257" lon="6.9335588"><ele>954.0</ele><time>2026-05-01T16:03:51.868Z</time></trkpt><trkpt lat="43.7980682" lon="6.9333001"><ele>958.0</ele><time>2026-05-01T16:03:52.868Z</time></trkpt><trkpt lat="43.7980248" lon="6.9330509"><ele>962.0</ele><time>2026-05-01T16:03:53.868Z</time></trkpt><trkpt lat="43.7979649" lon="6.9328325"><ele>966.0</ele><time>2026-05-01T16:03:54.868Z</time></trkpt><trkpt lat="43.7978458" lon="6.9326567"><ele>971.0</ele><time>2026-05-01T16:03:55.868Z</time></trkpt><trkpt lat="43.797756" lon="6.9324791"><ele>976.0</ele><time>2026-05-01T16:03:56.868Z</time></trkpt><trkpt lat="43.7976622" lon="6.9323118"><ele>981.0</ele><time>2026-05-01T16:03:57.869Z</time></trkpt><trkpt lat="43.7975548" lon="6.9321165"><ele>972.6666666666667</ele><time>2026-05-01T16:03:58.868Z</time></trkpt><trkpt lat="43.7974903" lon="6.9319091"><ele>964.3333333333334</ele><time>2026-05-01T16:03:59.868Z</time></trkpt><trkpt lat="43.7974775" lon="6.931739"><ele>956.0</ele><time>2026-05-01T16:04:00.868Z</time></trkpt><trkpt lat="43.7974674" lon="6.9315061"><ele>956.0</ele><time>2026-05-01T16:04:01.868Z</time></trkpt><trkpt lat="43.7974666" lon="6.9312363"><ele>956.0</ele><time>2026-05-01T16:04:02.868Z</time></trkpt><trkpt lat="43.7974491" lon="6.9309559"><ele>956.0</ele><time>2026-05-01T16:04:03.868Z</time></trkpt><trkpt lat="43.7974253" lon="6.9307152"><ele>959.3333333333334</ele><time>2026-05-01T16:04:04.868Z</time></trkpt><trkpt lat="43.7973936" lon="6.930446"><ele>962.6666666666667</ele><time>2026-05-01T16:04:05.868Z</time></trkpt><trkpt lat="43.7973451" lon="6.9302031"><ele>966.0</ele><time>2026-05-01T16:04:06.868Z</time></trkpt><trkpt lat="43.7972515" lon="6.9299791"><ele>970.3333333333333</ele><time>2026-05-01T16:04:07.868Z</time></trkpt><trkpt lat="43.797191" lon="6.9297332"><ele>974.6666666666666</ele><time>2026-05-01T16:04:08.868Z</time></trkpt><trkpt lat="43.7971464" lon="6.9295385"><ele>979.0</ele><time>2026-05-01T16:04:09.868Z</time></trkpt><trkpt lat="43.7970229" lon="6.9293101"><ele>983.3333333333333</ele><time>2026-05-01T16:04:10.868Z</time></trkpt><trkpt lat="43.7969202" lon="6.9290935"><ele>987.6666666666667</ele><time>2026-05-01T16:04:11.869Z</time></trkpt><trkpt lat="43.7968032" lon="6.9289041"><ele>992.0</ele><time>2026-05-01T16:04:12.868Z</time></trkpt><trkpt lat="43.7967103" lon="6.9287263"><ele>985.5</ele><time>2026-05-01T16:04:13.868Z</time></trkpt><trkpt lat="43.7966426" lon="6.9285228"><ele>979.0</ele><time>2026-05-01T16:04:14.869Z</time></trkpt><trkpt lat="43.7966509" lon="6.9283395"><ele>972.5</ele><time>2026-05-01T16:04:15.868Z</time></trkpt><trkpt lat="43.7966456" lon="6.9281518"><ele>966.0</ele><time>2026-05-01T16:04:16.868Z</time></trkpt><trkpt lat="43.7966428" lon="6.9279504"><ele>966.0</ele><time>2026-05-01T16:04:17.868Z</time></trkpt><trkpt lat="43.7966589" lon="6.9277705"><ele>966.0</ele><time>2026-05-01T16:04:18.869Z</time></trkpt><trkpt lat="43.7967276" lon="6.9275457"><ele>966.0</ele><time>2026-05-01T16:04:19.868Z</time></trkpt><trkpt lat="43.7968202" lon="6.9273101"><ele>978.6666666666667</ele><time>2026-05-01T16:04:20.868Z</time></trkpt><trkpt lat="43.7969114" lon="6.9271465"><ele>991.3333333333334</ele><time>2026-05-01T16:04:21.868Z</time></trkpt><trkpt lat="43.7970258" lon="6.9269704"><ele>1004.0</ele><time>2026-05-01T16:04:22.868Z</time></trkpt><trkpt lat="43.797121" lon="6.9268082"><ele>1004.75</ele><time>2026-05-01T16:04:23.868Z</time></trkpt><trkpt lat="43.7972391" lon="6.926628"><ele>1005.5</ele><time>2026-05-01T16:04:24.868Z</time></trkpt><trkpt lat="43.7972922" lon="6.9264695"><ele>1006.25</ele><time>2026-05-01T16:04:25.868Z</time></trkpt><trkpt lat="43.7973297" lon="6.9262774"><ele>1007.0</ele><time>2026-05-01T16:04:26.868Z</time></trkpt><trkpt lat="43.7973459" lon="6.9260477"><ele>1009.6666666666667</ele><time>2026-05-01T16:04:27.868Z</time></trkpt><trkpt lat="43.7973453" lon="6.9258389"><ele>1012.3333333333333</ele><time>2026-05-01T16:04:28.868Z</time></trkpt><trkpt lat="43.7973328" lon="6.9255741"><ele>1015.0</ele><time>2026-05-01T16:04:29.868Z</time></trkpt><trkpt lat="43.7972933" lon="6.9253008"><ele>1020.3333333333333</ele><time>2026-05-01T16:04:30.868Z</time></trkpt><trkpt lat="43.7972533" lon="6.9250077"><ele>1025.6666666666667</ele><time>2026-05-01T16:04:31.868Z</time></trkpt><trkpt lat="43.7972065" lon="6.9247322"><ele>1031.0</ele><time>2026-05-01T16:04:32.868Z</time></trkpt><trkpt lat="43.7971734" lon="6.924389"><ele>1036.0</ele><time>2026-05-01T16:04:33.868Z</time></trkpt><trkpt lat="43.7971321" lon="6.9241126"><ele>1041.0</ele><time>2026-05-01T16:04:34.868Z</time></trkpt><trkpt lat="43.7970259" lon="6.9238447"><ele>1046.0</ele><time>2026-05-01T16:04:35.868Z</time></trkpt><trkpt lat="43.7969754" lon="6.9235611"><ele>1050.0</ele><time>2026-05-01T16:04:36.868Z</time></trkpt><trkpt lat="43.7969262" lon="6.9233508"><ele>1054.0</ele><time>2026-05-01T16:04:37.868Z</time></trkpt><trkpt lat="43.796896" lon="6.9231022"><ele>1058.0</ele><time>2026-05-01T16:04:38.868Z</time></trkpt><trkpt lat="43.7968231" lon="6.9228496"><ele>1036.6666666666667</ele><time>2026-05-01T16:04:39.868Z</time></trkpt><trkpt lat="43.7968051" lon="6.9226241"><ele>1015.3333333333333</ele><time>2026-05-01T16:04:40.868Z</time></trkpt><trkpt lat="43.7968053" lon="6.9223719"><ele>994.0</ele><time>2026-05-01T16:04:41.868Z</time></trkpt><trkpt lat="43.7967831" lon="6.9221639"><ele>994.0</ele><time>2026-05-01T16:04:42.868Z</time></trkpt><trkpt lat="43.7967516" lon="6.9220121"><ele>994.0000000000001</ele><time>2026-05-01T16:04:43.868Z</time></trkpt><trkpt lat="43.796762" lon="6.9219035"><ele>994.0000000000001</ele><time>2026-05-01T16:04:44.868Z</time></trkpt><trkpt lat="43.7967831" lon="6.9217639"><ele>994.0</ele><time>2026-05-01T16:04:45.868Z</time></trkpt><trkpt lat="43.7968227" lon="6.9216139"><ele>994.0</ele><time>2026-05-01T16:04:46.868Z</time></trkpt><trkpt lat="43.7968308" lon="6.9214966"><ele>993.8000000000001</ele><time>2026-05-01T16:04:47.868Z</time></trkpt><trkpt lat="43.7968565" lon="6.9213329"><ele>993.6000000000001</ele><time>2026-05-01T16:04:48.868Z</time></trkpt><trkpt lat="43.7968637" lon="6.9211747"><ele>993.4</ele><time>2026-05-01T16:04:49.868Z</time></trkpt><trkpt lat="43.7968627" lon="6.9210575"><ele>993.2</ele><time>2026-05-01T16:04:50.868Z</time></trkpt><trkpt lat="43.7968157" lon="6.9209509"><ele>993.0</ele><time>2026-05-01T16:04:51.868Z</time></trkpt><trkpt lat="43.7967475" lon="6.9208573"><ele>998.2</ele><time>2026-05-01T16:04:52.868Z</time></trkpt><trkpt lat="43.7966836" lon="6.9207704"><ele>1003.4</ele><time>2026-05-01T16:04:53.868Z</time></trkpt><trkpt lat="43.796593" lon="6.9207298"><ele>1008.6000000000001</ele><time>2026-05-01T16:04:54.868Z</time></trkpt><trkpt lat="43.7964739" lon="6.9206695"><ele>1013.8000000000001</ele><time>2026-05-01T16:04:55.868Z</time></trkpt><trkpt lat="43.7963576" lon="6.9205673"><ele>1019.0</ele><time>2026-05-01T16:04:57.868Z</time></trkpt><trkpt lat="43.7962482" lon="6.9205244"><ele>1019.0</ele><time>2026-05-01T16:04:58.868Z</time></trkpt><trkpt lat="43.7961949" lon="6.9204164"><ele>1019.0000000000001</ele><time>2026-05-01T16:04:59.868Z</time></trkpt><trkpt lat="43.7961932" lon="6.9202659"><ele>1019.0000000000001</ele><time>2026-05-01T16:05:00.868Z</time></trkpt><trkpt lat="43.7962035" lon="6.9201628"><ele>1019.0</ele><time>2026-05-01T16:05:01.868Z</time></trkpt><trkpt lat="43.7962524" lon="6.9200551"><ele>1019.0</ele><time>2026-05-01T16:05:02.868Z</time></trkpt><trkpt lat="43.7963099" lon="6.9199447"><ele>1025.0</ele><time>2026-05-01T16:05:03.868Z</time></trkpt><trkpt lat="43.7963464" lon="6.9197699"><ele>1031.0</ele><time>2026-05-01T16:05:04.868Z</time></trkpt><trkpt lat="43.7964204" lon="6.9196252"><ele>1037.0</ele><time>2026-05-01T16:05:05.868Z</time></trkpt><trkpt lat="43.7964451" lon="6.9194933"><ele>1043.0</ele><time>2026-05-01T16:05:06.868Z</time></trkpt><trkpt lat="43.796451" lon="6.9193635"><ele>1045.0</ele><time>2026-05-01T16:05:07.868Z</time></trkpt><trkpt lat="43.7964602" lon="6.919203"><ele>1047.0</ele><time>2026-05-01T16:05:08.868Z</time></trkpt><trkpt lat="43.7964156" lon="6.9190442"><ele>1049.0</ele><time>2026-05-01T16:05:09.868Z</time></trkpt><trkpt lat="43.7964125" lon="6.918885"><ele>1051.0</ele><time>2026-05-01T16:05:10.868Z</time></trkpt><trkpt lat="43.7964069" lon="6.918738"><ele>1051.0</ele><time>2026-05-01T16:05:11.868Z</time></trkpt><trkpt lat="43.7964283" lon="6.9186426"><ele>1051.0</ele><time>2026-05-01T16:05:12.868Z</time></trkpt><trkpt lat="43.7964905" lon="6.9185093"><ele>1051.0</ele><time>2026-05-01T16:05:13.868Z</time></trkpt><trkpt lat="43.7965586" lon="6.9183473"><ele>1051.0</ele><time>2026-05-01T16:05:14.868Z</time></trkpt><trkpt lat="43.7965833" lon="6.9181817"><ele>1051.0</ele><time>2026-05-01T16:05:15.869Z</time></trkpt><trkpt lat="43.7966112" lon="6.9180107"><ele>1051.3999999999999</ele><time>2026-05-01T16:05:16.869Z</time></trkpt><trkpt lat="43.7966523" lon="6.9178458"><ele>1051.8</ele><time>2026-05-01T16:05:17.868Z</time></trkpt><trkpt lat="43.7966896" lon="6.9176945"><ele>1052.1999999999998</ele><time>2026-05-01T16:05:18.868Z</time></trkpt><trkpt lat="43.7966944" lon="6.9175304"><ele>1052.6</ele><time>2026-05-01T16:05:19.868Z</time></trkpt><trkpt lat="43.7966951" lon="6.917419"><ele>1053.0</ele><time>2026-05-01T16:05:20.868Z</time></trkpt><trkpt lat="43.7966362" lon="6.9172628"><ele>1053.0</ele><time>2026-05-01T16:05:22.868Z</time></trkpt><trkpt lat="43.7966062" lon="6.9169625"><ele>1053.0</ele><time>2026-05-01T16:05:24.868Z</time></trkpt><trkpt lat="43.7965408" lon="6.916806"><ele>1053.0</ele><time>2026-05-01T16:05:25.868Z</time></trkpt><trkpt lat="43.7965687" lon="6.9166098"><ele>1057.2</ele><time>2026-05-01T16:05:26.868Z</time></trkpt><trkpt lat="43.7965807" lon="6.9164495"><ele>1061.4</ele><time>2026-05-01T16:05:27.869Z</time></trkpt><trkpt lat="43.7965688" lon="6.9163233"><ele>1065.6000000000001</ele><time>2026-05-01T16:05:28.868Z</time></trkpt><trkpt lat="43.7965016" lon="6.9161676"><ele>1069.8</ele><time>2026-05-01T16:05:29.868Z</time></trkpt><trkpt lat="43.796418" lon="6.9160767"><ele>1074.0</ele><time>2026-05-01T16:05:30.868Z</time></trkpt><trkpt lat="43.7963401" lon="6.9159739"><ele>1079.3333333333333</ele><time>2026-05-01T16:05:31.868Z</time></trkpt><trkpt lat="43.7962686" lon="6.9158202"><ele>1084.6666666666665</ele><time>2026-05-01T16:05:32.868Z</time></trkpt><trkpt lat="43.7961346" lon="6.9155932"><ele>1090.0</ele><time>2026-05-01T16:05:33.868Z</time></trkpt><trkpt lat="43.7960906" lon="6.9153716"><ele>1090.0</ele><time>2026-05-01T16:05:34.868Z</time></trkpt><trkpt lat="43.7961027" lon="6.9151567"><ele>1090.0</ele><time>2026-05-01T16:05:35.868Z</time></trkpt><trkpt lat="43.7961112" lon="6.9149553"><ele>1090.0</ele><time>2026-05-01T16:05:36.868Z</time></trkpt><trkpt lat="43.7961204" lon="6.914735"><ele>1089.4</ele><time>2026-05-01T16:05:37.869Z</time></trkpt><trkpt lat="43.7961004" lon="6.9145678"><ele>1088.8</ele><time>2026-05-01T16:05:38.868Z</time></trkpt><trkpt lat="43.7960908" lon="6.9144213"><ele>1088.2</ele><time>2026-05-01T16:05:39.868Z</time></trkpt><trkpt lat="43.7961014" lon="6.9143145"><ele>1087.6</ele><time>2026-05-01T16:05:40.868Z</time></trkpt><trkpt lat="43.796143" lon="6.914202"><ele>1087.0</ele><time>2026-05-01T16:05:41.868Z</time></trkpt><trkpt lat="43.7962235" lon="6.9141066"><ele>1082.25</ele><time>2026-05-01T16:05:42.868Z</time></trkpt><trkpt lat="43.7963084" lon="6.914044"><ele>1077.5</ele><time>2026-05-01T16:05:43.868Z</time></trkpt><trkpt lat="43.7963802" lon="6.9139173"><ele>1072.75</ele><time>2026-05-01T16:05:44.868Z</time></trkpt><trkpt lat="43.7964693" lon="6.9138052"><ele>1068.0</ele><time>2026-05-01T16:05:45.868Z</time></trkpt><trkpt lat="43.7965857" lon="6.9136754"><ele>1068.0</ele><time>2026-05-01T16:05:46.868Z</time></trkpt><trkpt lat="43.7966571" lon="6.9134661"><ele>1068.0</ele><time>2026-05-01T16:05:47.868Z</time></trkpt><trkpt lat="43.7967022" lon="6.9132909"><ele>1068.0</ele><time>2026-05-01T16:05:48.869Z</time></trkpt><trkpt lat="43.7967651" lon="6.9130966"><ele>1063.6666666666667</ele><time>2026-05-01T16:05:49.868Z</time></trkpt><trkpt lat="43.7967869" lon="6.9128457"><ele>1059.3333333333335</ele><time>2026-05-01T16:05:50.868Z</time></trkpt><trkpt lat="43.796766" lon="6.9125678"><ele>1055.0</ele><time>2026-05-01T16:05:51.868Z</time></trkpt><trkpt lat="43.7967575" lon="6.9122893"><ele>1055.0</ele><time>2026-05-01T16:05:52.868Z</time></trkpt><trkpt lat="43.7967513" lon="6.9120299"><ele>1055.0</ele><time>2026-05-01T16:05:53.868Z</time></trkpt><trkpt lat="43.7967136" lon="6.9118222"><ele>1055.0</ele><time>2026-05-01T16:05:54.868Z</time></trkpt><trkpt lat="43.7966834" lon="6.9115592"><ele>1057.0</ele><time>2026-05-01T16:05:55.868Z</time></trkpt><trkpt lat="43.796641" lon="6.9113443"><ele>1059.0</ele><time>2026-05-01T16:05:56.868Z</time></trkpt><trkpt lat="43.7965877" lon="6.9111333"><ele>1061.0</ele><time>2026-05-01T16:05:57.868Z</time></trkpt><trkpt lat="43.7965768" lon="6.9109111"><ele>1062.0</ele><time>2026-05-01T16:05:58.868Z</time></trkpt><trkpt lat="43.7965778" lon="6.910696"><ele>1063.0</ele><time>2026-05-01T16:05:59.868Z</time></trkpt><trkpt lat="43.7966108" lon="6.9104472"><ele>1064.0</ele><time>2026-05-01T16:06:00.868Z</time></trkpt><trkpt lat="43.7966405" lon="6.9102579"><ele>1064.6666666666667</ele><time>2026-05-01T16:06:01.868Z</time></trkpt><trkpt lat="43.7966617" lon="6.9100106"><ele>1065.3333333333333</ele><time>2026-05-01T16:06:02.868Z</time></trkpt><trkpt lat="43.7966767" lon="6.9097801"><ele>1066.0</ele><time>2026-05-01T16:06:03.868Z</time></trkpt><trkpt lat="43.7966815" lon="6.909556"><ele>1066.0</ele><time>2026-05-01T16:06:04.868Z</time></trkpt><trkpt lat="43.7966852" lon="6.9092934"><ele>1066.0</ele><time>2026-05-01T16:06:05.869Z</time></trkpt><trkpt lat="43.7966962" lon="6.9090708"><ele>1066.0</ele><time>2026-05-01T16:06:06.868Z</time></trkpt><trkpt lat="43.7966998" lon="6.9088998"><ele>1066.8</ele><time>2026-05-01T16:06:07.868Z</time></trkpt><trkpt lat="43.7966988" lon="6.9087333"><ele>1067.6</ele><time>2026-05-01T16:06:08.868Z</time></trkpt><trkpt lat="43.7967201" lon="6.9086205"><ele>1068.4</ele><time>2026-05-01T16:06:09.869Z</time></trkpt><trkpt lat="43.7967665" lon="6.9085031"><ele>1069.2</ele><time>2026-05-01T16:06:10.868Z</time></trkpt><trkpt lat="43.7968416" lon="6.9084545"><ele>1070.0</ele><time>2026-05-01T16:06:12.869Z</time></trkpt><trkpt lat="43.7969392" lon="6.9085675"><ele>1074.3333333333335</ele><time>2026-05-01T16:06:13.868Z</time></trkpt><trkpt lat="43.7969983" lon="6.9086269"><ele>1078.6666666666667</ele><time>2026-05-01T16:06:14.868Z</time></trkpt><trkpt lat="43.797176" lon="6.9089331"><ele>1083.0</ele><time>2026-05-01T16:06:15.868Z</time></trkpt><trkpt lat="43.7972617" lon="6.9091055"><ele>1085.6666666666667</ele><time>2026-05-01T16:06:16.868Z</time></trkpt><trkpt lat="43.7973434" lon="6.9092652"><ele>1088.3333333333335</ele><time>2026-05-01T16:06:17.868Z</time></trkpt><trkpt lat="43.7974641" lon="6.9094208"><ele>1091.0</ele><time>2026-05-01T16:06:18.868Z</time></trkpt><trkpt lat="43.797582" lon="6.9095799"><ele>1094.3333333333335</ele><time>2026-05-01T16:06:19.868Z</time></trkpt><trkpt lat="43.7977178" lon="6.9097168"><ele>1097.6666666666667</ele><time>2026-05-01T16:06:20.868Z</time></trkpt><trkpt lat="43.7979063" lon="6.9098169"><ele>1101.0</ele><time>2026-05-01T16:06:21.868Z</time></trkpt><trkpt lat="43.7981448" lon="6.9098677"><ele>1101.0</ele><time>2026-05-01T16:06:22.868Z</time></trkpt><trkpt lat="43.7983933" lon="6.9098453"><ele>1101.0</ele><time>2026-05-01T16:06:23.869Z</time></trkpt><trkpt lat="43.7986078" lon="6.9097959"><ele>1105.0</ele><time>2026-05-01T16:06:24.868Z</time></trkpt><trkpt lat="43.7988143" lon="6.9097365"><ele>1109.0</ele><time>2026-05-01T16:06:25.868Z</time></trkpt><trkpt lat="43.7990099" lon="6.9096797"><ele>1113.0</ele><time>2026-05-01T16:06:26.868Z</time></trkpt><trkpt lat="43.7992254" lon="6.9095693"><ele>1118.0</ele><time>2026-05-01T16:06:27.868Z</time></trkpt><trkpt lat="43.7994278" lon="6.9095144"><ele>1123.0</ele><time>2026-05-01T16:06:28.868Z</time></trkpt><trkpt lat="43.7996217" lon="6.9094928"><ele>1128.0</ele><time>2026-05-01T16:06:29.868Z</time></trkpt><trkpt lat="43.7998188" lon="6.9094471"><ele>1128.0</ele><time>2026-05-01T16:06:30.868Z</time></trkpt><trkpt lat="43.8000052" lon="6.9094655"><ele>1128.0</ele><time>2026-05-01T16:06:31.868Z</time></trkpt><trkpt lat="43.8001844" lon="6.9094395"><ele>1128.0</ele><time>2026-05-01T16:06:32.868Z</time></trkpt><trkpt lat="43.8003655" lon="6.9093742"><ele>1130.3333333333333</ele><time>2026-05-01T16:06:33.868Z</time></trkpt><trkpt lat="43.8005221" lon="6.9092457"><ele>1132.6666666666665</ele><time>2026-05-01T16:06:34.869Z</time></trkpt><trkpt lat="43.8006692" lon="6.9090636"><ele>1135.0</ele><time>2026-05-01T16:06:35.868Z</time></trkpt><trkpt lat="43.8008147" lon="6.908816"><ele>1135.0</ele><time>2026-05-01T16:06:36.868Z</time></trkpt><trkpt lat="43.8009567" lon="6.908651"><ele>1135.0</ele><time>2026-05-01T16:06:37.868Z</time></trkpt><trkpt lat="43.8010973" lon="6.9084237"><ele>1135.0</ele><time>2026-05-01T16:06:38.868Z</time></trkpt><trkpt lat="43.8011936" lon="6.9082197"><ele>1135.0</ele><time>2026-05-01T16:06:39.868Z</time></trkpt><trkpt lat="43.8013021" lon="6.9079904"><ele>1135.0</ele><time>2026-05-01T16:06:40.869Z</time></trkpt><trkpt lat="43.801411" lon="6.907811"><ele>1135.0</ele><time>2026-05-01T16:06:41.868Z</time></trkpt><trkpt lat="43.8015162" lon="6.9076039"><ele>1130.3333333333333</ele><time>2026-05-01T16:06:42.869Z</time></trkpt><trkpt lat="43.8015815" lon="6.9073963"><ele>1125.6666666666667</ele><time>2026-05-01T16:06:43.868Z</time></trkpt><trkpt lat="43.8015868" lon="6.9071503"><ele>1121.0</ele><time>2026-05-01T16:06:44.868Z</time></trkpt><trkpt lat="43.801612" lon="6.9069248"><ele>1119.25</ele><time>2026-05-01T16:06:45.868Z</time></trkpt><trkpt lat="43.8016258" lon="6.9067329"><ele>1117.5</ele><time>2026-05-01T16:06:46.868Z</time></trkpt><trkpt lat="43.8016198" lon="6.9065412"><ele>1115.75</ele><time>2026-05-01T16:06:47.868Z</time></trkpt><trkpt lat="43.8015722" lon="6.9063134"><ele>1114.0</ele><time>2026-05-01T16:06:48.868Z</time></trkpt><trkpt lat="43.8015127" lon="6.9061022"><ele>1116.3333333333333</ele><time>2026-05-01T16:06:49.868Z</time></trkpt><trkpt lat="43.8014382" lon="6.9058688"><ele>1118.6666666666667</ele><time>2026-05-01T16:06:50.868Z</time></trkpt><trkpt lat="43.8013281" lon="6.9056254"><ele>1121.0</ele><time>2026-05-01T16:06:51.868Z</time></trkpt><trkpt lat="43.8012606" lon="6.9054093"><ele>1121.0</ele><time>2026-05-01T16:06:52.868Z</time></trkpt><trkpt lat="43.8011715" lon="6.9051883"><ele>1121.0</ele><time>2026-05-01T16:06:53.868Z</time></trkpt><trkpt lat="43.8010837" lon="6.904943"><ele>1121.0</ele><time>2026-05-01T16:06:54.868Z</time></trkpt><trkpt lat="43.8010408" lon="6.9046959"><ele>1122.0</ele><time>2026-05-01T16:06:55.869Z</time></trkpt><trkpt lat="43.8010307" lon="6.9044587"><ele>1123.0</ele><time>2026-05-01T16:06:56.868Z</time></trkpt><trkpt lat="43.801009" lon="6.9042399"><ele>1124.0</ele><time>2026-05-01T16:06:57.868Z</time></trkpt><trkpt lat="43.8009875" lon="6.9040028"><ele>1124.0</ele><time>2026-05-01T16:06:58.868Z</time></trkpt><trkpt lat="43.8009808" lon="6.9037852"><ele>1124.0</ele><time>2026-05-01T16:06:59.868Z</time></trkpt><trkpt lat="43.800994" lon="6.9035873"><ele>1124.0</ele><time>2026-05-01T16:07:00.868Z</time></trkpt><trkpt lat="43.8010242" lon="6.903462"><ele>1124.0</ele><time>2026-05-01T16:07:01.868Z</time></trkpt><trkpt lat="43.8010898" lon="6.9033563"><ele>1125.25</ele><time>2026-05-01T16:07:02.868Z</time></trkpt><trkpt lat="43.8012008" lon="6.9032797"><ele>1126.5</ele><time>2026-05-01T16:07:03.868Z</time></trkpt><trkpt lat="43.801317" lon="6.903241"><ele>1127.75</ele><time>2026-05-01T16:07:04.868Z</time></trkpt><trkpt lat="43.8014438" lon="6.9032169"><ele>1129.0</ele><time>2026-05-01T16:07:05.868Z</time></trkpt><trkpt lat="43.8015801" lon="6.90318"><ele>1129.0</ele><time>2026-05-01T16:07:06.868Z</time></trkpt><trkpt lat="43.8017071" lon="6.903156"><ele>1129.0</ele><time>2026-05-01T16:07:07.868Z</time></trkpt><trkpt lat="43.8018364" lon="6.9030324"><ele>1129.0</ele><time>2026-05-01T16:07:08.869Z</time></trkpt><trkpt lat="43.8019406" lon="6.9028933"><ele>1129.0</ele><time>2026-05-01T16:07:09.868Z</time></trkpt><trkpt lat="43.8020017" lon="6.902723"><ele>1134.25</ele><time>2026-05-01T16:07:10.868Z</time></trkpt><trkpt lat="43.8020679" lon="6.9025043"><ele>1139.5</ele><time>2026-05-01T16:07:11.868Z</time></trkpt><trkpt lat="43.8020873" lon="6.9023438"><ele>1144.75</ele><time>2026-05-01T16:07:12.868Z</time></trkpt><trkpt lat="43.8021094" lon="6.9021689"><ele>1150.0</ele><time>2026-05-01T16:07:13.868Z</time></trkpt><trkpt lat="43.802196" lon="6.9020328"><ele>1150.0</ele><time>2026-05-01T16:07:14.868Z</time></trkpt><trkpt lat="43.802281" lon="6.9018631"><ele>1150.0</ele><time>2026-05-01T16:07:15.868Z</time></trkpt><trkpt lat="43.8023993" lon="6.9016931"><ele>1150.0</ele><time>2026-05-01T16:07:16.868Z</time></trkpt><trkpt lat="43.802513" lon="6.9015169"><ele>1153.0</ele><time>2026-05-01T16:07:17.868Z</time></trkpt><trkpt lat="43.80263" lon="6.9013358"><ele>1156.0</ele><time>2026-05-01T16:07:18.868Z</time></trkpt><trkpt lat="43.8027399" lon="6.9011679"><ele>1159.0</ele><time>2026-05-01T16:07:19.868Z</time></trkpt><trkpt lat="43.8028308" lon="6.9009811"><ele>1153.0</ele><time>2026-05-01T16:07:20.868Z</time></trkpt><trkpt lat="43.8028953" lon="6.9007514"><ele>1147.0</ele><time>2026-05-01T16:07:21.868Z</time></trkpt><trkpt lat="43.8029438" lon="6.9004476"><ele>1141.0</ele><time>2026-05-01T16:07:22.868Z</time></trkpt><trkpt lat="43.8029735" lon="6.900154"><ele>1137.3333333333333</ele><time>2026-05-01T16:07:23.869Z</time></trkpt><trkpt lat="43.8029824" lon="6.8998557"><ele>1133.6666666666667</ele><time>2026-05-01T16:07:24.868Z</time></trkpt><trkpt lat="43.8029802" lon="6.8995877"><ele>1130.0</ele><time>2026-05-01T16:07:25.868Z</time></trkpt><trkpt lat="43.8029703" lon="6.8992664"><ele>1128.6666666666667</ele><time>2026-05-01T16:07:26.868Z</time></trkpt><trkpt lat="43.8029616" lon="6.8990013"><ele>1127.3333333333333</ele><time>2026-05-01T16:07:27.868Z</time></trkpt><trkpt lat="43.8029465" lon="6.8987374"><ele>1126.0</ele><time>2026-05-01T16:07:28.868Z</time></trkpt><trkpt lat="43.8029532" lon="6.8984429"><ele>1126.3333333333333</ele><time>2026-05-01T16:07:29.868Z</time></trkpt><trkpt lat="43.802976" lon="6.8982096"><ele>1126.6666666666667</ele><time>2026-05-01T16:07:30.868Z</time></trkpt><trkpt lat="43.803053" lon="6.8979991"><ele>1127.0</ele><time>2026-05-01T16:07:31.868Z</time></trkpt><trkpt lat="43.8031197" lon="6.8977646"><ele>1128.0</ele><time>2026-05-01T16:07:32.868Z</time></trkpt><trkpt lat="43.8031684" lon="6.8974876"><ele>1129.0</ele><time>2026-05-01T16:07:33.868Z</time></trkpt><trkpt lat="43.8032287" lon="6.8972337"><ele>1130.0</ele><time>2026-05-01T16:07:34.868Z</time></trkpt><trkpt lat="43.8033452" lon="6.8969803"><ele>1130.0</ele><time>2026-05-01T16:07:35.868Z</time></trkpt><trkpt lat="43.80347" lon="6.8967573"><ele>1130.0</ele><time>2026-05-01T16:07:36.868Z</time></trkpt><trkpt lat="43.8036285" lon="6.8965201"><ele>1130.0</ele><time>2026-05-01T16:07:37.868Z</time></trkpt><trkpt lat="43.8038255" lon="6.8963353"><ele>1129.5</ele><time>2026-05-01T16:07:38.868Z</time></trkpt><trkpt lat="43.8040119" lon="6.8961041"><ele>1129.0</ele><time>2026-05-01T16:07:39.868Z</time></trkpt><trkpt lat="43.8041738" lon="6.8958429"><ele>1126.5</ele><time>2026-05-01T16:07:40.868Z</time></trkpt><trkpt lat="43.8043984" lon="6.8956095"><ele>1124.0</ele><time>2026-05-01T16:07:41.868Z</time></trkpt><trkpt lat="43.8045995" lon="6.8953767"><ele>1124.0</ele><time>2026-05-01T16:07:42.868Z</time></trkpt><trkpt lat="43.804785" lon="6.8951606"><ele>1124.0</ele><time>2026-05-01T16:07:43.868Z</time></trkpt><trkpt lat="43.804952" lon="6.89494"><ele>1124.3333333333335</ele><time>2026-05-01T16:07:44.868Z</time></trkpt><trkpt lat="43.8051037" lon="6.8947573"><ele>1124.6666666666667</ele><time>2026-05-01T16:07:45.868Z</time></trkpt><trkpt lat="43.8052851" lon="6.8945272"><ele>1125.0</ele><time>2026-05-01T16:07:46.868Z</time></trkpt><trkpt lat="43.8054566" lon="6.8943178"><ele>1125.5</ele><time>2026-05-01T16:07:47.868Z</time></trkpt><trkpt lat="43.8056484" lon="6.8940798"><ele>1126.0</ele><time>2026-05-01T16:07:48.868Z</time></trkpt><trkpt lat="43.8058092" lon="6.8938591"><ele>1126.0</ele><time>2026-05-01T16:07:49.868Z</time></trkpt><trkpt lat="43.8059972" lon="6.8936565"><ele>1126.0</ele><time>2026-05-01T16:07:50.868Z</time></trkpt><trkpt lat="43.8061667" lon="6.8934596"><ele>1125.5</ele><time>2026-05-01T16:07:51.868Z</time></trkpt><trkpt lat="43.8063304" lon="6.8932507"><ele>1125.0</ele><time>2026-05-01T16:07:52.868Z</time></trkpt><trkpt lat="43.806505" lon="6.8930362"><ele>1125.0</ele><time>2026-05-01T16:07:53.868Z</time></trkpt><trkpt lat="43.8066616" lon="6.8928267"><ele>1125.0</ele><time>2026-05-01T16:07:54.868Z</time></trkpt><trkpt lat="43.8068227" lon="6.8926129"><ele>1125.0</ele><time>2026-05-01T16:07:55.868Z</time></trkpt><trkpt lat="43.8069704" lon="6.8924291"><ele>1125.6666666666667</ele><time>2026-05-01T16:07:56.868Z</time></trkpt><trkpt lat="43.8070989" lon="6.892253"><ele>1126.3333333333335</ele><time>2026-05-01T16:07:57.869Z</time></trkpt><trkpt lat="43.8072306" lon="6.8920346"><ele>1127.0</ele><time>2026-05-01T16:07:58.868Z</time></trkpt><trkpt lat="43.8073242" lon="6.8917809"><ele>1127.3333333333335</ele><time>2026-05-01T16:07:59.868Z</time></trkpt><trkpt lat="43.8073917" lon="6.891556"><ele>1127.6666666666667</ele><time>2026-05-01T16:08:00.868Z</time></trkpt><trkpt lat="43.8074433" lon="6.8912713"><ele>1128.0</ele><time>2026-05-01T16:08:01.868Z</time></trkpt><trkpt lat="43.8075203" lon="6.8909811"><ele>1127.5</ele><time>2026-05-01T16:08:02.868Z</time></trkpt><trkpt lat="43.8075714" lon="6.8906961"><ele>1127.0</ele><time>2026-05-01T16:08:03.868Z</time></trkpt><trkpt lat="43.807633" lon="6.8903519"><ele>1128.3333333333335</ele><time>2026-05-01T16:08:04.868Z</time></trkpt><trkpt lat="43.8076932" lon="6.8900452"><ele>1129.6666666666667</ele><time>2026-05-01T16:08:05.868Z</time></trkpt><trkpt lat="43.8077247" lon="6.8897618"><ele>1131.0</ele><time>2026-05-01T16:08:06.868Z</time></trkpt><trkpt lat="43.8077777" lon="6.8894944"><ele>1131.3333333333333</ele><time>2026-05-01T16:08:07.868Z</time></trkpt><trkpt lat="43.8078343" lon="6.8892169"><ele>1131.6666666666665</ele><time>2026-05-01T16:08:08.868Z</time></trkpt><trkpt lat="43.8078661" lon="6.8889544"><ele>1132.0</ele><time>2026-05-01T16:08:09.868Z</time></trkpt><trkpt lat="43.8078723" lon="6.8886687"><ele>1132.6666666666665</ele><time>2026-05-01T16:08:10.868Z</time></trkpt><trkpt lat="43.8078842" lon="6.888383"><ele>1133.3333333333333</ele><time>2026-05-01T16:08:11.868Z</time></trkpt><trkpt lat="43.8079169" lon="6.8880611"><ele>1134.0</ele><time>2026-05-01T16:08:12.868Z</time></trkpt><trkpt lat="43.8079484" lon="6.8877497"><ele>1136.0</ele><time>2026-05-01T16:08:13.868Z</time></trkpt><trkpt lat="43.807991" lon="6.8874576"><ele>1138.0</ele><time>2026-05-01T16:08:14.868Z</time></trkpt><trkpt lat="43.8080161" lon="6.8872271"><ele>1140.0</ele><time>2026-05-01T16:08:15.868Z</time></trkpt><trkpt lat="43.8080789" lon="6.8869456"><ele>1140.6666666666667</ele><time>2026-05-01T16:08:16.868Z</time></trkpt><trkpt lat="43.8081157" lon="6.886656"><ele>1141.3333333333335</ele><time>2026-05-01T16:08:17.868Z</time></trkpt><trkpt lat="43.8081685" lon="6.8864164"><ele>1142.0</ele><time>2026-05-01T16:08:18.868Z</time></trkpt><trkpt lat="43.8082109" lon="6.8861322"><ele>1142.0</ele><time>2026-05-01T16:08:19.869Z</time></trkpt><trkpt lat="43.808292" lon="6.8859436"><ele>1142.0</ele><time>2026-05-01T16:08:20.868Z</time></trkpt><trkpt lat="43.8083505" lon="6.8857028"><ele>1142.0</ele><time>2026-05-01T16:08:21.868Z</time></trkpt><trkpt lat="43.808442" lon="6.8854796"><ele>1142.0</ele><time>2026-05-01T16:08:22.868Z</time></trkpt><trkpt lat="43.8085155" lon="6.8852447"><ele>1142.0</ele><time>2026-05-01T16:08:23.868Z</time></trkpt><trkpt lat="43.8085768" lon="6.8849886"><ele>1142.0</ele><time>2026-05-01T16:08:24.869Z</time></trkpt><trkpt lat="43.8086414" lon="6.8847412"><ele>1142.0</ele><time>2026-05-01T16:08:25.868Z</time></trkpt><trkpt lat="43.8086988" lon="6.8844754"><ele>1142.0</ele><time>2026-05-01T16:08:26.868Z</time></trkpt><trkpt lat="43.8087359" lon="6.884223"><ele>1142.0</ele><time>2026-05-01T16:08:27.869Z</time></trkpt><trkpt lat="43.8087709" lon="6.884009"><ele>1141.25</ele><time>2026-05-01T16:08:28.868Z</time></trkpt><trkpt lat="43.8087826" lon="6.8838306"><ele>1140.5</ele><time>2026-05-01T16:08:29.868Z</time></trkpt><trkpt lat="43.8088064" lon="6.8836417"><ele>1139.75</ele><time>2026-05-01T16:08:30.868Z</time></trkpt><trkpt lat="43.8088313" lon="6.8834379"><ele>1139.0</ele><time>2026-05-01T16:08:31.869Z</time></trkpt><trkpt lat="43.8088569" lon="6.8831306"><ele>1139.0</ele><time>2026-05-01T16:08:32.868Z</time></trkpt><trkpt lat="43.8089206" lon="6.8829885"><ele>1139.0</ele><time>2026-05-01T16:08:33.868Z</time></trkpt><trkpt lat="43.8089696" lon="6.8828358"><ele>1139.0</ele><time>2026-05-01T16:08:34.868Z</time></trkpt><trkpt lat="43.8089955" lon="6.8826984"><ele>1139.0</ele><time>2026-05-01T16:08:35.868Z</time></trkpt><trkpt lat="43.8089921" lon="6.8825701"><ele>1139.0</ele><time>2026-05-01T16:08:36.868Z</time></trkpt><trkpt lat="43.809026" lon="6.8823763"><ele>1139.0</ele><time>2026-05-01T16:08:37.868Z</time></trkpt><trkpt lat="43.8090164" lon="6.8822615"><ele>1139.0</ele><time>2026-05-01T16:08:38.868Z</time></trkpt><trkpt lat="43.8090275" lon="6.8821034"><ele>1139.0</ele><time>2026-05-01T16:08:39.868Z</time></trkpt><trkpt lat="43.8090614" lon="6.8819278"><ele>1139.0</ele><time>2026-05-01T16:08:40.868Z</time></trkpt><trkpt lat="43.8090884" lon="6.881743"><ele>1139.3333333333335</ele><time>2026-05-01T16:08:41.868Z</time></trkpt><trkpt lat="43.8091166" lon="6.881469"><ele>1139.6666666666667</ele><time>2026-05-01T16:08:42.868Z</time></trkpt><trkpt lat="43.8091376" lon="6.8811781"><ele>1140.0</ele><time>2026-05-01T16:08:43.868Z</time></trkpt><trkpt lat="43.8091375" lon="6.8808816"><ele>1139.0</ele><time>2026-05-01T16:08:44.868Z</time></trkpt><trkpt lat="43.8091065" lon="6.8805431"><ele>1138.0</ele><time>2026-05-01T16:08:45.868Z</time></trkpt><trkpt lat="43.8091125" lon="6.8802016"><ele>1137.5</ele><time>2026-05-01T16:08:46.868Z</time></trkpt><trkpt lat="43.8091048" lon="6.8798731"><ele>1137.0</ele><time>2026-05-01T16:08:47.868Z</time></trkpt><trkpt lat="43.8091058" lon="6.8795255"><ele>1137.5</ele><time>2026-05-01T16:08:48.869Z</time></trkpt><trkpt lat="43.8091089" lon="6.8792216"><ele>1138.0</ele><time>2026-05-01T16:08:49.868Z</time></trkpt><trkpt lat="43.8091098" lon="6.8788881"><ele>1138.0</ele><time>2026-05-01T16:08:50.868Z</time></trkpt><trkpt lat="43.809106" lon="6.8785705"><ele>1138.0</ele><time>2026-05-01T16:08:51.868Z</time></trkpt><trkpt lat="43.8090979" lon="6.8782601"><ele>1139.0</ele><time>2026-05-01T16:08:52.869Z</time></trkpt><trkpt lat="43.8090754" lon="6.8779641"><ele>1140.0</ele><time>2026-05-01T16:08:53.869Z</time></trkpt><trkpt lat="43.8090431" lon="6.8776232"><ele>1140.6666666666667</ele><time>2026-05-01T16:08:54.868Z</time></trkpt><trkpt lat="43.80903" lon="6.8773432"><ele>1141.3333333333335</ele><time>2026-05-01T16:08:55.869Z</time></trkpt><trkpt lat="43.809004" lon="6.8770556"><ele>1142.0</ele><time>2026-05-01T16:08:56.868Z</time></trkpt><trkpt lat="43.8089922" lon="6.8767729"><ele>1141.6666666666667</ele><time>2026-05-01T16:08:57.868Z</time></trkpt><trkpt lat="43.8089505" lon="6.8765098"><ele>1141.3333333333333</ele><time>2026-05-01T16:08:58.868Z</time></trkpt><trkpt lat="43.8089096" lon="6.8762592"><ele>1141.0</ele><time>2026-05-01T16:08:59.869Z</time></trkpt><trkpt lat="43.8088211" lon="6.8759652"><ele>1142.0</ele><time>2026-05-01T16:09:00.868Z</time></trkpt><trkpt lat="43.8087108" lon="6.8757448"><ele>1143.0</ele><time>2026-05-01T16:09:01.869Z</time></trkpt><trkpt lat="43.8085623" lon="6.8754366"><ele>1143.6666666666667</ele><time>2026-05-01T16:09:02.868Z</time></trkpt><trkpt lat="43.8084636" lon="6.8751755"><ele>1144.3333333333335</ele><time>2026-05-01T16:09:03.868Z</time></trkpt><trkpt lat="43.8083795" lon="6.8748916"><ele>1145.0</ele><time>2026-05-01T16:09:04.868Z</time></trkpt><trkpt lat="43.8083081" lon="6.8746008"><ele>1145.3333333333335</ele><time>2026-05-01T16:09:05.868Z</time></trkpt><trkpt lat="43.8082139" lon="6.8742889"><ele>1145.6666666666667</ele><time>2026-05-01T16:09:06.868Z</time></trkpt><trkpt lat="43.8081729" lon="6.8740233"><ele>1146.0</ele><time>2026-05-01T16:09:07.868Z</time></trkpt><trkpt lat="43.808154" lon="6.8737149"><ele>1147.0</ele><time>2026-05-01T16:09:08.868Z</time></trkpt><trkpt lat="43.8081459" lon="6.8734597"><ele>1148.0</ele><time>2026-05-01T16:09:09.868Z</time></trkpt><trkpt lat="43.8081421" lon="6.8731743"><ele>1149.0</ele><time>2026-05-01T16:09:10.869Z</time></trkpt><trkpt lat="43.8081204" lon="6.8728656"><ele>1153.0</ele><time>2026-05-01T16:09:11.868Z</time></trkpt><trkpt lat="43.8080955" lon="6.872576"><ele>1157.0</ele><time>2026-05-01T16:09:12.868Z</time></trkpt><trkpt lat="43.8080497" lon="6.8723077"><ele>1161.0</ele><time>2026-05-01T16:09:13.868Z</time></trkpt><trkpt lat="43.8079931" lon="6.8720473"><ele>1161.0</ele><time>2026-05-01T16:09:14.868Z</time></trkpt><trkpt lat="43.8079931" lon="6.8717831"><ele>1161.0</ele><time>2026-05-01T16:09:15.868Z</time></trkpt><trkpt lat="43.8079644" lon="6.8715134"><ele>1161.0</ele><time>2026-05-01T16:09:16.868Z</time></trkpt><trkpt lat="43.807958" lon="6.8712728"><ele>1161.3333333333333</ele><time>2026-05-01T16:09:17.868Z</time></trkpt><trkpt lat="43.8079724" lon="6.8710035"><ele>1161.6666666666665</ele><time>2026-05-01T16:09:18.868Z</time></trkpt><trkpt lat="43.8080033" lon="6.8707793"><ele>1162.0</ele><time>2026-05-01T16:09:19.868Z</time></trkpt><trkpt lat="43.8080447" lon="6.8705381"><ele>1162.0</ele><time>2026-05-01T16:09:20.868Z</time></trkpt><trkpt lat="43.8080865" lon="6.8702799"><ele>1162.0</ele><time>2026-05-01T16:09:21.868Z</time></trkpt><trkpt lat="43.8081405" lon="6.870015"><ele>1162.0</ele><time>2026-05-01T16:09:22.868Z</time></trkpt><trkpt lat="43.8082002" lon="6.8697613"><ele>1162.3333333333333</ele><time>2026-05-01T16:09:23.868Z</time></trkpt><trkpt lat="43.8082601" lon="6.8695255"><ele>1162.6666666666667</ele><time>2026-05-01T16:09:24.869Z</time></trkpt><trkpt lat="43.8083184" lon="6.8692747"><ele>1163.0</ele><time>2026-05-01T16:09:25.868Z</time></trkpt><trkpt lat="43.8083611" lon="6.8690001"><ele>1163.3333333333335</ele><time>2026-05-01T16:09:26.868Z</time></trkpt><trkpt lat="43.808424" lon="6.8687314"><ele>1163.6666666666667</ele><time>2026-05-01T16:09:27.868Z</time></trkpt><trkpt lat="43.8084516" lon="6.8685013"><ele>1164.0</ele><time>2026-05-01T16:09:28.868Z</time></trkpt><trkpt lat="43.8084439" lon="6.8682092"><ele>1165.0</ele><time>2026-05-01T16:09:29.868Z</time></trkpt><trkpt lat="43.8084199" lon="6.8679347"><ele>1166.0</ele><time>2026-05-01T16:09:30.868Z</time></trkpt><trkpt lat="43.8083979" lon="6.867674"><ele>1167.0</ele><time>2026-05-01T16:09:31.868Z</time></trkpt><trkpt lat="43.8083736" lon="6.8674257"><ele>1167.25</ele><time>2026-05-01T16:09:32.868Z</time></trkpt><trkpt lat="43.8083452" lon="6.8671976"><ele>1167.5</ele><time>2026-05-01T16:09:33.868Z</time></trkpt><trkpt lat="43.8083664" lon="6.8670186"><ele>1167.75</ele><time>2026-05-01T16:09:34.869Z</time></trkpt><trkpt lat="43.8084066" lon="6.8668398"><ele>1168.0</ele><time>2026-05-01T16:09:35.868Z</time></trkpt><trkpt lat="43.8084986" lon="6.8665975"><ele>1173.0</ele><time>2026-05-01T16:09:36.868Z</time></trkpt><trkpt lat="43.8086145" lon="6.8663794"><ele>1178.0</ele><time>2026-05-01T16:09:37.868Z</time></trkpt><trkpt lat="43.8087256" lon="6.8661484"><ele>1183.0</ele><time>2026-05-01T16:09:38.868Z</time></trkpt><trkpt lat="43.8088321" lon="6.8659599"><ele>1180.3333333333333</ele><time>2026-05-01T16:09:39.868Z</time></trkpt><trkpt lat="43.8089421" lon="6.8657725"><ele>1177.6666666666667</ele><time>2026-05-01T16:09:40.868Z</time></trkpt><trkpt lat="43.8090417" lon="6.8655698"><ele>1175.0</ele><time>2026-05-01T16:09:41.868Z</time></trkpt><trkpt lat="43.8091206" lon="6.8653656"><ele>1175.0</ele><time>2026-05-01T16:09:42.868Z</time></trkpt><trkpt lat="43.8091611" lon="6.8651651"><ele>1175.0</ele><time>2026-05-01T16:09:43.868Z</time></trkpt><trkpt lat="43.8091659" lon="6.8649704"><ele>1175.0</ele><time>2026-05-01T16:09:44.868Z</time></trkpt><trkpt lat="43.8091406" lon="6.8647411"><ele>1175.0</ele><time>2026-05-01T16:09:45.868Z</time></trkpt><trkpt lat="43.8091436" lon="6.8644872"><ele>1175.0</ele><time>2026-05-01T16:09:46.868Z</time></trkpt><trkpt lat="43.8091625" lon="6.8642708"><ele>1175.0</ele><time>2026-05-01T16:09:47.868Z</time></trkpt><trkpt lat="43.8091969" lon="6.8640168"><ele>1177.0</ele><time>2026-05-01T16:09:48.868Z</time></trkpt><trkpt lat="43.8092447" lon="6.8637818"><ele>1179.0</ele><time>2026-05-01T16:09:49.868Z</time></trkpt><trkpt lat="43.8092562" lon="6.8635284"><ele>1181.0</ele><time>2026-05-01T16:09:50.868Z</time></trkpt><trkpt lat="43.8092302" lon="6.8632451"><ele>1182.3333333333335</ele><time>2026-05-01T16:09:51.868Z</time></trkpt><trkpt lat="43.8091729" lon="6.86295"><ele>1183.6666666666667</ele><time>2026-05-01T16:09:52.868Z</time></trkpt><trkpt lat="43.8090752" lon="6.8626692"><ele>1185.0</ele><time>2026-05-01T16:09:53.868Z</time></trkpt><trkpt lat="43.8089924" lon="6.8623888"><ele>1187.5</ele><time>2026-05-01T16:09:54.869Z</time></trkpt><trkpt lat="43.8089325" lon="6.8620615"><ele>1190.0</ele><time>2026-05-01T16:09:55.868Z</time></trkpt><trkpt lat="43.8088655" lon="6.8617668"><ele>1193.5</ele><time>2026-05-01T16:09:56.869Z</time></trkpt><trkpt lat="43.8087716" lon="6.8614708"><ele>1197.0</ele><time>2026-05-01T16:09:57.868Z</time></trkpt><trkpt lat="43.8086591" lon="6.8611771"><ele>1198.5</ele><time>2026-05-01T16:09:58.868Z</time></trkpt><trkpt lat="43.8085325" lon="6.8608956"><ele>1200.0</ele><time>2026-05-01T16:09:59.868Z</time></trkpt><trkpt lat="43.8084128" lon="6.8605822"><ele>1197.6666666666667</ele><time>2026-05-01T16:10:00.868Z</time></trkpt><trkpt lat="43.8083152" lon="6.8603017"><ele>1195.3333333333335</ele><time>2026-05-01T16:10:01.868Z</time></trkpt><trkpt lat="43.8082528" lon="6.8600635"><ele>1193.0</ele><time>2026-05-01T16:10:02.868Z</time></trkpt><trkpt lat="43.8081791" lon="6.8597406"><ele>1193.0</ele><time>2026-05-01T16:10:03.868Z</time></trkpt><trkpt lat="43.8080776" lon="6.8594623"><ele>1193.0</ele><time>2026-05-01T16:10:04.868Z</time></trkpt><trkpt lat="43.8079799" lon="6.859228"><ele>1193.0</ele><time>2026-05-01T16:10:05.869Z</time></trkpt><trkpt lat="43.8078984" lon="6.8590441"><ele>1193.3333333333335</ele><time>2026-05-01T16:10:06.868Z</time></trkpt><trkpt lat="43.8077588" lon="6.858803"><ele>1193.6666666666667</ele><time>2026-05-01T16:10:07.868Z</time></trkpt><trkpt lat="43.8076233" lon="6.8585667"><ele>1194.0</ele><time>2026-05-01T16:10:08.868Z</time></trkpt><trkpt lat="43.8074868" lon="6.8583306"><ele>1192.3333333333333</ele><time>2026-05-01T16:10:09.868Z</time></trkpt><trkpt lat="43.8073621" lon="6.8580968"><ele>1190.6666666666665</ele><time>2026-05-01T16:10:10.868Z</time></trkpt><trkpt lat="43.8072108" lon="6.85786"><ele>1189.0</ele><time>2026-05-01T16:10:11.868Z</time></trkpt><trkpt lat="43.8070662" lon="6.8576239"><ele>1189.0</ele><time>2026-05-01T16:10:12.868Z</time></trkpt><trkpt lat="43.8069163" lon="6.8573801"><ele>1189.0</ele><time>2026-05-01T16:10:13.868Z</time></trkpt><trkpt lat="43.8067727" lon="6.8571574"><ele>1189.0</ele><time>2026-05-01T16:10:14.868Z</time></trkpt><trkpt lat="43.8066934" lon="6.8569414"><ele>1187.3333333333333</ele><time>2026-05-01T16:10:15.868Z</time></trkpt><trkpt lat="43.8065574" lon="6.8567433"><ele>1185.6666666666667</ele><time>2026-05-01T16:10:16.868Z</time></trkpt><trkpt lat="43.8064278" lon="6.8565162"><ele>1184.0</ele><time>2026-05-01T16:10:17.869Z</time></trkpt><trkpt lat="43.8062963" lon="6.8563128"><ele>1184.0</ele><time>2026-05-01T16:10:18.868Z</time></trkpt><trkpt lat="43.8061784" lon="6.8560913"><ele>1184.0</ele><time>2026-05-01T16:10:19.868Z</time></trkpt><trkpt lat="43.8060547" lon="6.8558435"><ele>1184.0</ele><time>2026-05-01T16:10:20.868Z</time></trkpt><trkpt lat="43.8059545" lon="6.8556137"><ele>1183.6666666666667</ele><time>2026-05-01T16:10:21.868Z</time></trkpt><trkpt lat="43.8058529" lon="6.8553793"><ele>1183.3333333333333</ele><time>2026-05-01T16:10:22.868Z</time></trkpt><trkpt lat="43.8057779" lon="6.8551929"><ele>1183.0</ele><time>2026-05-01T16:10:23.868Z</time></trkpt><trkpt lat="43.8056814" lon="6.8550032"><ele>1183.0</ele><time>2026-05-01T16:10:24.868Z</time></trkpt><trkpt lat="43.8055672" lon="6.8547978"><ele>1183.0</ele><time>2026-05-01T16:10:25.868Z</time></trkpt><trkpt lat="43.8054815" lon="6.8546075"><ele>1183.0</ele><time>2026-05-01T16:10:26.868Z</time></trkpt><trkpt lat="43.8053824" lon="6.854371"><ele>1183.3333333333333</ele><time>2026-05-01T16:10:27.868Z</time></trkpt><trkpt lat="43.8052669" lon="6.8541074"><ele>1183.6666666666667</ele><time>2026-05-01T16:10:28.868Z</time></trkpt><trkpt lat="43.8051886" lon="6.8538753"><ele>1184.0</ele><time>2026-05-01T16:10:29.868Z</time></trkpt><trkpt lat="43.8050813" lon="6.853638"><ele>1182.6666666666667</ele><time>2026-05-01T16:10:30.868Z</time></trkpt><trkpt lat="43.8049542" lon="6.8533767"><ele>1181.3333333333333</ele><time>2026-05-01T16:10:31.868Z</time></trkpt><trkpt lat="43.8049121" lon="6.8531945"><ele>1180.0</ele><time>2026-05-01T16:10:32.869Z</time></trkpt><trkpt lat="43.8048109" lon="6.8529599"><ele>1180.0</ele><time>2026-05-01T16:10:33.868Z</time></trkpt><trkpt lat="43.8047243" lon="6.8527337"><ele>1180.0</ele><time>2026-05-01T16:10:34.868Z</time></trkpt><trkpt lat="43.8046425" lon="6.8524914"><ele>1180.0</ele><time>2026-05-01T16:10:35.868Z</time></trkpt><trkpt lat="43.8045965" lon="6.8522556"><ele>1179.0</ele><time>2026-05-01T16:10:36.868Z</time></trkpt><trkpt lat="43.804524" lon="6.8520115"><ele>1178.0</ele><time>2026-05-01T16:10:37.868Z</time></trkpt><trkpt lat="43.8044463" lon="6.8517502"><ele>1177.0</ele><time>2026-05-01T16:10:38.868Z</time></trkpt><trkpt lat="43.8043671" lon="6.85149"><ele>1176.3333333333333</ele><time>2026-05-01T16:10:39.868Z</time></trkpt><trkpt lat="43.8042695" lon="6.851208"><ele>1175.6666666666667</ele><time>2026-05-01T16:10:40.868Z</time></trkpt><trkpt lat="43.8041935" lon="6.8509491"><ele>1175.0</ele><time>2026-05-01T16:10:41.868Z</time></trkpt><trkpt lat="43.8041233" lon="6.8507098"><ele>1175.0</ele><time>2026-05-01T16:10:42.868Z</time></trkpt><trkpt lat="43.8040302" lon="6.8504493"><ele>1175.0</ele><time>2026-05-01T16:10:43.868Z</time></trkpt><trkpt lat="43.8039411" lon="6.8501755"><ele>1175.0</ele><time>2026-05-01T16:10:44.868Z</time></trkpt><trkpt lat="43.8038569" lon="6.8498911"><ele>1174.6666666666667</ele><time>2026-05-01T16:10:45.869Z</time></trkpt><trkpt lat="43.8037818" lon="6.8496422"><ele>1174.3333333333333</ele><time>2026-05-01T16:10:46.868Z</time></trkpt><trkpt lat="43.8036842" lon="6.8493673"><ele>1174.0</ele><time>2026-05-01T16:10:47.868Z</time></trkpt><trkpt lat="43.8035999" lon="6.8491205"><ele>1173.3333333333333</ele><time>2026-05-01T16:10:48.869Z</time></trkpt><trkpt lat="43.8035158" lon="6.8488631"><ele>1172.6666666666667</ele><time>2026-05-01T16:10:49.868Z</time></trkpt><trkpt lat="43.8034428" lon="6.8486035"><ele>1172.0</ele><time>2026-05-01T16:10:50.868Z</time></trkpt><trkpt lat="43.8033534" lon="6.8483373"><ele>1172.0</ele><time>2026-05-01T16:10:51.868Z</time></trkpt><trkpt lat="43.8032466" lon="6.8480866"><ele>1172.0</ele><time>2026-05-01T16:10:52.868Z</time></trkpt><trkpt lat="43.803141" lon="6.847818"><ele>1172.0</ele><time>2026-05-01T16:10:53.868Z</time></trkpt><trkpt lat="43.803049" lon="6.8475716"><ele>1172.3333333333335</ele><time>2026-05-01T16:10:54.868Z</time></trkpt><trkpt lat="43.8029546" lon="6.8473104"><ele>1172.6666666666667</ele><time>2026-05-01T16:10:55.868Z</time></trkpt><trkpt lat="43.8028816" lon="6.8470597"><ele>1173.0</ele><time>2026-05-01T16:10:56.868Z</time></trkpt><trkpt lat="43.8027888" lon="6.8467905"><ele>1173.0</ele><time>2026-05-01T16:10:57.869Z</time></trkpt><trkpt lat="43.8027174" lon="6.8465677"><ele>1173.0</ele><time>2026-05-01T16:10:58.868Z</time></trkpt><trkpt lat="43.8026553" lon="6.8463532"><ele>1173.0</ele><time>2026-05-01T16:10:59.868Z</time></trkpt><trkpt lat="43.8025659" lon="6.8460465"><ele>1172.3333333333333</ele><time>2026-05-01T16:11:00.868Z</time></trkpt><trkpt lat="43.8025103" lon="6.8457645"><ele>1171.6666666666665</ele><time>2026-05-01T16:11:01.868Z</time></trkpt><trkpt lat="43.802478" lon="6.8454924"><ele>1171.0</ele><time>2026-05-01T16:11:02.868Z</time></trkpt><trkpt lat="43.8024432" lon="6.8452304"><ele>1171.6666666666665</ele><time>2026-05-01T16:11:03.868Z</time></trkpt><trkpt lat="43.8024311" lon="6.844978"><ele>1172.3333333333333</ele><time>2026-05-01T16:11:04.868Z</time></trkpt><trkpt lat="43.8023979" lon="6.8446531"><ele>1173.0</ele><time>2026-05-01T16:11:05.868Z</time></trkpt><trkpt lat="43.8023758" lon="6.8443624"><ele>1173.3333333333333</ele><time>2026-05-01T16:11:06.868Z</time></trkpt><trkpt lat="43.8023419" lon="6.8440911"><ele>1173.6666666666665</ele><time>2026-05-01T16:11:07.868Z</time></trkpt><trkpt lat="43.8023023" lon="6.843802"><ele>1174.0</ele><time>2026-05-01T16:11:08.868Z</time></trkpt><trkpt lat="43.8022931" lon="6.8435252"><ele>1173.6666666666665</ele><time>2026-05-01T16:11:09.868Z</time></trkpt><trkpt lat="43.8022591" lon="6.8432314"><ele>1173.3333333333333</ele><time>2026-05-01T16:11:10.868Z</time></trkpt><trkpt lat="43.8022211" lon="6.8429127"><ele>1173.0</ele><time>2026-05-01T16:11:11.868Z</time></trkpt><trkpt lat="43.8022113" lon="6.8426218"><ele>1173.6666666666667</ele><time>2026-05-01T16:11:12.868Z</time></trkpt><trkpt lat="43.8022193" lon="6.8423295"><ele>1174.3333333333335</ele><time>2026-05-01T16:11:13.868Z</time></trkpt><trkpt lat="43.8021825" lon="6.8420361"><ele>1175.0</ele><time>2026-05-01T16:11:14.868Z</time></trkpt><trkpt lat="43.8021453" lon="6.8417654"><ele>1176.3333333333335</ele><time>2026-05-01T16:11:15.868Z</time></trkpt><trkpt lat="43.8020837" lon="6.8414981"><ele>1177.6666666666667</ele><time>2026-05-01T16:11:16.868Z</time></trkpt><trkpt lat="43.8020306" lon="6.8412024"><ele>1179.0</ele><time>2026-05-01T16:11:17.868Z</time></trkpt><trkpt lat="43.8019539" lon="6.8409447"><ele>1178.6666666666667</ele><time>2026-05-01T16:11:18.868Z</time></trkpt><trkpt lat="43.8018915" lon="6.8406609"><ele>1178.3333333333335</ele><time>2026-05-01T16:11:19.868Z</time></trkpt><trkpt lat="43.8018102" lon="6.8404096"><ele>1178.0</ele><time>2026-05-01T16:11:20.868Z</time></trkpt><trkpt lat="43.8016967" lon="6.8401495"><ele>1177.3333333333335</ele><time>2026-05-01T16:11:21.868Z</time></trkpt><trkpt lat="43.8016146" lon="6.8398638"><ele>1176.6666666666667</ele><time>2026-05-01T16:11:22.868Z</time></trkpt><trkpt lat="43.8015198" lon="6.8396228"><ele>1176.0</ele><time>2026-05-01T16:11:23.868Z</time></trkpt><trkpt lat="43.8014317" lon="6.8393968"><ele>1174.3333333333333</ele><time>2026-05-01T16:11:24.868Z</time></trkpt><trkpt lat="43.8013178" lon="6.8391287"><ele>1172.6666666666665</ele><time>2026-05-01T16:11:25.868Z</time></trkpt><trkpt lat="43.8012228" lon="6.8389342"><ele>1171.0</ele><time>2026-05-01T16:11:26.868Z</time></trkpt><trkpt lat="43.8011243" lon="6.8387302"><ele>1171.0</ele><time>2026-05-01T16:11:27.868Z</time></trkpt><trkpt lat="43.8010434" lon="6.8385755"><ele>1171.0</ele><time>2026-05-01T16:11:28.868Z</time></trkpt><trkpt lat="43.8009485" lon="6.8384318"><ele>1171.0</ele><time>2026-05-01T16:11:29.869Z</time></trkpt><trkpt lat="43.8008868" lon="6.8383179"><ele>1171.0</ele><time>2026-05-01T16:11:30.868Z</time></trkpt><trkpt lat="43.8008311" lon="6.8382764"><ele>1171.0</ele><time>2026-05-01T16:11:31.869Z</time></trkpt><trkpt lat="43.8007631" lon="6.8382273"><ele>1170.6</ele><time>2026-05-01T16:11:32.868Z</time></trkpt><trkpt lat="43.8006641" lon="6.8381892"><ele>1170.1999999999998</ele><time>2026-05-01T16:11:33.868Z</time></trkpt><trkpt lat="43.8005749" lon="6.8380473"><ele>1169.8000000000002</ele><time>2026-05-01T16:11:35.868Z</time></trkpt><trkpt lat="43.8005597" lon="6.8379379"><ele>1169.4</ele><time>2026-05-01T16:11:36.868Z</time></trkpt><trkpt lat="43.8005486" lon="6.8378383"><ele>1169.0</ele><time>2026-05-01T16:11:37.868Z</time></trkpt><trkpt lat="43.8005164" lon="6.83775"><ele>1169.0</ele><time>2026-05-01T16:11:38.868Z</time></trkpt><trkpt lat="43.8005183" lon="6.837659"><ele>1169.0</ele><time>2026-05-01T16:11:39.868Z</time></trkpt><trkpt lat="43.8005479" lon="6.8374838"><ele>1169.0</ele><time>2026-05-01T16:11:41.869Z</time></trkpt><trkpt lat="43.8005939" lon="6.8373916"><ele>1169.0</ele><time>2026-05-01T16:11:42.868Z</time></trkpt><trkpt lat="43.8006208" lon="6.8372888"><ele>1169.0</ele><time>2026-05-01T16:11:44.868Z</time></trkpt><trkpt lat="43.8006089" lon="6.837166"><ele>1169.0</ele><time>2026-05-01T16:11:53.868Z</time></trkpt><trkpt lat="43.8005301" lon="6.8372001"><ele>1168.1666666666667</ele><time>2026-05-01T16:14:09.868Z</time></trkpt><trkpt lat="43.8005934" lon="6.837189"><ele>1167.3333333333335</ele><time>2026-05-01T16:14:38.868Z</time></trkpt><trkpt lat="43.8005514" lon="6.8371236"><ele>1166.5</ele><time>2026-05-01T16:15:54.869Z</time></trkpt><trkpt lat="43.8005659" lon="6.8372278"><ele>1165.6666666666667</ele><time>2026-05-01T16:16:12.868Z</time></trkpt><trkpt lat="43.8006483" lon="6.8372018"><ele>1164.8333333333333</ele><time>2026-05-01T16:16:25.868Z</time></trkpt><trkpt lat="43.8005691" lon="6.8371472"><ele>1164.0</ele><time>2026-05-01T16:17:19.868Z</time></trkpt><trkpt lat="43.8005121" lon="6.837017"><ele>1164.0</ele><time>2026-05-01T16:17:21.867Z</time></trkpt><trkpt lat="43.8004711" lon="6.8368979"><ele>1164.0</ele><time>2026-05-01T16:17:22.867Z</time></trkpt><trkpt lat="43.8004586" lon="6.8368098"><ele>1164.0</ele><time>2026-05-01T16:17:23.868Z</time></trkpt><trkpt lat="43.8004034" lon="6.8366943"><ele>1164.0</ele><time>2026-05-01T16:17:24.867Z</time></trkpt><trkpt lat="43.8003292" lon="6.8364983"><ele>1164.0</ele><time>2026-05-01T16:17:25.867Z</time></trkpt><trkpt lat="43.8002756" lon="6.8363486"><ele>1163.5</ele><time>2026-05-01T16:17:26.867Z</time></trkpt><trkpt lat="43.8002353" lon="6.8361993"><ele>1163.0</ele><time>2026-05-01T16:17:27.867Z</time></trkpt><trkpt lat="43.8001818" lon="6.836026"><ele>1162.5</ele><time>2026-05-01T16:17:28.867Z</time></trkpt><trkpt lat="43.80014" lon="6.8358672"><ele>1162.0</ele><time>2026-05-01T16:17:29.867Z</time></trkpt><trkpt lat="43.8000969" lon="6.8357014"><ele>1162.6666666666665</ele><time>2026-05-01T16:17:30.868Z</time></trkpt><trkpt lat="43.8000368" lon="6.8354787"><ele>1163.3333333333333</ele><time>2026-05-01T16:17:31.867Z</time></trkpt><trkpt lat="43.7999846" lon="6.8352889"><ele>1164.0</ele><time>2026-05-01T16:17:32.867Z</time></trkpt><trkpt lat="43.7999277" lon="6.8350771"><ele>1164.0</ele><time>2026-05-01T16:17:33.867Z</time></trkpt><trkpt lat="43.7998534" lon="6.8348419"><ele>1164.0</ele><time>2026-05-01T16:17:34.867Z</time></trkpt><trkpt lat="43.7997839" lon="6.8346367"><ele>1164.0</ele><time>2026-05-01T16:17:35.867Z</time></trkpt><trkpt lat="43.799705" lon="6.8344144"><ele>1163.3333333333333</ele><time>2026-05-01T16:17:36.867Z</time></trkpt><trkpt lat="43.7996074" lon="6.8341689"><ele>1162.6666666666665</ele><time>2026-05-01T16:17:37.867Z</time></trkpt><trkpt lat="43.7995271" lon="6.8339368"><ele>1162.0</ele><time>2026-05-01T16:17:38.867Z</time></trkpt><trkpt lat="43.7994241" lon="6.8337055"><ele>1162.0</ele><time>2026-05-01T16:17:39.867Z</time></trkpt><trkpt lat="43.7993506" lon="6.8335411"><ele>1162.0</ele><time>2026-05-01T16:17:40.867Z</time></trkpt><trkpt lat="43.7993056" lon="6.8333572"><ele>1162.0</ele><time>2026-05-01T16:17:41.867Z</time></trkpt><trkpt lat="43.7992242" lon="6.8331329"><ele>1163.0</ele><time>2026-05-01T16:17:42.867Z</time></trkpt><trkpt lat="43.7991784" lon="6.8329057"><ele>1164.0</ele><time>2026-05-01T16:17:43.867Z</time></trkpt><trkpt lat="43.7991365" lon="6.8327187"><ele>1165.0</ele><time>2026-05-01T16:17:44.867Z</time></trkpt><trkpt lat="43.7990923" lon="6.8324839"><ele>1165.0</ele><time>2026-05-01T16:17:45.867Z</time></trkpt><trkpt lat="43.7990589" lon="6.8323067"><ele>1165.0</ele><time>2026-05-01T16:17:46.867Z</time></trkpt><trkpt lat="43.799011" lon="6.8320901"><ele>1165.0</ele><time>2026-05-01T16:17:47.867Z</time></trkpt><trkpt lat="43.7989999" lon="6.8318912"><ele>1165.0</ele><time>2026-05-01T16:17:48.867Z</time></trkpt><trkpt lat="43.7989901" lon="6.8316149"><ele>1163.6666666666665</ele><time>2026-05-01T16:17:49.867Z</time></trkpt><trkpt lat="43.799004" lon="6.831404"><ele>1162.3333333333333</ele><time>2026-05-01T16:17:50.868Z</time></trkpt><trkpt lat="43.7990489" lon="6.8312082"><ele>1161.0</ele><time>2026-05-01T16:17:51.867Z</time></trkpt><trkpt lat="43.7991122" lon="6.8310008"><ele>1161.0</ele><time>2026-05-01T16:17:52.867Z</time></trkpt><trkpt lat="43.7991689" lon="6.8307795"><ele>1161.0</ele><time>2026-05-01T16:17:53.868Z</time></trkpt><trkpt lat="43.7992557" lon="6.8305689"><ele>1161.0</ele><time>2026-05-01T16:17:54.867Z</time></trkpt><trkpt lat="43.7993637" lon="6.830407"><ele>1161.0</ele><time>2026-05-01T16:17:55.867Z</time></trkpt><trkpt lat="43.7994903" lon="6.8302319"><ele>1161.0</ele><time>2026-05-01T16:17:56.867Z</time></trkpt><trkpt lat="43.7996367" lon="6.8300676"><ele>1161.0</ele><time>2026-05-01T16:17:57.867Z</time></trkpt><trkpt lat="43.7997585" lon="6.8299301"><ele>1160.3333333333333</ele><time>2026-05-01T16:17:58.867Z</time></trkpt><trkpt lat="43.7999059" lon="6.8297712"><ele>1159.6666666666665</ele><time>2026-05-01T16:17:59.867Z</time></trkpt><trkpt lat="43.800022" lon="6.8296319"><ele>1159.0</ele><time>2026-05-01T16:18:00.867Z</time></trkpt><trkpt lat="43.8001318" lon="6.8294489"><ele>1156.6666666666665</ele><time>2026-05-01T16:18:01.867Z</time></trkpt><trkpt lat="43.8002679" lon="6.8292791"><ele>1154.3333333333333</ele><time>2026-05-01T16:18:02.867Z</time></trkpt><trkpt lat="43.8003568" lon="6.8291087"><ele>1152.0</ele><time>2026-05-01T16:18:03.867Z</time></trkpt><trkpt lat="43.8004257" lon="6.8289128"><ele>1152.0</ele><time>2026-05-01T16:18:04.867Z</time></trkpt><trkpt lat="43.800489" lon="6.8287244"><ele>1152.0</ele><time>2026-05-01T16:18:05.867Z</time></trkpt><trkpt lat="43.8005191" lon="6.828488"><ele>1152.0</ele><time>2026-05-01T16:18:06.867Z</time></trkpt><trkpt lat="43.8005702" lon="6.8282186"><ele>1151.0</ele><time>2026-05-01T16:18:07.867Z</time></trkpt><trkpt lat="43.8006227" lon="6.8279303"><ele>1150.0</ele><time>2026-05-01T16:18:08.867Z</time></trkpt><trkpt lat="43.8006977" lon="6.8276554"><ele>1149.0</ele><time>2026-05-01T16:18:09.868Z</time></trkpt><trkpt lat="43.8007702" lon="6.8274354"><ele>1149.0</ele><time>2026-05-01T16:18:10.867Z</time></trkpt><trkpt lat="43.8008231" lon="6.8272094"><ele>1149.0</ele><time>2026-05-01T16:18:11.867Z</time></trkpt><trkpt lat="43.8008875" lon="6.8269637"><ele>1149.0</ele><time>2026-05-01T16:18:12.867Z</time></trkpt><trkpt lat="43.8009802" lon="6.8267367"><ele>1150.3333333333333</ele><time>2026-05-01T16:18:13.867Z</time></trkpt><trkpt lat="43.8010833" lon="6.826491"><ele>1151.6666666666665</ele><time>2026-05-01T16:18:14.867Z</time></trkpt><trkpt lat="43.8011731" lon="6.8262692"><ele>1153.0</ele><time>2026-05-01T16:18:15.867Z</time></trkpt><trkpt lat="43.8012496" lon="6.8260244"><ele>1152.3333333333333</ele><time>2026-05-01T16:18:16.867Z</time></trkpt><trkpt lat="43.8013155" lon="6.8257404"><ele>1151.6666666666667</ele><time>2026-05-01T16:18:17.868Z</time></trkpt><trkpt lat="43.8013928" lon="6.825485"><ele>1151.0</ele><time>2026-05-01T16:18:18.867Z</time></trkpt><trkpt lat="43.8014588" lon="6.8252225"><ele>1150.6666666666667</ele><time>2026-05-01T16:18:19.867Z</time></trkpt><trkpt lat="43.8015096" lon="6.8249716"><ele>1150.3333333333333</ele><time>2026-05-01T16:18:20.867Z</time></trkpt><trkpt lat="43.8015729" lon="6.8247504"><ele>1150.0</ele><time>2026-05-01T16:18:21.867Z</time></trkpt><trkpt lat="43.8016123" lon="6.8245154"><ele>1150.0</ele><time>2026-05-01T16:18:22.867Z</time></trkpt><trkpt lat="43.8016546" lon="6.8243263"><ele>1150.0</ele><time>2026-05-01T16:18:23.867Z</time></trkpt><trkpt lat="43.8016534" lon="6.8241023"><ele>1150.0</ele><time>2026-05-01T16:18:24.867Z</time></trkpt><trkpt lat="43.8016262" lon="6.8239067"><ele>1150.0</ele><time>2026-05-01T16:18:25.867Z</time></trkpt><trkpt lat="43.8015971" lon="6.8236494"><ele>1152.0</ele><time>2026-05-01T16:18:26.867Z</time></trkpt><trkpt lat="43.8015441" lon="6.8233222"><ele>1154.0</ele><time>2026-05-01T16:18:27.867Z</time></trkpt><trkpt lat="43.8015117" lon="6.8229923"><ele>1154.0</ele><time>2026-05-01T16:18:28.867Z</time></trkpt><trkpt lat="43.8014323" lon="6.8226889"><ele>1154.0</ele><time>2026-05-01T16:18:29.868Z</time></trkpt><trkpt lat="43.8013782" lon="6.8223911"><ele>1154.5</ele><time>2026-05-01T16:18:30.868Z</time></trkpt><trkpt lat="43.8013252" lon="6.8221054"><ele>1155.0</ele><time>2026-05-01T16:18:31.867Z</time></trkpt><trkpt lat="43.8012307" lon="6.8217995"><ele>1153.0</ele><time>2026-05-01T16:18:32.867Z</time></trkpt><trkpt lat="43.8011659" lon="6.8215394"><ele>1151.0</ele><time>2026-05-01T16:18:33.867Z</time></trkpt><trkpt lat="43.8010821" lon="6.8212376"><ele>1149.0</ele><time>2026-05-01T16:18:34.867Z</time></trkpt><trkpt lat="43.8010137" lon="6.8209305"><ele>1146.5</ele><time>2026-05-01T16:18:35.868Z</time></trkpt><trkpt lat="43.8009547" lon="6.8206417"><ele>1144.0</ele><time>2026-05-01T16:18:36.868Z</time></trkpt><trkpt lat="43.8008716" lon="6.820295"><ele>1143.0</ele><time>2026-05-01T16:18:37.867Z</time></trkpt><trkpt lat="43.8008559" lon="6.8200272"><ele>1142.0</ele><time>2026-05-01T16:18:38.867Z</time></trkpt><trkpt lat="43.8008095" lon="6.8197287"><ele>1141.0</ele><time>2026-05-01T16:18:39.867Z</time></trkpt><trkpt lat="43.8007366" lon="6.8194015"><ele>1141.3333333333333</ele><time>2026-05-01T16:18:40.867Z</time></trkpt><trkpt lat="43.8006896" lon="6.8191195"><ele>1141.6666666666667</ele><time>2026-05-01T16:18:41.868Z</time></trkpt><trkpt lat="43.8006309" lon="6.8188209"><ele>1142.0</ele><time>2026-05-01T16:18:42.867Z</time></trkpt><trkpt lat="43.8005572" lon="6.8185198"><ele>1142.3333333333335</ele><time>2026-05-01T16:18:43.868Z</time></trkpt><trkpt lat="43.8005034" lon="6.8182594"><ele>1142.6666666666667</ele><time>2026-05-01T16:18:44.868Z</time></trkpt><trkpt lat="43.8004464" lon="6.8179653"><ele>1143.0</ele><time>2026-05-01T16:18:45.867Z</time></trkpt><trkpt lat="43.8003892" lon="6.8177067"><ele>1142.6666666666667</ele><time>2026-05-01T16:18:46.867Z</time></trkpt><trkpt lat="43.8003396" lon="6.8174256"><ele>1142.3333333333335</ele><time>2026-05-01T16:18:47.867Z</time></trkpt><trkpt lat="43.8002803" lon="6.8171382"><ele>1142.0</ele><time>2026-05-01T16:18:48.867Z</time></trkpt><trkpt lat="43.8002272" lon="6.8168847"><ele>1141.0</ele><time>2026-05-01T16:18:49.867Z</time></trkpt><trkpt lat="43.8001694" lon="6.816576"><ele>1140.0</ele><time>2026-05-01T16:18:50.867Z</time></trkpt><trkpt lat="43.8001043" lon="6.8162943"><ele>1139.0</ele><time>2026-05-01T16:18:51.867Z</time></trkpt><trkpt lat="43.8000487" lon="6.8160106"><ele>1137.3333333333335</ele><time>2026-05-01T16:18:52.868Z</time></trkpt><trkpt lat="43.7999927" lon="6.8157321"><ele>1135.6666666666667</ele><time>2026-05-01T16:18:53.867Z</time></trkpt><trkpt lat="43.7999484" lon="6.8154547"><ele>1134.0</ele><time>2026-05-01T16:18:54.867Z</time></trkpt><trkpt lat="43.7999127" lon="6.8151947"><ele>1133.6666666666667</ele><time>2026-05-01T16:18:55.867Z</time></trkpt><trkpt lat="43.7998682" lon="6.8149449"><ele>1133.3333333333335</ele><time>2026-05-01T16:18:56.867Z</time></trkpt><trkpt lat="43.7998243" lon="6.8146735"><ele>1133.0</ele><time>2026-05-01T16:18:57.868Z</time></trkpt><trkpt lat="43.7998127" lon="6.8144181"><ele>1134.3333333333335</ele><time>2026-05-01T16:18:58.867Z</time></trkpt><trkpt lat="43.7998143" lon="6.8141422"><ele>1135.6666666666667</ele><time>2026-05-01T16:18:59.867Z</time></trkpt><trkpt lat="43.7998079" lon="6.8137978"><ele>1137.0</ele><time>2026-05-01T16:19:00.867Z</time></trkpt><trkpt lat="43.7997926" lon="6.8135127"><ele>1137.0</ele><time>2026-05-01T16:19:01.868Z</time></trkpt><trkpt lat="43.7997742" lon="6.8132159"><ele>1137.0</ele><time>2026-05-01T16:19:02.867Z</time></trkpt><trkpt lat="43.7997816" lon="6.8129291"><ele>1137.0</ele><time>2026-05-01T16:19:03.867Z</time></trkpt><trkpt lat="43.7998023" lon="6.8126416"><ele>1137.3333333333333</ele><time>2026-05-01T16:19:04.867Z</time></trkpt><trkpt lat="43.7997795" lon="6.8123297"><ele>1137.6666666666665</ele><time>2026-05-01T16:19:05.867Z</time></trkpt><trkpt lat="43.7997807" lon="6.8120281"><ele>1138.0</ele><time>2026-05-01T16:19:06.867Z</time></trkpt><trkpt lat="43.7997779" lon="6.8117059"><ele>1139.0</ele><time>2026-05-01T16:19:07.867Z</time></trkpt><trkpt lat="43.7997986" lon="6.8114568"><ele>1140.0</ele><time>2026-05-01T16:19:08.867Z</time></trkpt><trkpt lat="43.7997864" lon="6.8111548"><ele>1141.0</ele><time>2026-05-01T16:19:09.868Z</time></trkpt><trkpt lat="43.7997648" lon="6.8109013"><ele>1141.0</ele><time>2026-05-01T16:19:10.867Z</time></trkpt><trkpt lat="43.7997933" lon="6.8106472"><ele>1141.0</ele><time>2026-05-01T16:19:11.868Z</time></trkpt><trkpt lat="43.7998031" lon="6.8104297"><ele>1141.0</ele><time>2026-05-01T16:19:12.867Z</time></trkpt><trkpt lat="43.7998033" lon="6.8101402"><ele>1141.0</ele><time>2026-05-01T16:19:13.867Z</time></trkpt><trkpt lat="43.7997984" lon="6.8098611"><ele>1141.0</ele><time>2026-05-01T16:19:14.867Z</time></trkpt><trkpt lat="43.7997854" lon="6.8095849"><ele>1141.0</ele><time>2026-05-01T16:19:15.867Z</time></trkpt><trkpt lat="43.7998017" lon="6.8093353"><ele>1141.3333333333333</ele><time>2026-05-01T16:19:16.867Z</time></trkpt><trkpt lat="43.7998112" lon="6.809106"><ele>1141.6666666666667</ele><time>2026-05-01T16:19:17.867Z</time></trkpt><trkpt lat="43.799828" lon="6.8088636"><ele>1142.0</ele><time>2026-05-01T16:19:18.868Z</time></trkpt><trkpt lat="43.7998174" lon="6.8086068"><ele>1143.3333333333335</ele><time>2026-05-01T16:19:19.867Z</time></trkpt><trkpt lat="43.7998072" lon="6.8083625"><ele>1144.6666666666667</ele><time>2026-05-01T16:19:20.867Z</time></trkpt><trkpt lat="43.7998098" lon="6.808085"><ele>1146.0</ele><time>2026-05-01T16:19:21.867Z</time></trkpt><trkpt lat="43.7998533" lon="6.8077804"><ele>1147.0</ele><time>2026-05-01T16:19:22.867Z</time></trkpt><trkpt lat="43.7998696" lon="6.8075375"><ele>1148.0</ele><time>2026-05-01T16:19:23.867Z</time></trkpt><trkpt lat="43.7999074" lon="6.8072776"><ele>1149.0</ele><time>2026-05-01T16:19:24.867Z</time></trkpt><trkpt lat="43.7999332" lon="6.8070411"><ele>1149.6666666666667</ele><time>2026-05-01T16:19:25.867Z</time></trkpt><trkpt lat="43.7999543" lon="6.806799"><ele>1150.3333333333335</ele><time>2026-05-01T16:19:26.867Z</time></trkpt><trkpt lat="43.7999939" lon="6.8065629"><ele>1151.0</ele><time>2026-05-01T16:19:27.867Z</time></trkpt><trkpt lat="43.8000079" lon="6.8063559"><ele>1151.0</ele><time>2026-05-01T16:19:28.867Z</time></trkpt><trkpt lat="43.7999964" lon="6.8061177"><ele>1151.0</ele><time>2026-05-01T16:19:29.867Z</time></trkpt><trkpt lat="43.7999598" lon="6.8058964"><ele>1151.0</ele><time>2026-05-01T16:19:30.867Z</time></trkpt><trkpt lat="43.7999225" lon="6.8056822"><ele>1152.0</ele><time>2026-05-01T16:19:31.867Z</time></trkpt><trkpt lat="43.7998763" lon="6.8054293"><ele>1153.0</ele><time>2026-05-01T16:19:32.867Z</time></trkpt><trkpt lat="43.7997829" lon="6.8051367"><ele>1154.0</ele><time>2026-05-01T16:19:33.867Z</time></trkpt><trkpt lat="43.7996931" lon="6.8048503"><ele>1156.3333333333335</ele><time>2026-05-01T16:19:34.868Z</time></trkpt><trkpt lat="43.7995961" lon="6.8046161"><ele>1158.6666666666667</ele><time>2026-05-01T16:19:35.867Z</time></trkpt><trkpt lat="43.7994835" lon="6.8043873"><ele>1161.0</ele><time>2026-05-01T16:19:36.867Z</time></trkpt><trkpt lat="43.799395" lon="6.8042259"><ele>1158.0</ele><time>2026-05-01T16:19:37.868Z</time></trkpt><trkpt lat="43.7993246" lon="6.8040529"><ele>1155.0</ele><time>2026-05-01T16:19:38.867Z</time></trkpt><trkpt lat="43.7992358" lon="6.8038549"><ele>1152.0</ele><time>2026-05-01T16:19:39.867Z</time></trkpt><trkpt lat="43.7991469" lon="6.8036468"><ele>1151.6666666666667</ele><time>2026-05-01T16:19:40.867Z</time></trkpt><trkpt lat="43.7990735" lon="6.8034896"><ele>1151.3333333333335</ele><time>2026-05-01T16:19:41.867Z</time></trkpt><trkpt lat="43.7990045" lon="6.8032895"><ele>1151.0</ele><time>2026-05-01T16:19:42.867Z</time></trkpt><trkpt lat="43.7989332" lon="6.8030603"><ele>1151.0</ele><time>2026-05-01T16:19:43.867Z</time></trkpt><trkpt lat="43.7989074" lon="6.8028985"><ele>1151.0</ele><time>2026-05-01T16:19:44.867Z</time></trkpt><trkpt lat="43.7988646" lon="6.8027108"><ele>1151.0</ele><time>2026-05-01T16:19:45.867Z</time></trkpt><trkpt lat="43.7988555" lon="6.8025238"><ele>1151.0</ele><time>2026-05-01T16:19:46.868Z</time></trkpt><trkpt lat="43.7988357" lon="6.8022886"><ele>1151.5</ele><time>2026-05-01T16:19:47.867Z</time></trkpt><trkpt lat="43.7988114" lon="6.8020579"><ele>1152.0</ele><time>2026-05-01T16:19:48.867Z</time></trkpt><trkpt lat="43.7988064" lon="6.8018981"><ele>1152.5</ele><time>2026-05-01T16:19:49.868Z</time></trkpt><trkpt lat="43.7987752" lon="6.8017385"><ele>1153.0</ele><time>2026-05-01T16:19:50.867Z</time></trkpt><trkpt lat="43.7987504" lon="6.8015768"><ele>1153.4</ele><time>2026-05-01T16:19:51.867Z</time></trkpt><trkpt lat="43.7987003" lon="6.8014301"><ele>1153.8</ele><time>2026-05-01T16:19:52.867Z</time></trkpt><trkpt lat="43.7986387" lon="6.8013024"><ele>1154.2</ele><time>2026-05-01T16:19:53.867Z</time></trkpt><trkpt lat="43.7985859" lon="6.8011795"><ele>1154.6</ele><time>2026-05-01T16:19:54.868Z</time></trkpt><trkpt lat="43.798546" lon="6.8010434"><ele>1155.0</ele><time>2026-05-01T16:19:55.867Z</time></trkpt><trkpt lat="43.7984889" lon="6.8009482"><ele>1153.0</ele><time>2026-05-01T16:19:56.867Z</time></trkpt><trkpt lat="43.798406" lon="6.8007976"><ele>1151.0</ele><time>2026-05-01T16:19:57.867Z</time></trkpt><trkpt lat="43.7983402" lon="6.8006319"><ele>1149.0</ele><time>2026-05-01T16:19:58.867Z</time></trkpt><trkpt lat="43.7982781" lon="6.800478"><ele>1147.0</ele><time>2026-05-01T16:19:59.867Z</time></trkpt><trkpt lat="43.798242" lon="6.800323"><ele>1147.0</ele><time>2026-05-01T16:20:00.867Z</time></trkpt><trkpt lat="43.7982048" lon="6.8000881"><ele>1147.0</ele><time>2026-05-01T16:20:01.868Z</time></trkpt><trkpt lat="43.7981861" lon="6.7999432"><ele>1147.0</ele><time>2026-05-01T16:20:02.867Z</time></trkpt><trkpt lat="43.7981749" lon="6.7997906"><ele>1147.0</ele><time>2026-05-01T16:20:03.867Z</time></trkpt><trkpt lat="43.7981404" lon="6.7995672"><ele>1147.0</ele><time>2026-05-01T16:20:04.867Z</time></trkpt><trkpt lat="43.7980885" lon="6.7993481"><ele>1147.0</ele><time>2026-05-01T16:20:05.867Z</time></trkpt><trkpt lat="43.7980591" lon="6.7991803"><ele>1147.0</ele><time>2026-05-01T16:20:06.867Z</time></trkpt><trkpt lat="43.7980478" lon="6.798991"><ele>1147.0</ele><time>2026-05-01T16:20:07.867Z</time></trkpt><trkpt lat="43.7980207" lon="6.798785"><ele>1147.3333333333333</ele><time>2026-05-01T16:20:08.867Z</time></trkpt><trkpt lat="43.7979898" lon="6.7985446"><ele>1147.6666666666667</ele><time>2026-05-01T16:20:09.867Z</time></trkpt><trkpt lat="43.7979704" lon="6.7983454"><ele>1148.0</ele><time>2026-05-01T16:20:10.867Z</time></trkpt><trkpt lat="43.79797" lon="6.7980908"><ele>1147.0</ele><time>2026-05-01T16:20:11.867Z</time></trkpt><trkpt lat="43.7979486" lon="6.7977667"><ele>1146.0</ele><time>2026-05-01T16:20:12.867Z</time></trkpt><trkpt lat="43.7979489" lon="6.7974797"><ele>1145.0</ele><time>2026-05-01T16:20:13.867Z</time></trkpt><trkpt lat="43.7979502" lon="6.7971474"><ele>1144.3333333333335</ele><time>2026-05-01T16:20:14.867Z</time></trkpt><trkpt lat="43.7979529" lon="6.7968577"><ele>1143.6666666666667</ele><time>2026-05-01T16:20:15.867Z</time></trkpt><trkpt lat="43.7979643" lon="6.79655"><ele>1143.0</ele><time>2026-05-01T16:20:16.867Z</time></trkpt><trkpt lat="43.7979813" lon="6.7962106"><ele>1143.0</ele><time>2026-05-01T16:20:17.867Z</time></trkpt><trkpt lat="43.7979584" lon="6.7958394"><ele>1143.0</ele><time>2026-05-01T16:20:18.867Z</time></trkpt><trkpt lat="43.7979554" lon="6.7954962"><ele>1143.0</ele><time>2026-05-01T16:20:19.867Z</time></trkpt><trkpt lat="43.7979435" lon="6.7951862"><ele>1143.0</ele><time>2026-05-01T16:20:20.867Z</time></trkpt><trkpt lat="43.7979433" lon="6.7948921"><ele>1143.0</ele><time>2026-05-01T16:20:21.868Z</time></trkpt><trkpt lat="43.7979446" lon="6.794597"><ele>1143.6666666666667</ele><time>2026-05-01T16:20:22.867Z</time></trkpt><trkpt lat="43.7979253" lon="6.7943259"><ele>1144.3333333333335</ele><time>2026-05-01T16:20:23.867Z</time></trkpt><trkpt lat="43.7979165" lon="6.7940717"><ele>1145.0</ele><time>2026-05-01T16:20:24.867Z</time></trkpt><trkpt lat="43.7978802" lon="6.7937702"><ele>1145.6666666666667</ele><time>2026-05-01T16:20:25.867Z</time></trkpt><trkpt lat="43.7978214" lon="6.7934788"><ele>1146.3333333333333</ele><time>2026-05-01T16:20:26.867Z</time></trkpt><trkpt lat="43.7977768" lon="6.7931722"><ele>1147.0</ele><time>2026-05-01T16:20:27.867Z</time></trkpt><trkpt lat="43.79777" lon="6.792812"><ele>1147.3333333333333</ele><time>2026-05-01T16:20:28.867Z</time></trkpt><trkpt lat="43.7977447" lon="6.792503"><ele>1147.6666666666667</ele><time>2026-05-01T16:20:29.867Z</time></trkpt><trkpt lat="43.7977334" lon="6.7922294"><ele>1148.0</ele><time>2026-05-01T16:20:30.867Z</time></trkpt><trkpt lat="43.7977286" lon="6.7919524"><ele>1147.3333333333335</ele><time>2026-05-01T16:20:31.867Z</time></trkpt><trkpt lat="43.7977608" lon="6.7916264"><ele>1146.6666666666667</ele><time>2026-05-01T16:20:32.868Z</time></trkpt><trkpt lat="43.7977503" lon="6.7913535"><ele>1146.0</ele><time>2026-05-01T16:20:33.867Z</time></trkpt><trkpt lat="43.7977427" lon="6.7910806"><ele>1145.0</ele><time>2026-05-01T16:20:34.867Z</time></trkpt><trkpt lat="43.7977492" lon="6.7907822"><ele>1144.0</ele><time>2026-05-01T16:20:35.867Z</time></trkpt><trkpt lat="43.7977386" lon="6.7904587"><ele>1143.0</ele><time>2026-05-01T16:20:36.867Z</time></trkpt><trkpt lat="43.7977161" lon="6.7901305"><ele>1142.5</ele><time>2026-05-01T16:20:37.868Z</time></trkpt><trkpt lat="43.7976823" lon="6.7898097"><ele>1142.0</ele><time>2026-05-01T16:20:38.868Z</time></trkpt><trkpt lat="43.7976557" lon="6.7894854"><ele>1137.5</ele><time>2026-05-01T16:20:39.867Z</time></trkpt><trkpt lat="43.79762" lon="6.7891759"><ele>1133.0</ele><time>2026-05-01T16:20:40.867Z</time></trkpt><trkpt lat="43.7975916" lon="6.7888577"><ele>1133.0</ele><time>2026-05-01T16:20:41.867Z</time></trkpt><trkpt lat="43.7975537" lon="6.7885494"><ele>1133.0</ele><time>2026-05-01T16:20:42.867Z</time></trkpt><trkpt lat="43.7975114" lon="6.7882025"><ele>1133.0</ele><time>2026-05-01T16:20:43.867Z</time></trkpt><trkpt lat="43.797491" lon="6.7878736"><ele>1133.0</ele><time>2026-05-01T16:20:44.867Z</time></trkpt><trkpt lat="43.7974409" lon="6.7875622"><ele>1133.0</ele><time>2026-05-01T16:20:45.868Z</time></trkpt><trkpt lat="43.7974178" lon="6.7872378"><ele>1133.0</ele><time>2026-05-01T16:20:46.867Z</time></trkpt><trkpt lat="43.7973966" lon="6.7869088"><ele>1133.3333333333335</ele><time>2026-05-01T16:20:47.867Z</time></trkpt><trkpt lat="43.7973633" lon="6.7865791"><ele>1133.6666666666667</ele><time>2026-05-01T16:20:48.867Z</time></trkpt><trkpt lat="43.7973288" lon="6.7862993"><ele>1134.0</ele><time>2026-05-01T16:20:49.867Z</time></trkpt><trkpt lat="43.7973221" lon="6.7860078"><ele>1134.0</ele><time>2026-05-01T16:20:50.867Z</time></trkpt><trkpt lat="43.7973252" lon="6.7856762"><ele>1134.0</ele><time>2026-05-01T16:20:51.867Z</time></trkpt><trkpt lat="43.7972971" lon="6.7853968"><ele>1134.0</ele><time>2026-05-01T16:20:52.867Z</time></trkpt><trkpt lat="43.7972786" lon="6.7850758"><ele>1133.6666666666667</ele><time>2026-05-01T16:20:53.867Z</time></trkpt><trkpt lat="43.7972373" lon="6.7847764"><ele>1133.3333333333335</ele><time>2026-05-01T16:20:54.867Z</time></trkpt><trkpt lat="43.7972352" lon="6.7845034"><ele>1133.0</ele><time>2026-05-01T16:20:55.867Z</time></trkpt><trkpt lat="43.7972235" lon="6.7842097"><ele>1133.0</ele><time>2026-05-01T16:20:56.867Z</time></trkpt><trkpt lat="43.7971984" lon="6.7839038"><ele>1133.0</ele><time>2026-05-01T16:20:57.867Z</time></trkpt><trkpt lat="43.7971535" lon="6.7836086"><ele>1133.0</ele><time>2026-05-01T16:20:58.867Z</time></trkpt><trkpt lat="43.7971108" lon="6.7833352"><ele>1132.0</ele><time>2026-05-01T16:20:59.867Z</time></trkpt><trkpt lat="43.7970249" lon="6.7830313"><ele>1131.0</ele><time>2026-05-01T16:21:00.867Z</time></trkpt><trkpt lat="43.7969321" lon="6.7827185"><ele>1131.5</ele><time>2026-05-01T16:21:01.867Z</time></trkpt><trkpt lat="43.796845" lon="6.782386"><ele>1132.0</ele><time>2026-05-01T16:21:02.867Z</time></trkpt><trkpt lat="43.7967489" lon="6.7820588"><ele>1127.0</ele><time>2026-05-01T16:21:03.867Z</time></trkpt><trkpt lat="43.7966875" lon="6.781743"><ele>1122.0</ele><time>2026-05-01T16:21:04.867Z</time></trkpt><trkpt lat="43.7966285" lon="6.7814405"><ele>1122.0</ele><time>2026-05-01T16:21:05.867Z</time></trkpt><trkpt lat="43.7965739" lon="6.7811674"><ele>1122.0</ele><time>2026-05-01T16:21:06.867Z</time></trkpt><trkpt lat="43.7965236" lon="6.7809211"><ele>1122.0</ele><time>2026-05-01T16:21:07.867Z</time></trkpt><trkpt lat="43.7964384" lon="6.7806167"><ele>1122.6666666666667</ele><time>2026-05-01T16:21:08.867Z</time></trkpt><trkpt lat="43.7963709" lon="6.7803171"><ele>1123.3333333333335</ele><time>2026-05-01T16:21:09.867Z</time></trkpt><trkpt lat="43.7963058" lon="6.7800234"><ele>1124.0</ele><time>2026-05-01T16:21:10.867Z</time></trkpt><trkpt lat="43.7962284" lon="6.7797349"><ele>1124.5</ele><time>2026-05-01T16:21:11.867Z</time></trkpt><trkpt lat="43.7961608" lon="6.7794183"><ele>1125.0</ele><time>2026-05-01T16:21:12.867Z</time></trkpt><trkpt lat="43.7960728" lon="6.7790935"><ele>1121.0</ele><time>2026-05-01T16:21:13.867Z</time></trkpt><trkpt lat="43.7960008" lon="6.7787991"><ele>1117.0</ele><time>2026-05-01T16:21:14.867Z</time></trkpt><trkpt lat="43.7959222" lon="6.7784859"><ele>1117.0</ele><time>2026-05-01T16:21:15.867Z</time></trkpt><trkpt lat="43.7958413" lon="6.7782008"><ele>1117.0</ele><time>2026-05-01T16:21:16.868Z</time></trkpt><trkpt lat="43.7957696" lon="6.7779214"><ele>1117.0</ele><time>2026-05-01T16:21:17.867Z</time></trkpt><trkpt lat="43.795684" lon="6.7776553"><ele>1118.0</ele><time>2026-05-01T16:21:18.867Z</time></trkpt><trkpt lat="43.7955573" lon="6.7773604"><ele>1119.0</ele><time>2026-05-01T16:21:19.867Z</time></trkpt><trkpt lat="43.7954429" lon="6.7770635"><ele>1118.0</ele><time>2026-05-01T16:21:20.867Z</time></trkpt><trkpt lat="43.7953225" lon="6.7768092"><ele>1117.0</ele><time>2026-05-01T16:21:21.867Z</time></trkpt><trkpt lat="43.7952034" lon="6.7765808"><ele>1116.0</ele><time>2026-05-01T16:21:22.867Z</time></trkpt><trkpt lat="43.7950891" lon="6.7763604"><ele>1114.0</ele><time>2026-05-01T16:21:23.867Z</time></trkpt><trkpt lat="43.7949577" lon="6.7761814"><ele>1112.0</ele><time>2026-05-01T16:21:24.867Z</time></trkpt><trkpt lat="43.794839" lon="6.7759568"><ele>1110.0</ele><time>2026-05-01T16:21:25.867Z</time></trkpt><trkpt lat="43.7947577" lon="6.7757525"><ele>1110.0</ele><time>2026-05-01T16:21:26.867Z</time></trkpt><trkpt lat="43.7946946" lon="6.7755154"><ele>1110.0</ele><time>2026-05-01T16:21:27.867Z</time></trkpt><trkpt lat="43.7946435" lon="6.7752757"><ele>1110.0</ele><time>2026-05-01T16:21:28.867Z</time></trkpt><trkpt lat="43.7946001" lon="6.7750234"><ele>1111.5</ele><time>2026-05-01T16:21:29.867Z</time></trkpt><trkpt lat="43.7945669" lon="6.7747328"><ele>1113.0</ele><time>2026-05-01T16:21:30.867Z</time></trkpt><trkpt lat="43.794517" lon="6.7743723"><ele>1113.6666666666667</ele><time>2026-05-01T16:21:31.867Z</time></trkpt><trkpt lat="43.7944654" lon="6.7741037"><ele>1114.3333333333335</ele><time>2026-05-01T16:21:32.867Z</time></trkpt><trkpt lat="43.7944061" lon="6.7738441"><ele>1115.0</ele><time>2026-05-01T16:21:33.868Z</time></trkpt><trkpt lat="43.7943421" lon="6.7735798"><ele>1111.6666666666667</ele><time>2026-05-01T16:21:34.867Z</time></trkpt><trkpt lat="43.7942751" lon="6.7733103"><ele>1108.3333333333333</ele><time>2026-05-01T16:21:35.867Z</time></trkpt><trkpt lat="43.7942366" lon="6.7730216"><ele>1105.0</ele><time>2026-05-01T16:21:36.867Z</time></trkpt><trkpt lat="43.7941821" lon="6.7727332"><ele>1105.0</ele><time>2026-05-01T16:21:37.867Z</time></trkpt><trkpt lat="43.7941488" lon="6.7723722"><ele>1105.0</ele><time>2026-05-01T16:21:38.867Z</time></trkpt><trkpt lat="43.7941195" lon="6.7720933"><ele>1104.6666666666665</ele><time>2026-05-01T16:21:39.867Z</time></trkpt><trkpt lat="43.7941001" lon="6.771823"><ele>1104.3333333333333</ele><time>2026-05-01T16:21:40.867Z</time></trkpt><trkpt lat="43.7941016" lon="6.7715408"><ele>1104.0</ele><time>2026-05-01T16:21:41.867Z</time></trkpt><trkpt lat="43.7941127" lon="6.7712473"><ele>1103.3333333333333</ele><time>2026-05-01T16:21:42.867Z</time></trkpt><trkpt lat="43.7941696" lon="6.7709568"><ele>1102.6666666666665</ele><time>2026-05-01T16:21:43.867Z</time></trkpt><trkpt lat="43.7941893" lon="6.7706421"><ele>1102.0</ele><time>2026-05-01T16:21:44.867Z</time></trkpt><trkpt lat="43.7942207" lon="6.7703464"><ele>1101.0</ele><time>2026-05-01T16:21:45.867Z</time></trkpt><trkpt lat="43.7942472" lon="6.7700312"><ele>1100.0</ele><time>2026-05-01T16:21:46.867Z</time></trkpt><trkpt lat="43.7942946" lon="6.7697497"><ele>1099.0</ele><time>2026-05-01T16:21:47.867Z</time></trkpt><trkpt lat="43.794354" lon="6.769468"><ele>1105.0</ele><time>2026-05-01T16:21:48.867Z</time></trkpt><trkpt lat="43.7943626" lon="6.7691321"><ele>1111.0</ele><time>2026-05-01T16:21:49.867Z</time></trkpt><trkpt lat="43.7943592" lon="6.7688255"><ele>1111.0</ele><time>2026-05-01T16:21:50.867Z</time></trkpt><trkpt lat="43.7943988" lon="6.7685691"><ele>1111.0</ele><time>2026-05-01T16:21:51.867Z</time></trkpt><trkpt lat="43.7944134" lon="6.7682528"><ele>1111.0</ele><time>2026-05-01T16:21:52.867Z</time></trkpt><trkpt lat="43.7944397" lon="6.7679926"><ele>1110.0</ele><time>2026-05-01T16:21:53.867Z</time></trkpt><trkpt lat="43.7944684" lon="6.7676963"><ele>1109.0</ele><time>2026-05-01T16:21:54.867Z</time></trkpt><trkpt lat="43.7944959" lon="6.7674356"><ele>1108.0</ele><time>2026-05-01T16:21:55.867Z</time></trkpt><trkpt lat="43.7945278" lon="6.7671496"><ele>1107.5</ele><time>2026-05-01T16:21:56.868Z</time></trkpt><trkpt lat="43.7946008" lon="6.7668374"><ele>1107.0</ele><time>2026-05-01T16:21:57.867Z</time></trkpt><trkpt lat="43.7946507" lon="6.7665258"><ele>1107.0</ele><time>2026-05-01T16:21:58.867Z</time></trkpt><trkpt lat="43.7947048" lon="6.7662326"><ele>1107.0</ele><time>2026-05-01T16:21:59.867Z</time></trkpt><trkpt lat="43.7947535" lon="6.7659402"><ele>1107.0</ele><time>2026-05-01T16:22:00.867Z</time></trkpt><trkpt lat="43.7947732" lon="6.7656624"><ele>1106.3333333333333</ele><time>2026-05-01T16:22:01.867Z</time></trkpt><trkpt lat="43.7947857" lon="6.7654587"><ele>1105.6666666666665</ele><time>2026-05-01T16:22:02.867Z</time></trkpt><trkpt lat="43.7948" lon="6.7652245"><ele>1105.0</ele><time>2026-05-01T16:22:03.867Z</time></trkpt><trkpt lat="43.7948258" lon="6.7649908"><ele>1103.6666666666665</ele><time>2026-05-01T16:22:04.867Z</time></trkpt><trkpt lat="43.7948545" lon="6.7647479"><ele>1102.3333333333333</ele><time>2026-05-01T16:22:05.867Z</time></trkpt><trkpt lat="43.7948966" lon="6.764495"><ele>1101.0</ele><time>2026-05-01T16:22:06.867Z</time></trkpt><trkpt lat="43.7949848" lon="6.7642708"><ele>1099.6666666666667</ele><time>2026-05-01T16:22:07.867Z</time></trkpt><trkpt lat="43.7950372" lon="6.7640496"><ele>1098.3333333333335</ele><time>2026-05-01T16:22:08.867Z</time></trkpt><trkpt lat="43.7950898" lon="6.7638645"><ele>1097.0</ele><time>2026-05-01T16:22:09.867Z</time></trkpt><trkpt lat="43.795164" lon="6.7635889"><ele>1102.0</ele><time>2026-05-01T16:22:10.867Z</time></trkpt><trkpt lat="43.7952224" lon="6.7633498"><ele>1107.0</ele><time>2026-05-01T16:22:11.867Z</time></trkpt><trkpt lat="43.7952745" lon="6.7631159"><ele>1112.0</ele><time>2026-05-01T16:22:12.867Z</time></trkpt><trkpt lat="43.7953159" lon="6.7628883"><ele>1112.0</ele><time>2026-05-01T16:22:13.867Z</time></trkpt><trkpt lat="43.7953288" lon="6.7626576"><ele>1112.0</ele><time>2026-05-01T16:22:14.867Z</time></trkpt><trkpt lat="43.795326" lon="6.7624136"><ele>1112.0</ele><time>2026-05-01T16:22:15.867Z</time></trkpt><trkpt lat="43.7953324" lon="6.7621674"><ele>1112.0</ele><time>2026-05-01T16:22:16.867Z</time></trkpt><trkpt lat="43.7953127" lon="6.7619413"><ele>1112.0</ele><time>2026-05-01T16:22:17.867Z</time></trkpt><trkpt lat="43.7952642" lon="6.7617339"><ele>1112.0</ele><time>2026-05-01T16:22:18.867Z</time></trkpt><trkpt lat="43.7952211" lon="6.7614675"><ele>1112.6666666666667</ele><time>2026-05-01T16:22:19.867Z</time></trkpt><trkpt lat="43.7952162" lon="6.7612445"><ele>1113.3333333333333</ele><time>2026-05-01T16:22:20.867Z</time></trkpt><trkpt lat="43.7951919" lon="6.7610237"><ele>1114.0</ele><time>2026-05-01T16:22:21.867Z</time></trkpt><trkpt lat="43.7951595" lon="6.7607772"><ele>1110.0</ele><time>2026-05-01T16:22:22.867Z</time></trkpt><trkpt lat="43.7951521" lon="6.7605407"><ele>1106.0</ele><time>2026-05-01T16:22:23.867Z</time></trkpt><trkpt lat="43.7951165" lon="6.7603067"><ele>1102.0</ele><time>2026-05-01T16:22:24.867Z</time></trkpt><trkpt lat="43.7950768" lon="6.760096"><ele>1102.0</ele><time>2026-05-01T16:22:25.868Z</time></trkpt><trkpt lat="43.7950242" lon="6.759866"><ele>1102.0</ele><time>2026-05-01T16:22:26.867Z</time></trkpt><trkpt lat="43.7949825" lon="6.7596429"><ele>1102.0</ele><time>2026-05-01T16:22:27.867Z</time></trkpt><trkpt lat="43.7949499" lon="6.7594229"><ele>1102.3333333333333</ele><time>2026-05-01T16:22:28.867Z</time></trkpt><trkpt lat="43.7949293" lon="6.759199"><ele>1102.6666666666667</ele><time>2026-05-01T16:22:29.867Z</time></trkpt><trkpt lat="43.7949134" lon="6.7589809"><ele>1103.0</ele><time>2026-05-01T16:22:30.867Z</time></trkpt><trkpt lat="43.7949308" lon="6.7587629"><ele>1103.0</ele><time>2026-05-01T16:22:31.867Z</time></trkpt><trkpt lat="43.7950017" lon="6.7585383"><ele>1103.0</ele><time>2026-05-01T16:22:32.867Z</time></trkpt><trkpt lat="43.7950404" lon="6.7583227"><ele>1103.0</ele><time>2026-05-01T16:22:33.867Z</time></trkpt><trkpt lat="43.7950763" lon="6.7581541"><ele>1101.6666666666667</ele><time>2026-05-01T16:22:34.867Z</time></trkpt><trkpt lat="43.7951349" lon="6.757889"><ele>1100.3333333333333</ele><time>2026-05-01T16:22:35.867Z</time></trkpt><trkpt lat="43.7951848" lon="6.757679"><ele>1099.0</ele><time>2026-05-01T16:22:36.867Z</time></trkpt><trkpt lat="43.7952337" lon="6.7574386"><ele>1104.6666666666665</ele><time>2026-05-01T16:22:37.867Z</time></trkpt><trkpt lat="43.7952481" lon="6.7572139"><ele>1110.3333333333333</ele><time>2026-05-01T16:22:38.867Z</time></trkpt><trkpt lat="43.7952408" lon="6.7569911"><ele>1116.0</ele><time>2026-05-01T16:22:39.867Z</time></trkpt><trkpt lat="43.7951885" lon="6.7567256"><ele>1112.6666666666667</ele><time>2026-05-01T16:22:40.867Z</time></trkpt><trkpt lat="43.7951202" lon="6.7564872"><ele>1109.3333333333335</ele><time>2026-05-01T16:22:41.867Z</time></trkpt><trkpt lat="43.7950556" lon="6.7562276"><ele>1106.0</ele><time>2026-05-01T16:22:42.867Z</time></trkpt><trkpt lat="43.7950106" lon="6.7560098"><ele>1105.3333333333335</ele><time>2026-05-01T16:22:43.867Z</time></trkpt><trkpt lat="43.7949686" lon="6.7557616"><ele>1104.6666666666667</ele><time>2026-05-01T16:22:44.867Z</time></trkpt><trkpt lat="43.7949752" lon="6.755532"><ele>1104.0</ele><time>2026-05-01T16:22:45.867Z</time></trkpt><trkpt lat="43.7949779" lon="6.7553007"><ele>1103.6666666666667</ele><time>2026-05-01T16:22:46.867Z</time></trkpt><trkpt lat="43.7950296" lon="6.7550324"><ele>1103.3333333333335</ele><time>2026-05-01T16:22:47.867Z</time></trkpt><trkpt lat="43.7950717" lon="6.7547984"><ele>1103.0</ele><time>2026-05-01T16:22:48.867Z</time></trkpt><trkpt lat="43.7951073" lon="6.7545422"><ele>1107.0</ele><time>2026-05-01T16:22:49.868Z</time></trkpt><trkpt lat="43.7951711" lon="6.7543012"><ele>1111.0</ele><time>2026-05-01T16:22:50.867Z</time></trkpt><trkpt lat="43.7952549" lon="6.7540617"><ele>1115.0</ele><time>2026-05-01T16:22:51.867Z</time></trkpt><trkpt lat="43.7953231" lon="6.7538122"><ele>1115.0</ele><time>2026-05-01T16:22:52.867Z</time></trkpt><trkpt lat="43.795397" lon="6.7535849"><ele>1115.0</ele><time>2026-05-01T16:22:53.868Z</time></trkpt><trkpt lat="43.7954973" lon="6.7533417"><ele>1115.0</ele><time>2026-05-01T16:22:54.867Z</time></trkpt><trkpt lat="43.7955882" lon="6.7530914"><ele>1113.6666666666667</ele><time>2026-05-01T16:22:55.867Z</time></trkpt><trkpt lat="43.7956314" lon="6.7528778"><ele>1112.3333333333333</ele><time>2026-05-01T16:22:56.867Z</time></trkpt><trkpt lat="43.795664" lon="6.7526103"><ele>1111.0</ele><time>2026-05-01T16:22:57.867Z</time></trkpt><trkpt lat="43.7956252" lon="6.7523817"><ele>1110.6666666666665</ele><time>2026-05-01T16:22:58.867Z</time></trkpt><trkpt lat="43.7956346" lon="6.7521668"><ele>1110.3333333333333</ele><time>2026-05-01T16:22:59.867Z</time></trkpt><trkpt lat="43.7956273" lon="6.751938"><ele>1110.0</ele><time>2026-05-01T16:23:00.867Z</time></trkpt><trkpt lat="43.7955832" lon="6.7516509"><ele>1109.6666666666667</ele><time>2026-05-01T16:23:01.867Z</time></trkpt><trkpt lat="43.7955139" lon="6.7513553"><ele>1109.3333333333335</ele><time>2026-05-01T16:23:02.867Z</time></trkpt><trkpt lat="43.7954678" lon="6.7510521"><ele>1109.0</ele><time>2026-05-01T16:23:03.867Z</time></trkpt><trkpt lat="43.7954672" lon="6.7507781"><ele>1108.0</ele><time>2026-05-01T16:23:04.867Z</time></trkpt><trkpt lat="43.7954589" lon="6.7505092"><ele>1107.0</ele><time>2026-05-01T16:23:05.867Z</time></trkpt><trkpt lat="43.7954694" lon="6.7502455"><ele>1106.0</ele><time>2026-05-01T16:23:06.867Z</time></trkpt><trkpt lat="43.7954706" lon="6.7499541"><ele>1103.6666666666667</ele><time>2026-05-01T16:23:07.867Z</time></trkpt><trkpt lat="43.7954714" lon="6.7496404"><ele>1101.3333333333333</ele><time>2026-05-01T16:23:08.867Z</time></trkpt><trkpt lat="43.7954995" lon="6.7493433"><ele>1099.0</ele><time>2026-05-01T16:23:09.867Z</time></trkpt><trkpt lat="43.7955265" lon="6.7490856"><ele>1097.0</ele><time>2026-05-01T16:23:10.867Z</time></trkpt><trkpt lat="43.7955272" lon="6.748813"><ele>1095.0</ele><time>2026-05-01T16:23:11.867Z</time></trkpt><trkpt lat="43.7955077" lon="6.7485099"><ele>1093.0</ele><time>2026-05-01T16:23:12.867Z</time></trkpt><trkpt lat="43.7954698" lon="6.7482431"><ele>1092.0</ele><time>2026-05-01T16:23:13.867Z</time></trkpt><trkpt lat="43.7954339" lon="6.7479813"><ele>1091.0</ele><time>2026-05-01T16:23:14.867Z</time></trkpt><trkpt lat="43.7953837" lon="6.7477256"><ele>1090.0</ele><time>2026-05-01T16:23:15.867Z</time></trkpt><trkpt lat="43.7953675" lon="6.7474771"><ele>1089.6666666666665</ele><time>2026-05-01T16:23:16.867Z</time></trkpt><trkpt lat="43.7953664" lon="6.7472334"><ele>1089.3333333333333</ele><time>2026-05-01T16:23:17.867Z</time></trkpt><trkpt lat="43.7953665" lon="6.7469901"><ele>1089.0</ele><time>2026-05-01T16:23:18.867Z</time></trkpt><trkpt lat="43.7954346" lon="6.7467288"><ele>1089.0</ele><time>2026-05-01T16:23:19.868Z</time></trkpt><trkpt lat="43.7954909" lon="6.7464815"><ele>1089.0</ele><time>2026-05-01T16:23:20.867Z</time></trkpt><trkpt lat="43.7955555" lon="6.7462315"><ele>1089.0</ele><time>2026-05-01T16:23:21.868Z</time></trkpt><trkpt lat="43.7956049" lon="6.7459921"><ele>1088.0</ele><time>2026-05-01T16:23:22.867Z</time></trkpt><trkpt lat="43.7956678" lon="6.7456657"><ele>1087.0</ele><time>2026-05-01T16:23:23.867Z</time></trkpt><trkpt lat="43.7956829" lon="6.7453689"><ele>1086.6666666666665</ele><time>2026-05-01T16:23:24.867Z</time></trkpt><trkpt lat="43.7956955" lon="6.7451413"><ele>1086.3333333333333</ele><time>2026-05-01T16:23:25.867Z</time></trkpt><trkpt lat="43.7957003" lon="6.7448892"><ele>1086.0</ele><time>2026-05-01T16:23:26.867Z</time></trkpt><trkpt lat="43.7957283" lon="6.7446235"><ele>1085.0</ele><time>2026-05-01T16:23:27.867Z</time></trkpt><trkpt lat="43.7957509" lon="6.7443615"><ele>1084.0</ele><time>2026-05-01T16:23:28.867Z</time></trkpt><trkpt lat="43.7957536" lon="6.7440982"><ele>1083.0</ele><time>2026-05-01T16:23:29.867Z</time></trkpt><trkpt lat="43.7957587" lon="6.7438422"><ele>1083.0</ele><time>2026-05-01T16:23:30.867Z</time></trkpt><trkpt lat="43.7957602" lon="6.7435956"><ele>1083.0</ele><time>2026-05-01T16:23:31.867Z</time></trkpt><trkpt lat="43.7957657" lon="6.7432968"><ele>1083.0</ele><time>2026-05-01T16:23:32.868Z</time></trkpt><trkpt lat="43.7957938" lon="6.7430721"><ele>1082.3333333333333</ele><time>2026-05-01T16:23:33.867Z</time></trkpt><trkpt lat="43.7958397" lon="6.7428075"><ele>1081.6666666666665</ele><time>2026-05-01T16:23:34.867Z</time></trkpt><trkpt lat="43.795878" lon="6.7425744"><ele>1081.0</ele><time>2026-05-01T16:23:35.868Z</time></trkpt><trkpt lat="43.7959486" lon="6.7423583"><ele>1081.0</ele><time>2026-05-01T16:23:36.867Z</time></trkpt><trkpt lat="43.7959939" lon="6.7421378"><ele>1081.0</ele><time>2026-05-01T16:23:37.867Z</time></trkpt><trkpt lat="43.7960519" lon="6.7418872"><ele>1081.0</ele><time>2026-05-01T16:23:38.867Z</time></trkpt><trkpt lat="43.7961228" lon="6.7416345"><ele>1083.0</ele><time>2026-05-01T16:23:39.867Z</time></trkpt><trkpt lat="43.7961947" lon="6.7413889"><ele>1085.0</ele><time>2026-05-01T16:23:40.867Z</time></trkpt><trkpt lat="43.7962717" lon="6.7411235"><ele>1087.0</ele><time>2026-05-01T16:23:41.867Z</time></trkpt><trkpt lat="43.7963502" lon="6.7408653"><ele>1087.0</ele><time>2026-05-01T16:23:42.867Z</time></trkpt><trkpt lat="43.7964397" lon="6.7406338"><ele>1087.0</ele><time>2026-05-01T16:23:43.867Z</time></trkpt><trkpt lat="43.7965216" lon="6.7403919"><ele>1087.0</ele><time>2026-05-01T16:23:44.867Z</time></trkpt><trkpt lat="43.7966104" lon="6.7401339"><ele>1086.0</ele><time>2026-05-01T16:23:45.868Z</time></trkpt><trkpt lat="43.7967011" lon="6.7398739"><ele>1085.0</ele><time>2026-05-01T16:23:46.867Z</time></trkpt><trkpt lat="43.796766" lon="6.7396606"><ele>1084.0</ele><time>2026-05-01T16:23:47.867Z</time></trkpt><trkpt lat="43.7968491" lon="6.7394176"><ele>1088.0</ele><time>2026-05-01T16:23:48.867Z</time></trkpt><trkpt lat="43.7969006" lon="6.7391989"><ele>1092.0</ele><time>2026-05-01T16:23:49.867Z</time></trkpt><trkpt lat="43.7969645" lon="6.7389631"><ele>1096.0</ele><time>2026-05-01T16:23:50.867Z</time></trkpt><trkpt lat="43.7970259" lon="6.7387339"><ele>1095.0</ele><time>2026-05-01T16:23:51.867Z</time></trkpt><trkpt lat="43.7970844" lon="6.7384904"><ele>1094.0</ele><time>2026-05-01T16:23:52.867Z</time></trkpt><trkpt lat="43.7971127" lon="6.7382666"><ele>1093.0</ele><time>2026-05-01T16:23:53.867Z</time></trkpt><trkpt lat="43.7971475" lon="6.7379853"><ele>1093.0</ele><time>2026-05-01T16:23:54.867Z</time></trkpt><trkpt lat="43.797186" lon="6.7377507"><ele>1093.0</ele><time>2026-05-01T16:23:55.867Z</time></trkpt><trkpt lat="43.7972172" lon="6.7374951"><ele>1093.0</ele><time>2026-05-01T16:23:56.867Z</time></trkpt><trkpt lat="43.7972273" lon="6.7372595"><ele>1092.6666666666665</ele><time>2026-05-01T16:23:57.867Z</time></trkpt><trkpt lat="43.797272" lon="6.7370317"><ele>1092.3333333333333</ele><time>2026-05-01T16:23:58.867Z</time></trkpt><trkpt lat="43.7972885" lon="6.7367106"><ele>1092.0</ele><time>2026-05-01T16:23:59.867Z</time></trkpt><trkpt lat="43.7973126" lon="6.7364493"><ele>1092.0</ele><time>2026-05-01T16:24:00.867Z</time></trkpt><trkpt lat="43.7973245" lon="6.7361833"><ele>1092.0</ele><time>2026-05-01T16:24:01.867Z</time></trkpt><trkpt lat="43.7973351" lon="6.7359369"><ele>1092.0</ele><time>2026-05-01T16:24:02.867Z</time></trkpt><trkpt lat="43.7973396" lon="6.7357051"><ele>1092.5</ele><time>2026-05-01T16:24:03.867Z</time></trkpt><trkpt lat="43.7972991" lon="6.7355018"><ele>1093.0</ele><time>2026-05-01T16:24:04.867Z</time></trkpt><trkpt lat="43.7972632" lon="6.7353136"><ele>1093.5</ele><time>2026-05-01T16:24:05.867Z</time></trkpt><trkpt lat="43.797222" lon="6.7351081"><ele>1094.0</ele><time>2026-05-01T16:24:06.867Z</time></trkpt><trkpt lat="43.7971689" lon="6.7348805"><ele>1094.0</ele><time>2026-05-01T16:24:07.867Z</time></trkpt><trkpt lat="43.7971061" lon="6.734678"><ele>1094.0</ele><time>2026-05-01T16:24:08.867Z</time></trkpt><trkpt lat="43.797084" lon="6.7344903"><ele>1094.0</ele><time>2026-05-01T16:24:09.867Z</time></trkpt><trkpt lat="43.7970652" lon="6.734291"><ele>1094.0</ele><time>2026-05-01T16:24:10.867Z</time></trkpt><trkpt lat="43.7970706" lon="6.7340684"><ele>1093.6666666666667</ele><time>2026-05-01T16:24:11.867Z</time></trkpt><trkpt lat="43.7970597" lon="6.7338431"><ele>1093.3333333333333</ele><time>2026-05-01T16:24:12.867Z</time></trkpt><trkpt lat="43.7970963" lon="6.7336262"><ele>1093.0</ele><time>2026-05-01T16:24:13.867Z</time></trkpt><trkpt lat="43.7971288" lon="6.7333963"><ele>1093.0</ele><time>2026-05-01T16:24:14.867Z</time></trkpt><trkpt lat="43.7971529" lon="6.7331486"><ele>1093.0</ele><time>2026-05-01T16:24:15.867Z</time></trkpt><trkpt lat="43.797205" lon="6.7329142"><ele>1093.0</ele><time>2026-05-01T16:24:16.867Z</time></trkpt><trkpt lat="43.7972494" lon="6.732655"><ele>1093.0</ele><time>2026-05-01T16:24:17.867Z</time></trkpt><trkpt lat="43.7973029" lon="6.7324087"><ele>1093.0</ele><time>2026-05-01T16:24:18.867Z</time></trkpt><trkpt lat="43.7973659" lon="6.7321661"><ele>1093.0</ele><time>2026-05-01T16:24:19.867Z</time></trkpt><trkpt lat="43.7974256" lon="6.7319043"><ele>1092.5</ele><time>2026-05-01T16:24:20.867Z</time></trkpt><trkpt lat="43.797497" lon="6.7315848"><ele>1092.0</ele><time>2026-05-01T16:24:21.867Z</time></trkpt><trkpt lat="43.7975477" lon="6.7312943"><ele>1090.6666666666667</ele><time>2026-05-01T16:24:22.867Z</time></trkpt><trkpt lat="43.7975802" lon="6.7309964"><ele>1089.3333333333335</ele><time>2026-05-01T16:24:23.867Z</time></trkpt><trkpt lat="43.7976122" lon="6.7307007"><ele>1088.0</ele><time>2026-05-01T16:24:24.867Z</time></trkpt><trkpt lat="43.7976564" lon="6.7303706"><ele>1092.3333333333335</ele><time>2026-05-01T16:24:25.868Z</time></trkpt><trkpt lat="43.7977158" lon="6.7301147"><ele>1096.6666666666667</ele><time>2026-05-01T16:24:26.867Z</time></trkpt><trkpt lat="43.7977495" lon="6.7298212"><ele>1101.0</ele><time>2026-05-01T16:24:27.867Z</time></trkpt><trkpt lat="43.7977645" lon="6.7295458"><ele>1101.0</ele><time>2026-05-01T16:24:28.867Z</time></trkpt><trkpt lat="43.7977508" lon="6.7292207"><ele>1101.0</ele><time>2026-05-01T16:24:29.867Z</time></trkpt><trkpt lat="43.7977586" lon="6.7288863"><ele>1101.0</ele><time>2026-05-01T16:24:30.867Z</time></trkpt><trkpt lat="43.7977597" lon="6.7285477"><ele>1101.0</ele><time>2026-05-01T16:24:31.867Z</time></trkpt><trkpt lat="43.7977663" lon="6.7282423"><ele>1101.0</ele><time>2026-05-01T16:24:32.867Z</time></trkpt><trkpt lat="43.7977846" lon="6.7279323"><ele>1101.0</ele><time>2026-05-01T16:24:33.867Z</time></trkpt><trkpt lat="43.7977807" lon="6.727643"><ele>1101.0</ele><time>2026-05-01T16:24:34.867Z</time></trkpt><trkpt lat="43.7977735" lon="6.7273517"><ele>1100.3333333333333</ele><time>2026-05-01T16:24:35.867Z</time></trkpt><trkpt lat="43.7977744" lon="6.7270864"><ele>1099.6666666666665</ele><time>2026-05-01T16:24:36.867Z</time></trkpt><trkpt lat="43.7977635" lon="6.7268334"><ele>1099.0</ele><time>2026-05-01T16:24:37.867Z</time></trkpt><trkpt lat="43.7977461" lon="6.7265509"><ele>1098.3333333333333</ele><time>2026-05-01T16:24:38.867Z</time></trkpt><trkpt lat="43.7977242" lon="6.7262804"><ele>1097.6666666666667</ele><time>2026-05-01T16:24:39.867Z</time></trkpt><trkpt lat="43.7976629" lon="6.7260143"><ele>1097.0</ele><time>2026-05-01T16:24:40.867Z</time></trkpt><trkpt lat="43.797603" lon="6.7257549"><ele>1094.0</ele><time>2026-05-01T16:24:41.867Z</time></trkpt><trkpt lat="43.7975282" lon="6.7254702"><ele>1091.0</ele><time>2026-05-01T16:24:42.867Z</time></trkpt><trkpt lat="43.7974904" lon="6.7251813"><ele>1088.0</ele><time>2026-05-01T16:24:43.867Z</time></trkpt><trkpt lat="43.7974537" lon="6.724891"><ele>1088.0</ele><time>2026-05-01T16:24:44.867Z</time></trkpt><trkpt lat="43.7974211" lon="6.7245951"><ele>1088.0</ele><time>2026-05-01T16:24:45.867Z</time></trkpt><trkpt lat="43.7973981" lon="6.7243026"><ele>1088.0</ele><time>2026-05-01T16:24:46.867Z</time></trkpt><trkpt lat="43.7973499" lon="6.7239855"><ele>1088.3333333333335</ele><time>2026-05-01T16:24:47.867Z</time></trkpt><trkpt lat="43.7973065" lon="6.7237067"><ele>1088.6666666666667</ele><time>2026-05-01T16:24:48.867Z</time></trkpt><trkpt lat="43.7972564" lon="6.7234369"><ele>1089.0</ele><time>2026-05-01T16:24:49.867Z</time></trkpt><trkpt lat="43.7972111" lon="6.7231185"><ele>1089.6666666666667</ele><time>2026-05-01T16:24:50.867Z</time></trkpt><trkpt lat="43.797148" lon="6.7228224"><ele>1090.3333333333335</ele><time>2026-05-01T16:24:51.867Z</time></trkpt><trkpt lat="43.7970865" lon="6.7225256"><ele>1091.0</ele><time>2026-05-01T16:24:52.867Z</time></trkpt><trkpt lat="43.7970367" lon="6.7222219"><ele>1092.6666666666667</ele><time>2026-05-01T16:24:53.867Z</time></trkpt><trkpt lat="43.7969948" lon="6.7219232"><ele>1094.3333333333333</ele><time>2026-05-01T16:24:54.867Z</time></trkpt><trkpt lat="43.7969622" lon="6.7216132"><ele>1096.0</ele><time>2026-05-01T16:24:55.867Z</time></trkpt><trkpt lat="43.7969189" lon="6.7213427"><ele>1094.6666666666665</ele><time>2026-05-01T16:24:56.867Z</time></trkpt><trkpt lat="43.7969024" lon="6.7210108"><ele>1093.3333333333333</ele><time>2026-05-01T16:24:57.867Z</time></trkpt><trkpt lat="43.7969019" lon="6.7207572"><ele>1092.0</ele><time>2026-05-01T16:24:58.868Z</time></trkpt><trkpt lat="43.7968715" lon="6.7204534"><ele>1091.0</ele><time>2026-05-01T16:24:59.867Z</time></trkpt><trkpt lat="43.7968523" lon="6.7201657"><ele>1090.0</ele><time>2026-05-01T16:25:00.867Z</time></trkpt><trkpt lat="43.7968382" lon="6.719891"><ele>1089.0</ele><time>2026-05-01T16:25:01.867Z</time></trkpt><trkpt lat="43.7968233" lon="6.7195837"><ele>1086.6666666666667</ele><time>2026-05-01T16:25:02.867Z</time></trkpt><trkpt lat="43.7968237" lon="6.7193099"><ele>1084.3333333333335</ele><time>2026-05-01T16:25:03.867Z</time></trkpt><trkpt lat="43.7967702" lon="6.719049"><ele>1082.0</ele><time>2026-05-01T16:25:04.867Z</time></trkpt><trkpt lat="43.796696" lon="6.7188101"><ele>1082.0</ele><time>2026-05-01T16:25:05.867Z</time></trkpt><trkpt lat="43.7966433" lon="6.7185843"><ele>1082.0</ele><time>2026-05-01T16:25:06.867Z</time></trkpt><trkpt lat="43.7965358" lon="6.7183255"><ele>1082.0</ele><time>2026-05-01T16:25:07.867Z</time></trkpt><trkpt lat="43.7964552" lon="6.7180473"><ele>1082.0</ele><time>2026-05-01T16:25:08.867Z</time></trkpt><trkpt lat="43.7963882" lon="6.717789"><ele>1082.0</ele><time>2026-05-01T16:25:09.867Z</time></trkpt><trkpt lat="43.7963305" lon="6.7174949"><ele>1082.0</ele><time>2026-05-01T16:25:10.867Z</time></trkpt><trkpt lat="43.7962957" lon="6.7172376"><ele>1082.0</ele><time>2026-05-01T16:25:11.868Z</time></trkpt><trkpt lat="43.7962707" lon="6.7170076"><ele>1082.0</ele><time>2026-05-01T16:25:12.867Z</time></trkpt><trkpt lat="43.7962323" lon="6.7166956"><ele>1082.0</ele><time>2026-05-01T16:25:13.867Z</time></trkpt><trkpt lat="43.7962389" lon="6.7163929"><ele>1082.0</ele><time>2026-05-01T16:25:14.867Z</time></trkpt><trkpt lat="43.7962309" lon="6.7161228"><ele>1082.0</ele><time>2026-05-01T16:25:15.867Z</time></trkpt><trkpt lat="43.7962327" lon="6.7158237"><ele>1082.0</ele><time>2026-05-01T16:25:16.867Z</time></trkpt><trkpt lat="43.7962422" lon="6.7155325"><ele>1081.3333333333335</ele><time>2026-05-01T16:25:17.867Z</time></trkpt><trkpt lat="43.7962676" lon="6.7152121"><ele>1080.6666666666667</ele><time>2026-05-01T16:25:18.867Z</time></trkpt><trkpt lat="43.796279" lon="6.7149612"><ele>1080.0</ele><time>2026-05-01T16:25:19.868Z</time></trkpt><trkpt lat="43.7962783" lon="6.714687"><ele>1080.0</ele><time>2026-05-01T16:25:20.867Z</time></trkpt><trkpt lat="43.7962704" lon="6.7144467"><ele>1080.0</ele><time>2026-05-01T16:25:21.867Z</time></trkpt><trkpt lat="43.7962832" lon="6.7142307"><ele>1080.0</ele><time>2026-05-01T16:25:22.867Z</time></trkpt><trkpt lat="43.7962811" lon="6.7140042"><ele>1079.3333333333333</ele><time>2026-05-01T16:25:23.867Z</time></trkpt><trkpt lat="43.7962646" lon="6.7137761"><ele>1078.6666666666665</ele><time>2026-05-01T16:25:24.867Z</time></trkpt><trkpt lat="43.7962622" lon="6.7135633"><ele>1078.0</ele><time>2026-05-01T16:25:25.867Z</time></trkpt><trkpt lat="43.7962049" lon="6.7133261"><ele>1077.6666666666665</ele><time>2026-05-01T16:25:26.867Z</time></trkpt><trkpt lat="43.7961375" lon="6.7130909"><ele>1077.3333333333333</ele><time>2026-05-01T16:25:27.867Z</time></trkpt><trkpt lat="43.7960527" lon="6.7128034"><ele>1077.0</ele><time>2026-05-01T16:25:28.867Z</time></trkpt><trkpt lat="43.7959824" lon="6.7125195"><ele>1076.3333333333333</ele><time>2026-05-01T16:25:29.867Z</time></trkpt><trkpt lat="43.795908" lon="6.712224"><ele>1075.6666666666665</ele><time>2026-05-01T16:25:30.867Z</time></trkpt><trkpt lat="43.7958485" lon="6.7119422"><ele>1075.0</ele><time>2026-05-01T16:25:31.867Z</time></trkpt><trkpt lat="43.7957897" lon="6.7116399"><ele>1075.0</ele><time>2026-05-01T16:25:32.867Z</time></trkpt><trkpt lat="43.7957422" lon="6.711356"><ele>1075.0</ele><time>2026-05-01T16:25:33.867Z</time></trkpt><trkpt lat="43.7956951" lon="6.7110841"><ele>1075.0</ele><time>2026-05-01T16:25:34.868Z</time></trkpt><trkpt lat="43.7956421" lon="6.7108083"><ele>1075.0</ele><time>2026-05-01T16:25:35.867Z</time></trkpt><trkpt lat="43.7955593" lon="6.7105392"><ele>1075.0</ele><time>2026-05-01T16:25:36.868Z</time></trkpt><trkpt lat="43.7954656" lon="6.7102859"><ele>1075.0</ele><time>2026-05-01T16:25:37.867Z</time></trkpt><trkpt lat="43.7953333" lon="6.7100836"><ele>1075.6666666666665</ele><time>2026-05-01T16:25:38.867Z</time></trkpt><trkpt lat="43.7952115" lon="6.7098672"><ele>1076.3333333333333</ele><time>2026-05-01T16:25:39.867Z</time></trkpt><trkpt lat="43.7950865" lon="6.7096445"><ele>1077.0</ele><time>2026-05-01T16:25:40.867Z</time></trkpt><trkpt lat="43.7950155" lon="6.7093915"><ele>1077.0</ele><time>2026-05-01T16:25:41.867Z</time></trkpt><trkpt lat="43.7949365" lon="6.7091518"><ele>1077.0</ele><time>2026-05-01T16:25:42.868Z</time></trkpt><trkpt lat="43.7948939" lon="6.708863"><ele>1077.0</ele><time>2026-05-01T16:25:43.867Z</time></trkpt><trkpt lat="43.7948527" lon="6.7085853"><ele>1077.0</ele><time>2026-05-01T16:25:44.867Z</time></trkpt><trkpt lat="43.7948352" lon="6.7082724"><ele>1077.0</ele><time>2026-05-01T16:25:45.868Z</time></trkpt><trkpt lat="43.7948287" lon="6.7079824"><ele>1077.0</ele><time>2026-05-01T16:25:46.867Z</time></trkpt><trkpt lat="43.7948217" lon="6.7077278"><ele>1077.0</ele><time>2026-05-01T16:25:47.868Z</time></trkpt><trkpt lat="43.794804" lon="6.7074135"><ele>1077.0</ele><time>2026-05-01T16:25:48.867Z</time></trkpt><trkpt lat="43.7948252" lon="6.707141"><ele>1077.0</ele><time>2026-05-01T16:25:49.867Z</time></trkpt><trkpt lat="43.7948383" lon="6.7068632"><ele>1077.0</ele><time>2026-05-01T16:25:50.867Z</time></trkpt><trkpt lat="43.7948439" lon="6.7065954"><ele>1077.0</ele><time>2026-05-01T16:25:51.867Z</time></trkpt><trkpt lat="43.7948474" lon="6.7063023"><ele>1077.0</ele><time>2026-05-01T16:25:52.867Z</time></trkpt><trkpt lat="43.7948798" lon="6.7060623"><ele>1077.3333333333333</ele><time>2026-05-01T16:25:53.867Z</time></trkpt><trkpt lat="43.7949077" lon="6.7058031"><ele>1077.6666666666665</ele><time>2026-05-01T16:25:54.867Z</time></trkpt><trkpt lat="43.7949448" lon="6.7055324"><ele>1078.0</ele><time>2026-05-01T16:25:55.867Z</time></trkpt><trkpt lat="43.794931" lon="6.7052384"><ele>1078.3333333333333</ele><time>2026-05-01T16:25:56.867Z</time></trkpt><trkpt lat="43.7949289" lon="6.7049644"><ele>1078.6666666666667</ele><time>2026-05-01T16:25:57.867Z</time></trkpt><trkpt lat="43.7949455" lon="6.7047006"><ele>1079.0</ele><time>2026-05-01T16:25:58.867Z</time></trkpt><trkpt lat="43.7949418" lon="6.7044421"><ele>1079.0</ele><time>2026-05-01T16:25:59.867Z</time></trkpt><trkpt lat="43.7949166" lon="6.7041487"><ele>1079.0</ele><time>2026-05-01T16:26:00.867Z</time></trkpt><trkpt lat="43.794888" lon="6.7038693"><ele>1079.0</ele><time>2026-05-01T16:26:01.867Z</time></trkpt><trkpt lat="43.7948582" lon="6.7035639"><ele>1079.0</ele><time>2026-05-01T16:26:02.867Z</time></trkpt><trkpt lat="43.7948115" lon="6.7033109"><ele>1079.0</ele><time>2026-05-01T16:26:03.867Z</time></trkpt><trkpt lat="43.7947619" lon="6.7030387"><ele>1079.0</ele><time>2026-05-01T16:26:04.867Z</time></trkpt><trkpt lat="43.7947201" lon="6.7027512"><ele>1079.6666666666667</ele><time>2026-05-01T16:26:05.867Z</time></trkpt><trkpt lat="43.7946718" lon="6.7024658"><ele>1080.3333333333333</ele><time>2026-05-01T16:26:06.867Z</time></trkpt><trkpt lat="43.7946259" lon="6.7021745"><ele>1081.0</ele><time>2026-05-01T16:26:07.867Z</time></trkpt><trkpt lat="43.7945865" lon="6.7018753"><ele>1081.6666666666665</ele><time>2026-05-01T16:26:08.867Z</time></trkpt><trkpt lat="43.7945607" lon="6.7015818"><ele>1082.3333333333333</ele><time>2026-05-01T16:26:09.867Z</time></trkpt><trkpt lat="43.7945515" lon="6.7012851"><ele>1083.0</ele><time>2026-05-01T16:26:10.867Z</time></trkpt><trkpt lat="43.794492" lon="6.7009877"><ele>1083.6666666666667</ele><time>2026-05-01T16:26:11.868Z</time></trkpt><trkpt lat="43.7944871" lon="6.7006866"><ele>1084.3333333333335</ele><time>2026-05-01T16:26:12.867Z</time></trkpt><trkpt lat="43.7944787" lon="6.700411"><ele>1085.0</ele><time>2026-05-01T16:26:13.867Z</time></trkpt><trkpt lat="43.7944606" lon="6.7001103"><ele>1085.3333333333335</ele><time>2026-05-01T16:26:14.867Z</time></trkpt><trkpt lat="43.7944336" lon="6.6998253"><ele>1085.6666666666667</ele><time>2026-05-01T16:26:15.867Z</time></trkpt><trkpt lat="43.7944116" lon="6.6995381"><ele>1086.0</ele><time>2026-05-01T16:26:16.867Z</time></trkpt><trkpt lat="43.7944027" lon="6.6992434"><ele>1086.0</ele><time>2026-05-01T16:26:17.867Z</time></trkpt><trkpt lat="43.7943957" lon="6.6989506"><ele>1086.0</ele><time>2026-05-01T16:26:18.867Z</time></trkpt><trkpt lat="43.7943921" lon="6.6986488"><ele>1086.0</ele><time>2026-05-01T16:26:19.867Z</time></trkpt><trkpt lat="43.7943959" lon="6.6983777"><ele>1084.6666666666667</ele><time>2026-05-01T16:26:20.867Z</time></trkpt><trkpt lat="43.7943883" lon="6.6980929"><ele>1083.3333333333335</ele><time>2026-05-01T16:26:21.867Z</time></trkpt><trkpt lat="43.7943906" lon="6.6977864"><ele>1082.0</ele><time>2026-05-01T16:26:22.868Z</time></trkpt><trkpt lat="43.794411" lon="6.697492"><ele>1081.3333333333335</ele><time>2026-05-01T16:26:23.867Z</time></trkpt><trkpt lat="43.794413" lon="6.697185"><ele>1080.6666666666667</ele><time>2026-05-01T16:26:24.867Z</time></trkpt><trkpt lat="43.7944179" lon="6.6969097"><ele>1080.0</ele><time>2026-05-01T16:26:25.867Z</time></trkpt><trkpt lat="43.7944018" lon="6.6965936"><ele>1080.0</ele><time>2026-05-01T16:26:26.867Z</time></trkpt><trkpt lat="43.7943702" lon="6.6963138"><ele>1080.0</ele><time>2026-05-01T16:26:27.867Z</time></trkpt><trkpt lat="43.7943328" lon="6.6959971"><ele>1080.0</ele><time>2026-05-01T16:26:28.867Z</time></trkpt><trkpt lat="43.7943055" lon="6.6956414"><ele>1078.3333333333333</ele><time>2026-05-01T16:26:29.867Z</time></trkpt><trkpt lat="43.7942898" lon="6.6953727"><ele>1076.6666666666665</ele><time>2026-05-01T16:26:30.867Z</time></trkpt><trkpt lat="43.794244" lon="6.6950473"><ele>1075.0</ele><time>2026-05-01T16:26:31.867Z</time></trkpt><trkpt lat="43.7942068" lon="6.6947413"><ele>1074.5</ele><time>2026-05-01T16:26:32.867Z</time></trkpt><trkpt lat="43.794186" lon="6.6944229"><ele>1074.0</ele><time>2026-05-01T16:26:33.867Z</time></trkpt><trkpt lat="43.794169" lon="6.6941052"><ele>1074.6666666666667</ele><time>2026-05-01T16:26:34.867Z</time></trkpt><trkpt lat="43.7941439" lon="6.6937938"><ele>1075.3333333333335</ele><time>2026-05-01T16:26:35.868Z</time></trkpt><trkpt lat="43.7940961" lon="6.693513"><ele>1076.0</ele><time>2026-05-01T16:26:36.867Z</time></trkpt><trkpt lat="43.794055" lon="6.6932049"><ele>1076.0</ele><time>2026-05-01T16:26:37.867Z</time></trkpt><trkpt lat="43.7939811" lon="6.6929352"><ele>1076.0</ele><time>2026-05-01T16:26:38.867Z</time></trkpt><trkpt lat="43.7939207" lon="6.6926937"><ele>1076.0</ele><time>2026-05-01T16:26:39.867Z</time></trkpt><trkpt lat="43.7938002" lon="6.692428"><ele>1077.0</ele><time>2026-05-01T16:26:40.867Z</time></trkpt><trkpt lat="43.7936882" lon="6.6921444"><ele>1078.0</ele><time>2026-05-01T16:26:41.867Z</time></trkpt><trkpt lat="43.7935811" lon="6.6918502"><ele>1076.0</ele><time>2026-05-01T16:26:42.867Z</time></trkpt><trkpt lat="43.79349" lon="6.6915923"><ele>1074.0</ele><time>2026-05-01T16:26:43.867Z</time></trkpt><trkpt lat="43.7934298" lon="6.6913247"><ele>1072.0</ele><time>2026-05-01T16:26:44.868Z</time></trkpt><trkpt lat="43.7933682" lon="6.6910191"><ele>1072.0</ele><time>2026-05-01T16:26:45.867Z</time></trkpt><trkpt lat="43.7933318" lon="6.6907351"><ele>1072.0</ele><time>2026-05-01T16:26:46.867Z</time></trkpt><trkpt lat="43.7932933" lon="6.6904196"><ele>1072.0</ele><time>2026-05-01T16:26:47.867Z</time></trkpt><trkpt lat="43.7932646" lon="6.6901548"><ele>1072.0</ele><time>2026-05-01T16:26:48.867Z</time></trkpt><trkpt lat="43.7932458" lon="6.6898659"><ele>1072.0</ele><time>2026-05-01T16:26:49.867Z</time></trkpt><trkpt lat="43.7932132" lon="6.6895788"><ele>1072.0</ele><time>2026-05-01T16:26:50.867Z</time></trkpt><trkpt lat="43.7932074" lon="6.6892561"><ele>1071.3333333333333</ele><time>2026-05-01T16:26:51.867Z</time></trkpt><trkpt lat="43.7932286" lon="6.6889582"><ele>1070.6666666666667</ele><time>2026-05-01T16:26:52.867Z</time></trkpt><trkpt lat="43.7932601" lon="6.6886823"><ele>1070.0</ele><time>2026-05-01T16:26:53.867Z</time></trkpt><trkpt lat="43.7933082" lon="6.6884005"><ele>1069.0</ele><time>2026-05-01T16:26:54.867Z</time></trkpt><trkpt lat="43.7933648" lon="6.6881591"><ele>1068.0</ele><time>2026-05-01T16:26:55.867Z</time></trkpt><trkpt lat="43.7934417" lon="6.6878907"><ele>1067.0</ele><time>2026-05-01T16:26:56.868Z</time></trkpt><trkpt lat="43.7935157" lon="6.6876362"><ele>1072.3333333333335</ele><time>2026-05-01T16:26:57.867Z</time></trkpt><trkpt lat="43.7935767" lon="6.6873823"><ele>1077.6666666666667</ele><time>2026-05-01T16:26:58.867Z</time></trkpt><trkpt lat="43.7936498" lon="6.6871305"><ele>1083.0</ele><time>2026-05-01T16:26:59.867Z</time></trkpt><trkpt lat="43.7937517" lon="6.6868446"><ele>1083.6666666666667</ele><time>2026-05-01T16:27:00.867Z</time></trkpt><trkpt lat="43.7938086" lon="6.6866197"><ele>1084.3333333333335</ele><time>2026-05-01T16:27:01.867Z</time></trkpt><trkpt lat="43.7938546" lon="6.686343"><ele>1085.0</ele><time>2026-05-01T16:27:02.868Z</time></trkpt><trkpt lat="43.793894" lon="6.6860824"><ele>1085.3333333333335</ele><time>2026-05-01T16:27:03.867Z</time></trkpt><trkpt lat="43.7939241" lon="6.6857828"><ele>1085.6666666666667</ele><time>2026-05-01T16:27:04.867Z</time></trkpt><trkpt lat="43.793937" lon="6.6855206"><ele>1086.0</ele><time>2026-05-01T16:27:05.867Z</time></trkpt><trkpt lat="43.7939525" lon="6.6852179"><ele>1086.0</ele><time>2026-05-01T16:27:06.867Z</time></trkpt><trkpt lat="43.7939788" lon="6.6849181"><ele>1086.0</ele><time>2026-05-01T16:27:07.867Z</time></trkpt><trkpt lat="43.7939861" lon="6.6846436"><ele>1086.0</ele><time>2026-05-01T16:27:08.867Z</time></trkpt><trkpt lat="43.7940187" lon="6.6843241"><ele>1085.5</ele><time>2026-05-01T16:27:09.867Z</time></trkpt><trkpt lat="43.7940677" lon="6.6840065"><ele>1085.0</ele><time>2026-05-01T16:27:10.867Z</time></trkpt><trkpt lat="43.7940726" lon="6.6836833"><ele>1084.5</ele><time>2026-05-01T16:27:11.867Z</time></trkpt><trkpt lat="43.794064" lon="6.6833252"><ele>1084.0</ele><time>2026-05-01T16:27:12.867Z</time></trkpt><trkpt lat="43.7940688" lon="6.6829896"><ele>1083.0</ele><time>2026-05-01T16:27:13.867Z</time></trkpt><trkpt lat="43.7940905" lon="6.6826585"><ele>1082.0</ele><time>2026-05-01T16:27:14.867Z</time></trkpt><trkpt lat="43.7941125" lon="6.6823468"><ele>1082.0</ele><time>2026-05-01T16:27:15.867Z</time></trkpt><trkpt lat="43.7941333" lon="6.6820171"><ele>1082.0</ele><time>2026-05-01T16:27:16.867Z</time></trkpt><trkpt lat="43.794125" lon="6.6816797"><ele>1080.0</ele><time>2026-05-01T16:27:17.867Z</time></trkpt><trkpt lat="43.7941075" lon="6.68133"><ele>1078.0</ele><time>2026-05-01T16:27:18.867Z</time></trkpt><trkpt lat="43.7940793" lon="6.6809697"><ele>1078.0</ele><time>2026-05-01T16:27:19.867Z</time></trkpt><trkpt lat="43.794017" lon="6.6806565"><ele>1078.0</ele><time>2026-05-01T16:27:20.867Z</time></trkpt><trkpt lat="43.7940054" lon="6.6803597"><ele>1078.0</ele><time>2026-05-01T16:27:21.867Z</time></trkpt><trkpt lat="43.7939777" lon="6.6800474"><ele>1076.6666666666665</ele><time>2026-05-01T16:27:22.867Z</time></trkpt><trkpt lat="43.7939791" lon="6.6797698"><ele>1075.3333333333333</ele><time>2026-05-01T16:27:23.867Z</time></trkpt><trkpt lat="43.7939382" lon="6.6795133"><ele>1074.0</ele><time>2026-05-01T16:27:24.867Z</time></trkpt><trkpt lat="43.793926" lon="6.6792642"><ele>1072.0</ele><time>2026-05-01T16:27:25.867Z</time></trkpt><trkpt lat="43.7938757" lon="6.6790594"><ele>1070.0</ele><time>2026-05-01T16:27:26.867Z</time></trkpt><trkpt lat="43.7938385" lon="6.6788643"><ele>1068.0</ele><time>2026-05-01T16:27:27.867Z</time></trkpt><trkpt lat="43.7937631" lon="6.678679"><ele>1068.0</ele><time>2026-05-01T16:27:28.867Z</time></trkpt><trkpt lat="43.7936971" lon="6.6784951"><ele>1068.0</ele><time>2026-05-01T16:27:29.867Z</time></trkpt><trkpt lat="43.7936349" lon="6.6783083"><ele>1068.0</ele><time>2026-05-01T16:27:30.867Z</time></trkpt><trkpt lat="43.7935575" lon="6.6781286"><ele>1068.0</ele><time>2026-05-01T16:27:31.867Z</time></trkpt><trkpt lat="43.7934753" lon="6.6779341"><ele>1068.0</ele><time>2026-05-01T16:27:32.867Z</time></trkpt><trkpt lat="43.793385" lon="6.677749"><ele>1068.0</ele><time>2026-05-01T16:27:33.867Z</time></trkpt><trkpt lat="43.7933109" lon="6.6775657"><ele>1068.0</ele><time>2026-05-01T16:27:34.867Z</time></trkpt><trkpt lat="43.793249" lon="6.6773718"><ele>1068.0</ele><time>2026-05-01T16:27:35.867Z</time></trkpt><trkpt lat="43.7931816" lon="6.6771879"><ele>1068.0</ele><time>2026-05-01T16:27:36.867Z</time></trkpt><trkpt lat="43.7931037" lon="6.6769641"><ele>1068.0</ele><time>2026-05-01T16:27:37.868Z</time></trkpt><trkpt lat="43.793028" lon="6.6767489"><ele>1069.3333333333333</ele><time>2026-05-01T16:27:38.868Z</time></trkpt><trkpt lat="43.7929562" lon="6.6765169"><ele>1070.6666666666665</ele><time>2026-05-01T16:27:39.867Z</time></trkpt><trkpt lat="43.7928996" lon="6.6763407"><ele>1072.0</ele><time>2026-05-01T16:27:40.867Z</time></trkpt><trkpt lat="43.7928236" lon="6.6760942"><ele>1073.6666666666665</ele><time>2026-05-01T16:27:41.867Z</time></trkpt><trkpt lat="43.79274" lon="6.6758722"><ele>1075.3333333333333</ele><time>2026-05-01T16:27:42.867Z</time></trkpt><trkpt lat="43.7926697" lon="6.6756363"><ele>1077.0</ele><time>2026-05-01T16:27:43.867Z</time></trkpt><trkpt lat="43.792611" lon="6.6754114"><ele>1072.3333333333333</ele><time>2026-05-01T16:27:44.867Z</time></trkpt><trkpt lat="43.7925483" lon="6.6751591"><ele>1067.6666666666665</ele><time>2026-05-01T16:27:45.868Z</time></trkpt><trkpt lat="43.7924949" lon="6.6749225"><ele>1063.0</ele><time>2026-05-01T16:27:46.868Z</time></trkpt><trkpt lat="43.7924518" lon="6.6746836"><ele>1063.0</ele><time>2026-05-01T16:27:47.867Z</time></trkpt><trkpt lat="43.7924077" lon="6.6744388"><ele>1063.0</ele><time>2026-05-01T16:27:48.867Z</time></trkpt><trkpt lat="43.7923668" lon="6.6741203"><ele>1063.0</ele><time>2026-05-01T16:27:49.867Z</time></trkpt><trkpt lat="43.7923467" lon="6.6738575"><ele>1063.6666666666665</ele><time>2026-05-01T16:27:50.867Z</time></trkpt><trkpt lat="43.7922923" lon="6.6735526"><ele>1064.3333333333333</ele><time>2026-05-01T16:27:51.867Z</time></trkpt><trkpt lat="43.7922602" lon="6.6732631"><ele>1065.0</ele><time>2026-05-01T16:27:52.868Z</time></trkpt><trkpt lat="43.7922406" lon="6.6729867"><ele>1066.5</ele><time>2026-05-01T16:27:53.867Z</time></trkpt><trkpt lat="43.7921848" lon="6.6726891"><ele>1068.0</ele><time>2026-05-01T16:27:54.867Z</time></trkpt><trkpt lat="43.7921426" lon="6.6723626"><ele>1068.0</ele><time>2026-05-01T16:27:55.867Z</time></trkpt><trkpt lat="43.7920972" lon="6.6720691"><ele>1068.0</ele><time>2026-05-01T16:27:56.867Z</time></trkpt><trkpt lat="43.792049" lon="6.6717329"><ele>1068.0</ele><time>2026-05-01T16:27:57.867Z</time></trkpt><trkpt lat="43.7920016" lon="6.6714204"><ele>1068.0</ele><time>2026-05-01T16:27:58.867Z</time></trkpt><trkpt lat="43.79195" lon="6.671075"><ele>1068.3333333333333</ele><time>2026-05-01T16:27:59.867Z</time></trkpt><trkpt lat="43.7918964" lon="6.6707589"><ele>1068.6666666666665</ele><time>2026-05-01T16:28:00.867Z</time></trkpt><trkpt lat="43.7918604" lon="6.6704919"><ele>1069.0</ele><time>2026-05-01T16:28:01.867Z</time></trkpt><trkpt lat="43.7918127" lon="6.6702067"><ele>1059.0</ele><time>2026-05-01T16:28:02.867Z</time></trkpt><trkpt lat="43.791743" lon="6.6698672"><ele>1049.0</ele><time>2026-05-01T16:28:03.867Z</time></trkpt><trkpt lat="43.7916939" lon="6.6695703"><ele>1050.0</ele><time>2026-05-01T16:28:04.867Z</time></trkpt><trkpt lat="43.7916323" lon="6.6692937"><ele>1051.0</ele><time>2026-05-01T16:28:05.868Z</time></trkpt><trkpt lat="43.7915685" lon="6.6690134"><ele>1052.0</ele><time>2026-05-01T16:28:06.867Z</time></trkpt><trkpt lat="43.7915307" lon="6.6687266"><ele>1053.0</ele><time>2026-05-01T16:28:07.867Z</time></trkpt><trkpt lat="43.7915165" lon="6.6684243"><ele>1054.0</ele><time>2026-05-01T16:28:08.867Z</time></trkpt><trkpt lat="43.7914942" lon="6.6681582"><ele>1055.0</ele><time>2026-05-01T16:28:09.867Z</time></trkpt><trkpt lat="43.791471" lon="6.6679076"><ele>1055.6666666666667</ele><time>2026-05-01T16:28:10.867Z</time></trkpt><trkpt lat="43.791501" lon="6.6676268"><ele>1056.3333333333333</ele><time>2026-05-01T16:28:11.867Z</time></trkpt><trkpt lat="43.7914972" lon="6.667365"><ele>1057.0</ele><time>2026-05-01T16:28:12.867Z</time></trkpt><trkpt lat="43.7914855" lon="6.667107"><ele>1056.0</ele><time>2026-05-01T16:28:13.867Z</time></trkpt><trkpt lat="43.7914875" lon="6.6668565"><ele>1055.0</ele><time>2026-05-01T16:28:14.867Z</time></trkpt><trkpt lat="43.7915082" lon="6.6666019"><ele>1054.0</ele><time>2026-05-01T16:28:15.867Z</time></trkpt><trkpt lat="43.7915278" lon="6.6663711"><ele>1054.0</ele><time>2026-05-01T16:28:16.867Z</time></trkpt><trkpt lat="43.7915797" lon="6.6661732"><ele>1054.0</ele><time>2026-05-01T16:28:17.867Z</time></trkpt><trkpt lat="43.7916409" lon="6.6659115"><ele>1054.0</ele><time>2026-05-01T16:28:18.867Z</time></trkpt><trkpt lat="43.7916648" lon="6.6656569"><ele>1051.6666666666665</ele><time>2026-05-01T16:28:19.867Z</time></trkpt><trkpt lat="43.7917208" lon="6.6654233"><ele>1049.3333333333333</ele><time>2026-05-01T16:28:20.867Z</time></trkpt><trkpt lat="43.7917758" lon="6.6652022"><ele>1047.0</ele><time>2026-05-01T16:28:21.867Z</time></trkpt><trkpt lat="43.791826" lon="6.6649627"><ele>1051.3333333333333</ele><time>2026-05-01T16:28:22.867Z</time></trkpt><trkpt lat="43.7918676" lon="6.6647231"><ele>1055.6666666666665</ele><time>2026-05-01T16:28:23.867Z</time></trkpt><trkpt lat="43.7919159" lon="6.6645009"><ele>1060.0</ele><time>2026-05-01T16:28:24.867Z</time></trkpt><trkpt lat="43.7919607" lon="6.6643051"><ele>1060.0</ele><time>2026-05-01T16:28:25.867Z</time></trkpt><trkpt lat="43.7920011" lon="6.6640796"><ele>1060.0</ele><time>2026-05-01T16:28:26.867Z</time></trkpt><trkpt lat="43.792053" lon="6.6638282"><ele>1060.0</ele><time>2026-05-01T16:28:27.867Z</time></trkpt><trkpt lat="43.7920874" lon="6.6636205"><ele>1058.0</ele><time>2026-05-01T16:28:28.868Z</time></trkpt><trkpt lat="43.7921619" lon="6.6634338"><ele>1056.0</ele><time>2026-05-01T16:28:29.867Z</time></trkpt><trkpt lat="43.7922556" lon="6.6632168"><ele>1054.0</ele><time>2026-05-01T16:28:30.867Z</time></trkpt><trkpt lat="43.7923538" lon="6.6629685"><ele>1051.3333333333333</ele><time>2026-05-01T16:28:31.867Z</time></trkpt><trkpt lat="43.7924662" lon="6.6627292"><ele>1048.6666666666667</ele><time>2026-05-01T16:28:32.867Z</time></trkpt><trkpt lat="43.7925671" lon="6.6625128"><ele>1046.0</ele><time>2026-05-01T16:28:33.867Z</time></trkpt><trkpt lat="43.792663" lon="6.6623076"><ele>1046.3333333333335</ele><time>2026-05-01T16:28:34.867Z</time></trkpt><trkpt lat="43.7927729" lon="6.6620976"><ele>1046.6666666666667</ele><time>2026-05-01T16:28:35.867Z</time></trkpt><trkpt lat="43.7928754" lon="6.6619116"><ele>1047.0</ele><time>2026-05-01T16:28:36.867Z</time></trkpt><trkpt lat="43.7929429" lon="6.6617046"><ele>1047.3333333333333</ele><time>2026-05-01T16:28:37.867Z</time></trkpt><trkpt lat="43.7930039" lon="6.6614934"><ele>1047.6666666666665</ele><time>2026-05-01T16:28:38.867Z</time></trkpt><trkpt lat="43.7930998" lon="6.6612921"><ele>1048.0</ele><time>2026-05-01T16:28:39.867Z</time></trkpt><trkpt lat="43.7931922" lon="6.66114"><ele>1048.0</ele><time>2026-05-01T16:28:40.867Z</time></trkpt><trkpt lat="43.7932728" lon="6.6609567"><ele>1048.0</ele><time>2026-05-01T16:28:41.867Z</time></trkpt><trkpt lat="43.7933513" lon="6.6607742"><ele>1048.0</ele><time>2026-05-01T16:28:42.867Z</time></trkpt><trkpt lat="43.7934173" lon="6.6605978"><ele>1048.0</ele><time>2026-05-01T16:28:43.867Z</time></trkpt><trkpt lat="43.7934977" lon="6.6604379"><ele>1048.0</ele><time>2026-05-01T16:28:44.867Z</time></trkpt><trkpt lat="43.7935864" lon="6.6602686"><ele>1048.0</ele><time>2026-05-01T16:28:45.867Z</time></trkpt><trkpt lat="43.7936924" lon="6.6601033"><ele>1050.0</ele><time>2026-05-01T16:28:46.867Z</time></trkpt><trkpt lat="43.7937683" lon="6.6599596"><ele>1052.0</ele><time>2026-05-01T16:28:47.867Z</time></trkpt><trkpt lat="43.7938735" lon="6.6598194"><ele>1054.0</ele><time>2026-05-01T16:28:48.867Z</time></trkpt><trkpt lat="43.793983" lon="6.6596795"><ele>1056.0</ele><time>2026-05-01T16:28:49.867Z</time></trkpt><trkpt lat="43.7941087" lon="6.6595244"><ele>1055.5</ele><time>2026-05-01T16:28:50.867Z</time></trkpt><trkpt lat="43.7942057" lon="6.6594071"><ele>1055.0</ele><time>2026-05-01T16:28:51.867Z</time></trkpt><trkpt lat="43.7943168" lon="6.6592818"><ele>1054.5</ele><time>2026-05-01T16:28:52.867Z</time></trkpt><trkpt lat="43.794434" lon="6.6591675"><ele>1054.0</ele><time>2026-05-01T16:28:53.867Z</time></trkpt><trkpt lat="43.7945324" lon="6.6590705"><ele>1055.0</ele><time>2026-05-01T16:28:54.867Z</time></trkpt><trkpt lat="43.7946141" lon="6.6589861"><ele>1056.0</ele><time>2026-05-01T16:28:55.868Z</time></trkpt><trkpt lat="43.7947147" lon="6.6589201"><ele>1057.0</ele><time>2026-05-01T16:28:56.867Z</time></trkpt><trkpt lat="43.794829" lon="6.6588235"><ele>1058.0</ele><time>2026-05-01T16:28:57.867Z</time></trkpt><trkpt lat="43.794905" lon="6.6587407"><ele>1059.0</ele><time>2026-05-01T16:28:58.868Z</time></trkpt><trkpt lat="43.7949631" lon="6.6586644"><ele>1058.8</ele><time>2026-05-01T16:28:59.868Z</time></trkpt><trkpt lat="43.7950232" lon="6.6586016"><ele>1058.6000000000001</ele><time>2026-05-01T16:29:00.867Z</time></trkpt><trkpt lat="43.7950642" lon="6.6584804"><ele>1058.4</ele><time>2026-05-01T16:29:01.867Z</time></trkpt><trkpt lat="43.7950359" lon="6.6582633"><ele>1058.2</ele><time>2026-05-01T16:29:03.867Z</time></trkpt><trkpt lat="43.7950069" lon="6.6581616"><ele>1058.0</ele><time>2026-05-01T16:29:04.868Z</time></trkpt><trkpt lat="43.7949373" lon="6.6580728"><ele>1058.0</ele><time>2026-05-01T16:29:05.867Z</time></trkpt><trkpt lat="43.7948565" lon="6.6580038"><ele>1058.0</ele><time>2026-05-01T16:29:06.867Z</time></trkpt><trkpt lat="43.7947545" lon="6.658029"><ele>1058.0</ele><time>2026-05-01T16:29:07.867Z</time></trkpt><trkpt lat="43.7946233" lon="6.658049"><ele>1058.0</ele><time>2026-05-01T16:29:09.867Z</time></trkpt><trkpt lat="43.7945338" lon="6.6580881"><ele>1058.0</ele><time>2026-05-01T16:29:11.867Z</time></trkpt><trkpt lat="43.7944463" lon="6.6580825"><ele>1058.0</ele><time>2026-05-01T16:29:13.867Z</time></trkpt><trkpt lat="43.7943562" lon="6.6580821"><ele>1058.0</ele><time>2026-05-01T16:29:15.867Z</time></trkpt><trkpt lat="43.7942924" lon="6.658065"><ele>1058.0</ele><time>2026-05-01T16:29:17.867Z</time></trkpt><trkpt lat="43.7941344" lon="6.6580074"><ele>1058.0</ele><time>2026-05-01T16:29:19.867Z</time></trkpt><trkpt lat="43.7940635" lon="6.6579728"><ele>1058.0</ele><time>2026-05-01T16:29:20.867Z</time></trkpt><trkpt lat="43.7939761" lon="6.6579447"><ele>1058.0</ele><time>2026-05-01T16:29:21.867Z</time></trkpt><trkpt lat="43.7939035" lon="6.657909"><ele>1058.0</ele><time>2026-05-01T16:29:22.868Z</time></trkpt><trkpt lat="43.7937815" lon="6.657906"><ele>1058.0</ele><time>2026-05-01T16:29:23.867Z</time></trkpt><trkpt lat="43.7936776" lon="6.6579503"><ele>1058.0</ele><time>2026-05-01T16:29:24.867Z</time></trkpt><trkpt lat="43.7935368" lon="6.6579288"><ele>1058.0</ele><time>2026-05-01T16:29:25.867Z</time></trkpt><trkpt lat="43.7934252" lon="6.6578801"><ele>1058.0</ele><time>2026-05-01T16:29:26.867Z</time></trkpt><trkpt lat="43.793251" lon="6.6578122"><ele>1058.0</ele><time>2026-05-01T16:29:27.867Z</time></trkpt><trkpt lat="43.7930716" lon="6.6577057"><ele>1058.0</ele><time>2026-05-01T16:29:28.867Z</time></trkpt><trkpt lat="43.7929233" lon="6.6575998"><ele>1057.6666666666667</ele><time>2026-05-01T16:29:29.867Z</time></trkpt><trkpt lat="43.7928204" lon="6.6574797"><ele>1057.3333333333333</ele><time>2026-05-01T16:29:30.867Z</time></trkpt><trkpt lat="43.79272" lon="6.65729"><ele>1057.0</ele><time>2026-05-01T16:29:31.867Z</time></trkpt><trkpt lat="43.7926249" lon="6.6571137"><ele>1060.0</ele><time>2026-05-01T16:29:32.867Z</time></trkpt><trkpt lat="43.7924705" lon="6.6569011"><ele>1063.0</ele><time>2026-05-01T16:29:33.867Z</time></trkpt><trkpt lat="43.7923572" lon="6.6567395"><ele>1066.0</ele><time>2026-05-01T16:29:34.867Z</time></trkpt><trkpt lat="43.7922615" lon="6.6565047"><ele>1066.0</ele><time>2026-05-01T16:29:35.867Z</time></trkpt><trkpt lat="43.7921689" lon="6.6563018"><ele>1066.0</ele><time>2026-05-01T16:29:36.867Z</time></trkpt><trkpt lat="43.7920328" lon="6.6560677"><ele>1066.0</ele><time>2026-05-01T16:29:37.867Z</time></trkpt><trkpt lat="43.7919187" lon="6.6558511"><ele>1062.6666666666665</ele><time>2026-05-01T16:29:38.868Z</time></trkpt><trkpt lat="43.7918166" lon="6.6556382"><ele>1059.3333333333333</ele><time>2026-05-01T16:29:39.867Z</time></trkpt><trkpt lat="43.7917081" lon="6.6554506"><ele>1056.0</ele><time>2026-05-01T16:29:40.867Z</time></trkpt><trkpt lat="43.7916563" lon="6.6552783"><ele>1056.0</ele><time>2026-05-01T16:29:41.867Z</time></trkpt><trkpt lat="43.7916312" lon="6.6551311"><ele>1056.0</ele><time>2026-05-01T16:29:42.867Z</time></trkpt><trkpt lat="43.7916038" lon="6.6549271"><ele>1056.0</ele><time>2026-05-01T16:29:43.867Z</time></trkpt><trkpt lat="43.7916075" lon="6.6546814"><ele>1056.0</ele><time>2026-05-01T16:29:44.867Z</time></trkpt><trkpt lat="43.791607" lon="6.6544234"><ele>1056.0</ele><time>2026-05-01T16:29:45.867Z</time></trkpt><trkpt lat="43.791591" lon="6.654157"><ele>1056.0</ele><time>2026-05-01T16:29:46.867Z</time></trkpt><trkpt lat="43.7916167" lon="6.6539055"><ele>1056.0</ele><time>2026-05-01T16:29:47.867Z</time></trkpt><trkpt lat="43.7916214" lon="6.6536658"><ele>1056.3333333333333</ele><time>2026-05-01T16:29:48.867Z</time></trkpt><trkpt lat="43.7915918" lon="6.6534556"><ele>1056.6666666666665</ele><time>2026-05-01T16:29:49.867Z</time></trkpt><trkpt lat="43.7915053" lon="6.6532273"><ele>1057.0</ele><time>2026-05-01T16:29:50.867Z</time></trkpt><trkpt lat="43.7914375" lon="6.6530041"><ele>1057.3333333333333</ele><time>2026-05-01T16:29:51.867Z</time></trkpt><trkpt lat="43.7913875" lon="6.652788"><ele>1057.6666666666667</ele><time>2026-05-01T16:29:52.867Z</time></trkpt><trkpt lat="43.7913442" lon="6.6525559"><ele>1058.0</ele><time>2026-05-01T16:29:53.867Z</time></trkpt><trkpt lat="43.7912683" lon="6.6523172"><ele>1058.0</ele><time>2026-05-01T16:29:54.867Z</time></trkpt><trkpt lat="43.7912389" lon="6.6520794"><ele>1058.0</ele><time>2026-05-01T16:29:55.867Z</time></trkpt><trkpt lat="43.791293" lon="6.6518942"><ele>1058.0</ele><time>2026-05-01T16:29:56.868Z</time></trkpt><trkpt lat="43.7912918" lon="6.6516802"><ele>1057.25</ele><time>2026-05-01T16:29:57.867Z</time></trkpt><trkpt lat="43.7912724" lon="6.6514814"><ele>1056.5</ele><time>2026-05-01T16:29:58.867Z</time></trkpt><trkpt lat="43.7912638" lon="6.6512863"><ele>1055.75</ele><time>2026-05-01T16:29:59.867Z</time></trkpt><trkpt lat="43.7912585" lon="6.6510978"><ele>1055.0</ele><time>2026-05-01T16:30:00.867Z</time></trkpt><trkpt lat="43.791233" lon="6.6509344"><ele>1054.5</ele><time>2026-05-01T16:30:01.867Z</time></trkpt><trkpt lat="43.7911999" lon="6.6507301"><ele>1054.0</ele><time>2026-05-01T16:30:02.867Z</time></trkpt><trkpt lat="43.7911694" lon="6.6505955"><ele>1053.5</ele><time>2026-05-01T16:30:03.867Z</time></trkpt><trkpt lat="43.7910693" lon="6.650433"><ele>1053.0</ele><time>2026-05-01T16:30:04.868Z</time></trkpt><trkpt lat="43.7909414" lon="6.6503066"><ele>1050.6666666666667</ele><time>2026-05-01T16:30:05.867Z</time></trkpt><trkpt lat="43.7908109" lon="6.6502003"><ele>1048.3333333333335</ele><time>2026-05-01T16:30:06.867Z</time></trkpt><trkpt lat="43.7906755" lon="6.6501019"><ele>1046.0</ele><time>2026-05-01T16:30:07.867Z</time></trkpt><trkpt lat="43.7904952" lon="6.6499891"><ele>1046.0</ele><time>2026-05-01T16:30:08.867Z</time></trkpt><trkpt lat="43.7903723" lon="6.6498878"><ele>1046.0</ele><time>2026-05-01T16:30:09.868Z</time></trkpt><trkpt lat="43.7902235" lon="6.6497524"><ele>1046.0</ele><time>2026-05-01T16:30:10.867Z</time></trkpt><trkpt lat="43.7900609" lon="6.6496353"><ele>1045.3333333333335</ele><time>2026-05-01T16:30:11.867Z</time></trkpt><trkpt lat="43.7899103" lon="6.6495275"><ele>1044.6666666666667</ele><time>2026-05-01T16:30:12.867Z</time></trkpt><trkpt lat="43.7897662" lon="6.6494212"><ele>1044.0</ele><time>2026-05-01T16:30:13.867Z</time></trkpt><trkpt lat="43.7895588" lon="6.6493194"><ele>1044.0</ele><time>2026-05-01T16:30:14.867Z</time></trkpt><trkpt lat="43.7893577" lon="6.6493751"><ele>1044.0</ele><time>2026-05-01T16:30:15.867Z</time></trkpt><trkpt lat="43.7891909" lon="6.6493919"><ele>1044.0</ele><time>2026-05-01T16:30:16.867Z</time></trkpt><trkpt lat="43.7890118" lon="6.6494308"><ele>1043.0</ele><time>2026-05-01T16:30:17.867Z</time></trkpt><trkpt lat="43.7888159" lon="6.6495029"><ele>1042.0</ele><time>2026-05-01T16:30:18.867Z</time></trkpt><trkpt lat="43.7885827" lon="6.6496025"><ele>1041.0</ele><time>2026-05-01T16:30:19.867Z</time></trkpt><trkpt lat="43.7883762" lon="6.6496845"><ele>1041.0</ele><time>2026-05-01T16:30:20.867Z</time></trkpt><trkpt lat="43.7881945" lon="6.6497662"><ele>1041.0</ele><time>2026-05-01T16:30:21.867Z</time></trkpt><trkpt lat="43.7879956" lon="6.6498697"><ele>1041.0</ele><time>2026-05-01T16:30:22.867Z</time></trkpt><trkpt lat="43.7878366" lon="6.6499532"><ele>1041.0</ele><time>2026-05-01T16:30:23.867Z</time></trkpt><trkpt lat="43.7876879" lon="6.6500421"><ele>1041.0</ele><time>2026-05-01T16:30:24.867Z</time></trkpt><trkpt lat="43.7875619" lon="6.6500808"><ele>1041.0</ele><time>2026-05-01T16:30:25.867Z</time></trkpt><trkpt lat="43.7874433" lon="6.6500508"><ele>1041.0</ele><time>2026-05-01T16:30:26.868Z</time></trkpt><trkpt lat="43.7872727" lon="6.6500705"><ele>1040.3333333333333</ele><time>2026-05-01T16:30:27.867Z</time></trkpt><trkpt lat="43.787099" lon="6.6500515"><ele>1039.6666666666665</ele><time>2026-05-01T16:30:28.867Z</time></trkpt><trkpt lat="43.7869483" lon="6.649998"><ele>1039.0</ele><time>2026-05-01T16:30:29.867Z</time></trkpt><trkpt lat="43.7867904" lon="6.6498977"><ele>1038.0</ele><time>2026-05-01T16:30:30.867Z</time></trkpt><trkpt lat="43.7865913" lon="6.6497661"><ele>1037.0</ele><time>2026-05-01T16:30:31.867Z</time></trkpt><trkpt lat="43.7864221" lon="6.6496373"><ele>1036.0</ele><time>2026-05-01T16:30:32.867Z</time></trkpt><trkpt lat="43.7862597" lon="6.6495081"><ele>1036.3333333333333</ele><time>2026-05-01T16:30:33.867Z</time></trkpt><trkpt lat="43.7860839" lon="6.6493928"><ele>1036.6666666666667</ele><time>2026-05-01T16:30:34.867Z</time></trkpt><trkpt lat="43.7859184" lon="6.6492943"><ele>1037.0</ele><time>2026-05-01T16:30:35.867Z</time></trkpt><trkpt lat="43.7857324" lon="6.6491682"><ele>1037.0</ele><time>2026-05-01T16:30:36.868Z</time></trkpt><trkpt lat="43.7855437" lon="6.6490105"><ele>1037.0</ele><time>2026-05-01T16:30:37.867Z</time></trkpt><trkpt lat="43.7853775" lon="6.6488633"><ele>1037.0</ele><time>2026-05-01T16:30:38.867Z</time></trkpt><trkpt lat="43.7852268" lon="6.6487162"><ele>1037.6666666666667</ele><time>2026-05-01T16:30:39.867Z</time></trkpt><trkpt lat="43.7850846" lon="6.6485387"><ele>1038.3333333333333</ele><time>2026-05-01T16:30:40.867Z</time></trkpt><trkpt lat="43.7849189" lon="6.648321"><ele>1039.0</ele><time>2026-05-01T16:30:41.867Z</time></trkpt><trkpt lat="43.7847467" lon="6.6481263"><ele>1039.0</ele><time>2026-05-01T16:30:42.867Z</time></trkpt><trkpt lat="43.7845693" lon="6.6478759"><ele>1039.0</ele><time>2026-05-01T16:30:43.867Z</time></trkpt><trkpt lat="43.7843831" lon="6.6476488"><ele>1039.5</ele><time>2026-05-01T16:30:44.867Z</time></trkpt><trkpt lat="43.7841964" lon="6.6473468"><ele>1040.0</ele><time>2026-05-01T16:30:45.867Z</time></trkpt><trkpt lat="43.7840512" lon="6.6471308"><ele>1041.3333333333335</ele><time>2026-05-01T16:30:46.867Z</time></trkpt><trkpt lat="43.7839236" lon="6.6468749"><ele>1042.6666666666667</ele><time>2026-05-01T16:30:47.867Z</time></trkpt><trkpt lat="43.7837872" lon="6.646642"><ele>1044.0</ele><time>2026-05-01T16:30:48.867Z</time></trkpt><trkpt lat="43.7836562" lon="6.6464062"><ele>1044.0</ele><time>2026-05-01T16:30:49.867Z</time></trkpt><trkpt lat="43.7835158" lon="6.6461415"><ele>1044.0</ele><time>2026-05-01T16:30:50.867Z</time></trkpt><trkpt lat="43.7833904" lon="6.645891"><ele>1040.5</ele><time>2026-05-01T16:30:51.867Z</time></trkpt><trkpt lat="43.7832293" lon="6.6456428"><ele>1037.0</ele><time>2026-05-01T16:30:52.868Z</time></trkpt><trkpt lat="43.7830872" lon="6.64537"><ele>1037.6666666666667</ele><time>2026-05-01T16:30:53.867Z</time></trkpt><trkpt lat="43.7829708" lon="6.6452027"><ele>1038.3333333333333</ele><time>2026-05-01T16:30:54.867Z</time></trkpt><trkpt lat="43.7828357" lon="6.6450248"><ele>1039.0</ele><time>2026-05-01T16:30:55.867Z</time></trkpt><trkpt lat="43.7826824" lon="6.644866"><ele>1038.3333333333333</ele><time>2026-05-01T16:30:56.867Z</time></trkpt><trkpt lat="43.7825606" lon="6.6447467"><ele>1037.6666666666667</ele><time>2026-05-01T16:30:57.868Z</time></trkpt><trkpt lat="43.7823964" lon="6.6445961"><ele>1037.0</ele><time>2026-05-01T16:30:58.867Z</time></trkpt><trkpt lat="43.7822356" lon="6.644447"><ele>1037.0</ele><time>2026-05-01T16:30:59.867Z</time></trkpt><trkpt lat="43.782078" lon="6.6443011"><ele>1037.0</ele><time>2026-05-01T16:31:00.867Z</time></trkpt><trkpt lat="43.781955" lon="6.6441692"><ele>1037.0</ele><time>2026-05-01T16:31:01.867Z</time></trkpt><trkpt lat="43.7818601" lon="6.6440657"><ele>1035.6666666666667</ele><time>2026-05-01T16:31:02.867Z</time></trkpt><trkpt lat="43.7817403" lon="6.643938"><ele>1034.3333333333333</ele><time>2026-05-01T16:31:03.867Z</time></trkpt><trkpt lat="43.7815967" lon="6.6437844"><ele>1033.0</ele><time>2026-05-01T16:31:04.867Z</time></trkpt><trkpt lat="43.7814558" lon="6.6436643"><ele>1032.75</ele><time>2026-05-01T16:31:05.867Z</time></trkpt><trkpt lat="43.7813519" lon="6.6435643"><ele>1032.5</ele><time>2026-05-01T16:31:06.867Z</time></trkpt><trkpt lat="43.7812302" lon="6.643436"><ele>1032.25</ele><time>2026-05-01T16:31:07.867Z</time></trkpt><trkpt lat="43.7811042" lon="6.6433853"><ele>1032.0</ele><time>2026-05-01T16:31:08.867Z</time></trkpt><trkpt lat="43.780991" lon="6.6432926"><ele>1032.0</ele><time>2026-05-01T16:31:09.867Z</time></trkpt><trkpt lat="43.7808791" lon="6.6432311"><ele>1032.0</ele><time>2026-05-01T16:31:10.867Z</time></trkpt><trkpt lat="43.7807081" lon="6.6431887"><ele>1032.0</ele><time>2026-05-01T16:31:11.867Z</time></trkpt><trkpt lat="43.7805147" lon="6.6431328"><ele>1032.0</ele><time>2026-05-01T16:31:12.867Z</time></trkpt><trkpt lat="43.7803504" lon="6.6430162"><ele>1032.0</ele><time>2026-05-01T16:31:13.867Z</time></trkpt><trkpt lat="43.7801953" lon="6.642886"><ele>1032.0</ele><time>2026-05-01T16:31:14.867Z</time></trkpt><trkpt lat="43.7800423" lon="6.6427672"><ele>1031.25</ele><time>2026-05-01T16:31:15.867Z</time></trkpt><trkpt lat="43.7799092" lon="6.6426426"><ele>1030.5</ele><time>2026-05-01T16:31:16.868Z</time></trkpt><trkpt lat="43.7797871" lon="6.6425162"><ele>1029.75</ele><time>2026-05-01T16:31:17.867Z</time></trkpt><trkpt lat="43.7796804" lon="6.6424389"><ele>1029.0</ele><time>2026-05-01T16:31:18.867Z</time></trkpt><trkpt lat="43.7795653" lon="6.6423552"><ele>1029.0</ele><time>2026-05-01T16:31:19.867Z</time></trkpt><trkpt lat="43.7794436" lon="6.642288"><ele>1029.0</ele><time>2026-05-01T16:31:20.867Z</time></trkpt><trkpt lat="43.7794204" lon="6.6422044"><ele>1029.0</ele><time>2026-05-01T16:31:22.867Z</time></trkpt><trkpt lat="43.7794327" lon="6.6420737"><ele>1029.0</ele><time>2026-05-01T16:31:24.867Z</time></trkpt><trkpt lat="43.7794792" lon="6.6419794"><ele>1029.0</ele><time>2026-05-01T16:31:25.867Z</time></trkpt><trkpt lat="43.7795975" lon="6.6418779"><ele>1029.3333333333333</ele><time>2026-05-01T16:31:26.867Z</time></trkpt><trkpt lat="43.779708" lon="6.6417206"><ele>1029.6666666666665</ele><time>2026-05-01T16:31:27.867Z</time></trkpt><trkpt lat="43.7798477" lon="6.6415639"><ele>1030.0</ele><time>2026-05-01T16:31:28.867Z</time></trkpt><trkpt lat="43.7799713" lon="6.6414005"><ele>1030.0</ele><time>2026-05-01T16:31:29.867Z</time></trkpt><trkpt lat="43.7800901" lon="6.6412345"><ele>1030.0</ele><time>2026-05-01T16:31:30.867Z</time></trkpt><trkpt lat="43.7802328" lon="6.6410564"><ele>1030.0</ele><time>2026-05-01T16:31:31.867Z</time></trkpt><trkpt lat="43.7803612" lon="6.6408965"><ele>1030.6666666666665</ele><time>2026-05-01T16:31:32.867Z</time></trkpt><trkpt lat="43.7804874" lon="6.6406798"><ele>1031.3333333333333</ele><time>2026-05-01T16:31:33.867Z</time></trkpt><trkpt lat="43.7806151" lon="6.6404987"><ele>1032.0</ele><time>2026-05-01T16:31:34.867Z</time></trkpt><trkpt lat="43.7807528" lon="6.6403208"><ele>1032.6666666666667</ele><time>2026-05-01T16:31:35.867Z</time></trkpt><trkpt lat="43.7808983" lon="6.6401521"><ele>1033.3333333333335</ele><time>2026-05-01T16:31:36.867Z</time></trkpt><trkpt lat="43.7810311" lon="6.639961"><ele>1034.0</ele><time>2026-05-01T16:31:37.867Z</time></trkpt><trkpt lat="43.7811708" lon="6.639781"><ele>1034.6666666666667</ele><time>2026-05-01T16:31:38.867Z</time></trkpt><trkpt lat="43.7813219" lon="6.6395813"><ele>1035.3333333333333</ele><time>2026-05-01T16:31:39.867Z</time></trkpt><trkpt lat="43.7814721" lon="6.6393759"><ele>1036.0</ele><time>2026-05-01T16:31:40.867Z</time></trkpt><trkpt lat="43.7816281" lon="6.6391849"><ele>1036.6666666666665</ele><time>2026-05-01T16:31:41.867Z</time></trkpt><trkpt lat="43.7817486" lon="6.6390039"><ele>1037.3333333333333</ele><time>2026-05-01T16:31:42.867Z</time></trkpt><trkpt lat="43.7818514" lon="6.6388136"><ele>1038.0</ele><time>2026-05-01T16:31:43.867Z</time></trkpt><trkpt lat="43.7819586" lon="6.6385326"><ele>1039.0</ele><time>2026-05-01T16:31:44.867Z</time></trkpt><trkpt lat="43.7820716" lon="6.6382705"><ele>1040.0</ele><time>2026-05-01T16:31:45.867Z</time></trkpt><trkpt lat="43.7821748" lon="6.6380189"><ele>1041.0</ele><time>2026-05-01T16:31:46.867Z</time></trkpt><trkpt lat="43.7822746" lon="6.6378042"><ele>1041.0</ele><time>2026-05-01T16:31:47.867Z</time></trkpt><trkpt lat="43.7823427" lon="6.6376544"><ele>1041.0</ele><time>2026-05-01T16:31:48.868Z</time></trkpt><trkpt lat="43.7824764" lon="6.6375215"><ele>1041.0</ele><time>2026-05-01T16:31:49.867Z</time></trkpt><trkpt lat="43.7826382" lon="6.637366"><ele>1043.3333333333333</ele><time>2026-05-01T16:31:50.867Z</time></trkpt><trkpt lat="43.7827986" lon="6.6372444"><ele>1045.6666666666665</ele><time>2026-05-01T16:31:51.867Z</time></trkpt><trkpt lat="43.7829262" lon="6.6371276"><ele>1048.0</ele><time>2026-05-01T16:31:52.867Z</time></trkpt><trkpt lat="43.7830842" lon="6.6370274"><ele>1049.0</ele><time>2026-05-01T16:31:53.867Z</time></trkpt><trkpt lat="43.7832837" lon="6.6369256"><ele>1050.0</ele><time>2026-05-01T16:31:54.867Z</time></trkpt><trkpt lat="43.7834774" lon="6.6368085"><ele>1051.0</ele><time>2026-05-01T16:31:55.867Z</time></trkpt><trkpt lat="43.7836727" lon="6.6366708"><ele>1051.0</ele><time>2026-05-01T16:31:56.867Z</time></trkpt><trkpt lat="43.7839015" lon="6.6365368"><ele>1051.0</ele><time>2026-05-01T16:31:57.867Z</time></trkpt><trkpt lat="43.7841287" lon="6.6364539"><ele>1051.0</ele><time>2026-05-01T16:31:58.867Z</time></trkpt><trkpt lat="43.7843339" lon="6.6363325"><ele>1051.0</ele><time>2026-05-01T16:31:59.867Z</time></trkpt><trkpt lat="43.7845047" lon="6.6362282"><ele>1051.0</ele><time>2026-05-01T16:32:00.867Z</time></trkpt><trkpt lat="43.7846941" lon="6.6361203"><ele>1051.3333333333333</ele><time>2026-05-01T16:32:01.867Z</time></trkpt><trkpt lat="43.7848898" lon="6.6359932"><ele>1051.6666666666667</ele><time>2026-05-01T16:32:02.87Z</time></trkpt><trkpt lat="43.7850594" lon="6.6359179"><ele>1052.0</ele><time>2026-05-01T16:32:03.871Z</time></trkpt><trkpt lat="43.7852534" lon="6.6357851"><ele>1052.5</ele><time>2026-05-01T16:32:04.869Z</time></trkpt><trkpt lat="43.7854732" lon="6.635691"><ele>1053.0</ele><time>2026-05-01T16:32:05.867Z</time></trkpt><trkpt lat="43.7856967" lon="6.6356048"><ele>1053.0</ele><time>2026-05-01T16:32:06.869Z</time></trkpt><trkpt lat="43.7859007" lon="6.6355401"><ele>1053.0</ele><time>2026-05-01T16:32:07.871Z</time></trkpt><trkpt lat="43.7860882" lon="6.6355189"><ele>1053.0</ele><time>2026-05-01T16:32:08.871Z</time></trkpt><trkpt lat="43.7862526" lon="6.6355415"><ele>1053.0</ele><time>2026-05-01T16:32:09.871Z</time></trkpt><trkpt lat="43.7864243" lon="6.6355719"><ele>1053.0</ele><time>2026-05-01T16:32:10.871Z</time></trkpt><trkpt lat="43.7866045" lon="6.635616"><ele>1053.0</ele><time>2026-05-01T16:32:11.871Z</time></trkpt><trkpt lat="43.7867723" lon="6.635723"><ele>1054.6666666666667</ele><time>2026-05-01T16:32:12.871Z</time></trkpt><trkpt lat="43.7869739" lon="6.6358386"><ele>1056.3333333333335</ele><time>2026-05-01T16:32:13.871Z</time></trkpt><trkpt lat="43.7871527" lon="6.635957"><ele>1058.0</ele><time>2026-05-01T16:32:14.871Z</time></trkpt><trkpt lat="43.7873251" lon="6.6360643"><ele>1057.0</ele><time>2026-05-01T16:32:15.871Z</time></trkpt><trkpt lat="43.7875099" lon="6.6361613"><ele>1056.0</ele><time>2026-05-01T16:32:16.872Z</time></trkpt><trkpt lat="43.7877009" lon="6.6362284"><ele>1055.0</ele><time>2026-05-01T16:32:17.871Z</time></trkpt><trkpt lat="43.7878378" lon="6.6362751"><ele>1054.6666666666667</ele><time>2026-05-01T16:32:18.871Z</time></trkpt><trkpt lat="43.7879995" lon="6.6362693"><ele>1054.3333333333333</ele><time>2026-05-01T16:32:19.871Z</time></trkpt><trkpt lat="43.788196" lon="6.636197"><ele>1054.0</ele><time>2026-05-01T16:32:20.871Z</time></trkpt><trkpt lat="43.7883513" lon="6.6361095"><ele>1055.3333333333333</ele><time>2026-05-01T16:32:21.871Z</time></trkpt><trkpt lat="43.7884714" lon="6.6359641"><ele>1056.6666666666667</ele><time>2026-05-01T16:32:22.871Z</time></trkpt><trkpt lat="43.7885645" lon="6.6358061"><ele>1058.0</ele><time>2026-05-01T16:32:23.871Z</time></trkpt><trkpt lat="43.7886888" lon="6.6356604"><ele>1058.0</ele><time>2026-05-01T16:32:24.871Z</time></trkpt><trkpt lat="43.7888001" lon="6.635544"><ele>1058.0</ele><time>2026-05-01T16:32:25.871Z</time></trkpt><trkpt lat="43.7888852" lon="6.6354426"><ele>1058.0</ele><time>2026-05-01T16:32:26.871Z</time></trkpt><trkpt lat="43.7889578" lon="6.635344"><ele>1058.0</ele><time>2026-05-01T16:32:27.871Z</time></trkpt><trkpt lat="43.7890897" lon="6.6352908"><ele>1058.75</ele><time>2026-05-01T16:32:28.871Z</time></trkpt><trkpt lat="43.7891816" lon="6.6352683"><ele>1059.5</ele><time>2026-05-01T16:32:29.871Z</time></trkpt><trkpt lat="43.7893328" lon="6.6352758"><ele>1060.25</ele><time>2026-05-01T16:32:30.871Z</time></trkpt><trkpt lat="43.7894355" lon="6.6353142"><ele>1061.0</ele><time>2026-05-01T16:32:31.872Z</time></trkpt><trkpt lat="43.7895924" lon="6.6353513"><ele>1061.0</ele><time>2026-05-01T16:32:32.871Z</time></trkpt><trkpt lat="43.7897617" lon="6.6354101"><ele>1061.0</ele><time>2026-05-01T16:32:33.871Z</time></trkpt><trkpt lat="43.7899942" lon="6.6355151"><ele>1061.0</ele><time>2026-05-01T16:32:34.871Z</time></trkpt><trkpt lat="43.7901894" lon="6.635583"><ele>1063.0</ele><time>2026-05-01T16:32:35.871Z</time></trkpt><trkpt lat="43.7903911" lon="6.6356338"><ele>1065.0</ele><time>2026-05-01T16:32:36.871Z</time></trkpt><trkpt lat="43.7906068" lon="6.6357035"><ele>1067.0</ele><time>2026-05-01T16:32:37.871Z</time></trkpt><trkpt lat="43.7907932" lon="6.6357837"><ele>1067.0</ele><time>2026-05-01T16:32:38.871Z</time></trkpt><trkpt lat="43.7909648" lon="6.6358608"><ele>1067.0</ele><time>2026-05-01T16:32:39.871Z</time></trkpt><trkpt lat="43.7911407" lon="6.6359236"><ele>1067.0</ele><time>2026-05-01T16:32:40.872Z</time></trkpt><trkpt lat="43.7913445" lon="6.635974"><ele>1068.0</ele><time>2026-05-01T16:32:41.871Z</time></trkpt><trkpt lat="43.7915202" lon="6.635981"><ele>1069.0</ele><time>2026-05-01T16:32:42.871Z</time></trkpt><trkpt lat="43.7917213" lon="6.6359128"><ele>1070.0</ele><time>2026-05-01T16:32:43.872Z</time></trkpt><trkpt lat="43.7919016" lon="6.6358406"><ele>1070.0</ele><time>2026-05-01T16:32:44.872Z</time></trkpt><trkpt lat="43.7920825" lon="6.6357633"><ele>1070.0</ele><time>2026-05-01T16:32:45.871Z</time></trkpt><trkpt lat="43.7922583" lon="6.635677"><ele>1070.0</ele><time>2026-05-01T16:32:46.871Z</time></trkpt><trkpt lat="43.7925227" lon="6.6355368"><ele>1075.0</ele><time>2026-05-01T16:32:47.871Z</time></trkpt><trkpt lat="43.7927394" lon="6.6354319"><ele>1080.0</ele><time>2026-05-01T16:32:48.871Z</time></trkpt><trkpt lat="43.7929562" lon="6.6353382"><ele>1078.3333333333333</ele><time>2026-05-01T16:32:49.871Z</time></trkpt><trkpt lat="43.7931963" lon="6.6352394"><ele>1076.6666666666665</ele><time>2026-05-01T16:32:50.871Z</time></trkpt><trkpt lat="43.7933759" lon="6.6351698"><ele>1075.0</ele><time>2026-05-01T16:32:51.871Z</time></trkpt><trkpt lat="43.7936213" lon="6.6350616"><ele>1075.0</ele><time>2026-05-01T16:32:52.871Z</time></trkpt><trkpt lat="43.7938271" lon="6.6349658"><ele>1075.0</ele><time>2026-05-01T16:32:53.871Z</time></trkpt><trkpt lat="43.7940263" lon="6.6348783"><ele>1075.0</ele><time>2026-05-01T16:32:54.871Z</time></trkpt><trkpt lat="43.7942274" lon="6.63478"><ele>1077.6666666666665</ele><time>2026-05-01T16:32:55.871Z</time></trkpt><trkpt lat="43.7944" lon="6.6347006"><ele>1080.3333333333333</ele><time>2026-05-01T16:32:56.871Z</time></trkpt><trkpt lat="43.7946171" lon="6.6345723"><ele>1083.0</ele><time>2026-05-01T16:32:57.871Z</time></trkpt><trkpt lat="43.7947995" lon="6.6344334"><ele>1083.0</ele><time>2026-05-01T16:32:58.871Z</time></trkpt><trkpt lat="43.7949259" lon="6.6342842"><ele>1083.0</ele><time>2026-05-01T16:32:59.871Z</time></trkpt><trkpt lat="43.795052" lon="6.6340902"><ele>1083.0</ele><time>2026-05-01T16:33:00.871Z</time></trkpt><trkpt lat="43.7951875" lon="6.633927"><ele>1083.3333333333333</ele><time>2026-05-01T16:33:01.871Z</time></trkpt><trkpt lat="43.7953273" lon="6.633735"><ele>1083.6666666666665</ele><time>2026-05-01T16:33:02.871Z</time></trkpt><trkpt lat="43.7954525" lon="6.6335616"><ele>1084.0</ele><time>2026-05-01T16:33:03.871Z</time></trkpt><trkpt lat="43.7955515" lon="6.6333748"><ele>1084.0</ele><time>2026-05-01T16:33:04.871Z</time></trkpt><trkpt lat="43.7957111" lon="6.6331887"><ele>1084.0</ele><time>2026-05-01T16:33:05.871Z</time></trkpt><trkpt lat="43.7958688" lon="6.6329296"><ele>1082.0</ele><time>2026-05-01T16:33:06.871Z</time></trkpt><trkpt lat="43.7960207" lon="6.6326951"><ele>1080.0</ele><time>2026-05-01T16:33:07.871Z</time></trkpt><trkpt lat="43.7962003" lon="6.6325052"><ele>1080.0</ele><time>2026-05-01T16:33:08.871Z</time></trkpt><trkpt lat="43.796343" lon="6.6322945"><ele>1080.0</ele><time>2026-05-01T16:33:09.871Z</time></trkpt><trkpt lat="43.7964851" lon="6.6321093"><ele>1080.0</ele><time>2026-05-01T16:33:10.871Z</time></trkpt><trkpt lat="43.796625" lon="6.6319307"><ele>1080.3333333333333</ele><time>2026-05-01T16:33:11.871Z</time></trkpt><trkpt lat="43.7967627" lon="6.6317818"><ele>1080.6666666666665</ele><time>2026-05-01T16:33:12.871Z</time></trkpt><trkpt lat="43.7969152" lon="6.631592"><ele>1081.0</ele><time>2026-05-01T16:33:13.871Z</time></trkpt><trkpt lat="43.7970476" lon="6.6313884"><ele>1082.3333333333333</ele><time>2026-05-01T16:33:14.871Z</time></trkpt><trkpt lat="43.7971691" lon="6.6310941"><ele>1083.6666666666667</ele><time>2026-05-01T16:33:15.871Z</time></trkpt><trkpt lat="43.7972212" lon="6.6308363"><ele>1085.0</ele><time>2026-05-01T16:33:16.871Z</time></trkpt><trkpt lat="43.7973172" lon="6.6305399"><ele>1086.0</ele><time>2026-05-01T16:33:17.871Z</time></trkpt><trkpt lat="43.7973601" lon="6.6302658"><ele>1087.0</ele><time>2026-05-01T16:33:18.871Z</time></trkpt><trkpt lat="43.7973791" lon="6.6299816"><ele>1088.0</ele><time>2026-05-01T16:33:19.872Z</time></trkpt><trkpt lat="43.7973922" lon="6.6296546"><ele>1088.0</ele><time>2026-05-01T16:33:20.871Z</time></trkpt><trkpt lat="43.7973836" lon="6.6293526"><ele>1088.0</ele><time>2026-05-01T16:33:21.871Z</time></trkpt><trkpt lat="43.7973785" lon="6.6290318"><ele>1088.0</ele><time>2026-05-01T16:33:22.871Z</time></trkpt><trkpt lat="43.7973956" lon="6.6287026"><ele>1088.0</ele><time>2026-05-01T16:33:23.872Z</time></trkpt><trkpt lat="43.7973992" lon="6.6283462"><ele>1087.5</ele><time>2026-05-01T16:33:24.871Z</time></trkpt><trkpt lat="43.7974029" lon="6.6279986"><ele>1087.0</ele><time>2026-05-01T16:33:25.871Z</time></trkpt><trkpt lat="43.7974043" lon="6.6276818"><ele>1091.0</ele><time>2026-05-01T16:33:26.871Z</time></trkpt><trkpt lat="43.7973786" lon="6.6273663"><ele>1095.0</ele><time>2026-05-01T16:33:27.871Z</time></trkpt><trkpt lat="43.7973786" lon="6.6270463"><ele>1096.5</ele><time>2026-05-01T16:33:28.871Z</time></trkpt><trkpt lat="43.7973981" lon="6.626732"><ele>1098.0</ele><time>2026-05-01T16:33:29.871Z</time></trkpt><trkpt lat="43.7973952" lon="6.6263988"><ele>1100.0</ele><time>2026-05-01T16:33:30.871Z</time></trkpt><trkpt lat="43.7973715" lon="6.6260854"><ele>1102.0</ele><time>2026-05-01T16:33:31.871Z</time></trkpt><trkpt lat="43.797364" lon="6.6257649"><ele>1102.0</ele><time>2026-05-01T16:33:32.871Z</time></trkpt><trkpt lat="43.7973489" lon="6.6254696"><ele>1102.0</ele><time>2026-05-01T16:33:33.871Z</time></trkpt><trkpt lat="43.7973359" lon="6.6251924"><ele>1102.0</ele><time>2026-05-01T16:33:34.871Z</time></trkpt><trkpt lat="43.79734" lon="6.6248824"><ele>1102.0</ele><time>2026-05-01T16:33:35.871Z</time></trkpt><trkpt lat="43.7973407" lon="6.6246312"><ele>1102.0</ele><time>2026-05-01T16:33:36.871Z</time></trkpt><trkpt lat="43.7973181" lon="6.6243588"><ele>1102.0</ele><time>2026-05-01T16:33:37.871Z</time></trkpt><trkpt lat="43.7973409" lon="6.6242303"><ele>1101.0</ele><time>2026-05-01T16:33:38.871Z</time></trkpt><trkpt lat="43.7973892" lon="6.62401"><ele>1100.0</ele><time>2026-05-01T16:33:39.871Z</time></trkpt><trkpt lat="43.7974467" lon="6.6238798"><ele>1099.0</ele><time>2026-05-01T16:33:40.871Z</time></trkpt><trkpt lat="43.7975135" lon="6.6237999"><ele>1098.0</ele><time>2026-05-01T16:33:41.871Z</time></trkpt><trkpt lat="43.7977099" lon="6.6236784"><ele>1099.3333333333333</ele><time>2026-05-01T16:33:42.871Z</time></trkpt><trkpt lat="43.797837" lon="6.6235642"><ele>1100.6666666666665</ele><time>2026-05-01T16:33:43.871Z</time></trkpt><trkpt lat="43.798006" lon="6.6234252"><ele>1102.0</ele><time>2026-05-01T16:33:44.871Z</time></trkpt><trkpt lat="43.7981528" lon="6.6232879"><ele>1102.0</ele><time>2026-05-01T16:33:45.871Z</time></trkpt><trkpt lat="43.7983283" lon="6.6231527"><ele>1102.0</ele><time>2026-05-01T16:33:46.871Z</time></trkpt><trkpt lat="43.7984396" lon="6.6231019"><ele>1102.0</ele><time>2026-05-01T16:33:47.871Z</time></trkpt><trkpt lat="43.798566" lon="6.6229948"><ele>1104.75</ele><time>2026-05-01T16:33:48.871Z</time></trkpt><trkpt lat="43.798698" lon="6.6229404"><ele>1107.5</ele><time>2026-05-01T16:33:49.871Z</time></trkpt><trkpt lat="43.7988185" lon="6.6229325"><ele>1110.25</ele><time>2026-05-01T16:33:50.871Z</time></trkpt><trkpt lat="43.7989222" lon="6.6229756"><ele>1113.0</ele><time>2026-05-01T16:33:51.871Z</time></trkpt><trkpt lat="43.7990354" lon="6.6230656"><ele>1113.0</ele><time>2026-05-01T16:33:52.871Z</time></trkpt><trkpt lat="43.7991378" lon="6.6231698"><ele>1113.0</ele><time>2026-05-01T16:33:53.872Z</time></trkpt><trkpt lat="43.7992834" lon="6.6232518"><ele>1113.0</ele><time>2026-05-01T16:33:54.871Z</time></trkpt><trkpt lat="43.7994497" lon="6.6233912"><ele>1112.6666666666667</ele><time>2026-05-01T16:33:55.871Z</time></trkpt><trkpt lat="43.7996031" lon="6.6234693"><ele>1112.3333333333335</ele><time>2026-05-01T16:33:56.871Z</time></trkpt><trkpt lat="43.7997936" lon="6.6234865"><ele>1112.0</ele><time>2026-05-01T16:33:57.871Z</time></trkpt><trkpt lat="43.7999655" lon="6.6234317"><ele>1112.0</ele><time>2026-05-01T16:33:58.871Z</time></trkpt><trkpt lat="43.8001395" lon="6.6233438"><ele>1112.0</ele><time>2026-05-01T16:33:59.872Z</time></trkpt><trkpt lat="43.8002627" lon="6.6232846"><ele>1112.0</ele><time>2026-05-01T16:34:00.871Z</time></trkpt><trkpt lat="43.8003986" lon="6.6231443"><ele>1113.0</ele><time>2026-05-01T16:34:01.871Z</time></trkpt><trkpt lat="43.8005112" lon="6.6230671"><ele>1114.0</ele><time>2026-05-01T16:34:02.871Z</time></trkpt><trkpt lat="43.80061" lon="6.6230306"><ele>1115.0</ele><time>2026-05-01T16:34:03.871Z</time></trkpt><trkpt lat="43.8007099" lon="6.6230761"><ele>1116.0</ele><time>2026-05-01T16:34:04.871Z</time></trkpt><trkpt lat="43.8008171" lon="6.6231383"><ele>1117.0</ele><time>2026-05-01T16:34:05.871Z</time></trkpt><trkpt lat="43.8009448" lon="6.6231997"><ele>1120.6666666666665</ele><time>2026-05-01T16:34:06.871Z</time></trkpt><trkpt lat="43.8011131" lon="6.623221"><ele>1124.3333333333333</ele><time>2026-05-01T16:34:07.871Z</time></trkpt><trkpt lat="43.8012481" lon="6.6231832"><ele>1128.0</ele><time>2026-05-01T16:34:08.871Z</time></trkpt><trkpt lat="43.8013846" lon="6.6231149"><ele>1128.0</ele><time>2026-05-01T16:34:09.871Z</time></trkpt><trkpt lat="43.801551" lon="6.622998"><ele>1128.0</ele><time>2026-05-01T16:34:10.871Z</time></trkpt><trkpt lat="43.8016934" lon="6.6228252"><ele>1128.0</ele><time>2026-05-01T16:34:11.871Z</time></trkpt><trkpt lat="43.8017899" lon="6.6226417"><ele>1132.3333333333333</ele><time>2026-05-01T16:34:12.872Z</time></trkpt><trkpt lat="43.8018523" lon="6.6224282"><ele>1136.6666666666665</ele><time>2026-05-01T16:34:13.871Z</time></trkpt><trkpt lat="43.8018685" lon="6.6221697"><ele>1141.0</ele><time>2026-05-01T16:34:14.871Z</time></trkpt><trkpt lat="43.8018428" lon="6.6218633"><ele>1133.0</ele><time>2026-05-01T16:34:15.871Z</time></trkpt><trkpt lat="43.8018101" lon="6.6216601"><ele>1125.0</ele><time>2026-05-01T16:34:16.871Z</time></trkpt><trkpt lat="43.8017233" lon="6.6213914"><ele>1117.0</ele><time>2026-05-01T16:34:17.871Z</time></trkpt><trkpt lat="43.8016259" lon="6.6212265"><ele>1121.6666666666665</ele><time>2026-05-01T16:34:18.871Z</time></trkpt><trkpt lat="43.8014853" lon="6.6210402"><ele>1126.3333333333333</ele><time>2026-05-01T16:34:19.871Z</time></trkpt><trkpt lat="43.8013392" lon="6.6208098"><ele>1131.0</ele><time>2026-05-01T16:34:20.871Z</time></trkpt><trkpt lat="43.8012478" lon="6.6206202"><ele>1131.0</ele><time>2026-05-01T16:34:21.871Z</time></trkpt><trkpt lat="43.8011234" lon="6.6204977"><ele>1131.0</ele><time>2026-05-01T16:34:22.871Z</time></trkpt><trkpt lat="43.8010388" lon="6.6203776"><ele>1131.0</ele><time>2026-05-01T16:34:23.871Z</time></trkpt><trkpt lat="43.8009288" lon="6.6201332"><ele>1130.75</ele><time>2026-05-01T16:34:24.871Z</time></trkpt><trkpt lat="43.8009308" lon="6.6199702"><ele>1130.5</ele><time>2026-05-01T16:34:25.871Z</time></trkpt><trkpt lat="43.8009866" lon="6.6197941"><ele>1130.25</ele><time>2026-05-01T16:34:26.871Z</time></trkpt><trkpt lat="43.8010734" lon="6.6195587"><ele>1130.0</ele><time>2026-05-01T16:34:27.871Z</time></trkpt><trkpt lat="43.801157" lon="6.6193617"><ele>1123.0</ele><time>2026-05-01T16:34:28.871Z</time></trkpt><trkpt lat="43.8012347" lon="6.6191717"><ele>1116.0</ele><time>2026-05-01T16:34:29.871Z</time></trkpt><trkpt lat="43.8013325" lon="6.6189942"><ele>1109.0</ele><time>2026-05-01T16:34:30.871Z</time></trkpt><trkpt lat="43.801434" lon="6.6188741"><ele>1109.0</ele><time>2026-05-01T16:34:31.871Z</time></trkpt><trkpt lat="43.8015369" lon="6.6188339"><ele>1109.0</ele><time>2026-05-01T16:34:32.872Z</time></trkpt><trkpt lat="43.801622" lon="6.6188909"><ele>1109.0</ele><time>2026-05-01T16:34:33.871Z</time></trkpt><trkpt lat="43.8018296" lon="6.6189986"><ele>1109.0</ele><time>2026-05-01T16:34:35.871Z</time></trkpt><trkpt lat="43.801962" lon="6.6190608"><ele>1110.25</ele><time>2026-05-01T16:34:36.871Z</time></trkpt><trkpt lat="43.80211" lon="6.6191302"><ele>1111.5</ele><time>2026-05-01T16:34:37.871Z</time></trkpt><trkpt lat="43.8022094" lon="6.6191158"><ele>1112.75</ele><time>2026-05-01T16:34:38.871Z</time></trkpt><trkpt lat="43.8023691" lon="6.6191019"><ele>1114.0</ele><time>2026-05-01T16:34:39.871Z</time></trkpt><trkpt lat="43.8024601" lon="6.6190478"><ele>1114.0</ele><time>2026-05-01T16:34:40.871Z</time></trkpt><trkpt lat="43.8025073" lon="6.6189111"><ele>1114.0</ele><time>2026-05-01T16:34:41.871Z</time></trkpt><trkpt lat="43.8025938" lon="6.6187786"><ele>1114.0</ele><time>2026-05-01T16:34:42.871Z</time></trkpt><trkpt lat="43.8027204" lon="6.6186548"><ele>1114.0</ele><time>2026-05-01T16:34:43.872Z</time></trkpt><trkpt lat="43.8027932" lon="6.6184787"><ele>1119.6666666666665</ele><time>2026-05-01T16:34:44.871Z</time></trkpt><trkpt lat="43.8028511" lon="6.6182857"><ele>1125.3333333333333</ele><time>2026-05-01T16:34:45.872Z</time></trkpt><trkpt lat="43.8029352" lon="6.6180553"><ele>1131.0</ele><time>2026-05-01T16:34:46.871Z</time></trkpt><trkpt lat="43.8029107" lon="6.6178536"><ele>1130.3333333333333</ele><time>2026-05-01T16:34:47.871Z</time></trkpt><trkpt lat="43.8028509" lon="6.6176194"><ele>1129.6666666666665</ele><time>2026-05-01T16:34:48.871Z</time></trkpt><trkpt lat="43.802823" lon="6.6174479"><ele>1129.0</ele><time>2026-05-01T16:34:49.871Z</time></trkpt><trkpt lat="43.8027729" lon="6.617243"><ele>1119.0</ele><time>2026-05-01T16:34:50.871Z</time></trkpt><trkpt lat="43.802643" lon="6.6169758"><ele>1109.0</ele><time>2026-05-01T16:34:51.871Z</time></trkpt><trkpt lat="43.8024187" lon="6.6166278"><ele>1109.0</ele><time>2026-05-01T16:34:52.871Z</time></trkpt><trkpt lat="43.8023601" lon="6.6163431"><ele>1109.0</ele><time>2026-05-01T16:34:53.871Z</time></trkpt><trkpt lat="43.8023738" lon="6.6160988"><ele>1109.0</ele><time>2026-05-01T16:34:54.871Z</time></trkpt><trkpt lat="43.80242" lon="6.6158309"><ele>1108.0</ele><time>2026-05-01T16:34:55.871Z</time></trkpt><trkpt lat="43.8024898" lon="6.6155218"><ele>1107.0</ele><time>2026-05-01T16:34:56.871Z</time></trkpt><trkpt lat="43.8025274" lon="6.6152572"><ele>1106.0</ele><time>2026-05-01T16:34:57.871Z</time></trkpt><trkpt lat="43.8026728" lon="6.6150571"><ele>1106.6666666666667</ele><time>2026-05-01T16:34:58.871Z</time></trkpt><trkpt lat="43.8027702" lon="6.6147913"><ele>1107.3333333333333</ele><time>2026-05-01T16:34:59.871Z</time></trkpt><trkpt lat="43.8028484" lon="6.6145515"><ele>1108.0</ele><time>2026-05-01T16:35:00.871Z</time></trkpt><trkpt lat="43.8029363" lon="6.6143292"><ele>1108.0</ele><time>2026-05-01T16:35:01.871Z</time></trkpt><trkpt lat="43.803026" lon="6.6141207"><ele>1108.0</ele><time>2026-05-01T16:35:02.871Z</time></trkpt><trkpt lat="43.8030604" lon="6.6139237"><ele>1108.0</ele><time>2026-05-01T16:35:03.871Z</time></trkpt><trkpt lat="43.80314" lon="6.6136918"><ele>1105.25</ele><time>2026-05-01T16:35:04.871Z</time></trkpt><trkpt lat="43.8032377" lon="6.6135289"><ele>1102.5</ele><time>2026-05-01T16:35:05.871Z</time></trkpt><trkpt lat="43.8033219" lon="6.6133511"><ele>1099.75</ele><time>2026-05-01T16:35:06.871Z</time></trkpt><trkpt lat="43.8033656" lon="6.6131636"><ele>1097.0</ele><time>2026-05-01T16:35:07.871Z</time></trkpt><trkpt lat="43.8033681" lon="6.6129809"><ele>1094.3333333333335</ele><time>2026-05-01T16:35:08.871Z</time></trkpt><trkpt lat="43.8033397" lon="6.6127691"><ele>1091.6666666666667</ele><time>2026-05-01T16:35:09.871Z</time></trkpt><trkpt lat="43.8033236" lon="6.6125733"><ele>1089.0</ele><time>2026-05-01T16:35:10.871Z</time></trkpt><trkpt lat="43.8033054" lon="6.6123303"><ele>1089.0</ele><time>2026-05-01T16:35:11.871Z</time></trkpt><trkpt lat="43.803261" lon="6.6120853"><ele>1089.0</ele><time>2026-05-01T16:35:12.871Z</time></trkpt><trkpt lat="43.8032422" lon="6.6118209"><ele>1089.0</ele><time>2026-05-01T16:35:13.871Z</time></trkpt><trkpt lat="43.8032638" lon="6.6115439"><ele>1088.3333333333333</ele><time>2026-05-01T16:35:14.871Z</time></trkpt><trkpt lat="43.8032904" lon="6.611309"><ele>1087.6666666666665</ele><time>2026-05-01T16:35:15.871Z</time></trkpt><trkpt lat="43.8033337" lon="6.6110729"><ele>1087.0</ele><time>2026-05-01T16:35:16.871Z</time></trkpt><trkpt lat="43.8033544" lon="6.6108365"><ele>1086.6666666666665</ele><time>2026-05-01T16:35:17.871Z</time></trkpt><trkpt lat="43.8033647" lon="6.6105906"><ele>1086.3333333333333</ele><time>2026-05-01T16:35:18.871Z</time></trkpt><trkpt lat="43.8033464" lon="6.6103915"><ele>1086.0</ele><time>2026-05-01T16:35:19.871Z</time></trkpt><trkpt lat="43.803292" lon="6.6101437"><ele>1086.0</ele><time>2026-05-01T16:35:20.871Z</time></trkpt><trkpt lat="43.8032395" lon="6.6099288"><ele>1086.0</ele><time>2026-05-01T16:35:21.872Z</time></trkpt><trkpt lat="43.8031294" lon="6.6096584"><ele>1086.0</ele><time>2026-05-01T16:35:22.871Z</time></trkpt><trkpt lat="43.8030379" lon="6.6094268"><ele>1088.3333333333333</ele><time>2026-05-01T16:35:23.871Z</time></trkpt><trkpt lat="43.8029304" lon="6.6091855"><ele>1090.6666666666665</ele><time>2026-05-01T16:35:24.871Z</time></trkpt><trkpt lat="43.8028675" lon="6.6089839"><ele>1093.0</ele><time>2026-05-01T16:35:25.871Z</time></trkpt><trkpt lat="43.8027866" lon="6.6087622"><ele>1093.3333333333333</ele><time>2026-05-01T16:35:26.871Z</time></trkpt><trkpt lat="43.8026962" lon="6.6085692"><ele>1093.6666666666667</ele><time>2026-05-01T16:35:27.871Z</time></trkpt><trkpt lat="43.8026326" lon="6.608381"><ele>1094.0</ele><time>2026-05-01T16:35:28.871Z</time></trkpt><trkpt lat="43.802584" lon="6.6081874"><ele>1083.6666666666667</ele><time>2026-05-01T16:35:29.871Z</time></trkpt><trkpt lat="43.802593" lon="6.6080022"><ele>1073.3333333333333</ele><time>2026-05-01T16:35:30.871Z</time></trkpt><trkpt lat="43.8026195" lon="6.6077738"><ele>1063.0</ele><time>2026-05-01T16:35:31.871Z</time></trkpt><trkpt lat="43.8026279" lon="6.6075543"><ele>1062.6666666666665</ele><time>2026-05-01T16:35:32.871Z</time></trkpt><trkpt lat="43.8026163" lon="6.607341"><ele>1062.3333333333333</ele><time>2026-05-01T16:35:33.871Z</time></trkpt><trkpt lat="43.802598" lon="6.607131"><ele>1062.0</ele><time>2026-05-01T16:35:34.871Z</time></trkpt><trkpt lat="43.8025965" lon="6.6069316"><ele>1062.0</ele><time>2026-05-01T16:35:35.871Z</time></trkpt><trkpt lat="43.802562" lon="6.6067405"><ele>1062.0</ele><time>2026-05-01T16:35:36.871Z</time></trkpt><trkpt lat="43.8024441" lon="6.6065705"><ele>1062.0</ele><time>2026-05-01T16:35:37.871Z</time></trkpt><trkpt lat="43.8023931" lon="6.6064339"><ele>1062.0</ele><time>2026-05-01T16:35:38.871Z</time></trkpt><trkpt lat="43.8024469" lon="6.606143"><ele>1061.6666666666667</ele><time>2026-05-01T16:35:39.871Z</time></trkpt><trkpt lat="43.8024131" lon="6.6059217"><ele>1061.3333333333335</ele><time>2026-05-01T16:35:40.871Z</time></trkpt><trkpt lat="43.8024088" lon="6.6056951"><ele>1061.0</ele><time>2026-05-01T16:35:41.871Z</time></trkpt><trkpt lat="43.8024118" lon="6.6054325"><ele>1059.3333333333335</ele><time>2026-05-01T16:35:42.871Z</time></trkpt><trkpt lat="43.8024295" lon="6.6051424"><ele>1057.6666666666667</ele><time>2026-05-01T16:35:43.871Z</time></trkpt><trkpt lat="43.802443" lon="6.604878"><ele>1056.0</ele><time>2026-05-01T16:35:44.871Z</time></trkpt><trkpt lat="43.8024655" lon="6.6045593"><ele>1053.0</ele><time>2026-05-01T16:35:45.871Z</time></trkpt><trkpt lat="43.8024777" lon="6.6042963"><ele>1050.0</ele><time>2026-05-01T16:35:46.871Z</time></trkpt><trkpt lat="43.8025155" lon="6.6039999"><ele>1047.0</ele><time>2026-05-01T16:35:47.871Z</time></trkpt><trkpt lat="43.8025647" lon="6.6036505"><ele>1043.0</ele><time>2026-05-01T16:35:48.871Z</time></trkpt><trkpt lat="43.8026207" lon="6.6033249"><ele>1039.0</ele><time>2026-05-01T16:35:49.871Z</time></trkpt><trkpt lat="43.8026487" lon="6.6029994"><ele>1042.0</ele><time>2026-05-01T16:35:50.872Z</time></trkpt><trkpt lat="43.8026904" lon="6.6027076"><ele>1045.0</ele><time>2026-05-01T16:35:51.871Z</time></trkpt><trkpt lat="43.8027413" lon="6.6024354"><ele>1048.0</ele><time>2026-05-01T16:35:52.871Z</time></trkpt><trkpt lat="43.8027868" lon="6.6021589"><ele>1047.0</ele><time>2026-05-01T16:35:53.871Z</time></trkpt><trkpt lat="43.8028779" lon="6.6019289"><ele>1046.0</ele><time>2026-05-01T16:35:54.871Z</time></trkpt><trkpt lat="43.8029403" lon="6.6016156"><ele>1045.0</ele><time>2026-05-01T16:35:55.871Z</time></trkpt><trkpt lat="43.803011" lon="6.6013218"><ele>1042.3333333333333</ele><time>2026-05-01T16:35:56.871Z</time></trkpt><trkpt lat="43.8030571" lon="6.6010639"><ele>1039.6666666666667</ele><time>2026-05-01T16:35:57.871Z</time></trkpt><trkpt lat="43.8031397" lon="6.6008014"><ele>1037.0</ele><time>2026-05-01T16:35:58.871Z</time></trkpt><trkpt lat="43.8032447" lon="6.6005301"><ele>1035.3333333333335</ele><time>2026-05-01T16:35:59.872Z</time></trkpt><trkpt lat="43.8033097" lon="6.6002551"><ele>1033.6666666666667</ele><time>2026-05-01T16:36:00.871Z</time></trkpt><trkpt lat="43.8033799" lon="6.5999819"><ele>1032.0</ele><time>2026-05-01T16:36:01.871Z</time></trkpt><trkpt lat="43.8034366" lon="6.5997024"><ele>1034.6666666666667</ele><time>2026-05-01T16:36:02.871Z</time></trkpt><trkpt lat="43.8035055" lon="6.599422"><ele>1037.3333333333335</ele><time>2026-05-01T16:36:03.871Z</time></trkpt><trkpt lat="43.8035658" lon="6.5991254"><ele>1040.0</ele><time>2026-05-01T16:36:04.871Z</time></trkpt><trkpt lat="43.8036007" lon="6.5987912"><ele>1039.3333333333335</ele><time>2026-05-01T16:36:05.871Z</time></trkpt><trkpt lat="43.803653" lon="6.5985538"><ele>1038.6666666666667</ele><time>2026-05-01T16:36:06.871Z</time></trkpt><trkpt lat="43.8037516" lon="6.5982726"><ele>1038.0</ele><time>2026-05-01T16:36:07.871Z</time></trkpt><trkpt lat="43.8038392" lon="6.5980163"><ele>1035.3333333333333</ele><time>2026-05-01T16:36:08.872Z</time></trkpt><trkpt lat="43.8039369" lon="6.5977561"><ele>1032.6666666666665</ele><time>2026-05-01T16:36:09.871Z</time></trkpt><trkpt lat="43.8040133" lon="6.5974975"><ele>1030.0</ele><time>2026-05-01T16:36:10.871Z</time></trkpt><trkpt lat="43.8040815" lon="6.5972672"><ele>1030.0</ele><time>2026-05-01T16:36:11.871Z</time></trkpt><trkpt lat="43.804157" lon="6.5970799"><ele>1030.0</ele><time>2026-05-01T16:36:12.871Z</time></trkpt><trkpt lat="43.8041782" lon="6.5968542"><ele>1030.0</ele><time>2026-05-01T16:36:13.871Z</time></trkpt><trkpt lat="43.8042045" lon="6.5966454"><ele>1027.0</ele><time>2026-05-01T16:36:14.871Z</time></trkpt><trkpt lat="43.8042274" lon="6.5964219"><ele>1024.0</ele><time>2026-05-01T16:36:15.871Z</time></trkpt><trkpt lat="43.8042673" lon="6.5961947"><ele>1021.0</ele><time>2026-05-01T16:36:16.871Z</time></trkpt><trkpt lat="43.8043093" lon="6.5959481"><ele>1018.75</ele><time>2026-05-01T16:36:17.871Z</time></trkpt><trkpt lat="43.8043553" lon="6.5957038"><ele>1016.5</ele><time>2026-05-01T16:36:18.871Z</time></trkpt><trkpt lat="43.8044194" lon="6.5955265"><ele>1014.25</ele><time>2026-05-01T16:36:19.871Z</time></trkpt><trkpt lat="43.8044468" lon="6.5953599"><ele>1012.0</ele><time>2026-05-01T16:36:20.871Z</time></trkpt><trkpt lat="43.8045123" lon="6.5951589"><ele>1011.2</ele><time>2026-05-01T16:36:21.871Z</time></trkpt><trkpt lat="43.8045493" lon="6.5949701"><ele>1010.4000000000001</ele><time>2026-05-01T16:36:22.871Z</time></trkpt><trkpt lat="43.8045684" lon="6.5948729"><ele>1009.5999999999999</ele><time>2026-05-01T16:36:23.871Z</time></trkpt><trkpt lat="43.804618" lon="6.5948025"><ele>1008.8</ele><time>2026-05-01T16:36:24.871Z</time></trkpt><trkpt lat="43.804692" lon="6.594738"><ele>1008.0</ele><time>2026-05-01T16:36:25.871Z</time></trkpt><trkpt lat="43.8047805" lon="6.5947384"><ele>1008.0</ele><time>2026-05-01T16:36:27.871Z</time></trkpt><trkpt lat="43.804901" lon="6.5948272"><ele>1008.0</ele><time>2026-05-01T16:36:28.871Z</time></trkpt><trkpt lat="43.804981" lon="6.5949491"><ele>1008.0</ele><time>2026-05-01T16:36:29.871Z</time></trkpt><trkpt lat="43.8050711" lon="6.5951158"><ele>1008.0</ele><time>2026-05-01T16:36:30.871Z</time></trkpt><trkpt lat="43.8051383" lon="6.5952336"><ele>1009.0</ele><time>2026-05-01T16:36:31.871Z</time></trkpt><trkpt lat="43.8051813" lon="6.5953803"><ele>1010.0</ele><time>2026-05-01T16:36:32.871Z</time></trkpt><trkpt lat="43.8051652" lon="6.5955615"><ele>1011.0</ele><time>2026-05-01T16:36:33.871Z</time></trkpt><trkpt lat="43.8051571" lon="6.5957434"><ele>1012.0</ele><time>2026-05-01T16:36:34.871Z</time></trkpt><trkpt lat="43.8051275" lon="6.5959719"><ele>1012.0</ele><time>2026-05-01T16:36:35.871Z</time></trkpt><trkpt lat="43.8051005" lon="6.5962015"><ele>1012.0</ele><time>2026-05-01T16:36:36.871Z</time></trkpt><trkpt lat="43.8050831" lon="6.5964186"><ele>1012.0</ele><time>2026-05-01T16:36:37.871Z</time></trkpt><trkpt lat="43.8050646" lon="6.5966337"><ele>1012.0</ele><time>2026-05-01T16:36:38.871Z</time></trkpt><trkpt lat="43.8050852" lon="6.5968713"><ele>1012.0</ele><time>2026-05-01T16:36:39.871Z</time></trkpt><trkpt lat="43.8051204" lon="6.5970848"><ele>1012.0</ele><time>2026-05-01T16:36:40.871Z</time></trkpt><trkpt lat="43.8051975" lon="6.5972779"><ele>1007.5</ele><time>2026-05-01T16:36:41.871Z</time></trkpt><trkpt lat="43.8052838" lon="6.5974148"><ele>1003.0</ele><time>2026-05-01T16:36:42.871Z</time></trkpt><trkpt lat="43.8053589" lon="6.5975583"><ele>998.5</ele><time>2026-05-01T16:36:43.871Z</time></trkpt><trkpt lat="43.8054584" lon="6.5977182"><ele>994.0</ele><time>2026-05-01T16:36:44.871Z</time></trkpt><trkpt lat="43.8055702" lon="6.5978559"><ele>993.0</ele><time>2026-05-01T16:36:45.871Z</time></trkpt><trkpt lat="43.8056278" lon="6.5979081"><ele>992.0000000000001</ele><time>2026-05-01T16:36:46.871Z</time></trkpt><trkpt lat="43.8057358" lon="6.5978677"><ele>991.0000000000001</ele><time>2026-05-01T16:36:47.871Z</time></trkpt><trkpt lat="43.8058532" lon="6.5978736"><ele>990.0</ele><time>2026-05-01T16:36:48.871Z</time></trkpt><trkpt lat="43.8059301" lon="6.5978593"><ele>989.0</ele><time>2026-05-01T16:36:49.871Z</time></trkpt><trkpt lat="43.806059" lon="6.5977851"><ele>986.4000000000001</ele><time>2026-05-01T16:36:50.871Z</time></trkpt><trkpt lat="43.8061275" lon="6.5976922"><ele>983.8000000000001</ele><time>2026-05-01T16:36:51.871Z</time></trkpt><trkpt lat="43.80621" lon="6.59757"><ele>981.1999999999999</ele><time>2026-05-01T16:36:53.871Z</time></trkpt><trkpt lat="43.8063149" lon="6.5975367"><ele>978.5999999999999</ele><time>2026-05-01T16:36:55.871Z</time></trkpt><trkpt lat="43.8063489" lon="6.5976906"><ele>976.0</ele><time>2026-05-01T16:36:57.871Z</time></trkpt><trkpt lat="43.8062682" lon="6.5979121"><ele>975.3333333333333</ele><time>2026-05-01T16:36:59.871Z</time></trkpt><trkpt lat="43.8061079" lon="6.5980768"><ele>974.6666666666667</ele><time>2026-05-01T16:37:00.871Z</time></trkpt><trkpt lat="43.8059412" lon="6.5982184"><ele>974.0</ele><time>2026-05-01T16:37:01.871Z</time></trkpt><trkpt lat="43.8058134" lon="6.5983321"><ele>976.5</ele><time>2026-05-01T16:37:02.871Z</time></trkpt><trkpt lat="43.80571" lon="6.5984897"><ele>979.0</ele><time>2026-05-01T16:37:03.871Z</time></trkpt><trkpt lat="43.8056152" lon="6.5986617"><ele>981.5</ele><time>2026-05-01T16:37:04.871Z</time></trkpt><trkpt lat="43.8055847" lon="6.5988196"><ele>984.0</ele><time>2026-05-01T16:37:05.871Z</time></trkpt><trkpt lat="43.8055657" lon="6.5990054"><ele>984.0</ele><time>2026-05-01T16:37:06.871Z</time></trkpt><trkpt lat="43.8055694" lon="6.5992064"><ele>984.0000000000001</ele><time>2026-05-01T16:37:07.871Z</time></trkpt><trkpt lat="43.8055798" lon="6.5993813"><ele>984.0000000000001</ele><time>2026-05-01T16:37:08.871Z</time></trkpt><trkpt lat="43.8055957" lon="6.5995261"><ele>984.0</ele><time>2026-05-01T16:37:09.871Z</time></trkpt><trkpt lat="43.8055952" lon="6.5996251"><ele>984.0</ele><time>2026-05-01T16:37:10.871Z</time></trkpt><trkpt lat="43.8056739" lon="6.5997539"><ele>984.5</ele><time>2026-05-01T16:37:12.871Z</time></trkpt><trkpt lat="43.8058005" lon="6.5997407"><ele>985.0</ele><time>2026-05-01T16:37:14.871Z</time></trkpt><trkpt lat="43.8059177" lon="6.5996552"><ele>985.5</ele><time>2026-05-01T16:37:15.872Z</time></trkpt><trkpt lat="43.8060107" lon="6.599562"><ele>986.0</ele><time>2026-05-01T16:37:16.871Z</time></trkpt><trkpt lat="43.806142" lon="6.5994492"><ele>986.0</ele><time>2026-05-01T16:37:17.871Z</time></trkpt><trkpt lat="43.8063356" lon="6.5993175"><ele>986.0</ele><time>2026-05-01T16:37:18.871Z</time></trkpt><trkpt lat="43.8064762" lon="6.5992598"><ele>986.0</ele><time>2026-05-01T16:37:19.871Z</time></trkpt><trkpt lat="43.8066585" lon="6.5990957"><ele>986.0</ele><time>2026-05-01T16:37:20.871Z</time></trkpt><trkpt lat="43.8068164" lon="6.598958"><ele>986.0</ele><time>2026-05-01T16:37:21.871Z</time></trkpt><trkpt lat="43.8069992" lon="6.5988752"><ele>986.0</ele><time>2026-05-01T16:37:22.871Z</time></trkpt><trkpt lat="43.8071198" lon="6.5987296"><ele>984.0</ele><time>2026-05-01T16:37:23.871Z</time></trkpt><trkpt lat="43.8072593" lon="6.5985478"><ele>982.0</ele><time>2026-05-01T16:37:24.871Z</time></trkpt><trkpt lat="43.8073785" lon="6.5983672"><ele>980.0</ele><time>2026-05-01T16:37:25.871Z</time></trkpt><trkpt lat="43.8075005" lon="6.5981251"><ele>980.0</ele><time>2026-05-01T16:37:26.871Z</time></trkpt><trkpt lat="43.8076176" lon="6.5978992"><ele>980.0</ele><time>2026-05-01T16:37:27.871Z</time></trkpt><trkpt lat="43.8077127" lon="6.5976959"><ele>980.0</ele><time>2026-05-01T16:37:28.871Z</time></trkpt><trkpt lat="43.8077686" lon="6.5974876"><ele>975.25</ele><time>2026-05-01T16:37:29.871Z</time></trkpt><trkpt lat="43.807783" lon="6.5972454"><ele>970.5</ele><time>2026-05-01T16:37:30.871Z</time></trkpt><trkpt lat="43.8077948" lon="6.5970583"><ele>965.75</ele><time>2026-05-01T16:37:31.871Z</time></trkpt><trkpt lat="43.8078544" lon="6.5969981"><ele>961.0</ele><time>2026-05-01T16:37:32.871Z</time></trkpt><trkpt lat="43.8079413" lon="6.5969106"><ele>961.0</ele><time>2026-05-01T16:37:34.871Z</time></trkpt><trkpt lat="43.8080803" lon="6.5969637"><ele>961.0</ele><time>2026-05-01T16:37:36.871Z</time></trkpt><trkpt lat="43.808244" lon="6.5971332"><ele>961.0</ele><time>2026-05-01T16:37:37.871Z</time></trkpt><trkpt lat="43.8083609" lon="6.5972639"><ele>961.0</ele><time>2026-05-01T16:37:38.871Z</time></trkpt><trkpt lat="43.8084891" lon="6.5973633"><ele>961.0</ele><time>2026-05-01T16:37:39.871Z</time></trkpt><trkpt lat="43.8086478" lon="6.5975022"><ele>961.0</ele><time>2026-05-01T16:37:40.871Z</time></trkpt><trkpt lat="43.8087867" lon="6.597644"><ele>958.0</ele><time>2026-05-01T16:37:41.872Z</time></trkpt><trkpt lat="43.8089248" lon="6.5978207"><ele>955.0</ele><time>2026-05-01T16:37:42.871Z</time></trkpt><trkpt lat="43.809068" lon="6.5980791"><ele>952.0</ele><time>2026-05-01T16:37:43.871Z</time></trkpt><trkpt lat="43.8091744" lon="6.5983189"><ele>952.0</ele><time>2026-05-01T16:37:44.871Z</time></trkpt><trkpt lat="43.8092039" lon="6.5985649"><ele>952.0</ele><time>2026-05-01T16:37:45.871Z</time></trkpt><trkpt lat="43.8092466" lon="6.5987719"><ele>952.0</ele><time>2026-05-01T16:37:46.871Z</time></trkpt><trkpt lat="43.8093234" lon="6.5989864"><ele>950.75</ele><time>2026-05-01T16:37:47.871Z</time></trkpt><trkpt lat="43.8094219" lon="6.5990969"><ele>949.5</ele><time>2026-05-01T16:37:48.871Z</time></trkpt><trkpt lat="43.8095416" lon="6.5991685"><ele>948.25</ele><time>2026-05-01T16:37:49.871Z</time></trkpt><trkpt lat="43.809635" lon="6.5992431"><ele>947.0</ele><time>2026-05-01T16:37:50.871Z</time></trkpt><trkpt lat="43.8097605" lon="6.5992332"><ele>947.0</ele><time>2026-05-01T16:37:51.871Z</time></trkpt><trkpt lat="43.8098882" lon="6.5992268"><ele>947.0</ele><time>2026-05-01T16:37:52.871Z</time></trkpt><trkpt lat="43.8100657" lon="6.5992139"><ele>947.0</ele><time>2026-05-01T16:37:53.872Z</time></trkpt><trkpt lat="43.8101607" lon="6.5991773"><ele>947.0</ele><time>2026-05-01T16:37:54.871Z</time></trkpt><trkpt lat="43.8102737" lon="6.5991247"><ele>947.0</ele><time>2026-05-01T16:37:55.871Z</time></trkpt><trkpt lat="43.8103953" lon="6.5990534"><ele>947.0</ele><time>2026-05-01T16:37:56.871Z</time></trkpt><trkpt lat="43.8105416" lon="6.5989946"><ele>947.0</ele><time>2026-05-01T16:37:57.871Z</time></trkpt><trkpt lat="43.8107037" lon="6.598906"><ele>947.0</ele><time>2026-05-01T16:37:58.871Z</time></trkpt><trkpt lat="43.8108622" lon="6.5988214"><ele>947.0</ele><time>2026-05-01T16:37:59.871Z</time></trkpt><trkpt lat="43.8110114" lon="6.5987483"><ele>947.0</ele><time>2026-05-01T16:38:00.871Z</time></trkpt><trkpt lat="43.811161" lon="6.5986761"><ele>947.6666666666667</ele><time>2026-05-01T16:38:01.871Z</time></trkpt><trkpt lat="43.8113109" lon="6.5986012"><ele>948.3333333333333</ele><time>2026-05-01T16:38:02.871Z</time></trkpt><trkpt lat="43.8114428" lon="6.5985164"><ele>949.0</ele><time>2026-05-01T16:38:03.871Z</time></trkpt><trkpt lat="43.8115818" lon="6.5984308"><ele>949.0</ele><time>2026-05-01T16:38:04.871Z</time></trkpt><trkpt lat="43.811737" lon="6.5983307"><ele>949.0</ele><time>2026-05-01T16:38:05.871Z</time></trkpt><trkpt lat="43.8118522" lon="6.598277"><ele>949.0</ele><time>2026-05-01T16:38:06.871Z</time></trkpt><trkpt lat="43.8119809" lon="6.5981978"><ele>949.0</ele><time>2026-05-01T16:38:07.871Z</time></trkpt><trkpt lat="43.8121104" lon="6.5981162"><ele>949.5</ele><time>2026-05-01T16:38:08.871Z</time></trkpt><trkpt lat="43.8122242" lon="6.5980534"><ele>950.0</ele><time>2026-05-01T16:38:09.871Z</time></trkpt><trkpt lat="43.8123641" lon="6.5979818"><ele>950.5</ele><time>2026-05-01T16:38:10.871Z</time></trkpt><trkpt lat="43.8124633" lon="6.5979352"><ele>951.0</ele><time>2026-05-01T16:38:11.871Z</time></trkpt><trkpt lat="43.8126219" lon="6.5978524"><ele>953.0</ele><time>2026-05-01T16:38:12.871Z</time></trkpt><trkpt lat="43.8127476" lon="6.5977627"><ele>955.0</ele><time>2026-05-01T16:38:13.871Z</time></trkpt><trkpt lat="43.8128839" lon="6.5976744"><ele>957.0</ele><time>2026-05-01T16:38:14.871Z</time></trkpt><trkpt lat="43.8130243" lon="6.5975901"><ele>959.0</ele><time>2026-05-01T16:38:15.871Z</time></trkpt><trkpt lat="43.8131959" lon="6.5975092"><ele>959.0</ele><time>2026-05-01T16:38:16.871Z</time></trkpt><trkpt lat="43.8133501" lon="6.5974373"><ele>959.0</ele><time>2026-05-01T16:38:17.871Z</time></trkpt><trkpt lat="43.813505" lon="6.5973439"><ele>959.0</ele><time>2026-05-01T16:38:18.871Z</time></trkpt><trkpt lat="43.8136545" lon="6.5972662"><ele>959.6666666666667</ele><time>2026-05-01T16:38:19.871Z</time></trkpt><trkpt lat="43.813797" lon="6.5971751"><ele>960.3333333333333</ele><time>2026-05-01T16:38:20.871Z</time></trkpt><trkpt lat="43.8139756" lon="6.5970177"><ele>961.0</ele><time>2026-05-01T16:38:21.871Z</time></trkpt><trkpt lat="43.8141387" lon="6.5968448"><ele>963.0</ele><time>2026-05-01T16:38:22.871Z</time></trkpt><trkpt lat="43.814305" lon="6.596683"><ele>965.0</ele><time>2026-05-01T16:38:23.871Z</time></trkpt><trkpt lat="43.8144672" lon="6.5965368"><ele>967.0</ele><time>2026-05-01T16:38:24.871Z</time></trkpt><trkpt lat="43.8146253" lon="6.5963901"><ele>967.0</ele><time>2026-05-01T16:38:25.871Z</time></trkpt><trkpt lat="43.8147809" lon="6.5962474"><ele>967.0</ele><time>2026-05-01T16:38:26.871Z</time></trkpt><trkpt lat="43.8149524" lon="6.5960689"><ele>967.0</ele><time>2026-05-01T16:38:27.871Z</time></trkpt><trkpt lat="43.8151026" lon="6.5959347"><ele>970.6666666666666</ele><time>2026-05-01T16:38:28.871Z</time></trkpt><trkpt lat="43.8152969" lon="6.5957518"><ele>974.3333333333333</ele><time>2026-05-01T16:38:29.871Z</time></trkpt><trkpt lat="43.8154458" lon="6.5956168"><ele>978.0</ele><time>2026-05-01T16:38:30.871Z</time></trkpt><trkpt lat="43.8155577" lon="6.595513"><ele>978.0</ele><time>2026-05-01T16:38:31.871Z</time></trkpt><trkpt lat="43.8156949" lon="6.5954251"><ele>978.0</ele><time>2026-05-01T16:38:32.871Z</time></trkpt><trkpt lat="43.81583" lon="6.5953467"><ele>978.0</ele><time>2026-05-01T16:38:33.871Z</time></trkpt><trkpt lat="43.8159336" lon="6.5952895"><ele>978.0</ele><time>2026-05-01T16:38:34.871Z</time></trkpt><trkpt lat="43.8160306" lon="6.5952395"><ele>978.5999999999999</ele><time>2026-05-01T16:38:35.871Z</time></trkpt><trkpt lat="43.8161359" lon="6.5951512"><ele>979.1999999999999</ele><time>2026-05-01T16:38:36.871Z</time></trkpt><trkpt lat="43.816203" lon="6.5950566"><ele>979.8</ele><time>2026-05-01T16:38:37.871Z</time></trkpt><trkpt lat="43.8162474" lon="6.5949584"><ele>980.4</ele><time>2026-05-01T16:38:38.871Z</time></trkpt><trkpt lat="43.8162712" lon="6.5948265"><ele>981.0</ele><time>2026-05-01T16:38:39.872Z</time></trkpt><trkpt lat="43.8162802" lon="6.5946764"><ele>981.0</ele><time>2026-05-01T16:38:40.871Z</time></trkpt><trkpt lat="43.8162393" lon="6.5945461"><ele>980.9999999999999</ele><time>2026-05-01T16:38:41.872Z</time></trkpt><trkpt lat="43.8161685" lon="6.5943996"><ele>980.9999999999999</ele><time>2026-05-01T16:38:42.871Z</time></trkpt><trkpt lat="43.8161041" lon="6.5943361"><ele>981.0</ele><time>2026-05-01T16:38:43.871Z</time></trkpt><trkpt lat="43.8160344" lon="6.5943033"><ele>981.0</ele><time>2026-05-01T16:38:44.872Z</time></trkpt><trkpt lat="43.8159059" lon="6.5943244"><ele>982.0</ele><time>2026-05-01T16:38:45.871Z</time></trkpt><trkpt lat="43.8158035" lon="6.5943881"><ele>983.0</ele><time>2026-05-01T16:38:46.871Z</time></trkpt><trkpt lat="43.8156738" lon="6.5944373"><ele>984.0</ele><time>2026-05-01T16:38:47.871Z</time></trkpt><trkpt lat="43.8155105" lon="6.5944974"><ele>985.0</ele><time>2026-05-01T16:38:48.871Z</time></trkpt><trkpt lat="43.8153728" lon="6.5945166"><ele>985.0</ele><time>2026-05-01T16:38:49.871Z</time></trkpt><trkpt lat="43.8152037" lon="6.5945446"><ele>985.0</ele><time>2026-05-01T16:38:50.872Z</time></trkpt><trkpt lat="43.8150059" lon="6.5945327"><ele>985.0</ele><time>2026-05-01T16:38:51.871Z</time></trkpt><trkpt lat="43.8148182" lon="6.5945592"><ele>988.25</ele><time>2026-05-01T16:38:52.871Z</time></trkpt><trkpt lat="43.8147014" lon="6.5945913"><ele>991.5</ele><time>2026-05-01T16:38:53.871Z</time></trkpt><trkpt lat="43.8145594" lon="6.5946098"><ele>994.75</ele><time>2026-05-01T16:38:54.871Z</time></trkpt><trkpt lat="43.8144331" lon="6.594593"><ele>998.0</ele><time>2026-05-01T16:38:55.871Z</time></trkpt><trkpt lat="43.8142345" lon="6.5946624"><ele>998.5</ele><time>2026-05-01T16:38:56.871Z</time></trkpt><trkpt lat="43.8140593" lon="6.5946413"><ele>999.0</ele><time>2026-05-01T16:38:57.871Z</time></trkpt><trkpt lat="43.813925" lon="6.5945781"><ele>999.5</ele><time>2026-05-01T16:38:58.871Z</time></trkpt><trkpt lat="43.8138198" lon="6.5945024"><ele>1000.0</ele><time>2026-05-01T16:38:59.871Z</time></trkpt><trkpt lat="43.8137092" lon="6.5944359"><ele>1005.0</ele><time>2026-05-01T16:39:00.871Z</time></trkpt><trkpt lat="43.8136736" lon="6.5942337"><ele>1010.0</ele><time>2026-05-01T16:39:01.871Z</time></trkpt><trkpt lat="43.8136427" lon="6.5941028"><ele>1015.0</ele><time>2026-05-01T16:39:02.871Z</time></trkpt><trkpt lat="43.8136321" lon="6.5939761"><ele>1020.0</ele><time>2026-05-01T16:39:03.871Z</time></trkpt><trkpt lat="43.8136695" lon="6.5937968"><ele>1019.6666666666667</ele><time>2026-05-01T16:39:04.871Z</time></trkpt><trkpt lat="43.8137135" lon="6.5936062"><ele>1019.3333333333334</ele><time>2026-05-01T16:39:05.871Z</time></trkpt><trkpt lat="43.8138141" lon="6.5933867"><ele>1019.0</ele><time>2026-05-01T16:39:06.871Z</time></trkpt><trkpt lat="43.8138676" lon="6.5932027"><ele>1019.0</ele><time>2026-05-01T16:39:07.871Z</time></trkpt><trkpt lat="43.81394" lon="6.5930529"><ele>1019.0000000000001</ele><time>2026-05-01T16:39:08.871Z</time></trkpt><trkpt lat="43.8140251" lon="6.5929132"><ele>1019.0000000000001</ele><time>2026-05-01T16:39:09.871Z</time></trkpt><trkpt lat="43.8141101" lon="6.5928619"><ele>1019.0</ele><time>2026-05-01T16:39:10.871Z</time></trkpt><trkpt lat="43.8141898" lon="6.592839"><ele>1019.0</ele><time>2026-05-01T16:39:11.871Z</time></trkpt><trkpt lat="43.8143214" lon="6.5928214"><ele>1018.3333333333334</ele><time>2026-05-01T16:39:12.871Z</time></trkpt><trkpt lat="43.8145176" lon="6.5928064"><ele>1017.6666666666667</ele><time>2026-05-01T16:39:13.872Z</time></trkpt><trkpt lat="43.8146672" lon="6.5928144"><ele>1017.0</ele><time>2026-05-01T16:39:14.871Z</time></trkpt><trkpt lat="43.8148843" lon="6.5928693"><ele>1017.0</ele><time>2026-05-01T16:39:15.871Z</time></trkpt><trkpt lat="43.8150873" lon="6.5929035"><ele>1017.0</ele><time>2026-05-01T16:39:16.871Z</time></trkpt><trkpt lat="43.8152791" lon="6.5929136"><ele>1017.0</ele><time>2026-05-01T16:39:17.871Z</time></trkpt><trkpt lat="43.8154764" lon="6.5929115"><ele>1016.5</ele><time>2026-05-01T16:39:18.871Z</time></trkpt><trkpt lat="43.8156338" lon="6.5928672"><ele>1016.0</ele><time>2026-05-01T16:39:19.871Z</time></trkpt><trkpt lat="43.8157511" lon="6.5928178"><ele>1015.5</ele><time>2026-05-01T16:39:20.871Z</time></trkpt><trkpt lat="43.8158641" lon="6.5927345"><ele>1015.0</ele><time>2026-05-01T16:39:21.871Z</time></trkpt><trkpt lat="43.8160121" lon="6.5925648"><ele>1018.0</ele><time>2026-05-01T16:39:22.871Z</time></trkpt><trkpt lat="43.8161511" lon="6.5923783"><ele>1021.0</ele><time>2026-05-01T16:39:23.871Z</time></trkpt><trkpt lat="43.8162959" lon="6.5921865"><ele>1024.0</ele><time>2026-05-01T16:39:24.871Z</time></trkpt><trkpt lat="43.8164202" lon="6.5919986"><ele>1025.6666666666665</ele><time>2026-05-01T16:39:25.871Z</time></trkpt><trkpt lat="43.8165395" lon="6.5918098"><ele>1027.3333333333333</ele><time>2026-05-01T16:39:26.871Z</time></trkpt><trkpt lat="43.8166587" lon="6.5915698"><ele>1029.0</ele><time>2026-05-01T16:39:27.871Z</time></trkpt><trkpt lat="43.8167627" lon="6.5913501"><ele>1026.0</ele><time>2026-05-01T16:39:28.871Z</time></trkpt><trkpt lat="43.81685" lon="6.5911099"><ele>1023.0</ele><time>2026-05-01T16:39:29.871Z</time></trkpt><trkpt lat="43.8169224" lon="6.5908541"><ele>1020.0</ele><time>2026-05-01T16:39:30.871Z</time></trkpt><trkpt lat="43.8169248" lon="6.5906317"><ele>1020.0</ele><time>2026-05-01T16:39:31.871Z</time></trkpt><trkpt lat="43.816985" lon="6.590363"><ele>1020.0</ele><time>2026-05-01T16:39:32.871Z</time></trkpt><trkpt lat="43.8170418" lon="6.5901049"><ele>1020.0</ele><time>2026-05-01T16:39:33.871Z</time></trkpt><trkpt lat="43.8171429" lon="6.5898266"><ele>1024.3333333333333</ele><time>2026-05-01T16:39:34.871Z</time></trkpt><trkpt lat="43.8172004" lon="6.5895956"><ele>1028.6666666666665</ele><time>2026-05-01T16:39:35.871Z</time></trkpt><trkpt lat="43.8173183" lon="6.5893889"><ele>1033.0</ele><time>2026-05-01T16:39:36.871Z</time></trkpt><trkpt lat="43.8174336" lon="6.5891783"><ele>1035.3333333333333</ele><time>2026-05-01T16:39:37.871Z</time></trkpt><trkpt lat="43.8175541" lon="6.5889904"><ele>1037.6666666666667</ele><time>2026-05-01T16:39:38.871Z</time></trkpt><trkpt lat="43.8176785" lon="6.5888523"><ele>1040.0</ele><time>2026-05-01T16:39:39.872Z</time></trkpt><trkpt lat="43.8177808" lon="6.5887293"><ele>1044.6666666666667</ele><time>2026-05-01T16:39:40.871Z</time></trkpt><trkpt lat="43.8178829" lon="6.5885634"><ele>1049.3333333333333</ele><time>2026-05-01T16:39:41.871Z</time></trkpt><trkpt lat="43.8179756" lon="6.5883967"><ele>1054.0</ele><time>2026-05-01T16:39:42.872Z</time></trkpt><trkpt lat="43.8180708" lon="6.5881928"><ele>1054.0</ele><time>2026-05-01T16:39:43.871Z</time></trkpt><trkpt lat="43.8181644" lon="6.5880001"><ele>1054.0</ele><time>2026-05-01T16:39:44.871Z</time></trkpt><trkpt lat="43.818241" lon="6.5877689"><ele>1054.0</ele><time>2026-05-01T16:39:45.871Z</time></trkpt><trkpt lat="43.8183288" lon="6.5875125"><ele>1057.3333333333333</ele><time>2026-05-01T16:39:46.871Z</time></trkpt><trkpt lat="43.8184335" lon="6.5873064"><ele>1060.6666666666667</ele><time>2026-05-01T16:39:47.871Z</time></trkpt><trkpt lat="43.8185363" lon="6.5870965"><ele>1064.0</ele><time>2026-05-01T16:39:48.871Z</time></trkpt><trkpt lat="43.8186458" lon="6.5868684"><ele>1065.0</ele><time>2026-05-01T16:39:49.871Z</time></trkpt><trkpt lat="43.8187729" lon="6.5866552"><ele>1066.0</ele><time>2026-05-01T16:39:50.871Z</time></trkpt><trkpt lat="43.8189002" lon="6.5864623"><ele>1067.0</ele><time>2026-05-01T16:39:51.871Z</time></trkpt><trkpt lat="43.8190074" lon="6.5863037"><ele>1064.0</ele><time>2026-05-01T16:39:52.871Z</time></trkpt><trkpt lat="43.8191392" lon="6.5861385"><ele>1061.0</ele><time>2026-05-01T16:39:53.872Z</time></trkpt><trkpt lat="43.8192722" lon="6.5860078"><ele>1058.0</ele><time>2026-05-01T16:39:54.871Z</time></trkpt><trkpt lat="43.8194321" lon="6.5858755"><ele>1058.0</ele><time>2026-05-01T16:39:55.871Z</time></trkpt><trkpt lat="43.8195864" lon="6.5857076"><ele>1058.0</ele><time>2026-05-01T16:39:56.871Z</time></trkpt><trkpt lat="43.8197518" lon="6.5855483"><ele>1058.0</ele><time>2026-05-01T16:39:57.871Z</time></trkpt><trkpt lat="43.81992" lon="6.5854294"><ele>1054.6666666666667</ele><time>2026-05-01T16:39:58.871Z</time></trkpt><trkpt lat="43.8200701" lon="6.585305"><ele>1051.3333333333333</ele><time>2026-05-01T16:39:59.872Z</time></trkpt><trkpt lat="43.8202321" lon="6.5851892"><ele>1048.0</ele><time>2026-05-01T16:40:00.871Z</time></trkpt><trkpt lat="43.8204025" lon="6.5851207"><ele>1048.0</ele><time>2026-05-01T16:40:01.871Z</time></trkpt><trkpt lat="43.8205993" lon="6.5851092"><ele>1048.0</ele><time>2026-05-01T16:40:02.871Z</time></trkpt><trkpt lat="43.820777" lon="6.5850797"><ele>1048.0</ele><time>2026-05-01T16:40:03.871Z</time></trkpt><trkpt lat="43.8209831" lon="6.585071"><ele>1048.6666666666665</ele><time>2026-05-01T16:40:04.871Z</time></trkpt><trkpt lat="43.8211518" lon="6.5850656"><ele>1049.3333333333333</ele><time>2026-05-01T16:40:05.871Z</time></trkpt><trkpt lat="43.8213348" lon="6.5850377"><ele>1050.0</ele><time>2026-05-01T16:40:06.871Z</time></trkpt><trkpt lat="43.8214584" lon="6.5850039"><ele>1050.0</ele><time>2026-05-01T16:40:07.871Z</time></trkpt><trkpt lat="43.8215863" lon="6.5849685"><ele>1050.0</ele><time>2026-05-01T16:40:08.871Z</time></trkpt><trkpt lat="43.8217918" lon="6.58486"><ele>1050.0</ele><time>2026-05-01T16:40:09.871Z</time></trkpt><trkpt lat="43.8219143" lon="6.5847131"><ele>1057.0</ele><time>2026-05-01T16:40:10.871Z</time></trkpt><trkpt lat="43.8220544" lon="6.5845471"><ele>1064.0</ele><time>2026-05-01T16:40:11.871Z</time></trkpt><trkpt lat="43.8221805" lon="6.58437"><ele>1071.0</ele><time>2026-05-01T16:40:12.871Z</time></trkpt><trkpt lat="43.8222796" lon="6.5841757"><ele>1071.0</ele><time>2026-05-01T16:40:13.871Z</time></trkpt><trkpt lat="43.8223186" lon="6.5839259"><ele>1071.0</ele><time>2026-05-01T16:40:14.872Z</time></trkpt><trkpt lat="43.8223281" lon="6.5836868"><ele>1071.0</ele><time>2026-05-01T16:40:15.871Z</time></trkpt><trkpt lat="43.8222884" lon="6.583423"><ele>1069.3333333333333</ele><time>2026-05-01T16:40:16.871Z</time></trkpt><trkpt lat="43.8222897" lon="6.583224"><ele>1067.6666666666665</ele><time>2026-05-01T16:40:17.871Z</time></trkpt><trkpt lat="43.8222854" lon="6.5829893"><ele>1066.0</ele><time>2026-05-01T16:40:18.871Z</time></trkpt><trkpt lat="43.8222859" lon="6.5827397"><ele>1063.0</ele><time>2026-05-01T16:40:19.872Z</time></trkpt><trkpt lat="43.8223639" lon="6.5825288"><ele>1060.0</ele><time>2026-05-01T16:40:20.871Z</time></trkpt><trkpt lat="43.8224308" lon="6.5823219"><ele>1057.0</ele><time>2026-05-01T16:40:21.871Z</time></trkpt><trkpt lat="43.8225197" lon="6.5821443"><ele>1050.3333333333333</ele><time>2026-05-01T16:40:22.871Z</time></trkpt><trkpt lat="43.8226274" lon="6.5819827"><ele>1043.6666666666667</ele><time>2026-05-01T16:40:23.871Z</time></trkpt><trkpt lat="43.8227455" lon="6.5818239"><ele>1037.0</ele><time>2026-05-01T16:40:24.871Z</time></trkpt><trkpt lat="43.8228569" lon="6.5817146"><ele>1037.0</ele><time>2026-05-01T16:40:25.871Z</time></trkpt><trkpt lat="43.8229452" lon="6.5816566"><ele>1037.0</ele><time>2026-05-01T16:40:26.871Z</time></trkpt><trkpt lat="43.8230844" lon="6.581658"><ele>1037.0</ele><time>2026-05-01T16:40:27.871Z</time></trkpt><trkpt lat="43.8232884" lon="6.5816498"><ele>1037.0</ele><time>2026-05-01T16:40:28.871Z</time></trkpt><trkpt lat="43.8235093" lon="6.5816282"><ele>1041.3333333333335</ele><time>2026-05-01T16:40:29.871Z</time></trkpt><trkpt lat="43.8236704" lon="6.5815487"><ele>1045.6666666666667</ele><time>2026-05-01T16:40:30.871Z</time></trkpt><trkpt lat="43.8238122" lon="6.5814492"><ele>1050.0</ele><time>2026-05-01T16:40:31.871Z</time></trkpt><trkpt lat="43.8239141" lon="6.5813027"><ele>1049.0</ele><time>2026-05-01T16:40:32.871Z</time></trkpt><trkpt lat="43.8240169" lon="6.5811131"><ele>1048.0</ele><time>2026-05-01T16:40:33.871Z</time></trkpt><trkpt lat="43.8241333" lon="6.5808275"><ele>1047.0</ele><time>2026-05-01T16:40:34.871Z</time></trkpt><trkpt lat="43.8242251" lon="6.5805029"><ele>1044.5</ele><time>2026-05-01T16:40:35.871Z</time></trkpt><trkpt lat="43.8243094" lon="6.5801977"><ele>1042.0</ele><time>2026-05-01T16:40:36.871Z</time></trkpt><trkpt lat="43.8243662" lon="6.5798639"><ele>1048.0</ele><time>2026-05-01T16:40:37.871Z</time></trkpt><trkpt lat="43.8244264" lon="6.5795779"><ele>1054.0</ele><time>2026-05-01T16:40:38.871Z</time></trkpt><trkpt lat="43.8245102" lon="6.5792638"><ele>1054.0</ele><time>2026-05-01T16:40:39.871Z</time></trkpt><trkpt lat="43.8245612" lon="6.5789602"><ele>1054.0</ele><time>2026-05-01T16:40:40.871Z</time></trkpt><trkpt lat="43.8245667" lon="6.5786855"><ele>1054.0</ele><time>2026-05-01T16:40:41.871Z</time></trkpt><trkpt lat="43.8246174" lon="6.5784138"><ele>1051.0</ele><time>2026-05-01T16:40:42.871Z</time></trkpt><trkpt lat="43.8246935" lon="6.5782234"><ele>1048.0</ele><time>2026-05-01T16:40:43.871Z</time></trkpt><trkpt lat="43.8247897" lon="6.5780532"><ele>1045.0</ele><time>2026-05-01T16:40:44.871Z</time></trkpt><trkpt lat="43.8249021" lon="6.5779198"><ele>1042.3333333333333</ele><time>2026-05-01T16:40:45.871Z</time></trkpt><trkpt lat="43.8249957" lon="6.5777755"><ele>1039.6666666666667</ele><time>2026-05-01T16:40:46.871Z</time></trkpt><trkpt lat="43.8251382" lon="6.5775884"><ele>1037.0</ele><time>2026-05-01T16:40:47.871Z</time></trkpt><trkpt lat="43.8252291" lon="6.5774027"><ele>1044.6666666666667</ele><time>2026-05-01T16:40:48.871Z</time></trkpt><trkpt lat="43.8252828" lon="6.5771912"><ele>1052.3333333333333</ele><time>2026-05-01T16:40:49.871Z</time></trkpt><trkpt lat="43.8252871" lon="6.5769723"><ele>1060.0</ele><time>2026-05-01T16:40:50.871Z</time></trkpt><trkpt lat="43.8252859" lon="6.5767823"><ele>1060.0</ele><time>2026-05-01T16:40:51.871Z</time></trkpt><trkpt lat="43.8252592" lon="6.5765808"><ele>1060.0</ele><time>2026-05-01T16:40:52.871Z</time></trkpt><trkpt lat="43.8252055" lon="6.5764025"><ele>1060.0</ele><time>2026-05-01T16:40:53.871Z</time></trkpt><trkpt lat="43.825093" lon="6.5762542"><ele>1060.0</ele><time>2026-05-01T16:40:54.872Z</time></trkpt><trkpt lat="43.8249782" lon="6.5761429"><ele>1053.3333333333333</ele><time>2026-05-01T16:40:55.872Z</time></trkpt><trkpt lat="43.8248458" lon="6.5759925"><ele>1046.6666666666667</ele><time>2026-05-01T16:40:56.871Z</time></trkpt><trkpt lat="43.8247167" lon="6.5758846"><ele>1040.0</ele><time>2026-05-01T16:40:57.871Z</time></trkpt><trkpt lat="43.8245078" lon="6.5757478"><ele>1040.0</ele><time>2026-05-01T16:40:58.871Z</time></trkpt><trkpt lat="43.8243311" lon="6.5756541"><ele>1040.0</ele><time>2026-05-01T16:40:59.871Z</time></trkpt><trkpt lat="43.8241829" lon="6.57556"><ele>1040.0</ele><time>2026-05-01T16:41:00.871Z</time></trkpt><trkpt lat="43.8240345" lon="6.5754322"><ele>1037.3333333333335</ele><time>2026-05-01T16:41:01.871Z</time></trkpt><trkpt lat="43.8239159" lon="6.5752584"><ele>1034.6666666666667</ele><time>2026-05-01T16:41:02.871Z</time></trkpt><trkpt lat="43.8238578" lon="6.5750408"><ele>1032.0</ele><time>2026-05-01T16:41:03.871Z</time></trkpt><trkpt lat="43.8238291" lon="6.5748076"><ele>1030.0</ele><time>2026-05-01T16:41:04.871Z</time></trkpt><trkpt lat="43.823849" lon="6.5744974"><ele>1028.0</ele><time>2026-05-01T16:41:05.871Z</time></trkpt><trkpt lat="43.8238387" lon="6.5741434"><ele>1028.0</ele><time>2026-05-01T16:41:06.871Z</time></trkpt><trkpt lat="43.823853" lon="6.5738378"><ele>1028.0</ele><time>2026-05-01T16:41:07.871Z</time></trkpt><trkpt lat="43.823883" lon="6.5735331"><ele>1028.0</ele><time>2026-05-01T16:41:08.871Z</time></trkpt><trkpt lat="43.8239132" lon="6.5731635"><ele>1022.0</ele><time>2026-05-01T16:41:09.871Z</time></trkpt><trkpt lat="43.8239776" lon="6.5727956"><ele>1016.0</ele><time>2026-05-01T16:41:10.872Z</time></trkpt><trkpt lat="43.8240518" lon="6.5724424"><ele>1016.0</ele><time>2026-05-01T16:41:11.871Z</time></trkpt><trkpt lat="43.8241291" lon="6.572096"><ele>1016.0</ele><time>2026-05-01T16:41:12.871Z</time></trkpt><trkpt lat="43.8242011" lon="6.5717556"><ele>1015.0</ele><time>2026-05-01T16:41:13.871Z</time></trkpt><trkpt lat="43.82424" lon="6.5714172"><ele>1014.0</ele><time>2026-05-01T16:41:14.871Z</time></trkpt><trkpt lat="43.8243254" lon="6.5710977"><ele>1018.0</ele><time>2026-05-01T16:41:15.871Z</time></trkpt><trkpt lat="43.8243482" lon="6.5707668"><ele>1022.0</ele><time>2026-05-01T16:41:16.871Z</time></trkpt><trkpt lat="43.8243831" lon="6.5704348"><ele>1018.0</ele><time>2026-05-01T16:41:17.872Z</time></trkpt><trkpt lat="43.8244172" lon="6.5700914"><ele>1014.0</ele><time>2026-05-01T16:41:18.872Z</time></trkpt><trkpt lat="43.8244753" lon="6.569768"><ele>1011.0</ele><time>2026-05-01T16:41:19.871Z</time></trkpt><trkpt lat="43.8245124" lon="6.5694901"><ele>1008.0</ele><time>2026-05-01T16:41:20.871Z</time></trkpt><trkpt lat="43.8245301" lon="6.569197"><ele>1005.0</ele><time>2026-05-01T16:41:21.871Z</time></trkpt><trkpt lat="43.8245683" lon="6.568904"><ele>1003.0</ele><time>2026-05-01T16:41:22.871Z</time></trkpt><trkpt lat="43.8245846" lon="6.5686411"><ele>1001.0</ele><time>2026-05-01T16:41:23.871Z</time></trkpt><trkpt lat="43.8246106" lon="6.5683793"><ele>999.0</ele><time>2026-05-01T16:41:24.871Z</time></trkpt><trkpt lat="43.8246376" lon="6.5681068"><ele>999.0</ele><time>2026-05-01T16:41:25.871Z</time></trkpt><trkpt lat="43.8246654" lon="6.5678533"><ele>999.0</ele><time>2026-05-01T16:41:26.871Z</time></trkpt><trkpt lat="43.8246845" lon="6.5675956"><ele>999.0</ele><time>2026-05-01T16:41:27.871Z</time></trkpt><trkpt lat="43.8247211" lon="6.5673475"><ele>999.0</ele><time>2026-05-01T16:41:28.871Z</time></trkpt><trkpt lat="43.8247861" lon="6.5671171"><ele>999.0</ele><time>2026-05-01T16:41:29.872Z</time></trkpt><trkpt lat="43.8248696" lon="6.5668947"><ele>999.0</ele><time>2026-05-01T16:41:30.872Z</time></trkpt><trkpt lat="43.8249444" lon="6.566696"><ele>997.0</ele><time>2026-05-01T16:41:31.871Z</time></trkpt><trkpt lat="43.8250421" lon="6.5665152"><ele>995.0</ele><time>2026-05-01T16:41:32.871Z</time></trkpt><trkpt lat="43.825138" lon="6.5663463"><ele>993.0</ele><time>2026-05-01T16:41:33.871Z</time></trkpt><trkpt lat="43.8252271" lon="6.5662369"><ele>991.0</ele><time>2026-05-01T16:41:34.871Z</time></trkpt><trkpt lat="43.8253461" lon="6.5661252"><ele>988.5</ele><time>2026-05-01T16:41:35.871Z</time></trkpt><trkpt lat="43.8254611" lon="6.566058"><ele>986.0</ele><time>2026-05-01T16:41:36.872Z</time></trkpt><trkpt lat="43.8256199" lon="6.5660436"><ele>983.5</ele><time>2026-05-01T16:41:37.871Z</time></trkpt><trkpt lat="43.8257775" lon="6.5660516"><ele>981.0</ele><time>2026-05-01T16:41:38.871Z</time></trkpt><trkpt lat="43.8259016" lon="6.5661192"><ele>975.6666666666667</ele><time>2026-05-01T16:41:39.872Z</time></trkpt><trkpt lat="43.8260491" lon="6.5662492"><ele>970.3333333333334</ele><time>2026-05-01T16:41:40.871Z</time></trkpt><trkpt lat="43.8261584" lon="6.5665045"><ele>965.0</ele><time>2026-05-01T16:41:41.871Z</time></trkpt><trkpt lat="43.8262572" lon="6.5667729"><ele>965.0</ele><time>2026-05-01T16:41:42.871Z</time></trkpt><trkpt lat="43.8263414" lon="6.5670013"><ele>965.0</ele><time>2026-05-01T16:41:43.871Z</time></trkpt><trkpt lat="43.8263976" lon="6.5671844"><ele>965.0</ele><time>2026-05-01T16:41:44.871Z</time></trkpt><trkpt lat="43.8264914" lon="6.5673801"><ele>967.0</ele><time>2026-05-01T16:41:45.871Z</time></trkpt><trkpt lat="43.8265726" lon="6.5675028"><ele>969.0</ele><time>2026-05-01T16:41:46.871Z</time></trkpt><trkpt lat="43.8266931" lon="6.567594"><ele>971.0</ele><time>2026-05-01T16:41:47.872Z</time></trkpt><trkpt lat="43.8268252" lon="6.5676739"><ele>973.0</ele><time>2026-05-01T16:41:48.871Z</time></trkpt><trkpt lat="43.8269417" lon="6.5677046"><ele>974.3333333333333</ele><time>2026-05-01T16:41:49.871Z</time></trkpt><trkpt lat="43.8271404" lon="6.5676434"><ele>975.6666666666667</ele><time>2026-05-01T16:41:50.872Z</time></trkpt><trkpt lat="43.827261" lon="6.5675237"><ele>977.0</ele><time>2026-05-01T16:41:51.871Z</time></trkpt><trkpt lat="43.827385" lon="6.5673384"><ele>977.0</ele><time>2026-05-01T16:41:52.871Z</time></trkpt><trkpt lat="43.8274917" lon="6.567175"><ele>977.0</ele><time>2026-05-01T16:41:53.871Z</time></trkpt><trkpt lat="43.8275921" lon="6.5669453"><ele>977.0</ele><time>2026-05-01T16:41:54.872Z</time></trkpt><trkpt lat="43.8276903" lon="6.5667642"><ele>974.5</ele><time>2026-05-01T16:41:55.871Z</time></trkpt><trkpt lat="43.8277018" lon="6.5663484"><ele>972.0</ele><time>2026-05-01T16:41:56.871Z</time></trkpt><trkpt lat="43.8277581" lon="6.5660651"><ele>971.6666666666667</ele><time>2026-05-01T16:41:57.871Z</time></trkpt><trkpt lat="43.8277352" lon="6.5657694"><ele>971.3333333333334</ele><time>2026-05-01T16:41:58.871Z</time></trkpt><trkpt lat="43.8277638" lon="6.5655395"><ele>971.0</ele><time>2026-05-01T16:41:59.871Z</time></trkpt><trkpt lat="43.8278041" lon="6.5653514"><ele>969.0</ele><time>2026-05-01T16:42:00.871Z</time></trkpt><trkpt lat="43.8278585" lon="6.5651668"><ele>967.0</ele><time>2026-05-01T16:42:01.871Z</time></trkpt><trkpt lat="43.82794" lon="6.5649852"><ele>965.0</ele><time>2026-05-01T16:42:02.871Z</time></trkpt><trkpt lat="43.8280165" lon="6.5648107"><ele>963.0</ele><time>2026-05-01T16:42:03.872Z</time></trkpt><trkpt lat="43.8281511" lon="6.564614"><ele>959.3333333333333</ele><time>2026-05-01T16:42:04.872Z</time></trkpt><trkpt lat="43.8283172" lon="6.564413"><ele>955.6666666666666</ele><time>2026-05-01T16:42:05.871Z</time></trkpt><trkpt lat="43.8284649" lon="6.564253"><ele>952.0</ele><time>2026-05-01T16:42:06.871Z</time></trkpt><trkpt lat="43.8286587" lon="6.5640236"><ele>952.0</ele><time>2026-05-01T16:42:07.871Z</time></trkpt><trkpt lat="43.8288126" lon="6.5638364"><ele>952.0</ele><time>2026-05-01T16:42:08.871Z</time></trkpt><trkpt lat="43.8289841" lon="6.5636301"><ele>952.0</ele><time>2026-05-01T16:42:09.871Z</time></trkpt><trkpt lat="43.8291654" lon="6.5634368"><ele>948.3333333333333</ele><time>2026-05-01T16:42:10.871Z</time></trkpt><trkpt lat="43.8293538" lon="6.5632722"><ele>944.6666666666667</ele><time>2026-05-01T16:42:11.871Z</time></trkpt><trkpt lat="43.8295207" lon="6.5630976"><ele>941.0</ele><time>2026-05-01T16:42:12.871Z</time></trkpt><trkpt lat="43.82968" lon="6.5629865"><ele>938.3333333333334</ele><time>2026-05-01T16:42:13.871Z</time></trkpt><trkpt lat="43.829843" lon="6.5628302"><ele>935.6666666666667</ele><time>2026-05-01T16:42:14.871Z</time></trkpt><trkpt lat="43.8300092" lon="6.5627025"><ele>933.0</ele><time>2026-05-01T16:42:15.871Z</time></trkpt><trkpt lat="43.8301899" lon="6.5625585"><ele>933.0</ele><time>2026-05-01T16:42:16.871Z</time></trkpt><trkpt lat="43.8303093" lon="6.5623998"><ele>933.0</ele><time>2026-05-01T16:42:17.871Z</time></trkpt><trkpt lat="43.8303965" lon="6.5622322"><ele>933.0</ele><time>2026-05-01T16:42:18.871Z</time></trkpt><trkpt lat="43.830454" lon="6.5620764"><ele>933.0</ele><time>2026-05-01T16:42:19.871Z</time></trkpt><trkpt lat="43.8304832" lon="6.5619326"><ele>932.75</ele><time>2026-05-01T16:42:20.871Z</time></trkpt><trkpt lat="43.8305092" lon="6.5617031"><ele>932.5</ele><time>2026-05-01T16:42:21.871Z</time></trkpt><trkpt lat="43.8305167" lon="6.5615057"><ele>932.25</ele><time>2026-05-01T16:42:22.871Z</time></trkpt><trkpt lat="43.8305013" lon="6.5613331"><ele>932.0</ele><time>2026-05-01T16:42:23.871Z</time></trkpt><trkpt lat="43.8304908" lon="6.5611335"><ele>932.0</ele><time>2026-05-01T16:42:24.872Z</time></trkpt><trkpt lat="43.8304763" lon="6.5609111"><ele>932.0</ele><time>2026-05-01T16:42:25.871Z</time></trkpt><trkpt lat="43.830461" lon="6.5607562"><ele>932.0</ele><time>2026-05-01T16:42:26.871Z</time></trkpt><trkpt lat="43.8304466" lon="6.5605932"><ele>932.0</ele><time>2026-05-01T16:42:27.871Z</time></trkpt><trkpt lat="43.8304257" lon="6.5604053"><ele>934.0</ele><time>2026-05-01T16:42:28.872Z</time></trkpt><trkpt lat="43.8303998" lon="6.5601949"><ele>936.0</ele><time>2026-05-01T16:42:29.871Z</time></trkpt><trkpt lat="43.8304273" lon="6.5600356"><ele>938.0</ele><time>2026-05-01T16:42:30.871Z</time></trkpt><trkpt lat="43.8304036" lon="6.5598786"><ele>940.0</ele><time>2026-05-01T16:42:31.871Z</time></trkpt><trkpt lat="43.8303901" lon="6.5596849"><ele>942.0</ele><time>2026-05-01T16:42:32.871Z</time></trkpt><trkpt lat="43.8303698" lon="6.5594698"><ele>944.0</ele><time>2026-05-01T16:42:33.871Z</time></trkpt><trkpt lat="43.8303465" lon="6.5592826"><ele>946.0</ele><time>2026-05-01T16:42:34.871Z</time></trkpt><trkpt lat="43.830326" lon="6.5590634"><ele>946.0</ele><time>2026-05-01T16:42:35.871Z</time></trkpt><trkpt lat="43.8303247" lon="6.5588527"><ele>946.0</ele><time>2026-05-01T16:42:36.871Z</time></trkpt><trkpt lat="43.8303572" lon="6.5586621"><ele>946.0</ele><time>2026-05-01T16:42:37.871Z</time></trkpt><trkpt lat="43.8303657" lon="6.5584853"><ele>946.0</ele><time>2026-05-01T16:42:38.871Z</time></trkpt><trkpt lat="43.8303944" lon="6.5582788"><ele>944.75</ele><time>2026-05-01T16:42:39.871Z</time></trkpt><trkpt lat="43.8304382" lon="6.5581049"><ele>943.5</ele><time>2026-05-01T16:42:40.871Z</time></trkpt><trkpt lat="43.8304677" lon="6.5579389"><ele>942.25</ele><time>2026-05-01T16:42:41.871Z</time></trkpt><trkpt lat="43.8304845" lon="6.557765"><ele>941.0</ele><time>2026-05-01T16:42:42.871Z</time></trkpt><trkpt lat="43.8305311" lon="6.5575608"><ele>939.5</ele><time>2026-05-01T16:42:43.871Z</time></trkpt><trkpt lat="43.8305366" lon="6.5573608"><ele>938.0</ele><time>2026-05-01T16:42:44.871Z</time></trkpt><trkpt lat="43.8305349" lon="6.5571812"><ele>936.5</ele><time>2026-05-01T16:42:45.871Z</time></trkpt><trkpt lat="43.8305407" lon="6.5569695"><ele>935.0</ele><time>2026-05-01T16:42:46.871Z</time></trkpt><trkpt lat="43.8305628" lon="6.5567739"><ele>934.0</ele><time>2026-05-01T16:42:47.871Z</time></trkpt><trkpt lat="43.8305973" lon="6.5566189"><ele>933.0</ele><time>2026-05-01T16:42:48.871Z</time></trkpt><trkpt lat="43.8306371" lon="6.5564453"><ele>932.0</ele><time>2026-05-01T16:42:49.871Z</time></trkpt><trkpt lat="43.8306778" lon="6.5562751"><ele>931.0</ele><time>2026-05-01T16:42:50.871Z</time></trkpt><trkpt lat="43.8307152" lon="6.5561365"><ele>929.0</ele><time>2026-05-01T16:42:51.871Z</time></trkpt><trkpt lat="43.8307604" lon="6.555911"><ele>927.0</ele><time>2026-05-01T16:42:52.871Z</time></trkpt><trkpt lat="43.8308311" lon="6.5557079"><ele>925.0</ele><time>2026-05-01T16:42:53.871Z</time></trkpt><trkpt lat="43.8309201" lon="6.5554631"><ele>923.75</ele><time>2026-05-01T16:42:54.871Z</time></trkpt><trkpt lat="43.8309727" lon="6.5552714"><ele>922.5</ele><time>2026-05-01T16:42:55.871Z</time></trkpt><trkpt lat="43.8310287" lon="6.5550874"><ele>921.25</ele><time>2026-05-01T16:42:56.871Z</time></trkpt><trkpt lat="43.8310808" lon="6.5548838"><ele>920.0</ele><time>2026-05-01T16:42:57.871Z</time></trkpt><trkpt lat="43.8311296" lon="6.5547059"><ele>924.3333333333334</ele><time>2026-05-01T16:42:58.871Z</time></trkpt><trkpt lat="43.831165" lon="6.5545122"><ele>928.6666666666667</ele><time>2026-05-01T16:42:59.871Z</time></trkpt><trkpt lat="43.8312203" lon="6.5542854"><ele>933.0</ele><time>2026-05-01T16:43:00.871Z</time></trkpt><trkpt lat="43.8312481" lon="6.5540762"><ele>933.0</ele><time>2026-05-01T16:43:01.871Z</time></trkpt><trkpt lat="43.8312664" lon="6.5538258"><ele>933.0</ele><time>2026-05-01T16:43:02.871Z</time></trkpt><trkpt lat="43.8312848" lon="6.5535971"><ele>933.0</ele><time>2026-05-01T16:43:03.871Z</time></trkpt><trkpt lat="43.8312797" lon="6.5533778"><ele>933.0</ele><time>2026-05-01T16:43:04.871Z</time></trkpt><trkpt lat="43.8312673" lon="6.5531752"><ele>933.0</ele><time>2026-05-01T16:43:05.871Z</time></trkpt><trkpt lat="43.8312456" lon="6.5529388"><ele>933.0</ele><time>2026-05-01T16:43:06.871Z</time></trkpt><trkpt lat="43.8312291" lon="6.5527065"><ele>933.6666666666667</ele><time>2026-05-01T16:43:07.871Z</time></trkpt><trkpt lat="43.8312053" lon="6.5524856"><ele>934.3333333333334</ele><time>2026-05-01T16:43:08.871Z</time></trkpt><trkpt lat="43.8311869" lon="6.5522667"><ele>935.0</ele><time>2026-05-01T16:43:09.871Z</time></trkpt><trkpt lat="43.8311688" lon="6.5520849"><ele>933.2</ele><time>2026-05-01T16:43:10.871Z</time></trkpt><trkpt lat="43.8311561" lon="6.5519386"><ele>931.4</ele><time>2026-05-01T16:43:11.871Z</time></trkpt><trkpt lat="43.8311741" lon="6.5518263"><ele>929.5999999999999</ele><time>2026-05-01T16:43:12.871Z</time></trkpt><trkpt lat="43.8312283" lon="6.5516919"><ele>927.8</ele><time>2026-05-01T16:43:13.871Z</time></trkpt><trkpt lat="43.8312918" lon="6.5515529"><ele>926.0</ele><time>2026-05-01T16:43:14.871Z</time></trkpt><trkpt lat="43.8313504" lon="6.5513801"><ele>926.0</ele><time>2026-05-01T16:43:15.871Z</time></trkpt><trkpt lat="43.8314247" lon="6.551287"><ele>926.0</ele><time>2026-05-01T16:43:16.872Z</time></trkpt><trkpt lat="43.8315457" lon="6.5510975"><ele>926.0</ele><time>2026-05-01T16:43:17.872Z</time></trkpt><trkpt lat="43.8316343" lon="6.5509814"><ele>926.0</ele><time>2026-05-01T16:43:18.871Z</time></trkpt><trkpt lat="43.831791" lon="6.5508208"><ele>925.0</ele><time>2026-05-01T16:43:19.871Z</time></trkpt><trkpt lat="43.8319214" lon="6.5506938"><ele>924.0</ele><time>2026-05-01T16:43:20.871Z</time></trkpt><trkpt lat="43.8321114" lon="6.5505501"><ele>923.0</ele><time>2026-05-01T16:43:21.871Z</time></trkpt><trkpt lat="43.8323294" lon="6.5504478"><ele>921.6666666666667</ele><time>2026-05-01T16:43:22.871Z</time></trkpt><trkpt lat="43.8325359" lon="6.5503287"><ele>920.3333333333333</ele><time>2026-05-01T16:43:23.872Z</time></trkpt><trkpt lat="43.8327181" lon="6.5502319"><ele>919.0</ele><time>2026-05-01T16:43:24.871Z</time></trkpt><trkpt lat="43.8329044" lon="6.5501205"><ele>919.0</ele><time>2026-05-01T16:43:25.871Z</time></trkpt><trkpt lat="43.8330706" lon="6.5499734"><ele>919.0</ele><time>2026-05-01T16:43:26.871Z</time></trkpt><trkpt lat="43.8332041" lon="6.5498174"><ele>919.0</ele><time>2026-05-01T16:43:27.871Z</time></trkpt><trkpt lat="43.8333595" lon="6.549658"><ele>915.6666666666666</ele><time>2026-05-01T16:43:28.871Z</time></trkpt><trkpt lat="43.8335208" lon="6.5495262"><ele>912.3333333333333</ele><time>2026-05-01T16:43:29.871Z</time></trkpt><trkpt lat="43.8336574" lon="6.5493709"><ele>909.0</ele><time>2026-05-01T16:43:30.871Z</time></trkpt><trkpt lat="43.8337991" lon="6.5492574"><ele>909.0</ele><time>2026-05-01T16:43:31.871Z</time></trkpt><trkpt lat="43.8339069" lon="6.549173"><ele>909.0</ele><time>2026-05-01T16:43:32.871Z</time></trkpt><trkpt lat="43.8340408" lon="6.5491387"><ele>909.0</ele><time>2026-05-01T16:43:33.871Z</time></trkpt><trkpt lat="43.8341823" lon="6.5491403"><ele>909.0</ele><time>2026-05-01T16:43:34.871Z</time></trkpt><trkpt lat="43.8343161" lon="6.5490623"><ele>909.3333333333333</ele><time>2026-05-01T16:43:36.872Z</time></trkpt><trkpt lat="43.8344877" lon="6.5489515"><ele>909.6666666666666</ele><time>2026-05-01T16:43:38.871Z</time></trkpt><trkpt lat="43.8346378" lon="6.5487252"><ele>910.0</ele><time>2026-05-01T16:43:39.871Z</time></trkpt><trkpt lat="43.8347768" lon="6.5485177"><ele>910.0</ele><time>2026-05-01T16:43:40.871Z</time></trkpt><trkpt lat="43.8348842" lon="6.5483284"><ele>910.0</ele><time>2026-05-01T16:43:41.871Z</time></trkpt><trkpt lat="43.8349729" lon="6.5481598"><ele>910.0</ele><time>2026-05-01T16:43:42.871Z</time></trkpt><trkpt lat="43.8350647" lon="6.5479891"><ele>905.75</ele><time>2026-05-01T16:43:43.871Z</time></trkpt><trkpt lat="43.8351418" lon="6.5478443"><ele>901.5</ele><time>2026-05-01T16:43:44.871Z</time></trkpt><trkpt lat="43.8352506" lon="6.5477164"><ele>897.25</ele><time>2026-05-01T16:43:45.871Z</time></trkpt><trkpt lat="43.8353721" lon="6.5476076"><ele>893.0</ele><time>2026-05-01T16:43:46.872Z</time></trkpt><trkpt lat="43.8354852" lon="6.5475136"><ele>893.0</ele><time>2026-05-01T16:43:47.871Z</time></trkpt><trkpt lat="43.8355961" lon="6.5474406"><ele>893.0</ele><time>2026-05-01T16:43:48.872Z</time></trkpt><trkpt lat="43.8357111" lon="6.5473711"><ele>893.0</ele><time>2026-05-01T16:43:49.871Z</time></trkpt><trkpt lat="43.8358043" lon="6.5473604"><ele>893.0</ele><time>2026-05-01T16:43:50.871Z</time></trkpt><trkpt lat="43.8359556" lon="6.54736"><ele>897.0</ele><time>2026-05-01T16:43:51.871Z</time></trkpt><trkpt lat="43.8360754" lon="6.5473563"><ele>901.0</ele><time>2026-05-01T16:43:52.871Z</time></trkpt><trkpt lat="43.8362125" lon="6.5473279"><ele>905.0</ele><time>2026-05-01T16:43:53.871Z</time></trkpt><trkpt lat="43.8363218" lon="6.5472503"><ele>909.0</ele><time>2026-05-01T16:43:54.871Z</time></trkpt><trkpt lat="43.8363968" lon="6.5471802"><ele>901.5</ele><time>2026-05-01T16:43:55.871Z</time></trkpt><trkpt lat="43.8364783" lon="6.54702"><ele>894.0</ele><time>2026-05-01T16:43:56.871Z</time></trkpt><trkpt lat="43.8365538" lon="6.5469106"><ele>886.5</ele><time>2026-05-01T16:43:57.871Z</time></trkpt><trkpt lat="43.8366147" lon="6.5467858"><ele>879.0</ele><time>2026-05-01T16:43:58.871Z</time></trkpt><trkpt lat="43.8366807" lon="6.5466908"><ele>879.0</ele><time>2026-05-01T16:43:59.871Z</time></trkpt><trkpt lat="43.8367726" lon="6.5466039"><ele>879.0000000000001</ele><time>2026-05-01T16:44:00.871Z</time></trkpt><trkpt lat="43.8368397" lon="6.5465854"><ele>879.0000000000001</ele><time>2026-05-01T16:44:01.871Z</time></trkpt><trkpt lat="43.8369396" lon="6.546582"><ele>879.0</ele><time>2026-05-01T16:44:02.871Z</time></trkpt><trkpt lat="43.8370525" lon="6.5465447"><ele>879.0</ele><time>2026-05-01T16:44:03.871Z</time></trkpt><trkpt lat="43.8372052" lon="6.5465027"><ele>882.6666666666667</ele><time>2026-05-01T16:44:04.871Z</time></trkpt><trkpt lat="43.8374107" lon="6.5464575"><ele>886.3333333333334</ele><time>2026-05-01T16:44:05.871Z</time></trkpt><trkpt lat="43.8376133" lon="6.5463841"><ele>890.0</ele><time>2026-05-01T16:44:06.872Z</time></trkpt><trkpt lat="43.837767" lon="6.5463174"><ele>883.3333333333334</ele><time>2026-05-01T16:44:07.871Z</time></trkpt><trkpt lat="43.8379216" lon="6.546109"><ele>876.6666666666667</ele><time>2026-05-01T16:44:08.871Z</time></trkpt><trkpt lat="43.8380926" lon="6.5459208"><ele>870.0</ele><time>2026-05-01T16:44:09.871Z</time></trkpt><trkpt lat="43.8382413" lon="6.5457885"><ele>870.0</ele><time>2026-05-01T16:44:10.871Z</time></trkpt><trkpt lat="43.838417" lon="6.5456815"><ele>870.0</ele><time>2026-05-01T16:44:11.871Z</time></trkpt><trkpt lat="43.838594" lon="6.5455352"><ele>870.0</ele><time>2026-05-01T16:44:12.871Z</time></trkpt><trkpt lat="43.8387143" lon="6.5454774"><ele>863.3333333333333</ele><time>2026-05-01T16:44:13.871Z</time></trkpt><trkpt lat="43.8388645" lon="6.5453358"><ele>856.6666666666666</ele><time>2026-05-01T16:44:14.871Z</time></trkpt><trkpt lat="43.8390618" lon="6.5451977"><ele>850.0</ele><time>2026-05-01T16:44:15.871Z</time></trkpt><trkpt lat="43.839217" lon="6.5450146"><ele>852.6666666666666</ele><time>2026-05-01T16:44:16.871Z</time></trkpt><trkpt lat="43.8393358" lon="6.5449332"><ele>855.3333333333333</ele><time>2026-05-01T16:44:17.871Z</time></trkpt><trkpt lat="43.8394661" lon="6.5448187"><ele>858.0</ele><time>2026-05-01T16:44:18.871Z</time></trkpt><trkpt lat="43.8396345" lon="6.5447535"><ele>858.0</ele><time>2026-05-01T16:44:19.871Z</time></trkpt><trkpt lat="43.8397768" lon="6.5447069"><ele>858.0</ele><time>2026-05-01T16:44:20.871Z</time></trkpt><trkpt lat="43.8399217" lon="6.5446853"><ele>858.0</ele><time>2026-05-01T16:44:21.871Z</time></trkpt><trkpt lat="43.8400404" lon="6.5446815"><ele>858.0</ele><time>2026-05-01T16:44:22.871Z</time></trkpt><trkpt lat="43.8401567" lon="6.5447131"><ele>852.3333333333333</ele><time>2026-05-01T16:44:23.872Z</time></trkpt><trkpt lat="43.8403362" lon="6.5448285"><ele>846.6666666666666</ele><time>2026-05-01T16:44:24.871Z</time></trkpt><trkpt lat="43.8405095" lon="6.5448945"><ele>841.0</ele><time>2026-05-01T16:44:25.871Z</time></trkpt><trkpt lat="43.8406615" lon="6.545021"><ele>841.0</ele><time>2026-05-01T16:44:26.871Z</time></trkpt><trkpt lat="43.8408059" lon="6.5451137"><ele>841.0</ele><time>2026-05-01T16:44:27.871Z</time></trkpt><trkpt lat="43.8409565" lon="6.5451886"><ele>841.0</ele><time>2026-05-01T16:44:28.871Z</time></trkpt><trkpt lat="43.8411023" lon="6.5452624"><ele>841.0</ele><time>2026-05-01T16:44:29.871Z</time></trkpt><trkpt lat="43.8412588" lon="6.5453223"><ele>841.0</ele><time>2026-05-01T16:44:30.871Z</time></trkpt><trkpt lat="43.8413894" lon="6.5453586"><ele>841.0</ele><time>2026-05-01T16:44:31.871Z</time></trkpt><trkpt lat="43.8415514" lon="6.5453843"><ele>841.0</ele><time>2026-05-01T16:44:32.871Z</time></trkpt><trkpt lat="43.8416741" lon="6.5454504"><ele>841.0</ele><time>2026-05-01T16:44:33.872Z</time></trkpt><trkpt lat="43.84177" lon="6.5455147"><ele>841.0</ele><time>2026-05-01T16:44:34.872Z</time></trkpt><trkpt lat="43.841807" lon="6.54565"><ele>841.0</ele><time>2026-05-01T16:44:35.871Z</time></trkpt><trkpt lat="43.8418543" lon="6.5457959"><ele>838.5</ele><time>2026-05-01T16:44:36.871Z</time></trkpt><trkpt lat="43.8418505" lon="6.5459618"><ele>836.0</ele><time>2026-05-01T16:44:37.871Z</time></trkpt><trkpt lat="43.8418962" lon="6.5461832"><ele>833.5</ele><time>2026-05-01T16:44:38.871Z</time></trkpt><trkpt lat="43.8419391" lon="6.5463757"><ele>831.0</ele><time>2026-05-01T16:44:39.871Z</time></trkpt><trkpt lat="43.8420333" lon="6.546546"><ele>831.0</ele><time>2026-05-01T16:44:40.871Z</time></trkpt><trkpt lat="43.8421403" lon="6.5467309"><ele>831.0</ele><time>2026-05-01T16:44:41.871Z</time></trkpt><trkpt lat="43.8421878" lon="6.546844"><ele>831.0</ele><time>2026-05-01T16:44:42.871Z</time></trkpt><trkpt lat="43.8422499" lon="6.5470042"><ele>831.0</ele><time>2026-05-01T16:44:43.871Z</time></trkpt><trkpt lat="43.8422813" lon="6.5471455"><ele>832.8</ele><time>2026-05-01T16:44:44.871Z</time></trkpt><trkpt lat="43.8423394" lon="6.5472225"><ele>834.5999999999999</ele><time>2026-05-01T16:44:45.871Z</time></trkpt><trkpt lat="43.8423941" lon="6.5472915"><ele>836.4</ele><time>2026-05-01T16:44:46.871Z</time></trkpt><trkpt lat="43.8425045" lon="6.5472507"><ele>838.2</ele><time>2026-05-01T16:44:48.871Z</time></trkpt><trkpt lat="43.8426361" lon="6.5470857"><ele>840.0</ele><time>2026-05-01T16:44:50.871Z</time></trkpt><trkpt lat="43.8426904" lon="6.5469501"><ele>843.0</ele><time>2026-05-01T16:44:51.871Z</time></trkpt><trkpt lat="43.8427771" lon="6.5467205"><ele>846.0</ele><time>2026-05-01T16:44:52.871Z</time></trkpt><trkpt lat="43.8429336" lon="6.5464734"><ele>849.0</ele><time>2026-05-01T16:44:53.871Z</time></trkpt><trkpt lat="43.8430707" lon="6.5462808"><ele>844.3333333333333</ele><time>2026-05-01T16:44:54.871Z</time></trkpt><trkpt lat="43.8431411" lon="6.5461667"><ele>839.6666666666666</ele><time>2026-05-01T16:44:55.871Z</time></trkpt><trkpt lat="43.8431145" lon="6.5459362"><ele>835.0</ele><time>2026-05-01T16:44:56.871Z</time></trkpt><trkpt lat="43.8431811" lon="6.5456572"><ele>835.0</ele><time>2026-05-01T16:44:57.871Z</time></trkpt><trkpt lat="43.8432687" lon="6.5454731"><ele>835.0</ele><time>2026-05-01T16:44:58.871Z</time></trkpt><trkpt lat="43.8433353" lon="6.5452983"><ele>835.0</ele><time>2026-05-01T16:44:59.871Z</time></trkpt><trkpt lat="43.8434059" lon="6.5451526"><ele>835.0</ele><time>2026-05-01T16:45:00.871Z</time></trkpt><trkpt lat="43.8434851" lon="6.5450573"><ele>835.25</ele><time>2026-05-01T16:45:01.871Z</time></trkpt><trkpt lat="43.8435719" lon="6.5449359"><ele>835.5</ele><time>2026-05-01T16:45:02.871Z</time></trkpt><trkpt lat="43.8436408" lon="6.5448138"><ele>835.75</ele><time>2026-05-01T16:45:03.871Z</time></trkpt><trkpt lat="43.8436481" lon="6.5446712"><ele>836.0</ele><time>2026-05-01T16:45:04.871Z</time></trkpt><trkpt lat="43.8436629" lon="6.5444959"><ele>836.0</ele><time>2026-05-01T16:45:05.871Z</time></trkpt><trkpt lat="43.843616" lon="6.5442113"><ele>836.0</ele><time>2026-05-01T16:45:06.871Z</time></trkpt><trkpt lat="43.8436396" lon="6.5439768"><ele>836.0</ele><time>2026-05-01T16:45:07.871Z</time></trkpt><trkpt lat="43.8435917" lon="6.5437349"><ele>832.25</ele><time>2026-05-01T16:45:08.872Z</time></trkpt><trkpt lat="43.8435634" lon="6.5435597"><ele>828.5</ele><time>2026-05-01T16:45:09.871Z</time></trkpt><trkpt lat="43.8435884" lon="6.5434747"><ele>824.75</ele><time>2026-05-01T16:45:10.871Z</time></trkpt><trkpt lat="43.8436564" lon="6.5433178"><ele>821.0</ele><time>2026-05-01T16:45:11.871Z</time></trkpt><trkpt lat="43.8437523" lon="6.5431106"><ele>821.0</ele><time>2026-05-01T16:45:12.871Z</time></trkpt><trkpt lat="43.8438508" lon="6.5428811"><ele>821.0</ele><time>2026-05-01T16:45:13.871Z</time></trkpt><trkpt lat="43.8439271" lon="6.5426406"><ele>821.0</ele><time>2026-05-01T16:45:14.871Z</time></trkpt><trkpt lat="43.8439823" lon="6.5424544"><ele>816.6666666666667</ele><time>2026-05-01T16:45:15.871Z</time></trkpt><trkpt lat="43.8440337" lon="6.5422482"><ele>812.3333333333333</ele><time>2026-05-01T16:45:16.871Z</time></trkpt><trkpt lat="43.8440674" lon="6.5420727"><ele>808.0</ele><time>2026-05-01T16:45:17.871Z</time></trkpt><trkpt lat="43.8440962" lon="6.5418443"><ele>805.6666666666666</ele><time>2026-05-01T16:45:18.871Z</time></trkpt><trkpt lat="43.8441106" lon="6.5416138"><ele>803.3333333333333</ele><time>2026-05-01T16:45:19.871Z</time></trkpt><trkpt lat="43.8440944" lon="6.5414192"><ele>801.0</ele><time>2026-05-01T16:45:20.871Z</time></trkpt><trkpt lat="43.8440852" lon="6.541221"><ele>799.6666666666667</ele><time>2026-05-01T16:45:21.871Z</time></trkpt><trkpt lat="43.8440491" lon="6.541045"><ele>798.3333333333334</ele><time>2026-05-01T16:45:22.871Z</time></trkpt><trkpt lat="43.843967" lon="6.5408399"><ele>797.0</ele><time>2026-05-01T16:45:23.871Z</time></trkpt><trkpt lat="43.8438878" lon="6.5406188"><ele>794.0</ele><time>2026-05-01T16:45:24.872Z</time></trkpt><trkpt lat="43.8438585" lon="6.5403823"><ele>791.0</ele><time>2026-05-01T16:45:25.871Z</time></trkpt><trkpt lat="43.8438672" lon="6.5401824"><ele>788.0</ele><time>2026-05-01T16:45:26.871Z</time></trkpt><trkpt lat="43.8438369" lon="6.539992"><ele>788.0</ele><time>2026-05-01T16:45:27.871Z</time></trkpt><trkpt lat="43.843801" lon="6.539837"><ele>788.0</ele><time>2026-05-01T16:45:28.871Z</time></trkpt><trkpt lat="43.8437404" lon="6.5396708"><ele>788.0</ele><time>2026-05-01T16:45:29.871Z</time></trkpt><trkpt lat="43.8436721" lon="6.5395461"><ele>788.0</ele><time>2026-05-01T16:45:30.871Z</time></trkpt><trkpt lat="43.843602" lon="6.5394366"><ele>786.75</ele><time>2026-05-01T16:45:31.871Z</time></trkpt><trkpt lat="43.8435311" lon="6.5393126"><ele>785.5</ele><time>2026-05-01T16:45:32.871Z</time></trkpt><trkpt lat="43.8434263" lon="6.5391909"><ele>784.25</ele><time>2026-05-01T16:45:33.872Z</time></trkpt><trkpt lat="43.8433264" lon="6.539088"><ele>783.0</ele><time>2026-05-01T16:45:34.871Z</time></trkpt><trkpt lat="43.843216" lon="6.53903"><ele>783.0</ele><time>2026-05-01T16:45:35.871Z</time></trkpt><trkpt lat="43.8430958" lon="6.538984"><ele>783.0</ele><time>2026-05-01T16:45:36.871Z</time></trkpt><trkpt lat="43.842934" lon="6.5389862"><ele>783.0</ele><time>2026-05-01T16:45:37.871Z</time></trkpt><trkpt lat="43.8428111" lon="6.5390131"><ele>783.0</ele><time>2026-05-01T16:45:38.871Z</time></trkpt><trkpt lat="43.8427016" lon="6.5390797"><ele>783.0</ele><time>2026-05-01T16:45:39.871Z</time></trkpt><trkpt lat="43.8426329" lon="6.5391313"><ele>783.0</ele><time>2026-05-01T16:45:40.871Z</time></trkpt><trkpt lat="43.842515" lon="6.5392419"><ele>783.0</ele><time>2026-05-01T16:45:41.871Z</time></trkpt><trkpt lat="43.8424331" lon="6.5393422"><ele>783.0</ele><time>2026-05-01T16:45:42.871Z</time></trkpt><trkpt lat="43.842358" lon="6.5394502"><ele>783.0</ele><time>2026-05-01T16:45:43.871Z</time></trkpt><trkpt lat="43.8422772" lon="6.5395349"><ele>780.75</ele><time>2026-05-01T16:45:44.871Z</time></trkpt><trkpt lat="43.8421959" lon="6.5395538"><ele>778.5</ele><time>2026-05-01T16:45:45.871Z</time></trkpt><trkpt lat="43.8420802" lon="6.5394274"><ele>776.25</ele><time>2026-05-01T16:45:47.872Z</time></trkpt><trkpt lat="43.8420652" lon="6.5392544"><ele>774.0</ele><time>2026-05-01T16:45:48.871Z</time></trkpt><trkpt lat="43.8420312" lon="6.5390866"><ele>774.0</ele><time>2026-05-01T16:45:49.871Z</time></trkpt><trkpt lat="43.8419793" lon="6.5388787"><ele>774.0</ele><time>2026-05-01T16:45:50.871Z</time></trkpt><trkpt lat="43.8419335" lon="6.5386226"><ele>774.0</ele><time>2026-05-01T16:45:51.871Z</time></trkpt><trkpt lat="43.841899" lon="6.5383894"><ele>774.6666666666667</ele><time>2026-05-01T16:45:52.871Z</time></trkpt><trkpt lat="43.8419016" lon="6.5381384"><ele>775.3333333333334</ele><time>2026-05-01T16:45:53.871Z</time></trkpt><trkpt lat="43.8419822" lon="6.5378388"><ele>776.0</ele><time>2026-05-01T16:45:54.871Z</time></trkpt><trkpt lat="43.8420182" lon="6.5375528"><ele>774.6666666666667</ele><time>2026-05-01T16:45:55.871Z</time></trkpt><trkpt lat="43.8420906" lon="6.5373347"><ele>773.3333333333333</ele><time>2026-05-01T16:45:56.871Z</time></trkpt><trkpt lat="43.8421429" lon="6.5370937"><ele>772.0</ele><time>2026-05-01T16:45:57.871Z</time></trkpt><trkpt lat="43.8422089" lon="6.5368394"><ele>768.0</ele><time>2026-05-01T16:45:58.871Z</time></trkpt><trkpt lat="43.8423086" lon="6.5366314"><ele>764.0</ele><time>2026-05-01T16:45:59.871Z</time></trkpt><trkpt lat="43.8423693" lon="6.5364047"><ele>760.0</ele><time>2026-05-01T16:46:00.871Z</time></trkpt><trkpt lat="43.8424378" lon="6.5361911"><ele>761.0</ele><time>2026-05-01T16:46:01.871Z</time></trkpt><trkpt lat="43.8425092" lon="6.5359709"><ele>762.0</ele><time>2026-05-01T16:46:02.871Z</time></trkpt><trkpt lat="43.8425868" lon="6.5357657"><ele>763.0</ele><time>2026-05-01T16:46:03.871Z</time></trkpt><trkpt lat="43.842667" lon="6.535633"><ele>763.0</ele><time>2026-05-01T16:46:04.871Z</time></trkpt><trkpt lat="43.8428081" lon="6.5354647"><ele>763.0</ele><time>2026-05-01T16:46:05.871Z</time></trkpt><trkpt lat="43.8429383" lon="6.5353113"><ele>763.0</ele><time>2026-05-01T16:46:06.871Z</time></trkpt><trkpt lat="43.8430667" lon="6.5351724"><ele>758.0</ele><time>2026-05-01T16:46:07.871Z</time></trkpt><trkpt lat="43.8432216" lon="6.5350326"><ele>753.0</ele><time>2026-05-01T16:46:08.871Z</time></trkpt><trkpt lat="43.8433554" lon="6.5348573"><ele>748.0</ele><time>2026-05-01T16:46:09.871Z</time></trkpt><trkpt lat="43.8434554" lon="6.5347458"><ele>746.0</ele><time>2026-05-01T16:46:10.871Z</time></trkpt><trkpt lat="43.8435788" lon="6.5346376"><ele>744.0</ele><time>2026-05-01T16:46:11.871Z</time></trkpt><trkpt lat="43.8437029" lon="6.5344757"><ele>742.0</ele><time>2026-05-01T16:46:12.871Z</time></trkpt><trkpt lat="43.8437687" lon="6.5343563"><ele>740.0</ele><time>2026-05-01T16:46:13.871Z</time></trkpt><trkpt lat="43.8438134" lon="6.5342593"><ele>739.0</ele><time>2026-05-01T16:46:14.871Z</time></trkpt><trkpt lat="43.8438234" lon="6.5341018"><ele>738.0</ele><time>2026-05-01T16:46:15.871Z</time></trkpt><trkpt lat="43.8438404" lon="6.5339029"><ele>737.0</ele><time>2026-05-01T16:46:16.871Z</time></trkpt><trkpt lat="43.8437968" lon="6.5336693"><ele>736.0</ele><time>2026-05-01T16:46:17.871Z</time></trkpt><trkpt lat="43.8437528" lon="6.5334439"><ele>735.6666666666667</ele><time>2026-05-01T16:46:18.871Z</time></trkpt><trkpt lat="43.8437281" lon="6.5332684"><ele>735.3333333333334</ele><time>2026-05-01T16:46:19.871Z</time></trkpt><trkpt lat="43.8436333" lon="6.5330492"><ele>735.0</ele><time>2026-05-01T16:46:20.871Z</time></trkpt><trkpt lat="43.8436122" lon="6.5328531"><ele>736.0</ele><time>2026-05-01T16:46:21.871Z</time></trkpt><trkpt lat="43.8435583" lon="6.5326181"><ele>737.0</ele><time>2026-05-01T16:46:22.871Z</time></trkpt><trkpt lat="43.8435005" lon="6.5324181"><ele>738.0</ele><time>2026-05-01T16:46:23.871Z</time></trkpt><trkpt lat="43.8434675" lon="6.5322358"><ele>737.6666666666666</ele><time>2026-05-01T16:46:24.871Z</time></trkpt><trkpt lat="43.8434275" lon="6.532026"><ele>737.3333333333333</ele><time>2026-05-01T16:46:25.871Z</time></trkpt><trkpt lat="43.843392" lon="6.5317983"><ele>737.0</ele><time>2026-05-01T16:46:26.871Z</time></trkpt><trkpt lat="43.8433546" lon="6.5316129"><ele>737.0</ele><time>2026-05-01T16:46:27.871Z</time></trkpt><trkpt lat="43.8433164" lon="6.5314154"><ele>737.0</ele><time>2026-05-01T16:46:28.871Z</time></trkpt><trkpt lat="43.8431794" lon="6.5310933"><ele>737.0</ele><time>2026-05-01T16:46:29.871Z</time></trkpt><trkpt lat="43.8431178" lon="6.5308847"><ele>736.3333333333333</ele><time>2026-05-01T16:46:30.872Z</time></trkpt><trkpt lat="43.8430619" lon="6.5306538"><ele>735.6666666666666</ele><time>2026-05-01T16:46:31.871Z</time></trkpt><trkpt lat="43.8429626" lon="6.5303955"><ele>735.0</ele><time>2026-05-01T16:46:32.871Z</time></trkpt><trkpt lat="43.8428776" lon="6.5301727"><ele>734.3333333333334</ele><time>2026-05-01T16:46:33.871Z</time></trkpt><trkpt lat="43.8428038" lon="6.5299179"><ele>733.6666666666667</ele><time>2026-05-01T16:46:34.871Z</time></trkpt><trkpt lat="43.8427499" lon="6.5296906"><ele>733.0</ele><time>2026-05-01T16:46:35.871Z</time></trkpt><trkpt lat="43.8426767" lon="6.5294493"><ele>732.3333333333334</ele><time>2026-05-01T16:46:36.871Z</time></trkpt><trkpt lat="43.842603" lon="6.5292095"><ele>731.6666666666666</ele><time>2026-05-01T16:46:37.871Z</time></trkpt><trkpt lat="43.8425335" lon="6.5289527"><ele>731.0</ele><time>2026-05-01T16:46:38.872Z</time></trkpt><trkpt lat="43.8424495" lon="6.528678"><ele>730.6666666666666</ele><time>2026-05-01T16:46:39.871Z</time></trkpt><trkpt lat="43.8423964" lon="6.5284108"><ele>730.3333333333334</ele><time>2026-05-01T16:46:40.871Z</time></trkpt><trkpt lat="43.8423514" lon="6.5281716"><ele>730.0</ele><time>2026-05-01T16:46:41.871Z</time></trkpt><trkpt lat="43.8423004" lon="6.5279303"><ele>730.0</ele><time>2026-05-01T16:46:42.871Z</time></trkpt><trkpt lat="43.8422438" lon="6.5277033"><ele>730.0</ele><time>2026-05-01T16:46:43.871Z</time></trkpt><trkpt lat="43.8421826" lon="6.5274638"><ele>730.0</ele><time>2026-05-01T16:46:44.871Z</time></trkpt><trkpt lat="43.8421176" lon="6.5272293"><ele>729.6666666666667</ele><time>2026-05-01T16:46:45.871Z</time></trkpt><trkpt lat="43.8420603" lon="6.5270295"><ele>729.3333333333334</ele><time>2026-05-01T16:46:46.871Z</time></trkpt><trkpt lat="43.8420515" lon="6.5268454"><ele>729.0</ele><time>2026-05-01T16:46:47.871Z</time></trkpt><trkpt lat="43.8420357" lon="6.5266183"><ele>729.0</ele><time>2026-05-01T16:46:48.871Z</time></trkpt><trkpt lat="43.8420255" lon="6.5263978"><ele>729.0</ele><time>2026-05-01T16:46:49.872Z</time></trkpt><trkpt lat="43.8420492" lon="6.5261695"><ele>729.0</ele><time>2026-05-01T16:46:50.871Z</time></trkpt><trkpt lat="43.8421198" lon="6.525925"><ele>730.3333333333334</ele><time>2026-05-01T16:46:51.871Z</time></trkpt><trkpt lat="43.8421837" lon="6.5257199"><ele>731.6666666666667</ele><time>2026-05-01T16:46:52.871Z</time></trkpt><trkpt lat="43.8423079" lon="6.5254489"><ele>733.0</ele><time>2026-05-01T16:46:53.871Z</time></trkpt><trkpt lat="43.8423926" lon="6.5252081"><ele>731.3333333333334</ele><time>2026-05-01T16:46:54.871Z</time></trkpt><trkpt lat="43.8425086" lon="6.5250158"><ele>729.6666666666666</ele><time>2026-05-01T16:46:55.871Z</time></trkpt><trkpt lat="43.8425882" lon="6.5248045"><ele>728.0</ele><time>2026-05-01T16:46:56.871Z</time></trkpt><trkpt lat="43.842696" lon="6.5245708"><ele>728.3333333333333</ele><time>2026-05-01T16:46:57.871Z</time></trkpt><trkpt lat="43.8427705" lon="6.5243316"><ele>728.6666666666666</ele><time>2026-05-01T16:46:58.871Z</time></trkpt><trkpt lat="43.8428314" lon="6.5240958"><ele>729.0</ele><time>2026-05-01T16:46:59.871Z</time></trkpt><trkpt lat="43.8428829" lon="6.523915"><ele>729.6666666666666</ele><time>2026-05-01T16:47:00.871Z</time></trkpt><trkpt lat="43.8429359" lon="6.5236511"><ele>730.3333333333333</ele><time>2026-05-01T16:47:01.871Z</time></trkpt><trkpt lat="43.8430015" lon="6.5233949"><ele>731.0</ele><time>2026-05-01T16:47:02.871Z</time></trkpt><trkpt lat="43.843031" lon="6.5231546"><ele>731.0</ele><time>2026-05-01T16:47:03.871Z</time></trkpt><trkpt lat="43.8430984" lon="6.5229092"><ele>731.0</ele><time>2026-05-01T16:47:04.871Z</time></trkpt><trkpt lat="43.8431761" lon="6.5226967"><ele>731.0</ele><time>2026-05-01T16:47:05.871Z</time></trkpt><trkpt lat="43.8432272" lon="6.5224755"><ele>730.3333333333333</ele><time>2026-05-01T16:47:06.872Z</time></trkpt><trkpt lat="43.8433621" lon="6.5222425"><ele>729.6666666666666</ele><time>2026-05-01T16:47:07.871Z</time></trkpt><trkpt lat="43.8434999" lon="6.5220142"><ele>729.0</ele><time>2026-05-01T16:47:08.871Z</time></trkpt><trkpt lat="43.8436137" lon="6.5217992"><ele>729.0</ele><time>2026-05-01T16:47:09.871Z</time></trkpt><trkpt lat="43.8437333" lon="6.5215666"><ele>729.0</ele><time>2026-05-01T16:47:10.871Z</time></trkpt><trkpt lat="43.8438637" lon="6.5213508"><ele>729.0</ele><time>2026-05-01T16:47:11.871Z</time></trkpt><trkpt lat="43.8439678" lon="6.5211667"><ele>732.6666666666666</ele><time>2026-05-01T16:47:12.871Z</time></trkpt><trkpt lat="43.8440743" lon="6.5209793"><ele>736.3333333333333</ele><time>2026-05-01T16:47:13.871Z</time></trkpt><trkpt lat="43.8441669" lon="6.5207547"><ele>740.0</ele><time>2026-05-01T16:47:14.871Z</time></trkpt><trkpt lat="43.8442573" lon="6.5205246"><ele>735.6666666666666</ele><time>2026-05-01T16:47:15.871Z</time></trkpt><trkpt lat="43.8443627" lon="6.5202831"><ele>731.3333333333334</ele><time>2026-05-01T16:47:16.872Z</time></trkpt><trkpt lat="43.8444263" lon="6.5200281"><ele>727.0</ele><time>2026-05-01T16:47:17.871Z</time></trkpt><trkpt lat="43.8444729" lon="6.5197599"><ele>727.3333333333334</ele><time>2026-05-01T16:47:18.872Z</time></trkpt><trkpt lat="43.8445298" lon="6.5194895"><ele>727.6666666666666</ele><time>2026-05-01T16:47:19.871Z</time></trkpt><trkpt lat="43.8445821" lon="6.5191931"><ele>728.0</ele><time>2026-05-01T16:47:20.871Z</time></trkpt><trkpt lat="43.844639" lon="6.5189262"><ele>731.6666666666666</ele><time>2026-05-01T16:47:21.871Z</time></trkpt><trkpt lat="43.8446772" lon="6.5186671"><ele>735.3333333333334</ele><time>2026-05-01T16:47:22.871Z</time></trkpt><trkpt lat="43.8447311" lon="6.5184464"><ele>739.0</ele><time>2026-05-01T16:47:23.871Z</time></trkpt><trkpt lat="43.8447501" lon="6.5182041"><ele>739.0</ele><time>2026-05-01T16:47:24.871Z</time></trkpt><trkpt lat="43.8448107" lon="6.5179601"><ele>739.0</ele><time>2026-05-01T16:47:25.871Z</time></trkpt><trkpt lat="43.8448806" lon="6.5177244"><ele>739.0</ele><time>2026-05-01T16:47:26.871Z</time></trkpt><trkpt lat="43.8449681" lon="6.5175266"><ele>743.0</ele><time>2026-05-01T16:47:27.871Z</time></trkpt><trkpt lat="43.8450241" lon="6.5173118"><ele>747.0</ele><time>2026-05-01T16:47:28.871Z</time></trkpt><trkpt lat="43.845064" lon="6.5171183"><ele>751.0</ele><time>2026-05-01T16:47:29.871Z</time></trkpt><trkpt lat="43.8451185" lon="6.5169551"><ele>755.0</ele><time>2026-05-01T16:47:30.871Z</time></trkpt><trkpt lat="43.8451455" lon="6.5167601"><ele>745.0</ele><time>2026-05-01T16:47:31.871Z</time></trkpt><trkpt lat="43.845158" lon="6.5165275"><ele>735.0</ele><time>2026-05-01T16:47:32.871Z</time></trkpt><trkpt lat="43.8451803" lon="6.5163535"><ele>725.0</ele><time>2026-05-01T16:47:33.871Z</time></trkpt><trkpt lat="43.8451405" lon="6.5161336"><ele>729.75</ele><time>2026-05-01T16:47:34.871Z</time></trkpt><trkpt lat="43.8451112" lon="6.5159597"><ele>734.5</ele><time>2026-05-01T16:47:35.871Z</time></trkpt><trkpt lat="43.8451145" lon="6.5158028"><ele>739.25</ele><time>2026-05-01T16:47:36.871Z</time></trkpt><trkpt lat="43.845114" lon="6.5156458"><ele>744.0</ele><time>2026-05-01T16:47:37.871Z</time></trkpt><trkpt lat="43.8451105" lon="6.5154539"><ele>741.8000000000001</ele><time>2026-05-01T16:47:38.871Z</time></trkpt><trkpt lat="43.8450873" lon="6.515302"><ele>739.6</ele><time>2026-05-01T16:47:39.871Z</time></trkpt><trkpt lat="43.8450867" lon="6.5151647"><ele>737.4</ele><time>2026-05-01T16:47:40.871Z</time></trkpt><trkpt lat="43.8451197" lon="6.5150019"><ele>735.2</ele><time>2026-05-01T16:47:41.871Z</time></trkpt><trkpt lat="43.8451606" lon="6.5148519"><ele>733.0</ele><time>2026-05-01T16:47:42.871Z</time></trkpt><trkpt lat="43.8452168" lon="6.514743"><ele>730.75</ele><time>2026-05-01T16:47:43.871Z</time></trkpt><trkpt lat="43.8452869" lon="6.5146384"><ele>728.5</ele><time>2026-05-01T16:47:44.871Z</time></trkpt><trkpt lat="43.8453829" lon="6.5145349"><ele>726.25</ele><time>2026-05-01T16:47:45.871Z</time></trkpt><trkpt lat="43.8454781" lon="6.5144238"><ele>724.0</ele><time>2026-05-01T16:47:46.871Z</time></trkpt><trkpt lat="43.8455845" lon="6.5143106"><ele>724.0</ele><time>2026-05-01T16:47:47.871Z</time></trkpt><trkpt lat="43.8456846" lon="6.5141936"><ele>724.0</ele><time>2026-05-01T16:47:48.872Z</time></trkpt><trkpt lat="43.8457719" lon="6.5140767"><ele>724.0</ele><time>2026-05-01T16:47:49.871Z</time></trkpt><trkpt lat="43.8458197" lon="6.5139712"><ele>724.0</ele><time>2026-05-01T16:47:50.871Z</time></trkpt><trkpt lat="43.8458795" lon="6.5138453"><ele>723.8000000000001</ele><time>2026-05-01T16:47:51.871Z</time></trkpt><trkpt lat="43.8459163" lon="6.5136982"><ele>723.6</ele><time>2026-05-01T16:47:52.871Z</time></trkpt><trkpt lat="43.8459277" lon="6.5135865"><ele>723.4</ele><time>2026-05-01T16:47:53.871Z</time></trkpt><trkpt lat="43.8459504" lon="6.5134688"><ele>723.2</ele><time>2026-05-01T16:47:54.871Z</time></trkpt><trkpt lat="43.8460021" lon="6.5132771"><ele>723.0</ele><time>2026-05-01T16:47:56.871Z</time></trkpt><trkpt lat="43.8460307" lon="6.5131568"><ele>723.6666666666666</ele><time>2026-05-01T16:47:57.871Z</time></trkpt><trkpt lat="43.8460292" lon="6.5130248"><ele>724.3333333333334</ele><time>2026-05-01T16:47:58.871Z</time></trkpt><trkpt lat="43.8460607" lon="6.5128912"><ele>725.0</ele><time>2026-05-01T16:47:59.871Z</time></trkpt><trkpt lat="43.8460706" lon="6.5127884"><ele>725.6666666666667</ele><time>2026-05-01T16:48:00.871Z</time></trkpt><trkpt lat="43.8461052" lon="6.5127066"><ele>726.3333333333334</ele><time>2026-05-01T16:48:01.871Z</time></trkpt><trkpt lat="43.8461517" lon="6.5126195"><ele>727.0</ele><time>2026-05-01T16:48:03.871Z</time></trkpt><trkpt lat="43.8462155" lon="6.5125626"><ele>727.0</ele><time>2026-05-01T16:48:05.871Z</time></trkpt><trkpt lat="43.8462992" lon="6.5125808"><ele>727.0</ele><time>2026-05-01T16:48:07.871Z</time></trkpt><trkpt lat="43.846388" lon="6.512622"><ele>727.0</ele><time>2026-05-01T16:48:09.871Z</time></trkpt><trkpt lat="43.8464883" lon="6.5126576"><ele>727.0</ele><time>2026-05-01T16:48:10.871Z</time></trkpt><trkpt lat="43.8466072" lon="6.5126694"><ele>727.0</ele><time>2026-05-01T16:48:12.871Z</time></trkpt><trkpt lat="43.8467561" lon="6.5126166"><ele>728.5</ele><time>2026-05-01T16:48:14.871Z</time></trkpt><trkpt lat="43.846863" lon="6.5125545"><ele>730.0</ele><time>2026-05-01T16:48:15.871Z</time></trkpt><trkpt lat="43.8469719" lon="6.5125049"><ele>731.5</ele><time>2026-05-01T16:48:16.871Z</time></trkpt><trkpt lat="43.8470598" lon="6.5124857"><ele>733.0</ele><time>2026-05-01T16:48:17.871Z</time></trkpt><trkpt lat="43.8472251" lon="6.5124318"><ele>733.0</ele><time>2026-05-01T16:48:18.871Z</time></trkpt><trkpt lat="43.8472498" lon="6.5123176"><ele>733.0</ele><time>2026-05-01T16:48:20.871Z</time></trkpt><trkpt lat="43.8473494" lon="6.5122948"><ele>733.0</ele><time>2026-05-01T16:48:21.871Z</time></trkpt><trkpt lat="43.8474159" lon="6.5123104"><ele>733.0</ele><time>2026-05-01T16:48:22.871Z</time></trkpt><trkpt lat="43.8475099" lon="6.5122519"><ele>733.0</ele><time>2026-05-01T16:48:23.871Z</time></trkpt><trkpt lat="43.8476157" lon="6.5122561"><ele>734.5999999999999</ele><time>2026-05-01T16:48:24.871Z</time></trkpt><trkpt lat="43.8477157" lon="6.5122412"><ele>736.1999999999999</ele><time>2026-05-01T16:48:25.871Z</time></trkpt><trkpt lat="43.8478274" lon="6.5120358"><ele>737.8</ele><time>2026-05-01T16:48:28.871Z</time></trkpt><trkpt lat="43.8478839" lon="6.511974"><ele>739.4</ele><time>2026-05-01T16:48:29.871Z</time></trkpt><trkpt lat="43.8479372" lon="6.5119074"><ele>741.0</ele><time>2026-05-01T16:48:30.871Z</time></trkpt><trkpt lat="43.8480647" lon="6.5116817"><ele>741.0</ele><time>2026-05-01T16:48:32.871Z</time></trkpt><trkpt lat="43.848131" lon="6.5115683"><ele>741.0</ele><time>2026-05-01T16:48:33.871Z</time></trkpt><trkpt lat="43.8481926" lon="6.5114484"><ele>741.0</ele><time>2026-05-01T16:48:34.871Z</time></trkpt><trkpt lat="43.8482628" lon="6.5113309"><ele>741.0</ele><time>2026-05-01T16:48:35.871Z</time></trkpt><trkpt lat="43.8483345" lon="6.5112332"><ele>741.0</ele><time>2026-05-01T16:48:36.871Z</time></trkpt><trkpt lat="43.8483487" lon="6.5110997"><ele>739.8333333333334</ele><time>2026-05-01T16:48:37.872Z</time></trkpt><trkpt lat="43.8483851" lon="6.5110078"><ele>738.6666666666666</ele><time>2026-05-01T16:48:38.871Z</time></trkpt><trkpt lat="43.8484298" lon="6.5109071"><ele>737.5</ele><time>2026-05-01T16:48:39.871Z</time></trkpt><trkpt lat="43.8484748" lon="6.5108023"><ele>736.3333333333333</ele><time>2026-05-01T16:48:40.871Z</time></trkpt><trkpt lat="43.8484768" lon="6.5106809"><ele>735.1666666666666</ele><time>2026-05-01T16:48:41.871Z</time></trkpt><trkpt lat="43.8484968" lon="6.510579"><ele>734.0</ele><time>2026-05-01T16:48:42.871Z</time></trkpt><trkpt lat="43.848539" lon="6.5104774"><ele>737.2</ele><time>2026-05-01T16:48:43.871Z</time></trkpt><trkpt lat="43.8485951" lon="6.5103406"><ele>740.4000000000001</ele><time>2026-05-01T16:48:44.871Z</time></trkpt><trkpt lat="43.8486194" lon="6.5101976"><ele>743.6</ele><time>2026-05-01T16:48:45.871Z</time></trkpt><trkpt lat="43.8486804" lon="6.5100634"><ele>746.8</ele><time>2026-05-01T16:48:46.872Z</time></trkpt><trkpt lat="43.8487267" lon="6.5099567"><ele>750.0</ele><time>2026-05-01T16:48:47.871Z</time></trkpt><trkpt lat="43.8487892" lon="6.5098114"><ele>750.0</ele><time>2026-05-01T16:48:48.871Z</time></trkpt><trkpt lat="43.8488358" lon="6.5097032"><ele>750.0</ele><time>2026-05-01T16:48:49.871Z</time></trkpt><trkpt lat="43.8488995" lon="6.509538"><ele>750.0</ele><time>2026-05-01T16:48:50.871Z</time></trkpt><trkpt lat="43.8490076" lon="6.5094254"><ele>750.0</ele><time>2026-05-01T16:48:51.871Z</time></trkpt><trkpt lat="43.8490894" lon="6.5093204"><ele>749.75</ele><time>2026-05-01T16:48:52.871Z</time></trkpt><trkpt lat="43.8492001" lon="6.5091875"><ele>749.5</ele><time>2026-05-01T16:48:53.871Z</time></trkpt><trkpt lat="43.8492709" lon="6.5091133"><ele>749.25</ele><time>2026-05-01T16:48:54.871Z</time></trkpt><trkpt lat="43.8493857" lon="6.509015"><ele>749.0</ele><time>2026-05-01T16:48:55.872Z</time></trkpt><trkpt lat="43.8494735" lon="6.5089987"><ele>749.0</ele><time>2026-05-01T16:48:56.871Z</time></trkpt><trkpt lat="43.8495914" lon="6.5089389"><ele>749.0</ele><time>2026-05-01T16:48:57.871Z</time></trkpt><trkpt lat="43.849682" lon="6.5089041"><ele>749.0</ele><time>2026-05-01T16:48:58.871Z</time></trkpt><trkpt lat="43.8497642" lon="6.5088503"><ele>749.0</ele><time>2026-05-01T16:48:59.872Z</time></trkpt><trkpt lat="43.8498503" lon="6.508802"><ele>749.0</ele><time>2026-05-01T16:49:00.871Z</time></trkpt><trkpt lat="43.8499341" lon="6.5087422"><ele>748.25</ele><time>2026-05-01T16:49:01.871Z</time></trkpt><trkpt lat="43.8500289" lon="6.5086817"><ele>747.5</ele><time>2026-05-01T16:49:02.871Z</time></trkpt><trkpt lat="43.8501285" lon="6.508617"><ele>746.75</ele><time>2026-05-01T16:49:03.871Z</time></trkpt><trkpt lat="43.8502318" lon="6.5085483"><ele>746.0</ele><time>2026-05-01T16:49:04.871Z</time></trkpt><trkpt lat="43.8503741" lon="6.5085071"><ele>746.0</ele><time>2026-05-01T16:49:05.871Z</time></trkpt><trkpt lat="43.8505073" lon="6.5084349"><ele>746.0</ele><time>2026-05-01T16:49:06.871Z</time></trkpt><trkpt lat="43.8506245" lon="6.5084022"><ele>746.0</ele><time>2026-05-01T16:49:07.871Z</time></trkpt><trkpt lat="43.8507299" lon="6.5083452"><ele>746.0</ele><time>2026-05-01T16:49:08.871Z</time></trkpt><trkpt lat="43.8508379" lon="6.5082723"><ele>746.25</ele><time>2026-05-01T16:49:09.871Z</time></trkpt><trkpt lat="43.8509881" lon="6.5081768"><ele>746.5</ele><time>2026-05-01T16:49:10.871Z</time></trkpt><trkpt lat="43.8511123" lon="6.50812"><ele>746.75</ele><time>2026-05-01T16:49:11.871Z</time></trkpt><trkpt lat="43.851175" lon="6.5080631"><ele>747.0</ele><time>2026-05-01T16:49:12.872Z</time></trkpt><trkpt lat="43.8512608" lon="6.5079811"><ele>747.0</ele><time>2026-05-01T16:49:13.871Z</time></trkpt><trkpt lat="43.8513509" lon="6.5079977"><ele>747.0</ele><time>2026-05-01T16:49:14.871Z</time></trkpt><trkpt lat="43.8514412" lon="6.5080079"><ele>747.0</ele><time>2026-05-01T16:49:15.871Z</time></trkpt><trkpt lat="43.851504" lon="6.508041"><ele>747.0</ele><time>2026-05-01T16:49:16.871Z</time></trkpt><trkpt lat="43.8515744" lon="6.5080552"><ele>747.0</ele><time>2026-05-01T16:49:17.871Z</time></trkpt><trkpt lat="43.8516393" lon="6.5080461"><ele>747.0</ele><time>2026-05-01T16:49:18.871Z</time></trkpt><trkpt lat="43.8517391" lon="6.5079431"><ele>746.5</ele><time>2026-05-01T16:49:20.871Z</time></trkpt><trkpt lat="43.8518805" lon="6.5078778"><ele>746.0</ele><time>2026-05-01T16:49:21.871Z</time></trkpt><trkpt lat="43.851922" lon="6.5078004"><ele>745.5</ele><time>2026-05-01T16:49:22.871Z</time></trkpt><trkpt lat="43.8520004" lon="6.507682"><ele>745.0</ele><time>2026-05-01T16:49:23.871Z</time></trkpt><trkpt lat="43.8521031" lon="6.5075406"><ele>745.0</ele><time>2026-05-01T16:49:24.871Z</time></trkpt><trkpt lat="43.8522054" lon="6.5073966"><ele>745.0</ele><time>2026-05-01T16:49:25.871Z</time></trkpt><trkpt lat="43.8522765" lon="6.5072463"><ele>745.0</ele><time>2026-05-01T16:49:26.871Z</time></trkpt><trkpt lat="43.8523711" lon="6.5070749"><ele>745.0</ele><time>2026-05-01T16:49:27.871Z</time></trkpt><trkpt lat="43.8524773" lon="6.5068882"><ele>745.0</ele><time>2026-05-01T16:49:28.871Z</time></trkpt><trkpt lat="43.85257" lon="6.5066799"><ele>745.0</ele><time>2026-05-01T16:49:29.871Z</time></trkpt><trkpt lat="43.8526138" lon="6.5064805"><ele>745.0</ele><time>2026-05-01T16:49:30.871Z</time></trkpt><trkpt lat="43.8526599" lon="6.5062578"><ele>743.6666666666667</ele><time>2026-05-01T16:49:31.871Z</time></trkpt><trkpt lat="43.8527106" lon="6.5060382"><ele>742.3333333333334</ele><time>2026-05-01T16:49:32.871Z</time></trkpt><trkpt lat="43.8527905" lon="6.5058373"><ele>741.0</ele><time>2026-05-01T16:49:33.871Z</time></trkpt><trkpt lat="43.8528564" lon="6.5055934"><ele>741.0</ele><time>2026-05-01T16:49:34.871Z</time></trkpt><trkpt lat="43.8529345" lon="6.5054229"><ele>741.0</ele><time>2026-05-01T16:49:35.871Z</time></trkpt><trkpt lat="43.8530012" lon="6.5052236"><ele>741.0</ele><time>2026-05-01T16:49:36.872Z</time></trkpt><trkpt lat="43.8530964" lon="6.5050096"><ele>741.0</ele><time>2026-05-01T16:49:37.871Z</time></trkpt><trkpt lat="43.8531615" lon="6.504789"><ele>741.0</ele><time>2026-05-01T16:49:38.871Z</time></trkpt><trkpt lat="43.8532275" lon="6.5045438"><ele>741.0</ele><time>2026-05-01T16:49:39.871Z</time></trkpt><trkpt lat="43.8533261" lon="6.5043393"><ele>741.0</ele><time>2026-05-01T16:49:40.871Z</time></trkpt><trkpt lat="43.8534381" lon="6.5040769"><ele>741.0</ele><time>2026-05-01T16:49:41.871Z</time></trkpt><trkpt lat="43.8535302" lon="6.5038456"><ele>741.0</ele><time>2026-05-01T16:49:42.871Z</time></trkpt><trkpt lat="43.8536212" lon="6.5036012"><ele>741.3333333333334</ele><time>2026-05-01T16:49:43.871Z</time></trkpt><trkpt lat="43.853685" lon="6.5033587"><ele>741.6666666666667</ele><time>2026-05-01T16:49:44.871Z</time></trkpt><trkpt lat="43.853766" lon="6.5031504"><ele>742.0</ele><time>2026-05-01T16:49:45.871Z</time></trkpt><trkpt lat="43.8538548" lon="6.5029233"><ele>743.0</ele><time>2026-05-01T16:49:46.871Z</time></trkpt><trkpt lat="43.8539821" lon="6.5026838"><ele>744.0</ele><time>2026-05-01T16:49:47.871Z</time></trkpt><trkpt lat="43.8540818" lon="6.5024787"><ele>745.0</ele><time>2026-05-01T16:49:48.872Z</time></trkpt><trkpt lat="43.8541819" lon="6.5023157"><ele>745.0</ele><time>2026-05-01T16:49:49.872Z</time></trkpt><trkpt lat="43.8543401" lon="6.5021369"><ele>745.0</ele><time>2026-05-01T16:49:50.871Z</time></trkpt><trkpt lat="43.8544535" lon="6.5019671"><ele>745.0</ele><time>2026-05-01T16:49:51.871Z</time></trkpt><trkpt lat="43.8545604" lon="6.5018043"><ele>746.0</ele><time>2026-05-01T16:49:52.871Z</time></trkpt><trkpt lat="43.8547228" lon="6.5016436"><ele>747.0</ele><time>2026-05-01T16:49:53.871Z</time></trkpt><trkpt lat="43.8548626" lon="6.5014539"><ele>748.0</ele><time>2026-05-01T16:49:54.871Z</time></trkpt><trkpt lat="43.8550245" lon="6.5012488"><ele>749.0</ele><time>2026-05-01T16:49:55.871Z</time></trkpt><trkpt lat="43.8551747" lon="6.5010661"><ele>750.0</ele><time>2026-05-01T16:49:56.872Z</time></trkpt><trkpt lat="43.8553179" lon="6.5008887"><ele>751.0</ele><time>2026-05-01T16:49:57.871Z</time></trkpt><trkpt lat="43.8554381" lon="6.5007272"><ele>751.0</ele><time>2026-05-01T16:49:58.871Z</time></trkpt><trkpt lat="43.8555553" lon="6.5005477"><ele>751.0</ele><time>2026-05-01T16:49:59.871Z</time></trkpt><trkpt lat="43.8556639" lon="6.5003981"><ele>751.0</ele><time>2026-05-01T16:50:00.871Z</time></trkpt><trkpt lat="43.8557653" lon="6.5002183"><ele>751.5999999999999</ele><time>2026-05-01T16:50:01.871Z</time></trkpt><trkpt lat="43.8558382" lon="6.5000748"><ele>752.2</ele><time>2026-05-01T16:50:02.872Z</time></trkpt><trkpt lat="43.8558604" lon="6.4999252"><ele>752.8</ele><time>2026-05-01T16:50:03.871Z</time></trkpt><trkpt lat="43.8558464" lon="6.4997937"><ele>753.4000000000001</ele><time>2026-05-01T16:50:04.872Z</time></trkpt><trkpt lat="43.8558474" lon="6.4996503"><ele>754.0</ele><time>2026-05-01T16:50:05.871Z</time></trkpt><trkpt lat="43.8558545" lon="6.4994291"><ele>754.6666666666667</ele><time>2026-05-01T16:50:06.871Z</time></trkpt><trkpt lat="43.8558617" lon="6.4991881"><ele>755.3333333333334</ele><time>2026-05-01T16:50:07.871Z</time></trkpt><trkpt lat="43.8558738" lon="6.4989113"><ele>756.0</ele><time>2026-05-01T16:50:08.871Z</time></trkpt><trkpt lat="43.8558823" lon="6.4985893"><ele>756.3333333333334</ele><time>2026-05-01T16:50:09.871Z</time></trkpt><trkpt lat="43.8558824" lon="6.4982923"><ele>756.6666666666667</ele><time>2026-05-01T16:50:10.871Z</time></trkpt><trkpt lat="43.8558884" lon="6.4980114"><ele>757.0</ele><time>2026-05-01T16:50:11.871Z</time></trkpt><trkpt lat="43.855876" lon="6.4977285"><ele>757.6666666666667</ele><time>2026-05-01T16:50:12.871Z</time></trkpt><trkpt lat="43.8558767" lon="6.4974564"><ele>758.3333333333334</ele><time>2026-05-01T16:50:13.872Z</time></trkpt><trkpt lat="43.8558943" lon="6.49719"><ele>759.0</ele><time>2026-05-01T16:50:14.871Z</time></trkpt><trkpt lat="43.8558867" lon="6.4969038"><ele>759.3333333333334</ele><time>2026-05-01T16:50:15.871Z</time></trkpt><trkpt lat="43.8558981" lon="6.4966773"><ele>759.6666666666667</ele><time>2026-05-01T16:50:16.871Z</time></trkpt><trkpt lat="43.8559074" lon="6.4964692"><ele>760.0</ele><time>2026-05-01T16:50:17.871Z</time></trkpt><trkpt lat="43.855912" lon="6.496253"><ele>761.0</ele><time>2026-05-01T16:50:18.871Z</time></trkpt><trkpt lat="43.8559117" lon="6.4960385"><ele>762.0</ele><time>2026-05-01T16:50:19.871Z</time></trkpt><trkpt lat="43.8559224" lon="6.4959069"><ele>763.0</ele><time>2026-05-01T16:50:20.871Z</time></trkpt><trkpt lat="43.855969" lon="6.4957583"><ele>764.0</ele><time>2026-05-01T16:50:21.871Z</time></trkpt><trkpt lat="43.8560171" lon="6.4956157"><ele>765.0</ele><time>2026-05-01T16:50:22.871Z</time></trkpt><trkpt lat="43.8561227" lon="6.4955665"><ele>766.0</ele><time>2026-05-01T16:50:23.871Z</time></trkpt><trkpt lat="43.8562078" lon="6.4955282"><ele>767.0</ele><time>2026-05-01T16:50:24.871Z</time></trkpt><trkpt lat="43.8563527" lon="6.4955186"><ele>768.0</ele><time>2026-05-01T16:50:25.871Z</time></trkpt><trkpt lat="43.8565187" lon="6.4955254"><ele>768.0</ele><time>2026-05-01T16:50:26.871Z</time></trkpt><trkpt lat="43.8566773" lon="6.4955227"><ele>768.0</ele><time>2026-05-01T16:50:27.871Z</time></trkpt><trkpt lat="43.8568547" lon="6.4955617"><ele>768.0</ele><time>2026-05-01T16:50:28.871Z</time></trkpt><trkpt lat="43.8569852" lon="6.4955812"><ele>767.5</ele><time>2026-05-01T16:50:29.871Z</time></trkpt><trkpt lat="43.8571035" lon="6.4955579"><ele>767.0</ele><time>2026-05-01T16:50:30.871Z</time></trkpt><trkpt lat="43.8572483" lon="6.4953815"><ele>766.5</ele><time>2026-05-01T16:50:31.871Z</time></trkpt><trkpt lat="43.8573609" lon="6.4952857"><ele>766.0</ele><time>2026-05-01T16:50:32.871Z</time></trkpt><trkpt lat="43.8574701" lon="6.4952184"><ele>772.6666666666667</ele><time>2026-05-01T16:50:33.871Z</time></trkpt><trkpt lat="43.8576284" lon="6.4951433"><ele>779.3333333333334</ele><time>2026-05-01T16:50:34.871Z</time></trkpt><trkpt lat="43.8577983" lon="6.4950895"><ele>786.0</ele><time>2026-05-01T16:50:35.871Z</time></trkpt><trkpt lat="43.8579513" lon="6.4950735"><ele>786.0</ele><time>2026-05-01T16:50:36.872Z</time></trkpt><trkpt lat="43.8581431" lon="6.4950536"><ele>786.0</ele><time>2026-05-01T16:50:37.871Z</time></trkpt><trkpt lat="43.8583403" lon="6.4950277"><ele>786.0</ele><time>2026-05-01T16:50:38.871Z</time></trkpt><trkpt lat="43.8585031" lon="6.4949845"><ele>787.6666666666667</ele><time>2026-05-01T16:50:39.871Z</time></trkpt><trkpt lat="43.8586846" lon="6.4949528"><ele>789.3333333333334</ele><time>2026-05-01T16:50:40.871Z</time></trkpt><trkpt lat="43.8588975" lon="6.4949464"><ele>791.0</ele><time>2026-05-01T16:50:41.871Z</time></trkpt><trkpt lat="43.8591129" lon="6.4949347"><ele>793.6666666666667</ele><time>2026-05-01T16:50:42.871Z</time></trkpt><trkpt lat="43.8593262" lon="6.4949236"><ele>796.3333333333333</ele><time>2026-05-01T16:50:43.871Z</time></trkpt><trkpt lat="43.8595607" lon="6.4949255"><ele>799.0</ele><time>2026-05-01T16:50:44.871Z</time></trkpt><trkpt lat="43.8597103" lon="6.4949657"><ele>799.0</ele><time>2026-05-01T16:50:45.871Z</time></trkpt><trkpt lat="43.8599157" lon="6.4949557"><ele>799.0</ele><time>2026-05-01T16:50:46.872Z</time></trkpt><trkpt lat="43.8600799" lon="6.4949518"><ele>799.0</ele><time>2026-05-01T16:50:47.871Z</time></trkpt><trkpt lat="43.8602061" lon="6.4949902"><ele>800.0</ele><time>2026-05-01T16:50:48.871Z</time></trkpt><trkpt lat="43.8603345" lon="6.495065"><ele>801.0</ele><time>2026-05-01T16:50:49.871Z</time></trkpt><trkpt lat="43.8604305" lon="6.4951234"><ele>802.0</ele><time>2026-05-01T16:50:50.871Z</time></trkpt><trkpt lat="43.8604885" lon="6.495235"><ele>803.0</ele><time>2026-05-01T16:50:51.871Z</time></trkpt><trkpt lat="43.8605703" lon="6.4953406"><ele>803.0</ele><time>2026-05-01T16:50:52.871Z</time></trkpt><trkpt lat="43.8606519" lon="6.4953997"><ele>803.0</ele><time>2026-05-01T16:50:53.872Z</time></trkpt><trkpt lat="43.8607353" lon="6.4954581"><ele>803.0</ele><time>2026-05-01T16:50:55.871Z</time></trkpt><trkpt lat="43.8608328" lon="6.4954479"><ele>803.0</ele><time>2026-05-01T16:50:56.871Z</time></trkpt><trkpt lat="43.8609333" lon="6.4954226"><ele>803.0</ele><time>2026-05-01T16:50:57.871Z</time></trkpt><trkpt lat="43.8610144" lon="6.4953651"><ele>802.5999999999999</ele><time>2026-05-01T16:50:58.871Z</time></trkpt><trkpt lat="43.8610919" lon="6.4952283"><ele>802.1999999999999</ele><time>2026-05-01T16:50:59.871Z</time></trkpt><trkpt lat="43.8611361" lon="6.4951127"><ele>801.8</ele><time>2026-05-01T16:51:00.871Z</time></trkpt><trkpt lat="43.8611439" lon="6.4950144"><ele>801.4</ele><time>2026-05-01T16:51:01.871Z</time></trkpt><trkpt lat="43.861146" lon="6.4948594"><ele>801.0</ele><time>2026-05-01T16:51:02.871Z</time></trkpt><trkpt lat="43.8611195" lon="6.494721"><ele>808.25</ele><time>2026-05-01T16:51:03.871Z</time></trkpt><trkpt lat="43.8610534" lon="6.4945541"><ele>815.5</ele><time>2026-05-01T16:51:04.871Z</time></trkpt><trkpt lat="43.8609647" lon="6.4944513"><ele>822.75</ele><time>2026-05-01T16:51:05.872Z</time></trkpt><trkpt lat="43.8609017" lon="6.4943562"><ele>830.0</ele><time>2026-05-01T16:51:06.871Z</time></trkpt><trkpt lat="43.8608182" lon="6.4942404"><ele>830.0</ele><time>2026-05-01T16:51:07.872Z</time></trkpt><trkpt lat="43.860531" lon="6.4941947"><ele>830.0</ele><time>2026-05-01T16:51:08.871Z</time></trkpt><trkpt lat="43.8603461" lon="6.4941442"><ele>830.0</ele><time>2026-05-01T16:51:09.871Z</time></trkpt><trkpt lat="43.860212" lon="6.4940603"><ele>830.0</ele><time>2026-05-01T16:51:10.871Z</time></trkpt><trkpt lat="43.8600605" lon="6.4939732"><ele>830.0</ele><time>2026-05-01T16:51:11.871Z</time></trkpt><trkpt lat="43.8599027" lon="6.4938664"><ele>830.5</ele><time>2026-05-01T16:51:12.871Z</time></trkpt><trkpt lat="43.8597424" lon="6.4937695"><ele>831.0</ele><time>2026-05-01T16:51:13.871Z</time></trkpt><trkpt lat="43.8594507" lon="6.4938091"><ele>828.6666666666667</ele><time>2026-05-01T16:51:14.871Z</time></trkpt><trkpt lat="43.8592297" lon="6.493773"><ele>826.3333333333334</ele><time>2026-05-01T16:51:15.871Z</time></trkpt><trkpt lat="43.85909" lon="6.4936966"><ele>824.0</ele><time>2026-05-01T16:51:16.871Z</time></trkpt><trkpt lat="43.858927" lon="6.4936648"><ele>829.0</ele><time>2026-05-01T16:51:17.871Z</time></trkpt><trkpt lat="43.8587941" lon="6.4936495"><ele>834.0</ele><time>2026-05-01T16:51:18.871Z</time></trkpt><trkpt lat="43.8586878" lon="6.4936308"><ele>839.0</ele><time>2026-05-01T16:51:19.871Z</time></trkpt><trkpt lat="43.8585525" lon="6.4936243"><ele>844.0</ele><time>2026-05-01T16:51:20.871Z</time></trkpt><trkpt lat="43.8584869" lon="6.4935754"><ele>844.0</ele><time>2026-05-01T16:51:21.871Z</time></trkpt><trkpt lat="43.8584992" lon="6.4934603"><ele>844.0</ele><time>2026-05-01T16:51:23.871Z</time></trkpt><trkpt lat="43.8585599" lon="6.4933525"><ele>844.0</ele><time>2026-05-01T16:51:24.871Z</time></trkpt><trkpt lat="43.8586363" lon="6.4932455"><ele>844.0</ele><time>2026-05-01T16:51:25.871Z</time></trkpt><trkpt lat="43.858762" lon="6.4929224"><ele>842.3333333333333</ele><time>2026-05-01T16:51:26.871Z</time></trkpt><trkpt lat="43.8588424" lon="6.4927165"><ele>840.6666666666667</ele><time>2026-05-01T16:51:27.871Z</time></trkpt><trkpt lat="43.8589672" lon="6.4924456"><ele>839.0</ele><time>2026-05-01T16:51:28.871Z</time></trkpt><trkpt lat="43.8590264" lon="6.4922191"><ele>833.0</ele><time>2026-05-01T16:51:29.871Z</time></trkpt><trkpt lat="43.85911" lon="6.4920347"><ele>827.0</ele><time>2026-05-01T16:51:30.871Z</time></trkpt><trkpt lat="43.8591955" lon="6.4918604"><ele>821.0</ele><time>2026-05-01T16:51:31.871Z</time></trkpt><trkpt lat="43.8593777" lon="6.4916999"><ele>830.3333333333334</ele><time>2026-05-01T16:51:32.871Z</time></trkpt><trkpt lat="43.8595173" lon="6.4915215"><ele>839.6666666666667</ele><time>2026-05-01T16:51:33.871Z</time></trkpt><trkpt lat="43.859621" lon="6.4913657"><ele>849.0</ele><time>2026-05-01T16:51:34.871Z</time></trkpt><trkpt lat="43.8598038" lon="6.4911987"><ele>849.0</ele><time>2026-05-01T16:51:35.871Z</time></trkpt><trkpt lat="43.8599404" lon="6.4910469"><ele>849.0</ele><time>2026-05-01T16:51:36.871Z</time></trkpt><trkpt lat="43.8600265" lon="6.490918"><ele>849.0</ele><time>2026-05-01T16:51:37.871Z</time></trkpt><trkpt lat="43.8600441" lon="6.49081"><ele>849.0</ele><time>2026-05-01T16:51:38.871Z</time></trkpt><trkpt lat="43.8600146" lon="6.4906489"><ele>849.0</ele><time>2026-05-01T16:51:39.871Z</time></trkpt><trkpt lat="43.8599941" lon="6.4905204"><ele>849.0</ele><time>2026-05-01T16:51:40.871Z</time></trkpt><trkpt lat="43.8600196" lon="6.4904242"><ele>849.0</ele><time>2026-05-01T16:51:41.871Z</time></trkpt><trkpt lat="43.8600264" lon="6.4902778"><ele>849.0</ele><time>2026-05-01T16:51:42.871Z</time></trkpt><trkpt lat="43.8600139" lon="6.4900274"><ele>850.6</ele><time>2026-05-01T16:51:43.871Z</time></trkpt><trkpt lat="43.860019" lon="6.4898421"><ele>852.2</ele><time>2026-05-01T16:51:44.871Z</time></trkpt><trkpt lat="43.8600103" lon="6.4896767"><ele>853.8000000000001</ele><time>2026-05-01T16:51:45.871Z</time></trkpt><trkpt lat="43.860011" lon="6.4895758"><ele>855.4000000000001</ele><time>2026-05-01T16:51:46.872Z</time></trkpt><trkpt lat="43.8599699" lon="6.4894997"><ele>857.0</ele><time>2026-05-01T16:51:47.871Z</time></trkpt><trkpt lat="43.8599384" lon="6.4894157"><ele>857.6666666666667</ele><time>2026-05-01T16:51:48.871Z</time></trkpt><trkpt lat="43.8599104" lon="6.4893079"><ele>858.3333333333333</ele><time>2026-05-01T16:51:50.871Z</time></trkpt><trkpt lat="43.8601258" lon="6.489629"><ele>859.0</ele><time>2026-05-01T16:51:54.871Z</time></trkpt><trkpt lat="43.8602078" lon="6.4897655"><ele>870.0</ele><time>2026-05-01T16:51:55.871Z</time></trkpt><trkpt lat="43.8602064" lon="6.4899675"><ele>881.0</ele><time>2026-05-01T16:51:56.871Z</time></trkpt><trkpt lat="43.8602062" lon="6.4901506"><ele>892.0</ele><time>2026-05-01T16:51:57.872Z</time></trkpt><trkpt lat="43.860206" lon="6.4902933"><ele>903.0</ele><time>2026-05-01T16:51:58.871Z</time></trkpt><trkpt lat="43.8601998" lon="6.4904292"><ele>903.0</ele><time>2026-05-01T16:51:59.871Z</time></trkpt><trkpt lat="43.8602145" lon="6.4905493"><ele>903.0</ele><time>2026-05-01T16:52:00.871Z</time></trkpt><trkpt lat="43.8602653" lon="6.4906912"><ele>903.0</ele><time>2026-05-01T16:52:01.871Z</time></trkpt><trkpt lat="43.8603312" lon="6.4908199"><ele>903.0</ele><time>2026-05-01T16:52:02.872Z</time></trkpt><trkpt lat="43.8602791" lon="6.4909678"><ele>903.0</ele><time>2026-05-01T16:52:03.872Z</time></trkpt><trkpt lat="43.8603208" lon="6.4910734"><ele>903.0</ele><time>2026-05-01T16:52:04.871Z</time></trkpt><trkpt lat="43.8603345" lon="6.4911922"><ele>903.0</ele><time>2026-05-01T16:52:05.872Z</time></trkpt><trkpt lat="43.8602851" lon="6.4914065"><ele>903.0</ele><time>2026-05-01T16:52:06.871Z</time></trkpt><trkpt lat="43.8602272" lon="6.4914941"><ele>903.0</ele><time>2026-05-01T16:52:07.872Z</time></trkpt><trkpt lat="43.8601776" lon="6.4916681"><ele>902.5</ele><time>2026-05-01T16:52:08.871Z</time></trkpt><trkpt lat="43.860131" lon="6.4917998"><ele>902.0</ele><time>2026-05-01T16:52:09.871Z</time></trkpt><trkpt lat="43.8600768" lon="6.4919698"><ele>901.5</ele><time>2026-05-01T16:52:10.871Z</time></trkpt><trkpt lat="43.860006" lon="6.4921395"><ele>901.0</ele><time>2026-05-01T16:52:11.871Z</time></trkpt><trkpt lat="43.8599368" lon="6.4923041"><ele>895.4</ele><time>2026-05-01T16:52:12.871Z</time></trkpt><trkpt lat="43.8598997" lon="6.4924736"><ele>889.8</ele><time>2026-05-01T16:52:13.871Z</time></trkpt><trkpt lat="43.8598453" lon="6.4926407"><ele>884.1999999999999</ele><time>2026-05-01T16:52:14.871Z</time></trkpt><trkpt lat="43.8598045" lon="6.4928033"><ele>878.5999999999999</ele><time>2026-05-01T16:52:16.871Z</time></trkpt><trkpt lat="43.8598218" lon="6.4928882"><ele>873.0</ele><time>2026-05-01T16:52:17.871Z</time></trkpt><trkpt lat="43.8598824" lon="6.4929611"><ele>882.0</ele><time>2026-05-01T16:52:19.871Z</time></trkpt><trkpt lat="43.8601773" lon="6.4928992"><ele>891.0</ele><time>2026-05-01T16:52:22.871Z</time></trkpt><trkpt lat="43.8603565" lon="6.4928268"><ele>891.0</ele><time>2026-05-01T16:52:23.871Z</time></trkpt><trkpt lat="43.860491" lon="6.4928196"><ele>891.0</ele><time>2026-05-01T16:52:24.871Z</time></trkpt><trkpt lat="43.8607001" lon="6.4928322"><ele>891.0</ele><time>2026-05-01T16:52:25.871Z</time></trkpt><trkpt lat="43.860874" lon="6.4928662"><ele>895.0</ele><time>2026-05-01T16:52:26.871Z</time></trkpt><trkpt lat="43.8610802" lon="6.4928752"><ele>899.0</ele><time>2026-05-01T16:52:27.871Z</time></trkpt><trkpt lat="43.8612972" lon="6.4928664"><ele>903.0</ele><time>2026-05-01T16:52:28.871Z</time></trkpt><trkpt lat="43.8614158" lon="6.4929505"><ele>900.0</ele><time>2026-05-01T16:52:29.871Z</time></trkpt><trkpt lat="43.8615817" lon="6.4929248"><ele>897.0</ele><time>2026-05-01T16:52:30.871Z</time></trkpt><trkpt lat="43.861741" lon="6.4929454"><ele>894.0</ele><time>2026-05-01T16:52:31.871Z</time></trkpt><trkpt lat="43.8618945" lon="6.4929164"><ele>894.0</ele><time>2026-05-01T16:52:32.871Z</time></trkpt><trkpt lat="43.8620647" lon="6.4928173"><ele>894.0</ele><time>2026-05-01T16:52:33.872Z</time></trkpt><trkpt lat="43.8622332" lon="6.4927236"><ele>894.0</ele><time>2026-05-01T16:52:34.871Z</time></trkpt><trkpt lat="43.862405" lon="6.4926279"><ele>886.5</ele><time>2026-05-01T16:52:35.871Z</time></trkpt><trkpt lat="43.8626543" lon="6.4924338"><ele>879.0</ele><time>2026-05-01T16:52:36.871Z</time></trkpt><trkpt lat="43.8628204" lon="6.4923741"><ele>879.0</ele><time>2026-05-01T16:52:37.871Z</time></trkpt><trkpt lat="43.8630119" lon="6.4922907"><ele>879.0</ele><time>2026-05-01T16:52:38.871Z</time></trkpt><trkpt lat="43.8631916" lon="6.492178"><ele>879.0</ele><time>2026-05-01T16:52:39.871Z</time></trkpt><trkpt lat="43.8633433" lon="6.4920758"><ele>884.6666666666667</ele><time>2026-05-01T16:52:40.871Z</time></trkpt><trkpt lat="43.863518" lon="6.4919311"><ele>890.3333333333334</ele><time>2026-05-01T16:52:41.871Z</time></trkpt><trkpt lat="43.8636887" lon="6.4917946"><ele>896.0</ele><time>2026-05-01T16:52:42.872Z</time></trkpt><trkpt lat="43.8638499" lon="6.4916378"><ele>896.0</ele><time>2026-05-01T16:52:43.871Z</time></trkpt><trkpt lat="43.8640031" lon="6.4915047"><ele>896.0</ele><time>2026-05-01T16:52:44.871Z</time></trkpt><trkpt lat="43.8641826" lon="6.4913625"><ele>896.0</ele><time>2026-05-01T16:52:45.872Z</time></trkpt><trkpt lat="43.8643772" lon="6.4912161"><ele>907.3333333333334</ele><time>2026-05-01T16:52:46.871Z</time></trkpt><trkpt lat="43.8645824" lon="6.4910365"><ele>918.6666666666667</ele><time>2026-05-01T16:52:47.871Z</time></trkpt><trkpt lat="43.8647743" lon="6.4909648"><ele>930.0</ele><time>2026-05-01T16:52:48.871Z</time></trkpt><trkpt lat="43.8649486" lon="6.4908858"><ele>932.3333333333333</ele><time>2026-05-01T16:52:49.871Z</time></trkpt><trkpt lat="43.865113" lon="6.4908377"><ele>934.6666666666666</ele><time>2026-05-01T16:52:50.871Z</time></trkpt><trkpt lat="43.8652907" lon="6.4908372"><ele>937.0</ele><time>2026-05-01T16:52:51.871Z</time></trkpt><trkpt lat="43.8654697" lon="6.4908793"><ele>937.0</ele><time>2026-05-01T16:52:52.871Z</time></trkpt><trkpt lat="43.8656624" lon="6.490955"><ele>937.0</ele><time>2026-05-01T16:52:53.871Z</time></trkpt><trkpt lat="43.8658578" lon="6.4910091"><ele>937.0</ele><time>2026-05-01T16:52:54.871Z</time></trkpt><trkpt lat="43.8659669" lon="6.4911153"><ele>934.0</ele><time>2026-05-01T16:52:55.871Z</time></trkpt><trkpt lat="43.8661514" lon="6.4911986"><ele>931.0</ele><time>2026-05-01T16:52:56.871Z</time></trkpt><trkpt lat="43.8663211" lon="6.4912581"><ele>928.0</ele><time>2026-05-01T16:52:57.871Z</time></trkpt><trkpt lat="43.8664774" lon="6.4913524"><ele>928.0</ele><time>2026-05-01T16:52:58.871Z</time></trkpt><trkpt lat="43.8665636" lon="6.4914546"><ele>928.0</ele><time>2026-05-01T16:52:59.871Z</time></trkpt><trkpt lat="43.8666295" lon="6.4914879"><ele>928.0</ele><time>2026-05-01T16:53:00.871Z</time></trkpt><trkpt lat="43.8667139" lon="6.4914217"><ele>928.0</ele><time>2026-05-01T16:53:03.871Z</time></trkpt><trkpt lat="43.8667208" lon="6.4913203"><ele>928.0</ele><time>2026-05-01T16:53:04.871Z</time></trkpt><trkpt lat="43.8666605" lon="6.4911461"><ele>928.0</ele><time>2026-05-01T16:53:05.871Z</time></trkpt><trkpt lat="43.8665659" lon="6.4910142"><ele>928.0</ele><time>2026-05-01T16:53:06.871Z</time></trkpt><trkpt lat="43.8665112" lon="6.4908845"><ele>928.0</ele><time>2026-05-01T16:53:07.871Z</time></trkpt><trkpt lat="43.8664021" lon="6.4907716"><ele>928.0</ele><time>2026-05-01T16:53:08.871Z</time></trkpt><trkpt lat="43.8663016" lon="6.4907348"><ele>928.0</ele><time>2026-05-01T16:53:09.871Z</time></trkpt><trkpt lat="43.8662027" lon="6.4906856"><ele>928.0</ele><time>2026-05-01T16:53:10.871Z</time></trkpt><trkpt lat="43.8660036" lon="6.4905134"><ele>928.0</ele><time>2026-05-01T16:53:11.871Z</time></trkpt><trkpt lat="43.8658043" lon="6.4903472"><ele>941.3333333333333</ele><time>2026-05-01T16:53:12.871Z</time></trkpt><trkpt lat="43.8656202" lon="6.4902834"><ele>954.6666666666667</ele><time>2026-05-01T16:53:13.871Z</time></trkpt><trkpt lat="43.8653862" lon="6.4902713"><ele>968.0</ele><time>2026-05-01T16:53:14.871Z</time></trkpt><trkpt lat="43.8651581" lon="6.4902645"><ele>968.3333333333334</ele><time>2026-05-01T16:53:15.871Z</time></trkpt><trkpt lat="43.8649611" lon="6.4902673"><ele>968.6666666666667</ele><time>2026-05-01T16:53:16.871Z</time></trkpt><trkpt lat="43.8647224" lon="6.4902485"><ele>969.0</ele><time>2026-05-01T16:53:17.871Z</time></trkpt><trkpt lat="43.8644656" lon="6.4903084"><ele>967.5</ele><time>2026-05-01T16:53:18.871Z</time></trkpt><trkpt lat="43.8642339" lon="6.4903779"><ele>966.0</ele><time>2026-05-01T16:53:19.871Z</time></trkpt><trkpt lat="43.8640076" lon="6.4904587"><ele>955.3333333333333</ele><time>2026-05-01T16:53:20.871Z</time></trkpt><trkpt lat="43.8637881" lon="6.4905368"><ele>944.6666666666666</ele><time>2026-05-01T16:53:21.871Z</time></trkpt><trkpt lat="43.863676" lon="6.4906418"><ele>934.0</ele><time>2026-05-01T16:53:22.871Z</time></trkpt><trkpt lat="43.8635214" lon="6.4907383"><ele>937.25</ele><time>2026-05-01T16:53:23.871Z</time></trkpt><trkpt lat="43.8633653" lon="6.490843"><ele>940.5</ele><time>2026-05-01T16:53:24.871Z</time></trkpt><trkpt lat="43.8632326" lon="6.4909688"><ele>943.75</ele><time>2026-05-01T16:53:25.872Z</time></trkpt><trkpt lat="43.8631274" lon="6.4910279"><ele>947.0</ele><time>2026-05-01T16:53:26.871Z</time></trkpt><trkpt lat="43.8629876" lon="6.490997"><ele>947.0</ele><time>2026-05-01T16:53:27.871Z</time></trkpt><trkpt lat="43.8628465" lon="6.4909501"><ele>947.0</ele><time>2026-05-01T16:53:28.871Z</time></trkpt><trkpt lat="43.8627245" lon="6.4908702"><ele>947.0</ele><time>2026-05-01T16:53:29.871Z</time></trkpt><trkpt lat="43.8626196" lon="6.4908291"><ele>947.0</ele><time>2026-05-01T16:53:30.871Z</time></trkpt><trkpt lat="43.8624651" lon="6.4907511"><ele>948.25</ele><time>2026-05-01T16:53:31.871Z</time></trkpt><trkpt lat="43.8623533" lon="6.4906853"><ele>949.5</ele><time>2026-05-01T16:53:32.871Z</time></trkpt><trkpt lat="43.8622354" lon="6.4905618"><ele>950.75</ele><time>2026-05-01T16:53:33.871Z</time></trkpt><trkpt lat="43.862127" lon="6.4903999"><ele>952.0</ele><time>2026-05-01T16:53:34.871Z</time></trkpt><trkpt lat="43.8620108" lon="6.4902674"><ele>952.3333333333333</ele><time>2026-05-01T16:53:35.871Z</time></trkpt><trkpt lat="43.8618889" lon="6.4900749"><ele>952.6666666666667</ele><time>2026-05-01T16:53:36.871Z</time></trkpt><trkpt lat="43.8617802" lon="6.4899346"><ele>953.0</ele><time>2026-05-01T16:53:37.872Z</time></trkpt><trkpt lat="43.8616905" lon="6.4898069"><ele>953.0</ele><time>2026-05-01T16:53:38.871Z</time></trkpt><trkpt lat="43.8616359" lon="6.4897006"><ele>953.0</ele><time>2026-05-01T16:53:39.871Z</time></trkpt><trkpt lat="43.8615882" lon="6.4895388"><ele>953.0</ele><time>2026-05-01T16:53:41.871Z</time></trkpt><trkpt lat="43.8616056" lon="6.4894182"><ele>953.0</ele><time>2026-05-01T16:53:43.871Z</time></trkpt><trkpt lat="43.861721" lon="6.4894887"><ele>953.0</ele><time>2026-05-01T16:53:46.871Z</time></trkpt><trkpt lat="43.8617991" lon="6.4895195"><ele>957.0</ele><time>2026-05-01T16:53:47.871Z</time></trkpt><trkpt lat="43.8618714" lon="6.4896005"><ele>961.0</ele><time>2026-05-01T16:53:48.871Z</time></trkpt><trkpt lat="43.8619975" lon="6.4897144"><ele>965.0</ele><time>2026-05-01T16:53:49.871Z</time></trkpt><trkpt lat="43.8620997" lon="6.4897516"><ele>969.0</ele><time>2026-05-01T16:53:50.871Z</time></trkpt><trkpt lat="43.8622516" lon="6.4897646"><ele>969.0</ele><time>2026-05-01T16:53:51.872Z</time></trkpt><trkpt lat="43.8624077" lon="6.4898088"><ele>969.0</ele><time>2026-05-01T16:53:52.871Z</time></trkpt><trkpt lat="43.8625689" lon="6.4898561"><ele>969.0</ele><time>2026-05-01T16:53:53.871Z</time></trkpt><trkpt lat="43.8627228" lon="6.4899015"><ele>969.5</ele><time>2026-05-01T16:53:54.871Z</time></trkpt><trkpt lat="43.8628649" lon="6.4899655"><ele>970.0</ele><time>2026-05-01T16:53:55.871Z</time></trkpt><trkpt lat="43.8630029" lon="6.4900039"><ele>970.5</ele><time>2026-05-01T16:53:56.871Z</time></trkpt><trkpt lat="43.8631486" lon="6.4900375"><ele>971.0</ele><time>2026-05-01T16:53:57.871Z</time></trkpt><trkpt lat="43.86327" lon="6.4900893"><ele>971.0</ele><time>2026-05-01T16:53:58.871Z</time></trkpt><trkpt lat="43.8634335" lon="6.490052"><ele>971.0</ele><time>2026-05-01T16:53:59.871Z</time></trkpt><trkpt lat="43.8636329" lon="6.4899701"><ele>971.0</ele><time>2026-05-01T16:54:00.871Z</time></trkpt><trkpt lat="43.8638432" lon="6.4899023"><ele>970.3333333333334</ele><time>2026-05-01T16:54:01.872Z</time></trkpt><trkpt lat="43.8640396" lon="6.4898695"><ele>969.6666666666667</ele><time>2026-05-01T16:54:02.871Z</time></trkpt><trkpt lat="43.86422" lon="6.489839"><ele>969.0</ele><time>2026-05-01T16:54:03.871Z</time></trkpt><trkpt lat="43.8643672" lon="6.4897874"><ele>969.0</ele><time>2026-05-01T16:54:04.871Z</time></trkpt><trkpt lat="43.8645109" lon="6.4897528"><ele>969.0</ele><time>2026-05-01T16:54:05.871Z</time></trkpt><trkpt lat="43.8646497" lon="6.4896628"><ele>969.0</ele><time>2026-05-01T16:54:06.871Z</time></trkpt><trkpt lat="43.864788" lon="6.4895569"><ele>974.0</ele><time>2026-05-01T16:54:07.872Z</time></trkpt><trkpt lat="43.8649422" lon="6.4894774"><ele>979.0</ele><time>2026-05-01T16:54:08.871Z</time></trkpt><trkpt lat="43.86509" lon="6.489388"><ele>984.0</ele><time>2026-05-01T16:54:09.871Z</time></trkpt><trkpt lat="43.865244" lon="6.4893359"><ele>984.0</ele><time>2026-05-01T16:54:10.871Z</time></trkpt><trkpt lat="43.8653889" lon="6.4892367"><ele>984.0</ele><time>2026-05-01T16:54:11.871Z</time></trkpt><trkpt lat="43.8655148" lon="6.489133"><ele>984.0</ele><time>2026-05-01T16:54:12.871Z</time></trkpt><trkpt lat="43.8656256" lon="6.4890483"><ele>984.0</ele><time>2026-05-01T16:54:13.872Z</time></trkpt><trkpt lat="43.8657642" lon="6.488942"><ele>984.0</ele><time>2026-05-01T16:54:14.871Z</time></trkpt><trkpt lat="43.8659221" lon="6.4887637"><ele>984.0</ele><time>2026-05-01T16:54:15.871Z</time></trkpt><trkpt lat="43.8660602" lon="6.4885663"><ele>984.0</ele><time>2026-05-01T16:54:16.871Z</time></trkpt><trkpt lat="43.8662125" lon="6.4883509"><ele>982.6666666666667</ele><time>2026-05-01T16:54:17.871Z</time></trkpt><trkpt lat="43.8663238" lon="6.4881173"><ele>981.3333333333334</ele><time>2026-05-01T16:54:18.871Z</time></trkpt><trkpt lat="43.8663936" lon="6.4879069"><ele>980.0</ele><time>2026-05-01T16:54:19.871Z</time></trkpt><trkpt lat="43.866478" lon="6.4876822"><ele>984.0</ele><time>2026-05-01T16:54:20.872Z</time></trkpt><trkpt lat="43.8664718" lon="6.4874829"><ele>988.0</ele><time>2026-05-01T16:54:21.871Z</time></trkpt><trkpt lat="43.8664977" lon="6.4873769"><ele>992.0</ele><time>2026-05-01T16:54:22.871Z</time></trkpt><trkpt lat="43.8666339" lon="6.4873179"><ele>996.0</ele><time>2026-05-01T16:54:24.871Z</time></trkpt><trkpt lat="43.8667379" lon="6.4872927"><ele>998.6666666666667</ele><time>2026-05-01T16:54:25.871Z</time></trkpt><trkpt lat="43.8668769" lon="6.487261"><ele>1001.3333333333334</ele><time>2026-05-01T16:54:26.871Z</time></trkpt><trkpt lat="43.8670232" lon="6.4871902"><ele>1004.0</ele><time>2026-05-01T16:54:27.871Z</time></trkpt><trkpt lat="43.8671496" lon="6.4870418"><ele>1004.0</ele><time>2026-05-01T16:54:28.871Z</time></trkpt><trkpt lat="43.8672751" lon="6.4869162"><ele>1004.0</ele><time>2026-05-01T16:54:29.871Z</time></trkpt><trkpt lat="43.8673629" lon="6.4867967"><ele>1004.0</ele><time>2026-05-01T16:54:30.871Z</time></trkpt><trkpt lat="43.8674564" lon="6.4866699"><ele>1004.0</ele><time>2026-05-01T16:54:31.871Z</time></trkpt><trkpt lat="43.867537" lon="6.4865675"><ele>1004.0</ele><time>2026-05-01T16:54:32.871Z</time></trkpt><trkpt lat="43.8675674" lon="6.4864761"><ele>1004.0</ele><time>2026-05-01T16:54:33.871Z</time></trkpt><trkpt lat="43.8640396" lon="6.4898695"><ele>992.3333333333334</ele><time>2026-05-01T16:54:02.871Z</time></trkpt><trkpt lat="43.86422" lon="6.489839"><ele>980.6666666666667</ele><time>2026-05-01T16:54:03.871Z</time></trkpt><trkpt lat="43.8643672" lon="6.4897874"><ele>969.0</ele><time>2026-05-01T16:54:04.871Z</time></trkpt><trkpt lat="43.8645109" lon="6.4897528"><ele>969.0</ele><time>2026-05-01T16:54:05.871Z</time></trkpt><trkpt lat="43.8646497" lon="6.4896628"><ele>969.0</ele><time>2026-05-01T16:54:06.871Z</time></trkpt><trkpt lat="43.864788" lon="6.4895569"><ele>969.0</ele><time>2026-05-01T16:54:07.872Z</time></trkpt><trkpt lat="43.8649422" lon="6.4894774"><ele>974.0</ele><time>2026-05-01T16:54:08.871Z</time></trkpt><trkpt lat="43.86509" lon="6.489388"><ele>979.0</ele><time>2026-05-01T16:54:09.871Z</time></trkpt><trkpt lat="43.865244" lon="6.4893359"><ele>984.0</ele><time>2026-05-01T16:54:10.871Z</time></trkpt><trkpt lat="43.8653889" lon="6.4892367"><ele>984.0</ele><time>2026-05-01T16:54:11.871Z</time></trkpt><trkpt lat="43.8655148" lon="6.489133"><ele>984.0</ele><time>2026-05-01T16:54:12.871Z</time></trkpt><trkpt lat="43.8656256" lon="6.4890483"><ele>984.0</ele><time>2026-05-01T16:54:13.872Z</time></trkpt><trkpt lat="43.8657642" lon="6.488942"><ele>984.0</ele><time>2026-05-01T16:54:14.871Z</time></trkpt><trkpt lat="43.8659221" lon="6.4887637"><ele>982.6666666666667</ele><time>2026-05-01T16:54:15.871Z</time></trkpt><trkpt lat="43.8660602" lon="6.4885663"><ele>981.3333333333334</ele><time>2026-05-01T16:54:16.871Z</time></trkpt><trkpt lat="43.8662125" lon="6.4883509"><ele>980.0</ele><time>2026-05-01T16:54:17.871Z</time></trkpt><trkpt lat="43.8663238" lon="6.4881173"><ele>985.3333333333334</ele><time>2026-05-01T16:54:18.871Z</time></trkpt><trkpt lat="43.8663936" lon="6.4879069"><ele>990.6666666666667</ele><time>2026-05-01T16:54:19.871Z</time></trkpt><trkpt lat="43.866478" lon="6.4876822"><ele>996.0</ele><time>2026-05-01T16:54:20.872Z</time></trkpt><trkpt lat="43.8664718" lon="6.4874829"><ele>996.0</ele><time>2026-05-01T16:54:21.871Z</time></trkpt><trkpt lat="43.8664977" lon="6.4873769"><ele>996.0</ele><time>2026-05-01T16:54:22.871Z</time></trkpt><trkpt lat="43.8666339" lon="6.4873179"><ele>996.0</ele><time>2026-05-01T16:54:24.871Z</time></trkpt><trkpt lat="43.8667379" lon="6.4872927"><ele>996.0</ele><time>2026-05-01T16:54:25.871Z</time></trkpt><trkpt lat="43.8668769" lon="6.487261"><ele>998.6666666666667</ele><time>2026-05-01T16:54:26.871Z</time></trkpt><trkpt lat="43.8670232" lon="6.4871902"><ele>1001.3333333333334</ele><time>2026-05-01T16:54:27.871Z</time></trkpt><trkpt lat="43.8671496" lon="6.4870418"><ele>1004.0</ele><time>2026-05-01T16:54:28.871Z</time></trkpt><trkpt lat="43.8672751" lon="6.4869162"><ele>1004.0</ele><time>2026-05-01T16:54:29.871Z</time></trkpt><trkpt lat="43.8673629" lon="6.4867967"><ele>1004.0000000000001</ele><time>2026-05-01T16:54:30.871Z</time></trkpt><trkpt lat="43.8674564" lon="6.4866699"><ele>1004.0000000000001</ele><time>2026-05-01T16:54:31.871Z</time></trkpt><trkpt lat="43.867537" lon="6.4865675"><ele>1004.0</ele><time>2026-05-01T16:54:32.871Z</time></trkpt><trkpt lat="43.8675674" lon="6.4864761"><ele>1004.0</ele><time>2026-05-01T16:54:33.871Z</time></trkpt><trkpt lat="43.8675846" lon="6.4863581"><ele>1007.0</ele><time>2026-05-01T16:54:34.871Z</time></trkpt><trkpt lat="43.8675579" lon="6.4861783"><ele>1010.0</ele><time>2026-05-01T16:54:36.871Z</time></trkpt><trkpt lat="43.8674731" lon="6.4860731"><ele>1013.0</ele><time>2026-05-01T16:54:37.871Z</time></trkpt><trkpt lat="43.8673603" lon="6.4859865"><ele>1016.0</ele><time>2026-05-01T16:54:38.871Z</time></trkpt><trkpt lat="43.8672757" lon="6.4859592"><ele>1016.0</ele><time>2026-05-01T16:54:39.871Z</time></trkpt><trkpt lat="43.8671733" lon="6.4859739"><ele>1016.0</ele><time>2026-05-01T16:54:40.871Z</time></trkpt><trkpt lat="43.8670148" lon="6.4860572"><ele>1016.0</ele><time>2026-05-01T16:54:41.871Z</time></trkpt><trkpt lat="43.8668389" lon="6.4861872"><ele>1015.6666666666667</ele><time>2026-05-01T16:54:42.871Z</time></trkpt><trkpt lat="43.8667293" lon="6.4862726"><ele>1015.3333333333333</ele><time>2026-05-01T16:54:43.871Z</time></trkpt><trkpt lat="43.8665551" lon="6.4863632"><ele>1015.0</ele><time>2026-05-01T16:54:44.872Z</time></trkpt><trkpt lat="43.866396" lon="6.4864133"><ele>1015.0</ele><time>2026-05-01T16:54:45.871Z</time></trkpt><trkpt lat="43.86622" lon="6.4864493"><ele>1015.0</ele><time>2026-05-01T16:54:46.871Z</time></trkpt><trkpt lat="43.8660077" lon="6.4864072"><ele>1015.0</ele><time>2026-05-01T16:54:47.871Z</time></trkpt><trkpt lat="43.8658186" lon="6.4864225"><ele>1017.0</ele><time>2026-05-01T16:54:48.872Z</time></trkpt><trkpt lat="43.8656948" lon="6.4863617"><ele>1019.0</ele><time>2026-05-01T16:54:49.871Z</time></trkpt><trkpt lat="43.865515" lon="6.4863536"><ele>1021.0</ele><time>2026-05-01T16:54:50.871Z</time></trkpt><trkpt lat="43.8654147" lon="6.4863537"><ele>1023.0</ele><time>2026-05-01T16:54:51.871Z</time></trkpt><trkpt lat="43.8653282" lon="6.4864889"><ele>1023.0</ele><time>2026-05-01T16:54:52.871Z</time></trkpt><trkpt lat="43.8652581" lon="6.4866102"><ele>1023.0</ele><time>2026-05-01T16:54:53.871Z</time></trkpt><trkpt lat="43.8652107" lon="6.4867508"><ele>1023.0</ele><time>2026-05-01T16:54:54.871Z</time></trkpt><trkpt lat="43.8651563" lon="6.4868925"><ele>1023.0</ele><time>2026-05-01T16:54:55.871Z</time></trkpt><trkpt lat="43.8650823" lon="6.4869865"><ele>1023.0</ele><time>2026-05-01T16:54:56.871Z</time></trkpt><trkpt lat="43.864987" lon="6.4870933"><ele>1023.25</ele><time>2026-05-01T16:54:57.871Z</time></trkpt><trkpt lat="43.8648844" lon="6.4871242"><ele>1023.5</ele><time>2026-05-01T16:54:58.871Z</time></trkpt><trkpt lat="43.8648081" lon="6.4871053"><ele>1023.75</ele><time>2026-05-01T16:54:59.871Z</time></trkpt><trkpt lat="43.864662" lon="6.4870899"><ele>1024.0</ele><time>2026-05-01T16:55:00.871Z</time></trkpt><trkpt lat="43.8645209" lon="6.4869995"><ele>1027.3333333333333</ele><time>2026-05-01T16:55:01.871Z</time></trkpt><trkpt lat="43.8643914" lon="6.4869104"><ele>1030.6666666666667</ele><time>2026-05-01T16:55:02.871Z</time></trkpt><trkpt lat="43.8642939" lon="6.4867252"><ele>1034.0</ele><time>2026-05-01T16:55:03.871Z</time></trkpt><trkpt lat="43.8641754" lon="6.4865453"><ele>1035.3333333333335</ele><time>2026-05-01T16:55:04.871Z</time></trkpt><trkpt lat="43.8640642" lon="6.4863708"><ele>1036.6666666666667</ele><time>2026-05-01T16:55:05.872Z</time></trkpt><trkpt lat="43.8639681" lon="6.486194"><ele>1038.0</ele><time>2026-05-01T16:55:06.871Z</time></trkpt><trkpt lat="43.8638647" lon="6.486029"><ele>1040.4</ele><time>2026-05-01T16:55:07.871Z</time></trkpt><trkpt lat="43.8637563" lon="6.485909"><ele>1042.8</ele><time>2026-05-01T16:55:08.871Z</time></trkpt><trkpt lat="43.8636529" lon="6.4857713"><ele>1045.2</ele><time>2026-05-01T16:55:09.871Z</time></trkpt><trkpt lat="43.863581" lon="6.4857326"><ele>1047.6</ele><time>2026-05-01T16:55:10.871Z</time></trkpt><trkpt lat="43.8635054" lon="6.4856799"><ele>1050.0</ele><time>2026-05-01T16:55:11.872Z</time></trkpt><trkpt lat="43.8634476" lon="6.4855995"><ele>1050.0</ele><time>2026-05-01T16:55:12.871Z</time></trkpt><trkpt lat="43.8634415" lon="6.485464"><ele>1050.0</ele><time>2026-05-01T16:55:14.871Z</time></trkpt><trkpt lat="43.8634988" lon="6.4854151"><ele>1050.0</ele><time>2026-05-01T16:55:15.871Z</time></trkpt><trkpt lat="43.8635735" lon="6.485425"><ele>1050.0</ele><time>2026-05-01T16:55:16.871Z</time></trkpt><trkpt lat="43.8636763" lon="6.4854603"><ele>1050.0</ele><time>2026-05-01T16:55:17.871Z</time></trkpt><trkpt lat="43.8638521" lon="6.4855155"><ele>1050.0</ele><time>2026-05-01T16:55:18.871Z</time></trkpt><trkpt lat="43.8640367" lon="6.4855938"><ele>1050.0</ele><time>2026-05-01T16:55:19.871Z</time></trkpt><trkpt lat="43.8641923" lon="6.4855915"><ele>1050.0</ele><time>2026-05-01T16:55:20.871Z</time></trkpt><trkpt lat="43.8643298" lon="6.4855707"><ele>1048.3333333333333</ele><time>2026-05-01T16:55:21.871Z</time></trkpt><trkpt lat="43.8644776" lon="6.4855071"><ele>1046.6666666666665</ele><time>2026-05-01T16:55:22.871Z</time></trkpt><trkpt lat="43.8646328" lon="6.4854911"><ele>1045.0</ele><time>2026-05-01T16:55:23.871Z</time></trkpt><trkpt lat="43.8647734" lon="6.485435"><ele>1047.8</ele><time>2026-05-01T16:55:24.871Z</time></trkpt><trkpt lat="43.8649243" lon="6.4853515"><ele>1050.6</ele><time>2026-05-01T16:55:25.871Z</time></trkpt><trkpt lat="43.8650087" lon="6.4852969"><ele>1053.4</ele><time>2026-05-01T16:55:26.871Z</time></trkpt><trkpt lat="43.8650865" lon="6.4852339"><ele>1056.2</ele><time>2026-05-01T16:55:27.871Z</time></trkpt><trkpt lat="43.8650698" lon="6.4851374"><ele>1059.0</ele><time>2026-05-01T16:55:28.872Z</time></trkpt><trkpt lat="43.8650741" lon="6.4850288"><ele>1059.0</ele><time>2026-05-01T16:55:29.871Z</time></trkpt><trkpt lat="43.8650113" lon="6.4849099"><ele>1059.0</ele><time>2026-05-01T16:55:31.871Z</time></trkpt><trkpt lat="43.8649387" lon="6.4848711"><ele>1059.0</ele><time>2026-05-01T16:55:32.871Z</time></trkpt><trkpt lat="43.8648549" lon="6.4848691"><ele>1059.0</ele><time>2026-05-01T16:55:33.871Z</time></trkpt><trkpt lat="43.8646934" lon="6.4849868"><ele>1059.0</ele><time>2026-05-01T16:55:34.871Z</time></trkpt><trkpt lat="43.8645175" lon="6.4850833"><ele>1059.0</ele><time>2026-05-01T16:55:35.871Z</time></trkpt><trkpt lat="43.864392" lon="6.4850755"><ele>1059.0</ele><time>2026-05-01T16:55:36.871Z</time></trkpt><trkpt lat="43.8642841" lon="6.4850538"><ele>1059.0</ele><time>2026-05-01T16:55:37.871Z</time></trkpt><trkpt lat="43.8641781" lon="6.4850053"><ele>1058.25</ele><time>2026-05-01T16:55:38.871Z</time></trkpt><trkpt lat="43.8641077" lon="6.4848202"><ele>1057.5</ele><time>2026-05-01T16:55:39.871Z</time></trkpt><trkpt lat="43.8640752" lon="6.4846741"><ele>1056.75</ele><time>2026-05-01T16:55:40.871Z</time></trkpt><trkpt lat="43.8640542" lon="6.4845094"><ele>1056.0</ele><time>2026-05-01T16:55:41.871Z</time></trkpt><trkpt lat="43.8640718" lon="6.4843089"><ele>1057.5</ele><time>2026-05-01T16:55:42.871Z</time></trkpt><trkpt lat="43.8640301" lon="6.4841043"><ele>1059.0</ele><time>2026-05-01T16:55:43.872Z</time></trkpt><trkpt lat="43.8639777" lon="6.4839096"><ele>1060.5</ele><time>2026-05-01T16:55:44.871Z</time></trkpt><trkpt lat="43.8639273" lon="6.4837299"><ele>1062.0</ele><time>2026-05-01T16:55:45.871Z</time></trkpt><trkpt lat="43.8639026" lon="6.4835436"><ele>1064.6666666666667</ele><time>2026-05-01T16:55:46.871Z</time></trkpt><trkpt lat="43.8638989" lon="6.4833383"><ele>1067.3333333333335</ele><time>2026-05-01T16:55:47.871Z</time></trkpt><trkpt lat="43.8639234" lon="6.4831083"><ele>1070.0</ele><time>2026-05-01T16:55:48.871Z</time></trkpt><trkpt lat="43.8639546" lon="6.482885"><ele>1070.0</ele><time>2026-05-01T16:55:49.871Z</time></trkpt><trkpt lat="43.8640077" lon="6.4826312"><ele>1070.0</ele><time>2026-05-01T16:55:50.871Z</time></trkpt><trkpt lat="43.8640422" lon="6.4824102"><ele>1070.0</ele><time>2026-05-01T16:55:51.871Z</time></trkpt><trkpt lat="43.8640631" lon="6.4822093"><ele>1067.3333333333335</ele><time>2026-05-01T16:55:52.871Z</time></trkpt><trkpt lat="43.8641355" lon="6.4819811"><ele>1064.6666666666667</ele><time>2026-05-01T16:55:53.871Z</time></trkpt><trkpt lat="43.8642388" lon="6.481807"><ele>1062.0</ele><time>2026-05-01T16:55:54.871Z</time></trkpt><trkpt lat="43.8643131" lon="6.4816865"><ele>1070.0</ele><time>2026-05-01T16:55:55.872Z</time></trkpt><trkpt lat="43.8644137" lon="6.4815468"><ele>1078.0</ele><time>2026-05-01T16:55:56.871Z</time></trkpt><trkpt lat="43.8645507" lon="6.4814219"><ele>1086.0</ele><time>2026-05-01T16:55:57.871Z</time></trkpt><trkpt lat="43.8646939" lon="6.4812292"><ele>1086.0</ele><time>2026-05-01T16:55:58.871Z</time></trkpt><trkpt lat="43.8648123" lon="6.4810545"><ele>1086.0</ele><time>2026-05-01T16:55:59.871Z</time></trkpt><trkpt lat="43.8648808" lon="6.4808609"><ele>1086.0</ele><time>2026-05-01T16:56:00.871Z</time></trkpt><trkpt lat="43.8649368" lon="6.4806751"><ele>1086.0</ele><time>2026-05-01T16:56:01.871Z</time></trkpt><trkpt lat="43.8650206" lon="6.4804558"><ele>1086.0</ele><time>2026-05-01T16:56:02.871Z</time></trkpt><trkpt lat="43.8651027" lon="6.4802366"><ele>1086.0</ele><time>2026-05-01T16:56:03.871Z</time></trkpt><trkpt lat="43.8651509" lon="6.4799819"><ele>1095.0</ele><time>2026-05-01T16:56:04.871Z</time></trkpt><trkpt lat="43.8651752" lon="6.4797591"><ele>1104.0</ele><time>2026-05-01T16:56:05.871Z</time></trkpt><trkpt lat="43.8652328" lon="6.4795509"><ele>1113.0</ele><time>2026-05-01T16:56:06.872Z</time></trkpt><trkpt lat="43.8652676" lon="6.4792842"><ele>1113.0</ele><time>2026-05-01T16:56:07.871Z</time></trkpt><trkpt lat="43.8653012" lon="6.4790874"><ele>1113.0</ele><time>2026-05-01T16:56:08.871Z</time></trkpt><trkpt lat="43.8653344" lon="6.4788686"><ele>1113.0</ele><time>2026-05-01T16:56:09.871Z</time></trkpt><trkpt lat="43.8653501" lon="6.4786289"><ele>1111.25</ele><time>2026-05-01T16:56:10.871Z</time></trkpt><trkpt lat="43.8653378" lon="6.4784397"><ele>1109.5</ele><time>2026-05-01T16:56:11.871Z</time></trkpt><trkpt lat="43.865349" lon="6.4782504"><ele>1107.75</ele><time>2026-05-01T16:56:12.872Z</time></trkpt><trkpt lat="43.8653703" lon="6.4780788"><ele>1106.0</ele><time>2026-05-01T16:56:13.871Z</time></trkpt><trkpt lat="43.8654704" lon="6.477947"><ele>1100.3333333333335</ele><time>2026-05-01T16:56:14.872Z</time></trkpt><trkpt lat="43.8655578" lon="6.4778031"><ele>1094.6666666666667</ele><time>2026-05-01T16:56:15.871Z</time></trkpt><trkpt lat="43.8656763" lon="6.4777112"><ele>1089.0</ele><time>2026-05-01T16:56:16.871Z</time></trkpt><trkpt lat="43.8658516" lon="6.477512"><ele>1095.0</ele><time>2026-05-01T16:56:17.871Z</time></trkpt><trkpt lat="43.8659891" lon="6.477347"><ele>1101.0</ele><time>2026-05-01T16:56:18.871Z</time></trkpt><trkpt lat="43.8661468" lon="6.4771882"><ele>1107.0</ele><time>2026-05-01T16:56:19.872Z</time></trkpt><trkpt lat="43.8662779" lon="6.4770324"><ele>1107.0</ele><time>2026-05-01T16:56:20.871Z</time></trkpt><trkpt lat="43.8664004" lon="6.4768786"><ele>1107.0</ele><time>2026-05-01T16:56:21.871Z</time></trkpt><trkpt lat="43.8665191" lon="6.4766922"><ele>1107.0</ele><time>2026-05-01T16:56:22.871Z</time></trkpt><trkpt lat="43.8666074" lon="6.4765207"><ele>1107.0</ele><time>2026-05-01T16:56:23.871Z</time></trkpt><trkpt lat="43.8666843" lon="6.476343"><ele>1107.0</ele><time>2026-05-01T16:56:24.871Z</time></trkpt><trkpt lat="43.8666858" lon="6.4761707"><ele>1107.0</ele><time>2026-05-01T16:56:25.871Z</time></trkpt><trkpt lat="43.8667003" lon="6.4759942"><ele>1107.0</ele><time>2026-05-01T16:56:26.871Z</time></trkpt><trkpt lat="43.8666951" lon="6.4757603"><ele>1106.0</ele><time>2026-05-01T16:56:27.871Z</time></trkpt><trkpt lat="43.8666929" lon="6.4755735"><ele>1105.0</ele><time>2026-05-01T16:56:28.871Z</time></trkpt><trkpt lat="43.8666974" lon="6.4753678"><ele>1104.0</ele><time>2026-05-01T16:56:29.872Z</time></trkpt><trkpt lat="43.8667274" lon="6.4751963"><ele>1103.0</ele><time>2026-05-01T16:56:30.871Z</time></trkpt><trkpt lat="43.8667724" lon="6.475023"><ele>1105.0</ele><time>2026-05-01T16:56:31.871Z</time></trkpt><trkpt lat="43.866841" lon="6.4748545"><ele>1107.0</ele><time>2026-05-01T16:56:32.871Z</time></trkpt><trkpt lat="43.8669712" lon="6.4746548"><ele>1109.0</ele><time>2026-05-01T16:56:33.871Z</time></trkpt><trkpt lat="43.8670859" lon="6.4744985"><ele>1109.0</ele><time>2026-05-01T16:56:34.871Z</time></trkpt><trkpt lat="43.8671903" lon="6.4743294"><ele>1109.0</ele><time>2026-05-01T16:56:35.871Z</time></trkpt><trkpt lat="43.8673109" lon="6.4742251"><ele>1109.0</ele><time>2026-05-01T16:56:36.872Z</time></trkpt><trkpt lat="43.8673822" lon="6.4740908"><ele>1109.0</ele><time>2026-05-01T16:56:37.871Z</time></trkpt><trkpt lat="43.867425" lon="6.4739206"><ele>1108.2</ele><time>2026-05-01T16:56:38.871Z</time></trkpt><trkpt lat="43.867435" lon="6.4737532"><ele>1107.4</ele><time>2026-05-01T16:56:39.871Z</time></trkpt><trkpt lat="43.8674435" lon="6.4736119"><ele>1106.6</ele><time>2026-05-01T16:56:40.871Z</time></trkpt><trkpt lat="43.8674177" lon="6.4734979"><ele>1105.8</ele><time>2026-05-01T16:56:41.871Z</time></trkpt><trkpt lat="43.8674757" lon="6.4733944"><ele>1105.0</ele><time>2026-05-01T16:56:42.872Z</time></trkpt><trkpt lat="43.8675691" lon="6.4732934"><ele>1117.0</ele><time>2026-05-01T16:56:43.871Z</time></trkpt><trkpt lat="43.8676644" lon="6.473126"><ele>1129.0</ele><time>2026-05-01T16:56:44.871Z</time></trkpt><trkpt lat="43.8678093" lon="6.4728866"><ele>1141.0</ele><time>2026-05-01T16:56:45.871Z</time></trkpt><trkpt lat="43.8679397" lon="6.4727137"><ele>1141.0</ele><time>2026-05-01T16:56:46.872Z</time></trkpt><trkpt lat="43.8680589" lon="6.4725001"><ele>1141.0</ele><time>2026-05-01T16:56:47.871Z</time></trkpt><trkpt lat="43.868167" lon="6.4723078"><ele>1141.0</ele><time>2026-05-01T16:56:48.871Z</time></trkpt><trkpt lat="43.8682526" lon="6.4720824"><ele>1145.5</ele><time>2026-05-01T16:56:49.871Z</time></trkpt><trkpt lat="43.8683119" lon="6.471893"><ele>1150.0</ele><time>2026-05-01T16:56:50.871Z</time></trkpt><trkpt lat="43.8683818" lon="6.4717374"><ele>1154.5</ele><time>2026-05-01T16:56:51.871Z</time></trkpt><trkpt lat="43.8684146" lon="6.4716034"><ele>1159.0</ele><time>2026-05-01T16:56:52.871Z</time></trkpt><trkpt lat="43.8684924" lon="6.4715579"><ele>1159.0</ele><time>2026-05-01T16:56:53.871Z</time></trkpt><trkpt lat="43.8685863" lon="6.4715002"><ele>1159.0</ele><time>2026-05-01T16:56:54.871Z</time></trkpt><trkpt lat="43.8686699" lon="6.4714185"><ele>1159.0</ele><time>2026-05-01T16:56:55.871Z</time></trkpt><trkpt lat="43.8687501" lon="6.4713126"><ele>1159.0</ele><time>2026-05-01T16:56:56.871Z</time></trkpt><trkpt lat="43.8687702" lon="6.4712046"><ele>1159.0</ele><time>2026-05-01T16:56:57.871Z</time></trkpt><trkpt lat="43.8688095" lon="6.4710647"><ele>1156.0</ele><time>2026-05-01T16:56:58.871Z</time></trkpt><trkpt lat="43.8687858" lon="6.4708477"><ele>1153.0</ele><time>2026-05-01T16:56:59.872Z</time></trkpt><trkpt lat="43.8687882" lon="6.4706671"><ele>1150.0</ele><time>2026-05-01T16:57:00.871Z</time></trkpt><trkpt lat="43.8688182" lon="6.4704582"><ele>1147.0</ele><time>2026-05-01T16:57:01.871Z</time></trkpt><trkpt lat="43.8688539" lon="6.4702642"><ele>1144.0</ele><time>2026-05-01T16:57:02.871Z</time></trkpt><trkpt lat="43.86891" lon="6.4700556"><ele>1141.0</ele><time>2026-05-01T16:57:03.871Z</time></trkpt><trkpt lat="43.8689737" lon="6.4698722"><ele>1138.0</ele><time>2026-05-01T16:57:04.871Z</time></trkpt><trkpt lat="43.8690704" lon="6.469709"><ele>1136.5</ele><time>2026-05-01T16:57:05.871Z</time></trkpt><trkpt lat="43.869128" lon="6.4695689"><ele>1135.0</ele><time>2026-05-01T16:57:06.871Z</time></trkpt><trkpt lat="43.869139" lon="6.4693627"><ele>1133.5</ele><time>2026-05-01T16:57:07.871Z</time></trkpt><trkpt lat="43.8690851" lon="6.4691721"><ele>1132.0</ele><time>2026-05-01T16:57:08.871Z</time></trkpt><trkpt lat="43.8690623" lon="6.4689884"><ele>1132.0</ele><time>2026-05-01T16:57:09.871Z</time></trkpt><trkpt lat="43.8690399" lon="6.4688463"><ele>1132.0</ele><time>2026-05-01T16:57:10.871Z</time></trkpt><trkpt lat="43.8690535" lon="6.4686844"><ele>1132.0</ele><time>2026-05-01T16:57:11.871Z</time></trkpt><trkpt lat="43.8690926" lon="6.468555"><ele>1132.0</ele><time>2026-05-01T16:57:12.871Z</time></trkpt><trkpt lat="43.8690614" lon="6.4683441"><ele>1132.25</ele><time>2026-05-01T16:57:13.871Z</time></trkpt><trkpt lat="43.8690664" lon="6.4681586"><ele>1132.5</ele><time>2026-05-01T16:57:14.871Z</time></trkpt><trkpt lat="43.869055" lon="6.4679576"><ele>1132.75</ele><time>2026-05-01T16:57:15.871Z</time></trkpt><trkpt lat="43.8689967" lon="6.4677486"><ele>1133.0</ele><time>2026-05-01T16:57:16.871Z</time></trkpt><trkpt lat="43.8689097" lon="6.4675683"><ele>1134.25</ele><time>2026-05-01T16:57:17.871Z</time></trkpt><trkpt lat="43.8688354" lon="6.4674172"><ele>1135.5</ele><time>2026-05-01T16:57:18.871Z</time></trkpt><trkpt lat="43.8687131" lon="6.4673533"><ele>1136.75</ele><time>2026-05-01T16:57:19.871Z</time></trkpt><trkpt lat="43.8685898" lon="6.4672608"><ele>1138.0</ele><time>2026-05-01T16:57:20.871Z</time></trkpt><trkpt lat="43.8684725" lon="6.4672"><ele>1136.0</ele><time>2026-05-01T16:57:21.871Z</time></trkpt><trkpt lat="43.8683262" lon="6.4671942"><ele>1134.0</ele><time>2026-05-01T16:57:22.871Z</time></trkpt><trkpt lat="43.8682179" lon="6.467252"><ele>1132.0</ele><time>2026-05-01T16:57:23.871Z</time></trkpt><trkpt lat="43.8680719" lon="6.4673335"><ele>1130.0</ele><time>2026-05-01T16:57:24.871Z</time></trkpt><trkpt lat="43.8679262" lon="6.4674167"><ele>1130.0</ele><time>2026-05-01T16:57:25.871Z</time></trkpt><trkpt lat="43.8677573" lon="6.4674692"><ele>1130.0</ele><time>2026-05-01T16:57:26.871Z</time></trkpt><trkpt lat="43.8676027" lon="6.4674673"><ele>1130.0</ele><time>2026-05-01T16:57:27.871Z</time></trkpt><trkpt lat="43.8674587" lon="6.467457"><ele>1130.0</ele><time>2026-05-01T16:57:28.871Z</time></trkpt><trkpt lat="43.867308" lon="6.4674578"><ele>1130.0</ele><time>2026-05-01T16:57:29.871Z</time></trkpt><trkpt lat="43.8671705" lon="6.4674552"><ele>1130.0</ele><time>2026-05-01T16:57:30.871Z</time></trkpt><trkpt lat="43.866999" lon="6.4675169"><ele>1130.0</ele><time>2026-05-01T16:57:31.871Z</time></trkpt><trkpt lat="43.8668764" lon="6.4675736"><ele>1130.0</ele><time>2026-05-01T16:57:32.872Z</time></trkpt><trkpt lat="43.8667526" lon="6.4676694"><ele>1130.0</ele><time>2026-05-01T16:57:33.871Z</time></trkpt><trkpt lat="43.8666295" lon="6.4677822"><ele>1130.0</ele><time>2026-05-01T16:57:34.871Z</time></trkpt><trkpt lat="43.8664921" lon="6.4678522"><ele>1129.0</ele><time>2026-05-01T16:57:35.871Z</time></trkpt><trkpt lat="43.8663548" lon="6.4679321"><ele>1128.0</ele><time>2026-05-01T16:57:36.872Z</time></trkpt><trkpt lat="43.8662376" lon="6.4679755"><ele>1127.0</ele><time>2026-05-01T16:57:37.871Z</time></trkpt><trkpt lat="43.8661125" lon="6.4679509"><ele>1126.0</ele><time>2026-05-01T16:57:38.871Z</time></trkpt><trkpt lat="43.866037" lon="6.4678244"><ele>1128.6666666666665</ele><time>2026-05-01T16:57:39.871Z</time></trkpt><trkpt lat="43.8659381" lon="6.4676566"><ele>1131.3333333333333</ele><time>2026-05-01T16:57:40.871Z</time></trkpt><trkpt lat="43.8659005" lon="6.4674928"><ele>1134.0</ele><time>2026-05-01T16:57:41.871Z</time></trkpt><trkpt lat="43.865791" lon="6.4672062"><ele>1138.6666666666667</ele><time>2026-05-01T16:57:42.871Z</time></trkpt><trkpt lat="43.8656621" lon="6.4670169"><ele>1143.3333333333335</ele><time>2026-05-01T16:57:43.871Z</time></trkpt><trkpt lat="43.8655366" lon="6.4668578"><ele>1148.0</ele><time>2026-05-01T16:57:44.871Z</time></trkpt><trkpt lat="43.8654067" lon="6.4667047"><ele>1148.0</ele><time>2026-05-01T16:57:45.871Z</time></trkpt><trkpt lat="43.8653019" lon="6.4665982"><ele>1148.0</ele><time>2026-05-01T16:57:46.871Z</time></trkpt><trkpt lat="43.8652112" lon="6.4665309"><ele>1148.0</ele><time>2026-05-01T16:57:47.871Z</time></trkpt><trkpt lat="43.8651091" lon="6.4664636"><ele>1148.0</ele><time>2026-05-01T16:57:48.871Z</time></trkpt><trkpt lat="43.8650161" lon="6.4663731"><ele>1146.6</ele><time>2026-05-01T16:57:49.867Z</time></trkpt><trkpt lat="43.8649405" lon="6.4662485"><ele>1145.1999999999998</ele><time>2026-05-01T16:57:50.867Z</time></trkpt><trkpt lat="43.8649257" lon="6.466088"><ele>1143.8</ele><time>2026-05-01T16:57:51.867Z</time></trkpt><trkpt lat="43.8649189" lon="6.465975"><ele>1142.3999999999999</ele><time>2026-05-01T16:57:52.867Z</time></trkpt><trkpt lat="43.8649179" lon="6.4658307"><ele>1141.0</ele><time>2026-05-01T16:57:53.867Z</time></trkpt><trkpt lat="43.8649404" lon="6.4655805"><ele>1141.3333333333333</ele><time>2026-05-01T16:57:54.867Z</time></trkpt><trkpt lat="43.864969" lon="6.4653334"><ele>1141.6666666666667</ele><time>2026-05-01T16:57:55.867Z</time></trkpt><trkpt lat="43.8650143" lon="6.4651004"><ele>1142.0</ele><time>2026-05-01T16:57:56.867Z</time></trkpt><trkpt lat="43.8650834" lon="6.4648646"><ele>1144.0</ele><time>2026-05-01T16:57:57.867Z</time></trkpt><trkpt lat="43.8651476" lon="6.4646768"><ele>1146.0</ele><time>2026-05-01T16:57:58.867Z</time></trkpt><trkpt lat="43.8651993" lon="6.4644832"><ele>1148.0</ele><time>2026-05-01T16:57:59.867Z</time></trkpt><trkpt lat="43.8652474" lon="6.4643118"><ele>1150.0</ele><time>2026-05-01T16:58:00.867Z</time></trkpt><trkpt lat="43.8652931" lon="6.4641659"><ele>1150.0</ele><time>2026-05-01T16:58:01.867Z</time></trkpt><trkpt lat="43.8653459" lon="6.463973"><ele>1150.0</ele><time>2026-05-01T16:58:02.868Z</time></trkpt><trkpt lat="43.8653655" lon="6.4637855"><ele>1150.0</ele><time>2026-05-01T16:58:03.867Z</time></trkpt><trkpt lat="43.8654121" lon="6.4635974"><ele>1150.0</ele><time>2026-05-01T16:58:04.868Z</time></trkpt><trkpt lat="43.8654209" lon="6.4634389"><ele>1149.75</ele><time>2026-05-01T16:58:05.867Z</time></trkpt><trkpt lat="43.8654321" lon="6.4632446"><ele>1149.5</ele><time>2026-05-01T16:58:06.867Z</time></trkpt><trkpt lat="43.8654489" lon="6.4630447"><ele>1149.25</ele><time>2026-05-01T16:58:07.867Z</time></trkpt><trkpt lat="43.8654761" lon="6.4628209"><ele>1149.0</ele><time>2026-05-01T16:58:08.867Z</time></trkpt><trkpt lat="43.8654911" lon="6.4626346"><ele>1148.0</ele><time>2026-05-01T16:58:09.867Z</time></trkpt><trkpt lat="43.8654757" lon="6.462447"><ele>1147.0</ele><time>2026-05-01T16:58:10.867Z</time></trkpt><trkpt lat="43.8654833" lon="6.4622075"><ele>1146.0</ele><time>2026-05-01T16:58:11.868Z</time></trkpt><trkpt lat="43.865509" lon="6.4619906"><ele>1143.6666666666667</ele><time>2026-05-01T16:58:12.868Z</time></trkpt><trkpt lat="43.8655702" lon="6.461783"><ele>1141.3333333333335</ele><time>2026-05-01T16:58:13.867Z</time></trkpt><trkpt lat="43.8656714" lon="6.4615657"><ele>1139.0</ele><time>2026-05-01T16:58:14.867Z</time></trkpt><trkpt lat="43.8657445" lon="6.4613565"><ele>1141.3333333333335</ele><time>2026-05-01T16:58:15.868Z</time></trkpt><trkpt lat="43.8658266" lon="6.4611708"><ele>1143.6666666666667</ele><time>2026-05-01T16:58:16.867Z</time></trkpt><trkpt lat="43.865914" lon="6.4609566"><ele>1146.0</ele><time>2026-05-01T16:58:17.867Z</time></trkpt><trkpt lat="43.8659929" lon="6.4607829"><ele>1146.0</ele><time>2026-05-01T16:58:18.867Z</time></trkpt><trkpt lat="43.8660698" lon="6.4606089"><ele>1146.0</ele><time>2026-05-01T16:58:19.867Z</time></trkpt><trkpt lat="43.866135" lon="6.4604155"><ele>1146.0</ele><time>2026-05-01T16:58:20.867Z</time></trkpt><trkpt lat="43.8661847" lon="6.4602259"><ele>1146.0</ele><time>2026-05-01T16:58:21.867Z</time></trkpt><trkpt lat="43.866285" lon="6.4599105"><ele>1145.75</ele><time>2026-05-01T16:58:22.867Z</time></trkpt><trkpt lat="43.8663577" lon="6.4597056"><ele>1145.5</ele><time>2026-05-01T16:58:24.867Z</time></trkpt><trkpt lat="43.866428" lon="6.459616"><ele>1145.25</ele><time>2026-05-01T16:58:25.867Z</time></trkpt><trkpt lat="43.8664857" lon="6.4594946"><ele>1145.0</ele><time>2026-05-01T16:58:26.867Z</time></trkpt><trkpt lat="43.8665162" lon="6.4593296"><ele>1143.4</ele><time>2026-05-01T16:58:28.867Z</time></trkpt><trkpt lat="43.866522" lon="6.4592187"><ele>1141.8</ele><time>2026-05-01T16:58:29.867Z</time></trkpt><trkpt lat="43.866484" lon="6.4591244"><ele>1140.2</ele><time>2026-05-01T16:58:31.867Z</time></trkpt><trkpt lat="43.8664022" lon="6.4590688"><ele>1138.6</ele><time>2026-05-01T16:58:33.867Z</time></trkpt><trkpt lat="43.8663319" lon="6.4590737"><ele>1137.0</ele><time>2026-05-01T16:58:35.867Z</time></trkpt><trkpt lat="43.8661511" lon="6.459112"><ele>1137.0</ele><time>2026-05-01T16:58:38.867Z</time></trkpt><trkpt lat="43.8660443" lon="6.4591456"><ele>1137.0</ele><time>2026-05-01T16:58:39.867Z</time></trkpt><trkpt lat="43.8658168" lon="6.4591474"><ele>1137.0</ele><time>2026-05-01T16:58:40.867Z</time></trkpt><trkpt lat="43.8656976" lon="6.4591503"><ele>1130.0</ele><time>2026-05-01T16:58:41.867Z</time></trkpt><trkpt lat="43.8655963" lon="6.4592041"><ele>1123.0</ele><time>2026-05-01T16:58:42.868Z</time></trkpt><trkpt lat="43.8653935" lon="6.4592659"><ele>1116.0</ele><time>2026-05-01T16:58:43.867Z</time></trkpt><trkpt lat="43.8652953" lon="6.4596119"><ele>1118.6666666666667</ele><time>2026-05-01T16:58:44.867Z</time></trkpt><trkpt lat="43.8651748" lon="6.4597602"><ele>1121.3333333333335</ele><time>2026-05-01T16:58:45.867Z</time></trkpt><trkpt lat="43.8651545" lon="6.4599786"><ele>1124.0</ele><time>2026-05-01T16:58:46.867Z</time></trkpt><trkpt lat="43.8650685" lon="6.4602242"><ele>1118.0</ele><time>2026-05-01T16:58:47.867Z</time></trkpt><trkpt lat="43.8649529" lon="6.460501"><ele>1112.0</ele><time>2026-05-01T16:58:48.867Z</time></trkpt><trkpt lat="43.8649434" lon="6.4608706"><ele>1112.0</ele><time>2026-05-01T16:58:49.867Z</time></trkpt><trkpt lat="43.8649654" lon="6.4612496"><ele>1112.0</ele><time>2026-05-01T16:58:50.868Z</time></trkpt><trkpt lat="43.8649522" lon="6.4614449"><ele>1112.0</ele><time>2026-05-01T16:58:52.868Z</time></trkpt><trkpt lat="43.8648507" lon="6.4612756"><ele>1112.0</ele><time>2026-05-01T16:58:53.867Z</time></trkpt><trkpt lat="43.8649437" lon="6.4611101"><ele>1112.0</ele><time>2026-05-01T16:58:54.867Z</time></trkpt><trkpt lat="43.8649657" lon="6.4608521"><ele>1112.0</ele><time>2026-05-01T16:58:55.867Z</time></trkpt><trkpt lat="43.8649815" lon="6.4604931"><ele>1110.0</ele><time>2026-05-01T16:58:56.867Z</time></trkpt><trkpt lat="43.8650276" lon="6.460105"><ele>1108.0</ele><time>2026-05-01T16:58:57.867Z</time></trkpt><trkpt lat="43.8650506" lon="6.4598225"><ele>1105.6666666666665</ele><time>2026-05-01T16:58:58.867Z</time></trkpt><trkpt lat="43.8651038" lon="6.4595703"><ele>1103.3333333333333</ele><time>2026-05-01T16:58:59.867Z</time></trkpt><trkpt lat="43.8651205" lon="6.4593198"><ele>1101.0</ele><time>2026-05-01T16:59:00.868Z</time></trkpt><trkpt lat="43.8651748" lon="6.4590777"><ele>1102.6666666666667</ele><time>2026-05-01T16:59:01.867Z</time></trkpt><trkpt lat="43.865246" lon="6.4588394"><ele>1104.3333333333335</ele><time>2026-05-01T16:59:02.867Z</time></trkpt><trkpt lat="43.8653185" lon="6.4586163"><ele>1106.0</ele><time>2026-05-01T16:59:03.867Z</time></trkpt><trkpt lat="43.8653822" lon="6.4583794"><ele>1106.0</ele><time>2026-05-01T16:59:04.867Z</time></trkpt><trkpt lat="43.8654413" lon="6.4581537"><ele>1106.0</ele><time>2026-05-01T16:59:05.867Z</time></trkpt><trkpt lat="43.8655184" lon="6.4579479"><ele>1106.0</ele><time>2026-05-01T16:59:06.867Z</time></trkpt><trkpt lat="43.8655925" lon="6.4577386"><ele>1102.3333333333335</ele><time>2026-05-01T16:59:07.867Z</time></trkpt><trkpt lat="43.8656368" lon="6.4575058"><ele>1098.6666666666667</ele><time>2026-05-01T16:59:08.868Z</time></trkpt><trkpt lat="43.8656922" lon="6.4572871"><ele>1095.0</ele><time>2026-05-01T16:59:09.867Z</time></trkpt><trkpt lat="43.865694" lon="6.457109"><ele>1092.6666666666667</ele><time>2026-05-01T16:59:10.868Z</time></trkpt><trkpt lat="43.8656818" lon="6.4568669"><ele>1090.3333333333335</ele><time>2026-05-01T16:59:11.867Z</time></trkpt><trkpt lat="43.8657282" lon="6.456633"><ele>1088.0</ele><time>2026-05-01T16:59:12.867Z</time></trkpt><trkpt lat="43.8657839" lon="6.4564096"><ele>1087.0</ele><time>2026-05-01T16:59:13.867Z</time></trkpt><trkpt lat="43.8658343" lon="6.4561871"><ele>1086.0</ele><time>2026-05-01T16:59:14.867Z</time></trkpt><trkpt lat="43.8658953" lon="6.4559756"><ele>1085.0</ele><time>2026-05-01T16:59:15.867Z</time></trkpt><trkpt lat="43.8659585" lon="6.4557482"><ele>1085.0</ele><time>2026-05-01T16:59:16.867Z</time></trkpt><trkpt lat="43.8660044" lon="6.4555114"><ele>1085.0</ele><time>2026-05-01T16:59:17.867Z</time></trkpt><trkpt lat="43.8660662" lon="6.4553097"><ele>1085.0</ele><time>2026-05-01T16:59:18.867Z</time></trkpt><trkpt lat="43.8661742" lon="6.4551188"><ele>1083.5</ele><time>2026-05-01T16:59:19.867Z</time></trkpt><trkpt lat="43.8662646" lon="6.4549448"><ele>1082.0</ele><time>2026-05-01T16:59:20.867Z</time></trkpt><trkpt lat="43.8663359" lon="6.4548149"><ele>1080.5</ele><time>2026-05-01T16:59:21.867Z</time></trkpt><trkpt lat="43.8664448" lon="6.4546696"><ele>1079.0</ele><time>2026-05-01T16:59:22.867Z</time></trkpt><trkpt lat="43.8665787" lon="6.4545581"><ele>1076.3333333333335</ele><time>2026-05-01T16:59:23.867Z</time></trkpt><trkpt lat="43.8667004" lon="6.45449"><ele>1073.6666666666667</ele><time>2026-05-01T16:59:24.868Z</time></trkpt><trkpt lat="43.8669018" lon="6.4543924"><ele>1071.0</ele><time>2026-05-01T16:59:25.868Z</time></trkpt><trkpt lat="43.8671115" lon="6.4543304"><ele>1070.6666666666667</ele><time>2026-05-01T16:59:26.867Z</time></trkpt><trkpt lat="43.8673052" lon="6.4542784"><ele>1070.3333333333335</ele><time>2026-05-01T16:59:27.867Z</time></trkpt><trkpt lat="43.8674714" lon="6.4542154"><ele>1070.0</ele><time>2026-05-01T16:59:28.867Z</time></trkpt><trkpt lat="43.8675913" lon="6.4541335"><ele>1071.0</ele><time>2026-05-01T16:59:29.868Z</time></trkpt><trkpt lat="43.8677286" lon="6.4540105"><ele>1072.0</ele><time>2026-05-01T16:59:30.867Z</time></trkpt><trkpt lat="43.8678593" lon="6.4538788"><ele>1073.0</ele><time>2026-05-01T16:59:31.867Z</time></trkpt><trkpt lat="43.8679897" lon="6.4536996"><ele>1073.0</ele><time>2026-05-01T16:59:32.867Z</time></trkpt><trkpt lat="43.8680713" lon="6.4534292"><ele>1073.0</ele><time>2026-05-01T16:59:33.867Z</time></trkpt><trkpt lat="43.8681395" lon="6.45318"><ele>1073.0</ele><time>2026-05-01T16:59:34.867Z</time></trkpt><trkpt lat="43.8682197" lon="6.4529601"><ele>1072.0</ele><time>2026-05-01T16:59:35.867Z</time></trkpt><trkpt lat="43.8683127" lon="6.4527576"><ele>1071.0</ele><time>2026-05-01T16:59:36.867Z</time></trkpt><trkpt lat="43.8684287" lon="6.452554"><ele>1070.0</ele><time>2026-05-01T16:59:37.868Z</time></trkpt><trkpt lat="43.8685343" lon="6.4523659"><ele>1068.6666666666667</ele><time>2026-05-01T16:59:38.867Z</time></trkpt><trkpt lat="43.8686521" lon="6.4522021"><ele>1067.3333333333333</ele><time>2026-05-01T16:59:39.867Z</time></trkpt><trkpt lat="43.8687976" lon="6.4520353"><ele>1066.0</ele><time>2026-05-01T16:59:40.867Z</time></trkpt><trkpt lat="43.8688983" lon="6.4518801"><ele>1066.0</ele><time>2026-05-01T16:59:41.867Z</time></trkpt><trkpt lat="43.8689754" lon="6.4517559"><ele>1066.0</ele><time>2026-05-01T16:59:42.867Z</time></trkpt><trkpt lat="43.8690626" lon="6.4515854"><ele>1066.0</ele><time>2026-05-01T16:59:43.867Z</time></trkpt><trkpt lat="43.8691546" lon="6.4514323"><ele>1066.0</ele><time>2026-05-01T16:59:44.867Z</time></trkpt><trkpt lat="43.8692602" lon="6.4512081"><ele>1064.75</ele><time>2026-05-01T16:59:45.867Z</time></trkpt><trkpt lat="43.869342" lon="6.4510702"><ele>1063.5</ele><time>2026-05-01T16:59:46.867Z</time></trkpt><trkpt lat="43.869389" lon="6.450978"><ele>1062.25</ele><time>2026-05-01T16:59:47.867Z</time></trkpt><trkpt lat="43.8694723" lon="6.4508424"><ele>1061.0</ele><time>2026-05-01T16:59:48.867Z</time></trkpt><trkpt lat="43.8695575" lon="6.4506795"><ele>1061.0</ele><time>2026-05-01T16:59:49.867Z</time></trkpt><trkpt lat="43.8696501" lon="6.4505249"><ele>1061.0</ele><time>2026-05-01T16:59:50.867Z</time></trkpt><trkpt lat="43.8696855" lon="6.4504134"><ele>1061.0</ele><time>2026-05-01T16:59:51.867Z</time></trkpt><trkpt lat="43.8697433" lon="6.4503156"><ele>1061.0</ele><time>2026-05-01T16:59:52.867Z</time></trkpt><trkpt lat="43.8697516" lon="6.4501745"><ele>1061.0</ele><time>2026-05-01T16:59:55.867Z</time></trkpt><trkpt lat="43.8696901" lon="6.4500016"><ele>1060.1666666666667</ele><time>2026-05-01T16:59:57.867Z</time></trkpt><trkpt lat="43.869651" lon="6.4499205"><ele>1059.3333333333335</ele><time>2026-05-01T16:59:58.867Z</time></trkpt><trkpt lat="43.8696163" lon="6.4498407"><ele>1058.5</ele><time>2026-05-01T16:59:59.867Z</time></trkpt><trkpt lat="43.8695624" lon="6.449761"><ele>1057.6666666666667</ele><time>2026-05-01T17:00:00.867Z</time></trkpt><trkpt lat="43.8695007" lon="6.4496682"><ele>1056.8333333333333</ele><time>2026-05-01T17:00:02.867Z</time></trkpt><trkpt lat="43.8694399" lon="6.4495673"><ele>1056.0</ele><time>2026-05-01T17:00:04.867Z</time></trkpt><trkpt lat="43.8693913" lon="6.4495077"><ele>1055.857142857143</ele><time>2026-05-01T17:00:06.867Z</time></trkpt><trkpt lat="43.8693292" lon="6.4494447"><ele>1055.7142857142858</ele><time>2026-05-01T17:00:09.867Z</time></trkpt><trkpt lat="43.8692782" lon="6.4493692"><ele>1055.5714285714287</ele><time>2026-05-01T17:00:12.867Z</time></trkpt><trkpt lat="43.8692388" lon="6.4492749"><ele>1055.4285714285716</ele><time>2026-05-01T17:00:14.867Z</time></trkpt><trkpt lat="43.8692171" lon="6.4491844"><ele>1055.2857142857144</ele><time>2026-05-01T17:00:17.867Z</time></trkpt><trkpt lat="43.8691547" lon="6.4491373"><ele>1055.142857142857</ele><time>2026-05-01T17:00:22.867Z</time></trkpt><trkpt lat="43.8691783" lon="6.449055"><ele>1055.0</ele><time>2026-05-01T17:00:35.867Z</time></trkpt><trkpt lat="43.8692385" lon="6.4490156"><ele>1055.0</ele><time>2026-05-01T17:00:41.867Z</time></trkpt><trkpt lat="43.8693096" lon="6.4489905"><ele>1055.0</ele><time>2026-05-01T17:00:48.867Z</time></trkpt><trkpt lat="43.8692297" lon="6.4490362"><ele>1055.0</ele><time>2026-05-01T17:01:30.867Z</time></trkpt><trkpt lat="43.8691679" lon="6.4490582"><ele>1055.0</ele><time>2026-05-01T17:01:37.867Z</time></trkpt><trkpt lat="43.8691048" lon="6.4491256"><ele>1055.0</ele><time>2026-05-01T17:01:41.867Z</time></trkpt><trkpt lat="43.869088" lon="6.4492145"><ele>1055.0</ele><time>2026-05-01T17:01:44.867Z</time></trkpt><trkpt lat="43.8690996" lon="6.4493305"><ele>1055.0</ele><time>2026-05-01T17:01:47.867Z</time></trkpt><trkpt lat="43.8691386" lon="6.4494454"><ele>1055.0</ele><time>2026-05-01T17:01:50.867Z</time></trkpt><trkpt lat="43.8691899" lon="6.4495155"><ele>1055.0</ele><time>2026-05-01T17:01:52.867Z</time></trkpt><trkpt lat="43.8692631" lon="6.4495474"><ele>1055.0</ele><time>2026-05-01T17:01:55.867Z</time></trkpt><trkpt lat="43.8693203" lon="6.449506"><ele>1055.0</ele><time>2026-05-01T17:01:58.867Z</time></trkpt><trkpt lat="43.8693568" lon="6.4493954"><ele>1055.0</ele><time>2026-05-01T17:02:01.867Z</time></trkpt><trkpt lat="43.86937" lon="6.4493023"><ele>1055.0</ele><time>2026-05-01T17:02:03.867Z</time></trkpt></trkseg></trk></gpx>